
Distance (Route):
Temperature : 18.2°C
Humidity : -1.0%
Pressure : -1.0hPa| Receiver | Frames | First received | Last received |
|---|---|---|---|
| BIOWL1-15 | 425 | 2026-08-31 06:58:11 | 2026-08-31 08:21:22 |
| DM0DOS-11 | 372 | 2026-08-31 06:58:44 | 2026-08-31 08:18:57 |
| DO3DL | 329 | 2026-08-31 07:09:58 | 2026-08-31 08:16:00 |
| DO3MHA-11 | 315 | 2026-08-31 07:13:20 | 2026-08-31 08:17:55 |
| DL1NUX | 248 | 2026-08-31 07:25:28 | 2026-08-31 08:19:50 |
| DL1XH-west | 190 | 2026-08-31 07:34:38 | 2026-08-31 08:12:07 |
| DB0UT-7 | 182 | 2026-08-31 06:33:45 | 2026-08-31 08:24:00 |
| CB1BUN | 155 | 2026-08-31 06:48:47 | 2026-08-31 08:16:20 |
| DK7TD | 142 | 2026-08-31 07:30:58 | 2026-08-31 08:13:41 |
| HEMX73-11 | 133 | 2026-08-31 06:49:03 | 2026-08-31 08:11:44 |
| DB0NH | 132 | 2026-08-31 06:59:27 | 2026-08-31 08:23:15 |
| NBG1-10 | 116 | 2026-08-31 07:04:25 | 2026-08-31 08:22:33 |
| DF1GD-15 | 102 | 2026-08-31 07:10:25 | 2026-08-31 08:18:20 |
| DF8AY | 101 | 2026-08-31 07:44:49 | 2026-08-31 08:10:03 |
| DF2AP-13 | 80 | 2026-08-31 07:21:06 | 2026-08-31 08:19:23 |
| DO2KSM | 67 | 2026-08-31 07:22:15 | 2026-08-31 08:13:29 |
| DL1XH-15 | 66 | 2026-08-31 07:51:57 | 2026-08-31 08:08:54 |
| SO1NDE-10 | 65 | 2026-08-31 07:25:26 | 2026-08-31 08:17:18 |
| HSKMA3-T | 53 | 2026-08-31 07:52:04 | 2026-08-31 08:18:31 |
| DN1GJH-1 | 41 | 2026-08-31 07:17:12 | 2026-08-31 08:08:33 |
| DO8TBO-1 | 41 | 2026-08-31 07:43:42 | 2026-08-31 08:10:36 |
| DM7RM-13 | 39 | 2026-08-31 07:55:31 | 2026-08-31 08:20:13 |
| AA1-15 | 34 | 2026-08-31 07:58:23 | 2026-08-31 08:09:14 |
| DO2JMG | 32 | 2026-08-31 07:52:42 | 2026-08-31 08:09:24 |
| DJTTGO | 26 | 2026-08-31 07:37:27 | 2026-08-31 08:14:02 |
| DH7VM-15 | 22 | 2026-08-31 07:01:10 | 2026-08-31 08:14:29 |
| BEGRI65-1 | 19 | 2026-08-31 07:21:28 | 2026-08-31 08:04:35 |
| DL8DAS-15 | 15 | 2026-08-31 07:12:40 | 2026-08-31 08:12:24 |
| THATR2-17 | 15 | 2026-08-31 07:35:46 | 2026-08-31 08:12:00 |
| DB0ND-19 | 11 | 2026-08-31 06:47:48 | 2026-08-31 08:24:37 |
| DF7PN | 8 | 2026-08-31 06:54:03 | 2026-08-31 08:24:07 |
| BIOWL7-15 | 8 | 2026-08-31 07:04:28 | 2026-08-31 08:18:04 |
| DJ3KS | 7 | 2026-08-31 07:13:33 | 2026-08-31 07:24:46 |
| DL1ZP-14 | 6 | 2026-08-31 06:49:02 | 2026-08-31 07:34:04 |
| KANTATE | 5 | 2026-08-31 07:36:15 | 2026-08-31 07:52:59 |
| BIOWL9-15 | 4 | 2026-08-31 07:06:05 | 2026-08-31 08:20:04 |
| DF3TZ-5 | 4 | 2026-08-31 07:11:02 | 2026-08-31 08:10:01 |
| DH3RM | 4 | 2026-08-31 07:22:29 | 2026-08-31 07:23:01 |
| DL8DAS-14 | 4 | 2026-08-31 07:28:02 | 2026-08-31 07:48:12 |
| DL3AQ-11 | 4 | 2026-08-31 07:35:47 | 2026-08-31 07:45:07 |
| DG1MJG | 4 | 2026-08-31 08:01:19 | 2026-08-31 08:04:54 |
| DD1CC8 | 3 | 2026-08-31 07:28:03 | 2026-08-31 07:58:03 |
| BUE01 | 3 | 2026-08-31 07:40:04 | 2026-08-31 08:09:03 |
| DM3KS-11 | 2 | 2026-08-31 07:03:03 | 2026-08-31 07:06:09 |
| DL9PN | 2 | 2026-08-31 07:07:06 | 2026-08-31 08:18:03 |
| DJ2DS-15 | 2 | 2026-08-31 07:26:02 | 2026-08-31 07:41:04 |
| HTAHTA | 1 | 2026-08-31 07:46:02 | 2026-08-31 07:46:02 |
| WPPR-10 | 1 | 2026-08-31 07:48:04 | 2026-08-31 07:48:04 |
| DO1YAY-16 | 1 | 2026-08-31 07:50:02 | 2026-08-31 07:50:02 |
| SONDE2-11 | 1 | 2026-08-31 07:51:02 | 2026-08-31 07:51:02 |
| EDDB2-12 | 1 | 2026-08-31 08:04:02 | 2026-08-31 08:04:02 |
| DC4HF-4 | 1 | 2026-08-31 08:08:03 | 2026-08-31 08:08:03 |
| Receiver | Date | Latitude | Longitude | Direction | Speed | Altitude | Climb | Temperature | Humidity | Pressure | Voltage | Killtimer | Uptime | BKT | XDATA |
|---|---|---|---|---|---|---|---|---|---|---|---|---|---|---|---|
| DB0ND-19 | 2026-08-31 08:24:37 | 50.24988 | 9.12632 | 56° | 24km/h | 279m | -10.7m/s | 18.2°C | -1.0% | -1.0hPa | 3.6V | 00:00:00 | 00:00:00 | 00:00:00 | |
| DF7PN | 2026-08-31 08:24:07 | 50.24947 | 9.12557 | 44° | 27km/h | 376m | -12.3m/s | 16.8°C | -1.0% | -1.0hPa | 3.6V | 00:00:00 | 00:00:00 | 00:00:00 | |
| DB0ND-19 | 2026-08-31 08:24:05 | 50.24942 | 9.12549 | 49° | 27km/h | 389m | -12.6m/s | 17.0°C | -1.0% | -1.0hPa | 3.6V | 00:00:00 | 00:00:00 | 00:00:00 | |
| DB0UT-7 | 2026-08-31 08:24:00 | 50.24915 | 9.12497 | 57° | 33km/h | 464m | -12.8m/s | 0°C | 0% | 0hPa | 3.6V | 00:00:00 | 00:00:00 | 00:00:00 | |
| DB0UT-7 | 2026-08-31 08:23:55 | 50.24890 | 9.12444 | 45° | 37km/h | 527m | -12.7m/s | 0°C | 0% | 0hPa | 3.6V | 00:00:00 | 00:00:00 | 00:00:00 | |
| DB0UT-7 | 2026-08-31 08:23:50 | 50.24859 | 9.12392 | 52° | 37km/h | 588m | -11.5m/s | 0°C | 0% | 0hPa | 3.6V | 00:00:00 | 00:00:00 | 00:00:00 | |
| DB0UT-7 | 2026-08-31 08:23:45 | 50.24830 | 9.12335 | 53° | 40km/h | 644m | -11.0m/s | 0°C | 0% | 0hPa | 3.6V | 00:00:00 | 00:00:00 | 00:00:00 | |
| DB0UT-7 | 2026-08-31 08:23:40 | 50.24798 | 9.12271 | 54° | 42km/h | 701m | -11.2m/s | 0°C | 0% | 0hPa | 3.6V | 00:00:00 | 00:00:00 | 00:00:00 | |
| DB0UT-7 | 2026-08-31 08:23:35 | 50.24768 | 9.12203 | 59° | 46km/h | 761m | -11.7m/s | 0°C | 0% | 0hPa | 3.6V | 00:00:00 | 00:00:00 | 00:00:00 | |
| DB0UT-7 | 2026-08-31 08:23:30 | 50.24735 | 9.12128 | 60° | 47km/h | 820m | -11.6m/s | 0°C | 0% | 0hPa | 3.6V | 00:00:00 | 00:00:00 | 00:00:00 | |
| DB0UT-7 | 2026-08-31 08:23:25 | 50.24703 | 9.12051 | 58° | 47km/h | 878m | -11.7m/s | 0°C | 0% | 0hPa | 3.6V | 00:00:00 | 00:00:00 | 00:00:00 | |
| DB0NH | 2026-08-31 08:23:15 | 50.24636 | 9.11889 | 61° | 49km/h | 1034m | -12.9m/s | 0°C | 0% | 0hPa | 3.6V | 00:00:00 | 00:00:00 | 00:00:00 | |
| DB0UT-7 | 2026-08-31 08:23:15 | 50.24636 | 9.11889 | 61° | 47km/h | 997m | -12.2m/s | 0°C | 0% | 0hPa | 3.6V | 00:00:00 | 00:00:00 | 00:00:00 | |
| DB0UT-7 | 2026-08-31 08:23:10 | 50.24608 | 9.11804 | 64° | 49km/h | 1062m | -13.0m/s | 0°C | 0% | 0hPa | 3.6V | 00:00:00 | 00:00:00 | 00:00:00 | |
| DB0NH | 2026-08-31 08:23:05 | 50.24582 | 9.11715 | 64° | 51km/h | 1125m | -12.3m/s | 0°C | 0% | 0hPa | 3.6V | 00:00:00 | 00:00:00 | 00:00:00 | |
| DB0ND-19 | 2026-08-31 08:23:03 | 50.24570 | 9.11678 | 66° | 51km/h | 1137m | -12.3m/s | 10.8°C | -1.0% | -1.0hPa | 3.6V | 00:00:00 | 00:00:00 | 00:00:00 | |
| DB0UT-7 | 2026-08-31 08:23:00 | 50.24556 | 9.11623 | 67° | 53km/h | 1223m | -11.8m/s | 0°C | 0% | 0hPa | 3.6V | 00:00:00 | 00:00:00 | 00:00:00 | |
| DB0NH | 2026-08-31 08:22:55 | 50.24533 | 9.11526 | 72° | 55km/h | 1248m | -12.4m/s | 0°C | 0% | 0hPa | 3.6V | 00:00:00 | 00:00:00 | 00:00:00 | |
| DB0UT-7 | 2026-08-31 08:22:50 | 50.24512 | 9.11425 | 77° | 53km/h | 1339m | -12.3m/s | 0°C | 0% | 0hPa | 3.6V | 00:00:00 | 00:00:00 | 00:00:00 | |
| DB0NH | 2026-08-31 08:22:45 | 50.24493 | 9.11320 | 75° | 53km/h | 1377m | -12.1m/s | 0°C | 0% | 0hPa | 3.6V | 00:00:00 | 00:00:00 | 00:00:00 | |
| DB0NH | 2026-08-31 08:22:35 | 50.24463 | 9.11117 | 81° | 57km/h | 1500m | -12.0m/s | 0°C | 0% | 0hPa | 3.6V | 00:00:00 | 00:00:00 | 00:00:00 | |
| NBG1-10 | 2026-08-31 08:22:33 | 50.24458 | 9.11075 | 79° | 58km/h | 1536m | -12.1m/s | 0°C | 0% | 0hPa | 3.6V | 00:00:00 | 00:00:00 | 00:00:00 | |
| DB0NH | 2026-08-31 08:22:25 | 50.24440 | 9.10899 | 83° | 60km/h | 1623m | -12.2m/s | 0°C | 0% | 0hPa | 3.6V | 00:00:00 | 00:00:00 | 00:00:00 | |
| DB0UT-7 | 2026-08-31 08:22:19 | 50.24424 | 9.10761 | 79° | 60km/h | 1710m | -12.2m/s | 0°C | 0% | 0hPa | 3.6V | 00:00:00 | 00:00:00 | 00:00:00 | |
| DB0NH | 2026-08-31 08:22:15 | 50.24410 | 9.10669 | 77° | 60km/h | 1747m | -12.3m/s | 0°C | 0% | 0hPa | 3.6V | 00:00:00 | 00:00:00 | 00:00:00 | |
| NBG1-10 | 2026-08-31 08:22:10 | 50.24395 | 9.10552 | 80° | 60km/h | 1808m | -12.2m/s | 0°C | 0% | 0hPa | 3.6V | 00:00:00 | 00:00:00 | 00:00:00 | |
| DB0UT-7 | 2026-08-31 08:22:08 | 50.24389 | 9.10505 | 81° | 60km/h | 1832m | -12.3m/s | 0°C | 0% | 0hPa | 3.6V | 00:00:00 | 00:00:00 | 00:00:00 | |
| DB0NH | 2026-08-31 08:22:05 | 50.24381 | 9.10434 | 79° | 60km/h | 1870m | -12.0m/s | 0°C | 0% | 0hPa | 3.6V | 00:00:00 | 00:00:00 | 00:00:00 | |
| DF7PN | 2026-08-31 08:22:03 | 50.24373 | 9.10364 | 79° | 60km/h | 1894m | -12.2m/s | 5.5°C | -1.0% | -1.0hPa | 3.6V | 00:00:00 | 00:00:00 | 00:00:00 | |
| DB0NH | 2026-08-31 08:21:55 | 50.24354 | 9.10203 | 81° | 58km/h | 1993m | -12.4m/s | 0°C | 0% | 0hPa | 3.6V | 00:00:00 | 00:00:00 | 00:00:00 | |
| NBG1-10 | 2026-08-31 08:21:48 | 50.24340 | 9.10043 | 82° | 57km/h | 2080m | -12.1m/s | 0°C | 0% | 0hPa | 3.6V | 00:00:00 | 00:00:00 | 00:00:00 | |
| DB0NH | 2026-08-31 08:21:38 | 50.24320 | 9.09815 | 81° | 57km/h | 2202m | -12.3m/s | 0°C | 0% | 0hPa | 3.6V | 00:00:00 | 00:00:00 | 00:00:00 | |
| NBG1-10 | 2026-08-31 08:21:26 | 50.24276 | 9.09566 | 69° | 64km/h | 2351m | -12.3m/s | 0°C | 0% | 0hPa | 3.6V | 00:00:00 | 00:00:00 | 00:00:00 | |
| BIOWL1-15 | 2026-08-31 08:21:22 | 50.24249 | 9.09461 | 69° | 64km/h | 2398m | -11.9m/s | 2.9°C | 0% | 0hPa | 3.6V | 00:00:00 | 00:00:00 | 00:00:00 | |
| DB0NH | 2026-08-31 08:21:18 | 50.24233 | 9.09388 | 72° | 66km/h | 2447m | -12.1m/s | 0°C | 0% | 0hPa | 3.6V | 00:00:00 | 00:00:00 | 00:00:00 | |
| BIOWL1-15 | 2026-08-31 08:21:12 | 50.24193 | 9.09178 | 72° | 68km/h | 2532m | -12.4m/s | 4.7°C | 0% | 0hPa | 3.6V | 00:00:00 | 00:00:00 | 00:00:00 | |
| DB0UT-7 | 2026-08-31 08:21:09 | 50.24188 | 9.09153 | 72° | 66km/h | 2610m | -12.2m/s | 0°C | 0% | 0hPa | 3.5V | 00:00:00 | 00:00:00 | 00:00:00 | |
| NBG1-10 | 2026-08-31 08:21:04 | 50.24165 | 9.09028 | 73° | 68km/h | 2622m | -12.3m/s | 0°C | 0% | 0hPa | 3.5V | 00:00:00 | 00:00:00 | 00:00:00 | |
| BIOWL1-15 | 2026-08-31 08:20:59 | 50.24143 | 9.08909 | 75° | 62km/h | 2673m | -12.8m/s | 4°C | 0% | 0hPa | 3.5V | 00:00:00 | 00:00:00 | 00:00:00 | |
| DB0NH | 2026-08-31 08:20:58 | 50.24139 | 9.08885 | 75° | 69km/h | 2698m | -12.4m/s | 0°C | 0% | 0hPa | 3.5V | 00:00:00 | 00:00:00 | 00:00:00 | |
| BIOWL1-15 | 2026-08-31 08:20:51 | 50.24097 | 9.08627 | 76° | 69km/h | 2813m | -12.7m/s | 3.1°C | 0% | 0hPa | 3.5V | 00:00:00 | 00:00:00 | 00:00:00 | |
| DB0UT-7 | 2026-08-31 08:20:46 | 50.24088 | 9.08574 | 75° | 69km/h | 2851m | -12.7m/s | 0°C | 0% | 0hPa | 3.5V | 00:00:00 | 00:00:00 | 00:00:00 | |
| NBG1-10 | 2026-08-31 08:20:42 | 50.24069 | 9.08467 | 76° | 71km/h | 2902m | -12.5m/s | 0°C | 0% | 0hPa | 3.5V | 00:00:00 | 00:00:00 | 00:00:00 | |
| BIOWL1-15 | 2026-08-31 08:20:39 | 50.24053 | 9.08359 | 77° | 69km/h | 2940m | -12.8m/s | 2°C | 0% | 0hPa | 3.5V | 00:00:00 | 00:00:00 | 00:00:00 | |
| DB0NH | 2026-08-31 08:20:38 | 50.24053 | 9.08359 | 77° | 71km/h | 2953m | -12.7m/s | 0°C | 0% | 0hPa | 3.6V | 00:00:00 | 00:00:00 | 00:00:00 | |
| BIOWL1-15 | 2026-08-31 08:20:27 | 50.24005 | 9.08063 | 74° | 73km/h | 3081m | -12.6m/s | 0.8°C | 0% | 0hPa | 3.6V | 00:00:00 | 00:00:00 | 00:00:00 | |
| DB0UT-7 | 2026-08-31 08:20:26 | 50.24000 | 9.08035 | 74° | 71km/h | 3107m | -12.7m/s | 0°C | 0% | 0hPa | 3.5V | 00:00:00 | 00:00:00 | 00:00:00 | |
| NBG1-10 | 2026-08-31 08:20:19 | 50.23961 | 9.07845 | 70° | 69km/h | 3196m | -12.8m/s | 0°C | 0% | 0hPa | 3.5V | 00:00:00 | 00:00:00 | 00:00:00 | |
| DB0NH | 2026-08-31 08:20:18 | 50.23955 | 9.07819 | 70° | 69km/h | 3235m | -12.9m/s | 0°C | 0% | 0hPa | 3.5V | 00:00:00 | 00:00:00 | 00:00:00 | |
| BIOWL1-15 | 2026-08-31 08:20:17 | 50.23943 | 9.07768 | 72° | 69km/h | 3222m | -13.1m/s | -0.3°C | 0% | 0hPa | 3.5V | 00:00:00 | 00:00:00 | 00:00:00 | |
| DM7RM-13 | 2026-08-31 08:20:13 | 50.23927 | 9.07689 | 72° | 71km/h | 3261m | -13.0m/s | 0°C | 0% | 0hPa | 3.5V | 00:00:00 | 00:00:00 | 00:00:00 | |
| BIOWL1-15 | 2026-08-31 08:20:06 | 50.23879 | 9.07482 | 70° | 71km/h | 3366m | -12.9m/s | -1.5°C | 0% | 0hPa | 3.5V | 00:00:00 | 00:00:00 | 00:00:00 | |
| BIOWL9-15 | 2026-08-31 08:20:04 | 50.23867 | 9.07430 | 70° | 68km/h | 3392m | -12.9m/s | -1.7°C | -1.0% | -1.0hPa | 3.5V | 00:00:00 | 00:00:00 | 00:00:00 | |
| DB0UT-7 | 2026-08-31 08:19:56 | 50.23820 | 9.07252 | 66° | 73km/h | 3497m | -13.2m/s | 0°C | 0% | 0hPa | 3.5V | 00:00:00 | 00:00:00 | 00:00:00 | |
| BIOWL1-15 | 2026-08-31 08:19:55 | 50.23806 | 9.07202 | 69° | 69km/h | 3510m | -13.2m/s | -2.6°C | 0% | 0hPa | 3.5V | 00:00:00 | 00:00:00 | 00:00:00 | |
| DL1NUX | 2026-08-31 08:19:50 | 50.23744 | 9.06968 | 67° | 71km/h | 3644m | -13.5m/s | 0°C | 0% | 0hPa | 0V | 00:00:00 | 00:00:00 | 00:00:00 | |
| DB0NH | 2026-08-31 08:19:48 | 50.23765 | 9.07046 | 68° | 73km/h | 3603m | -13.2m/s | 0°C | 0% | 0hPa | 3.6V | 00:00:00 | 00:00:00 | 00:00:00 | |
| BIOWL1-15 | 2026-08-31 08:19:46 | 50.23738 | 9.06941 | 71° | 71km/h | 3644m | -13.5m/s | -3.6°C | 0% | 0hPa | 3.6V | 00:00:00 | 00:00:00 | 00:00:00 | |
| DM7RM-13 | 2026-08-31 08:19:45 | 50.23744 | 9.06968 | 69° | 71km/h | 3630m | -13.5m/s | 0°C | 0% | 0hPa | 0V | 00:00:00 | 00:00:00 | 00:00:00 | |
| DL1NUX | 2026-08-31 08:19:40 | 50.23710 | 9.06833 | 69° | 73km/h | 3713m | -13.5m/s | 0°C | 0% | 0hPa | 0V | 00:00:00 | 00:00:00 | 00:00:00 | |
| DL1NUX | 2026-08-31 08:19:40 | 50.23676 | 9.06696 | 69° | 77km/h | 3781m | -13.4m/s | 0°C | 0% | 0hPa | 0V | 00:00:00 | 00:00:00 | 00:00:00 | |
| DL1NUX | 2026-08-31 08:19:35 | 50.23643 | 9.06556 | 68° | 77km/h | 3862m | -13.4m/s | 0°C | 0% | 0hPa | 0V | 00:00:00 | 00:00:00 | 00:00:00 | |
| BIOWL1-15 | 2026-08-31 08:19:33 | 50.23663 | 9.06639 | 71° | 77km/h | 3795m | -13.5m/s | -4.3°C | 0% | 0hPa | 3.6V | 00:00:00 | 00:00:00 | 00:00:00 | |
| DL1NUX | 2026-08-31 08:19:30 | 50.23611 | 9.06417 | 70° | 73km/h | 3903m | -13.6m/s | 0°C | 0% | 0hPa | 0V | 00:00:00 | 00:00:00 | 00:00:00 | |
| DB0UT-7 | 2026-08-31 08:19:26 | 50.23617 | 9.06444 | 71° | 69km/h | 3917m | -13.4m/s | 0°C | 0% | 0hPa | 3.6V | 00:00:00 | 00:00:00 | 00:00:00 | |
| DM7RM-13 | 2026-08-31 08:19:24 | 50.23605 | 9.06390 | 70° | 73km/h | 3917m | -13.5m/s | 0°C | 0% | 0hPa | 3.6V | 00:00:00 | 00:00:00 | 00:00:00 | |
| BIOWL1-15 | 2026-08-31 08:19:23 | 50.23591 | 9.06337 | 68° | 71km/h | 3944m | -13.3m/s | -4.9°C | 0% | 0hPa | 3.6V | 00:00:00 | 00:00:00 | 00:00:00 | |
| DF2AP-13 | 2026-08-31 08:19:23 | 50.23591 | 9.06337 | 68° | 68km/h | 3957m | -13.4m/s | 0°C | 0% | 0hPa | 0V | 00:00:00 | 00:00:00 | 00:00:00 | |
| DL1NUX | 2026-08-31 08:19:20 | 50.23577 | 9.06286 | 65° | 71km/h | 4011m | -13.2m/s | 0°C | 0% | 0hPa | 0V | 00:00:00 | 00:00:00 | 00:00:00 | |
| DL1NUX | 2026-08-31 08:19:20 | 50.23538 | 9.06161 | 62° | 69km/h | 4051m | -13.7m/s | 0°C | 0% | 0hPa | 0V | 00:00:00 | 00:00:00 | 00:00:00 | |
| DB0NH | 2026-08-31 08:19:18 | 50.23562 | 9.06235 | 65° | 69km/h | 4011m | -13.2m/s | 0°C | 0% | 0hPa | 3.6V | 00:00:00 | 00:00:00 | 00:00:00 | |
| NBG1-10 | 2026-08-31 08:19:17 | 50.23554 | 9.06210 | 64° | 69km/h | 4024m | -13.2m/s | 0°C | 0% | 0hPa | 3.6V | 00:00:00 | 00:00:00 | 00:00:00 | |
| BIOWL1-15 | 2026-08-31 08:19:12 | 50.23506 | 9.06066 | 61° | 68km/h | 4092m | -13.6m/s | -5.1°C | 0% | 0hPa | 3.6V | 00:00:00 | 00:00:00 | 00:00:00 | |
| DL1NUX | 2026-08-31 08:19:09 | 50.23489 | 9.06020 | 60° | 68km/h | 4134m | -13.8m/s | 0°C | 0% | 0hPa | 0V | 00:00:00 | 00:00:00 | 00:00:00 | |
| DL1NUX | 2026-08-31 08:19:09 | 50.23447 | 9.05907 | 60° | 66km/h | 4203m | -14m/s | 0°C | 0% | 0hPa | 0V | 00:00:00 | 00:00:00 | 00:00:00 | |
| DM7RM-13 | 2026-08-31 08:19:04 | 50.23447 | 9.05907 | 62° | 66km/h | 4189m | -13.9m/s | 0°C | 0% | 0hPa | 3.5V | 00:00:00 | 00:00:00 | 00:00:00 | |
| BIOWL1-15 | 2026-08-31 08:19:01 | 50.23422 | 9.05839 | 61° | 66km/h | 4232m | -13.6m/s | -6.1°C | 0% | 0hPa | 3.5V | 00:00:00 | 00:00:00 | 00:00:00 | |
| DL1NUX | 2026-08-31 08:18:59 | 50.23405 | 9.05792 | 61° | 68km/h | 4275m | -13.8m/s | 0°C | 0% | 0hPa | 0V | 00:00:00 | 00:00:00 | 00:00:00 | |
| DL1NUX | 2026-08-31 08:18:59 | 50.23363 | 9.05673 | 61° | 71km/h | 4346m | -13.9m/s | 0°C | 0% | 0hPa | 0V | 00:00:00 | 00:00:00 | 00:00:00 | |
| DM0DOS-11 | 2026-08-31 08:18:57 | 50.23346 | 9.05624 | 60° | 69km/h | 4374m | -14.1m/s | 0°C | 0% | 0hPa | 0V | 00:00:00 | 00:00:00 | 00:00:00 | |
| DB0UT-7 | 2026-08-31 08:18:55 | 50.23359 | 9.05697 | 61° | 73km/h | 4318m | -14.2m/s | 0°C | 0% | 0hPa | 0V | 00:00:00 | 00:00:00 | 00:00:00 | |
| DM0DOS-11 | 2026-08-31 08:18:52 | 50.23302 | 9.05500 | 61° | 71km/h | 4445m | -14.2m/s | 0°C | 0% | 0hPa | 0V | 00:00:00 | 00:00:00 | 00:00:00 | |
| DF2AP-13 | 2026-08-31 08:18:52 | 50.23346 | 9.05624 | 61° | 73km/h | 4374m | -14.1m/s | 0°C | 0% | 0hPa | 3.6V | 00:00:00 | 00:00:00 | 00:00:00 | |
| BIOWL1-15 | 2026-08-31 08:18:51 | 50.23329 | 9.05574 | 61° | 71km/h | 4389m | -14m/s | -7.1°C | 0% | 0hPa | 3.6V | 00:00:00 | 00:00:00 | 00:00:00 | |
| DB0NH | 2026-08-31 08:18:48 | 50.23311 | 9.05525 | 61° | 75km/h | 4431m | -14.1m/s | 0°C | 0% | 0hPa | 0V | 00:00:00 | 00:00:00 | 00:00:00 | |
| DM0DOS-11 | 2026-08-31 08:18:47 | 50.23259 | 9.05378 | 61° | 71km/h | 4502m | -14.3m/s | 0°C | 0% | 0hPa | 0V | 00:00:00 | 00:00:00 | 00:00:00 | |
| DL1NUX | 2026-08-31 08:18:44 | 50.23277 | 9.05428 | 60° | 69km/h | 4487m | -14m/s | 0°C | 0% | 0hPa | 0V | 00:00:00 | 00:00:00 | 00:00:00 | |
| DL1NUX | 2026-08-31 08:18:44 | 50.23234 | 9.05304 | 61° | 71km/h | 4559m | -14.1m/s | 0°C | 0% | 0hPa | 0V | 00:00:00 | 00:00:00 | 00:00:00 | |
| NBG1-10 | 2026-08-31 08:18:44 | 50.23277 | 9.05427 | 61° | 77km/h | 4487m | -13.9m/s | 0°C | 0% | 0hPa | 3.6V | 00:00:00 | 00:00:00 | 00:00:00 | |
| DM7RM-13 | 2026-08-31 08:18:43 | 50.23268 | 9.05403 | 62° | 71km/h | 4487m | -14.0m/s | 0°C | 0% | 0hPa | 3.6V | 00:00:00 | 00:00:00 | 00:00:00 | |
| BIOWL1-15 | 2026-08-31 08:18:40 | 50.23234 | 9.05304 | 61° | 71km/h | 4544m | -14.1m/s | -8°C | 0% | 0hPa | 3.6V | 00:00:00 | 00:00:00 | 00:00:00 | |
| DL1NUX | 2026-08-31 08:18:39 | 50.23192 | 9.05178 | 61° | 71km/h | 4630m | -14.3m/s | 0°C | 0% | 0hPa | 0V | 00:00:00 | 00:00:00 | 00:00:00 | |
| BIOWL1-15 | 2026-08-31 08:18:35 | 50.23143 | 9.05015 | 66° | 78km/h | 4702m | -14.2m/s | -8.4°C | 0% | 0hPa | 3.6V | 00:00:00 | 00:00:00 | 00:00:00 | |
| HSKMA3-T | 2026-08-31 08:18:31 | 50.23167 | 9.05099 | 66° | 77km/h | 4659m | -14.3m/s | -8.3°C | 0% | 0hPa | 3.6V | 00:00:00 | 00:00:00 | 00:00:00 | |
| DL1NUX | 2026-08-31 08:18:29 | 50.23151 | 9.05044 | 65° | 78km/h | 4702m | -14.2m/s | 0°C | 0% | 0hPa | 0V | 00:00:00 | 00:00:00 | 00:00:00 | |
| DL1NUX | 2026-08-31 08:18:29 | 50.23112 | 9.04901 | 68° | 78km/h | 4773m | -14.3m/s | 0°C | 0% | 0hPa | 0V | 00:00:00 | 00:00:00 | 00:00:00 | |
| DB0UT-7 | 2026-08-31 08:18:24 | 50.23112 | 9.04901 | 69° | 88km/h | 4773m | -14.3m/s | 0°C | 0% | 0hPa | 0V | 00:00:00 | 00:00:00 | 00:00:00 | |
| DM0DOS-11 | 2026-08-31 08:18:22 | 50.23077 | 9.04755 | 69° | 80km/h | 4846m | -14.4m/s | 0°C | 0% | 0hPa | 0V | 00:00:00 | 00:00:00 | 00:00:00 | |
| DF2AP-13 | 2026-08-31 08:18:22 | 50.23098 | 9.04843 | 70° | 89km/h | 4802m | -14.5m/s | 0°C | 0% | 0hPa | 3.6V | 00:00:00 | 00:00:00 | 00:00:00 | |
| DF1GD-15 | 2026-08-31 08:18:20 | 50.23077 | 9.04755 | 71° | 80km/h | 4831m | -14.7m/s | -9.0°C | 0% | 0hPa | 3.6V | 00:00:00 | 00:00:00 | 00:00:00 | |
| BIOWL1-15 | 2026-08-31 08:18:19 | 50.23070 | 9.04726 | 69° | 82km/h | 4846m | -14.4m/s | -9.1°C | 0% | 0hPa | 3.6V | 00:00:00 | 00:00:00 | 00:00:00 | |
| DB0NH | 2026-08-31 08:18:18 | 50.23069 | 9.04725 | 70° | 91km/h | 4861m | -14.4m/s | 0°C | 0% | 0hPa | 0V | 00:00:00 | 00:00:00 | 00:00:00 | |
| DL1NUX | 2026-08-31 08:18:14 | 50.23039 | 9.04602 | 68° | 86km/h | 4919m | -14.4m/s | 0°C | 0% | 0hPa | 0V | 00:00:00 | 00:00:00 | 00:00:00 | |
| DL1NUX | 2026-08-31 08:18:14 | 50.22997 | 9.04444 | 64° | 89km/h | 4991m | -14.6m/s | 0°C | 0% | 0hPa | 0V | 00:00:00 | 00:00:00 | 00:00:00 | |
| NBG1-10 | 2026-08-31 08:18:11 | 50.23014 | 9.04507 | 67° | 93km/h | 4962m | -14.4m/s | 0°C | 0% | 0hPa | 0V | 00:00:00 | 00:00:00 | 00:00:00 | |
| DL1NUX | 2026-08-31 08:18:08 | 50.22934 | 9.04249 | 61° | 93km/h | 5080m | -14.7m/s | 0°C | 0% | 0hPa | 0V | 00:00:00 | 00:00:00 | 00:00:00 | |
| HSKMA3-T | 2026-08-31 08:18:08 | 50.22977 | 9.04379 | 64° | 91km/h | 5006m | -14.6m/s | -10°C | 0% | 0hPa | 3.6V | 00:00:00 | 00:00:00 | 00:00:00 | |
| BIOWL7-15 | 2026-08-31 08:18:04 | 50.22945 | 9.04281 | 64° | 93km/h | 5050m | -14.9m/s | -10.2°C | 0% | 0hPa | 3.6V | 00:00:00 | 00:00:00 | 00:00:00 | |
| DL9PN | 2026-08-31 08:18:03 | 50.22924 | 9.04216 | 61° | 93km/h | 5080m | -14.7m/s | -10.4°C | -1.0% | -1.0hPa | 3.6V | 00:00:00 | 00:00:00 | 00:00:00 | |
| DF1GD-15 | 2026-08-31 08:17:59 | 50.22890 | 9.04119 | 63° | 93km/h | 5125m | -14.9m/s | -10.8°C | 0% | 0hPa | 3.6V | 00:00:00 | 00:00:00 | 00:00:00 | |
| BIOWL1-15 | 2026-08-31 08:17:58 | 50.22856 | 9.04022 | 62° | 93km/h | 5169m | -14.8m/s | -11.2°C | 0% | 0hPa | 3.6V | 00:00:00 | 00:00:00 | 00:00:00 | |
| DL1NUX | 2026-08-31 08:17:58 | 50.22822 | 9.03925 | 61° | 93km/h | 5229m | -14.9m/s | 0°C | 0% | 0hPa | 0V | 00:00:00 | 00:00:00 | 00:00:00 | |
| DO3MHA-11 | 2026-08-31 08:17:55 | 50.22845 | 9.03958 | 62° | 93km/h | 5229m | -14.8m/s | 0°C | 0% | 0hPa | 0V | 00:00:00 | 00:00:00 | 00:00:00 | |
| DB0UT-7 | 2026-08-31 08:17:53 | 50.22822 | 9.03925 | 62° | 95km/h | 5244m | -14.8m/s | 0°C | 0% | 0hPa | 0V | 00:00:00 | 00:00:00 | 00:00:00 | |
| DF2AP-13 | 2026-08-31 08:17:52 | 50.22810 | 9.03892 | 62° | 95km/h | 5244m | -14.8m/s | 0°C | 0% | 0hPa | 0V | 00:00:00 | 00:00:00 | 00:00:00 | |
| DM7RM-13 | 2026-08-31 08:17:49 | 50.22777 | 9.03795 | 63° | 93km/h | 5274m | -15.0m/s | 0°C | 0% | 0hPa | 0V | 00:00:00 | 00:00:00 | 00:00:00 | |
| DL1NUX | 2026-08-31 08:17:48 | 50.22712 | 9.03600 | 62° | 91km/h | 5378m | -15m/s | 0°C | 0% | 0hPa | 0V | 00:00:00 | 00:00:00 | 00:00:00 | |
| HSKMA3-T | 2026-08-31 08:17:48 | 50.22755 | 9.03730 | 63° | 93km/h | 5303m | -14.7m/s | -12.5°C | 0% | 0hPa | 3.6V | 00:00:00 | 00:00:00 | 00:00:00 | |
| BIOWL1-15 | 2026-08-31 08:17:46 | 50.22733 | 9.03665 | 63° | 93km/h | 5333m | -15m/s | -12.7°C | 0% | 0hPa | 3.6V | 00:00:00 | 00:00:00 | 00:00:00 | |
| DO3MHA-11 | 2026-08-31 08:17:44 | 50.22722 | 9.03632 | 64° | 93km/h | 5348m | -14.9m/s | 0°C | 0% | 0hPa | 3.6V | 00:00:00 | 00:00:00 | 00:00:00 | |
| HSKMA3-T | 2026-08-31 08:17:38 | 50.22650 | 9.03403 | 64° | 93km/h | 5453m | -15.1m/s | -13.8°C | 0% | 0hPa | 3.6V | 00:00:00 | 00:00:00 | 00:00:00 | |
| BIOWL1-15 | 2026-08-31 08:17:35 | 50.22619 | 9.03302 | 64° | 95km/h | 5497m | -14.9m/s | -14.3°C | 0% | 0hPa | 3.6V | 00:00:00 | 00:00:00 | 00:00:00 | |
| DO3MHA-11 | 2026-08-31 08:17:33 | 50.22608 | 9.03269 | 64° | 95km/h | 5528m | -14.9m/s | 0°C | 0% | 0hPa | 3.6V | 00:00:00 | 00:00:00 | 00:00:00 | |
| DM7RM-13 | 2026-08-31 08:17:26 | 50.22517 | 9.03003 | 62° | 97km/h | 5633m | -14.9m/s | 0°C | 0% | 0hPa | 3.6V | 00:00:00 | 00:00:00 | 00:00:00 | |
| BIOWL1-15 | 2026-08-31 08:17:24 | 50.22505 | 9.02970 | 61° | 97km/h | 5648m | -15.1m/s | -15.4°C | 0% | 0hPa | 3.6V | 00:00:00 | 00:00:00 | 00:00:00 | |
| DO3MHA-11 | 2026-08-31 08:17:23 | 50.22493 | 9.02936 | 61° | 99km/h | 5680m | -15.2m/s | 0°C | 0% | 0hPa | 3.5V | 00:00:00 | 00:00:00 | 00:00:00 | |
| HSKMA3-T | 2026-08-31 08:17:22 | 50.22469 | 9.02870 | 60° | 99km/h | 5695m | -15.1m/s | -15.7°C | 0% | 0hPa | 3.5V | 00:00:00 | 00:00:00 | 00:00:00 | |
| DL1NUX | 2026-08-31 08:17:18 | 50.22367 | 9.02602 | 59° | 99km/h | 5832m | -15.3m/s | 0°C | 0% | 0hPa | 0V | 00:00:00 | 00:00:00 | 00:00:00 | |
| SO1NDE-10 | 2026-08-31 08:17:18 | 50.22431 | 9.02769 | 60° | 100km/h | 5756m | -15.4m/s | 0°C | 0% | 0hPa | 3.5V | 00:00:00 | 00:00:00 | 00:00:00 | |
| BIOWL1-15 | 2026-08-31 08:17:17 | 50.22368 | 9.02602 | 59° | 99km/h | 5817m | -15.4m/s | -16.6°C | 0% | 0hPa | 3.5V | 00:00:00 | 00:00:00 | 00:00:00 | |
| DF1GD-15 | 2026-08-31 08:17:17 | 50.22418 | 9.02735 | 60° | 99km/h | 5756m | -15.4m/s | -16.1°C | 0% | 0hPa | 3.5V | 00:00:00 | 00:00:00 | 00:00:00 | |
| DO3MHA-11 | 2026-08-31 08:17:13 | 50.22368 | 9.02602 | 60° | 99km/h | 5832m | -15.3m/s | 0°C | 0% | 0hPa | 3.5V | 00:00:00 | 00:00:00 | 00:00:00 | |
| HSKMA3-T | 2026-08-31 08:17:12 | 50.22342 | 9.02536 | 60° | 99km/h | 5848m | -15.5m/s | -16.8°C | 0% | 0hPa | 3.5V | 00:00:00 | 00:00:00 | 00:00:00 | |
| DL1NUX | 2026-08-31 08:17:08 | 50.22242 | 9.02264 | 60° | 100km/h | 5987m | -15.3m/s | 0°C | 0% | 0hPa | 0V | 00:00:00 | 00:00:00 | 00:00:00 | |
| NBG1-10 | 2026-08-31 08:17:05 | 50.22268 | 9.02332 | 60° | 102km/h | 5956m | -15.4m/s | 0°C | 0% | 0hPa | 3.5V | 00:00:00 | 00:00:00 | 00:00:00 | |
| DM7RM-13 | 2026-08-31 08:17:04 | 50.22255 | 9.02298 | 61° | 100km/h | 5956m | -15.5m/s | 0°C | 0% | 0hPa | 3.5V | 00:00:00 | 00:00:00 | 00:00:00 | |
| BIOWL1-15 | 2026-08-31 08:17:03 | 50.22230 | 9.02230 | 61° | 100km/h | 5987m | -15.3m/s | -18.1°C | 0% | 0hPa | 3.5V | 00:00:00 | 00:00:00 | 00:00:00 | |
| DO3MHA-11 | 2026-08-31 08:17:02 | 50.22230 | 9.02230 | 61° | 100km/h | 6003m | -15.3m/s | 0°C | 0% | 0hPa | 3.5V | 00:00:00 | 00:00:00 | 00:00:00 | |
| HSKMA3-T | 2026-08-31 08:17:01 | 50.22204 | 9.02161 | 60° | 100km/h | 6019m | -15.5m/s | -18.4°C | 0% | 0hPa | 3.5V | 00:00:00 | 00:00:00 | 00:00:00 | |
| DL1NUX | 2026-08-31 08:16:58 | 50.22113 | 9.01918 | 60° | 102km/h | 6144m | -15.4m/s | 0°C | 0% | 0hPa | 0V | 00:00:00 | 00:00:00 | 00:00:00 | |
| DF1GD-15 | 2026-08-31 08:16:56 | 50.22151 | 9.02023 | 61° | 100km/h | 6082m | -15.6m/s | -19.0°C | 0% | 0hPa | 3.5V | 00:00:00 | 00:00:00 | 00:00:00 | |
| DB0UT-7 | 2026-08-31 08:16:53 | 50.22113 | 9.01918 | 61° | 104km/h | 6144m | -15.4m/s | 0°C | 0% | 0hPa | 3.5V | 00:00:00 | 00:00:00 | 00:00:00 | |
| BIOWL1-15 | 2026-08-31 08:16:52 | 50.22088 | 9.01848 | 60° | 104km/h | 6160m | -15.5m/s | -19.7°C | 0% | 0hPa | 3.5V | 00:00:00 | 00:00:00 | 00:00:00 | |
| HSKMA3-T | 2026-08-31 08:16:50 | 50.22062 | 9.01777 | 61° | 104km/h | 6191m | -15.5m/s | -19.9°C | 0% | 0hPa | 3.5V | 00:00:00 | 00:00:00 | 00:00:00 | |
| DL1NUX | 2026-08-31 08:16:48 | 50.21987 | 9.01562 | 61° | 104km/h | 6300m | -15.4m/s | 0°C | 0% | 0hPa | 0V | 00:00:00 | 00:00:00 | 00:00:00 | |
| DB0NH | 2026-08-31 08:16:48 | 50.22050 | 9.01741 | 61° | 106km/h | 6222m | -15.3m/s | 0°C | 0% | 0hPa | 3.5V | 00:00:00 | 00:00:00 | 00:00:00 | |
| DM7RM-13 | 2026-08-31 08:16:44 | 50.21999 | 9.01598 | 62° | 104km/h | 6269m | -15.8m/s | 0°C | 0% | 0hPa | 3.5V | 00:00:00 | 00:00:00 | 00:00:00 | |
| DO3MHA-11 | 2026-08-31 08:16:42 | 50.21974 | 9.01526 | 62° | 104km/h | 6315m | -15.3m/s | 0°C | 0% | 0hPa | 3.5V | 00:00:00 | 00:00:00 | 00:00:00 | |
| BIOWL1-15 | 2026-08-31 08:16:41 | 50.21961 | 9.01490 | 61° | 104km/h | 6315m | -15.3m/s | -21°C | 0% | 0hPa | 3.5V | 00:00:00 | 00:00:00 | 00:00:00 | |
| HSKMA3-T | 2026-08-31 08:16:39 | 50.21936 | 9.01418 | 61° | 104km/h | 6346m | -15.5m/s | -21.3°C | 0% | 0hPa | 3.5V | 00:00:00 | 00:00:00 | 00:00:00 | |
| DM0DOS-11 | 2026-08-31 08:16:39 | 50.21872 | 9.01237 | 60° | 106km/h | 6439m | -15.8m/s | 0°C | 0% | 0hPa | 0V | 00:00:00 | 00:00:00 | 00:00:00 | |
| DL1NUX | 2026-08-31 08:16:38 | 50.21859 | 9.01201 | 60° | 106km/h | 6455m | -15.8m/s | 0°C | 0% | 0hPa | 0V | 00:00:00 | 00:00:00 | 00:00:00 | |
| DF1GD-15 | 2026-08-31 08:16:35 | 50.21884 | 9.01273 | 62° | 106km/h | 6408m | -15.6m/s | -21.9°C | 0% | 0hPa | 3.5V | 00:00:00 | 00:00:00 | 00:00:00 | |
| DO3MHA-11 | 2026-08-31 08:16:32 | 50.21845 | 9.01164 | 61° | 108km/h | 6471m | -15.6m/s | 0°C | 0% | 0hPa | 3.5V | 00:00:00 | 00:00:00 | 00:00:00 | |
| BIOWL1-15 | 2026-08-31 08:16:30 | 50.21819 | 9.01090 | 61° | 108km/h | 6486m | -15.9m/s | -22.6°C | 0% | 0hPa | 3.5V | 00:00:00 | 00:00:00 | 00:00:00 | |
| DM0DOS-11 | 2026-08-31 08:16:29 | 50.21740 | 9.00869 | 61° | 106km/h | 6597m | -15.9m/s | 0°C | 0% | 0hPa | 0V | 00:00:00 | 00:00:00 | 00:00:00 | |
| HSKMA3-T | 2026-08-31 08:16:29 | 50.21793 | 9.01017 | 61° | 108km/h | 6518m | -15.8m/s | -22.8°C | 0% | 0hPa | 3.5V | 00:00:00 | 00:00:00 | 00:00:00 | |
| DL1NUX | 2026-08-31 08:16:28 | 50.21727 | 9.00832 | 61° | 106km/h | 6613m | -15.8m/s | 0°C | 0% | 0hPa | 0V | 00:00:00 | 00:00:00 | 00:00:00 | |
| BIOWL1-15 | 2026-08-31 08:16:23 | 50.21675 | 9.00685 | 62° | 108km/h | 6660m | -15.9m/s | -24.1°C | 0% | 0hPa | 3.5V | 00:00:00 | 00:00:00 | 00:00:00 | |
| DB0UT-7 | 2026-08-31 08:16:23 | 50.21727 | 9.00832 | 62° | 110km/h | 6613m | -15.7m/s | 0°C | 0% | 0hPa | 0V | 00:00:00 | 00:00:00 | 00:00:00 | |
| DO3MHA-11 | 2026-08-31 08:16:22 | 50.21714 | 9.00796 | 62° | 108km/h | 6629m | -15.9m/s | 0°C | 0% | 0hPa | 0V | 00:00:00 | 00:00:00 | 00:00:00 | |
| CB1BUN | 2026-08-31 08:16:20 | 50.21649 | 9.00722 | 62° | 108km/h | 6645m | -15.7m/s | -24.0°C | 0% | 0hPa | 0V | 00:00:00 | 00:00:00 | 00:00:00 | |
| DM0DOS-11 | 2026-08-31 08:16:19 | 50.21610 | 9.00499 | 61° | 108km/h | 6773m | -15.8m/s | 0°C | 0% | 0hPa | 0V | 00:00:00 | 00:00:00 | 00:00:00 | |
| DL1NUX | 2026-08-31 08:16:18 | 50.21597 | 9.00462 | 61° | 106km/h | 6773m | -15.8m/s | 0°C | 0% | 0hPa | 0V | 00:00:00 | 00:00:00 | 00:00:00 | |
| SO1NDE-10 | 2026-08-31 08:16:18 | 50.21662 | 9.00647 | 62° | 110km/h | 6693m | -15.6m/s | 0°C | 0% | 0hPa | 3.5V | 00:00:00 | 00:00:00 | 00:00:00 | |
| HSKMA3-T | 2026-08-31 08:16:17 | 50.21649 | 9.00610 | 62° | 108km/h | 6693m | -15.7m/s | -24.9°C | 0% | 0hPa | 3.5V | 00:00:00 | 00:00:00 | 00:00:00 | |
| DF1GD-15 | 2026-08-31 08:16:14 | 50.21610 | 9.00499 | 63° | 108km/h | 6740m | -15.7m/s | -24.9°C | 0% | 0hPa | 0V | 00:00:00 | 00:00:00 | 00:00:00 | |
| DO3MHA-11 | 2026-08-31 08:16:12 | 50.21584 | 9.00425 | 62° | 110km/h | 6789m | -15.8m/s | 0°C | 0% | 0hPa | 0V | 00:00:00 | 00:00:00 | 00:00:00 | |
| DM0DOS-11 | 2026-08-31 08:16:09 | 50.21478 | 9.00124 | 60° | 110km/h | 6917m | -15.8m/s | 0°C | 0% | 0hPa | 0V | 00:00:00 | 00:00:00 | 00:00:00 | |
| BIOWL1-15 | 2026-08-31 08:16:09 | 50.21532 | 9.00274 | 61° | 108km/h | 6837m | -16m/s | -25.7°C | 0% | 0hPa | 3.5V | 00:00:00 | 00:00:00 | 00:00:00 | |
| DL1NUX | 2026-08-31 08:16:08 | 50.21464 | 9.00087 | 59° | 110km/h | 6933m | -16.2m/s | 0°C | 0% | 0hPa | 0V | 00:00:00 | 00:00:00 | 00:00:00 | |
| HSKMA3-T | 2026-08-31 08:16:07 | 50.21506 | 9.00199 | 60° | 110km/h | 6869m | -15.8m/s | -25.9°C | 0% | 0hPa | 3.5V | 00:00:00 | 00:00:00 | 00:00:00 | |
| DM7RM-13 | 2026-08-31 08:16:03 | 50.21464 | 9.00087 | 61° | 110km/h | 6917m | -15.8m/s | 0°C | 0% | 0hPa | 3.5V | 00:00:00 | 00:00:00 | 00:00:00 | |
| DO3MHA-11 | 2026-08-31 08:16:02 | 50.21449 | 9.00049 | 60° | 111km/h | 6949m | -15.8m/s | 0°C | 0% | 0hPa | 3.5V | 00:00:00 | 00:00:00 | 00:00:00 | |
| DO3DL | 2026-08-31 08:16:00 | 50.21421 | 8.99975 | 60° | 111km/h | 6965m | -15.9m/s | -26.7°C | 0% | 0hPa | 3.5V | 00:00:00 | 00:00:00 | 00:00:00 | |
| NBG1-10 | 2026-08-31 08:15:59 | 50.21406 | 8.99937 | 60° | 115km/h | 6997m | -15.8m/s | 0°C | 0% | 0hPa | 3.5V | 00:00:00 | 00:00:00 | 00:00:00 | |
| BIOWL1-15 | 2026-08-31 08:15:58 | 50.21392 | 8.99899 | 59° | 111km/h | 6997m | -15.9m/s | -26.9°C | 0% | 0hPa | 3.5V | 00:00:00 | 00:00:00 | 00:00:00 | |
| DL1NUX | 2026-08-31 08:15:58 | 50.21321 | 8.99707 | 60° | 113km/h | 7109m | -15.9m/s | 0°C | 0% | 0hPa | 0V | 00:00:00 | 00:00:00 | 00:00:00 | |
| HSKMA3-T | 2026-08-31 08:15:56 | 50.21349 | 8.99784 | 60° | 113km/h | 7045m | -15.9m/s | -27.3°C | 0% | 0hPa | 3.5V | 00:00:00 | 00:00:00 | 00:00:00 | |
| DF1GD-15 | 2026-08-31 08:15:54 | 50.21335 | 8.99745 | 61° | 113km/h | 7061m | -15.9m/s | -27.4°C | 0% | 0hPa | 0V | 00:00:00 | 00:00:00 | 00:00:00 | |
| DB0UT-7 | 2026-08-31 08:15:53 | 50.21321 | 8.99706 | 61° | 117km/h | 7093m | -15.9m/s | 0°C | 0% | 0hPa | 0V | 00:00:00 | 00:00:00 | 00:00:00 | |
| DO3MHA-11 | 2026-08-31 08:15:52 | 50.21306 | 8.99668 | 61° | 117km/h | 7109m | -15.9m/s | 0°C | 0% | 0hPa | 0V | 00:00:00 | 00:00:00 | 00:00:00 | |
| DL1NUX | 2026-08-31 08:15:48 | 50.21175 | 8.99309 | 60° | 119km/h | 7253m | -16m/s | 0°C | 0% | 0hPa | 0V | 00:00:00 | 00:00:00 | 00:00:00 | |
| SO1NDE-10 | 2026-08-31 08:15:48 | 50.21249 | 8.99510 | 61° | 117km/h | 7173m | -16.0m/s | 0°C | 0% | 0hPa | 3.5V | 00:00:00 | 00:00:00 | 00:00:00 | |
| BIOWL1-15 | 2026-08-31 08:15:47 | 50.21234 | 8.99470 | 60° | 117km/h | 7173m | -16m/s | -28.3°C | 0% | 0hPa | 3.5V | 00:00:00 | 00:00:00 | 00:00:00 | |
| DO3DL | 2026-08-31 08:15:47 | 50.21234 | 8.99470 | 61° | 117km/h | 7173m | -16.0m/s | -28.3°C | 0% | 0hPa | 3.5V | 00:00:00 | 00:00:00 | 00:00:00 | |
| HSKMA3-T | 2026-08-31 08:15:45 | 50.21205 | 8.99390 | 60° | 119km/h | 7205m | -15.8m/s | -28.5°C | 0% | 0hPa | 3.5V | 00:00:00 | 00:00:00 | 00:00:00 | |
| DM7RM-13 | 2026-08-31 08:15:43 | 50.21175 | 8.99268 | 62° | 119km/h | 7253m | -16.0m/s | 0°C | 0% | 0hPa | 3.5V | 00:00:00 | 00:00:00 | 00:00:00 | |
| DO3MHA-11 | 2026-08-31 08:15:42 | 50.21161 | 8.99269 | 61° | 117km/h | 7269m | -15.7m/s | 0°C | 0% | 0hPa | 3.5V | 00:00:00 | 00:00:00 | 00:00:00 | |
| DO3DL | 2026-08-31 08:15:41 | 50.21146 | 8.99228 | 62° | 119km/h | 7269m | -15.8m/s | -29.0°C | 0% | 0hPa | 3.5V | 00:00:00 | 00:00:00 | 00:00:00 | |
| BIOWL1-15 | 2026-08-31 08:15:36 | 50.21073 | 8.99026 | 60° | 119km/h | 7349m | -15.9m/s | -29.2°C | 0% | 0hPa | 3.5V | 00:00:00 | 00:00:00 | 00:00:00 | |
| HSKMA3-T | 2026-08-31 08:15:35 | 50.21044 | 8.98946 | 61° | 117km/h | 7381m | -15.8m/s | -29.4°C | 0% | 0hPa | 3.5V | 00:00:00 | 00:00:00 | 00:00:00 | |
| CB1BUN | 2026-08-31 08:15:34 | 50.21030 | 8.98905 | 62° | 117km/h | 7397m | -16.0m/s | -29.4°C | 0% | 0hPa | 0V | 00:00:00 | 00:00:00 | 00:00:00 | |
| DF1GD-15 | 2026-08-31 08:15:33 | 50.21030 | 8.98905 | 62° | 117km/h | 7397m | -16.0m/s | -29.4°C | 0% | 0hPa | 0V | 00:00:00 | 00:00:00 | 00:00:00 | |
| DM0DOS-11 | 2026-08-31 08:15:32 | 50.21016 | 8.98865 | 61° | 117km/h | 7526m | -16.2m/s | 0°C | 0% | 0hPa | 0V | 00:00:00 | 00:00:00 | 00:00:00 | |
| DO3MHA-11 | 2026-08-31 08:15:32 | 50.21016 | 8.98865 | 62° | 117km/h | 7430m | -16.0m/s | 0°C | 0% | 0hPa | 0V | 00:00:00 | 00:00:00 | 00:00:00 | |
| DL1NUX | 2026-08-31 08:15:28 | 50.20888 | 8.98506 | 60° | 117km/h | 7575m | -16m/s | 0°C | 0% | 0hPa | 0V | 00:00:00 | 00:00:00 | 00:00:00 | |
| NBG1-10 | 2026-08-31 08:15:26 | 50.20932 | 8.98627 | 62° | 120km/h | 7526m | -16.2m/s | 0°C | 0% | 0hPa | 3.5V | 00:00:00 | 00:00:00 | 00:00:00 | |
| BIOWL1-15 | 2026-08-31 08:15:25 | 50.20917 | 8.98587 | 61° | 117km/h | 7526m | -16.2m/s | -30.5°C | 0% | 0hPa | 3.5V | 00:00:00 | 00:00:00 | 00:00:00 | |
| HSKMA3-T | 2026-08-31 08:15:24 | 50.20888 | 8.98506 | 61° | 117km/h | 7558m | -16.1m/s | -30.7°C | 0% | 0hPa | 3.5V | 00:00:00 | 00:00:00 | 00:00:00 | |
| DB0UT-7 | 2026-08-31 08:15:23 | 50.20888 | 8.98506 | 61° | 120km/h | 7575m | -16.0m/s | 0°C | 0% | 0hPa | 0V | 00:00:00 | 00:00:00 | 00:00:00 | |
| DM0DOS-11 | 2026-08-31 08:15:22 | 50.20859 | 8.98424 | 60° | 119km/h | 7607m | -16.2m/s | 0°C | 0% | 0hPa | 0V | 00:00:00 | 00:00:00 | 00:00:00 | |
| DO3MHA-11 | 2026-08-31 08:15:22 | 50.20873 | 8.98465 | 61° | 119km/h | 7591m | -16.2m/s | 0°C | 0% | 0hPa | 3.5V | 00:00:00 | 00:00:00 | 00:00:00 | |
| DB0NH | 2026-08-31 08:15:18 | 50.20815 | 8.98302 | 62° | 120km/h | 7656m | -16.2m/s | 0°C | 0% | 0hPa | 3.5V | 00:00:00 | 00:00:00 | 00:00:00 | |
| BIOWL1-15 | 2026-08-31 08:15:17 | 50.20757 | 8.98140 | 60° | 117km/h | 7707m | -16.2m/s | -31.9°C | 0% | 0hPa | 3.5V | 00:00:00 | 00:00:00 | 00:00:00 | |
| HSKMA3-T | 2026-08-31 08:15:13 | 50.20728 | 8.98059 | 61° | 117km/h | 7739m | -16.1m/s | -32.2°C | 0% | 0hPa | 3.5V | 00:00:00 | 00:00:00 | 00:00:00 | |
| DM0DOS-11 | 2026-08-31 08:15:12 | 50.20699 | 8.97978 | 60° | 119km/h | 7789m | -16.4m/s | 0°C | 0% | 0hPa | 0V | 00:00:00 | 00:00:00 | 00:00:00 | |
| DO3MHA-11 | 2026-08-31 08:15:12 | 50.20728 | 8.98059 | 61° | 120km/h | 7756m | -16.2m/s | 0°C | 0% | 0hPa | 3.6V | 00:00:00 | 00:00:00 | 00:00:00 | |
| DO3DL | 2026-08-31 08:15:05 | 50.20623 | 8.97772 | 61° | 122km/h | 7854m | -16.4m/s | -32.7°C | 0% | 0hPa | 3.6V | 00:00:00 | 00:00:00 | 00:00:00 | |
| BIOWL1-15 | 2026-08-31 08:15:04 | 50.20608 | 8.97730 | 61° | 120km/h | 7871m | -16.3m/s | -32.8°C | 0% | 0hPa | 3.6V | 00:00:00 | 00:00:00 | 00:00:00 | |
| HSKMA3-T | 2026-08-31 08:15:02 | 50.20563 | 8.97604 | 62° | 122km/h | 7920m | -16.2m/s | -33.1°C | 0% | 0hPa | 3.6V | 00:00:00 | 00:00:00 | 00:00:00 | |
| DO3MHA-11 | 2026-08-31 08:15:02 | 50.20577 | 8.97646 | 62° | 122km/h | 7920m | -16.1m/s | 0°C | 0% | 0hPa | 0V | 00:00:00 | 00:00:00 | 00:00:00 | |
| DM7RM-13 | 2026-08-31 08:15:01 | 50.20563 | 8.97604 | 62° | 122km/h | 7920m | -16.2m/s | 0°C | 0% | 0hPa | 0V | 00:00:00 | 00:00:00 | 00:00:00 | |
| DO3DL | 2026-08-31 08:14:59 | 50.20533 | 8.97520 | 63° | 122km/h | 7953m | -16.6m/s | -33.4°C | 0% | 0hPa | 0V | 00:00:00 | 00:00:00 | 00:00:00 | |
| DL1NUX | 2026-08-31 08:14:58 | 50.20443 | 8.97267 | 60° | 122km/h | 8069m | -16.7m/s | 0°C | 0% | 0hPa | 0V | 00:00:00 | 00:00:00 | 00:00:00 | |
| BIOWL1-15 | 2026-08-31 08:14:56 | 50.20443 | 8.97267 | 60° | 122km/h | 8052m | -16.6m/s | -34°C | 0% | 0hPa | 3.5V | 00:00:00 | 00:00:00 | 00:00:00 | |
| NBG1-10 | 2026-08-31 08:14:53 | 50.20443 | 8.97267 | 61° | 130km/h | 8069m | -16.7m/s | 0°C | 0% | 0hPa | 3.5V | 00:00:00 | 00:00:00 | 00:00:00 | |
| DO3MHA-11 | 2026-08-31 08:14:52 | 50.20428 | 8.97225 | 60° | 126km/h | 8086m | -16.5m/s | 0°C | 0% | 0hPa | 3.5V | 00:00:00 | 00:00:00 | 00:00:00 | |
| HSKMA3-T | 2026-08-31 08:14:51 | 50.20412 | 8.97182 | 60° | 124km/h | 8086m | -16.5m/s | -34.3°C | 0% | 0hPa | 3.5V | 00:00:00 | 00:00:00 | 00:00:00 | |
| DL1NUX | 2026-08-31 08:14:48 | 50.20287 | 8.96837 | 61° | 126km/h | 8238m | -16.8m/s | 0°C | 0% | 0hPa | 0V | 00:00:00 | 00:00:00 | 00:00:00 | |
| DB0NH | 2026-08-31 08:14:48 | 50.20365 | 8.97054 | 61° | 131km/h | 8153m | -16.8m/s | 0°C | 0% | 0hPa | 3.5V | 00:00:00 | 00:00:00 | 00:00:00 | |
| DO3DL | 2026-08-31 08:14:46 | 50.20333 | 8.96968 | 62° | 126km/h | 8170m | -16.6m/s | -34.9°C | 0% | 0hPa | 3.5V | 00:00:00 | 00:00:00 | 00:00:00 | |
| BIOWL1-15 | 2026-08-31 08:14:43 | 50.20271 | 8.96793 | 61° | 128km/h | 8238m | -16.8m/s | -35.5°C | 0% | 0hPa | 3.5V | 00:00:00 | 00:00:00 | 00:00:00 | |
| DO3MHA-11 | 2026-08-31 08:14:42 | 50.20271 | 8.96793 | 62° | 130km/h | 8255m | -16.8m/s | 0°C | 0% | 0hPa | 0V | 00:00:00 | 00:00:00 | 00:00:00 | |
| DM7RM-13 | 2026-08-31 08:14:41 | 50.20255 | 8.96749 | 63° | 128km/h | 8255m | -16.8m/s | 0°C | 0% | 0hPa | 0V | 00:00:00 | 00:00:00 | 00:00:00 | |
| DM0DOS-11 | 2026-08-31 08:14:40 | 50.20164 | 8.96477 | 62° | 130km/h | 8373m | -17m/s | 0°C | 0% | 0hPa | 0V | 00:00:00 | 00:00:00 | 00:00:00 | |
| HSKMA3-T | 2026-08-31 08:14:39 | 50.20209 | 8.96614 | 62° | 130km/h | 8305m | -16.9m/s | -35.9°C | 0% | 0hPa | 3.6V | 00:00:00 | 00:00:00 | 00:00:00 | |
| DL1NUX | 2026-08-31 08:14:38 | 50.20134 | 8.96385 | 62° | 131km/h | 8408m | -17.1m/s | 0°C | 0% | 0hPa | 0V | 00:00:00 | 00:00:00 | 00:00:00 | |
| DO3DL | 2026-08-31 08:14:34 | 50.20149 | 8.96431 | 64° | 131km/h | 8391m | -17.1m/s | -36.5°C | 0% | 0hPa | 0V | 00:00:00 | 00:00:00 | 00:00:00 | |
| CB1BUN | 2026-08-31 08:14:32 | 50.20103 | 8.96292 | 64° | 133km/h | 8425m | -17.0m/s | -36.8°C | 0% | 0hPa | 0V | 00:00:00 | 00:00:00 | 00:00:00 | |
| BIOWL1-15 | 2026-08-31 08:14:32 | 50.20104 | 8.96293 | 63° | 133km/h | 8425m | -17m/s | -36.8°C | 0% | 0hPa | 3.5V | 00:00:00 | 00:00:00 | 00:00:00 | |
| DF1GD-15 | 2026-08-31 08:14:31 | 50.20103 | 8.96292 | 64° | 133km/h | 8425m | -17.0m/s | -36.8°C | 0% | 0hPa | 0V | 00:00:00 | 00:00:00 | 00:00:00 | |
| DM0DOS-11 | 2026-08-31 08:14:30 | 50.20009 | 8.96013 | 61° | 135km/h | 8545m | -17m/s | 0°C | 0% | 0hPa | 0V | 00:00:00 | 00:00:00 | 00:00:00 | |
| DH7VM-15 | 2026-08-31 08:14:29 | 50.20073 | 8.96199 | 63° | 133km/h | 8459m | -17.1m/s | -37.1°C | 0% | 0hPa | 0V | 00:00:00 | 00:00:00 | 00:00:00 | |
| DL1NUX | 2026-08-31 08:14:28 | 50.19976 | 8.95919 | 61° | 137km/h | 8580m | -17.2m/s | 0°C | 0% | 0hPa | 0V | 00:00:00 | 00:00:00 | 00:00:00 | |
| HSKMA3-T | 2026-08-31 08:14:28 | 50.20041 | 8.96107 | 62° | 135km/h | 8494m | -17.1m/s | -37.3°C | 0% | 0hPa | 3.5V | 00:00:00 | 00:00:00 | 00:00:00 | |
| BIOWL1-15 | 2026-08-31 08:14:24 | 50.19942 | 8.95823 | 62° | 139km/h | 8597m | -17.3m/s | -38°C | 0% | 0hPa | 3.6V | 00:00:00 | 00:00:00 | 00:00:00 | |
| NBG1-10 | 2026-08-31 08:14:20 | 50.19925 | 8.95775 | 62° | 146km/h | 8633m | -17.1m/s | 0°C | 0% | 0hPa | 0V | 00:00:00 | 00:00:00 | 00:00:00 | |
| DL1NUX | 2026-08-31 08:14:18 | 50.19807 | 8.95427 | 62° | 144km/h | 8737m | -17.4m/s | 0°C | 0% | 0hPa | 0V | 00:00:00 | 00:00:00 | 00:00:00 | |
| DB0NH | 2026-08-31 08:14:18 | 50.19891 | 8.95677 | 62° | 146km/h | 8668m | -17.1m/s | 0°C | 0% | 0hPa | 3.6V | 00:00:00 | 00:00:00 | 00:00:00 | |
| HSKMA3-T | 2026-08-31 08:14:17 | 50.19857 | 8.95578 | 62° | 144km/h | 8685m | -17.2m/s | -38.4°C | 0% | 0hPa | 3.6V | 00:00:00 | 00:00:00 | 00:00:00 | |
| BIOWL1-15 | 2026-08-31 08:14:12 | 50.19758 | 8.95274 | 64° | 146km/h | 8790m | -17.3m/s | -39.1°C | 0% | 0hPa | 3.6V | 00:00:00 | 00:00:00 | 00:00:00 | |
| DO3MHA-11 | 2026-08-31 08:14:12 | 50.19790 | 8.95376 | 64° | 146km/h | 8772m | -17.2m/s | 0°C | 0% | 0hPa | 3.6V | 00:00:00 | 00:00:00 | 00:00:00 | |
| DF1GD-15 | 2026-08-31 08:14:11 | 50.19774 | 8.95325 | 65° | 144km/h | 8772m | -17.3m/s | -39.0°C | 0% | 0hPa | 3.6V | 00:00:00 | 00:00:00 | 00:00:00 | |
| HSKMA3-T | 2026-08-31 08:14:07 | 50.19696 | 8.95067 | 65° | 144km/h | 8860m | -17.5m/s | -40.7°C | 0% | 0hPa | 3.6V | 00:00:00 | 00:00:00 | 00:00:00 | |
| DL1NUX | 2026-08-31 08:14:06 | 50.19619 | 8.94807 | 65° | 144km/h | 8964m | -17.3m/s | 0°C | 0% | 0hPa | 0V | 00:00:00 | 00:00:00 | 00:00:00 | |
| DO3DL | 2026-08-31 08:14:05 | 50.19680 | 8.95014 | 66° | 146km/h | 8878m | -17.4m/s | -39.9°C | 0% | 0hPa | 0V | 00:00:00 | 00:00:00 | 00:00:00 | |
| DJTTGO | 2026-08-31 08:14:02 | 50.19634 | 8.94859 | 66° | 144km/h | 8930m | -17.5m/s | -40.3°C | 0% | 0hPa | 0V | 00:00:00 | 00:00:00 | 00:00:00 | |
| DO3MHA-11 | 2026-08-31 08:14:01 | 50.19619 | 8.94807 | 66° | 146km/h | 8964m | -17.2m/s | 0°C | 0% | 0hPa | 0V | 00:00:00 | 00:00:00 | 00:00:00 | |
| DM0DOS-11 | 2026-08-31 08:14:00 | 50.19523 | 8.94496 | 63° | 148km/h | 9071m | -17.6m/s | 0°C | 0% | 0hPa | 0V | 00:00:00 | 00:00:00 | 00:00:00 | |
| BIOWL1-15 | 2026-08-31 08:13:59 | 50.19588 | 8.94704 | 65° | 144km/h | 8982m | -17.4m/s | -40.8°C | 0% | 0hPa | 3.6V | 00:00:00 | 00:00:00 | 00:00:00 | |
| DO3DL | 2026-08-31 08:13:59 | 50.19588 | 8.94704 | 66° | 144km/h | 8982m | -17.4m/s | -40.8°C | 0% | 0hPa | 0V | 00:00:00 | 00:00:00 | 00:00:00 | |
| DL1NUX | 2026-08-31 08:13:56 | 50.19457 | 8.94287 | 63° | 150km/h | 9142m | -17.3m/s | 0°C | 0% | 0hPa | 0V | 00:00:00 | 00:00:00 | 00:00:00 | |
| HSKMA3-T | 2026-08-31 08:13:53 | 50.19490 | 8.94391 | 64° | 148km/h | 9089m | -17.7m/s | -41.6°C | 0% | 0hPa | 3.6V | 00:00:00 | 00:00:00 | 00:00:00 | |
| DF2AP-13 | 2026-08-31 08:13:52 | 50.19474 | 8.94339 | 64° | 155km/h | 9125m | -17.6m/s | 0°C | 0% | 0hPa | 3.6V | 00:00:00 | 00:00:00 | 00:00:00 | |
| BIOWL1-15 | 2026-08-31 08:13:51 | 50.19406 | 8.94129 | 63° | 150km/h | 9178m | -17.6m/s | -42.3°C | 0% | 0hPa | 3.6V | 00:00:00 | 00:00:00 | 00:00:00 | |
| DM0DOS-11 | 2026-08-31 08:13:50 | 50.19356 | 8.93968 | 63° | 151km/h | 9249m | -17.8m/s | 0°C | 0% | 0hPa | 0V | 00:00:00 | 00:00:00 | 00:00:00 | |
| DB0UT-7 | 2026-08-31 08:13:50 | 50.19440 | 8.94234 | 64° | 155km/h | 9160m | -17.6m/s | 0°C | 0% | 0hPa | 3.6V | 00:00:00 | 00:00:00 | 00:00:00 | |
| DB0NH | 2026-08-31 08:13:48 | 50.19406 | 8.94128 | 64° | 155km/h | 9196m | -17.7m/s | 0°C | 0% | 0hPa | 3.6V | 00:00:00 | 00:00:00 | 00:00:00 | |
| NBG1-10 | 2026-08-31 08:13:47 | 50.19390 | 8.94075 | 64° | 157km/h | 9213m | -17.7m/s | 0°C | 0% | 0hPa | 3.6V | 00:00:00 | 00:00:00 | 00:00:00 | |
| DO3DL | 2026-08-31 08:13:46 | 50.19373 | 8.94021 | 65° | 151km/h | 9213m | -17.8m/s | -42.5°C | 0% | 0hPa | 3.6V | 00:00:00 | 00:00:00 | 00:00:00 | |
| DH7VM-15 | 2026-08-31 08:13:44 | 50.19339 | 8.93914 | 65° | 153km/h | 9249m | -17.8m/s | -42.7°C | 0% | 0hPa | 3.6V | 00:00:00 | 00:00:00 | 00:00:00 | |
| HSKMA3-T | 2026-08-31 08:13:43 | 50.19305 | 8.93805 | 64° | 153km/h | 9286m | -17.9m/s | -43°C | 0% | 0hPa | 3.6V | 00:00:00 | 00:00:00 | 00:00:00 | |
| DK7TD | 2026-08-31 08:13:41 | 50.19271 | 8.93696 | 64° | 153km/h | 9322m | -17.8m/s | -43.2°C | 0% | 0hPa | 3.6V | 00:00:00 | 00:00:00 | 00:00:00 | |
| DM0DOS-11 | 2026-08-31 08:13:40 | 50.19188 | 8.93418 | 65° | 157km/h | 9431m | -17.9m/s | 0°C | 0% | 0hPa | 0V | 00:00:00 | 00:00:00 | 00:00:00 | |
| BIOWL1-15 | 2026-08-31 08:13:39 | 50.19238 | 8.93586 | 65° | 155km/h | 9358m | -17.8m/s | -43.4°C | 0% | 0hPa | 3.6V | 00:00:00 | 00:00:00 | 00:00:00 | |
| DJTTGO | 2026-08-31 08:13:37 | 50.19221 | 8.93530 | 66° | 157km/h | 9376m | -18.0m/s | -43.5°C | 0% | 0hPa | 0V | 00:00:00 | 00:00:00 | 00:00:00 | |
| DL1NUX | 2026-08-31 08:13:36 | 50.19122 | 8.93192 | 65° | 157km/h | 9503m | -18.1m/s | 0°C | 0% | 0hPa | 0V | 00:00:00 | 00:00:00 | 00:00:00 | |
| DO3DL | 2026-08-31 08:13:33 | 50.19155 | 8.93305 | 67° | 157km/h | 9448m | -18.2m/s | -43.9°C | 0% | 0hPa | 3.5V | 00:00:00 | 00:00:00 | 00:00:00 | |
| HSKMA3-T | 2026-08-31 08:13:32 | 50.19122 | 8.93192 | 66° | 157km/h | 9484m | -18.1m/s | -44.1°C | 0% | 0hPa | 3.5V | 00:00:00 | 00:00:00 | 00:00:00 | |
| DO3MHA-11 | 2026-08-31 08:13:31 | 50.19122 | 8.93192 | 66° | 157km/h | 9503m | -18.0m/s | 0°C | 0% | 0hPa | 0V | 00:00:00 | 00:00:00 | 00:00:00 | |
| DM0DOS-11 | 2026-08-31 08:13:30 | 50.19025 | 8.92851 | 66° | 159km/h | 9613m | -18.2m/s | 0°C | 0% | 0hPa | 0V | 00:00:00 | 00:00:00 | 00:00:00 | |
| DO2KSM | 2026-08-31 08:13:29 | 50.19089 | 8.93079 | 67° | 159km/h | 9521m | -18.1m/s | -44.4°C | 0% | 0hPa | 3.6V | 00:00:00 | 00:00:00 | 00:00:00 | |
| DK7TD | 2026-08-31 08:13:28 | 50.19073 | 8.93022 | 66° | 159km/h | 9540m | -18.1m/s | -44.5°C | 0% | 0hPa | 3.6V | 00:00:00 | 00:00:00 | 00:00:00 | |
| BIOWL1-15 | 2026-08-31 08:13:27 | 50.19057 | 8.92965 | 66° | 159km/h | 9558m | -18.1m/s | -44.7°C | 0% | 0hPa | 3.6V | 00:00:00 | 00:00:00 | 00:00:00 | |
| DL1NUX | 2026-08-31 08:13:26 | 50.18962 | 8.92623 | 66° | 157km/h | 9685m | -18.4m/s | 0°C | 0% | 0hPa | 0V | 00:00:00 | 00:00:00 | 00:00:00 | |
| DF2AP-13 | 2026-08-31 08:13:22 | 50.18978 | 8.92680 | 67° | 161km/h | 9667m | -18.2m/s | 0°C | 0% | 0hPa | 3.6V | 00:00:00 | 00:00:00 | 00:00:00 | |
| HSKMA3-T | 2026-08-31 08:13:21 | 50.18946 | 8.92566 | 67° | 157km/h | 9685m | -18.4m/s | -45.8°C | 0% | 0hPa | 3.6V | 00:00:00 | 00:00:00 | 00:00:00 | |
| DO3MHA-11 | 2026-08-31 08:13:21 | 50.18962 | 8.92623 | 67° | 159km/h | 9685m | -18.3m/s | 0°C | 0% | 0hPa | 3.6V | 00:00:00 | 00:00:00 | 00:00:00 | |
| DB0UT-7 | 2026-08-31 08:13:20 | 50.18946 | 8.92566 | 67° | 161km/h | 9704m | -18.2m/s | 0°C | 0% | 0hPa | 3.6V | 00:00:00 | 00:00:00 | 00:00:00 | |
| DM7RM-13 | 2026-08-31 08:13:19 | 50.18931 | 8.92509 | 68° | 157km/h | 9704m | -18.2m/s | 0°C | 0% | 0hPa | 3.6V | 00:00:00 | 00:00:00 | 00:00:00 | |
| SO1NDE-10 | 2026-08-31 08:13:18 | 50.18915 | 8.92452 | 67° | 161km/h | 9740m | -18.1m/s | 0°C | 0% | 0hPa | 3.6V | 00:00:00 | 00:00:00 | 00:00:00 | |
| DJTTGO | 2026-08-31 08:13:17 | 50.18899 | 8.92395 | 68° | 159km/h | 9740m | -18.2m/s | -46.3°C | 0% | 0hPa | 3.6V | 00:00:00 | 00:00:00 | 00:00:00 | |
| BIOWL1-15 | 2026-08-31 08:13:16 | 50.18883 | 8.92338 | 67° | 159km/h | 9759m | -18.2m/s | -46.5°C | 0% | 0hPa | 3.6V | 00:00:00 | 00:00:00 | 00:00:00 | |
| DL1NUX | 2026-08-31 08:13:16 | 50.18803 | 8.92051 | 66° | 159km/h | 9872m | -18.2m/s | 0°C | 0% | 0hPa | 0V | 00:00:00 | 00:00:00 | 00:00:00 | |
| NBG1-10 | 2026-08-31 08:13:14 | 50.18851 | 8.92223 | 67° | 159km/h | 9817m | -18.1m/s | 0°C | 0% | 0hPa | 3.7V | 00:00:00 | 00:00:00 | 00:00:00 | |
| DO3DL | 2026-08-31 08:13:13 | 50.18835 | 8.92165 | 67° | 159km/h | 9817m | -18.2m/s | -46.9°C | 0% | 0hPa | 3.7V | 00:00:00 | 00:00:00 | 00:00:00 | |
| DK7TD | 2026-08-31 08:13:11 | 50.18787 | 8.91993 | 67° | 159km/h | 9872m | -18.2m/s | -47.2°C | 0% | 0hPa | 3.7V | 00:00:00 | 00:00:00 | 00:00:00 | |
| DM0DOS-11 | 2026-08-31 08:13:10 | 50.18704 | 8.91704 | 66° | 161km/h | 9983m | -18.3m/s | 0°C | 0% | 0hPa | 0V | 00:00:00 | 00:00:00 | 00:00:00 | |
| HSKMA3-T | 2026-08-31 08:13:09 | 50.18754 | 8.91878 | 66° | 159km/h | 9909m | -18.3m/s | -47.6°C | 0% | 0hPa | 3.7V | 00:00:00 | 00:00:00 | 00:00:00 | |
| BIOWL1-15 | 2026-08-31 08:13:08 | 50.18704 | 8.91704 | 66° | 161km/h | 9964m | -18.1m/s | -47.9°C | 0% | 0hPa | 3.7V | 00:00:00 | 00:00:00 | 00:00:00 | |
| DO3DL | 2026-08-31 08:13:07 | 50.18737 | 8.91820 | 67° | 162km/h | 9927m | -18.2m/s | -47.7°C | 0% | 0hPa | 0V | 00:00:00 | 00:00:00 | 00:00:00 | |
| DL1NUX | 2026-08-31 08:13:06 | 50.18637 | 8.91471 | 66° | 164km/h | 10056m | -18.6m/s | 0°C | 0% | 0hPa | 0V | 00:00:00 | 00:00:00 | 00:00:00 | |
| DO3MHA-11 | 2026-08-31 08:13:01 | 50.18637 | 8.91470 | 67° | 161km/h | 10057m | -18.6m/s | 0°C | 0% | 0hPa | 0V | 00:00:00 | 00:00:00 | 00:00:00 | |
| DM0DOS-11 | 2026-08-31 08:13:00 | 50.18538 | 8.91119 | 65° | 161km/h | 10168m | -18.7m/s | 0°C | 0% | 0hPa | 0V | 00:00:00 | 00:00:00 | 00:00:00 | |
| DK7TD | 2026-08-31 08:13:00 | 50.18604 | 8.91353 | 66° | 162km/h | 10075m | -18.5m/s | -48.7°C | 0% | 0hPa | 3.7V | 00:00:00 | 00:00:00 | 00:00:00 | |
| DM7RM-13 | 2026-08-31 08:12:58 | 50.18587 | 8.91295 | 67° | 162km/h | 10094m | -18.5m/s | 0°C | 0% | 0hPa | 3.7V | 00:00:00 | 00:00:00 | 00:00:00 | |
| HSKMA3-T | 2026-08-31 08:12:57 | 50.18571 | 8.91236 | 66° | 162km/h | 10112m | -18.6m/s | -48.9°C | 0% | 0hPa | 3.7V | 00:00:00 | 00:00:00 | 00:00:00 | |
| BIOWL1-15 | 2026-08-31 08:12:56 | 50.18521 | 8.91062 | 66° | 159km/h | 10168m | -18.7m/s | -49.1°C | 0% | 0hPa | 3.7V | 00:00:00 | 00:00:00 | 00:00:00 | |
| DL1NUX | 2026-08-31 08:12:56 | 50.18472 | 8.90893 | 65° | 155km/h | 10243m | -18.9m/s | 0°C | 0% | 0hPa | 0V | 00:00:00 | 00:00:00 | 00:00:00 | |
| DF2AP-13 | 2026-08-31 08:12:52 | 50.18488 | 8.90949 | 66° | 155km/h | 10224m | -18.8m/s | 0°C | 0% | 0hPa | 3.7V | 00:00:00 | 00:00:00 | 00:00:00 | |
| DO3MHA-11 | 2026-08-31 08:12:51 | 50.18472 | 8.90893 | 66° | 157km/h | 10243m | -18.9m/s | 0°C | 0% | 0hPa | 3.7V | 00:00:00 | 00:00:00 | 00:00:00 | |
| DB0UT-7 | 2026-08-31 08:12:50 | 50.18456 | 8.90837 | 66° | 155km/h | 10263m | -18.9m/s | 0°C | 0% | 0hPa | 3.7V | 00:00:00 | 00:00:00 | 00:00:00 | |
| DO3DL | 2026-08-31 08:12:49 | 50.18440 | 8.90726 | 67° | 155km/h | 10282m | -18.8m/s | -49.6°C | 0% | 0hPa | 3.7V | 00:00:00 | 00:00:00 | 00:00:00 | |
| BIOWL1-15 | 2026-08-31 08:12:48 | 50.18358 | 8.90499 | 66° | 159km/h | 10357m | -18.8m/s | -49.9°C | 0% | 0hPa | 3.7V | 00:00:00 | 00:00:00 | 00:00:00 | |
| SO1NDE-10 | 2026-08-31 08:12:48 | 50.18423 | 8.90726 | 67° | 155km/h | 10319m | -18.7m/s | 0°C | 0% | 0hPa | 3.7V | 00:00:00 | 00:00:00 | 00:00:00 | |
| HSKMA3-T | 2026-08-31 08:12:47 | 50.18391 | 8.90613 | 66° | 157km/h | 10319m | -18.8m/s | -49.7°C | 0% | 0hPa | 3.7V | 00:00:00 | 00:00:00 | 00:00:00 | |
| DB0NH | 2026-08-31 08:12:47 | 50.18407 | 8.90669 | 67° | 155km/h | 10319m | -18.7m/s | 0°C | 0% | 0hPa | 0V | 00:00:00 | 00:00:00 | 00:00:00 | |
| DL1NUX | 2026-08-31 08:12:46 | 50.18309 | 8.90329 | 65° | 157km/h | 10434m | -19.1m/s | 0°C | 0% | 0hPa | 0V | 00:00:00 | 00:00:00 | 00:00:00 | |
| DO3MHA-11 | 2026-08-31 08:12:41 | 50.18309 | 8.90329 | 66° | 155km/h | 10434m | -19.0m/s | 0°C | 0% | 0hPa | 3.7V | 00:00:00 | 00:00:00 | 00:00:00 | |
| DO3DL | 2026-08-31 08:12:39 | 50.18277 | 8.90217 | 67° | 157km/h | 10453m | -19.3m/s | -50.2°C | 0% | 0hPa | 3.7V | 00:00:00 | 00:00:00 | 00:00:00 | |
| DM7RM-13 | 2026-08-31 08:12:38 | 50.18260 | 8.90160 | 67° | 155km/h | 10473m | -19.2m/s | 0°C | 0% | 0hPa | 3.7V | 00:00:00 | 00:00:00 | 00:00:00 | |
| DK7TD | 2026-08-31 08:12:37 | 50.18228 | 8.90049 | 66° | 155km/h | 10513m | -19m/s | -50.5°C | 0% | 0hPa | 3.7V | 00:00:00 | 00:00:00 | 00:00:00 | |
| DL1NUX | 2026-08-31 08:12:36 | 50.18147 | 8.89776 | 65° | 151km/h | 10628m | -19.5m/s | 0°C | 0% | 0hPa | 0V | 00:00:00 | 00:00:00 | 00:00:00 | |
| HSKMA3-T | 2026-08-31 08:12:36 | 50.18212 | 8.89994 | 66° | 153km/h | 10532m | -19.5m/s | -50.6°C | 0% | 0hPa | 3.7V | 00:00:00 | 00:00:00 | 00:00:00 | |
| BIOWL1-15 | 2026-08-31 08:12:34 | 50.18180 | 8.89884 | 65° | 153km/h | 10571m | -19.1m/s | -50.9°C | 0% | 0hPa | 3.7V | 00:00:00 | 00:00:00 | 00:00:00 | |
| DO3MHA-11 | 2026-08-31 08:12:31 | 50.18147 | 8.89776 | 66° | 153km/h | 10628m | -19.5m/s | 0°C | 0% | 0hPa | 0V | 00:00:00 | 00:00:00 | 00:00:00 | |
| DM0DOS-11 | 2026-08-31 08:12:29 | 50.18031 | 8.89396 | 63° | 153km/h | 10766m | -19.6m/s | 0°C | 0% | 0hPa | 0V | 00:00:00 | 00:00:00 | 00:00:00 | |
| DF1GD-15 | 2026-08-31 08:12:28 | 50.18098 | 8.89613 | 65° | 151km/h | 10668m | -19.7m/s | -50.9°C | 0% | 0hPa | 3.7V | 00:00:00 | 00:00:00 | 00:00:00 | |
| DJTTGO | 2026-08-31 08:12:26 | 50.18065 | 8.89505 | 65° | 153km/h | 10707m | -19.5m/s | !°C | 0% | 0hPa | 3.7V | 00:00:00 | 00:00:00 | 00:00:00 | |
| HSKMA3-T | 2026-08-31 08:12:25 | 50.18031 | 8.89396 | 63° | 153km/h | 10746m | -19.4m/s | -51.3°C | 0% | 0hPa | 3.7V | 00:00:00 | 00:00:00 | 00:00:00 | |
| DL8DAS-15 | 2026-08-31 08:12:24 | 50.18031 | 8.89396 | 64° | 153km/h | 10747m | -19.4m/s | -51.3°C | 0% | 0hPa | 3.7V | 00:00:00 | 00:00:00 | 00:00:00 | |
| BIOWL1-15 | 2026-08-31 08:12:22 | 50.17997 | 8.89287 | 65° | 157km/h | 10786m | -19.6m/s | -51.4°C | 0% | 0hPa | 3.7V | 00:00:00 | 00:00:00 | 00:00:00 | |
| DF2AP-13 | 2026-08-31 08:12:22 | 50.17997 | 8.89287 | 65° | 150km/h | 10806m | -19.6m/s | 0°C | 0% | 0hPa | 0V | 00:00:00 | 00:00:00 | 00:00:00 | |
| DO3MHA-11 | 2026-08-31 08:12:21 | 50.17980 | 8.89232 | 65° | 157km/h | 10826m | -19.7m/s | 0°C | 0% | 0hPa | 0V | 00:00:00 | 00:00:00 | 00:00:00 | |
| DB0UT-7 | 2026-08-31 08:12:20 | 50.17963 | 8.89175 | 65° | 148km/h | 10865m | -19.6m/s | 0°C | 0% | 0hPa | 0V | 00:00:00 | 00:00:00 | 00:00:00 | |
| DM0DOS-11 | 2026-08-31 08:12:19 | 50.17862 | 8.88840 | 65° | 155km/h | 10964m | -19.7m/s | 0°C | 0% | 0hPa | 0V | 00:00:00 | 00:00:00 | 00:00:00 | |
| SO1NDE-10 | 2026-08-31 08:12:18 | 50.17929 | 8.89064 | 65° | 148km/h | 10885m | -19.6m/s | 0°C | 0% | 0hPa | 0V | 00:00:00 | 00:00:00 | 00:00:00 | |
| DB0NH | 2026-08-31 08:12:17 | 50.17912 | 8.89007 | 66° | 146km/h | 10905m | -19.5m/s | 0°C | 0% | 0hPa | 0V | 00:00:00 | 00:00:00 | 00:00:00 | |
| DL1NUX | 2026-08-31 08:12:16 | 50.17813 | 8.88674 | 65° | 155km/h | 11025m | -19.8m/s | 0°C | 0% | 0hPa | 0V | 00:00:00 | 00:00:00 | 00:00:00 | |
| HSKMA3-T | 2026-08-31 08:12:14 | 50.17845 | 8.88784 | 65° | 155km/h | 10964m | -19.7m/s | -52.1°C | 0% | 0hPa | 3.7V | 00:00:00 | 00:00:00 | 00:00:00 | |
| DO3MHA-11 | 2026-08-31 08:12:11 | 50.17813 | 8.88673 | 66° | 151km/h | 11025m | -19.7m/s | 0°C | 0% | 0hPa | 0V | 00:00:00 | 00:00:00 | 00:00:00 | |
| DM0DOS-11 | 2026-08-31 08:12:09 | 50.17704 | 8.88291 | 65° | 150km/h | 11165m | -20.1m/s | 0°C | 0% | 0hPa | 0V | 00:00:00 | 00:00:00 | 00:00:00 | |
| NBG1-10 | 2026-08-31 08:12:08 | 50.17766 | 8.88507 | 66° | 141km/h | 11085m | -19.8m/s | 0°C | 0% | 0hPa | 1.2V | 00:00:00 | 00:00:00 | 00:00:00 | |
| DL1XH-west | 2026-08-31 08:12:07 | 50.17750 | 8.88453 | 66° | 151km/h | 11085m | -19.9m/s | -51.8°C | 0% | 0hPa | 1.2V | 00:00:00 | 00:00:00 | 00:00:00 | |
| DL1NUX | 2026-08-31 08:12:06 | 50.17659 | 8.88131 | 65° | 148km/h | 11226m | -20m/s | 0°C | 0% | 0hPa | 0V | 00:00:00 | 00:00:00 | 00:00:00 | |
| HSKMA3-T | 2026-08-31 08:12:03 | 50.17690 | 8.88238 | 66° | 150km/h | 11165m | -20.1m/s | -51.8°C | 0% | 0hPa | 3.8V | 00:00:00 | 00:00:00 | 00:00:00 | |
| DK7TD | 2026-08-31 08:12:01 | 50.17659 | 8.88131 | 66° | 148km/h | 11206m | -20m/s | -51.8°C | 0% | 0hPa | 3.8V | 00:00:00 | 00:00:00 | 00:00:00 | |
| DO3MHA-11 | 2026-08-31 08:12:01 | 50.17659 | 8.88131 | 66° | 141km/h | 11227m | -20.0m/s | 0°C | 0% | 0hPa | 3.7V | 00:00:00 | 00:00:00 | 00:00:00 | |
| THATR2-17 | 2026-08-31 08:12:00 | 50.17580 | 8.87875 | 62° | 137km/h | 11307m | 0m/s | 0°C | 0% | 0hPa | 3.7V | 00:00:00 | 00:00:00 | 00:00:00 | |
| BIOWL1-15 | 2026-08-31 08:11:59 | 50.17596 | 8.87924 | 63° | 141km/h | 11287m | -19.9m/s | -51.6°C | 0% | 0hPa | 3.7V | 00:00:00 | 00:00:00 | 00:00:00 | |
| DM0DOS-11 | 2026-08-31 08:11:59 | 50.17548 | 8.87780 | 61° | 137km/h | 11368m | -20.1m/s | 0°C | 0% | 0hPa | 0V | 00:00:00 | 00:00:00 | 00:00:00 | |
| DM7RM-13 | 2026-08-31 08:11:57 | 50.17580 | 8.87875 | 63° | 139km/h | 11307m | -19.8m/s | 0°C | 0% | 0hPa | 3.7V | 00:00:00 | 00:00:00 | 00:00:00 | |
| HSKMA3-T | 2026-08-31 08:11:53 | 50.17514 | 8.87687 | 61° | 135km/h | 11388m | -20.2m/s | -50.7°C | 0% | 0hPa | 3.7V | 00:00:00 | 00:00:00 | 00:00:00 | |
| DF2AP-13 | 2026-08-31 08:11:52 | 50.17514 | 8.87687 | 61° | 135km/h | 11408m | -20.1m/s | 0°C | 0% | 0hPa | 0V | 00:00:00 | 00:00:00 | 00:00:00 | |
| DO3MHA-11 | 2026-08-31 08:11:51 | 50.17497 | 8.87642 | 61° | 137km/h | 11429m | -20.1m/s | 0°C | 0% | 0hPa | 0V | 00:00:00 | 00:00:00 | 00:00:00 | |
| DM0DOS-11 | 2026-08-31 08:11:49 | 50.17381 | 8.87312 | 63° | 137km/h | 11573m | -20.6m/s | 0°C | 0% | 0hPa | 0V | 00:00:00 | 00:00:00 | 00:00:00 | |
| DB0UT-7 | 2026-08-31 08:11:49 | 50.17463 | 8.87549 | 61° | 133km/h | 11470m | -20.3m/s | 0°C | 0% | 0hPa | 3.8V | 00:00:00 | 00:00:00 | 00:00:00 | |
| CB1BUN | 2026-08-31 08:11:48 | 50.17429 | 8.87456 | 62° | 137km/h | 11491m | -20.4m/s | -50.2°C | 0% | 0hPa | 3.8V | 00:00:00 | 00:00:00 | 00:00:00 | |
| DL1XH-west | 2026-08-31 08:11:47 | 50.17413 | 8.87408 | 62° | 137km/h | 11511m | -20.7m/s | -50.3°C | 0% | 0hPa | 3.8V | 00:00:00 | 00:00:00 | 00:00:00 | |
| DL1NUX | 2026-08-31 08:11:46 | 50.17335 | 8.87167 | 63° | 139km/h | 11634m | -20.5m/s | 0°C | 0% | 0hPa | 0V | 00:00:00 | 00:00:00 | 00:00:00 | |
| DO3DL | 2026-08-31 08:11:45 | 50.17397 | 8.87360 | 64° | 137km/h | 11532m | -20.4m/s | -50.3°C | 0% | 0hPa | 3.8V | 00:00:00 | 00:00:00 | 00:00:00 | |
| HEMX73-11 | 2026-08-31 08:11:44 | 50.17381 | 8.87312 | 65° | 137km/h | 11552m | -20.4m/s | -50.4°C | 0% | 0hPa | 3.8V | 00:00:00 | 00:00:00 | 00:00:00 | |
| HSKMA3-T | 2026-08-31 08:11:42 | 50.17335 | 8.87167 | 64° | 139km/h | 11614m | -20.3m/s | -50°C | 0% | 0hPa | 3.8V | 00:00:00 | 00:00:00 | 00:00:00 | |
| DO3MHA-11 | 2026-08-31 08:11:41 | 50.17335 | 8.87167 | 64° | 137km/h | 11634m | -20.4m/s | 0°C | 0% | 0hPa | 3.8V | 00:00:00 | 00:00:00 | 00:00:00 | |
| DJTTGO | 2026-08-31 08:11:40 | 50.17304 | 8.87070 | 65° | 139km/h | 11655m | -20.6m/s | -49.9°C | 0% | 0hPa | 3.8V | 00:00:00 | 00:00:00 | 00:00:00 | |
| DO3DL | 2026-08-31 08:11:39 | 50.17304 | 8.87070 | 65° | 139km/h | 11655m | -20.6m/s | -49.9°C | 0% | 0hPa | 3.8V | 00:00:00 | 00:00:00 | 00:00:00 | |
| BIOWL1-15 | 2026-08-31 08:11:37 | 50.17244 | 8.86870 | 66° | 139km/h | 11738m | -20.7m/s | -49.4°C | 0% | 0hPa | 3.8V | 00:00:00 | 00:00:00 | 00:00:00 | |
| DL1NUX | 2026-08-31 08:11:36 | 50.17189 | 8.86677 | 65° | 131km/h | 11841m | -20.8m/s | 0°C | 0% | 0hPa | 0V | 00:00:00 | 00:00:00 | 00:00:00 | |
| NBG1-10 | 2026-08-31 08:11:35 | 50.17244 | 8.86870 | 67° | 128km/h | 11758m | -20.8m/s | 0°C | 0% | 0hPa | 3.8V | 00:00:00 | 00:00:00 | 00:00:00 | |
| DO3DL | 2026-08-31 08:11:32 | 50.17202 | 8.86724 | 67° | 131km/h | 11800m | -20.7m/s | -49.0°C | 0% | 0hPa | 3.8V | 00:00:00 | 00:00:00 | 00:00:00 | |
| DL1XH-west | 2026-08-31 08:11:31 | 50.17175 | 8.86630 | 65° | 130km/h | 11841m | -20.8m/s | -48.9°C | 0% | 0hPa | 3.8V | 00:00:00 | 00:00:00 | 00:00:00 | |
| DO3MHA-11 | 2026-08-31 08:11:31 | 50.17189 | 8.86677 | 66° | 130km/h | 11842m | -20.7m/s | 0°C | 0% | 0hPa | 0V | 00:00:00 | 00:00:00 | 00:00:00 | |
| DM0DOS-11 | 2026-08-31 08:11:29 | 50.17091 | 8.86351 | 64° | 128km/h | 11989m | -21m/s | 0°C | 0% | 0hPa | 0V | 00:00:00 | 00:00:00 | 00:00:00 | |
| DF1GD-15 | 2026-08-31 08:11:27 | 50.17134 | 8.86489 | 66° | 131km/h | 11905m | -21.0m/s | -48.9°C | 0% | 0hPa | 3.8V | 00:00:00 | 00:00:00 | 00:00:00 | |
| BIOWL1-15 | 2026-08-31 08:11:26 | 50.17092 | 8.86351 | 65° | 128km/h | 11968m | -21.1m/s | -48.6°C | 0% | 0hPa | 3.8V | 00:00:00 | 00:00:00 | 00:00:00 | |
| DL1NUX | 2026-08-31 08:11:25 | 50.17038 | 8.86171 | 65° | 126km/h | 12073m | -21m/s | 0°C | 0% | 0hPa | 0V | 00:00:00 | 00:00:00 | 00:00:00 | |
| HEMX73-11 | 2026-08-31 08:11:23 | 50.17077 | 8.86306 | 66° | 126km/h | 11989m | -21.0m/s | -48.5°C | 0% | 0hPa | 3.8V | 00:00:00 | 00:00:00 | 00:00:00 | |
| DF2AP-13 | 2026-08-31 08:11:22 | 50.17064 | 8.86261 | 65° | 124km/h | 12032m | -21.2m/s | 0°C | 0% | 0hPa | 3.8V | 00:00:00 | 00:00:00 | 00:00:00 | |
| DO3MHA-11 | 2026-08-31 08:11:21 | 50.17051 | 8.86216 | 66° | 124km/h | 12053m | -20.9m/s | 0°C | 0% | 0hPa | 3.8V | 00:00:00 | 00:00:00 | 00:00:00 | |
| DL1XH-west | 2026-08-31 08:11:20 | 50.17038 | 8.86171 | 65° | 126km/h | 12052m | -21m/s | -48.3°C | 0% | 0hPa | 3.8V | 00:00:00 | 00:00:00 | 00:00:00 | |
| DB0UT-7 | 2026-08-31 08:11:19 | 50.17025 | 8.86126 | 67° | 122km/h | 12095m | -20.9m/s | 0°C | 0% | 0hPa | 0V | 00:00:00 | 00:00:00 | 00:00:00 | |
| DM0DOS-11 | 2026-08-31 08:11:18 | 50.16940 | 8.85865 | 61° | 126km/h | 12224m | -21.2m/s | 0°C | 0% | 0hPa | 0V | 00:00:00 | 00:00:00 | 00:00:00 | |
| BIOWL1-15 | 2026-08-31 08:11:18 | 50.16969 | 8.85951 | 62° | 124km/h | 12158m | -21.1m/s | -48.2°C | 0% | 0hPa | 3.8V | 00:00:00 | 00:00:00 | 00:00:00 | |
| SO1NDE-10 | 2026-08-31 08:11:18 | 50.17012 | 8.86081 | 64° | 122km/h | 12116m | -21.0m/s | 0°C | 0% | 0hPa | 0V | 00:00:00 | 00:00:00 | 00:00:00 | |
| DB0NH | 2026-08-31 08:11:17 | 50.16998 | 8.86038 | 64° | 122km/h | 12158m | -21.0m/s | 0°C | 0% | 0hPa | 0V | 00:00:00 | 00:00:00 | 00:00:00 | |
| DL1NUX | 2026-08-31 08:11:15 | 50.16893 | 8.85735 | 60° | 126km/h | 12288m | -21.4m/s | 0°C | 0% | 0hPa | 0V | 00:00:00 | 00:00:00 | 00:00:00 | |
| DO3DL | 2026-08-31 08:11:13 | 50.16940 | 8.85865 | 62° | 126km/h | 12202m | -21.2m/s | -48.3°C | 0% | 0hPa | 3.8V | 00:00:00 | 00:00:00 | 00:00:00 | |
| DO3MHA-11 | 2026-08-31 08:11:11 | 50.16909 | 8.85778 | 61° | 126km/h | 12267m | -21.4m/s | 0°C | 0% | 0hPa | 3.8V | 00:00:00 | 00:00:00 | 00:00:00 | |
| DL1XH-west | 2026-08-31 08:11:10 | 50.16893 | 8.85735 | 61° | 126km/h | 12267m | -21.4m/s | -48.6°C | 0% | 0hPa | 3.8V | 00:00:00 | 00:00:00 | 00:00:00 | |
| HSKMA3-T | 2026-08-31 08:11:10 | 50.16877 | 8.85691 | 60° | 128km/h | 12288m | -21.5m/s | -48.8°C | 0% | 0hPa | 3.8V | 00:00:00 | 00:00:00 | 00:00:00 | |
| DM0DOS-11 | 2026-08-31 08:11:08 | 50.16782 | 8.85435 | 59° | 120km/h | 12440m | -21.5m/s | 0°C | 0% | 0hPa | 0V | 00:00:00 | 00:00:00 | 00:00:00 | |
| CB1BUN | 2026-08-31 08:11:07 | 50.16829 | 8.85561 | 61° | 126km/h | 12354m | -21.5m/s | -49.0°C | 0% | 0hPa | 3.8V | 00:00:00 | 00:00:00 | 00:00:00 | |
| DF1GD-15 | 2026-08-31 08:11:06 | 50.16829 | 8.85561 | 61° | 126km/h | 12354m | -21.5m/s | -49.0°C | 0% | 0hPa | 3.8V | 00:00:00 | 00:00:00 | 00:00:00 | |
| BIOWL1-15 | 2026-08-31 08:11:05 | 50.16814 | 8.85518 | 60° | 124km/h | 12375m | -21.6m/s | -49°C | 0% | 0hPa | 3.8V | 00:00:00 | 00:00:00 | 00:00:00 | |
| DL1NUX | 2026-08-31 08:11:05 | 50.16735 | 8.85311 | 60° | 120km/h | 12505m | -21.4m/s | 0°C | 0% | 0hPa | 0V | 00:00:00 | 00:00:00 | 00:00:00 | |
| DK7TD | 2026-08-31 08:11:03 | 50.16766 | 8.85394 | 60° | 122km/h | 12440m | -21.6m/s | -49°C | 0% | 0hPa | 3.8V | 00:00:00 | 00:00:00 | 00:00:00 | |
| NBG1-10 | 2026-08-31 08:11:02 | 50.16766 | 8.85394 | 60° | 115km/h | 12462m | -21.4m/s | 0°C | 0% | 0hPa | 3.8V | 00:00:00 | 00:00:00 | 00:00:00 | |
| DO3MHA-11 | 2026-08-31 08:11:01 | 50.16751 | 8.85353 | 61° | 120km/h | 12483m | -21.3m/s | 0°C | 0% | 0hPa | 3.8V | 00:00:00 | 00:00:00 | 00:00:00 | |
| DO2KSM | 2026-08-31 08:11:00 | 50.16735 | 8.85311 | 61° | 120km/h | 12483m | -21.4m/s | -48.7°C | 0% | 0hPa | 3.8V | 00:00:00 | 00:00:00 | 00:00:00 | |
| DL1XH-west | 2026-08-31 08:10:59 | 50.16704 | 8.85228 | 60° | 120km/h | 12526m | -21.4m/s | -48.2°C | 0% | 0hPa | 3.8V | 00:00:00 | 00:00:00 | 00:00:00 | |
| DM0DOS-11 | 2026-08-31 08:10:58 | 50.16630 | 8.85024 | 60° | 117km/h | 12657m | -21.5m/s | 0°C | 0% | 0hPa | 0V | 00:00:00 | 00:00:00 | 00:00:00 | |
| BIOWL1-15 | 2026-08-31 08:10:57 | 50.16659 | 8.85105 | 61° | 119km/h | 12592m | -21.4m/s | -48°C | 0% | 0hPa | 3.8V | 00:00:00 | 00:00:00 | 00:00:00 | |
| HEMX73-11 | 2026-08-31 08:10:56 | 50.16659 | 8.85105 | 62° | 119km/h | 12592m | -21.4m/s | -48.0°C | 0% | 0hPa | 0V | 00:00:00 | 00:00:00 | 00:00:00 | |
| DM7RM-13 | 2026-08-31 08:10:55 | 50.16659 | 8.85105 | 62° | 119km/h | 12592m | -21.4m/s | 0°C | 0% | 0hPa | 0V | 00:00:00 | 00:00:00 | 00:00:00 | |
| DJTTGO | 2026-08-31 08:10:54 | 50.16645 | 8.85064 | 61° | 119km/h | 12613m | -21.5m/s | -48.0°C | 0% | 0hPa | 0V | 00:00:00 | 00:00:00 | 00:00:00 | |
| DF2AP-13 | 2026-08-31 08:10:52 | 50.16615 | 8.84984 | 61° | 108km/h | 12679m | -21.5m/s | 0°C | 0% | 0hPa | 0V | 00:00:00 | 00:00:00 | 00:00:00 | |
| DO3MHA-11 | 2026-08-31 08:10:51 | 50.16601 | 8.84944 | 62° | 115km/h | 12700m | -21.5m/s | 0°C | 0% | 0hPa | 0V | 00:00:00 | 00:00:00 | 00:00:00 | |
| DL1NUX | 2026-08-31 08:10:50 | 50.16587 | 8.84904 | 61° | 117km/h | 12722m | -21.8m/s | 0°C | 0% | 0hPa | 0V | 00:00:00 | 00:00:00 | 00:00:00 | |
| DB0UT-7 | 2026-08-31 08:10:49 | 50.16573 | 8.84864 | 62° | 106km/h | 12744m | -21.9m/s | 0°C | 0% | 0hPa | 0V | 00:00:00 | 00:00:00 | 00:00:00 | |
| DM0DOS-11 | 2026-08-31 08:10:48 | 50.16486 | 8.84627 | 60° | 115km/h | 12876m | -21.8m/s | 0°C | 0% | 0hPa | 0V | 00:00:00 | 00:00:00 | 00:00:00 | |
| DL1XH-west | 2026-08-31 08:10:48 | 50.16544 | 8.84785 | 60° | 115km/h | 12766m | -21.7m/s | -48°C | 0% | 0hPa | 3.8V | 00:00:00 | 00:00:00 | 00:00:00 | |
| DB0NH | 2026-08-31 08:10:46 | 50.16530 | 8.84745 | 60° | 104km/h | 12810m | -21.8m/s | 0°C | 0% | 0hPa | 0V | 00:00:00 | 00:00:00 | 00:00:00 | |
| DL1NUX | 2026-08-31 08:10:45 | 50.16444 | 8.84510 | 61° | 110km/h | 12942m | -22.3m/s | 0°C | 0% | 0hPa | 0V | 00:00:00 | 00:00:00 | 00:00:00 | |
| DO3MHA-11 | 2026-08-31 08:10:41 | 50.16458 | 8.84548 | 61° | 108km/h | 12920m | -21.9m/s | 0°C | 0% | 0hPa | 0V | 00:00:00 | 00:00:00 | 00:00:00 | |
| DO2KSM | 2026-08-31 08:10:40 | 50.16444 | 8.84510 | 62° | 110km/h | 12920m | -22.0m/s | -48.3°C | 0% | 0hPa | 0V | 00:00:00 | 00:00:00 | 00:00:00 | |
| DM0DOS-11 | 2026-08-31 08:10:38 | 50.16360 | 8.84244 | 67° | 108km/h | 13097m | -21.9m/s | 0°C | 0% | 0hPa | 0V | 00:00:00 | 00:00:00 | 00:00:00 | |
| DL1XH-west | 2026-08-31 08:10:37 | 50.16406 | 8.84397 | 63° | 108km/h | 12987m | -22.1m/s | -48.2°C | 0% | 0hPa | 3.8V | 00:00:00 | 00:00:00 | 00:00:00 | |
| DO8TBO-1 | 2026-08-31 08:10:36 | 50.16394 | 8.84359 | 65° | 100km/h | 13054m | -22.1m/s | 0°C | 0% | 0hPa | 0V | 00:00:00 | 00:00:00 | 00:00:00 | |
| DL1NUX | 2026-08-31 08:10:35 | 50.16329 | 8.84128 | 67° | 106km/h | 13164m | -22.2m/s | 0°C | 0% | 0hPa | 0V | 00:00:00 | 00:00:00 | 00:00:00 | |
| DM7RM-13 | 2026-08-31 08:10:34 | 50.16371 | 8.84283 | 67° | 108km/h | 13054m | -22.1m/s | 0°C | 0% | 0hPa | 3.8V | 00:00:00 | 00:00:00 | 00:00:00 | |
| HEMX73-11 | 2026-08-31 08:10:32 | 50.16350 | 8.84205 | 68° | 108km/h | 13098m | -22.0m/s | -48.3°C | 0% | 0hPa | 3.8V | 00:00:00 | 00:00:00 | 00:00:00 | |
| DO3MHA-11 | 2026-08-31 08:10:30 | 50.16329 | 8.84128 | 68° | 99km/h | 13164m | -22.2m/s | 0°C | 0% | 0hPa | 3.8V | 00:00:00 | 00:00:00 | 00:00:00 | |
| NBG1-10 | 2026-08-31 08:10:29 | 50.16319 | 8.84089 | 66° | 99km/h | 13187m | -22.2m/s | 0°C | 0% | 0hPa | 3.8V | 00:00:00 | 00:00:00 | 00:00:00 | |
| HSKMA3-T | 2026-08-31 08:10:27 | 50.16288 | 8.83982 | 64° | 99km/h | 13232m | -22.2m/s | -48°C | 0% | 0hPa | 3.8V | 00:00:00 | 00:00:00 | 00:00:00 | |
| CB1BUN | 2026-08-31 08:10:26 | 50.16277 | 8.83948 | 64° | 97km/h | 13255m | -22.3m/s | -48.1°C | 0% | 0hPa | 0V | 00:00:00 | 00:00:00 | 00:00:00 | |
| DL1NUX | 2026-08-31 08:10:25 | 50.16216 | 8.83783 | 56° | 99km/h | 13390m | -22.6m/s | 0°C | 0% | 0hPa | 0V | 00:00:00 | 00:00:00 | 00:00:00 | |
| BIOWL1-15 | 2026-08-31 08:10:24 | 50.16265 | 8.83914 | 61° | 97km/h | 13277m | -22.4m/s | -48.3°C | 0% | 0hPa | 3.8V | 00:00:00 | 00:00:00 | 00:00:00 | |
| DF2AP-13 | 2026-08-31 08:10:22 | 50.16241 | 8.83849 | 60° | 97km/h | 13344m | -22.5m/s | 0°C | 0% | 0hPa | 3.8V | 00:00:00 | 00:00:00 | 00:00:00 | |
| DK7TD | 2026-08-31 08:10:21 | 50.16215 | 8.83783 | 58° | 99km/h | 13367m | -22.4m/s | -48.8°C | 0% | 0hPa | 3.8V | 00:00:00 | 00:00:00 | 00:00:00 | |
| DO3MHA-11 | 2026-08-31 08:10:20 | 50.16215 | 8.83783 | 57° | 100km/h | 13390m | -22.5m/s | 0°C | 0% | 0hPa | 0V | 00:00:00 | 00:00:00 | 00:00:00 | |
| DB0UT-7 | 2026-08-31 08:10:19 | 50.16202 | 8.83751 | 57° | 95km/h | 13413m | -22.6m/s | 0°C | 0% | 0hPa | 0V | 00:00:00 | 00:00:00 | 00:00:00 | |
| DM0DOS-11 | 2026-08-31 08:10:18 | 50.16116 | 8.83555 | 56° | 102km/h | 13549m | -22.6m/s | 0°C | 0% | 0hPa | 0V | 00:00:00 | 00:00:00 | 00:00:00 | |
| SO1NDE-10 | 2026-08-31 08:10:18 | 50.16188 | 8.83718 | 56° | 95km/h | 13436m | -22.6m/s | 0°C | 0% | 0hPa | 3.8V | 00:00:00 | 00:00:00 | 00:00:00 | |
| DB0NH | 2026-08-31 08:10:16 | 50.16160 | 8.83654 | 55° | 93km/h | 13481m | -22.3m/s | 0°C | 0% | 0hPa | 3.8V | 00:00:00 | 00:00:00 | 00:00:00 | |
| DL1XH-west | 2026-08-31 08:10:15 | 50.16145 | 8.83621 | 55° | 102km/h | 13481m | -22.4m/s | -49.5°C | 0% | 0hPa | 3.8V | 00:00:00 | 00:00:00 | 00:00:00 | |
| DL1NUX | 2026-08-31 08:10:14 | 50.16074 | 8.83454 | 57° | 100km/h | 13618m | -22.7m/s | 0°C | 0% | 0hPa | 0V | 00:00:00 | 00:00:00 | 00:00:00 | |
| BIOWL1-15 | 2026-08-31 08:10:13 | 50.16116 | 8.83555 | 57° | 102km/h | 13526m | -22.6m/s | -49.7°C | 0% | 0hPa | 3.8V | 00:00:00 | 00:00:00 | 00:00:00 | |
| HEMX73-11 | 2026-08-31 08:10:12 | 50.16102 | 8.83521 | 58° | 100km/h | 13549m | -22.6m/s | -49.7°C | 0% | 0hPa | 3.8V | 00:00:00 | 00:00:00 | 00:00:00 | |
| DO3MHA-11 | 2026-08-31 08:10:10 | 50.16074 | 8.83454 | 58° | 100km/h | 13619m | -22.7m/s | 0°C | 0% | 0hPa | 3.8V | 00:00:00 | 00:00:00 | 00:00:00 | |
| DK7TD | 2026-08-31 08:10:10 | 50.16060 | 8.83420 | 58° | 102km/h | 13619m | -22.7m/s | -49.9°C | 0% | 0hPa | 3.8V | 00:00:00 | 00:00:00 | 00:00:00 | |
| DJTTGO | 2026-08-31 08:10:09 | 50.16060 | 8.83420 | 59° | 102km/h | 13619m | -22.7m/s | -49.9°C | 0% | 0hPa | 3.8V | 00:00:00 | 00:00:00 | 00:00:00 | |
| DL1XH-west | 2026-08-31 08:10:05 | 50.15993 | 8.83252 | 60° | 99km/h | 13732m | -22.6m/s | -49.8°C | 0% | 0hPa | 3.8V | 00:00:00 | 00:00:00 | 00:00:00 | |
| DF1GD-15 | 2026-08-31 08:10:04 | 50.15993 | 8.83252 | 61° | 99km/h | 13732m | -22.6m/s | -49.8°C | 0% | 0hPa | 0V | 00:00:00 | 00:00:00 | 00:00:00 | |
| DL1NUX | 2026-08-31 08:10:03 | 50.15946 | 8.83119 | 61° | 95km/h | 13847m | -23.2m/s | 0°C | 0% | 0hPa | 0V | 00:00:00 | 00:00:00 | 00:00:00 | |
| DF8AY | 2026-08-31 08:10:03 | 50.15969 | 8.83185 | 62° | 97km/h | 13778m | -23m/s | -49.7°C | 0% | 0hPa | 3.8V | 00:00:00 | 00:00:00 | 00:00:00 | |
| DF3TZ-5 | 2026-08-31 08:10:01 | 50.15957 | 8.83152 | 62° | 95km/h | 13801m | -23.3m/s | -49.7°C | -1.0% | -1.0hPa | 3.8V | 00:00:00 | 00:00:00 | 00:00:00 | |
| DO3MHA-11 | 2026-08-31 08:10:00 | 50.15946 | 8.83119 | 62° | 89km/h | 13847m | -23.2m/s | 0°C | 0% | 0hPa | 3.8V | 00:00:00 | 00:00:00 | 00:00:00 | |
| DO2KSM | 2026-08-31 08:09:59 | 50.15935 | 8.83086 | 63° | 93km/h | 13847m | -23.2m/s | -49.8°C | 0% | 0hPa | 3.8V | 00:00:00 | 00:00:00 | 00:00:00 | |
| DO3DL | 2026-08-31 08:09:58 | 50.15912 | 8.83023 | 62° | 91km/h | 13894m | -23.6m/s | -49.9°C | 0% | 0hPa | 3.8V | 00:00:00 | 00:00:00 | 00:00:00 | |
| NBG1-10 | 2026-08-31 08:09:56 | 50.15901 | 8.82992 | 61° | 78km/h | 13941m | -23.6m/s | 0°C | 0% | 0hPa | 3.8V | 00:00:00 | 00:00:00 | 00:00:00 | |
| DL1XH-west | 2026-08-31 08:09:54 | 50.15879 | 8.82932 | 61° | 86km/h | 13965m | -23.4m/s | -50.2°C | 0% | 0hPa | 3.8V | 00:00:00 | 00:00:00 | 00:00:00 | |
| DM7RM-13 | 2026-08-31 08:09:53 | 50.15868 | 8.82903 | 61° | 84km/h | 13988m | -23.5m/s | 0°C | 0% | 0hPa | 3.8V | 00:00:00 | 00:00:00 | 00:00:00 | |
| DF8AY | 2026-08-31 08:09:52 | 50.15847 | 8.82846 | 60° | 84km/h | 14035m | -23.6m/s | -50.3°C | 0% | 0hPa | 3.8V | 00:00:00 | 00:00:00 | 00:00:00 | |
| DF2AP-13 | 2026-08-31 08:09:52 | 50.15858 | 8.82875 | 60° | 77km/h | 14059m | -23.8m/s | 0°C | 0% | 0hPa | 3.8V | 00:00:00 | 00:00:00 | 00:00:00 | |
| DO3DL | 2026-08-31 08:09:51 | 50.15847 | 8.82846 | 61° | 84km/h | 14035m | -23.6m/s | -50.3°C | 0% | 0hPa | 3.8V | 00:00:00 | 00:00:00 | 00:00:00 | |
| DO3MHA-11 | 2026-08-31 08:09:50 | 50.15836 | 8.82817 | 61° | 82km/h | 14083m | -24.1m/s | 0°C | 0% | 0hPa | 3.8V | 00:00:00 | 00:00:00 | 00:00:00 | |
| DB0UT-7 | 2026-08-31 08:09:49 | 50.15826 | 8.82788 | 61° | 77km/h | 14107m | -24.2m/s | 0°C | 0% | 0hPa | 3.8V | 00:00:00 | 00:00:00 | 00:00:00 | |
| SO1NDE-10 | 2026-08-31 08:09:48 | 50.15815 | 8.82759 | 60° | 78km/h | 14131m | -23.9m/s | 0°C | 0% | 0hPa | 3.8V | 00:00:00 | 00:00:00 | 00:00:00 | |
| DB0NH | 2026-08-31 08:09:46 | 50.15794 | 8.82703 | 59° | 77km/h | 14179m | -24.2m/s | 0°C | 0% | 0hPa | 3.8V | 00:00:00 | 00:00:00 | 00:00:00 | |
| DO3DL | 2026-08-31 08:09:45 | 50.15782 | 8.82676 | 59° | 82km/h | 14179m | -24.2m/s | -50.8°C | 0% | 0hPa | 3.8V | 00:00:00 | 00:00:00 | 00:00:00 | |
| HSKMA3-T | 2026-08-31 08:09:44 | 50.15761 | 8.82622 | 58° | 80km/h | 14227m | -23.9m/s | -51.1°C | 0% | 0hPa | 3.8V | 00:00:00 | 00:00:00 | 00:00:00 | |
| DF8AY | 2026-08-31 08:09:42 | 50.15739 | 8.82568 | 58° | 82km/h | 14275m | -24m/s | -51.2°C | 0% | 0hPa | 3.8V | 00:00:00 | 00:00:00 | 00:00:00 | |
| DO3MHA-11 | 2026-08-31 08:09:40 | 50.15728 | 8.82540 | 60° | 77km/h | 14324m | -24.1m/s | 0°C | 0% | 0hPa | 0V | 00:00:00 | 00:00:00 | 00:00:00 | |
| DO3DL | 2026-08-31 08:09:39 | 50.15709 | 8.82486 | 63° | 78km/h | 14348m | -24.3m/s | -51.4°C | 0% | 0hPa | 0V | 00:00:00 | 00:00:00 | 00:00:00 | |
| DO2KSM | 2026-08-31 08:09:38 | 50.15709 | 8.82486 | 63° | 78km/h | 14348m | -24.3m/s | -51.4°C | 0% | 0hPa | 0V | 00:00:00 | 00:00:00 | 00:00:00 | |
| DO8TBO-1 | 2026-08-31 08:09:35 | 50.15684 | 8.82403 | 67° | 75km/h | 14445m | -24.2m/s | 0°C | 0% | 0hPa | 0V | 00:00:00 | 00:00:00 | 00:00:00 | |
| DL1NUX | 2026-08-31 08:09:33 | 50.15643 | 8.82275 | 61° | 73km/h | 14582m | -19.2m/s | 0°C | 0% | 0hPa | 0V | 00:00:00 | 00:00:00 | 00:00:00 | |
| DL1XH-west | 2026-08-31 08:09:33 | 50.15661 | 8.82326 | 63° | 71km/h | 14494m | -24m/s | -51.8°C | 0% | 0hPa | 3.8V | 00:00:00 | 00:00:00 | 00:00:00 | |
| BIOWL1-15 | 2026-08-31 08:09:32 | 50.15606 | 8.82176 | 59° | 73km/h | 14617m | -16.4m/s | -52.3°C | 0% | 0hPa | 3.8V | 00:00:00 | 00:00:00 | 00:00:00 | |
| DF8AY | 2026-08-31 08:09:31 | 50.15643 | 8.82275 | 61° | 73km/h | 14540m | -22.3m/s | -51.9°C | 0% | 0hPa | 3.8V | 00:00:00 | 00:00:00 | 00:00:00 | |
| DO3MHA-11 | 2026-08-31 08:09:30 | 50.15643 | 8.82275 | 62° | 75km/h | 14562m | -21.0m/s | 0°C | 0% | 0hPa | 3.8V | 00:00:00 | 00:00:00 | 00:00:00 | |
| DK7TD | 2026-08-31 08:09:29 | 50.15625 | 8.82225 | 60° | 73km/h | 14582m | -19.2m/s | -52.1°C | 0% | 0hPa | 3.8V | 00:00:00 | 00:00:00 | 00:00:00 | |
| DO3DL | 2026-08-31 08:09:25 | 50.15596 | 8.82151 | 59° | 75km/h | 14633m | -16.4m/s | -52.4°C | 0% | 0hPa | 3.8V | 00:00:00 | 00:00:00 | 00:00:00 | |
| DO2JMG | 2026-08-31 08:09:24 | 50.15586 | 8.82126 | 58° | 75km/h | 14650m | -16.5m/s | -53.5°C | 0% | 0hPa | 3.8V | 00:00:00 | 00:00:00 | 00:00:00 | |
| NBG1-10 | 2026-08-31 08:09:23 | 50.15576 | 8.82101 | 57° | 77km/h | 14683m | -16.5m/s | 0°C | 0% | 0hPa | 0V | 00:00:00 | 00:00:00 | 00:00:00 | |
| DL1NUX | 2026-08-31 08:09:22 | 50.15513 | 8.81948 | 58° | 78km/h | 14783m | -16.7m/s | 0°C | 0% | 0hPa | 0V | 00:00:00 | 00:00:00 | 00:00:00 | |
| DL1XH-west | 2026-08-31 08:09:22 | 50.15555 | 8.82051 | 57° | 77km/h | 14700m | -16.6m/s | -52.9°C | 0% | 0hPa | 3.8V | 00:00:00 | 00:00:00 | 00:00:00 | |
| DO3MHA-11 | 2026-08-31 08:09:20 | 50.15545 | 8.82026 | 58° | 77km/h | 14733m | -16.7m/s | 0°C | 0% | 0hPa | 3.8V | 00:00:00 | 00:00:00 | 00:00:00 | |
| DB0UT-7 | 2026-08-31 08:09:19 | 50.15534 | 8.82000 | 58° | 77km/h | 14750m | -16.5m/s | 0°C | 0% | 0hPa | 3.8V | 00:00:00 | 00:00:00 | 00:00:00 | |
| DK7TD | 2026-08-31 08:09:18 | 50.15513 | 8.81948 | 59° | 78km/h | 14766m | -16.8m/s | -53.3°C | 0% | 0hPa | 3.8V | 00:00:00 | 00:00:00 | 00:00:00 | |
| DB0NH | 2026-08-31 08:09:16 | 50.15503 | 8.81922 | 61° | 77km/h | 14799m | -16.6m/s | 0°C | 0% | 0hPa | 3.8V | 00:00:00 | 00:00:00 | 00:00:00 | |
| BIOWL1-15 | 2026-08-31 08:09:15 | 50.15493 | 8.81896 | 60° | 77km/h | 14799m | -16.7m/s | -53.5°C | 0% | 0hPa | 3.8V | 00:00:00 | 00:00:00 | 00:00:00 | |
| AA1-15 | 2026-08-31 08:09:14 | 50.15474 | 8.81843 | 61° | 77km/h | 14833m | -17.1m/s | -53.5°C | 0% | 0hPa | 3.8V | 00:00:00 | 00:00:00 | 00:00:00 | |
| DO3DL | 2026-08-31 08:09:13 | 50.15465 | 8.81817 | 62° | 77km/h | 14850m | -16.9m/s | -53.6°C | 0% | 0hPa | 0V | 00:00:00 | 00:00:00 | 00:00:00 | |
| DM7RM-13 | 2026-08-31 08:09:12 | 50.15465 | 8.81817 | 62° | 77km/h | 14850m | -16.9m/s | 0°C | 0% | 0hPa | 0V | 00:00:00 | 00:00:00 | 00:00:00 | |
| DL1NUX | 2026-08-31 08:09:11 | 50.15412 | 8.81661 | 63° | 73km/h | 14971m | -17.5m/s | 0°C | 0% | 0hPa | 0V | 00:00:00 | 00:00:00 | 00:00:00 | |
| DL1XH-west | 2026-08-31 08:09:11 | 50.15447 | 8.81764 | 62° | 75km/h | 14885m | -17m/s | -53.7°C | 0% | 0hPa | 3.8V | 00:00:00 | 00:00:00 | 00:00:00 | |
| DO3MHA-11 | 2026-08-31 08:09:10 | 50.15447 | 8.81764 | 62° | 75km/h | 14902m | -17.2m/s | 0°C | 0% | 0hPa | 3.8V | 00:00:00 | 00:00:00 | 00:00:00 | |
| DO2JMG | 2026-08-31 08:09:09 | 50.15429 | 8.81713 | 62° | 75km/h | 14919m | -17.2m/s | -53.8°C | 0% | 0hPa | 3.8V | 00:00:00 | 00:00:00 | 00:00:00 | |
| DK7TD | 2026-08-31 08:09:07 | 50.15412 | 8.81661 | 63° | 73km/h | 14953m | -17.3m/s | -53.8°C | 0% | 0hPa | 3.8V | 00:00:00 | 00:00:00 | 00:00:00 | |
| DO3DL | 2026-08-31 08:09:06 | 50.15412 | 8.81661 | 64° | 73km/h | 14954m | -17.3m/s | -53.8°C | 0% | 0hPa | 3.8V | 00:00:00 | 00:00:00 | 00:00:00 | |
| DO8TBO-1 | 2026-08-31 08:09:05 | 50.15403 | 8.81635 | 63° | 78km/h | 15006m | -17.5m/s | 0°C | 0% | 0hPa | 3.8V | 00:00:00 | 00:00:00 | 00:00:00 | |
| BIOWL1-15 | 2026-08-31 08:09:04 | 50.15395 | 8.81609 | 63° | 75km/h | 14989m | -17.5m/s | -53.6°C | 0% | 0hPa | 3.8V | 00:00:00 | 00:00:00 | 00:00:00 | |
| BUE01 | 2026-08-31 08:09:03 | 50.15378 | 8.81557 | 63° | 73km/h | 15024m | -17.5m/s | -53.4°C | -1.0% | -1.0hPa | 0V | 00:00:00 | 00:00:00 | 00:00:00 | |
| DL1NUX | 2026-08-31 08:09:01 | 50.15326 | 8.81402 | 61° | 77km/h | 15148m | -17.8m/s | 0°C | 0% | 0hPa | 0V | 00:00:00 | 00:00:00 | 00:00:00 | |
| DL1XH-west | 2026-08-31 08:09:00 | 50.15361 | 8.81505 | 64° | 73km/h | 15059m | -17.6m/s | -53.2°C | 0% | 0hPa | 3.8V | 00:00:00 | 00:00:00 | 00:00:00 | |
| DO3MHA-11 | 2026-08-31 08:09:00 | 50.15361 | 8.81505 | 64° | 77km/h | 15077m | -17.8m/s | 0°C | 0% | 0hPa | 3.9V | 00:00:00 | 00:00:00 | 00:00:00 | |
| DO3DL | 2026-08-31 08:08:59 | 50.15352 | 8.81479 | 64° | 73km/h | 15077m | -17.8m/s | -53.1°C | 0% | 0hPa | 3.9V | 00:00:00 | 00:00:00 | 00:00:00 | |
| DO2JMG | 2026-08-31 08:08:58 | 50.15344 | 8.81454 | 63° | 73km/h | 15095m | -17.8m/s | -53.1°C | 0% | 0hPa | 3.9V | 00:00:00 | 00:00:00 | 00:00:00 | |
| DJTTGO | 2026-08-31 08:08:58 | 50.15335 | 8.81427 | 63° | 77km/h | 15113m | -17.7m/s | -53.1°C | 0% | 0hPa | 3.9V | 00:00:00 | 00:00:00 | 00:00:00 | |
| DO2KSM | 2026-08-31 08:08:57 | 50.15335 | 8.81427 | 63° | 77km/h | 15113m | -17.7m/s | -53.1°C | 0% | 0hPa | 3.9V | 00:00:00 | 00:00:00 | 00:00:00 | |
| DK7TD | 2026-08-31 08:08:56 | 50.15317 | 8.81375 | 62° | 77km/h | 15148m | -17.8m/s | -53.1°C | 0% | 0hPa | 3.9V | 00:00:00 | 00:00:00 | 00:00:00 | |
| DL1XH-15 | 2026-08-31 08:08:54 | 50.15258 | 8.81211 | 61° | 82km/h | 15274m | -18.3m/s | 0°C | 0% | 0hPa | 0V | 00:00:00 | 00:00:00 | 00:00:00 | |
| THATR2-17 | 2026-08-31 08:08:54 | 50.15144 | 8.80843 | 68° | 84km/h | 15496m | 0m/s | 0°C | 0% | 0hPa | 3.9V | 00:00:00 | 00:00:00 | 00:00:00 | |
| BIOWL1-15 | 2026-08-31 08:08:53 | 50.15297 | 8.81321 | 61° | 78km/h | 15184m | -18.1m/s | -53.2°C | 0% | 0hPa | 3.9V | 00:00:00 | 00:00:00 | 00:00:00 | |
| DM7RM-13 | 2026-08-31 08:08:52 | 50.15287 | 8.81294 | 62° | 80km/h | 15202m | -18.0m/s | 0°C | 0% | 0hPa | 0V | 00:00:00 | 00:00:00 | 00:00:00 | |
| DL1NUX | 2026-08-31 08:08:51 | 50.15229 | 8.81126 | 61° | 80km/h | 15329m | -18.2m/s | 0°C | 0% | 0hPa | 0V | 00:00:00 | 00:00:00 | 00:00:00 | |
| DF2AP-13 | 2026-08-31 08:08:51 | 50.15277 | 8.81267 | 61° | 84km/h | 15256m | -18.0m/s | 0°C | 0% | 0hPa | 3.9V | 00:00:00 | 00:00:00 | 00:00:00 | |
| DO3MHA-11 | 2026-08-31 08:08:50 | 50.15268 | 8.81239 | 62° | 78km/h | 15256m | -18.0m/s | 0°C | 0% | 0hPa | 3.9V | 00:00:00 | 00:00:00 | 00:00:00 | |
| DL1XH-west | 2026-08-31 08:08:49 | 50.15258 | 8.81211 | 61° | 82km/h | 15256m | -18m/s | -53.6°C | 0% | 0hPa | 3.9V | 00:00:00 | 00:00:00 | 00:00:00 | |
| DB0UT-7 | 2026-08-31 08:08:49 | 50.15258 | 8.81211 | 62° | 86km/h | 15274m | -18.2m/s | 0°C | 0% | 0hPa | 3.9V | 00:00:00 | 00:00:00 | 00:00:00 | |
| DO2JMG | 2026-08-31 08:08:48 | 50.15248 | 8.81182 | 62° | 82km/h | 15274m | -18.3m/s | -53.6°C | 0% | 0hPa | 3.9V | 00:00:00 | 00:00:00 | 00:00:00 | |
| SO1NDE-10 | 2026-08-31 08:08:48 | 50.15248 | 8.81182 | 62° | 86km/h | 15292m | -18.2m/s | 0°C | 0% | 0hPa | 3.9V | 00:00:00 | 00:00:00 | 00:00:00 | |
| DO3DL | 2026-08-31 08:08:47 | 50.15229 | 8.81126 | 63° | 80km/h | 15311m | -18.3m/s | -53.5°C | 0% | 0hPa | 3.9V | 00:00:00 | 00:00:00 | 00:00:00 | |
| DK7TD | 2026-08-31 08:08:46 | 50.15219 | 8.81099 | 60° | 78km/h | 15329m | -18.2m/s | -53.5°C | 0% | 0hPa | 3.9V | 00:00:00 | 00:00:00 | 00:00:00 | |
| DL1XH-15 | 2026-08-31 08:08:44 | 50.15167 | 8.80933 | 67° | 80km/h | 15440m | -18.6m/s | 0°C | 0% | 0hPa | 0V | 00:00:00 | 00:00:00 | 00:00:00 | |
| BIOWL1-15 | 2026-08-31 08:08:42 | 50.15192 | 8.81018 | 64° | 78km/h | 15384m | -18.4m/s | -53.4°C | 0% | 0hPa | 3.9V | 00:00:00 | 00:00:00 | 00:00:00 | |
| DF1GD-15 | 2026-08-31 08:08:42 | 50.15192 | 8.81018 | 65° | 78km/h | 15384m | -18.4m/s | -53.4°C | 0% | 0hPa | 0V | 00:00:00 | 00:00:00 | 00:00:00 | |
| DL1NUX | 2026-08-31 08:08:41 | 50.15144 | 8.80843 | 68° | 84km/h | 15515m | -18.8m/s | 0°C | 0% | 0hPa | 0V | 00:00:00 | 00:00:00 | 00:00:00 | |
| DO3MHA-11 | 2026-08-31 08:08:40 | 50.15175 | 8.80962 | 66° | 86km/h | 15440m | -18.6m/s | 0°C | 0% | 0hPa | 3.9V | 00:00:00 | 00:00:00 | 00:00:00 | |
| DL1XH-west | 2026-08-31 08:08:39 | 50.15159 | 8.80904 | 67° | 82km/h | 15459m | -18.7m/s | -53.7°C | 0% | 0hPa | 3.9V | 00:00:00 | 00:00:00 | 00:00:00 | |
| DO2KSM | 2026-08-31 08:08:37 | 50.15151 | 8.80874 | 70° | 84km/h | 15478m | -18.7m/s | -53.8°C | 0% | 0hPa | 3.9V | 00:00:00 | 00:00:00 | 00:00:00 | |
| DK7TD | 2026-08-31 08:08:35 | 50.15128 | 8.80779 | 70° | 88km/h | 15534m | -18.8m/s | -54°C | 0% | 0hPa | 3.9V | 00:00:00 | 00:00:00 | 00:00:00 | |
| DO3DL | 2026-08-31 08:08:34 | 50.15120 | 8.80747 | 70° | 89km/h | 15554m | -19.0m/s | -54.1°C | 0% | 0hPa | 3.8V | 00:00:00 | 00:00:00 | 00:00:00 | |
| DN1GJH-1 | 2026-08-31 08:08:33 | 50.15120 | 8.80747 | 70° | 89km/h | 15554m | -19.0m/s | -54.1°C | 0% | 0hPa | 3.8V | 00:00:00 | 00:00:00 | 00:00:00 | |
| BIOWL1-15 | 2026-08-31 08:08:32 | 50.15111 | 8.80714 | 68° | 91km/h | 15573m | -18.9m/s | -54.1°C | 0% | 0hPa | 3.8V | 00:00:00 | 00:00:00 | 00:00:00 | |
| DM0DOS-11 | 2026-08-31 08:08:32 | 50.15071 | 8.80536 | 75° | 95km/h | 15687m | -19.2m/s | 0°C | 0% | 0hPa | 0V | 00:00:00 | 00:00:00 | 00:00:00 | |
| DM7RM-13 | 2026-08-31 08:08:31 | 50.15103 | 8.80680 | 69° | 95km/h | 15592m | -18.9m/s | 0°C | 0% | 0hPa | 0V | 00:00:00 | 00:00:00 | 00:00:00 | |
| DO3MHA-11 | 2026-08-31 08:08:30 | 50.15094 | 8.80644 | 70° | 93km/h | 15630m | -19.1m/s | 0°C | 0% | 0hPa | 0V | 00:00:00 | 00:00:00 | 00:00:00 | |
| HEMX73-11 | 2026-08-31 08:08:29 | 50.15086 | 8.80608 | 72° | 97km/h | 15630m | -19.1m/s | -53.8°C | 0% | 0hPa | 0V | 00:00:00 | 00:00:00 | 00:00:00 | |
| DL1XH-15 | 2026-08-31 08:08:28 | 50.15053 | 8.80427 | 76° | 89km/h | 15764m | -19.3m/s | 0°C | 0% | 0hPa | 0V | 00:00:00 | 00:00:00 | 00:00:00 | |
| DL1XH-west | 2026-08-31 08:08:28 | 50.15071 | 8.80536 | 75° | 97km/h | 15668m | -19.2m/s | -53.5°C | 0% | 0hPa | 3.8V | 00:00:00 | 00:00:00 | 00:00:00 | |
| DO3DL | 2026-08-31 08:08:27 | 50.15071 | 8.80536 | 76° | 97km/h | 15668m | -19.2m/s | -53.5°C | 0% | 0hPa | 3.9V | 00:00:00 | 00:00:00 | 00:00:00 | |
| DO2JMG | 2026-08-31 08:08:24 | 50.15048 | 8.80396 | 76° | 88km/h | 15745m | -19.2m/s | -53.7°C | 0% | 0hPa | 3.9V | 00:00:00 | 00:00:00 | 00:00:00 | |
| DM0DOS-11 | 2026-08-31 08:08:22 | 50.15017 | 8.80214 | 75° | 71km/h | 15879m | -19.1m/s | 0°C | 0% | 0hPa | 0V | 00:00:00 | 00:00:00 | 00:00:00 | |
| BIOWL1-15 | 2026-08-31 08:08:22 | 50.15037 | 8.80331 | 76° | 80km/h | 15784m | -19m/s | -53.7°C | 0% | 0hPa | 3.9V | 00:00:00 | 00:00:00 | 00:00:00 | |
| DF2AP-13 | 2026-08-31 08:08:21 | 50.15037 | 8.80331 | 76° | 66km/h | 15822m | -19.0m/s | 0°C | 0% | 0hPa | 3.9V | 00:00:00 | 00:00:00 | 00:00:00 | |
| AA1-15 | 2026-08-31 08:08:20 | 50.15027 | 8.80270 | 75° | 77km/h | 15822m | -19.1m/s | -52.2°C | 0% | 0hPa | 3.9V | 00:00:00 | 00:00:00 | 00:00:00 | |
| DO3MHA-11 | 2026-08-31 08:08:20 | 50.15032 | 8.80299 | 75° | 69km/h | 15822m | -19.0m/s | 0°C | 0% | 0hPa | 0V | 00:00:00 | 00:00:00 | 00:00:00 | |
| DB0UT-7 | 2026-08-31 08:08:19 | 50.15027 | 8.80270 | 75° | 62km/h | 15841m | -19.1m/s | 0°C | 0% | 0hPa | 0V | 00:00:00 | 00:00:00 | 00:00:00 | |
| DL1XH-15 | 2026-08-31 08:08:18 | 50.15000 | 8.80107 | 75° | 64km/h | 15957m | -19.4m/s | 0°C | 0% | 0hPa | 0V | 00:00:00 | 00:00:00 | 00:00:00 | |
| DL1XH-west | 2026-08-31 08:08:18 | 50.15017 | 8.80214 | 76° | 71km/h | 15860m | -19.2m/s | -53.8°C | 0% | 0hPa | 3.9V | 00:00:00 | 00:00:00 | 00:00:00 | |
| NBG1-10 | 2026-08-31 08:08:17 | 50.15017 | 8.80214 | 76° | 60km/h | 15879m | -19.0m/s | 0°C | 0% | 0hPa | 3.9V | 00:00:00 | 00:00:00 | 00:00:00 | |
| DB0NH | 2026-08-31 08:08:16 | 50.15013 | 8.80186 | 78° | 60km/h | 15899m | -19.3m/s | 0°C | 0% | 0hPa | 3.9V | 00:00:00 | 00:00:00 | 00:00:00 | |
| DO3DL | 2026-08-31 08:08:14 | 50.15004 | 8.80133 | 76° | 68km/h | 15918m | -19.5m/s | -53.8°C | 0% | 0hPa | 3.9V | 00:00:00 | 00:00:00 | 00:00:00 | |
| DO2JMG | 2026-08-31 08:08:13 | 50.14996 | 8.80085 | 75° | 62km/h | 15957m | -19.4m/s | -53.7°C | 0% | 0hPa | 3.9V | 00:00:00 | 00:00:00 | 00:00:00 | |
| DN1GJH-1 | 2026-08-31 08:08:13 | 50.14996 | 8.80084 | 76° | 62km/h | 15957m | -19.4m/s | -53.7°C | 0% | 0hPa | 0V | 00:00:00 | 00:00:00 | 00:00:00 | |
| DM0DOS-11 | 2026-08-31 08:08:12 | 50.14976 | 8.79970 | 81° | 62km/h | 16074m | -19.4m/s | 0°C | 0% | 0hPa | 0V | 00:00:00 | 00:00:00 | 00:00:00 | |
| DF8AY | 2026-08-31 08:08:11 | 50.14988 | 8.80040 | 73° | 58km/h | 15996m | -19.4m/s | -53.5°C | 0% | 0hPa | 3.9V | 00:00:00 | 00:00:00 | 00:00:00 | |
| DO3MHA-11 | 2026-08-31 08:08:10 | 50.14988 | 8.80040 | 74° | 62km/h | 16015m | -19.5m/s | 0°C | 0% | 0hPa | 0V | 00:00:00 | 00:00:00 | 00:00:00 | |
| HEMX73-11 | 2026-08-31 08:08:09 | 50.14983 | 8.80017 | 74° | 60km/h | 16015m | -19.5m/s | -53.3°C | 0% | 0hPa | 0V | 00:00:00 | 00:00:00 | 00:00:00 | |
| DL1XH-15 | 2026-08-31 08:08:08 | 50.14967 | 8.79870 | 83° | 66km/h | 16171m | -19.5m/s | 0°C | 0% | 0hPa | 0V | 00:00:00 | 00:00:00 | 00:00:00 | |
| DL1XH-west | 2026-08-31 08:08:08 | 50.14976 | 8.79969 | 80° | 62km/h | 16054m | -19.4m/s | -53°C | 0% | 0hPa | 3.9V | 00:00:00 | 00:00:00 | 00:00:00 | |
| HSKMA3-T | 2026-08-31 08:08:07 | 50.14973 | 8.79945 | 82° | 62km/h | 16074m | -19.4m/s | -53°C | 0% | 0hPa | 3.9V | 00:00:00 | 00:00:00 | 00:00:00 | |
| DO8TBO-1 | 2026-08-31 08:08:05 | 50.14971 | 8.79921 | 83° | 60km/h | 16113m | -19.4m/s | 0°C | 0% | 0hPa | 3.9V | 00:00:00 | 00:00:00 | 00:00:00 | |
| DO2JMG | 2026-08-31 08:08:03 | 50.14965 | 8.79845 | 82° | 64km/h | 16151m | -19.5m/s | -52.5°C | 0% | 0hPa | 3.9V | 00:00:00 | 00:00:00 | 00:00:00 | |
| DC4HF-4 | 2026-08-31 08:08:03 | 50.14965 | 8.79845 | 81° | 64km/h | 16151m | -19.5m/s | -52.5°C | -1.0% | -1.0hPa | 0V | 00:00:00 | 00:00:00 | 00:00:00 | |
| DM0DOS-11 | 2026-08-31 08:08:02 | 50.14948 | 8.79730 | 71° | 57km/h | 16269m | -19.5m/s | 0°C | 0% | 0hPa | 0V | 00:00:00 | 00:00:00 | 00:00:00 | |
| DL1NUX | 2026-08-31 08:08:00 | 50.14939 | 8.79688 | 70° | 55km/h | 16309m | -19.6m/s | 0°C | 0% | 0hPa | 0V | 00:00:00 | 00:00:00 | 00:00:00 | |
| DF8AY | 2026-08-31 08:08:00 | 50.14956 | 8.79774 | 77° | 58km/h | 16210m | -19.4m/s | -52.1°C | 0% | 0hPa | 3.9V | 00:00:00 | 00:00:00 | 00:00:00 | |
| DL1XH-15 | 2026-08-31 08:07:58 | 50.14930 | 8.79647 | 69° | 55km/h | 16367m | -19.5m/s | 0°C | 0% | 0hPa | 0V | 00:00:00 | 00:00:00 | 00:00:00 | |
| DL1XH-west | 2026-08-31 08:07:57 | 50.14925 | 8.79626 | 72° | 55km/h | 16348m | -19.6m/s | -52.5°C | 0% | 0hPa | 3.9V | 00:00:00 | 00:00:00 | 00:00:00 | |
| HSKMA3-T | 2026-08-31 08:07:56 | 50.14939 | 8.79688 | 71° | 55km/h | 16289m | -19.7m/s | -52.5°C | 0% | 0hPa | 3.9V | 00:00:00 | 00:00:00 | 00:00:00 | |
| DO3DL | 2026-08-31 08:07:54 | 50.14934 | 8.79667 | 71° | 57km/h | 16309m | -19.6m/s | -52.5°C | 0% | 0hPa | 0V | 00:00:00 | 00:00:00 | 00:00:00 | |
| DM0DOS-11 | 2026-08-31 08:07:52 | 50.14902 | 8.79522 | 63° | 55km/h | 16465m | -19.5m/s | 0°C | 0% | 0hPa | 0V | 00:00:00 | 00:00:00 | 00:00:00 | |
| DO2JMG | 2026-08-31 08:07:51 | 50.14921 | 8.79606 | 73° | 55km/h | 16367m | -19.5m/s | -52.3°C | 0% | 0hPa | 3.9V | 00:00:00 | 00:00:00 | 00:00:00 | |
| DL1NUX | 2026-08-31 08:07:50 | 50.14891 | 8.79484 | 60° | 53km/h | 16504m | -19.5m/s | 0°C | 0% | 0hPa | 0V | 00:00:00 | 00:00:00 | 00:00:00 | |
| DO3MHA-11 | 2026-08-31 08:07:50 | 50.14917 | 8.79585 | 75° | 57km/h | 16406m | -19.3m/s | 0°C | 0% | 0hPa | 3.9V | 00:00:00 | 00:00:00 | 00:00:00 | |
| BIOWL1-15 | 2026-08-31 08:07:49 | 50.14913 | 8.79564 | 73° | 57km/h | 16406m | -19.4m/s | -52.1°C | 0% | 0hPa | 3.9V | 00:00:00 | 00:00:00 | 00:00:00 | |
| DB0UT-7 | 2026-08-31 08:07:49 | 50.14912 | 8.79564 | 73° | 57km/h | 16426m | -19.6m/s | 0°C | 0% | 0hPa | 0V | 00:00:00 | 00:00:00 | 00:00:00 | |
| SO1NDE-10 | 2026-08-31 08:07:48 | 50.14908 | 8.79543 | 69° | 57km/h | 16445m | -19.4m/s | 0°C | 0% | 0hPa | 0V | 00:00:00 | 00:00:00 | 00:00:00 | |
| DL1XH-15 | 2026-08-31 08:07:47 | 50.14869 | 8.79428 | 55° | 58km/h | 16562m | -19.5m/s | 0°C | 0% | 0hPa | 0V | 00:00:00 | 00:00:00 | 00:00:00 | |
| DB0NH | 2026-08-31 08:07:46 | 50.14897 | 8.79503 | 64° | 55km/h | 16484m | -19.5m/s | 0°C | 0% | 0hPa | 3.9V | 00:00:00 | 00:00:00 | 00:00:00 | |
| DL1XH-west | 2026-08-31 08:07:45 | 50.14884 | 8.79465 | 60° | 55km/h | 16504m | -19.5m/s | -51.2°C | 0% | 0hPa | 3.9V | 00:00:00 | 00:00:00 | 00:00:00 | |
| NBG1-10 | 2026-08-31 08:07:44 | 50.14884 | 8.79465 | 61° | 55km/h | 16524m | -19.3m/s | 0°C | 0% | 0hPa | 0V | 00:00:00 | 00:00:00 | 00:00:00 | |
| DO2JMG | 2026-08-31 08:07:41 | 50.14860 | 8.79409 | 54° | 60km/h | 16562m | -19.5m/s | -50.6°C | 0% | 0hPa | 0V | 00:00:00 | 00:00:00 | 00:00:00 | |
| DK7TD | 2026-08-31 08:07:41 | 50.14851 | 8.79390 | 55° | 64km/h | 16582m | -19.8m/s | -50.8°C | 0% | 0hPa | 3.9V | 00:00:00 | 00:00:00 | 00:00:00 | |
| DL1NUX | 2026-08-31 08:07:40 | 50.14803 | 8.79287 | 52° | 62km/h | 16700m | -20m/s | 0°C | 0% | 0hPa | 0V | 00:00:00 | 00:00:00 | 00:00:00 | |
| DO3MHA-11 | 2026-08-31 08:07:40 | 50.14851 | 8.79390 | 55° | 60km/h | 16602m | -19.4m/s | 0°C | 0% | 0hPa | 3.9V | 00:00:00 | 00:00:00 | 00:00:00 | |
| DF8AY | 2026-08-31 08:07:39 | 50.14832 | 8.79348 | 54° | 66km/h | 16621m | -19.5m/s | -50.3°C | 0% | 0hPa | 3.9V | 00:00:00 | 00:00:00 | 00:00:00 | |
| DO8TBO-1 | 2026-08-31 08:07:35 | 50.14803 | 8.79287 | 53° | 51km/h | 16701m | -20.0m/s | 0°C | 0% | 0hPa | 3.9V | 00:00:00 | 00:00:00 | 00:00:00 | |
| DL1XH-west | 2026-08-31 08:07:34 | 50.14794 | 8.79269 | 53° | 58km/h | 16701m | -20m/s | -49°C | 0% | 0hPa | 3.9V | 00:00:00 | 00:00:00 | 00:00:00 | |
| DO3DL | 2026-08-31 08:07:33 | 50.14784 | 8.79251 | 54° | 57km/h | 16721m | -20.1m/s | -48.9°C | 0% | 0hPa | 0V | 00:00:00 | 00:00:00 | 00:00:00 | |
| DM0DOS-11 | 2026-08-31 08:07:32 | 50.14729 | 8.79156 | 40° | 51km/h | 16862m | -20.2m/s | 0°C | 0% | 0hPa | 0V | 00:00:00 | 00:00:00 | 00:00:00 | |
| DL1NUX | 2026-08-31 08:07:30 | 50.14709 | 8.79131 | 37° | 51km/h | 16903m | -20.5m/s | 0°C | 0% | 0hPa | 0V | 00:00:00 | 00:00:00 | 00:00:00 | |
| DO2JMG | 2026-08-31 08:07:30 | 50.14748 | 8.79184 | 45° | 53km/h | 16801m | -20.2m/s | 0°C | 0% | 0hPa | 0V | 00:00:00 | 00:00:00 | 00:00:00 | |
| DO3MHA-11 | 2026-08-31 08:07:29 | 50.14748 | 8.79184 | 46° | 51km/h | 16822m | -20.2m/s | 0°C | 0% | 0hPa | 0V | 00:00:00 | 00:00:00 | 00:00:00 | |
| DL1XH-15 | 2026-08-31 08:07:28 | 50.14687 | 8.79107 | 33° | 51km/h | 16944m | -20.6m/s | 0°C | 0% | 0hPa | 0V | 00:00:00 | 00:00:00 | 00:00:00 | |
| BIOWL1-15 | 2026-08-31 08:07:27 | 50.14729 | 8.79156 | 41° | 51km/h | 16842m | -20.2m/s | -49.1°C | 0% | 0hPa | 3.9V | 00:00:00 | 00:00:00 | 00:00:00 | |
| DO3DL | 2026-08-31 08:07:27 | 50.14729 | 8.79156 | 42° | 51km/h | 16842m | -20.2m/s | -49.1°C | 0% | 0hPa | 3.9V | 00:00:00 | 00:00:00 | 00:00:00 | |
| DL1XH-west | 2026-08-31 08:07:23 | 50.14687 | 8.79107 | 34° | 51km/h | 16923m | -20.4m/s | -49.6°C | 0% | 0hPa | 3.9V | 00:00:00 | 00:00:00 | 00:00:00 | |
| DF2AP-13 | 2026-08-31 08:07:20 | 50.14655 | 8.79075 | 32° | 42km/h | 17006m | -20.5m/s | 0°C | 0% | 0hPa | 3.9V | 00:00:00 | 00:00:00 | 00:00:00 | |
| DK7TD | 2026-08-31 08:07:19 | 50.14633 | 8.79055 | 30° | 51km/h | 17026m | -20.6m/s | -50.5°C | 0% | 0hPa | 3.9V | 00:00:00 | 00:00:00 | 00:00:00 | |
| DO3MHA-11 | 2026-08-31 08:07:19 | 50.14644 | 8.79065 | 31° | 51km/h | 17026m | -20.5m/s | 0°C | 0% | 0hPa | 0V | 00:00:00 | 00:00:00 | 00:00:00 | |
| DL1XH-15 | 2026-08-31 08:07:18 | 50.14579 | 8.79002 | 35° | 51km/h | 17150m | -20.6m/s | 0°C | 0% | 0hPa | 0V | 00:00:00 | 00:00:00 | 00:00:00 | |
| SO1NDE-10 | 2026-08-31 08:07:18 | 50.14633 | 8.79055 | 31° | 40km/h | 17047m | -20.4m/s | 0°C | 0% | 0hPa | 3.9V | 00:00:00 | 00:00:00 | 00:00:00 | |
| BIOWL1-15 | 2026-08-31 08:07:17 | 50.14611 | 8.79034 | 31° | 51km/h | 17067m | -20.5m/s | -50.7°C | 0% | 0hPa | 3.9V | 00:00:00 | 00:00:00 | 00:00:00 | |
| DB0NH | 2026-08-31 08:07:16 | 50.14611 | 8.79034 | 31° | 38km/h | 17088m | -20.6m/s | 0°C | 0% | 0hPa | 3.9V | 00:00:00 | 00:00:00 | 00:00:00 | |
| DO2KSM | 2026-08-31 08:07:15 | 50.14600 | 8.79024 | 33° | 51km/h | 17088m | -20.6m/s | -50.9°C | 0% | 0hPa | 3.9V | 00:00:00 | 00:00:00 | 00:00:00 | |
| DO3DL | 2026-08-31 08:07:14 | 50.14589 | 8.79013 | 34° | 51km/h | 17108m | -20.6m/s | -51.0°C | 0% | 0hPa | 3.9V | 00:00:00 | 00:00:00 | 00:00:00 | |
| DL1XH-west | 2026-08-31 08:07:12 | 50.14568 | 8.78990 | 36° | 51km/h | 17150m | -20.6m/s | -51.2°C | 0% | 0hPa | 3.9V | 00:00:00 | 00:00:00 | 00:00:00 | |
| NBG1-10 | 2026-08-31 08:07:11 | 50.14558 | 8.78978 | 40° | 33km/h | 17191m | -20.7m/s | 0°C | 0% | 0hPa | 0V | 00:00:00 | 00:00:00 | 00:00:00 | |
| DL1NUX | 2026-08-31 08:07:10 | 50.14505 | 8.78899 | 48° | 47km/h | 17314m | -20.8m/s | 0°C | 0% | 0hPa | 0V | 00:00:00 | 00:00:00 | 00:00:00 | |
| DK7TD | 2026-08-31 08:07:09 | 50.14530 | 8.78940 | 45° | 47km/h | 17233m | -20.6m/s | -51.4°C | 0% | 0hPa | 3.9V | 00:00:00 | 00:00:00 | 00:00:00 | |
| DL1XH-15 | 2026-08-31 08:07:08 | 50.14491 | 8.78871 | 53° | 46km/h | 17356m | -21m/s | 0°C | 0% | 0hPa | 0V | 00:00:00 | 00:00:00 | 00:00:00 | |
| DO3DL | 2026-08-31 08:07:07 | 50.14521 | 8.78926 | 47° | 47km/h | 17253m | -20.7m/s | -51.4°C | 0% | 0hPa | 3.9V | 00:00:00 | 00:00:00 | 00:00:00 | |
| DF8AY | 2026-08-31 08:07:06 | 50.14505 | 8.78899 | 48° | 47km/h | 17294m | -20.9m/s | -51.7°C | 0% | 0hPa | 3.9V | 00:00:00 | 00:00:00 | 00:00:00 | |
| DO8TBO-1 | 2026-08-31 08:07:05 | 50.14505 | 8.78899 | 49° | 29km/h | 17315m | -20.7m/s | 0°C | 0% | 0hPa | 3.9V | 00:00:00 | 00:00:00 | 00:00:00 | |
| AA1-15 | 2026-08-31 08:07:04 | 50.14491 | 8.78871 | 54° | 46km/h | 17336m | -20.8m/s | -51.9°C | 0% | 0hPa | 3.9V | 00:00:00 | 00:00:00 | 00:00:00 | |
| DM0DOS-11 | 2026-08-31 08:07:02 | 50.14462 | 8.78792 | 70° | 31km/h | 17483m | -21.5m/s | 0°C | 0% | 0hPa | 0V | 00:00:00 | 00:00:00 | 00:00:00 | |
| DL1XH-west | 2026-08-31 08:07:01 | 50.14479 | 8.78843 | 58° | 42km/h | 17377m | -21m/s | -52°C | 0% | 0hPa | 3.9V | 00:00:00 | 00:00:00 | 00:00:00 | |
| DO3DL | 2026-08-31 08:07:01 | 50.14479 | 8.78843 | 59° | 42km/h | 17377m | -21.0m/s | -52.0°C | 0% | 0hPa | 0V | 00:00:00 | 00:00:00 | 00:00:00 | |
| DL1NUX | 2026-08-31 08:07:00 | 50.14457 | 8.78769 | 74° | 29km/h | 17526m | -21.6m/s | 0°C | 0% | 0hPa | 0V | 00:00:00 | 00:00:00 | 00:00:00 | |
| DO3MHA-11 | 2026-08-31 08:06:59 | 50.14469 | 8.78816 | 63° | 29km/h | 17440m | -21.0m/s | 0°C | 0% | 0hPa | 0V | 00:00:00 | 00:00:00 | 00:00:00 | |
| DL1XH-15 | 2026-08-31 08:06:58 | 50.14454 | 8.78747 | 75° | 27km/h | 17570m | -21.9m/s | 0°C | 0% | 0hPa | 0V | 00:00:00 | 00:00:00 | 00:00:00 | |
| DK7TD | 2026-08-31 08:06:58 | 50.14462 | 8.78792 | 71° | 31km/h | 17461m | -21.4m/s | -51.7°C | 0% | 0hPa | 3.9V | 00:00:00 | 00:00:00 | 00:00:00 | |
| BIOWL1-15 | 2026-08-31 08:06:56 | 50.14457 | 8.78769 | 75° | 29km/h | 17504m | -21.5m/s | -51.8°C | 0% | 0hPa | 3.9V | 00:00:00 | 00:00:00 | 00:00:00 | |
| DO3DL | 2026-08-31 08:06:55 | 50.14456 | 8.78758 | 74° | 29km/h | 17526m | -21.6m/s | -51.9°C | 0% | 0hPa | 0V | 00:00:00 | 00:00:00 | 00:00:00 | |
| DO2KSM | 2026-08-31 08:06:54 | 50.14456 | 8.78758 | 74° | 29km/h | 17526m | -21.6m/s | -51.9°C | 0% | 0hPa | 0V | 00:00:00 | 00:00:00 | 00:00:00 | |
| DM0DOS-11 | 2026-08-31 08:06:52 | 50.14447 | 8.78693 | 80° | 22km/h | 17701m | -22.3m/s | 0°C | 0% | 0hPa | 0V | 00:00:00 | 00:00:00 | 00:00:00 | |
| DL1XH-west | 2026-08-31 08:06:51 | 50.14450 | 8.78718 | 80° | 24km/h | 17613m | -22m/s | -52.5°C | 0% | 0hPa | 3.9V | 00:00:00 | 00:00:00 | 00:00:00 | |
| DF2AP-13 | 2026-08-31 08:06:50 | 50.14450 | 8.78718 | 80° | 18km/h | 17635m | -22.1m/s | 0°C | 0% | 0hPa | 3.9V | 00:00:00 | 00:00:00 | 00:00:00 | |
| DO3MHA-11 | 2026-08-31 08:06:49 | 50.14449 | 8.78709 | 80° | 24km/h | 17657m | -22.0m/s | 0°C | 0% | 0hPa | 3.9V | 00:00:00 | 00:00:00 | 00:00:00 | |
| SO1NDE-10 | 2026-08-31 08:06:48 | 50.14447 | 8.78701 | 80° | 18km/h | 17679m | -22.2m/s | 0°C | 0% | 0hPa | 3.9V | 00:00:00 | 00:00:00 | 00:00:00 | |
| DK7TD | 2026-08-31 08:06:47 | 50.14446 | 8.78684 | 81° | 22km/h | 17701m | -22.3m/s | -52.8°C | 0% | 0hPa | 3.9V | 00:00:00 | 00:00:00 | 00:00:00 | |
| DB0NH | 2026-08-31 08:06:46 | 50.14445 | 8.78684 | 81° | 18km/h | 17724m | -22.5m/s | 0°C | 0% | 0hPa | 3.9V | 00:00:00 | 00:00:00 | 00:00:00 | |
| BIOWL1-15 | 2026-08-31 08:06:45 | 50.14443 | 8.78667 | 79° | 24km/h | 17746m | -22.5m/s | -52.3°C | 0% | 0hPa | 3.9V | 00:00:00 | 00:00:00 | 00:00:00 | |
| DM0DOS-11 | 2026-08-31 08:06:43 | 50.14431 | 8.78603 | 74° | 20km/h | 17928m | -22.8m/s | 0°C | 0% | 0hPa | 0V | 00:00:00 | 00:00:00 | 00:00:00 | |
| DO3DL | 2026-08-31 08:06:42 | 50.14440 | 8.78648 | 77° | 26km/h | 17791m | -22.7m/s | -51.7°C | 0% | 0hPa | 3.9V | 00:00:00 | 00:00:00 | 00:00:00 | |
| HSKMA3-T | 2026-08-31 08:06:41 | 50.14436 | 8.78629 | 71° | 26km/h | 17837m | -22.6m/s | -51.1°C | 0% | 0hPa | 3.9V | 00:00:00 | 00:00:00 | 00:00:00 | |
| CB1BUN | 2026-08-31 08:06:40 | 50.14434 | 8.78619 | 71° | 24km/h | 17859m | -22.8m/s | -50.9°C | 0% | 0hPa | 0V | 00:00:00 | 00:00:00 | 00:00:00 | |
| DO3MHA-11 | 2026-08-31 08:06:39 | 50.14434 | 8.78619 | 71° | 16km/h | 17882m | -22.7m/s | 0°C | 0% | 0hPa | 0V | 00:00:00 | 00:00:00 | 00:00:00 | |
| DL1XH-15 | 2026-08-31 08:06:38 | 50.14426 | 8.78577 | 64° | 13km/h | 18019m | -22.8m/s | 0°C | 0% | 0hPa | 0V | 00:00:00 | 00:00:00 | 00:00:00 | |
| NBG1-10 | 2026-08-31 08:06:38 | 50.14432 | 8.78611 | 71° | 16km/h | 17905m | -22.7m/s | 0°C | 0% | 0hPa | 3.9V | 00:00:00 | 00:00:00 | 00:00:00 | |
| DK7TD | 2026-08-31 08:06:36 | 50.14429 | 8.78588 | 77° | 18km/h | 17950m | -22.9m/s | -50.4°C | 0% | 0hPa | 3.9V | 00:00:00 | 00:00:00 | 00:00:00 | |
| DO8TBO-1 | 2026-08-31 08:06:35 | 50.14429 | 8.78588 | 78° | 16km/h | 17973m | -22.9m/s | 0°C | 0% | 0hPa | 3.9V | 00:00:00 | 00:00:00 | 00:00:00 | |
| BIOWL1-15 | 2026-08-31 08:06:34 | 50.14426 | 8.78577 | 64° | 15km/h | 17996m | -23m/s | -50.5°C | 0% | 0hPa | 3.9V | 00:00:00 | 00:00:00 | 00:00:00 | |
| DO2KSM | 2026-08-31 08:06:33 | 50.14426 | 8.78577 | 65° | 13km/h | 17996m | -23.0m/s | -50.5°C | 0% | 0hPa | 0V | 00:00:00 | 00:00:00 | 00:00:00 | |
| DM0DOS-11 | 2026-08-31 08:06:32 | 50.14417 | 8.78551 | 47° | 15km/h | 18157m | -23.2m/s | 0°C | 0% | 0hPa | 0V | 00:00:00 | 00:00:00 | 00:00:00 | |
| DL1XH-west | 2026-08-31 08:06:29 | 50.14421 | 8.78559 | 59° | 13km/h | 18087m | -23.1m/s | -51°C | 0% | 0hPa | 3.9V | 00:00:00 | 00:00:00 | 00:00:00 | |
| DO3DL | 2026-08-31 08:06:29 | 50.14419 | 8.78555 | 55° | 13km/h | 18111m | -23.3m/s | -51.2°C | 0% | 0hPa | 0V | 00:00:00 | 00:00:00 | 00:00:00 | |
| DL1XH-15 | 2026-08-31 08:06:28 | 50.14406 | 8.78537 | 34° | 15km/h | 18250m | -23.2m/s | 0°C | 0% | 0hPa | 0V | 00:00:00 | 00:00:00 | 00:00:00 | |
| DK7TD | 2026-08-31 08:06:26 | 50.14412 | 8.78543 | 36° | 15km/h | 18180m | -23.2m/s | -51.6°C | 0% | 0hPa | 3.9V | 00:00:00 | 00:00:00 | 00:00:00 | |
| AA1-15 | 2026-08-31 08:06:24 | 50.14406 | 8.78537 | 34° | 15km/h | 18227m | -23.3m/s | -52°C | 0% | 0hPa | 3.9V | 00:00:00 | 00:00:00 | 00:00:00 | |
| BIOWL1-15 | 2026-08-31 08:06:23 | 50.14402 | 8.78533 | 35° | 16km/h | 18250m | -23.2m/s | -52.1°C | 0% | 0hPa | 3.9V | 00:00:00 | 00:00:00 | 00:00:00 | |
| DO3DL | 2026-08-31 08:06:22 | 50.14402 | 8.78533 | 36° | 16km/h | 18250m | -23.2m/s | -52.1°C | 0% | 0hPa | 3.9V | 00:00:00 | 00:00:00 | 00:00:00 | |
| DF2AP-13 | 2026-08-31 08:06:20 | 50.14395 | 8.78524 | 38° | 20km/h | 18320m | -23.4m/s | 0°C | 0% | 0hPa | 3.9V | 00:00:00 | 00:00:00 | 00:00:00 | |
| DO3MHA-11 | 2026-08-31 08:06:19 | 50.14391 | 8.78519 | 42° | 18km/h | 18342m | -23.5m/s | 0°C | 0% | 0hPa | 3.9V | 00:00:00 | 00:00:00 | 00:00:00 | |
| DL1XH-west | 2026-08-31 08:06:18 | 50.14387 | 8.78514 | 41° | 18km/h | 18342m | -23.5m/s | -52.6°C | 0% | 0hPa | 3.9V | 00:00:00 | 00:00:00 | 00:00:00 | |
| DB0NH | 2026-08-31 08:06:16 | 50.14380 | 8.78504 | 45° | 20km/h | 18435m | -23.7m/s | 0°C | 0% | 0hPa | 3.9V | 00:00:00 | 00:00:00 | 00:00:00 | |
| DK7TD | 2026-08-31 08:06:15 | 50.14373 | 8.78493 | 49° | 18km/h | 18435m | -23.7m/s | -52.8°C | 0% | 0hPa | 3.9V | 00:00:00 | 00:00:00 | 00:00:00 | |
| DF8AY | 2026-08-31 08:06:13 | 50.14367 | 8.78482 | 44° | 18km/h | 18482m | -23.8m/s | -52.7°C | 0% | 0hPa | 3.9V | 00:00:00 | 00:00:00 | 00:00:00 | |
| DM0DOS-11 | 2026-08-31 08:06:12 | 50.14348 | 8.78467 | 17° | 16km/h | 18623m | -24.2m/s | 0°C | 0% | 0hPa | 0V | 00:00:00 | 00:00:00 | 00:00:00 | |
| BIOWL1-15 | 2026-08-31 08:06:12 | 50.14316 | 8.78440 | 30° | 20km/h | 18791m | -24.1m/s | -52.8°C | 0% | 0hPa | 3.9V | 00:00:00 | 00:00:00 | 00:00:00 | |
| DO3DL | 2026-08-31 08:06:10 | 50.14360 | 8.78473 | 26° | 16km/h | 18530m | -24.0m/s | -52.7°C | 0% | 0hPa | 3.8V | 00:00:00 | 00:00:00 | 00:00:00 | |
| DO3MHA-11 | 2026-08-31 08:06:09 | 50.14356 | 8.78471 | 20° | 18km/h | 18577m | -23.8m/s | 0°C | 0% | 0hPa | 3.8V | 00:00:00 | 00:00:00 | 00:00:00 | |
| DL1XH-west | 2026-08-31 08:06:07 | 50.14348 | 8.78466 | 17° | 16km/h | 18600m | -23.9m/s | -52.9°C | 0% | 0hPa | 3.8V | 00:00:00 | 00:00:00 | 00:00:00 | |
| DN1GJH-1 | 2026-08-31 08:06:07 | 50.14348 | 8.78467 | 18° | 16km/h | 18600m | -23.9m/s | -52.9°C | 0% | 0hPa | 3.9V | 00:00:00 | 00:00:00 | 00:00:00 | |
| AA1-15 | 2026-08-31 08:06:06 | 50.14340 | 8.78461 | 23° | 18km/h | 18648m | -24.1m/s | -53°C | 0% | 0hPa | 3.9V | 00:00:00 | 00:00:00 | 00:00:00 | |
| NBG1-10 | 2026-08-31 08:06:05 | 50.14340 | 8.78461 | 23° | 24km/h | 18672m | -23.9m/s | 0°C | 0% | 0hPa | 3.8V | 00:00:00 | 00:00:00 | 00:00:00 | |
| DK7TD | 2026-08-31 08:06:04 | 50.14332 | 8.78455 | 29° | 18km/h | 18695m | -24.2m/s | -53°C | 0% | 0hPa | 3.8V | 00:00:00 | 00:00:00 | 00:00:00 | |
| DO3DL | 2026-08-31 08:06:03 | 50.14327 | 8.78451 | 32° | 18km/h | 18719m | -24.1m/s | -52.8°C | 0% | 0hPa | 0V | 00:00:00 | 00:00:00 | 00:00:00 | |
| DM0DOS-11 | 2026-08-31 08:06:02 | 50.14306 | 8.78431 | 32° | 22km/h | 18867m | -26.5m/s | 0°C | 0% | 0hPa | 0V | 00:00:00 | 00:00:00 | 00:00:00 | |
| DF8AY | 2026-08-31 08:06:02 | 50.14324 | 8.78448 | 32° | 18km/h | 18743m | -23.9m/s | -52.7°C | 0% | 0hPa | 3.8V | 00:00:00 | 00:00:00 | 00:00:00 | |
| DO3MHA-11 | 2026-08-31 08:05:59 | 50.14315 | 8.78440 | 31° | 22km/h | 18816m | -24.3m/s | 0°C | 0% | 0hPa | 3.9V | 00:00:00 | 00:00:00 | 00:00:00 | |
| DF1GD-15 | 2026-08-31 08:05:58 | 50.14311 | 8.78435 | 32° | 20km/h | 18816m | -24.3m/s | -52.9°C | 0% | 0hPa | 3.9V | 00:00:00 | 00:00:00 | 00:00:00 | |
| DL1XH-west | 2026-08-31 08:05:57 | 50.14306 | 8.78431 | 32° | 22km/h | 18841m | -25.4m/s | -53.3°C | 0% | 0hPa | 3.9V | 00:00:00 | 00:00:00 | 00:00:00 | |
| DL1XH-15 | 2026-08-31 08:05:57 | 50.14285 | 8.78406 | 38° | 26km/h | 18999m | -20.6m/s | 0°C | 0% | 0hPa | 0V | 00:00:00 | 00:00:00 | 00:00:00 | |
| DO3DL | 2026-08-31 08:05:56 | 50.14302 | 8.78427 | 35° | 24km/h | 18867m | -26.5m/s | 0°C | 0% | 0hPa | 3.9V | 00:00:00 | 00:00:00 | 00:00:00 | |
| AA1-15 | 2026-08-31 08:05:55 | 50.14293 | 8.78417 | 38° | 20km/h | 18920m | -23.2m/s | -53.8°C | 0% | 0hPa | 3.9V | 00:00:00 | 00:00:00 | 00:00:00 | |
| DM0DOS-11 | 2026-08-31 08:05:52 | 50.14262 | 8.78377 | 26° | 20km/h | 19091m | -23.1m/s | 0°C | 0% | 0hPa | 0V | 00:00:00 | 00:00:00 | 00:00:00 | |
| DF8AY | 2026-08-31 08:05:51 | 50.14275 | 8.78394 | 38° | 24km/h | 18999m | -20.6m/s | -54°C | 0% | 0hPa | 3.9V | 00:00:00 | 00:00:00 | 00:00:00 | |
| DF2AP-13 | 2026-08-31 08:05:50 | 50.14275 | 8.78394 | 39° | 18km/h | 19021m | -22.9m/s | 0°C | 0% | 0hPa | 3.9V | 00:00:00 | 00:00:00 | 00:00:00 | |
| DO3MHA-11 | 2026-08-31 08:05:49 | 50.14270 | 8.78387 | 39° | 26km/h | 19045m | -22.7m/s | 0°C | 0% | 0hPa | 3.9V | 00:00:00 | 00:00:00 | 00:00:00 | |
| DM7RM-13 | 2026-08-31 08:05:47 | 50.14262 | 8.78377 | 39° | 20km/h | 19068m | -23.1m/s | 0°C | 0% | 0hPa | 3.9V | 00:00:00 | 00:00:00 | 00:00:00 | |
| DL1XH-west | 2026-08-31 08:05:46 | 50.14257 | 8.78373 | 26° | 20km/h | 19091m | -23.1m/s | -54.3°C | 0% | 0hPa | 3.9V | 00:00:00 | 00:00:00 | 00:00:00 | |
| DL1XH-15 | 2026-08-31 08:05:46 | 50.14227 | 8.78357 | 8° | 33km/h | 19348m | -23.6m/s | 0°C | 0% | 0hPa | 0V | 00:00:00 | 00:00:00 | 00:00:00 | |
| HEMX73-11 | 2026-08-31 08:05:46 | 50.14253 | 8.78369 | 29° | 20km/h | 19115m | -23.1m/s | -54.3°C | 0% | 0hPa | 0V | 00:00:00 | 00:00:00 | 00:00:00 | |
| DM0DOS-11 | 2026-08-31 08:05:42 | 50.14194 | 8.78345 | 17° | 35km/h | 19325m | -23.4m/s | 0°C | 0% | 0hPa | 0V | 00:00:00 | 00:00:00 | 00:00:00 | |
| DO3MHA-11 | 2026-08-31 08:05:39 | 50.14211 | 8.78352 | 13° | 35km/h | 19278m | -23.2m/s | 0°C | 0% | 0hPa | 3.9V | 00:00:00 | 00:00:00 | 00:00:00 | |
| DF1GD-15 | 2026-08-31 08:05:38 | 50.14202 | 8.78349 | 14° | 37km/h | 19278m | -23.3m/s | -53.7°C | 0% | 0hPa | 3.9V | 00:00:00 | 00:00:00 | 00:00:00 | |
| DL1XH-west | 2026-08-31 08:05:35 | 50.14177 | 8.78336 | 24° | 35km/h | 19348m | -23.6m/s | -53.9°C | 0% | 0hPa | 3.9V | 00:00:00 | 00:00:00 | 00:00:00 | |
| HSKMA3-T | 2026-08-31 08:05:34 | 50.14163 | 8.78323 | 30° | 35km/h | 19395m | -23.6m/s | -53.7°C | 0% | 0hPa | 3.9V | 00:00:00 | 00:00:00 | 00:00:00 | |
| NBG1-10 | 2026-08-31 08:05:32 | 50.14155 | 8.78316 | 34° | 18km/h | 19442m | -23.8m/s | 0°C | 0% | 0hPa | 0V | 00:00:00 | 00:00:00 | 00:00:00 | |
| DO3MHA-11 | 2026-08-31 08:05:29 | 50.14134 | 8.78295 | 35° | 27km/h | 19515m | -23.8m/s | 0°C | 0% | 0hPa | 0V | 00:00:00 | 00:00:00 | 00:00:00 | |
| DL1XH-15 | 2026-08-31 08:05:28 | 50.14122 | 8.78283 | 29° | 27km/h | 19539m | -24.1m/s | 0°C | 0% | 0hPa | 0V | 00:00:00 | 00:00:00 | 00:00:00 | |
| BIOWL1-15 | 2026-08-31 08:05:27 | 50.14106 | 8.78263 | 44° | 26km/h | 19612m | -24.2m/s | -52.4°C | 0% | 0hPa | 3.9V | 00:00:00 | 00:00:00 | 00:00:00 | |
| DM7RM-13 | 2026-08-31 08:05:26 | 50.14116 | 8.78276 | 39° | 27km/h | 19564m | -24.0m/s | 0°C | 0% | 0hPa | 3.9V | 00:00:00 | 00:00:00 | 00:00:00 | |
| HEMX73-11 | 2026-08-31 08:05:24 | 50.14107 | 8.78263 | 44° | 26km/h | 19612m | -24.2m/s | -52.4°C | 0% | 0hPa | 3.9V | 00:00:00 | 00:00:00 | 00:00:00 | |
| DL1XH-west | 2026-08-31 08:05:23 | 50.14098 | 8.78248 | 56° | 24km/h | 19661m | -24.2m/s | -52.4°C | 0% | 0hPa | 3.9V | 00:00:00 | 00:00:00 | 00:00:00 | |
| DM0DOS-11 | 2026-08-31 08:05:22 | 50.14087 | 8.78210 | 82° | 16km/h | 19807m | -24.2m/s | 0°C | 0% | 0hPa | 0V | 00:00:00 | 00:00:00 | 00:00:00 | |
| DF8AY | 2026-08-31 08:05:21 | 50.14092 | 8.78231 | 67° | 24km/h | 19709m | -24.2m/s | -52.5°C | 0% | 0hPa | 3.9V | 00:00:00 | 00:00:00 | 00:00:00 | |
| DO3MHA-11 | 2026-08-31 08:05:20 | 50.14089 | 8.78224 | 69° | 11km/h | 19734m | -24.2m/s | 0°C | 0% | 0hPa | 3.9V | 00:00:00 | 00:00:00 | 00:00:00 | |
| DB0UT-7 | 2026-08-31 08:05:19 | 50.14089 | 8.78220 | 83° | 7km/h | 19808m | -24.1m/s | 0°C | 0% | 0hPa | 3.9V | 00:00:00 | 00:00:00 | 00:00:00 | |
| DO3DL | 2026-08-31 08:05:18 | 50.14086 | 8.78210 | 84° | 16km/h | 19783m | -24.3m/s | -52.4°C | 0% | 0hPa | 3.9V | 00:00:00 | 00:00:00 | 00:00:00 | |
| DF1GD-15 | 2026-08-31 08:05:17 | 50.14086 | 8.78210 | 84° | 16km/h | 19783m | -24.3m/s | -52.4°C | 0% | 0hPa | 3.9V | 00:00:00 | 00:00:00 | 00:00:00 | |
| DO8TBO-1 | 2026-08-31 08:05:15 | 50.14086 | 8.78200 | 92° | 7km/h | 19857m | -24.1m/s | 0°C | 0% | 0hPa | 3.9V | 00:00:00 | 00:00:00 | 00:00:00 | |
| BIOWL1-15 | 2026-08-31 08:05:14 | 50.14087 | 8.78196 | 116° | 11km/h | 19857m | -24.1m/s | -52.1°C | 0% | 0hPa | 3.9V | 00:00:00 | 00:00:00 | 00:00:00 | |
| HSKMA3-T | 2026-08-31 08:05:12 | 50.14090 | 8.78190 | 119° | 9km/h | 19905m | -24.1m/s | -52.2°C | 0% | 0hPa | 3.9V | 00:00:00 | 00:00:00 | 00:00:00 | |
| DM0DOS-11 | 2026-08-31 08:05:12 | 50.14098 | 8.78183 | 154° | 5km/h | 20051m | -24.4m/s | 0°C | 0% | 0hPa | 0V | 00:00:00 | 00:00:00 | 00:00:00 | |
| DL1XH-west | 2026-08-31 08:05:12 | 50.14091 | 8.78188 | 147° | 9km/h | 19929m | -23.9m/s | -52.3°C | 0% | 0hPa | 3.9V | 00:00:00 | 00:00:00 | 00:00:00 | |
| DO3MHA-11 | 2026-08-31 08:05:09 | 50.14095 | 8.78185 | 147° | 5km/h | 20002m | -24.5m/s | 0°C | 0% | 0hPa | 3.9V | 00:00:00 | 00:00:00 | 00:00:00 | |
| DF8AY | 2026-08-31 08:05:08 | 50.14098 | 8.78183 | 155° | 5km/h | 20027m | -24.7m/s | -52.9°C | 0% | 0hPa | 3.9V | 00:00:00 | 00:00:00 | 00:00:00 | |
| BIOWL1-15 | 2026-08-31 08:05:06 | 50.14101 | 8.78177 | 122° | 5km/h | 20123m | -21.4m/s | -53.2°C | 0% | 0hPa | 3.9V | 00:00:00 | 00:00:00 | 00:00:00 | |
| DO3DL | 2026-08-31 08:05:05 | 50.14100 | 8.78180 | 129° | 4km/h | 20076m | -25.5m/s | -53.1°C | 0% | 0hPa | 3.9V | 00:00:00 | 00:00:00 | 00:00:00 | |
| HEMX73-11 | 2026-08-31 08:05:04 | 50.14101 | 8.78179 | 109° | 5km/h | 20101m | -24.0m/s | -53.2°C | 0% | 0hPa | 3.9V | 00:00:00 | 00:00:00 | 00:00:00 | |
| DF2AP-13 | 2026-08-31 08:05:03 | 50.14101 | 8.78177 | 123° | 11km/h | 20144m | -19.7m/s | 0°C | 0% | 0hPa | 3.9V | 00:00:00 | 00:00:00 | 00:00:00 | |
| DL1XH-west | 2026-08-31 08:05:02 | 50.14101 | 8.78174 | 355° | 2km/h | 20164m | -21.6m/s | -53.3°C | 0% | 0hPa | 3.9V | 00:00:00 | 00:00:00 | 00:00:00 | |
| DO3MHA-11 | 2026-08-31 08:04:59 | 50.14099 | 8.78174 | 335° | 5km/h | 20241m | -25.0m/s | 0°C | 0% | 0hPa | 0V | 00:00:00 | 00:00:00 | 00:00:00 | |
| DL1XH-15 | 2026-08-31 08:04:58 | 50.14096 | 8.78178 | 356° | 5km/h | 20286m | -20.7m/s | 0°C | 0% | 0hPa | 0V | 00:00:00 | 00:00:00 | 00:00:00 | |
| DN1GJH-1 | 2026-08-31 08:04:58 | 50.14096 | 8.78177 | 357° | 5km/h | 20286m | -20.7m/s | -53.7°C | 0% | 0hPa | 3.9V | 00:00:00 | 00:00:00 | 00:00:00 | |
| DF1GD-15 | 2026-08-31 08:04:56 | 50.14096 | 8.78177 | 357° | 5km/h | 20286m | -20.7m/s | -53.7°C | 0% | 0hPa | 3.9V | 00:00:00 | 00:00:00 | 00:00:00 | |
| AA1-15 | 2026-08-31 08:04:55 | 50.14092 | 8.78177 | 357° | 7km/h | 20329m | -21.3m/s | -54.3°C | 0% | 0hPa | 3.9V | 00:00:00 | 00:00:00 | 00:00:00 | |
| DG1MJG | 2026-08-31 08:04:54 | 50.14092 | 8.78177 | 358° | 7km/h | 20329m | -21.3m/s | -53.7°C | 0% | 0hPa | 3.9V | 00:00:00 | 00:00:00 | 00:00:00 | |
| BIOWL1-15 | 2026-08-31 08:04:53 | 50.14089 | 8.78175 | 14° | 7km/h | 20374m | -23.4m/s | -53.6°C | 0% | 0hPa | 3.9V | 00:00:00 | 00:00:00 | 00:00:00 | |
| DO3DL | 2026-08-31 08:04:52 | 50.14089 | 8.78175 | 15° | 7km/h | 20374m | -23.4m/s | -53.6°C | 0% | 0hPa | 3.9V | 00:00:00 | 00:00:00 | 00:00:00 | |
| DL1XH-west | 2026-08-31 08:04:51 | 50.14085 | 8.78173 | 22° | 11km/h | 20425m | -25.2m/s | -53.7°C | 0% | 0hPa | 3.9V | 00:00:00 | 00:00:00 | 00:00:00 | |
| CB1BUN | 2026-08-31 08:04:50 | 50.14082 | 8.78171 | 17° | 11km/h | 20451m | -27.8m/s | -53.7°C | 0% | 0hPa | 0V | 00:00:00 | 00:00:00 | 00:00:00 | |
| DL1XH-15 | 2026-08-31 08:04:48 | 50.14076 | 8.78169 | 11° | 13km/h | 20532m | -25.9m/s | 0°C | 0% | 0hPa | 0V | 00:00:00 | 00:00:00 | 00:00:00 | |
| DB0NH | 2026-08-31 08:04:46 | 50.14073 | 8.78167 | 24° | 16km/h | 20558m | -25.2m/s | 0°C | 0% | 0hPa | 4V | 00:00:00 | 00:00:00 | 00:00:00 | |
| DO8TBO-1 | 2026-08-31 08:04:45 | 50.14069 | 8.78164 | 29° | 16km/h | 20582m | -23.0m/s | 0°C | 0% | 0hPa | 4V | 00:00:00 | 00:00:00 | 00:00:00 | |
| DF8AY | 2026-08-31 08:04:44 | 50.14062 | 8.78156 | 45° | 20km/h | 20607m | -27.4m/s | -54.5°C | 0% | 0hPa | 4V | 00:00:00 | 00:00:00 | 00:00:00 | |
| HEMX73-11 | 2026-08-31 08:04:43 | 50.14062 | 8.78156 | 46° | 20km/h | 20607m | -27.4m/s | -54.5°C | 0% | 0hPa | 4V | 00:00:00 | 00:00:00 | 00:00:00 | |
| BIOWL1-15 | 2026-08-31 08:04:42 | 50.14055 | 8.78145 | 58° | 20km/h | 20659m | -25.9m/s | -54.5°C | 0% | 0hPa | 4V | 00:00:00 | 00:00:00 | 00:00:00 | |
| DL1XH-west | 2026-08-31 08:04:40 | 50.14051 | 8.78131 | 69° | 15km/h | 20714m | -30.4m/s | -54.3°C | 0% | 0hPa | 3.9V | 00:00:00 | 00:00:00 | 00:00:00 | |
| DO3MHA-11 | 2026-08-31 08:04:39 | 50.14051 | 8.78131 | 70° | 15km/h | 20744m | -29.3m/s | 0°C | 0% | 0hPa | 0V | 00:00:00 | 00:00:00 | 00:00:00 | |
| DL1XH-15 | 2026-08-31 08:04:38 | 50.14049 | 8.78123 | 55° | 11km/h | 20799m | -26.7m/s | 0°C | 0% | 0hPa | 0V | 00:00:00 | 00:00:00 | 00:00:00 | |
| HSKMA3-T | 2026-08-31 08:04:38 | 50.14049 | 8.78123 | 56° | 11km/h | 20772m | -26.9m/s | -54.3°C | 0% | 0hPa | 3.9V | 00:00:00 | 00:00:00 | 00:00:00 | |
| DF1GD-15 | 2026-08-31 08:04:36 | 50.14047 | 8.78118 | 72° | 16km/h | 20799m | -26.7m/s | -54.2°C | 0% | 0hPa | 3.9V | 00:00:00 | 00:00:00 | 00:00:00 | |
| BEGRI65-1 | 2026-08-31 08:04:35 | 50.14042 | 8.78106 | 36° | 15km/h | 20825m | -25.1m/s | -54.2°C | 0% | 0hPa | 3.9V | 00:00:00 | 00:00:00 | 00:00:00 | |
| DF8AY | 2026-08-31 08:04:34 | 50.14039 | 8.78103 | 20° | 15km/h | 20866m | -13.7m/s | -54.2°C | 0% | 0hPa | 3.9V | 00:00:00 | 00:00:00 | 00:00:00 | |
| DF2AP-13 | 2026-08-31 08:04:33 | 50.14039 | 8.78103 | 20° | 15km/h | 20876m | -4.8m/s | 0°C | 0% | 0hPa | 3.9V | 00:00:00 | 00:00:00 | 00:00:00 | |
| DO3DL | 2026-08-31 08:04:32 | 50.14036 | 8.78102 | 8° | 13km/h | 20876m | -4.9m/s | -54.1°C | 0% | 0hPa | 3.9V | 00:00:00 | 00:00:00 | 00:00:00 | |
| AA1-15 | 2026-08-31 08:04:31 | 50.14031 | 8.78102 | 4° | 7km/h | 20872m | 3.5m/s | -54.2°C | 0% | 0hPa | 3.9V | 00:00:00 | 00:00:00 | 00:00:00 | |
| DK7TD | 2026-08-31 08:04:29 | 50.14028 | 8.78097 | 61° | 22km/h | 20862m | 5.7m/s | -54.2°C | 0% | 0hPa | 3.9V | 00:00:00 | 00:00:00 | 00:00:00 | |
| DL1XH-15 | 2026-08-31 08:04:28 | 50.14020 | 8.78084 | 32° | 16km/h | 20846m | 4.5m/s | 0°C | 0% | 0hPa | 0V | 00:00:00 | 00:00:00 | 00:00:00 | |
| CB1BUN | 2026-08-31 08:04:28 | 50.14024 | 8.78089 | 53° | 24km/h | 20857m | 5.1m/s | -54.3°C | 0% | 0hPa | 3.9V | 00:00:00 | 00:00:00 | 00:00:00 | |
| DL1XH-west | 2026-08-31 08:04:27 | 50.14020 | 8.78084 | 32° | 16km/h | 20851m | 5.9m/s | -54.3°C | 0% | 0hPa | 3.9V | 00:00:00 | 00:00:00 | 00:00:00 | |
| DO3DL | 2026-08-31 08:04:27 | 50.14021 | 8.78084 | 33° | 16km/h | 20851m | 5.9m/s | -54.3°C | 0% | 0hPa | 3.9V | 00:00:00 | 00:00:00 | 00:00:00 | |
| NBG1-10 | 2026-08-31 08:04:26 | 50.14020 | 8.78084 | 33° | 18km/h | 20846m | 4.5m/s | 0°C | 0% | 0hPa | 3.9V | 00:00:00 | 00:00:00 | 00:00:00 | |
| DM7RM-13 | 2026-08-31 08:04:25 | 50.14017 | 8.78082 | 47° | 13km/h | 20846m | 4.5m/s | 0°C | 0% | 0hPa | 3.9V | 00:00:00 | 00:00:00 | 00:00:00 | |
| DF8AY | 2026-08-31 08:04:23 | 50.14014 | 8.78067 | 93° | 11km/h | 20830m | 5.2m/s | -54.3°C | 0% | 0hPa | 3.9V | 00:00:00 | 00:00:00 | 00:00:00 | |
| DG1MJG | 2026-08-31 08:04:22 | 50.14014 | 8.78067 | 94° | 11km/h | 20831m | 5.2m/s | -54.3°C | 0% | 0hPa | 3.9V | 00:00:00 | 00:00:00 | 00:00:00 | |
| AA1-15 | 2026-08-31 08:04:21 | 50.14014 | 8.78065 | 61° | 5km/h | 20821m | 2m/s | -54.3°C | 0% | 0hPa | 3.9V | 00:00:00 | 00:00:00 | 00:00:00 | |
| DL1NUX | 2026-08-31 08:04:20 | 50.14009 | 8.78041 | 83° | 29km/h | 20750m | 4.7m/s | 0°C | 0% | 0hPa | 0V | 00:00:00 | 00:00:00 | 00:00:00 | |
| DO3MHA-11 | 2026-08-31 08:04:19 | 50.14012 | 8.78062 | 71° | 18km/h | 20810m | 5.9m/s | 0°C | 0% | 0hPa | 3.9V | 00:00:00 | 00:00:00 | 00:00:00 | |
| BIOWL1-15 | 2026-08-31 08:04:18 | 50.14009 | 8.78041 | 84° | 29km/h | 20805m | 4.1m/s | -54.3°C | 0% | 0hPa | 3.9V | 00:00:00 | 00:00:00 | 00:00:00 | |
| DL1XH-west | 2026-08-31 08:04:16 | 50.14007 | 8.78031 | 58° | 4km/h | 20795m | 4.3m/s | -54.2°C | 0% | 0hPa | 3.9V | 00:00:00 | 00:00:00 | 00:00:00 | |
| DO8TBO-1 | 2026-08-31 08:04:15 | 50.14007 | 8.78030 | 59° | 20km/h | 20791m | 5.1m/s | 0°C | 0% | 0hPa | 0V | 00:00:00 | 00:00:00 | 00:00:00 | |
| THATR2-17 | 2026-08-31 08:04:14 | 50.13985 | 8.77929 | 71° | 13km/h | 20721m | 0m/s | 0°C | 0% | 0hPa | 0V | 00:00:00 | 00:00:00 | 00:00:00 | |
| DO3DL | 2026-08-31 08:04:13 | 50.14005 | 8.78023 | 80° | 20km/h | 20786m | 5.1m/s | -54.2°C | 0% | 0hPa | 0V | 00:00:00 | 00:00:00 | 00:00:00 | |
| DM0DOS-11 | 2026-08-31 08:04:12 | 50.13995 | 8.77978 | 73° | 18km/h | 20750m | 4.7m/s | 0°C | 0% | 0hPa | 0V | 00:00:00 | 00:00:00 | 00:00:00 | |
| DF8AY | 2026-08-31 08:04:12 | 50.14005 | 8.78008 | 92° | 16km/h | 20775m | 4.8m/s | -54.2°C | 0% | 0hPa | 3.9V | 00:00:00 | 00:00:00 | 00:00:00 | |
| DJTTGO | 2026-08-31 08:04:11 | 50.14005 | 8.78008 | 92° | 16km/h | 20775m | 4.8m/s | -54.2°C | 0% | 0hPa | 3.9V | 00:00:00 | 00:00:00 | 00:00:00 | |
| AA1-15 | 2026-08-31 08:04:10 | 50.14003 | 8.77994 | 59° | 26km/h | 20765m | 6.3m/s | -54.3°C | 0% | 0hPa | 3.9V | 00:00:00 | 00:00:00 | 00:00:00 | |
| DO3MHA-11 | 2026-08-31 08:04:09 | 50.14003 | 8.77994 | 59° | 22km/h | 20761m | 3.2m/s | 0°C | 0% | 0hPa | 3.9V | 00:00:00 | 00:00:00 | 00:00:00 | |
| BIOWL1-15 | 2026-08-31 08:04:07 | 50.13995 | 8.77978 | 73° | 18km/h | 20756m | 6m/s | -54.3°C | 0% | 0hPa | 3.9V | 00:00:00 | 00:00:00 | 00:00:00 | |
| CB1BUN | 2026-08-31 08:04:07 | 50.13995 | 8.77973 | 112° | 11km/h | 20751m | 4.7m/s | -54.3°C | 0% | 0hPa | 3.9V | 00:00:00 | 00:00:00 | 00:00:00 | |
| DL1XH-west | 2026-08-31 08:04:06 | 50.13997 | 8.77968 | 101° | 20km/h | 20746m | 4.6m/s | -54.3°C | 0% | 0hPa | 3.9V | 00:00:00 | 00:00:00 | 00:00:00 | |
| DM7RM-13 | 2026-08-31 08:04:04 | 50.13997 | 8.77959 | 82° | 29km/h | 20741m | 5.7m/s | 0°C | 0% | 0hPa | 3.9V | 00:00:00 | 00:00:00 | 00:00:00 | |
| DF2AP-13 | 2026-08-31 08:04:03 | 50.13994 | 8.77942 | 48° | 22km/h | 20726m | 4.5m/s | 0°C | 0% | 0hPa | 3.9V | 00:00:00 | 00:00:00 | 00:00:00 | |
| EDDB2-12 | 2026-08-31 08:04:02 | 50.13987 | 8.77933 | 49° | 11km/h | 20726m | 4.5m/s | -55.2°C | -1.0% | -1.0hPa | 3.9V | 00:00:00 | 00:00:00 | 00:00:00 | |
| DF8AY | 2026-08-31 08:04:01 | 50.13985 | 8.77929 | 72° | 13km/h | 20721m | 4.6m/s | -54.3°C | 0% | 0hPa | 3.9V | 00:00:00 | 00:00:00 | 00:00:00 | |
| DO3DL | 2026-08-31 08:04:00 | 50.13985 | 8.77929 | 73° | 13km/h | 20722m | 4.6m/s | -54.3°C | 0% | 0hPa | 3.9V | 00:00:00 | 00:00:00 | 00:00:00 | |
| AA1-15 | 2026-08-31 08:03:59 | 50.13982 | 8.77911 | 77° | 31km/h | 20711m | 4.7m/s | -54.3°C | 0% | 0hPa | 3.9V | 00:00:00 | 00:00:00 | 00:00:00 | |
| DL1XH-15 | 2026-08-31 08:03:58 | 50.13977 | 8.77893 | 46° | 16km/h | 20696m | 5.7m/s | 0°C | 0% | 0hPa | 0V | 00:00:00 | 00:00:00 | 00:00:00 | |
| DO3MHA-11 | 2026-08-31 08:03:58 | 50.13982 | 8.77911 | 77° | 22km/h | 20706m | 5.2m/s | 0°C | 0% | 0hPa | 0V | 00:00:00 | 00:00:00 | 00:00:00 | |
| DL1NUX | 2026-08-31 08:03:57 | 50.13960 | 8.77866 | 58° | 13km/h | 20675m | 3.7m/s | 0°C | 0% | 0hPa | 0V | 00:00:00 | 00:00:00 | 00:00:00 | |
| BIOWL1-15 | 2026-08-31 08:03:56 | 50.13978 | 8.77893 | 47° | 16km/h | 20701m | 4.2m/s | -54.3°C | 0% | 0hPa | 3.9V | 00:00:00 | 00:00:00 | 00:00:00 | |
| DL1XH-west | 2026-08-31 08:03:54 | 50.13969 | 8.77881 | 42° | 33km/h | 20690m | 4.6m/s | -54.3°C | 0% | 0hPa | 3.9V | 00:00:00 | 00:00:00 | 00:00:00 | |
| DO2KSM | 2026-08-31 08:03:54 | 50.13963 | 8.77872 | 51° | 26km/h | 20686m | 3.4m/s | -54.4°C | 0% | 0hPa | 0V | 00:00:00 | 00:00:00 | 00:00:00 | |
| NBG1-10 | 2026-08-31 08:03:53 | 50.13963 | 8.77872 | 50° | 18km/h | 20681m | 7.1m/s | 0°C | 0% | 0hPa | 0V | 00:00:00 | 00:00:00 | 00:00:00 | |
| DM0DOS-11 | 2026-08-31 08:03:52 | 50.13942 | 8.77836 | 23° | 24km/h | 20651m | 4.6m/s | 0°C | 0% | 0hPa | 0V | 00:00:00 | 00:00:00 | 00:00:00 | |
| DF8AY | 2026-08-31 08:03:50 | 50.13955 | 8.77851 | 46° | 33km/h | 20665m | 5.2m/s | -54.4°C | 0% | 0hPa | 3.9V | 00:00:00 | 00:00:00 | 00:00:00 | |
| DB0UT-7 | 2026-08-31 08:03:49 | 50.13955 | 8.77851 | 47° | 20km/h | 20661m | 4.3m/s | 0°C | 0% | 0hPa | 3.9V | 00:00:00 | 00:00:00 | 00:00:00 | |
| AA1-15 | 2026-08-31 08:03:48 | 50.13943 | 8.77836 | 24° | 24km/h | 20656m | 5.7m/s | -54.5°C | 0% | 0hPa | 3.9V | 00:00:00 | 00:00:00 | 00:00:00 | |
| DJTTGO | 2026-08-31 08:03:47 | 50.13942 | 8.77836 | 25° | 24km/h | 20656m | 5.7m/s | -54.5°C | 0% | 0hPa | 3.9V | 00:00:00 | 00:00:00 | 00:00:00 | |
| BIOWL1-15 | 2026-08-31 08:03:46 | 50.13935 | 8.77831 | 48° | 15km/h | 20646m | 6m/s | -54.6°C | 0% | 0hPa | 3.9V | 00:00:00 | 00:00:00 | 00:00:00 | |
| DB0NH | 2026-08-31 08:03:45 | 50.13935 | 8.77830 | 49° | 18km/h | 20640m | 4.7m/s | 0°C | 0% | 0hPa | 3.9V | 00:00:00 | 00:00:00 | 00:00:00 | |
| DM7RM-13 | 2026-08-31 08:03:44 | 50.13932 | 8.77824 | 52° | 26km/h | 20640m | 4.7m/s | 0°C | 0% | 0hPa | 3.9V | 00:00:00 | 00:00:00 | 00:00:00 | |
| DL1XH-west | 2026-08-31 08:03:43 | 50.13927 | 8.77817 | 37° | 24km/h | 20636m | 4m/s | -54.5°C | 0% | 0hPa | 3.9V | 00:00:00 | 00:00:00 | 00:00:00 | |
| HEMX73-11 | 2026-08-31 08:03:42 | 50.13923 | 8.77813 | 16° | 16km/h | 20631m | 6.6m/s | -54.5°C | 0% | 0hPa | 0V | 00:00:00 | 00:00:00 | 00:00:00 | |
| DL1NUX | 2026-08-31 08:03:41 | 50.13907 | 8.77796 | 12° | 9km/h | 20549m | 5.5m/s | 0°C | 0% | 0hPa | 0V | 00:00:00 | 00:00:00 | 00:00:00 | |
| SO1NDE-10 | 2026-08-31 08:03:41 | 50.13919 | 8.77813 | 9° | 9km/h | 20610m | 5.4m/s | 0°C | 0% | 0hPa | 3.9V | 00:00:00 | 00:00:00 | 00:00:00 | |
| DF8AY | 2026-08-31 08:03:40 | 50.13911 | 8.77806 | 59° | 22km/h | 20615m | 4.8m/s | -54.4°C | 0% | 0hPa | 3.9V | 00:00:00 | 00:00:00 | 00:00:00 | |
| AA1-15 | 2026-08-31 08:03:38 | 50.13907 | 8.77796 | 12° | 9km/h | 20604m | 4.9m/s | -54.4°C | 0% | 0hPa | 3.9V | 00:00:00 | 00:00:00 | 00:00:00 | |
| DN1GJH-1 | 2026-08-31 08:03:35 | 50.13890 | 8.77787 | 33° | 31km/h | 20590m | 2.9m/s | -54.3°C | 0% | 0hPa | 3.9V | 00:00:00 | 00:00:00 | 00:00:00 | |
| BIOWL1-15 | 2026-08-31 08:03:35 | 50.13890 | 8.77787 | 32° | 31km/h | 20590m | 2.9m/s | -54.3°C | 0% | 0hPa | 3.9V | 00:00:00 | 00:00:00 | 00:00:00 | |
| DF1GD-15 | 2026-08-31 08:03:34 | 50.13890 | 8.77787 | 33° | 31km/h | 20590m | 2.9m/s | -54.3°C | 0% | 0hPa | 3.9V | 00:00:00 | 00:00:00 | 00:00:00 | |
| DL1XH-west | 2026-08-31 08:03:33 | 50.13883 | 8.77781 | 348° | 2km/h | 20579m | 5.8m/s | -54.3°C | 0% | 0hPa | 3.9V | 00:00:00 | 00:00:00 | 00:00:00 | |
| DF8AY | 2026-08-31 08:03:29 | 50.13868 | 8.77773 | 10° | 27km/h | 20559m | 5.2m/s | -54.1°C | 0% | 0hPa | 3.9V | 00:00:00 | 00:00:00 | 00:00:00 | |
| DL1XH-15 | 2026-08-31 08:03:28 | 50.13860 | 8.77773 | 33° | 7km/h | 20540m | 3.3m/s | 0°C | 0% | 0hPa | 0V | 00:00:00 | 00:00:00 | 00:00:00 | |
| DO3MHA-11 | 2026-08-31 08:03:28 | 50.13868 | 8.77773 | 11° | 16km/h | 20554m | 4.6m/s | 0°C | 0% | 0hPa | 3.9V | 00:00:00 | 00:00:00 | 00:00:00 | |
| AA1-15 | 2026-08-31 08:03:27 | 50.13860 | 8.77773 | 34° | 7km/h | 20549m | 5.5m/s | -54°C | 0% | 0hPa | 3.9V | 00:00:00 | 00:00:00 | 00:00:00 | |
| DJTTGO | 2026-08-31 08:03:26 | 50.13860 | 8.77773 | 35° | 7km/h | 20550m | 5.5m/s | -54.0°C | 0% | 0hPa | 3.9V | 00:00:00 | 00:00:00 | 00:00:00 | |
| DK7TD | 2026-08-31 08:03:25 | 50.13855 | 8.77766 | 17° | 18km/h | 20540m | 3.3m/s | -54°C | 0% | 0hPa | 3.9V | 00:00:00 | 00:00:00 | 00:00:00 | |
| DM7RM-13 | 2026-08-31 08:03:23 | 50.13850 | 8.77764 | 359° | 16km/h | 20535m | 6.7m/s | 0°C | 0% | 0hPa | 0V | 00:00:00 | 00:00:00 | 00:00:00 | |
| DM0DOS-11 | 2026-08-31 08:03:22 | 50.13831 | 8.77764 | 334° | 15km/h | 20500m | 5.8m/s | 0°C | 0% | 0hPa | 0V | 00:00:00 | 00:00:00 | 00:00:00 | |
| HSKMA3-T | 2026-08-31 08:03:22 | 50.13842 | 8.77769 | 9° | 18km/h | 20524m | 5.6m/s | -53.9°C | 0% | 0hPa | 3.9V | 00:00:00 | 00:00:00 | 00:00:00 | |
| DG1MJG | 2026-08-31 08:03:21 | 50.13842 | 8.77769 | 10° | 18km/h | 20525m | 5.6m/s | -53.9°C | 0% | 0hPa | 3.9V | 00:00:00 | 00:00:00 | 00:00:00 | |
| NBG1-10 | 2026-08-31 08:03:20 | 50.13837 | 8.77767 | 39° | 11km/h | 20520m | 4.4m/s | 0°C | 0% | 0hPa | 3.9V | 00:00:00 | 00:00:00 | 00:00:00 | |
| DB0UT-7 | 2026-08-31 08:03:19 | 50.13835 | 8.77763 | 35° | 11km/h | 20510m | 6.0m/s | 0°C | 0% | 0hPa | 3.9V | 00:00:00 | 00:00:00 | 00:00:00 | |
| DF8AY | 2026-08-31 08:03:18 | 50.13831 | 8.77764 | 335° | 15km/h | 20505m | 4.4m/s | -53.8°C | 0% | 0hPa | 3.9V | 00:00:00 | 00:00:00 | 00:00:00 | |
| DO3MHA-11 | 2026-08-31 08:03:18 | 50.13833 | 8.77761 | 335° | 15km/h | 20505m | 4.3m/s | 0°C | 0% | 0hPa | 3.9V | 00:00:00 | 00:00:00 | 00:00:00 | |
| AA1-15 | 2026-08-31 08:03:16 | 50.13824 | 8.77764 | 34° | 18km/h | 20494m | 5.4m/s | -53.8°C | 0% | 0hPa | 3.9V | 00:00:00 | 00:00:00 | 00:00:00 | |
| DB0NH | 2026-08-31 08:03:15 | 50.13824 | 8.77764 | 35° | 11km/h | 20489m | 4.2m/s | 0°C | 0% | 0hPa | 3.9V | 00:00:00 | 00:00:00 | 00:00:00 | |
| BIOWL1-15 | 2026-08-31 08:03:14 | 50.13817 | 8.77759 | 341° | 11km/h | 20484m | 6.3m/s | -53.7°C | 0% | 0hPa | 3.9V | 00:00:00 | 00:00:00 | 00:00:00 | |
| DM0DOS-11 | 2026-08-31 08:03:12 | 50.13805 | 8.77754 | 337° | 15km/h | 20448m | 5.4m/s | 0°C | 0% | 0hPa | 0V | 00:00:00 | 00:00:00 | 00:00:00 | |
| DL1XH-west | 2026-08-31 08:03:11 | 50.13813 | 8.77765 | 46° | 5km/h | 20474m | 4.1m/s | -53.6°C | 0% | 0hPa | 3.9V | 00:00:00 | 00:00:00 | 00:00:00 | |
| DL1NUX | 2026-08-31 08:03:11 | 50.13813 | 8.77765 | 45° | 5km/h | 20443m | 5.2m/s | 0°C | 0% | 0hPa | 0V | 00:00:00 | 00:00:00 | 00:00:00 | |
| SO1NDE-10 | 2026-08-31 08:03:11 | 50.13813 | 8.77764 | 46° | 9km/h | 20443m | 5.1m/s | 0°C | 0% | 0hPa | 0V | 00:00:00 | 00:00:00 | 00:00:00 | |
| DL1XH-15 | 2026-08-31 08:03:08 | 50.13797 | 8.77753 | 52° | 7km/h | 20432m | 5.5m/s | 0°C | 0% | 0hPa | 0V | 00:00:00 | 00:00:00 | 00:00:00 | |
| DO3MHA-11 | 2026-08-31 08:03:08 | 50.13808 | 8.77751 | 14° | 11km/h | 20454m | 5.0m/s | 0°C | 0% | 0hPa | 3.9V | 00:00:00 | 00:00:00 | 00:00:00 | |
| DF8AY | 2026-08-31 08:03:08 | 50.13801 | 8.77754 | 338° | 15km/h | 20448m | 5.4m/s | -53.5°C | 0% | 0hPa | 3.9V | 00:00:00 | 00:00:00 | 00:00:00 | |
| AA1-15 | 2026-08-31 08:03:05 | 50.13797 | 8.77753 | 52° | 7km/h | 20437m | 5.1m/s | -53.5°C | 0% | 0hPa | 3.9V | 00:00:00 | 00:00:00 | 00:00:00 | |
| DM7RM-13 | 2026-08-31 08:03:03 | 50.13795 | 8.77751 | 26° | 5km/h | 20428m | 3.8m/s | 0°C | 0% | 0hPa | 3.9V | 00:00:00 | 00:00:00 | 00:00:00 | |
| BIOWL1-15 | 2026-08-31 08:03:02 | 50.13795 | 8.77751 | 25° | 5km/h | 20427m | 3.8m/s | -53.5°C | 0% | 0hPa | 3.9V | 00:00:00 | 00:00:00 | 00:00:00 | |
| DM0DOS-11 | 2026-08-31 08:03:02 | 50.13785 | 8.77747 | 246° | 15km/h | 20397m | 5.4m/s | 0°C | 0% | 0hPa | 0V | 00:00:00 | 00:00:00 | 00:00:00 | |
| DF2AP-13 | 2026-08-31 08:03:02 | 50.13795 | 8.77751 | 25° | 9km/h | 20423m | 6.4m/s | 0°C | 0% | 0hPa | 0V | 00:00:00 | 00:00:00 | 00:00:00 | |
| DL1NUX | 2026-08-31 08:03:01 | 50.13789 | 8.77745 | 26° | 22km/h | 20413m | 4.3m/s | 0°C | 0% | 0hPa | 0V | 00:00:00 | 00:00:00 | 00:00:00 | |
| DL1XH-west | 2026-08-31 08:03:00 | 50.13789 | 8.77745 | 27° | 22km/h | 20417m | 3.5m/s | -53.4°C | 0% | 0hPa | 3.9V | 00:00:00 | 00:00:00 | 00:00:00 | |
| DJTTGO | 2026-08-31 08:02:59 | 50.13785 | 8.77742 | 348° | 13km/h | 20413m | 4.3m/s | -53.4°C | 0% | 0hPa | 0V | 00:00:00 | 00:00:00 | 00:00:00 | |
| DL1XH-15 | 2026-08-31 08:02:58 | 50.13784 | 8.77743 | 348° | 11km/h | 20381m | 4.8m/s | 0°C | 0% | 0hPa | 0V | 00:00:00 | 00:00:00 | 00:00:00 | |
| DO3MHA-11 | 2026-08-31 08:02:58 | 50.13784 | 8.77743 | 260° | 9km/h | 20402m | 4.3m/s | 0°C | 0% | 0hPa | 3.9V | 00:00:00 | 00:00:00 | 00:00:00 | |
| DF8AY | 2026-08-31 08:02:57 | 50.13786 | 8.77749 | 52° | 4km/h | 20397m | 5.4m/s | -53.3°C | 0% | 0hPa | 3.9V | 00:00:00 | 00:00:00 | 00:00:00 | |
| DO3DL | 2026-08-31 08:02:55 | 50.13786 | 8.77747 | 44° | 13km/h | 20392m | 4.5m/s | -53.2°C | 0% | 0hPa | 3.9V | 00:00:00 | 00:00:00 | 00:00:00 | |
| AA1-15 | 2026-08-31 08:02:54 | 50.13782 | 8.77744 | 348° | 9km/h | 20381m | 4.8m/s | -53.3°C | 0% | 0hPa | 3.9V | 00:00:00 | 00:00:00 | 00:00:00 | |
| DN1GJH-1 | 2026-08-31 08:02:53 | 50.13782 | 8.77743 | 349° | 9km/h | 20381m | 4.8m/s | -53.2°C | 0% | 0hPa | 0V | 00:00:00 | 00:00:00 | 00:00:00 | |
| DM0DOS-11 | 2026-08-31 08:02:52 | 50.13777 | 8.77749 | 21° | 9km/h | 20346m | 4m/s | 0°C | 0% | 0hPa | 0V | 00:00:00 | 00:00:00 | 00:00:00 | |
| DL1NUX | 2026-08-31 08:02:51 | 50.13779 | 8.77742 | 329° | 4km/h | 20361m | 6m/s | 0°C | 0% | 0hPa | 0V | 00:00:00 | 00:00:00 | 00:00:00 | |
| DL1XH-west | 2026-08-31 08:02:50 | 50.13780 | 8.77743 | 299° | 9km/h | 20361m | 6m/s | -53.3°C | 0% | 0hPa | 3.9V | 00:00:00 | 00:00:00 | 00:00:00 | |
| DB0UT-7 | 2026-08-31 08:02:49 | 50.13780 | 8.77743 | 299° | 11km/h | 20356m | 3.9m/s | 0°C | 0% | 0hPa | 3.9V | 00:00:00 | 00:00:00 | 00:00:00 | |
| DO3MHA-11 | 2026-08-31 08:02:48 | 50.13779 | 8.77750 | 22° | 9km/h | 20351m | 6.2m/s | 0°C | 0% | 0hPa | 3.9V | 00:00:00 | 00:00:00 | 00:00:00 | |
| NBG1-10 | 2026-08-31 08:02:47 | 50.13777 | 8.77749 | 22° | 9km/h | 20346m | 3.9m/s | 0°C | 0% | 0hPa | 3.9V | 00:00:00 | 00:00:00 | 00:00:00 | |
| DF8AY | 2026-08-31 08:02:46 | 50.13774 | 8.77745 | 210° | 4km/h | 20341m | 5.7m/s | -53.4°C | 0% | 0hPa | 3.9V | 00:00:00 | 00:00:00 | 00:00:00 | |
| CB1BUN | 2026-08-31 08:02:45 | 50.13775 | 8.77745 | 226° | 13km/h | 20336m | 5.3m/s | -53.4°C | 0% | 0hPa | 4V | 00:00:00 | 00:00:00 | 00:00:00 | |
| AA1-15 | 2026-08-31 08:02:44 | 50.13777 | 8.77749 | 235° | 11km/h | 20330m | 5m/s | -53.4°C | 0% | 0hPa | 4V | 00:00:00 | 00:00:00 | 00:00:00 | |
| DM7RM-13 | 2026-08-31 08:02:42 | 50.13777 | 8.77750 | 14° | 4km/h | 20325m | 4.9m/s | 0°C | 0% | 0hPa | 4V | 00:00:00 | 00:00:00 | 00:00:00 | |
| DK7TD | 2026-08-31 08:02:41 | 50.13776 | 8.77749 | 13° | 11km/h | 20319m | 5.2m/s | -53.5°C | 0% | 0hPa | 4V | 00:00:00 | 00:00:00 | 00:00:00 | |
| DL1NUX | 2026-08-31 08:02:41 | 50.13771 | 8.77749 | 23° | 5km/h | 20310m | 3.8m/s | 0°C | 0% | 0hPa | 0V | 00:00:00 | 00:00:00 | 00:00:00 | |
| HEMX73-11 | 2026-08-31 08:02:40 | 50.13773 | 8.77748 | 358° | 9km/h | 20315m | 5.6m/s | -53.5°C | 0% | 0hPa | 4V | 00:00:00 | 00:00:00 | 00:00:00 | |
| DL1XH-west | 2026-08-31 08:02:38 | 50.13771 | 8.77749 | 57° | 5km/h | 20305m | 5.6m/s | -53.5°C | 0% | 0hPa | 4V | 00:00:00 | 00:00:00 | 00:00:00 | |
| DL1XH-15 | 2026-08-31 08:02:38 | 50.13769 | 8.77745 | 272° | 22km/h | 20280m | 4.9m/s | 0°C | 0% | 0hPa | 0V | 00:00:00 | 00:00:00 | 00:00:00 | |
| DO3MHA-11 | 2026-08-31 08:02:38 | 50.13771 | 8.77749 | 57° | 13km/h | 20300m | 5.5m/s | 0°C | 0% | 0hPa | 4V | 00:00:00 | 00:00:00 | 00:00:00 | |
| DO3DL | 2026-08-31 08:02:36 | 50.13768 | 8.77741 | 50° | 9km/h | 20296m | 2.5m/s | -53.4°C | 0% | 0hPa | 4V | 00:00:00 | 00:00:00 | 00:00:00 | |
| DF8AY | 2026-08-31 08:02:35 | 50.13769 | 8.77745 | 273° | 22km/h | 20285m | 4.7m/s | -53.5°C | 0% | 0hPa | 4V | 00:00:00 | 00:00:00 | 00:00:00 | |
| AA1-15 | 2026-08-31 08:02:33 | 50.13768 | 8.77753 | 310° | 18km/h | 20280m | 4.9m/s | -53.4°C | 0% | 0hPa | 3.9V | 00:00:00 | 00:00:00 | 00:00:00 | |
| DF1GD-15 | 2026-08-31 08:02:33 | 50.13768 | 8.77753 | 311° | 18km/h | 20280m | 4.9m/s | -53.4°C | 0% | 0hPa | 0V | 00:00:00 | 00:00:00 | 00:00:00 | |
| DF2AP-13 | 2026-08-31 08:02:32 | 50.13766 | 8.77756 | 29° | 9km/h | 20261m | 5.4m/s | 0°C | 0% | 0hPa | 0V | 00:00:00 | 00:00:00 | 00:00:00 | |
| DO2KSM | 2026-08-31 08:02:31 | 50.13763 | 8.77753 | 54° | 16km/h | 20270m | 4.2m/s | -53.4°C | 0% | 0hPa | 0V | 00:00:00 | 00:00:00 | 00:00:00 | |
| DL1NUX | 2026-08-31 08:02:30 | 50.13763 | 8.77750 | 279° | 11km/h | 20255m | 5.5m/s | 0°C | 0% | 0hPa | 0V | 00:00:00 | 00:00:00 | 00:00:00 | |
| DO3DL | 2026-08-31 08:02:29 | 50.13763 | 8.77750 | 281° | 11km/h | 20261m | 5.4m/s | -53.4°C | 0% | 0hPa | 4V | 00:00:00 | 00:00:00 | 00:00:00 | |
| DL1XH-west | 2026-08-31 08:02:28 | 50.13763 | 8.77755 | 313° | 16km/h | 20255m | 5.5m/s | -53.4°C | 0% | 0hPa | 4V | 00:00:00 | 00:00:00 | 00:00:00 | |
| DL1XH-15 | 2026-08-31 08:02:28 | 50.13758 | 8.77758 | 1° | 9km/h | 20230m | 5.2m/s | 0°C | 0% | 0hPa | 0V | 00:00:00 | 00:00:00 | 00:00:00 | |
| DO3MHA-11 | 2026-08-31 08:02:28 | 50.13763 | 8.77755 | 313° | 11km/h | 20250m | 5.2m/s | 0°C | 0% | 0hPa | 3.9V | 00:00:00 | 00:00:00 | 00:00:00 | |
| DF8AY | 2026-08-31 08:02:24 | 50.13759 | 8.77757 | 2° | 2km/h | 20230m | 5.2m/s | -53.3°C | 0% | 0hPa | 3.9V | 00:00:00 | 00:00:00 | 00:00:00 | |
| CB1BUN | 2026-08-31 08:02:23 | 50.13759 | 8.77757 | 0° | 0km/h | 20230m | 5.2m/s | -53.3°C | 0% | 0hPa | 0V | 00:00:00 | 00:00:00 | 00:00:00 | |
| DM0DOS-11 | 2026-08-31 08:02:22 | 50.13753 | 8.77757 | 62° | 13km/h | 20192m | 4.3m/s | 0°C | 0% | 0hPa | 0V | 00:00:00 | 00:00:00 | 00:00:00 | |
| AA1-15 | 2026-08-31 08:02:20 | 50.13751 | 8.77759 | 188° | 11km/h | 20208m | 4.3m/s | -53.3°C | 0% | 0hPa | 3.9V | 00:00:00 | 00:00:00 | 00:00:00 | |
| DB0UT-7 | 2026-08-31 08:02:19 | 50.13751 | 8.77759 | 188° | 11km/h | 20204m | 5.3m/s | 0°C | 0% | 0hPa | 0V | 00:00:00 | 00:00:00 | 00:00:00 | |
| DL1XH-15 | 2026-08-31 08:02:18 | 50.13750 | 8.77751 | 206° | 7km/h | 20178m | 5m/s | 0°C | 0% | 0hPa | 0V | 00:00:00 | 00:00:00 | 00:00:00 | |
| DL1XH-west | 2026-08-31 08:02:18 | 50.13753 | 8.77757 | 63° | 13km/h | 20198m | 6.4m/s | -53.2°C | 0% | 0hPa | 3.9V | 00:00:00 | 00:00:00 | 00:00:00 | |
| DO3DL | 2026-08-31 08:02:17 | 50.13753 | 8.77757 | 63° | 13km/h | 20198m | 6.4m/s | -53.2°C | 0% | 0hPa | 3.9V | 00:00:00 | 00:00:00 | 00:00:00 | |
| BEGRI65-1 | 2026-08-31 08:02:16 | 50.13751 | 8.77753 | 52° | 15km/h | 20192m | 4.3m/s | -53.1°C | 0% | 0hPa | 3.9V | 00:00:00 | 00:00:00 | 00:00:00 | |
| DO8TBO-1 | 2026-08-31 08:02:15 | 50.13750 | 8.77750 | 180° | 11km/h | 20182m | 4.4m/s | 0°C | 0% | 0hPa | 3.9V | 00:00:00 | 00:00:00 | 00:00:00 | |
| DF8AY | 2026-08-31 08:02:14 | 50.13751 | 8.77753 | 110° | 4km/h | 20178m | 5m/s | -53.1°C | 0% | 0hPa | 3.9V | 00:00:00 | 00:00:00 | 00:00:00 | |
| DF1GD-15 | 2026-08-31 08:02:12 | 50.13751 | 8.77751 | 73° | 11km/h | 20173m | 6.6m/s | -53.1°C | 0% | 0hPa | 0V | 00:00:00 | 00:00:00 | 00:00:00 | |
| DM0DOS-11 | 2026-08-31 08:02:11 | 50.13750 | 8.77742 | 84° | 18km/h | 20135m | 5.6m/s | 0°C | 0% | 0hPa | 0V | 00:00:00 | 00:00:00 | 00:00:00 | |
| DO3DL | 2026-08-31 08:02:10 | 50.13749 | 8.77741 | 174° | 9km/h | 20163m | 5.7m/s | -53.1°C | 0% | 0hPa | 3.9V | 00:00:00 | 00:00:00 | 00:00:00 | |
| BIOWL1-15 | 2026-08-31 08:02:09 | 50.13751 | 8.77744 | 232° | 11km/h | 20152m | 3.8m/s | -53°C | 0% | 0hPa | 3.9V | 00:00:00 | 00:00:00 | 00:00:00 | |
| DL1XH-15 | 2026-08-31 08:02:08 | 50.13751 | 8.77731 | 160° | 13km/h | 20124m | 4.5m/s | 0°C | 0% | 0hPa | 0V | 00:00:00 | 00:00:00 | 00:00:00 | |
| DO3MHA-11 | 2026-08-31 08:02:08 | 50.13751 | 8.77744 | 233° | 11km/h | 20147m | 6.4m/s | 0°C | 0% | 0hPa | 4V | 00:00:00 | 00:00:00 | 00:00:00 | |
| HSKMA3-T | 2026-08-31 08:02:07 | 50.13750 | 8.77742 | 85° | 18km/h | 20140m | 5.2m/s | -52.9°C | 0% | 0hPa | 4V | 00:00:00 | 00:00:00 | 00:00:00 | |
| DO3DL | 2026-08-31 08:02:04 | 50.13751 | 8.77731 | 162° | 13km/h | 20130m | 5.4m/s | -52.8°C | 0% | 0hPa | 4V | 00:00:00 | 00:00:00 | 00:00:00 | |
| DF8AY | 2026-08-31 08:02:03 | 50.13754 | 8.77731 | 35° | 4km/h | 20119m | 6.1m/s | -52.8°C | 0% | 0hPa | 4V | 00:00:00 | 00:00:00 | 00:00:00 | |
| DL1NUX | 2026-08-31 08:02:02 | 50.13760 | 8.77719 | 101° | 16km/h | 20088m | 3.4m/s | 0°C | 0% | 0hPa | 0V | 00:00:00 | 00:00:00 | 00:00:00 | |
| DF2AP-13 | 2026-08-31 08:02:00 | 50.13752 | 8.77729 | 148° | 13km/h | 20104m | 4.3m/s | 0°C | 0% | 0hPa | 4V | 00:00:00 | 00:00:00 | 00:00:00 | |
| HEMX73-11 | 2026-08-31 08:01:59 | 50.13755 | 8.77728 | 150° | 15km/h | 20104m | 4.3m/s | -52.7°C | 0% | 0hPa | 4V | 00:00:00 | 00:00:00 | 00:00:00 | |
| BIOWL1-15 | 2026-08-31 08:01:58 | 50.13760 | 8.77719 | 102° | 16km/h | 20093m | 5.4m/s | -52.6°C | 0% | 0hPa | 4V | 00:00:00 | 00:00:00 | 00:00:00 | |
| DO3DL | 2026-08-31 08:01:57 | 50.13760 | 8.77719 | 103° | 16km/h | 20093m | 5.4m/s | -52.6°C | 0% | 0hPa | 4V | 00:00:00 | 00:00:00 | 00:00:00 | |
| DL1XH-west | 2026-08-31 08:01:55 | 50.13761 | 8.77712 | 194° | 5km/h | 20083m | 7.3m/s | -52.6°C | 0% | 0hPa | 4V | 00:00:00 | 00:00:00 | 00:00:00 | |
| BEGRI65-1 | 2026-08-31 08:01:53 | 50.13766 | 8.77715 | 165° | 11km/h | 20072m | 6.4m/s | -52.6°C | 0% | 0hPa | 0V | 00:00:00 | 00:00:00 | 00:00:00 | |
| DL1NUX | 2026-08-31 08:01:52 | 50.13779 | 8.77703 | 122° | 13km/h | 20035m | 6.5m/s | 0°C | 0% | 0hPa | 0V | 00:00:00 | 00:00:00 | 00:00:00 | |
| DF8AY | 2026-08-31 08:01:52 | 50.13771 | 8.77709 | 154° | 13km/h | 20060m | 5.7m/s | -52.5°C | 0% | 0hPa | 4V | 00:00:00 | 00:00:00 | 00:00:00 | |
| DO3DL | 2026-08-31 08:01:51 | 50.13771 | 8.77709 | 155° | 13km/h | 20061m | 5.7m/s | -52.5°C | 0% | 0hPa | 3.9V | 00:00:00 | 00:00:00 | 00:00:00 | |
| DO2KSM | 2026-08-31 08:01:50 | 50.13774 | 8.77708 | 179° | 13km/h | 20056m | 5.4m/s | -52.5°C | 0% | 0hPa | 3.9V | 00:00:00 | 00:00:00 | 00:00:00 | |
| DB0UT-7 | 2026-08-31 08:01:49 | 50.13777 | 8.77708 | 158° | 13km/h | 20046m | 6.1m/s | 0°C | 0% | 0hPa | 3.9V | 00:00:00 | 00:00:00 | 00:00:00 | |
| DO3MHA-11 | 2026-08-31 08:01:48 | 50.13778 | 8.77706 | 123° | 13km/h | 20041m | 4.2m/s | 0°C | 0% | 0hPa | 3.9V | 00:00:00 | 00:00:00 | 00:00:00 | |
| DK7TD | 2026-08-31 08:01:48 | 50.13779 | 8.77703 | 123° | 13km/h | 20041m | 4.2m/s | -52.4°C | 0% | 0hPa | 3.9V | 00:00:00 | 00:00:00 | 00:00:00 | |
| DL1XH-west | 2026-08-31 08:01:46 | 50.13784 | 8.77700 | 208° | 18km/h | 20030m | 5.3m/s | -52.3°C | 0% | 0hPa | 3.9V | 00:00:00 | 00:00:00 | 00:00:00 | |
| DO8TBO-1 | 2026-08-31 08:01:45 | 50.13784 | 8.77700 | 209° | 13km/h | 20025m | 3.9m/s | 0°C | 0% | 0hPa | 0V | 00:00:00 | 00:00:00 | 00:00:00 | |
| DB0NH | 2026-08-31 08:01:44 | 50.13787 | 8.77704 | 183° | 13km/h | 20020m | 6.9m/s | 0°C | 0% | 0hPa | 0V | 00:00:00 | 00:00:00 | 00:00:00 | |
| DL1NUX | 2026-08-31 08:01:42 | 50.13803 | 8.77686 | 176° | 16km/h | 19983m | 4.6m/s | 0°C | 0% | 0hPa | 0V | 00:00:00 | 00:00:00 | 00:00:00 | |
| DM0DOS-11 | 2026-08-31 08:01:41 | 50.13805 | 8.77691 | 132° | 16km/h | 19978m | 6.1m/s | 0°C | 0% | 0hPa | 0V | 00:00:00 | 00:00:00 | 00:00:00 | |
| DF8AY | 2026-08-31 08:01:41 | 50.13795 | 8.77692 | 214° | 13km/h | 20003m | 5.9m/s | -52.1°C | 0% | 0hPa | 4V | 00:00:00 | 00:00:00 | 00:00:00 | |
| DM7RM-13 | 2026-08-31 08:01:40 | 50.13795 | 8.77692 | 214° | 13km/h | 20003m | 5.9m/s | 0°C | 0% | 0hPa | 0V | 00:00:00 | 00:00:00 | 00:00:00 | |
| HEMX73-11 | 2026-08-31 08:01:39 | 50.13798 | 8.77696 | 216° | 16km/h | 19999m | 3.6m/s | -52.1°C | 0% | 0hPa | 0V | 00:00:00 | 00:00:00 | 00:00:00 | |
| DL1XH-15 | 2026-08-31 08:01:38 | 50.13810 | 8.77688 | 187° | 11km/h | 19967m | 5.9m/s | 0°C | 0% | 0hPa | 0V | 00:00:00 | 00:00:00 | 00:00:00 | |
| DO3MHA-11 | 2026-08-31 08:01:38 | 50.13801 | 8.77698 | 163° | 11km/h | 19988m | 5.7m/s | 0°C | 0% | 0hPa | 4V | 00:00:00 | 00:00:00 | 00:00:00 | |
| DK7TD | 2026-08-31 08:01:37 | 50.13805 | 8.77690 | 133° | 16km/h | 19983m | 4.6m/s | -52°C | 0% | 0hPa | 4V | 00:00:00 | 00:00:00 | 00:00:00 | |
| AA1-15 | 2026-08-31 08:01:34 | 50.13810 | 8.77688 | 187° | 11km/h | 19973m | 4.1m/s | -52°C | 0% | 0hPa | 4V | 00:00:00 | 00:00:00 | 00:00:00 | |
| DF1GD-15 | 2026-08-31 08:01:31 | 50.13813 | 8.77680 | 86° | 13km/h | 19957m | 4.8m/s | -52.1°C | 0% | 0hPa | 4V | 00:00:00 | 00:00:00 | 00:00:00 | |
| DF8AY | 2026-08-31 08:01:30 | 50.13813 | 8.77677 | 118° | 2km/h | 19946m | 5.1m/s | -51.9°C | 0% | 0hPa | 4V | 00:00:00 | 00:00:00 | 00:00:00 | |
| DF2AP-13 | 2026-08-31 08:01:30 | 50.13813 | 8.77679 | 119° | 13km/h | 19946m | 5.1m/s | 0°C | 0% | 0hPa | 0V | 00:00:00 | 00:00:00 | 00:00:00 | |
| DO2KSM | 2026-08-31 08:01:29 | 50.13813 | 8.77677 | 119° | 2km/h | 19946m | 5.1m/s | -51.9°C | 0% | 0hPa | 0V | 00:00:00 | 00:00:00 | 00:00:00 | |
| DO3MHA-11 | 2026-08-31 08:01:28 | 50.13814 | 8.77675 | 120° | 13km/h | 19936m | 4.1m/s | 0°C | 0% | 0hPa | 0V | 00:00:00 | 00:00:00 | 00:00:00 | |
| DL1NUX | 2026-08-31 08:01:26 | 50.13817 | 8.77666 | 144° | 11km/h | 19925m | 4.7m/s | 0°C | 0% | 0hPa | 0V | 00:00:00 | 00:00:00 | 00:00:00 | |
| BIOWL1-15 | 2026-08-31 08:01:26 | 50.13818 | 8.77665 | 144° | 4km/h | 19925m | 4.7m/s | -51.9°C | 0% | 0hPa | 4V | 00:00:00 | 00:00:00 | 00:00:00 | |
| DO3DL | 2026-08-31 08:01:25 | 50.13819 | 8.77665 | 145° | 4km/h | 19926m | 4.7m/s | -51.9°C | 0% | 0hPa | 4V | 00:00:00 | 00:00:00 | 00:00:00 | |
| HSKMA3-T | 2026-08-31 08:01:24 | 50.13818 | 8.77660 | 86° | 18km/h | 19916m | 6.1m/s | -51.9°C | 0% | 0hPa | 4V | 00:00:00 | 00:00:00 | 00:00:00 | |
| CB1BUN | 2026-08-31 08:01:22 | 50.13819 | 8.77652 | 112° | 24km/h | 19911m | 4.2m/s | -51.9°C | 0% | 0hPa | 4V | 00:00:00 | 00:00:00 | 00:00:00 | |
| AA1-15 | 2026-08-31 08:01:21 | 50.13822 | 8.77645 | 145° | 16km/h | 19906m | 6.1m/s | -52°C | 0% | 0hPa | 4V | 00:00:00 | 00:00:00 | 00:00:00 | |
| DL1NUX | 2026-08-31 08:01:21 | 50.13824 | 8.77626 | 88° | 11km/h | 19874m | 4.7m/s | 0°C | 0% | 0hPa | 0V | 00:00:00 | 00:00:00 | 00:00:00 | |
| DF8AY | 2026-08-31 08:01:20 | 50.13826 | 8.77643 | 86° | 5km/h | 19895m | 5.6m/s | -51.9°C | 0% | 0hPa | 4V | 00:00:00 | 00:00:00 | 00:00:00 | |
| DM7RM-13 | 2026-08-31 08:01:20 | 50.13826 | 8.77642 | 87° | 5km/h | 19896m | 5.6m/s | 0°C | 0% | 0hPa | 0V | 00:00:00 | 00:00:00 | 00:00:00 | |
| DG1MJG | 2026-08-31 08:01:19 | 50.13826 | 8.77638 | 81° | 16km/h | 19890m | 5.1m/s | -51.9°C | 0% | 0hPa | 0V | 00:00:00 | 00:00:00 | 00:00:00 | |
| DL1XH-15 | 2026-08-31 08:01:18 | 50.13825 | 8.77622 | 93° | 7km/h | 19864m | 6.3m/s | 0°C | 0% | 0hPa | 0V | 00:00:00 | 00:00:00 | 00:00:00 | |
| DO3MHA-11 | 2026-08-31 08:01:18 | 50.13826 | 8.77638 | 81° | 13km/h | 19885m | 4.3m/s | 0°C | 0% | 0hPa | 4V | 00:00:00 | 00:00:00 | 00:00:00 | |
| DK7TD | 2026-08-31 08:01:15 | 50.13825 | 8.77622 | 94° | 7km/h | 19870m | 4.9m/s | -51.9°C | 0% | 0hPa | 4V | 00:00:00 | 00:00:00 | 00:00:00 | |
| DO8TBO-1 | 2026-08-31 08:01:15 | 50.13825 | 8.77628 | 94° | 18km/h | 19870m | 4.9m/s | 0°C | 0% | 0hPa | 4V | 00:00:00 | 00:00:00 | 00:00:00 | |
| DB0NH | 2026-08-31 08:01:14 | 50.13825 | 8.77622 | 94° | 22km/h | 19859m | 4.0m/s | 0°C | 0% | 0hPa | 4V | 00:00:00 | 00:00:00 | 00:00:00 | |
| DL1XH-west | 2026-08-31 08:01:12 | 50.13825 | 8.77607 | 81° | 26km/h | 19858m | 4m/s | -52°C | 0% | 0hPa | 4V | 00:00:00 | 00:00:00 | 00:00:00 | |
| DO3DL | 2026-08-31 08:01:12 | 50.13825 | 8.77607 | 82° | 26km/h | 19859m | 4.0m/s | -52.0°C | 0% | 0hPa | 0V | 00:00:00 | 00:00:00 | 00:00:00 | |
| DM0DOS-11 | 2026-08-31 08:01:11 | 50.13827 | 8.77577 | 100° | 20km/h | 19823m | 4.4m/s | 0°C | 0% | 0hPa | 0V | 00:00:00 | 00:00:00 | 00:00:00 | |
| AA1-15 | 2026-08-31 08:01:11 | 50.13823 | 8.77597 | 62° | 2km/h | 19848m | 5m/s | -52°C | 0% | 0hPa | 4V | 00:00:00 | 00:00:00 | 00:00:00 | |
| DF8AY | 2026-08-31 08:01:10 | 50.13824 | 8.77597 | 104° | 4km/h | 19843m | 4.3m/s | -52.1°C | 0% | 0hPa | 4V | 00:00:00 | 00:00:00 | 00:00:00 | |
| DO2KSM | 2026-08-31 08:01:09 | 50.13824 | 8.77597 | 105° | 4km/h | 19843m | 4.3m/s | -52.1°C | 0% | 0hPa | 0V | 00:00:00 | 00:00:00 | 00:00:00 | |
| DL1XH-15 | 2026-08-31 08:01:08 | 50.13828 | 8.77564 | 83° | 18km/h | 19813m | 5.3m/s | 0°C | 0% | 0hPa | 0V | 00:00:00 | 00:00:00 | 00:00:00 | |
| THATR2-17 | 2026-08-31 08:01:08 | 50.13772 | 8.77376 | 28° | 20km/h | 19702m | 0m/s | 0°C | 0% | 0hPa | 4V | 00:00:00 | 00:00:00 | 00:00:00 | |
| SO1NDE-10 | 2026-08-31 08:01:06 | 50.13827 | 8.77577 | 101° | 26km/h | 19823m | 4.4m/s | 0°C | 0% | 0hPa | 4V | 00:00:00 | 00:00:00 | 00:00:00 | |
| DO3DL | 2026-08-31 08:01:05 | 50.13827 | 8.77570 | 94° | 15km/h | 19823m | 4.4m/s | -52.1°C | 0% | 0hPa | 4V | 00:00:00 | 00:00:00 | 00:00:00 | |
| DK7TD | 2026-08-31 08:01:04 | 50.13828 | 8.77564 | 83° | 18km/h | 19818m | 5.5m/s | -52.2°C | 0% | 0hPa | 4V | 00:00:00 | 00:00:00 | 00:00:00 | |
| DJTTGO | 2026-08-31 08:01:03 | 50.13827 | 8.77555 | 80° | 24km/h | 19813m | 5.3m/s | -52.3°C | 0% | 0hPa | 4V | 00:00:00 | 00:00:00 | 00:00:00 | |
| DL1XH-west | 2026-08-31 08:01:02 | 50.13824 | 8.77543 | 58° | 11km/h | 19802m | 4.9m/s | -52.3°C | 0% | 0hPa | 4V | 00:00:00 | 00:00:00 | 00:00:00 | |
| DM0DOS-11 | 2026-08-31 08:01:01 | 50.13814 | 8.77501 | 62° | 15km/h | 19771m | 5.6m/s | 0°C | 0% | 0hPa | 0V | 00:00:00 | 00:00:00 | 00:00:00 | |
| AA1-15 | 2026-08-31 08:01:00 | 50.13820 | 8.77529 | 75° | 31km/h | 19791m | 6.7m/s | -52.4°C | 0% | 0hPa | 4V | 00:00:00 | 00:00:00 | 00:00:00 | |
| DF2AP-13 | 2026-08-31 08:01:00 | 50.13822 | 8.77541 | 76° | 27km/h | 19791m | 6.7m/s | 0°C | 0% | 0hPa | 4V | 00:00:00 | 00:00:00 | 00:00:00 | |
| DF8AY | 2026-08-31 08:00:59 | 50.13810 | 8.77483 | 66° | 31km/h | 19765m | 5.8m/s | -52.3°C | 0% | 0hPa | 4V | 00:00:00 | 00:00:00 | 00:00:00 | |
| DL1XH-15 | 2026-08-31 08:00:58 | 50.13810 | 8.77482 | 67° | 31km/h | 19760m | 4.1m/s | 0°C | 0% | 0hPa | 0V | 00:00:00 | 00:00:00 | 00:00:00 | |
| DK7TD | 2026-08-31 08:00:54 | 50.13806 | 8.77471 | 68° | 35km/h | 19760m | 4.1m/s | -52.3°C | 0% | 0hPa | 4V | 00:00:00 | 00:00:00 | 00:00:00 | |
| HSKMA3-T | 2026-08-31 08:00:52 | 50.13801 | 8.77453 | 54° | 16km/h | 19749m | 4.9m/s | -52.3°C | 0% | 0hPa | 4V | 00:00:00 | 00:00:00 | 00:00:00 | |
| DM0DOS-11 | 2026-08-31 08:00:51 | 50.13785 | 8.77416 | 61° | 22km/h | 19717m | 6.2m/s | 0°C | 0% | 0hPa | 0V | 00:00:00 | 00:00:00 | 00:00:00 | |
| DN1GJH-1 | 2026-08-31 08:00:50 | 50.13798 | 8.77447 | 58° | 20km/h | 19744m | 5.9m/s | -52.3°C | 0% | 0hPa | 4V | 00:00:00 | 00:00:00 | 00:00:00 | |
| AA1-15 | 2026-08-31 08:00:49 | 50.13795 | 8.77439 | 63° | 29km/h | 19738m | 4.7m/s | -52.3°C | 0% | 0hPa | 4V | 00:00:00 | 00:00:00 | 00:00:00 | |
| DB0UT-7 | 2026-08-31 08:00:49 | 50.13795 | 8.77439 | 63° | 27km/h | 19733m | 5.3m/s | 0°C | 0% | 0hPa | 0V | 00:00:00 | 00:00:00 | 00:00:00 | |
| DL1XH-15 | 2026-08-31 08:00:48 | 50.13779 | 8.77394 | 70° | 35km/h | 19708m | 5.9m/s | 0°C | 0% | 0hPa | 0V | 00:00:00 | 00:00:00 | 00:00:00 | |
| DF8AY | 2026-08-31 08:00:47 | 50.13785 | 8.77416 | 61° | 22km/h | 19722m | 4.7m/s | -52.2°C | 0% | 0hPa | 4V | 00:00:00 | 00:00:00 | 00:00:00 | |
| DO3MHA-11 | 2026-08-31 08:00:47 | 50.13788 | 8.77425 | 62° | 27km/h | 19723m | 4.6m/s | 0°C | 0% | 0hPa | 0V | 00:00:00 | 00:00:00 | 00:00:00 | |
| DO3DL | 2026-08-31 08:00:46 | 50.13785 | 8.77416 | 62° | 22km/h | 19723m | 4.7m/s | -52.2°C | 0% | 0hPa | 0V | 00:00:00 | 00:00:00 | 00:00:00 | |
| DL1NUX | 2026-08-31 08:00:45 | 50.13772 | 8.77376 | 28° | 22km/h | 19697m | 4.3m/s | 0°C | 0% | 0hPa | 0V | 00:00:00 | 00:00:00 | 00:00:00 | |
| DB0NH | 2026-08-31 08:00:43 | 50.13776 | 8.77381 | 29° | 27km/h | 19702m | 5.4m/s | 0°C | 0% | 0hPa | 4V | 00:00:00 | 00:00:00 | 00:00:00 | |
| BIOWL1-15 | 2026-08-31 08:00:42 | 50.13772 | 8.77376 | 29° | 22km/h | 19702m | 5.5m/s | -52.2°C | 0% | 0hPa | 4V | 00:00:00 | 00:00:00 | 00:00:00 | |
| DM0DOS-11 | 2026-08-31 08:00:41 | 50.13748 | 8.77325 | 46° | 29km/h | 19666m | 4.6m/s | 0°C | 0% | 0hPa | 0V | 00:00:00 | 00:00:00 | 00:00:00 | |
| DL1XH-west | 2026-08-31 08:00:40 | 50.13763 | 8.77362 | 62° | 31km/h | 19692m | 6.5m/s | -52.1°C | 0% | 0hPa | 4V | 00:00:00 | 00:00:00 | 00:00:00 | |
| DO3DL | 2026-08-31 08:00:40 | 50.13763 | 8.77362 | 63° | 31km/h | 19692m | 6.4m/s | -52.1°C | 0% | 0hPa | 4V | 00:00:00 | 00:00:00 | 00:00:00 | |
| DM7RM-13 | 2026-08-31 08:00:39 | 50.13759 | 8.77351 | 72° | 35km/h | 19686m | 5.2m/s | 0°C | 0% | 0hPa | 4V | 00:00:00 | 00:00:00 | 00:00:00 | |
| AA1-15 | 2026-08-31 08:00:38 | 50.13756 | 8.77340 | 62° | 26km/h | 19681m | 5.2m/s | -52.1°C | 0% | 0hPa | 4V | 00:00:00 | 00:00:00 | 00:00:00 | |
| DL1XH-15 | 2026-08-31 08:00:38 | 50.13738 | 8.77306 | 35° | 27km/h | 19655m | 5.1m/s | 0°C | 0% | 0hPa | 0V | 00:00:00 | 00:00:00 | 00:00:00 | |
| HEMX73-11 | 2026-08-31 08:00:38 | 50.13753 | 8.77332 | 46° | 24km/h | 19676m | 4.1m/s | -52.1°C | 0% | 0hPa | 4V | 00:00:00 | 00:00:00 | 00:00:00 | |
| DF8AY | 2026-08-31 08:00:37 | 50.13748 | 8.77325 | 47° | 29km/h | 19671m | 6m/s | -52.2°C | 0% | 0hPa | 4V | 00:00:00 | 00:00:00 | 00:00:00 | |
| THATR2-17 | 2026-08-31 08:00:37 | 50.13748 | 8.77325 | 46° | 27km/h | 19671m | 0m/s | 0°C | 0% | 0hPa | 0V | 00:00:00 | 00:00:00 | 00:00:00 | |
| DL1NUX | 2026-08-31 08:00:35 | 50.13729 | 8.77295 | 48° | 22km/h | 19650m | 4.8m/s | 0°C | 0% | 0hPa | 0V | 00:00:00 | 00:00:00 | 00:00:00 | |
| NBG1-10 | 2026-08-31 08:00:35 | 50.13743 | 8.77315 | 52° | 27km/h | 19661m | 5.6m/s | 0°C | 0% | 0hPa | 4V | 00:00:00 | 00:00:00 | 00:00:00 | |
| DO3DL | 2026-08-31 08:00:33 | 50.13733 | 8.77300 | 36° | 18km/h | 19655m | 5.1m/s | -52.2°C | 0% | 0hPa | 4V | 00:00:00 | 00:00:00 | 00:00:00 | |
| BIOWL1-15 | 2026-08-31 08:00:32 | 50.13725 | 8.77287 | 59° | 33km/h | 19644m | 6.9m/s | -52.3°C | 0% | 0hPa | 4V | 00:00:00 | 00:00:00 | 00:00:00 | |
| DF2AP-13 | 2026-08-31 08:00:30 | 50.13720 | 8.77269 | 41° | 29km/h | 19636m | 5.5m/s | 0°C | 0% | 0hPa | 4V | 00:00:00 | 00:00:00 | 00:00:00 | |
| DL1XH-west | 2026-08-31 08:00:29 | 50.13714 | 8.77264 | 41° | 33km/h | 19636m | 5.6m/s | -52.3°C | 0% | 0hPa | 4V | 00:00:00 | 00:00:00 | 00:00:00 | |
| AA1-15 | 2026-08-31 08:00:28 | 50.13703 | 8.77258 | 22° | 16km/h | 19623m | 4.9m/s | -52.3°C | 0% | 0hPa | 4V | 00:00:00 | 00:00:00 | 00:00:00 | |
| DO3MHA-11 | 2026-08-31 08:00:27 | 50.13703 | 8.77258 | 22° | 26km/h | 19618m | 5.8m/s | 0°C | 0% | 0hPa | 4V | 00:00:00 | 00:00:00 | 00:00:00 | |
| DF8AY | 2026-08-31 08:00:26 | 50.13695 | 8.77247 | 56° | 33km/h | 19613m | 4.8m/s | -52.4°C | 0% | 0hPa | 4V | 00:00:00 | 00:00:00 | 00:00:00 | |
| DL1NUX | 2026-08-31 08:00:22 | 50.13663 | 8.77214 | 11° | 24km/h | 19576m | 5.3m/s | 0°C | 0% | 0hPa | 0V | 00:00:00 | 00:00:00 | 00:00:00 | |
| BIOWL1-15 | 2026-08-31 08:00:21 | 50.13672 | 8.77224 | 36° | 26km/h | 19592m | 6.4m/s | -52.4°C | 0% | 0hPa | 4V | 00:00:00 | 00:00:00 | 00:00:00 | |
| DM0DOS-11 | 2026-08-31 08:00:21 | 50.13643 | 8.77199 | 32° | 35km/h | 19561m | 4.2m/s | 0°C | 0% | 0hPa | 0V | 00:00:00 | 00:00:00 | 00:00:00 | |
| DO3DL | 2026-08-31 08:00:20 | 50.13668 | 8.77217 | 52° | 29km/h | 19587m | 4.5m/s | -52.4°C | 0% | 0hPa | 4V | 00:00:00 | 00:00:00 | 00:00:00 | |
| DB0UT-7 | 2026-08-31 08:00:19 | 50.13663 | 8.77208 | 8° | 35km/h | 19576m | 5.2m/s | 0°C | 0% | 0hPa | 4V | 00:00:00 | 00:00:00 | 00:00:00 | |
| DL1XH-west | 2026-08-31 08:00:18 | 50.13657 | 8.77206 | 8° | 26km/h | 19576m | 5.3m/s | -52.5°C | 0% | 0hPa | 4V | 00:00:00 | 00:00:00 | 00:00:00 | |
| DL1XH-15 | 2026-08-31 08:00:18 | 50.13631 | 8.77183 | 40° | 24km/h | 19550m | 4.5m/s | 0°C | 0% | 0hPa | 0V | 00:00:00 | 00:00:00 | 00:00:00 | |
| DO3MHA-11 | 2026-08-31 08:00:17 | 50.13650 | 8.77208 | 33° | 29km/h | 19566m | 6.2m/s | 0°C | 0% | 0hPa | 0V | 00:00:00 | 00:00:00 | 00:00:00 | |
| DO8TBO-1 | 2026-08-31 08:00:15 | 50.13636 | 8.77186 | 41° | 35km/h | 19556m | 6.3m/s | 0°C | 0% | 0hPa | 0V | 00:00:00 | 00:00:00 | 00:00:00 | |
| AA1-15 | 2026-08-31 08:00:15 | 50.13631 | 8.77183 | 41° | 24km/h | 19555m | 6.4m/s | -52.8°C | 0% | 0hPa | 4V | 00:00:00 | 00:00:00 | 00:00:00 | |
| DO3DL | 2026-08-31 08:00:14 | 50.13631 | 8.77183 | 42° | 24km/h | 19556m | 6.4m/s | -52.8°C | 0% | 0hPa | 0V | 00:00:00 | 00:00:00 | 00:00:00 | |
| DB0NH | 2026-08-31 08:00:13 | 50.13627 | 8.77184 | 11° | 35km/h | 19546m | 4.3m/s | 0°C | 0% | 0hPa | 0V | 00:00:00 | 00:00:00 | 00:00:00 | |
| DL1NUX | 2026-08-31 08:00:12 | 50.13599 | 8.77151 | 53° | 31km/h | 19524m | 4.4m/s | 0°C | 0% | 0hPa | 0V | 00:00:00 | 00:00:00 | 00:00:00 | |
| DM0DOS-11 | 2026-08-31 08:00:11 | 50.13582 | 8.77133 | 32° | 38km/h | 19508m | 4.1m/s | 0°C | 0% | 0hPa | 0V | 00:00:00 | 00:00:00 | 00:00:00 | |
| DF1GD-15 | 2026-08-31 08:00:10 | 50.13599 | 8.77151 | 54° | 31km/h | 19529m | 5.7m/s | -53.1°C | 0% | 0hPa | 4V | 00:00:00 | 00:00:00 | 00:00:00 | |
| DN1GJH-1 | 2026-08-31 08:00:09 | 50.13599 | 8.77151 | 54° | 31km/h | 19529m | 5.7m/s | -53.1°C | 0% | 0hPa | 4V | 00:00:00 | 00:00:00 | 00:00:00 | |
| DL1XH-west | 2026-08-31 08:00:08 | 50.13595 | 8.77144 | 35° | 20km/h | 19524m | 4.4m/s | -53.1°C | 0% | 0hPa | 4V | 00:00:00 | 00:00:00 | 00:00:00 | |
| DL1XH-15 | 2026-08-31 08:00:08 | 50.13565 | 8.77118 | 42° | 33km/h | 19499m | 4.4m/s | 0°C | 0% | 0hPa | 0V | 00:00:00 | 00:00:00 | 00:00:00 | |
| DO3MHA-11 | 2026-08-31 08:00:07 | 50.13590 | 8.77140 | 25° | 35km/h | 19513m | 5.4m/s | 0°C | 0% | 0hPa | 4V | 00:00:00 | 00:00:00 | 00:00:00 | |
| DF8AY | 2026-08-31 08:00:04 | 50.13560 | 8.77111 | 42° | 24km/h | 19499m | 4.4m/s | -53.1°C | 0% | 0hPa | 4V | 00:00:00 | 00:00:00 | 00:00:00 | |
| DL1NUX | 2026-08-31 08:00:02 | 50.13533 | 8.77078 | 17° | 33km/h | 19473m | 3.7m/s | 0°C | 0% | 0hPa | 0V | 00:00:00 | 00:00:00 | 00:00:00 | |
| BIOWL1-15 | 2026-08-31 08:00:02 | 50.13533 | 8.77078 | 17° | 33km/h | 19479m | 6.9m/s | -53°C | 0% | 0hPa | 4V | 00:00:00 | 00:00:00 | 00:00:00 | |
| DO3DL | 2026-08-31 08:00:01 | 50.13549 | 8.77094 | 46° | 40km/h | 19489m | 5.0m/s | -53.0°C | 0% | 0hPa | 0V | 00:00:00 | 00:00:00 | 00:00:00 | |
| DF2AP-13 | 2026-08-31 08:00:00 | 50.13541 | 8.77080 | 18° | 35km/h | 19479m | 6.9m/s | 0°C | 0% | 0hPa | 0V | 00:00:00 | 00:00:00 | 00:00:00 | |
| DL1XH-15 | 2026-08-31 07:59:58 | 50.13495 | 8.77045 | 23° | 38km/h | 19448m | 3.9m/s | 0°C | 0% | 0hPa | 0V | 00:00:00 | 00:00:00 | 00:00:00 | |
| DL1XH-west | 2026-08-31 07:59:57 | 50.13519 | 8.77072 | 27° | 29km/h | 19468m | 6m/s | -53°C | 0% | 0hPa | 4V | 00:00:00 | 00:00:00 | 00:00:00 | |
| DO3MHA-11 | 2026-08-31 07:59:57 | 50.13519 | 8.77072 | 27° | 38km/h | 19463m | 4.8m/s | 0°C | 0% | 0hPa | 4V | 00:00:00 | 00:00:00 | 00:00:00 | |
| HEMX73-11 | 2026-08-31 07:59:56 | 50.13512 | 8.77064 | 42° | 42km/h | 19463m | 4.9m/s | -53.0°C | 0% | 0hPa | 4V | 00:00:00 | 00:00:00 | 00:00:00 | |
| AA1-15 | 2026-08-31 07:59:54 | 50.13487 | 8.77041 | 4° | 35km/h | 19448m | 3.9m/s | -53.1°C | 0% | 0hPa | 4V | 00:00:00 | 00:00:00 | 00:00:00 | |
| DL1NUX | 2026-08-31 07:59:52 | 50.13453 | 8.77013 | 36° | 37km/h | 19422m | 4.6m/s | 0°C | 0% | 0hPa | 0V | 00:00:00 | 00:00:00 | 00:00:00 | |
| DM0DOS-11 | 2026-08-31 07:59:51 | 50.13433 | 8.76988 | 35° | 33km/h | 19408m | 5.9m/s | 0°C | 0% | 0hPa | 0V | 00:00:00 | 00:00:00 | 00:00:00 | |
| BIOWL1-15 | 2026-08-31 07:59:49 | 50.13446 | 8.77005 | 37° | 33km/h | 19422m | 4.6m/s | -53.3°C | 0% | 0hPa | 4V | 00:00:00 | 00:00:00 | 00:00:00 | |
| DB0UT-7 | 2026-08-31 07:59:49 | 50.13453 | 8.77013 | 37° | 33km/h | 19423m | 4.6m/s | 0°C | 0% | 0hPa | 0V | 00:00:00 | 00:00:00 | 00:00:00 | |
| DL1XH-15 | 2026-08-31 07:59:48 | 50.13419 | 8.76980 | 9° | 27km/h | 19398m | 5.5m/s | 0°C | 0% | 0hPa | 0V | 00:00:00 | 00:00:00 | 00:00:00 | |
| DL1XH-west | 2026-08-31 07:59:47 | 50.13433 | 8.76988 | 36° | 33km/h | 19412m | 4m/s | -53.3°C | 0% | 0hPa | 4V | 00:00:00 | 00:00:00 | 00:00:00 | |
| DO8TBO-1 | 2026-08-31 07:59:45 | 50.13426 | 8.76984 | 10° | 33km/h | 19403m | 3.2m/s | 0°C | 0% | 0hPa | 4V | 00:00:00 | 00:00:00 | 00:00:00 | |
| AA1-15 | 2026-08-31 07:59:44 | 50.13412 | 8.76976 | 31° | 27km/h | 19398m | 5.5m/s | -53.5°C | 0% | 0hPa | 4V | 00:00:00 | 00:00:00 | 00:00:00 | |
| DF8AY | 2026-08-31 07:59:43 | 50.13406 | 8.76967 | 51° | 38km/h | 19392m | 6.4m/s | -53.6°C | 0% | 0hPa | 4V | 00:00:00 | 00:00:00 | 00:00:00 | |
| DB0NH | 2026-08-31 07:59:43 | 50.13412 | 8.76975 | 46° | 33km/h | 19393m | 6.4m/s | 0°C | 0% | 0hPa | 0V | 00:00:00 | 00:00:00 | 00:00:00 | |
| DL1NUX | 2026-08-31 07:59:42 | 50.13382 | 8.76941 | 357° | 31km/h | 19373m | 4.9m/s | 0°C | 0% | 0hPa | 0V | 00:00:00 | 00:00:00 | 00:00:00 | |
| DO3DL | 2026-08-31 07:59:41 | 50.13399 | 8.76954 | 47° | 46km/h | 19389m | 1.1m/s | -53.6°C | 0% | 0hPa | 4V | 00:00:00 | 00:00:00 | 00:00:00 | |
| CB1BUN | 2026-08-31 07:59:39 | 50.13382 | 8.76940 | 359° | 31km/h | 19379m | 6.6m/s | -53.7°C | 0% | 0hPa | 4V | 00:00:00 | 00:00:00 | 00:00:00 | |
| BIOWL1-15 | 2026-08-31 07:59:38 | 50.13370 | 8.76941 | 26° | 24km/h | 19369m | 5.2m/s | -53.8°C | 0% | 0hPa | 4V | 00:00:00 | 00:00:00 | 00:00:00 | |
| DO3MHA-11 | 2026-08-31 07:59:37 | 50.13369 | 8.76940 | 26° | 35km/h | 19364m | 4.8m/s | 0°C | 0% | 0hPa | 0V | 00:00:00 | 00:00:00 | 00:00:00 | |
| HEMX73-11 | 2026-08-31 07:59:36 | 50.13356 | 8.76926 | 30° | 40km/h | 19358m | 5.7m/s | -53.7°C | 0% | 0hPa | 0V | 00:00:00 | 00:00:00 | 00:00:00 | |
| DL1XH-west | 2026-08-31 07:59:36 | 50.13355 | 8.76926 | 29° | 40km/h | 19358m | 5.7m/s | -53.7°C | 0% | 0hPa | 4V | 00:00:00 | 00:00:00 | 00:00:00 | |
| DO3DL | 2026-08-31 07:59:35 | 50.13356 | 8.76926 | 30° | 40km/h | 19358m | 5.7m/s | -53.7°C | 0% | 0hPa | 0V | 00:00:00 | 00:00:00 | 00:00:00 | |
| DL1NUX | 2026-08-31 07:59:32 | 50.13305 | 8.76905 | 353° | 40km/h | 19323m | 5.5m/s | 0°C | 0% | 0hPa | 0V | 00:00:00 | 00:00:00 | 00:00:00 | |
| DF8AY | 2026-08-31 07:59:32 | 50.13323 | 8.76909 | 26° | 33km/h | 19338m | 3.9m/s | -53.7°C | 0% | 0hPa | 4V | 00:00:00 | 00:00:00 | 00:00:00 | |
| AA1-15 | 2026-08-31 07:59:30 | 50.13305 | 8.76905 | 354° | 40km/h | 19328m | 4.4m/s | -53.7°C | 0% | 0hPa | 4V | 00:00:00 | 00:00:00 | 00:00:00 | |
| DF2AP-13 | 2026-08-31 07:59:30 | 50.13315 | 8.76912 | 2° | 24km/h | 19328m | 4.3m/s | 0°C | 0% | 0hPa | 4V | 00:00:00 | 00:00:00 | 00:00:00 | |
| NBG1-10 | 2026-08-31 07:59:29 | 50.13305 | 8.76905 | 354° | 31km/h | 19323m | 5.5m/s | 0°C | 0% | 0hPa | 4V | 00:00:00 | 00:00:00 | 00:00:00 | |
| BIOWL1-15 | 2026-08-31 07:59:28 | 50.13287 | 8.76904 | 22° | 29km/h | 19317m | 4.9m/s | -53.7°C | 0% | 0hPa | 4V | 00:00:00 | 00:00:00 | 00:00:00 | |
| DO2KSM | 2026-08-31 07:59:27 | 50.13280 | 8.76899 | 25° | 27km/h | 19313m | 4.1m/s | -53.6°C | 0% | 0hPa | 4V | 00:00:00 | 00:00:00 | 00:00:00 | |
| DJTTGO | 2026-08-31 07:59:26 | 50.13280 | 8.76899 | 25° | 27km/h | 19313m | 4.1m/s | -53.6°C | 0% | 0hPa | 4V | 00:00:00 | 00:00:00 | 00:00:00 | |
| DL1XH-west | 2026-08-31 07:59:25 | 50.13274 | 8.76897 | 3° | 31km/h | 19308m | 5.5m/s | -53.6°C | 0% | 0hPa | 4V | 00:00:00 | 00:00:00 | 00:00:00 | |
| DO3DL | 2026-08-31 07:59:22 | 50.13249 | 8.76894 | 25° | 29km/h | 19294m | 4.9m/s | -53.6°C | 0% | 0hPa | 0V | 00:00:00 | 00:00:00 | 00:00:00 | |
| DM0DOS-11 | 2026-08-31 07:59:21 | 50.13201 | 8.76881 | 23° | 29km/h | 19261m | 5.4m/s | 0°C | 0% | 0hPa | 0V | 00:00:00 | 00:00:00 | 00:00:00 | |
| DF8AY | 2026-08-31 07:59:21 | 50.13235 | 8.76889 | 356° | 31km/h | 19284m | 6m/s | -53.5°C | 0% | 0hPa | 4V | 00:00:00 | 00:00:00 | 00:00:00 | |
| AA1-15 | 2026-08-31 07:59:20 | 50.13227 | 8.76891 | 353° | 38km/h | 19280m | 3.8m/s | -53.5°C | 0% | 0hPa | 4V | 00:00:00 | 00:00:00 | 00:00:00 | |
| DB0UT-7 | 2026-08-31 07:59:19 | 50.13227 | 8.76895 | 9° | 26km/h | 19276m | 5.4m/s | 0°C | 0% | 0hPa | 4V | 00:00:00 | 00:00:00 | 00:00:00 | |
| BIOWL1-15 | 2026-08-31 07:59:18 | 50.13201 | 8.76881 | 23° | 29km/h | 19266m | 5.1m/s | -53.4°C | 0% | 0hPa | 4V | 00:00:00 | 00:00:00 | 00:00:00 | |
| DL1XH-15 | 2026-08-31 07:59:18 | 50.13187 | 8.76881 | 346° | 31km/h | 19252m | 5.9m/s | 0°C | 0% | 0hPa | 0V | 00:00:00 | 00:00:00 | 00:00:00 | |
| DM7RM-13 | 2026-08-31 07:59:17 | 50.13201 | 8.76880 | 24° | 29km/h | 19266m | 5.1m/s | 0°C | 0% | 0hPa | 4V | 00:00:00 | 00:00:00 | 00:00:00 | |
| DO3DL | 2026-08-31 07:59:16 | 50.13201 | 8.76880 | 24° | 29km/h | 19266m | 5.1m/s | -53.4°C | 0% | 0hPa | 4V | 00:00:00 | 00:00:00 | 00:00:00 | |
| DO8TBO-1 | 2026-08-31 07:59:15 | 50.13194 | 8.76880 | 347° | 24km/h | 19257m | 3.2m/s | 0°C | 0% | 0hPa | 4V | 00:00:00 | 00:00:00 | 00:00:00 | |
| DL1XH-west | 2026-08-31 07:59:14 | 50.13187 | 8.76881 | 347° | 31km/h | 19257m | 3.3m/s | -53.4°C | 0% | 0hPa | 4V | 00:00:00 | 00:00:00 | 00:00:00 | |
| DL1NUX | 2026-08-31 07:59:12 | 50.13149 | 8.76869 | 343° | 35km/h | 19229m | 5.4m/s | 0°C | 0% | 0hPa | 0V | 00:00:00 | 00:00:00 | 00:00:00 | |
| DB0NH | 2026-08-31 07:59:12 | 50.13171 | 8.76877 | 32° | 22km/h | 19243m | 4.1m/s | 0°C | 0% | 0hPa | 0V | 00:00:00 | 00:00:00 | 00:00:00 | |
| DM0DOS-11 | 2026-08-31 07:59:10 | 50.13121 | 8.76857 | 14° | 24km/h | 19208m | 4.8m/s | 0°C | 0% | 0hPa | 0V | 00:00:00 | 00:00:00 | 00:00:00 | |
| DF8AY | 2026-08-31 07:59:10 | 50.13149 | 8.76869 | 344° | 35km/h | 19233m | 3m/s | -53.5°C | 0% | 0hPa | 4V | 00:00:00 | 00:00:00 | 00:00:00 | |
| BEGRI65-1 | 2026-08-31 07:59:09 | 50.13140 | 8.76871 | 359° | 31km/h | 19233m | 3.0m/s | -53.5°C | 0% | 0hPa | 4V | 00:00:00 | 00:00:00 | 00:00:00 | |
| DO3MHA-11 | 2026-08-31 07:59:07 | 50.13133 | 8.76868 | 29° | 26km/h | 19218m | 4.0m/s | 0°C | 0% | 0hPa | 4V | 00:00:00 | 00:00:00 | 00:00:00 | |
| AA1-15 | 2026-08-31 07:59:06 | 50.13121 | 8.76857 | 14° | 24km/h | 19213m | 5.8m/s | -53.7°C | 0% | 0hPa | 4V | 00:00:00 | 00:00:00 | 00:00:00 | |
| DL1XH-west | 2026-08-31 07:59:03 | 50.13107 | 8.76856 | 6° | 31km/h | 19202m | 6.3m/s | -53.9°C | 0% | 0hPa | 4V | 00:00:00 | 00:00:00 | 00:00:00 | |
| DO3DL | 2026-08-31 07:59:03 | 50.13107 | 8.76856 | 6° | 31km/h | 19203m | 6.3m/s | -53.9°C | 0% | 0hPa | 0V | 00:00:00 | 00:00:00 | 00:00:00 | |
| DL1NUX | 2026-08-31 07:59:02 | 50.13083 | 8.76853 | 13° | 13km/h | 19178m | 6.1m/s | 0°C | 0% | 0hPa | 0V | 00:00:00 | 00:00:00 | 00:00:00 | |
| DM0DOS-11 | 2026-08-31 07:59:00 | 50.13068 | 8.76844 | 359° | 15km/h | 19159m | 4.3m/s | 0°C | 0% | 0hPa | 0V | 00:00:00 | 00:00:00 | 00:00:00 | |
| DF8AY | 2026-08-31 07:59:00 | 50.13082 | 8.76853 | 13° | 13km/h | 19183m | 3.7m/s | -54.1°C | 0% | 0hPa | 4V | 00:00:00 | 00:00:00 | 00:00:00 | |
| DL1XH-15 | 2026-08-31 07:58:58 | 50.13065 | 8.76843 | 359° | 13km/h | 19154m | 5.7m/s | 0°C | 0% | 0hPa | 0V | 00:00:00 | 00:00:00 | 00:00:00 | |
| DO3MHA-11 | 2026-08-31 07:58:57 | 50.13075 | 8.76847 | 39° | 18km/h | 19169m | 4.9m/s | 0°C | 0% | 0hPa | 4V | 00:00:00 | 00:00:00 | 00:00:00 | |
| NBG1-10 | 2026-08-31 07:58:56 | 50.13072 | 8.76842 | 17° | 20km/h | 19164m | 5.1m/s | 0°C | 0% | 0hPa | 4V | 00:00:00 | 00:00:00 | 00:00:00 | |
| BIOWL1-15 | 2026-08-31 07:58:55 | 50.13065 | 8.76843 | 360° | 13km/h | 19159m | 4.3m/s | -54.1°C | 0% | 0hPa | 4V | 00:00:00 | 00:00:00 | 00:00:00 | |
| HEMX73-11 | 2026-08-31 07:58:54 | 50.13065 | 8.76843 | 361° | 13km/h | 19159m | 4.3m/s | -54.1°C | 0% | 0hPa | 4V | 00:00:00 | 00:00:00 | 00:00:00 | |
| DL1XH-west | 2026-08-31 07:58:52 | 50.13058 | 8.76839 | 30° | 22km/h | 19149m | 3.8m/s | -54.2°C | 0% | 0hPa | 4V | 00:00:00 | 00:00:00 | 00:00:00 | |
| DL1NUX | 2026-08-31 07:58:52 | 50.13044 | 8.76838 | 43° | 15km/h | 19130m | 5.2m/s | 0°C | 0% | 0hPa | 0V | 00:00:00 | 00:00:00 | 00:00:00 | |
| DL8DAS-15 | 2026-08-31 07:58:51 | 50.13053 | 8.76835 | 13° | 20km/h | 19145m | 5.6m/s | 0°C | 0% | 0hPa | 0V | 00:00:00 | 00:00:00 | 00:00:00 | |
| DM0DOS-11 | 2026-08-31 07:58:50 | 50.13031 | 8.76825 | 21° | 16km/h | 19111m | 5.8m/s | 0°C | 0% | 0hPa | 0V | 00:00:00 | 00:00:00 | 00:00:00 | |
| DF8AY | 2026-08-31 07:58:49 | 50.13041 | 8.76834 | 43° | 16km/h | 19130m | 5.2m/s | -54.2°C | 0% | 0hPa | 4V | 00:00:00 | 00:00:00 | 00:00:00 | |
| DL1XH-15 | 2026-08-31 07:58:48 | 50.13027 | 8.76822 | 36° | 20km/h | 19106m | 4.3m/s | 0°C | 0% | 0hPa | 0V | 00:00:00 | 00:00:00 | 00:00:00 | |
| DO3MHA-11 | 2026-08-31 07:58:47 | 50.13038 | 8.76827 | 18° | 20km/h | 19121m | 5.1m/s | 0°C | 0% | 0hPa | 4V | 00:00:00 | 00:00:00 | 00:00:00 | |
| DO8TBO-1 | 2026-08-31 07:58:45 | 50.13031 | 8.76825 | 22° | 22km/h | 19111m | 5.8m/s | 0°C | 0% | 0hPa | 4V | 00:00:00 | 00:00:00 | 00:00:00 | |
| BIOWL1-15 | 2026-08-31 07:58:44 | 50.13027 | 8.76822 | 36° | 20km/h | 19111m | 5.8m/s | -54.2°C | 0% | 0hPa | 4V | 00:00:00 | 00:00:00 | 00:00:00 | |
| DO3DL | 2026-08-31 07:58:44 | 50.13027 | 8.76822 | 37° | 20km/h | 19111m | 5.8m/s | -54.2°C | 0% | 0hPa | 3.9V | 00:00:00 | 00:00:00 | 00:00:00 | |
| DL1XH-west | 2026-08-31 07:58:42 | 50.13017 | 8.76811 | 8° | 15km/h | 19096m | 4m/s | -54.2°C | 0% | 0hPa | 3.9V | 00:00:00 | 00:00:00 | 00:00:00 | |
| DJTTGO | 2026-08-31 07:58:41 | 50.13017 | 8.76810 | 9° | 15km/h | 19096m | 4.0m/s | -54.2°C | 0% | 0hPa | 0V | 00:00:00 | 00:00:00 | 00:00:00 | |
| DL1NUX | 2026-08-31 07:58:40 | 50.13007 | 8.76806 | 36° | 27km/h | 19082m | 3.8m/s | 0°C | 0% | 0hPa | 0V | 00:00:00 | 00:00:00 | 00:00:00 | |
| DM0DOS-11 | 2026-08-31 07:58:40 | 50.12990 | 8.76789 | 44° | 16km/h | 19062m | 4.4m/s | 0°C | 0% | 0hPa | 0V | 00:00:00 | 00:00:00 | 00:00:00 | |
| DL1XH-15 | 2026-08-31 07:58:38 | 50.12986 | 8.76781 | 32° | 24km/h | 19057m | 4.8m/s | 0°C | 0% | 0hPa | 0V | 00:00:00 | 00:00:00 | 00:00:00 | |
| DF8AY | 2026-08-31 07:58:38 | 50.12997 | 8.76794 | 26° | 18km/h | 19077m | 5.9m/s | -54.2°C | 0% | 0hPa | 3.9V | 00:00:00 | 00:00:00 | 00:00:00 | |
| DO3MHA-11 | 2026-08-31 07:58:37 | 50.12997 | 8.76794 | 27° | 20km/h | 19072m | 4.5m/s | 0°C | 0% | 0hPa | 3.9V | 00:00:00 | 00:00:00 | 00:00:00 | |
| DM7RM-13 | 2026-08-31 07:58:36 | 50.12993 | 8.76792 | 31° | 13km/h | 19072m | 4.5m/s | 0°C | 0% | 0hPa | 3.9V | 00:00:00 | 00:00:00 | 00:00:00 | |
| HEMX73-11 | 2026-08-31 07:58:34 | 50.12986 | 8.76784 | 51° | 24km/h | 19062m | 4.4m/s | -54.0°C | 0% | 0hPa | 3.9V | 00:00:00 | 00:00:00 | 00:00:00 | |
| BIOWL1-15 | 2026-08-31 07:58:33 | 50.12982 | 8.76778 | 32° | 22km/h | 19057m | 4.8m/s | -54°C | 0% | 0hPa | 3.9V | 00:00:00 | 00:00:00 | 00:00:00 | |
| DO3DL | 2026-08-31 07:58:32 | 50.12973 | 8.76771 | 34° | 22km/h | 19048m | 4.0m/s | -54.0°C | 0% | 0hPa | 4V | 00:00:00 | 00:00:00 | 00:00:00 | |
| DL1XH-west | 2026-08-31 07:58:31 | 50.12973 | 8.76771 | 33° | 22km/h | 19048m | 4m/s | -54°C | 0% | 0hPa | 4V | 00:00:00 | 00:00:00 | 00:00:00 | |
| DL1NUX | 2026-08-31 07:58:29 | 50.12964 | 8.76758 | 55° | 27km/h | 19034m | 5.6m/s | 0°C | 0% | 0hPa | 0V | 00:00:00 | 00:00:00 | 00:00:00 | |
| DL1XH-15 | 2026-08-31 07:58:28 | 50.12941 | 8.76728 | 33° | 29km/h | 19010m | 6.7m/s | 0°C | 0% | 0hPa | 0V | 00:00:00 | 00:00:00 | 00:00:00 | |
| DF2AP-13 | 2026-08-31 07:58:28 | 50.12960 | 8.76751 | 38° | 24km/h | 19015m | 3.3m/s | 0°C | 0% | 0hPa | 4V | 00:00:00 | 00:00:00 | 00:00:00 | |
| DF8AY | 2026-08-31 07:58:27 | 50.12952 | 8.76743 | 37° | 24km/h | 19024m | 6.1m/s | -53.8°C | 0% | 0hPa | 4V | 00:00:00 | 00:00:00 | 00:00:00 | |
| DO3MHA-11 | 2026-08-31 07:58:27 | 50.12957 | 8.76750 | 37° | 24km/h | 19024m | 6.0m/s | 0°C | 0% | 0hPa | 4V | 00:00:00 | 00:00:00 | 00:00:00 | |
| DN1GJH-1 | 2026-08-31 07:58:26 | 50.12952 | 8.76742 | 38° | 24km/h | 19024m | 6.1m/s | -53.8°C | 0% | 0hPa | 4V | 00:00:00 | 00:00:00 | 00:00:00 | |
| DO2KSM | 2026-08-31 07:58:25 | 50.12941 | 8.76728 | 34° | 29km/h | 19015m | 3.3m/s | -53.8°C | 0% | 0hPa | 4V | 00:00:00 | 00:00:00 | 00:00:00 | |
| DO3DL | 2026-08-31 07:58:24 | 50.12941 | 8.76728 | 34° | 29km/h | 19015m | 3.3m/s | -53.8°C | 0% | 0hPa | 4V | 00:00:00 | 00:00:00 | 00:00:00 | |
| AA1-15 | 2026-08-31 07:58:23 | 50.12932 | 8.76723 | 41° | 11km/h | 19005m | 3.2m/s | -53.8°C | 0% | 0hPa | 4V | 00:00:00 | 00:00:00 | 00:00:00 | |
| HSKMA3-T | 2026-08-31 07:58:21 | 50.12926 | 8.76711 | 60° | 35km/h | 18996m | 4.3m/s | -53.7°C | 0% | 0hPa | 4V | 00:00:00 | 00:00:00 | 00:00:00 | |
| DB0UT-7 | 2026-08-31 07:58:19 | 50.12921 | 8.76696 | 22° | 24km/h | 18987m | 5.3m/s | 0°C | 0% | 0hPa | 0V | 00:00:00 | 00:00:00 | 00:00:00 | |
| DL1XH-15 | 2026-08-31 07:58:18 | 50.12892 | 8.76678 | 30° | 26km/h | 18964m | 3.9m/s | 0°C | 0% | 0hPa | 0V | 00:00:00 | 00:00:00 | 00:00:00 | |
| CB1BUN | 2026-08-31 07:58:18 | 50.12908 | 8.76690 | 10° | 26km/h | 18982m | 3.4m/s | -53.7°C | 0% | 0hPa | 0V | 00:00:00 | 00:00:00 | 00:00:00 | |
| DO3MHA-11 | 2026-08-31 07:58:17 | 50.12908 | 8.76690 | 9° | 24km/h | 18978m | 4.8m/s | 0°C | 0% | 0hPa | 0V | 00:00:00 | 00:00:00 | 00:00:00 | |
| DF8AY | 2026-08-31 07:58:17 | 50.12902 | 8.76687 | 27° | 26km/h | 18978m | 4.8m/s | -53.7°C | 0% | 0hPa | 4V | 00:00:00 | 00:00:00 | 00:00:00 | |
| DO8TBO-1 | 2026-08-31 07:58:15 | 50.12896 | 8.76681 | 46° | 24km/h | 18969m | 5.1m/s | 0°C | 0% | 0hPa | 0V | 00:00:00 | 00:00:00 | 00:00:00 | |
| HEMX73-11 | 2026-08-31 07:58:13 | 50.12886 | 8.76669 | 30° | 26km/h | 18964m | 3.9m/s | -53.7°C | 0% | 0hPa | 0V | 00:00:00 | 00:00:00 | 00:00:00 | |
| DL1NUX | 2026-08-31 07:58:12 | 50.12863 | 8.76646 | 11° | 13km/h | 18943m | 3m/s | 0°C | 0% | 0hPa | 0V | 00:00:00 | 00:00:00 | 00:00:00 | |
| BIOWL1-15 | 2026-08-31 07:58:11 | 50.12873 | 8.76655 | 39° | 35km/h | 18956m | 3.7m/s | -53.7°C | 0% | 0hPa | 4V | 00:00:00 | 00:00:00 | 00:00:00 | |
| DO3DL | 2026-08-31 07:58:11 | 50.12873 | 8.76655 | 39° | 35km/h | 18956m | 3.7m/s | -53.7°C | 0% | 0hPa | 0V | 00:00:00 | 00:00:00 | 00:00:00 | |
| DM0DOS-11 | 2026-08-31 07:58:10 | 50.12845 | 8.76627 | 28° | 35km/h | 18924m | 5.1m/s | 0°C | 0% | 0hPa | 0V | 00:00:00 | 00:00:00 | 00:00:00 | |
| DL1XH-west | 2026-08-31 07:58:10 | 50.12863 | 8.76646 | 12° | 13km/h | 18947m | 6.6m/s | -53.7°C | 0% | 0hPa | 4V | 00:00:00 | 00:00:00 | 00:00:00 | |
| DO3MHA-11 | 2026-08-31 07:58:07 | 50.12858 | 8.76643 | 44° | 24km/h | 18934m | 4.3m/s | 0°C | 0% | 0hPa | 4V | 00:00:00 | 00:00:00 | 00:00:00 | |
| DF8AY | 2026-08-31 07:58:06 | 50.12845 | 8.76627 | 28° | 35km/h | 18929m | 4.7m/s | -53.6°C | 0% | 0hPa | 4V | 00:00:00 | 00:00:00 | 00:00:00 | |
| DO3DL | 2026-08-31 07:58:05 | 50.12845 | 8.76627 | 29° | 35km/h | 18929m | 4.7m/s | -53.6°C | 0% | 0hPa | 0V | 00:00:00 | 00:00:00 | 00:00:00 | |
| DO2KSM | 2026-08-31 07:58:04 | 50.12838 | 8.76624 | 3° | 26km/h | 18924m | 5.1m/s | -53.6°C | 0% | 0hPa | 0V | 00:00:00 | 00:00:00 | 00:00:00 | |
| DD1CC8 | 2026-08-31 07:58:03 | 50.12826 | 8.76616 | 48° | 22km/h | 18911m | 3.3m/s | -53.4°C | -1.0% | -1.0hPa | 0V | 00:00:00 | 00:00:00 | 00:00:00 | |
| DL1NUX | 2026-08-31 07:58:02 | 50.12817 | 8.76609 | 16° | 27km/h | 18898m | 5.1m/s | 0°C | 0% | 0hPa | 0V | 00:00:00 | 00:00:00 | 00:00:00 | |
| BIOWL1-15 | 2026-08-31 07:58:01 | 50.12826 | 8.76616 | 48° | 22km/h | 18911m | 3.3m/s | -53.4°C | 0% | 0hPa | 4V | 00:00:00 | 00:00:00 | 00:00:00 | |
| DM0DOS-11 | 2026-08-31 07:58:00 | 50.12795 | 8.76596 | 22° | 5km/h | 18880m | 2.9m/s | 0°C | 0% | 0hPa | 0V | 00:00:00 | 00:00:00 | 00:00:00 | |
| DL1XH-west | 2026-08-31 07:57:59 | 50.12809 | 8.76604 | 16° | 33km/h | 18898m | 5.1m/s | -53.3°C | 0% | 0hPa | 4V | 00:00:00 | 00:00:00 | 00:00:00 | |
| DL1XH-15 | 2026-08-31 07:57:58 | 50.12793 | 8.76593 | 22° | 13km/h | 18875m | 6.5m/s | 0°C | 0% | 0hPa | 0V | 00:00:00 | 00:00:00 | 00:00:00 | |
| DO3MHA-11 | 2026-08-31 07:57:57 | 50.12802 | 8.76596 | 35° | 18km/h | 18890m | 5.0m/s | 0°C | 0% | 0hPa | 4V | 00:00:00 | 00:00:00 | 00:00:00 | |
| CB1BUN | 2026-08-31 07:57:56 | 50.12798 | 8.76595 | 35° | 16km/h | 18890m | 5.1m/s | -53.3°C | 0% | 0hPa | 4V | 00:00:00 | 00:00:00 | 00:00:00 | |
| DF8AY | 2026-08-31 07:57:55 | 50.12793 | 8.76593 | 22° | 13km/h | 18880m | 2.9m/s | -53.1°C | 0% | 0hPa | 4V | 00:00:00 | 00:00:00 | 00:00:00 | |
| DJTTGO | 2026-08-31 07:57:54 | 50.12793 | 8.76593 | 23° | 13km/h | 18881m | 2.9m/s | -53.1°C | 0% | 0hPa | 4V | 00:00:00 | 00:00:00 | 00:00:00 | |
| HEMX73-11 | 2026-08-31 07:57:53 | 50.12788 | 8.76590 | 32° | 26km/h | 18875m | 6.5m/s | -53.1°C | 0% | 0hPa | 4V | 00:00:00 | 00:00:00 | 00:00:00 | |
| DO3DL | 2026-08-31 07:57:52 | 50.12782 | 8.76583 | 35° | 38km/h | 18870m | 3.9m/s | -53.1°C | 0% | 0hPa | 4V | 00:00:00 | 00:00:00 | 00:00:00 | |
| BIOWL1-15 | 2026-08-31 07:57:50 | 50.12770 | 8.76574 | 22° | 13km/h | 18861m | 4.7m/s | -53.1°C | 0% | 0hPa | 4V | 00:00:00 | 00:00:00 | 00:00:00 | |
| DM0DOS-11 | 2026-08-31 07:57:50 | 50.12751 | 8.76556 | 356° | 22km/h | 18835m | 4.3m/s | 0°C | 0% | 0hPa | 0V | 00:00:00 | 00:00:00 | 00:00:00 | |
| NBG1-10 | 2026-08-31 07:57:50 | 50.12770 | 8.76574 | 23° | 20km/h | 18857m | 3.5m/s | 0°C | 0% | 0hPa | 4V | 00:00:00 | 00:00:00 | 00:00:00 | |
| DB0UT-7 | 2026-08-31 07:57:49 | 50.12768 | 8.76573 | 51° | 20km/h | 18853m | 5.0m/s | 0°C | 0% | 0hPa | 4V | 00:00:00 | 00:00:00 | 00:00:00 | |
| DL1XH-west | 2026-08-31 07:57:48 | 50.12766 | 8.76570 | 57° | 16km/h | 18853m | 5m/s | -53°C | 0% | 0hPa | 4V | 00:00:00 | 00:00:00 | 00:00:00 | |
| DL1XH-15 | 2026-08-31 07:57:48 | 50.12746 | 8.76559 | 46° | 16km/h | 18830m | 5.2m/s | 0°C | 0% | 0hPa | 0V | 00:00:00 | 00:00:00 | 00:00:00 | |
| DO3MHA-11 | 2026-08-31 07:57:47 | 50.12762 | 8.76563 | 45° | 22km/h | 18845m | 5.2m/s | 0°C | 0% | 0hPa | 4V | 00:00:00 | 00:00:00 | 00:00:00 | |
| DO8TBO-1 | 2026-08-31 07:57:45 | 50.12751 | 8.76556 | 357° | 20km/h | 18835m | 4.2m/s | 0°C | 0% | 0hPa | 4V | 00:00:00 | 00:00:00 | 00:00:00 | |
| DF8AY | 2026-08-31 07:57:44 | 50.12743 | 8.76553 | 47° | 20km/h | 18830m | 5.2m/s | -52.8°C | 0% | 0hPa | 4V | 00:00:00 | 00:00:00 | 00:00:00 | |
| DO2KSM | 2026-08-31 07:57:43 | 50.12742 | 8.76553 | 48° | 20km/h | 18831m | 5.2m/s | -52.8°C | 0% | 0hPa | 0V | 00:00:00 | 00:00:00 | 00:00:00 | |
| DL1NUX | 2026-08-31 07:57:41 | 50.12723 | 8.76538 | 19° | 24km/h | 18806m | 3.8m/s | 0°C | 0% | 0hPa | 0V | 00:00:00 | 00:00:00 | 00:00:00 | |
| DM0DOS-11 | 2026-08-31 07:57:40 | 50.12706 | 8.76525 | 6° | 15km/h | 18790m | 5.3m/s | 0°C | 0% | 0hPa | 0V | 00:00:00 | 00:00:00 | 00:00:00 | |
| DB0NH | 2026-08-31 07:57:40 | 50.12729 | 8.76542 | 20° | 20km/h | 18812m | 5.8m/s | 0°C | 0% | 0hPa | 4V | 00:00:00 | 00:00:00 | 00:00:00 | |
| BIOWL1-15 | 2026-08-31 07:57:39 | 50.12723 | 8.76537 | 19° | 24km/h | 18812m | 5.8m/s | -52.7°C | 0% | 0hPa | 4V | 00:00:00 | 00:00:00 | 00:00:00 | |
| DO3DL | 2026-08-31 07:57:39 | 50.12723 | 8.76537 | 20° | 24km/h | 18812m | 5.8m/s | -52.7°C | 0% | 0hPa | 4V | 00:00:00 | 00:00:00 | 00:00:00 | |
| DL1XH-west | 2026-08-31 07:57:37 | 50.12714 | 8.76527 | 29° | 20km/h | 18803m | 3.5m/s | -52.6°C | 0% | 0hPa | 4V | 00:00:00 | 00:00:00 | 00:00:00 | |
| DO3MHA-11 | 2026-08-31 07:57:37 | 50.12714 | 8.76527 | 29° | 18km/h | 18799m | 5.5m/s | 0°C | 0% | 0hPa | 4V | 00:00:00 | 00:00:00 | 00:00:00 | |
| DK7TD | 2026-08-31 07:57:36 | 50.12706 | 8.76525 | 6° | 15km/h | 18794m | 2.9m/s | -52.6°C | 0% | 0hPa | 4V | 00:00:00 | 00:00:00 | 00:00:00 | |
| DF8AY | 2026-08-31 07:57:34 | 50.12700 | 8.76520 | 55° | 20km/h | 18785m | 4.1m/s | -52.6°C | 0% | 0hPa | 4V | 00:00:00 | 00:00:00 | 00:00:00 | |
| DO3DL | 2026-08-31 07:57:32 | 50.12696 | 8.76513 | 44° | 26km/h | 18781m | 5.1m/s | -52.6°C | 0% | 0hPa | 4V | 00:00:00 | 00:00:00 | 00:00:00 | |
| BIOWL1-15 | 2026-08-31 07:57:31 | 50.12679 | 8.76498 | 26° | 11km/h | 18764m | 3m/s | -52.7°C | 0% | 0hPa | 4V | 00:00:00 | 00:00:00 | 00:00:00 | |
| DL1NUX | 2026-08-31 07:57:30 | 50.12681 | 8.76500 | 25° | 15km/h | 18764m | 3m/s | 0°C | 0% | 0hPa | 0V | 00:00:00 | 00:00:00 | 00:00:00 | |
| THATR2-17 | 2026-08-31 07:57:30 | 50.12635 | 8.76467 | 22° | 22km/h | 18721m | 0m/s | 0°C | 0% | 0hPa | 0V | 00:00:00 | 00:00:00 | 00:00:00 | |
| DL1XH-15 | 2026-08-31 07:57:28 | 50.12659 | 8.76487 | 40° | 24km/h | 18737m | 4.1m/s | 0°C | 0% | 0hPa | 0V | 00:00:00 | 00:00:00 | 00:00:00 | |
| SO1NDE-10 | 2026-08-31 07:57:27 | 50.12677 | 8.76497 | 4° | 20km/h | 18755m | 3.3m/s | 0°C | 0% | 0hPa | 4V | 00:00:00 | 00:00:00 | 00:00:00 | |
| DL1XH-west | 2026-08-31 07:57:26 | 50.12672 | 8.76494 | 4° | 27km/h | 18755m | 3.4m/s | -52.8°C | 0% | 0hPa | 4V | 00:00:00 | 00:00:00 | 00:00:00 | |
| DO3MHA-11 | 2026-08-31 07:57:26 | 50.12671 | 8.76494 | 4° | 22km/h | 18751m | 5.1m/s | 0°C | 0% | 0hPa | 4V | 00:00:00 | 00:00:00 | 00:00:00 | |
| DK7TD | 2026-08-31 07:57:25 | 50.12659 | 8.76487 | 40° | 24km/h | 18746m | 3.9m/s | -52.9°C | 0% | 0hPa | 4V | 00:00:00 | 00:00:00 | 00:00:00 | |
| DL1NUX | 2026-08-31 07:57:24 | 50.12640 | 8.76473 | 40° | 27km/h | 18720m | 5.2m/s | 0°C | 0% | 0hPa | 0V | 00:00:00 | 00:00:00 | 00:00:00 | |
| DF8AY | 2026-08-31 07:57:23 | 50.12652 | 8.76481 | 356° | 13km/h | 18737m | 4.1m/s | -52.8°C | 0% | 0hPa | 4V | 00:00:00 | 00:00:00 | 00:00:00 | |
| DM0DOS-11 | 2026-08-31 07:57:20 | 50.12622 | 8.76467 | 44° | 16km/h | 18703m | 3.1m/s | 0°C | 0% | 0hPa | 0V | 00:00:00 | 00:00:00 | 00:00:00 | |
| BIOWL1-15 | 2026-08-31 07:57:20 | 50.12630 | 8.76467 | 347° | 20km/h | 18715m | 4.6m/s | -52.9°C | 0% | 0hPa | 4V | 00:00:00 | 00:00:00 | 00:00:00 | |
| DB0UT-7 | 2026-08-31 07:57:19 | 50.12640 | 8.76473 | 41° | 22km/h | 18721m | 5.1m/s | 0°C | 0% | 0hPa | 0V | 00:00:00 | 00:00:00 | 00:00:00 | |
| NBG1-10 | 2026-08-31 07:57:17 | 50.12630 | 8.76467 | 348° | 20km/h | 18711m | 3.4m/s | 0°C | 0% | 0hPa | 0V | 00:00:00 | 00:00:00 | 00:00:00 | |
| CB1BUN | 2026-08-31 07:57:16 | 50.12622 | 8.76467 | 46° | 16km/h | 18707m | 5.5m/s | -53.0°C | 0% | 0hPa | 0V | 00:00:00 | 00:00:00 | 00:00:00 | |
| DL1XH-west | 2026-08-31 07:57:16 | 50.12622 | 8.76467 | 45° | 16km/h | 18707m | 5.5m/s | -53°C | 0% | 0hPa | 4V | 00:00:00 | 00:00:00 | 00:00:00 | |
| DO8TBO-1 | 2026-08-31 07:57:15 | 50.12622 | 8.76467 | 45° | 20km/h | 18703m | 3.0m/s | 0°C | 0% | 0hPa | 0V | 00:00:00 | 00:00:00 | 00:00:00 | |
| DL1NUX | 2026-08-31 07:57:14 | 50.12589 | 8.76445 | 42° | 20km/h | 18677m | 5.1m/s | 0°C | 0% | 0hPa | 0V | 00:00:00 | 00:00:00 | 00:00:00 | |
| DK7TD | 2026-08-31 07:57:14 | 50.12614 | 8.76454 | 26° | 24km/h | 18699m | 4.4m/s | -53°C | 0% | 0hPa | 4V | 00:00:00 | 00:00:00 | 00:00:00 | |
| DM7RM-13 | 2026-08-31 07:57:14 | 50.12619 | 8.76454 | 27° | 26km/h | 18699m | 4.4m/s | 0°C | 0% | 0hPa | 4V | 00:00:00 | 00:00:00 | 00:00:00 | |
| DO3DL | 2026-08-31 07:57:13 | 50.12614 | 8.76454 | 27° | 24km/h | 18699m | 4.4m/s | -53.0°C | 0% | 0hPa | 4V | 00:00:00 | 00:00:00 | 00:00:00 | |
| DF8AY | 2026-08-31 07:57:12 | 50.12602 | 8.76451 | 360° | 31km/h | 18690m | 4.4m/s | -53.1°C | 0% | 0hPa | 4V | 00:00:00 | 00:00:00 | 00:00:00 | |
| DM0DOS-11 | 2026-08-31 07:57:10 | 50.12575 | 8.76428 | 15° | 33km/h | 18660m | 5.3m/s | 0°C | 0% | 0hPa | 0V | 00:00:00 | 00:00:00 | 00:00:00 | |
| DB0NH | 2026-08-31 07:57:10 | 50.12594 | 8.76449 | 43° | 20km/h | 18682m | 4.4m/s | 0°C | 0% | 0hPa | 4V | 00:00:00 | 00:00:00 | 00:00:00 | |
| BIOWL1-15 | 2026-08-31 07:57:07 | 50.12585 | 8.76437 | 39° | 13km/h | 18672m | 3.5m/s | -53°C | 0% | 0hPa | 4V | 00:00:00 | 00:00:00 | 00:00:00 | |
| DO3MHA-11 | 2026-08-31 07:57:06 | 50.12582 | 8.76432 | 34° | 22km/h | 18664m | 3.2m/s | 0°C | 0% | 0hPa | 4V | 00:00:00 | 00:00:00 | 00:00:00 | |
| DL1XH-west | 2026-08-31 07:57:05 | 50.12575 | 8.76428 | 16° | 33km/h | 18664m | 3.2m/s | -53.1°C | 0% | 0hPa | 4V | 00:00:00 | 00:00:00 | 00:00:00 | |
| DF1GD-15 | 2026-08-31 07:57:04 | 50.12568 | 8.76427 | 359° | 27km/h | 18660m | 5.3m/s | -53.1°C | 0% | 0hPa | 4V | 00:00:00 | 00:00:00 | 00:00:00 | |
| DK7TD | 2026-08-31 07:57:03 | 50.12560 | 8.76429 | 46° | 7km/h | 18651m | 4.8m/s | -53.1°C | 0% | 0hPa | 4V | 00:00:00 | 00:00:00 | 00:00:00 | |
| DO2KSM | 2026-08-31 07:57:02 | 50.12560 | 8.76429 | 47° | 7km/h | 18651m | 4.8m/s | -53.1°C | 0% | 0hPa | 4V | 00:00:00 | 00:00:00 | 00:00:00 | |
| DF8AY | 2026-08-31 07:57:01 | 50.12555 | 8.76418 | 38° | 22km/h | 18642m | 3.4m/s | -53.1°C | 0% | 0hPa | 4V | 00:00:00 | 00:00:00 | 00:00:00 | |
| DO3DL | 2026-08-31 07:57:00 | 50.12555 | 8.76418 | 39° | 22km/h | 18642m | 3.4m/s | -53.1°C | 0% | 0hPa | 4V | 00:00:00 | 00:00:00 | 00:00:00 | |
| BIOWL1-15 | 2026-08-31 07:56:59 | 50.12535 | 8.76413 | 37° | 26km/h | 18625m | 4.8m/s | -53°C | 0% | 0hPa | 4V | 00:00:00 | 00:00:00 | 00:00:00 | |
| DL1XH-15 | 2026-08-31 07:56:58 | 50.12530 | 8.76399 | 76° | 11km/h | 18612m | 3.1m/s | 0°C | 0% | 0hPa | 0V | 00:00:00 | 00:00:00 | 00:00:00 | |
| DF2AP-13 | 2026-08-31 07:56:57 | 50.12540 | 8.76418 | 66° | 22km/h | 18625m | 4.7m/s | 0°C | 0% | 0hPa | 4V | 00:00:00 | 00:00:00 | 00:00:00 | |
| DO3MHA-11 | 2026-08-31 07:56:56 | 50.12535 | 8.76412 | 38° | 18km/h | 18621m | 4.2m/s | 0°C | 0% | 0hPa | 4V | 00:00:00 | 00:00:00 | 00:00:00 | |
| DL1XH-west | 2026-08-31 07:56:55 | 50.12530 | 8.76399 | 76° | 11km/h | 18616m | 5.3m/s | -53°C | 0% | 0hPa | 4V | 00:00:00 | 00:00:00 | 00:00:00 | |
| DK7TD | 2026-08-31 07:56:53 | 50.12526 | 8.76394 | 27° | 18km/h | 18607m | 6m/s | -53°C | 0% | 0hPa | 4V | 00:00:00 | 00:00:00 | 00:00:00 | |
| HEMX73-11 | 2026-08-31 07:56:51 | 50.12520 | 8.76389 | 31° | 33km/h | 18603m | 4.0m/s | -53.0°C | 0% | 0hPa | 0V | 00:00:00 | 00:00:00 | 00:00:00 | |
| DL1NUX | 2026-08-31 07:56:50 | 50.12510 | 8.76379 | 58° | 9km/h | 18589m | 4.4m/s | 0°C | 0% | 0hPa | 0V | 00:00:00 | 00:00:00 | 00:00:00 | |
| DF8AY | 2026-08-31 07:56:50 | 50.12510 | 8.76379 | 58° | 9km/h | 18594m | 6.1m/s | -53°C | 0% | 0hPa | 4V | 00:00:00 | 00:00:00 | 00:00:00 | |
| DB0UT-7 | 2026-08-31 07:56:49 | 50.12510 | 8.76379 | 59° | 22km/h | 18589m | 4.3m/s | 0°C | 0% | 0hPa | 4V | 00:00:00 | 00:00:00 | 00:00:00 | |
| DO3DL | 2026-08-31 07:56:47 | 50.12510 | 8.76370 | 65° | 18km/h | 18585m | 4.9m/s | -53.0°C | 0% | 0hPa | 4V | 00:00:00 | 00:00:00 | 00:00:00 | |
| BIOWL1-15 | 2026-08-31 07:56:46 | 50.12500 | 8.76356 | 29° | 29km/h | 18576m | 4.4m/s | -53.1°C | 0% | 0hPa | 4V | 00:00:00 | 00:00:00 | 00:00:00 | |
| DO8TBO-1 | 2026-08-31 07:56:45 | 50.12499 | 8.76356 | 29° | 22km/h | 18572m | 4.3m/s | 0°C | 0% | 0hPa | 0V | 00:00:00 | 00:00:00 | 00:00:00 | |
| DL1NUX | 2026-08-31 07:56:44 | 50.12479 | 8.76319 | 41° | 18km/h | 18546m | 2.8m/s | 0°C | 0% | 0hPa | 0V | 00:00:00 | 00:00:00 | 00:00:00 | |
| DL1XH-west | 2026-08-31 07:56:44 | 50.12492 | 8.76350 | 55° | 11km/h | 18568m | 3.4m/s | -53.1°C | 0% | 0hPa | 4V | 00:00:00 | 00:00:00 | 00:00:00 | |
| DJTTGO | 2026-08-31 07:56:43 | 50.12492 | 8.76350 | 56° | 11km/h | 18568m | 3.4m/s | -53.1°C | 0% | 0hPa | 4V | 00:00:00 | 00:00:00 | 00:00:00 | |
| DK7TD | 2026-08-31 07:56:42 | 50.12486 | 8.76336 | 62° | 31km/h | 18559m | 3.4m/s | -53.2°C | 0% | 0hPa | 4V | 00:00:00 | 00:00:00 | 00:00:00 | |
| DO3DL | 2026-08-31 07:56:41 | 50.12486 | 8.76336 | 63° | 31km/h | 18559m | 3.4m/s | -53.2°C | 0% | 0hPa | 4V | 00:00:00 | 00:00:00 | 00:00:00 | |
| DO2JMG | 2026-08-31 07:56:40 | 50.12479 | 8.76319 | 42° | 18km/h | 18550m | 5.2m/s | -53.2°C | 0% | 0hPa | 4V | 00:00:00 | 00:00:00 | 00:00:00 | |
| DL1XH-15 | 2026-08-31 07:56:38 | 50.12462 | 8.76281 | 48° | 887km/h | 18525m | 4.3m/s | 0°C | 0% | 0hPa | 0V | 00:00:00 | 00:00:00 | 00:00:00 | |
| DO3MHA-11 | 2026-08-31 07:56:36 | 50.12468 | 8.76299 | 65° | 24km/h | 18533m | 4.9m/s | 0°C | 0% | 0hPa | 4V | 00:00:00 | 00:00:00 | 00:00:00 | |
| BIOWL1-15 | 2026-08-31 07:56:35 | 50.12462 | 8.76281 | 48° | 16km/h | 18528m | 3.9m/s | -53.1°C | 0% | 0hPa | 4V | 00:00:00 | 00:00:00 | 00:00:00 | |
| CB1BUN | 2026-08-31 07:56:34 | 50.12462 | 8.76281 | 49° | 16km/h | 18529m | 3.9m/s | -53.1°C | 0% | 0hPa | 4V | 00:00:00 | 00:00:00 | 00:00:00 | |
| HSKMA3-T | 2026-08-31 07:56:33 | 50.12455 | 8.76271 | 52° | 26km/h | 18520m | 5.1m/s | -53°C | 0% | 0hPa | 4V | 00:00:00 | 00:00:00 | 00:00:00 | |
| DK7TD | 2026-08-31 07:56:31 | 50.12447 | 8.76255 | 50° | 20km/h | 18511m | 5.5m/s | -53°C | 0% | 0hPa | 4V | 00:00:00 | 00:00:00 | 00:00:00 | |
| DF8AY | 2026-08-31 07:56:29 | 50.12442 | 8.76243 | 65° | 22km/h | 18501m | 5.7m/s | -53°C | 0% | 0hPa | 4V | 00:00:00 | 00:00:00 | 00:00:00 | |
| DL1XH-15 | 2026-08-31 07:56:28 | 50.12429 | 8.76222 | 37° | 18km/h | 18479m | 5.6m/s | 0°C | 0% | 0hPa | 0V | 00:00:00 | 00:00:00 | 00:00:00 | |
| SO1NDE-10 | 2026-08-31 07:56:27 | 50.12440 | 8.76231 | 45° | 22km/h | 18493m | 5.7m/s | 0°C | 0% | 0hPa | 4V | 00:00:00 | 00:00:00 | 00:00:00 | |
| DO2JMG | 2026-08-31 07:56:26 | 50.12436 | 8.76227 | 44° | 20km/h | 18493m | 5.7m/s | -53°C | 0% | 0hPa | 4V | 00:00:00 | 00:00:00 | 00:00:00 | |
| DO3MHA-11 | 2026-08-31 07:56:26 | 50.12436 | 8.76227 | 45° | 22km/h | 18488m | 4.6m/s | 0°C | 0% | 0hPa | 4V | 00:00:00 | 00:00:00 | 00:00:00 | |
| BIOWL1-15 | 2026-08-31 07:56:24 | 50.12429 | 8.76222 | 38° | 18km/h | 18483m | 3.8m/s | -53°C | 0% | 0hPa | 4V | 00:00:00 | 00:00:00 | 00:00:00 | |
| DL1NUX | 2026-08-31 07:56:23 | 50.12411 | 8.76188 | 44° | 20km/h | 18456m | 4.3m/s | 0°C | 0% | 0hPa | 0V | 00:00:00 | 00:00:00 | 00:00:00 | |
| DL1XH-west | 2026-08-31 07:56:21 | 50.12418 | 8.76198 | 54° | 20km/h | 18469m | 5m/s | -53°C | 0% | 0hPa | 4V | 00:00:00 | 00:00:00 | 00:00:00 | |
| DO3DL | 2026-08-31 07:56:21 | 50.12418 | 8.76198 | 55° | 20km/h | 18469m | 5.0m/s | -53.0°C | 0% | 0hPa | 4V | 00:00:00 | 00:00:00 | 00:00:00 | |
| DK7TD | 2026-08-31 07:56:20 | 50.12412 | 8.76188 | 45° | 20km/h | 18461m | 5.3m/s | -53°C | 0% | 0hPa | 4V | 00:00:00 | 00:00:00 | 00:00:00 | |
| DF8AY | 2026-08-31 07:56:18 | 50.12403 | 8.76172 | 53° | 26km/h | 18452m | 3.4m/s | -53°C | 0% | 0hPa | 4V | 00:00:00 | 00:00:00 | 00:00:00 | |
| DO2JMG | 2026-08-31 07:56:16 | 50.12396 | 8.76162 | 38° | 16km/h | 18443m | 3.9m/s | -53°C | 0% | 0hPa | 4V | 00:00:00 | 00:00:00 | 00:00:00 | |
| DO8TBO-1 | 2026-08-31 07:56:15 | 50.12395 | 8.76162 | 38° | 20km/h | 18438m | 5.6m/s | 0°C | 0% | 0hPa | 4V | 00:00:00 | 00:00:00 | 00:00:00 | |
| BIOWL1-15 | 2026-08-31 07:56:14 | 50.12389 | 8.76149 | 61° | 29km/h | 18433m | 3.5m/s | -53°C | 0% | 0hPa | 4V | 00:00:00 | 00:00:00 | 00:00:00 | |
| DL1NUX | 2026-08-31 07:56:13 | 50.12370 | 8.76127 | 60° | 22km/h | 18409m | 3.1m/s | 0°C | 0% | 0hPa | 0V | 00:00:00 | 00:00:00 | 00:00:00 | |
| DM7RM-13 | 2026-08-31 07:56:12 | 50.12384 | 8.76140 | 46° | 27km/h | 18429m | 5.1m/s | 0°C | 0% | 0hPa | 4V | 00:00:00 | 00:00:00 | 00:00:00 | |
| DL1XH-west | 2026-08-31 07:56:11 | 50.12379 | 8.76135 | 17° | 24km/h | 18423m | 5m/s | -53°C | 0% | 0hPa | 4V | 00:00:00 | 00:00:00 | 00:00:00 | |
| NBG1-10 | 2026-08-31 07:56:11 | 50.12379 | 8.76134 | 18° | 20km/h | 18419m | 4.2m/s | 0°C | 0% | 0hPa | 4V | 00:00:00 | 00:00:00 | 00:00:00 | |
| DK7TD | 2026-08-31 07:56:10 | 50.12369 | 8.76127 | 61° | 22km/h | 18414m | 5.3m/s | -52.9°C | 0% | 0hPa | 4V | 00:00:00 | 00:00:00 | 00:00:00 | |
| DL1XH-15 | 2026-08-31 07:56:08 | 50.12353 | 8.76099 | 46° | 29km/h | 18387m | 3.6m/s | 0°C | 0% | 0hPa | 0V | 00:00:00 | 00:00:00 | 00:00:00 | |
| DF8AY | 2026-08-31 07:56:07 | 50.12363 | 8.76108 | 23° | 16km/h | 18401m | 4.2m/s | -52.8°C | 0% | 0hPa | 4V | 00:00:00 | 00:00:00 | 00:00:00 | |
| BIOWL1-15 | 2026-08-31 07:56:06 | 50.12345 | 8.76084 | 36° | 18km/h | 18382m | 5.9m/s | -52.7°C | 0% | 0hPa | 4V | 00:00:00 | 00:00:00 | 00:00:00 | |
| DO2JMG | 2026-08-31 07:56:04 | 50.12353 | 8.76099 | 46° | 29km/h | 18391m | 5m/s | -52.8°C | 0% | 0hPa | 4V | 00:00:00 | 00:00:00 | 00:00:00 | |
| DF1GD-15 | 2026-08-31 07:56:03 | 50.12349 | 8.76090 | 52° | 27km/h | 18387m | 3.6m/s | -52.8°C | 0% | 0hPa | 4V | 00:00:00 | 00:00:00 | 00:00:00 | |
| DO3DL | 2026-08-31 07:56:02 | 50.12345 | 8.76084 | 37° | 18km/h | 18382m | 5.9m/s | -52.7°C | 0% | 0hPa | 4V | 00:00:00 | 00:00:00 | 00:00:00 | |
| DO2KSM | 2026-08-31 07:56:01 | 50.12341 | 8.76081 | 32° | 11km/h | 18378m | 3.4m/s | -52.7°C | 0% | 0hPa | 4V | 00:00:00 | 00:00:00 | 00:00:00 | |
| HSKMA3-T | 2026-08-31 07:56:00 | 50.12339 | 8.76079 | 49° | 13km/h | 18373m | 4.7m/s | -52.6°C | 0% | 0hPa | 4V | 00:00:00 | 00:00:00 | 00:00:00 | |
| DK7TD | 2026-08-31 07:55:59 | 50.12332 | 8.76066 | 39° | 26km/h | 18365m | 4.9m/s | -52.6°C | 0% | 0hPa | 4V | 00:00:00 | 00:00:00 | 00:00:00 | |
| DL1XH-15 | 2026-08-31 07:55:58 | 50.12323 | 8.76045 | 65° | 20km/h | 18346m | 3.5m/s | 0°C | 0% | 0hPa | 0V | 00:00:00 | 00:00:00 | 00:00:00 | |
| SO1NDE-10 | 2026-08-31 07:55:57 | 50.12327 | 8.76062 | 24° | 18km/h | 18356m | 3.3m/s | 0°C | 0% | 0hPa | 4V | 00:00:00 | 00:00:00 | 00:00:00 | |
| DF8AY | 2026-08-31 07:55:56 | 50.12322 | 8.76058 | 42° | 18km/h | 18356m | 3.3m/s | -52.6°C | 0% | 0hPa | 4V | 00:00:00 | 00:00:00 | 00:00:00 | |
| DO3MHA-11 | 2026-08-31 07:55:56 | 50.12322 | 8.76058 | 42° | 20km/h | 18351m | 5.9m/s | 0°C | 0% | 0hPa | 4V | 00:00:00 | 00:00:00 | 00:00:00 | |
| DO3DL | 2026-08-31 07:55:55 | 50.12319 | 8.76052 | 68° | 18km/h | 18351m | 5.9m/s | -52.6°C | 0% | 0hPa | 4V | 00:00:00 | 00:00:00 | 00:00:00 | |
| DO2JMG | 2026-08-31 07:55:54 | 50.12316 | 8.76040 | 24° | 13km/h | 18342m | 5.7m/s | -52.4°C | 0% | 0hPa | 4V | 00:00:00 | 00:00:00 | 00:00:00 | |
| CB1BUN | 2026-08-31 07:55:54 | 50.12316 | 8.76040 | 25° | 13km/h | 18342m | 5.7m/s | -52.4°C | 0% | 0hPa | 0V | 00:00:00 | 00:00:00 | 00:00:00 | |
| DL1NUX | 2026-08-31 07:55:52 | 50.12297 | 8.76023 | 44° | 24km/h | 18318m | 4.8m/s | 0°C | 0% | 0hPa | 0V | 00:00:00 | 00:00:00 | 00:00:00 | |
| BIOWL1-15 | 2026-08-31 07:55:51 | 50.12306 | 8.76036 | 24° | 26km/h | 18333m | 5.6m/s | -52.4°C | 0% | 0hPa | 4V | 00:00:00 | 00:00:00 | 00:00:00 | |
| BEGRI65-1 | 2026-08-31 07:55:51 | 50.12306 | 8.76036 | 25° | 26km/h | 18323m | 5.4m/s | -52.3°C | 0% | 0hPa | 4V | 00:00:00 | 00:00:00 | 00:00:00 | |
| DL1XH-west | 2026-08-31 07:55:50 | 50.12297 | 8.76023 | 45° | 24km/h | 18323m | 5.5m/s | -52.3°C | 0% | 0hPa | 4V | 00:00:00 | 00:00:00 | 00:00:00 | |
| DB0UT-7 | 2026-08-31 07:55:49 | 50.12297 | 8.76023 | 45° | 18km/h | 18319m | 4.7m/s | 0°C | 0% | 0hPa | 4V | 00:00:00 | 00:00:00 | 00:00:00 | |
| DK7TD | 2026-08-31 07:55:48 | 50.12289 | 8.76015 | 43° | 16km/h | 18314m | 4m/s | -52.3°C | 0% | 0hPa | 4V | 00:00:00 | 00:00:00 | 00:00:00 | |
| DF8AY | 2026-08-31 07:55:46 | 50.12282 | 8.76003 | 37° | 24km/h | 18305m | 3.8m/s | -52.2°C | 0% | 0hPa | 4V | 00:00:00 | 00:00:00 | 00:00:00 | |
| BIOWL1-15 | 2026-08-31 07:55:45 | 50.12264 | 8.75990 | 58° | 26km/h | 18286m | 5.4m/s | -52.1°C | 0% | 0hPa | 4V | 00:00:00 | 00:00:00 | 00:00:00 | |
| DO8TBO-1 | 2026-08-31 07:55:45 | 50.12282 | 8.76003 | 38° | 18km/h | 18300m | 6.1m/s | 0°C | 0% | 0hPa | 4V | 00:00:00 | 00:00:00 | 00:00:00 | |
| DO2JMG | 2026-08-31 07:55:43 | 50.12272 | 8.75997 | 11° | 18km/h | 18296m | 3m/s | -52.1°C | 0% | 0hPa | 4V | 00:00:00 | 00:00:00 | 00:00:00 | |
| DL1NUX | 2026-08-31 07:55:42 | 50.12259 | 8.75977 | 25° | 16km/h | 18277m | 5.4m/s | 0°C | 0% | 0hPa | 0V | 00:00:00 | 00:00:00 | 00:00:00 | |
| DB0NH | 2026-08-31 07:55:40 | 50.12261 | 8.75982 | 58° | 18km/h | 18277m | 5.3m/s | 0°C | 0% | 0hPa | 4V | 00:00:00 | 00:00:00 | 00:00:00 | |
| DL1XH-west | 2026-08-31 07:55:38 | 50.12255 | 8.75976 | 17° | 16km/h | 18272m | 4.2m/s | -52°C | 0% | 0hPa | 4V | 00:00:00 | 00:00:00 | 00:00:00 | |
| DL1XH-15 | 2026-08-31 07:55:38 | 50.12239 | 8.75961 | 45° | 7km/h | 18249m | 4.9m/s | 0°C | 0% | 0hPa | 0V | 00:00:00 | 00:00:00 | 00:00:00 | |
| NBG1-10 | 2026-08-31 07:55:38 | 50.12255 | 8.75975 | 18° | 20km/h | 18267m | 4.9m/s | 0°C | 0% | 0hPa | 4V | 00:00:00 | 00:00:00 | 00:00:00 | |
| DK7TD | 2026-08-31 07:55:37 | 50.12245 | 8.75968 | 37° | 24km/h | 18263m | 3.6m/s | -51.8°C | 0% | 0hPa | 4V | 00:00:00 | 00:00:00 | 00:00:00 | |
| DO3MHA-11 | 2026-08-31 07:55:36 | 50.12245 | 8.75968 | 38° | 16km/h | 18258m | 5.4m/s | 0°C | 0% | 0hPa | 4V | 00:00:00 | 00:00:00 | 00:00:00 | |
| DF8AY | 2026-08-31 07:55:35 | 50.12239 | 8.75961 | 46° | 7km/h | 18253m | 4m/s | -51.8°C | 0% | 0hPa | 4V | 00:00:00 | 00:00:00 | 00:00:00 | |
| BIOWL1-15 | 2026-08-31 07:55:33 | 50.12224 | 8.75940 | 15° | 18km/h | 18235m | 5.7m/s | -51.8°C | 0% | 0hPa | 4V | 00:00:00 | 00:00:00 | 00:00:00 | |
| DO2JMG | 2026-08-31 07:55:32 | 50.12234 | 8.75951 | 55° | 26km/h | 18244m | 5.1m/s | -51.9°C | 0% | 0hPa | 4V | 00:00:00 | 00:00:00 | 00:00:00 | |
| DM7RM-13 | 2026-08-31 07:55:31 | 50.12229 | 8.75944 | 41° | 27km/h | 18240m | 3.7m/s | 0°C | 0% | 0hPa | 4V | 00:00:00 | 00:00:00 | 00:00:00 | |
| HEMX73-11 | 2026-08-31 07:55:30 | 50.12221 | 8.75939 | 26° | 11km/h | 18230m | 3.5m/s | -51.8°C | 0% | 0hPa | 4V | 00:00:00 | 00:00:00 | 00:00:00 | |
| DO3DL | 2026-08-31 07:55:29 | 50.12221 | 8.75939 | 26° | 11km/h | 18230m | 3.5m/s | -51.8°C | 0% | 0hPa | 4V | 00:00:00 | 00:00:00 | 00:00:00 | |
| DL1XH-west | 2026-08-31 07:55:28 | 50.12218 | 8.75937 | 63° | 11km/h | 18225m | 5.9m/s | -51.8°C | 0% | 0hPa | 4V | 00:00:00 | 00:00:00 | 00:00:00 | |
| SO1NDE-10 | 2026-08-31 07:55:27 | 50.12217 | 8.75931 | 73° | 20km/h | 18216m | 4.9m/s | 0°C | 0% | 0hPa | 4V | 00:00:00 | 00:00:00 | 00:00:00 | |
| DK7TD | 2026-08-31 07:55:26 | 50.12212 | 8.75917 | 34° | 16km/h | 18211m | 4.9m/s | -51.8°C | 0% | 0hPa | 4V | 00:00:00 | 00:00:00 | 00:00:00 | |
| DO3MHA-11 | 2026-08-31 07:55:26 | 50.12215 | 8.75920 | 35° | 18km/h | 18211m | 4.8m/s | 0°C | 0% | 0hPa | 4V | 00:00:00 | 00:00:00 | 00:00:00 | |
| DF8AY | 2026-08-31 07:55:25 | 50.12204 | 8.75908 | 47° | 22km/h | 18201m | 5.2m/s | -51.8°C | 0% | 0hPa | 4V | 00:00:00 | 00:00:00 | 00:00:00 | |
| DL1NUX | 2026-08-31 07:55:24 | 50.12195 | 8.75887 | 55° | 20km/h | 18178m | 3.8m/s | 0°C | 0% | 0hPa | 0V | 00:00:00 | 00:00:00 | 00:00:00 | |
| DO3DL | 2026-08-31 07:55:23 | 50.12204 | 8.75908 | 48° | 22km/h | 18202m | 5.2m/s | -51.8°C | 0% | 0hPa | 4V | 00:00:00 | 00:00:00 | 00:00:00 | |
| DO2JMG | 2026-08-31 07:55:22 | 50.12199 | 8.75896 | 55° | 13km/h | 18192m | 6m/s | -51.7°C | 0% | 0hPa | 4V | 00:00:00 | 00:00:00 | 00:00:00 | |
| BIOWL1-15 | 2026-08-31 07:55:20 | 50.12195 | 8.75887 | 56° | 20km/h | 18183m | 5.8m/s | -51.7°C | 0% | 0hPa | 4V | 00:00:00 | 00:00:00 | 00:00:00 | |
| DB0UT-7 | 2026-08-31 07:55:19 | 50.12195 | 8.75887 | 56° | 22km/h | 18170m | 5.2m/s | 0°C | 0% | 0hPa | 4V | 00:00:00 | 00:00:00 | 00:00:00 | |
| DL1XH-west | 2026-08-31 07:55:18 | 50.12188 | 8.75870 | 52° | 24km/h | 18174m | 4m/s | -51.6°C | 0% | 0hPa | 4V | 00:00:00 | 00:00:00 | 00:00:00 | |
| DO3DL | 2026-08-31 07:55:17 | 50.12188 | 8.75870 | 53° | 24km/h | 18174m | 4.0m/s | -51.6°C | 0% | 0hPa | 4V | 00:00:00 | 00:00:00 | 00:00:00 | |
| DO3MHA-11 | 2026-08-31 07:55:16 | 50.12185 | 8.75866 | 99° | 20km/h | 18166m | 2.1m/s | 0°C | 0% | 0hPa | 4V | 00:00:00 | 00:00:00 | 00:00:00 | |
| DK7TD | 2026-08-31 07:55:16 | 50.12183 | 8.75861 | 98° | 7km/h | 18165m | 2.2m/s | -51.6°C | 0% | 0hPa | 4V | 00:00:00 | 00:00:00 | 00:00:00 | |
| DO8TBO-1 | 2026-08-31 07:55:15 | 50.12183 | 8.75861 | 99° | 20km/h | 18162m | 6.4m/s | 0°C | 0% | 0hPa | 4V | 00:00:00 | 00:00:00 | 00:00:00 | |
| DF8AY | 2026-08-31 07:55:14 | 50.12184 | 8.75847 | 98° | 33km/h | 18156m | 4.7m/s | -51.5°C | 0% | 0hPa | 4V | 00:00:00 | 00:00:00 | 00:00:00 | |
| CB1BUN | 2026-08-31 07:55:13 | 50.12184 | 8.75836 | 71° | 27km/h | 18152m | 2.8m/s | -51.5°C | 0% | 0hPa | 4V | 00:00:00 | 00:00:00 | 00:00:00 | |
| DO2JMG | 2026-08-31 07:55:11 | 50.12177 | 8.75829 | 320° | 15km/h | 18141m | 3.4m/s | -51.5°C | 0% | 0hPa | 4V | 00:00:00 | 00:00:00 | 00:00:00 | |
| DB0NH | 2026-08-31 07:55:10 | 50.12177 | 8.75829 | 321° | 22km/h | 18138m | 3.6m/s | 0°C | 0% | 0hPa | 4V | 00:00:00 | 00:00:00 | 00:00:00 | |
| BIOWL1-15 | 2026-08-31 07:55:09 | 50.12177 | 8.75826 | 109° | 24km/h | 18133m | 6.4m/s | -51.4°C | 0% | 0hPa | 4V | 00:00:00 | 00:00:00 | 00:00:00 | |
| DL1XH-15 | 2026-08-31 07:55:08 | 50.12170 | 8.75788 | 9° | 11km/h | 18109m | 4m/s | 0°C | 0% | 0hPa | 0V | 00:00:00 | 00:00:00 | 00:00:00 | |
| DL1XH-west | 2026-08-31 07:55:07 | 50.12177 | 8.75799 | 70° | 33km/h | 18124m | 3.7m/s | -51.3°C | 0% | 0hPa | 4V | 00:00:00 | 00:00:00 | 00:00:00 | |
| DO3MHA-11 | 2026-08-31 07:55:06 | 50.12177 | 8.75799 | 71° | 18km/h | 18119m | 5.5m/s | 0°C | 0% | 0hPa | 4V | 00:00:00 | 00:00:00 | 00:00:00 | |
| DK7TD | 2026-08-31 07:55:05 | 50.12170 | 8.75788 | 10° | 11km/h | 18114m | 5.4m/s | -51.4°C | 0% | 0hPa | 4V | 00:00:00 | 00:00:00 | 00:00:00 | |
| DJTTGO | 2026-08-31 07:55:04 | 50.12169 | 8.75788 | 11° | 11km/h | 18114m | 5.4m/s | -51.4°C | 0% | 0hPa | 4V | 00:00:00 | 00:00:00 | 00:00:00 | |
| DF8AY | 2026-08-31 07:55:03 | 50.12170 | 8.75783 | 99° | 18km/h | 18105m | 3.4m/s | -51.4°C | 0% | 0hPa | 4V | 00:00:00 | 00:00:00 | 00:00:00 | |
| DO2JMG | 2026-08-31 07:55:01 | 50.12168 | 8.75768 | 56° | 24km/h | 18096m | 5.4m/s | -51.4°C | 0% | 0hPa | 4V | 00:00:00 | 00:00:00 | 00:00:00 | |
| BIOWL1-15 | 2026-08-31 07:55:00 | 50.12165 | 8.75746 | 95° | 18km/h | 18082m | 3.4m/s | -51.4°C | 0% | 0hPa | 4V | 00:00:00 | 00:00:00 | 00:00:00 | |
| DO2KSM | 2026-08-31 07:54:59 | 50.12165 | 8.75760 | 66° | 22km/h | 18092m | 4.4m/s | -51.4°C | 0% | 0hPa | 4V | 00:00:00 | 00:00:00 | 00:00:00 | |
| SO1NDE-10 | 2026-08-31 07:54:57 | 50.12164 | 8.75746 | 95° | 26km/h | 18078m | 5.5m/s | 0°C | 0% | 0hPa | 4V | 00:00:00 | 00:00:00 | 00:00:00 | |
| DL1XH-west | 2026-08-31 07:54:56 | 50.12163 | 8.75731 | 59° | 26km/h | 18073m | 4.6m/s | -51.4°C | 0% | 0hPa | 4V | 00:00:00 | 00:00:00 | 00:00:00 | |
| DL1NUX | 2026-08-31 07:54:54 | 50.12152 | 8.75681 | 79° | 20km/h | 18040m | 3.5m/s | 0°C | 0% | 0hPa | 0V | 00:00:00 | 00:00:00 | 00:00:00 | |
| DK7TD | 2026-08-31 07:54:54 | 50.12159 | 8.75713 | 87° | 24km/h | 18063m | 4.6m/s | -51.4°C | 0% | 0hPa | 4V | 00:00:00 | 00:00:00 | 00:00:00 | |
| DF8AY | 2026-08-31 07:54:52 | 50.12157 | 8.75696 | 60° | 22km/h | 18054m | 5m/s | -51.4°C | 0% | 0hPa | 4V | 00:00:00 | 00:00:00 | 00:00:00 | |
| DO3DL | 2026-08-31 07:54:51 | 50.12157 | 8.75696 | 61° | 22km/h | 18054m | 5.0m/s | -51.4°C | 0% | 0hPa | 4V | 00:00:00 | 00:00:00 | 00:00:00 | |
| DO2JMG | 2026-08-31 07:54:50 | 50.12152 | 8.75681 | 80° | 20km/h | 18044m | 5.4m/s | -51.4°C | 0% | 0hPa | 4V | 00:00:00 | 00:00:00 | 00:00:00 | |
| BIOWL1-15 | 2026-08-31 07:54:50 | 50.12150 | 8.75663 | 67° | 26km/h | 18036m | 5.8m/s | -51.4°C | 0% | 0hPa | 4V | 00:00:00 | 00:00:00 | 00:00:00 | |
| HEMX73-11 | 2026-08-31 07:54:49 | 50.12151 | 8.75673 | 83° | 22km/h | 18041m | 3.5m/s | -51.4°C | 0% | 0hPa | 0V | 00:00:00 | 00:00:00 | 00:00:00 | |
| DL1XH-15 | 2026-08-31 07:54:47 | 50.12139 | 8.75616 | 59° | 31km/h | 18008m | 2.8m/s | 0°C | 0% | 0hPa | 0V | 00:00:00 | 00:00:00 | 00:00:00 | |
| DO3MHA-11 | 2026-08-31 07:54:46 | 50.12147 | 8.75654 | 56° | 27km/h | 18026m | 5.3m/s | 0°C | 0% | 0hPa | 4V | 00:00:00 | 00:00:00 | 00:00:00 | |
| DL1XH-west | 2026-08-31 07:54:45 | 50.12143 | 8.75645 | 68° | 26km/h | 18026m | 5.3m/s | -51.7°C | 0% | 0hPa | 4V | 00:00:00 | 00:00:00 | 00:00:00 | |
| DO8TBO-1 | 2026-08-31 07:54:45 | 50.12143 | 8.75645 | 68° | 26km/h | 18022m | 3.2m/s | 0°C | 0% | 0hPa | 4V | 00:00:00 | 00:00:00 | 00:00:00 | |
| DO3DL | 2026-08-31 07:54:44 | 50.12142 | 8.75635 | 88° | 22km/h | 18022m | 3.2m/s | -51.8°C | 0% | 0hPa | 4V | 00:00:00 | 00:00:00 | 00:00:00 | |
| DK7TD | 2026-08-31 07:54:43 | 50.12139 | 8.75616 | 60° | 31km/h | 18012m | 5.4m/s | -52°C | 0% | 0hPa | 4V | 00:00:00 | 00:00:00 | 00:00:00 | |
| DF8AY | 2026-08-31 07:54:41 | 50.12132 | 8.75594 | 78° | 29km/h | 18004m | 6m/s | -52°C | 0% | 0hPa | 4V | 00:00:00 | 00:00:00 | 00:00:00 | |
| DB0NH | 2026-08-31 07:54:40 | 50.12132 | 8.75594 | 78° | 26km/h | 17999m | 4.2m/s | 0°C | 0% | 0hPa | 0V | 00:00:00 | 00:00:00 | 00:00:00 | |
| DM0DOS-11 | 2026-08-31 07:54:39 | 50.12128 | 8.75532 | 83° | 31km/h | 17972m | 4.5m/s | 0°C | 0% | 0hPa | 0V | 00:00:00 | 00:00:00 | 00:00:00 | |
| DO2JMG | 2026-08-31 07:54:38 | 50.12132 | 8.75572 | 85° | 27km/h | 17994m | 5m/s | -52°C | 0% | 0hPa | 4V | 00:00:00 | 00:00:00 | 00:00:00 | |
| DO3DL | 2026-08-31 07:54:38 | 50.12132 | 8.75572 | 86° | 27km/h | 17994m | 5.0m/s | -52.0°C | 0% | 0hPa | 0V | 00:00:00 | 00:00:00 | 00:00:00 | |
| DL1XH-15 | 2026-08-31 07:54:37 | 50.12123 | 8.75509 | 70° | 27km/h | 17963m | 5.4m/s | 0°C | 0% | 0hPa | 0V | 00:00:00 | 00:00:00 | 00:00:00 | |
| BIOWL1-15 | 2026-08-31 07:54:37 | 50.12128 | 8.75553 | 78° | 24km/h | 17985m | 5.4m/s | -52°C | 0% | 0hPa | 4V | 00:00:00 | 00:00:00 | 00:00:00 | |
| DO3MHA-11 | 2026-08-31 07:54:36 | 50.12128 | 8.75553 | 78° | 27km/h | 17981m | 3.6m/s | 0°C | 0% | 0hPa | 4V | 00:00:00 | 00:00:00 | 00:00:00 | |
| DL1XH-west | 2026-08-31 07:54:34 | 50.12128 | 8.75532 | 84° | 31km/h | 17977m | 4.9m/s | -51.9°C | 0% | 0hPa | 4V | 00:00:00 | 00:00:00 | 00:00:00 | |
| DL1NUX | 2026-08-31 07:54:33 | 50.12123 | 8.75485 | 82° | 24km/h | 17950m | 3.7m/s | 0°C | 0% | 0hPa | 0V | 00:00:00 | 00:00:00 | 00:00:00 | |
| DK7TD | 2026-08-31 07:54:33 | 50.12123 | 8.75509 | 71° | 27km/h | 17968m | 4.2m/s | -51.9°C | 0% | 0hPa | 4V | 00:00:00 | 00:00:00 | 00:00:00 | |
| CB1BUN | 2026-08-31 07:54:32 | 50.12122 | 8.75500 | 95° | 18km/h | 17963m | 5.4m/s | -51.9°C | 0% | 0hPa | 4V | 00:00:00 | 00:00:00 | 00:00:00 | |
| DO3DL | 2026-08-31 07:54:31 | 50.12122 | 8.75500 | 95° | 18km/h | 17963m | 5.4m/s | -51.9°C | 0% | 0hPa | 4V | 00:00:00 | 00:00:00 | 00:00:00 | |
| DF8AY | 2026-08-31 07:54:30 | 50.12123 | 8.75485 | 82° | 24km/h | 17954m | 4.9m/s | -51.8°C | 0% | 0hPa | 4V | 00:00:00 | 00:00:00 | 00:00:00 | |
| DO2JMG | 2026-08-31 07:54:28 | 50.12120 | 8.75462 | 85° | 31km/h | 17945m | 5m/s | -51.8°C | 0% | 0hPa | 25.6V | 00:00:00 | 00:00:00 | 00:00:00 | |
| DO3MHA-11 | 2026-08-31 07:54:27 | 50.12119 | 8.75448 | 71° | 24km/h | 17936m | 5.4m/s | 0°C | 0% | 0hPa | 4V | 00:00:00 | 00:00:00 | 00:00:00 | |
| BIOWL1-15 | 2026-08-31 07:54:26 | 50.12118 | 8.75441 | 70° | 24km/h | 17936m | 5.4m/s | -51.9°C | 0% | 0hPa | 4V | 00:00:00 | 00:00:00 | 00:00:00 | |
| DO3DL | 2026-08-31 07:54:25 | 50.12119 | 8.75440 | 71° | 24km/h | 17936m | 5.4m/s | -51.9°C | 0% | 0hPa | 4V | 00:00:00 | 00:00:00 | 00:00:00 | |
| DL1XH-west | 2026-08-31 07:54:23 | 50.12116 | 8.75427 | 105° | 16km/h | 17928m | 5.4m/s | -52°C | 0% | 0hPa | 4V | 00:00:00 | 00:00:00 | 00:00:00 | |
| DL1NUX | 2026-08-31 07:54:22 | 50.12116 | 8.75389 | 52° | 24km/h | 17903m | 5.3m/s | 0°C | 0% | 0hPa | 0V | 00:00:00 | 00:00:00 | 00:00:00 | |
| DK7TD | 2026-08-31 07:54:22 | 50.12120 | 8.75408 | 102° | 29km/h | 17919m | 4.7m/s | -51.9°C | 0% | 0hPa | 4V | 00:00:00 | 00:00:00 | 00:00:00 | |
| DF8AY | 2026-08-31 07:54:20 | 50.12116 | 8.75389 | 53° | 24km/h | 17908m | 4.1m/s | -52°C | 0% | 0hPa | 4V | 00:00:00 | 00:00:00 | 00:00:00 | |
| DM0DOS-11 | 2026-08-31 07:54:19 | 50.12114 | 8.75347 | 68° | 27km/h | 17880m | 5.2m/s | 0°C | 0% | 0hPa | 0V | 00:00:00 | 00:00:00 | 00:00:00 | |
| DB0UT-7 | 2026-08-31 07:54:19 | 50.12116 | 8.75388 | 53° | 24km/h | 17903m | 5.2m/s | 0°C | 0% | 0hPa | 4V | 00:00:00 | 00:00:00 | 00:00:00 | |
| DO2KSM | 2026-08-31 07:54:18 | 50.12114 | 8.75381 | 87° | 18km/h | 17903m | 5.3m/s | -52.0°C | 0% | 0hPa | 4V | 00:00:00 | 00:00:00 | 00:00:00 | |
| DO2JMG | 2026-08-31 07:54:17 | 50.12114 | 8.75374 | 111° | 22km/h | 17898m | 3.9m/s | -52°C | 0% | 0hPa | 4V | 00:00:00 | 00:00:00 | 00:00:00 | |
| DL1XH-15 | 2026-08-31 07:54:17 | 50.12112 | 8.75328 | 90° | 20km/h | 17871m | 5.3m/s | 0°C | 0% | 0hPa | 0V | 00:00:00 | 00:00:00 | 00:00:00 | |
| BIOWL1-15 | 2026-08-31 07:54:17 | 50.12114 | 8.75347 | 69° | 27km/h | 17884m | 4.1m/s | -52°C | 0% | 0hPa | 4V | 00:00:00 | 00:00:00 | 00:00:00 | |
| DO3MHA-11 | 2026-08-31 07:54:16 | 50.12116 | 8.75366 | 106° | 24km/h | 17889m | 4.8m/s | 0°C | 0% | 0hPa | 4V | 00:00:00 | 00:00:00 | 00:00:00 | |
| DO8TBO-1 | 2026-08-31 07:54:15 | 50.12116 | 8.75357 | 69° | 24km/h | 17884m | 4.0m/s | 0°C | 0% | 0hPa | 4V | 00:00:00 | 00:00:00 | 00:00:00 | |
| DL1XH-west | 2026-08-31 07:54:12 | 50.12112 | 8.75328 | 91° | 20km/h | 17875m | 3.5m/s | -52°C | 0% | 0hPa | 4V | 00:00:00 | 00:00:00 | 00:00:00 | |
| DO3DL | 2026-08-31 07:54:12 | 50.12112 | 8.75327 | 92° | 20km/h | 17875m | 3.5m/s | -52.0°C | 0% | 0hPa | 4V | 00:00:00 | 00:00:00 | 00:00:00 | |
| DK7TD | 2026-08-31 07:54:11 | 50.12111 | 8.75313 | 74° | 20km/h | 17866m | 3.8m/s | -52°C | 0% | 0hPa | 4V | 00:00:00 | 00:00:00 | 00:00:00 | |
| DB0NH | 2026-08-31 07:54:10 | 50.12110 | 8.75313 | 75° | 24km/h | 17862m | 5.6m/s | 0°C | 0% | 0hPa | 0V | 00:00:00 | 00:00:00 | 00:00:00 | |
| DM0DOS-11 | 2026-08-31 07:54:09 | 50.12106 | 8.75260 | 102° | 18km/h | 17833m | 3.9m/s | 0°C | 0% | 0hPa | 0V | 00:00:00 | 00:00:00 | 00:00:00 | |
| DF8AY | 2026-08-31 07:54:09 | 50.12110 | 8.75294 | 99° | 31km/h | 17857m | 3.8m/s | -52°C | 0% | 0hPa | 4V | 00:00:00 | 00:00:00 | 00:00:00 | |
| DL1XH-15 | 2026-08-31 07:54:07 | 50.12108 | 8.75241 | 65° | 27km/h | 17824m | 3.9m/s | 0°C | 0% | 0hPa | 0V | 00:00:00 | 00:00:00 | 00:00:00 | |
| DO3DL | 2026-08-31 07:54:06 | 50.12106 | 8.75267 | 77° | 18km/h | 17843m | 3.3m/s | -52.0°C | 0% | 0hPa | 4V | 00:00:00 | 00:00:00 | 00:00:00 | |
| BEGRI65-1 | 2026-08-31 07:54:05 | 50.12106 | 8.75267 | 77° | 18km/h | 17843m | 3.3m/s | -52.0°C | 0% | 0hPa | 4V | 00:00:00 | 00:00:00 | 00:00:00 | |
| BIOWL1-15 | 2026-08-31 07:54:04 | 50.12106 | 8.75260 | 103° | 18km/h | 17838m | 5.6m/s | -52°C | 0% | 0hPa | 4V | 00:00:00 | 00:00:00 | 00:00:00 | |
| DL1NUX | 2026-08-31 07:54:04 | 50.12104 | 8.75214 | 100° | 22km/h | 17810m | 4.2m/s | 0°C | 0% | 0hPa | 0V | 00:00:00 | 00:00:00 | 00:00:00 | |
| DO2JMG | 2026-08-31 07:54:02 | 50.12108 | 8.75241 | 88° | 27km/h | 17829m | 5.4m/s | -51.9°C | 0% | 0hPa | 4V | 00:00:00 | 00:00:00 | 00:00:00 | |
| DL1XH-west | 2026-08-31 07:54:02 | 50.12106 | 8.75231 | 65° | 27km/h | 17824m | 3.9m/s | -51.8°C | 0% | 0hPa | 4V | 00:00:00 | 00:00:00 | 00:00:00 | |
| DL8DAS-15 | 2026-08-31 07:54:01 | 50.12106 | 8.75231 | 66° | 27km/h | 17824m | 3.9m/s | -51.8°C | 0% | 0hPa | 4V | 00:00:00 | 00:00:00 | 00:00:00 | |
| DK7TD | 2026-08-31 07:54:00 | 50.12104 | 8.75214 | 100° | 22km/h | 17815m | 5.1m/s | -51.9°C | 0% | 0hPa | 4V | 00:00:00 | 00:00:00 | 00:00:00 | |
| DM0DOS-11 | 2026-08-31 07:53:59 | 50.12104 | 8.75167 | 87° | 24km/h | 17788m | 4.7m/s | 0°C | 0% | 0hPa | 0V | 00:00:00 | 00:00:00 | 00:00:00 | |
| NBG1-10 | 2026-08-31 07:53:59 | 50.12104 | 8.75214 | 101° | 22km/h | 17810m | 4.1m/s | 0°C | 0% | 0hPa | 4V | 00:00:00 | 00:00:00 | 00:00:00 | |
| DF8AY | 2026-08-31 07:53:58 | 50.12105 | 8.75195 | 81° | 24km/h | 17806m | 5m/s | -51.9°C | 0% | 0hPa | 4V | 00:00:00 | 00:00:00 | 00:00:00 | |
| SO1NDE-10 | 2026-08-31 07:53:57 | 50.12105 | 8.75195 | 81° | 24km/h | 17802m | 3.2m/s | 0°C | 0% | 0hPa | 0V | 00:00:00 | 00:00:00 | 00:00:00 | |
| DO3MHA-11 | 2026-08-31 07:53:56 | 50.12104 | 8.75185 | 93° | 26km/h | 17797m | 5.6m/s | 0°C | 0% | 0hPa | 0V | 00:00:00 | 00:00:00 | 00:00:00 | |
| BIOWL1-15 | 2026-08-31 07:53:56 | 50.12105 | 8.75157 | 87° | 24km/h | 17788m | 4.7m/s | -52°C | 0% | 0hPa | 4V | 00:00:00 | 00:00:00 | 00:00:00 | |
| DL1NUX | 2026-08-31 07:53:54 | 50.12102 | 8.75116 | 99° | 24km/h | 17766m | 5.3m/s | 0°C | 0% | 0hPa | 0V | 00:00:00 | 00:00:00 | 00:00:00 | |
| DO3DL | 2026-08-31 07:53:53 | 50.12103 | 8.75147 | 67° | 27km/h | 17784m | 5.0m/s | -52.0°C | 0% | 0hPa | 4V | 00:00:00 | 00:00:00 | 00:00:00 | |
| DL1XH-west | 2026-08-31 07:53:51 | 50.12101 | 8.75137 | 76° | 29km/h | 17779m | 4.3m/s | -52°C | 0% | 0hPa | 4V | 00:00:00 | 00:00:00 | 00:00:00 | |
| CB1BUN | 2026-08-31 07:53:50 | 50.12101 | 8.75126 | 99° | 27km/h | 17774m | 4.9m/s | -52.0°C | 0% | 0hPa | 4V | 00:00:00 | 00:00:00 | 00:00:00 | |
| DO2JMG | 2026-08-31 07:53:49 | 50.12102 | 8.75116 | 100° | 24km/h | 17770m | 3m/s | -52°C | 0% | 0hPa | 4V | 00:00:00 | 00:00:00 | 00:00:00 | |
| DM0DOS-11 | 2026-08-31 07:53:49 | 50.12100 | 8.75069 | 101° | 22km/h | 17741m | 5.5m/s | 0°C | 0% | 0hPa | 0V | 00:00:00 | 00:00:00 | 00:00:00 | |
| DB0UT-7 | 2026-08-31 07:53:49 | 50.12102 | 8.75116 | 100° | 22km/h | 17766m | 5.3m/s | 0°C | 0% | 0hPa | 0V | 00:00:00 | 00:00:00 | 00:00:00 | |
| DL1XH-15 | 2026-08-31 07:53:47 | 50.12097 | 8.75055 | 61° | 20km/h | 17733m | 5.1m/s | 0°C | 0% | 0hPa | 0V | 00:00:00 | 00:00:00 | 00:00:00 | |
| DF8AY | 2026-08-31 07:53:47 | 50.12098 | 8.75089 | 79° | 27km/h | 17756m | 5.7m/s | -51.9°C | 0% | 0hPa | 4V | 00:00:00 | 00:00:00 | 00:00:00 | |
| DO3MHA-11 | 2026-08-31 07:53:46 | 50.12098 | 8.75089 | 79° | 24km/h | 17751m | 4.4m/s | 0°C | 0% | 0hPa | 4V | 00:00:00 | 00:00:00 | 00:00:00 | |
| DO8TBO-1 | 2026-08-31 07:53:45 | 50.12098 | 8.75079 | 104° | 20km/h | 17751m | 4.4m/s | 0°C | 0% | 0hPa | 4V | 00:00:00 | 00:00:00 | 00:00:00 | |
| BIOWL1-15 | 2026-08-31 07:53:42 | 50.12097 | 8.75055 | 62° | 20km/h | 17737m | 2.5m/s | -51.9°C | 0% | 0hPa | 4V | 00:00:00 | 00:00:00 | 00:00:00 | |
| DL1XH-west | 2026-08-31 07:53:40 | 50.12095 | 8.75037 | 100° | 29km/h | 17728m | 3.8m/s | -52°C | 0% | 0hPa | 4V | 00:00:00 | 00:00:00 | 00:00:00 | |
| DB0NH | 2026-08-31 07:53:40 | 50.12095 | 8.75037 | 100° | 22km/h | 17724m | 4.4m/s | 0°C | 0% | 0hPa | 4V | 00:00:00 | 00:00:00 | 00:00:00 | |
| DO2JMG | 2026-08-31 07:53:39 | 50.12096 | 8.75026 | 92° | 27km/h | 17724m | 4.4m/s | -52.1°C | 0% | 0hPa | 4V | 00:00:00 | 00:00:00 | 00:00:00 | |
| DM0DOS-11 | 2026-08-31 07:53:39 | 50.12094 | 8.74987 | 67° | 18km/h | 17695m | 5.1m/s | 0°C | 0% | 0hPa | 0V | 00:00:00 | 00:00:00 | 00:00:00 | |
| DK7TD | 2026-08-31 07:53:39 | 50.12095 | 8.75016 | 66° | 24km/h | 17719m | 5.5m/s | -52.2°C | 0% | 0hPa | 4V | 00:00:00 | 00:00:00 | 00:00:00 | |
| BEGRI65-1 | 2026-08-31 07:53:38 | 50.12092 | 8.75008 | 66° | 20km/h | 17715m | 3.5m/s | -52.3°C | 0% | 0hPa | 0V | 00:00:00 | 00:00:00 | 00:00:00 | |
| DL1XH-15 | 2026-08-31 07:53:37 | 50.12092 | 8.74973 | 50° | 18km/h | 17674m | 5.6m/s | 0°C | 0% | 0hPa | 0V | 00:00:00 | 00:00:00 | 00:00:00 | |
| DF8AY | 2026-08-31 07:53:37 | 50.12091 | 8.75001 | 98° | 18km/h | 17710m | 6m/s | -52.6°C | 0% | 0hPa | 4V | 00:00:00 | 00:00:00 | 00:00:00 | |
| DO3MHA-11 | 2026-08-31 07:53:36 | 50.12090 | 8.75001 | 98° | 18km/h | 17705m | 4.3m/s | 0°C | 0% | 0hPa | 0V | 00:00:00 | 00:00:00 | 00:00:00 | |
| DL1NUX | 2026-08-31 07:53:34 | 50.12093 | 8.74949 | 83° | 20km/h | 17674m | 5.6m/s | 0°C | 0% | 0hPa | 0V | 00:00:00 | 00:00:00 | 00:00:00 | |
| BIOWL1-15 | 2026-08-31 07:53:34 | 50.12091 | 8.74967 | 93° | 22km/h | 17687m | 5m/s | -52.7°C | 0% | 0hPa | 4V | 00:00:00 | 00:00:00 | 00:00:00 | |
| DO3DL | 2026-08-31 07:53:33 | 50.12094 | 8.74981 | 68° | 16km/h | 17696m | 5.1m/s | -52.7°C | 0% | 0hPa | 4V | 00:00:00 | 00:00:00 | 00:00:00 | |
| CB1BUN | 2026-08-31 07:53:30 | 50.12091 | 8.74958 | 98° | 24km/h | 17683m | 2.5m/s | -52.7°C | 0% | 0hPa | 4V | 00:00:00 | 00:00:00 | 00:00:00 | |
| DL1XH-west | 2026-08-31 07:53:29 | 50.12093 | 8.74949 | 83° | 20km/h | 17679m | 4.5m/s | -52.6°C | 0% | 0hPa | 4V | 00:00:00 | 00:00:00 | 00:00:00 | |
| DO2JMG | 2026-08-31 07:53:27 | 50.12089 | 8.74939 | 64° | 13km/h | 17670m | 1.9m/s | -52.4°C | 0% | 0hPa | 4V | 00:00:00 | 00:00:00 | 00:00:00 | |
| SO1NDE-10 | 2026-08-31 07:53:27 | 50.12088 | 8.74939 | 65° | 24km/h | 17667m | 6.3m/s | 0°C | 0% | 0hPa | 4V | 00:00:00 | 00:00:00 | 00:00:00 | |
| DF8AY | 2026-08-31 07:53:26 | 50.12090 | 8.74926 | 121° | 33km/h | 17661m | 4.9m/s | -52.5°C | 0% | 0hPa | 4V | 00:00:00 | 00:00:00 | 00:00:00 | |
| DF2AP-13 | 2026-08-31 07:53:26 | 50.12088 | 8.74935 | 106° | 22km/h | 17661m | 4.8m/s | 0°C | 0% | 0hPa | 0V | 00:00:00 | 00:00:00 | 00:00:00 | |
| DL1NUX | 2026-08-31 07:53:24 | 50.12090 | 8.74882 | 71° | 24km/h | 17628m | 4.5m/s | 0°C | 0% | 0hPa | 0V | 00:00:00 | 00:00:00 | 00:00:00 | |
| BIOWL1-15 | 2026-08-31 07:53:24 | 50.12089 | 8.74896 | 88° | 7km/h | 17642m | 4.4m/s | -52.4°C | 0% | 0hPa | 4V | 00:00:00 | 00:00:00 | 00:00:00 | |
| DO3DL | 2026-08-31 07:53:20 | 50.12089 | 8.74891 | 100° | 16km/h | 17638m | 4.1m/s | -52.3°C | 0% | 0hPa | 4.1V | 00:00:00 | 00:00:00 | 00:00:00 | |
| DL1XH-west | 2026-08-31 07:53:19 | 50.12089 | 8.74874 | 72° | 26km/h | 17628m | 4.5m/s | -52.3°C | 0% | 0hPa | 4.1V | 00:00:00 | 00:00:00 | 00:00:00 | |
| DB0UT-7 | 2026-08-31 07:53:19 | 50.12090 | 8.74882 | 72° | 26km/h | 17629m | 4.5m/s | 0°C | 0% | 0hPa | 0V | 00:00:00 | 00:00:00 | 00:00:00 | |
| DL1XH-15 | 2026-08-31 07:53:18 | 50.12094 | 8.74849 | 74° | 11km/h | 17601m | 5.5m/s | 0°C | 0% | 0hPa | 0V | 00:00:00 | 00:00:00 | 00:00:00 | |
| DO2JMG | 2026-08-31 07:53:17 | 50.12088 | 8.74859 | 118° | 18km/h | 17620m | 6.5m/s | -52.2°C | 0% | 0hPa | 4.1V | 00:00:00 | 00:00:00 | 00:00:00 | |
| DO3MHA-11 | 2026-08-31 07:53:16 | 50.12088 | 8.74858 | 118° | 24km/h | 17616m | 2.4m/s | 0°C | 0% | 0hPa | 4.1V | 00:00:00 | 00:00:00 | 00:00:00 | |
| DF8AY | 2026-08-31 07:53:15 | 50.12094 | 8.74849 | 75° | 11km/h | 17611m | 5.8m/s | -52.1°C | 0% | 0hPa | 4.1V | 00:00:00 | 00:00:00 | 00:00:00 | |
| DO8TBO-1 | 2026-08-31 07:53:14 | 50.12093 | 8.74849 | 75° | 29km/h | 17606m | 4.4m/s | 0°C | 0% | 0hPa | 4.1V | 00:00:00 | 00:00:00 | 00:00:00 | |
| BIOWL1-15 | 2026-08-31 07:53:10 | 50.12089 | 8.74810 | 120° | 24km/h | 17590m | 4.4m/s | -52°C | 0% | 0hPa | 4.1V | 00:00:00 | 00:00:00 | 00:00:00 | |
| CB1BUN | 2026-08-31 07:53:10 | 50.12091 | 8.74803 | 73° | 13km/h | 17585m | 5.0m/s | -52.0°C | 0% | 0hPa | 4.1V | 00:00:00 | 00:00:00 | 00:00:00 | |
| DL1XH-west | 2026-08-31 07:53:08 | 50.12090 | 8.74797 | 58° | 22km/h | 17580m | 5.5m/s | -51.9°C | 0% | 0hPa | 4.1V | 00:00:00 | 00:00:00 | 00:00:00 | |
| DL1XH-15 | 2026-08-31 07:53:08 | 50.12089 | 8.74742 | 51° | 26km/h | 17543m | 6.2m/s | 0°C | 0% | 0hPa | 0V | 00:00:00 | 00:00:00 | 00:00:00 | |
| DO3DL | 2026-08-31 07:53:07 | 50.12087 | 8.74787 | 74° | 33km/h | 17575m | 4.2m/s | -51.9°C | 0% | 0hPa | 4.1V | 00:00:00 | 00:00:00 | 00:00:00 | |
| DO2JMG | 2026-08-31 07:53:06 | 50.12086 | 8.74774 | 95° | 37km/h | 17569m | 6.9m/s | -51.9°C | 0% | 0hPa | 4.1V | 00:00:00 | 00:00:00 | 00:00:00 | |
| DK7TD | 2026-08-31 07:53:06 | 50.12088 | 8.74761 | 114° | 31km/h | 17565m | 2.5m/s | -51.8°C | 0% | 0hPa | 4.1V | 00:00:00 | 00:00:00 | 00:00:00 | |
| HEMX73-11 | 2026-08-31 07:53:06 | 50.12088 | 8.74761 | 115° | 31km/h | 17565m | 2.5m/s | -51.8°C | 0% | 0hPa | 4.1V | 00:00:00 | 00:00:00 | 00:00:00 | |
| DF8AY | 2026-08-31 07:53:04 | 50.12089 | 8.74742 | 52° | 26km/h | 17554m | 7.7m/s | -51.8°C | 0% | 0hPa | 4.1V | 00:00:00 | 00:00:00 | 00:00:00 | |
| DB0ND-19 | 2026-08-31 07:53:04 | 50.12089 | 8.74742 | 51° | 24km/h | 17554m | 7.7m/s | -52.5°C | -1.0% | -1.0hPa | 0V | 00:00:00 | 00:00:00 | 00:00:00 | |
| DL1NUX | 2026-08-31 07:53:03 | 50.12081 | 8.74699 | 94° | 26km/h | 17527m | 5.6m/s | 0°C | 0% | 0hPa | 0V | 00:00:00 | 00:00:00 | 00:00:00 | |
| DO3DL | 2026-08-31 07:53:01 | 50.12080 | 8.74723 | 76° | 33km/h | 17543m | 6.2m/s | -51.6°C | 0% | 0hPa | 4.1V | 00:00:00 | 00:00:00 | 00:00:00 | |
| BIOWL1-15 | 2026-08-31 07:52:59 | 50.12081 | 8.74699 | 94° | 26km/h | 17532m | 5.3m/s | -51.5°C | 0% | 0hPa | 4.1V | 00:00:00 | 00:00:00 | 00:00:00 | |
| KANTATE | 2026-08-31 07:52:59 | 50.12081 | 8.74699 | 95° | 26km/h | 17533m | 5.3m/s | -51.5°C | 0% | 0hPa | 4.1V | 00:00:00 | 00:00:00 | 00:00:00 | |
| DF1GD-15 | 2026-08-31 07:52:58 | 50.12080 | 8.74690 | 57° | 24km/h | 17527m | 5.6m/s | -51.5°C | 0% | 0hPa | 4.1V | 00:00:00 | 00:00:00 | 00:00:00 | |
| DL1XH-west | 2026-08-31 07:52:57 | 50.12076 | 8.74682 | 53° | 26km/h | 17521m | 5.8m/s | -51.5°C | 0% | 0hPa | 4.1V | 00:00:00 | 00:00:00 | 00:00:00 | |
| DO2KSM | 2026-08-31 07:52:57 | 50.12073 | 8.74673 | 72° | 29km/h | 17516m | 5.3m/s | -51.4°C | 0% | 0hPa | 4.1V | 00:00:00 | 00:00:00 | 00:00:00 | |
| DK7TD | 2026-08-31 07:52:56 | 50.12071 | 8.74662 | 77° | 31km/h | 17511m | 3.8m/s | -51.4°C | 0% | 0hPa | 4.1V | 00:00:00 | 00:00:00 | 00:00:00 | |
| DF2AP-13 | 2026-08-31 07:52:55 | 50.12071 | 8.74662 | 78° | 31km/h | 17506m | 7.5m/s | 0°C | 0% | 0hPa | 0V | 00:00:00 | 00:00:00 | 00:00:00 | |
| DO3DL | 2026-08-31 07:52:54 | 50.12068 | 8.74650 | 67° | 31km/h | 17506m | 7.6m/s | -51.4°C | 0% | 0hPa | 0V | 00:00:00 | 00:00:00 | 00:00:00 | |
| DO2JMG | 2026-08-31 07:52:53 | 50.12065 | 8.74641 | 53° | 26km/h | 17499m | 4.5m/s | 0°C | 0% | 0hPa | 0V | 00:00:00 | 00:00:00 | 00:00:00 | |
| DL1NUX | 2026-08-31 07:52:53 | 50.12053 | 8.74582 | 76° | 38km/h | 17467m | 3.9m/s | 0°C | 0% | 0hPa | 0V | 00:00:00 | 00:00:00 | 00:00:00 | |
| BIOWL1-15 | 2026-08-31 07:52:53 | 50.12053 | 8.74582 | 77° | 38km/h | 17472m | 6.3m/s | -51.2°C | 0% | 0hPa | 4V | 00:00:00 | 00:00:00 | 00:00:00 | |
| NBG1-10 | 2026-08-31 07:52:53 | 50.12065 | 8.74640 | 54° | 37km/h | 17494m | 7.0m/s | 0°C | 0% | 0hPa | 0V | 00:00:00 | 00:00:00 | 00:00:00 | |
| THATR2-17 | 2026-08-31 07:52:51 | 50.12056 | 8.74597 | 68° | 37km/h | 17477m | 0m/s | 0°C | 0% | 0hPa | 0V | 00:00:00 | 00:00:00 | 00:00:00 | |
| DM0DOS-11 | 2026-08-31 07:52:49 | 50.12042 | 8.74538 | 53° | 29km/h | 17447m | 7m/s | 0°C | 0% | 0hPa | 0V | 00:00:00 | 00:00:00 | 00:00:00 | |
| DB0UT-7 | 2026-08-31 07:52:49 | 50.12056 | 8.74596 | 77° | 37km/h | 17472m | 6.3m/s | 0°C | 0% | 0hPa | 0V | 00:00:00 | 00:00:00 | 00:00:00 | |
| DO3DL | 2026-08-31 07:52:48 | 50.12053 | 8.74582 | 78° | 38km/h | 17472m | 6.3m/s | -51.2°C | 0% | 0hPa | 0V | 00:00:00 | 00:00:00 | 00:00:00 | |
| DL1XH-15 | 2026-08-31 07:52:47 | 50.12039 | 8.74516 | 98° | 37km/h | 17425m | 6.9m/s | 0°C | 0% | 0hPa | 0V | 00:00:00 | 00:00:00 | 00:00:00 | |
| DL1XH-west | 2026-08-31 07:52:46 | 50.12051 | 8.74557 | 72° | 29km/h | 17462m | 5.6m/s | -51.1°C | 0% | 0hPa | 4V | 00:00:00 | 00:00:00 | 00:00:00 | |
| DO3MHA-11 | 2026-08-31 07:52:46 | 50.12051 | 8.74557 | 73° | 31km/h | 17456m | 6.3m/s | 0°C | 0% | 0hPa | 4V | 00:00:00 | 00:00:00 | 00:00:00 | |
| DK7TD | 2026-08-31 07:52:45 | 50.12042 | 8.74538 | 54° | 29km/h | 17452m | 2.4m/s | -51°C | 0% | 0hPa | 4V | 00:00:00 | 00:00:00 | 00:00:00 | |
| DO2JMG | 2026-08-31 07:52:42 | 50.12039 | 8.74516 | 98° | 37km/h | 17441m | 4.8m/s | 0°C | 0% | 0hPa | 0V | 00:00:00 | 00:00:00 | 00:00:00 | |
| DO3DL | 2026-08-31 07:52:41 | 50.12039 | 8.74502 | 86° | 35km/h | 17436m | 4.7m/s | -50.9°C | 0% | 0hPa | 0V | 00:00:00 | 00:00:00 | 00:00:00 | |
| DB0NH | 2026-08-31 07:52:40 | 50.12036 | 8.74490 | 57° | 40km/h | 17426m | 6.8m/s | 0°C | 0% | 0hPa | 0V | 00:00:00 | 00:00:00 | 00:00:00 | |
| DL1NUX | 2026-08-31 07:52:38 | 50.12028 | 8.74478 | 55° | 27km/h | 17413m | 6.8m/s | 0°C | 0% | 0hPa | 0V | 00:00:00 | 00:00:00 | 00:00:00 | |
| BIOWL1-15 | 2026-08-31 07:52:38 | 50.12023 | 8.74463 | 55° | 38km/h | 17414m | 6.8m/s | -50.9°C | 0% | 0hPa | 4.1V | 00:00:00 | 00:00:00 | 00:00:00 | |
| DF1GD-15 | 2026-08-31 07:52:37 | 50.12023 | 8.74463 | 56° | 38km/h | 17414m | 6.8m/s | -50.9°C | 0% | 0hPa | 4.1V | 00:00:00 | 00:00:00 | 00:00:00 | |
| DL1XH-west | 2026-08-31 07:52:36 | 50.12012 | 8.74431 | 72° | 47km/h | 17403m | 3.5m/s | -50.8°C | 0% | 0hPa | 4.1V | 00:00:00 | 00:00:00 | 00:00:00 | |
| DN1GJH-1 | 2026-08-31 07:52:35 | 50.12011 | 8.74430 | 73° | 47km/h | 17403m | 3.5m/s | -50.8°C | 0% | 0hPa | 4.1V | 00:00:00 | 00:00:00 | 00:00:00 | |
| DK7TD | 2026-08-31 07:52:34 | 50.12007 | 8.74408 | 48° | 16km/h | 17392m | 4.1m/s | -50.8°C | 0% | 0hPa | 4.1V | 00:00:00 | 00:00:00 | 00:00:00 | |
| DL1NUX | 2026-08-31 07:52:33 | 50.11985 | 8.74344 | 63° | 38km/h | 17360m | 6m/s | 0°C | 0% | 0hPa | 0V | 00:00:00 | 00:00:00 | 00:00:00 | |
| DF8AY | 2026-08-31 07:52:32 | 50.11997 | 8.74390 | 53° | 44km/h | 17382m | 5.1m/s | -50.8°C | 0% | 0hPa | 4.1V | 00:00:00 | 00:00:00 | 00:00:00 | |
| CB1BUN | 2026-08-31 07:52:29 | 50.11984 | 8.74344 | 65° | 38km/h | 17366m | 4.8m/s | -50.9°C | 0% | 0hPa | 4.1V | 00:00:00 | 00:00:00 | 00:00:00 | |
| DO3DL | 2026-08-31 07:52:28 | 50.11984 | 8.74344 | 65° | 38km/h | 17366m | 4.8m/s | -50.9°C | 0% | 0hPa | 4.1V | 00:00:00 | 00:00:00 | 00:00:00 | |
| BIOWL1-15 | 2026-08-31 07:52:27 | 50.11978 | 8.74332 | 42° | 42km/h | 17360m | 6m/s | -50.8°C | 0% | 0hPa | 4.1V | 00:00:00 | 00:00:00 | 00:00:00 | |
| DL1XH-15 | 2026-08-31 07:52:27 | 50.11950 | 8.74263 | 55° | 55km/h | 17333m | 3.3m/s | 0°C | 0% | 0hPa | 0V | 00:00:00 | 00:00:00 | 00:00:00 | |
| SO1NDE-10 | 2026-08-31 07:52:27 | 50.11978 | 8.74332 | 43° | 47km/h | 17356m | 3.0m/s | 0°C | 0% | 0hPa | 4.1V | 00:00:00 | 00:00:00 | 00:00:00 | |
| DL1XH-west | 2026-08-31 07:52:26 | 50.11963 | 8.74311 | 50° | 35km/h | 17352m | 5.1m/s | -50.8°C | 0% | 0hPa | 4.1V | 00:00:00 | 00:00:00 | 00:00:00 | |
| DF2AP-13 | 2026-08-31 07:52:25 | 50.11963 | 8.74311 | 51° | 47km/h | 17342m | 5.5m/s | 0°C | 0% | 0hPa | 0V | 00:00:00 | 00:00:00 | 00:00:00 | |
| DJTTGO | 2026-08-31 07:52:24 | 50.11956 | 8.74281 | 75° | 51km/h | 17342m | 5.5m/s | -50.8°C | 0% | 0hPa | 0V | 00:00:00 | 00:00:00 | 00:00:00 | |
| DL1NUX | 2026-08-31 07:52:23 | 50.11926 | 8.74211 | 70° | 42km/h | 17314m | 5.6m/s | 0°C | 0% | 0hPa | 0V | 00:00:00 | 00:00:00 | 00:00:00 | |
| DK7TD | 2026-08-31 07:52:23 | 50.11950 | 8.74263 | 56° | 55km/h | 17337m | 4.7m/s | -50.8°C | 0% | 0hPa | 4.1V | 00:00:00 | 00:00:00 | 00:00:00 | |
| DO3DL | 2026-08-31 07:52:22 | 50.11950 | 8.74262 | 57° | 55km/h | 17337m | 4.7m/s | -50.8°C | 0% | 0hPa | 4.1V | 00:00:00 | 00:00:00 | 00:00:00 | |
| DF8AY | 2026-08-31 07:52:21 | 50.11934 | 8.74236 | 45° | 37km/h | 17328m | 5.4m/s | -50.7°C | 0% | 0hPa | 4.1V | 00:00:00 | 00:00:00 | 00:00:00 | |
| NBG1-10 | 2026-08-31 07:52:20 | 50.11934 | 8.74236 | 45° | 47km/h | 17323m | 4.3m/s | 0°C | 0% | 0hPa | 0V | 00:00:00 | 00:00:00 | 00:00:00 | |
| DM0DOS-11 | 2026-08-31 07:52:19 | 50.11901 | 8.74155 | 50° | 40km/h | 17294m | 5.7m/s | 0°C | 0% | 0hPa | 0V | 00:00:00 | 00:00:00 | 00:00:00 | |
| DB0UT-7 | 2026-08-31 07:52:19 | 50.11929 | 8.74227 | 71° | 49km/h | 17319m | 4.2m/s | 0°C | 0% | 0hPa | 0V | 00:00:00 | 00:00:00 | 00:00:00 | |
| DL1XH-15 | 2026-08-31 07:52:17 | 50.11885 | 8.74126 | 52° | 55km/h | 17284m | 6.2m/s | 0°C | 0% | 0hPa | 0V | 00:00:00 | 00:00:00 | 00:00:00 | |
| BIOWL1-15 | 2026-08-31 07:52:17 | 50.11914 | 8.74181 | 51° | 47km/h | 17309m | 4.6m/s | -50.8°C | 0% | 0hPa | 4.1V | 00:00:00 | 00:00:00 | 00:00:00 | |
| DO3MHA-11 | 2026-08-31 07:52:16 | 50.11914 | 8.74180 | 51° | 47km/h | 17304m | 5.4m/s | 0°C | 0% | 0hPa | 4.1V | 00:00:00 | 00:00:00 | 00:00:00 | |
| DN1GJH-1 | 2026-08-31 07:52:15 | 50.11907 | 8.74167 | 52° | 42km/h | 17304m | 5.4m/s | -50.8°C | 0% | 0hPa | 4.1V | 00:00:00 | 00:00:00 | 00:00:00 | |
| DL1XH-west | 2026-08-31 07:52:14 | 50.11901 | 8.74155 | 51° | 40km/h | 17299m | 3.6m/s | -50.8°C | 0% | 0hPa | 4.1V | 00:00:00 | 00:00:00 | 00:00:00 | |
| DK7TD | 2026-08-31 07:52:13 | 50.11886 | 8.74126 | 53° | 55km/h | 17289m | 4.4m/s | -50.9°C | 0% | 0hPa | 4.1V | 00:00:00 | 00:00:00 | 00:00:00 | |
| DB0NH | 2026-08-31 07:52:10 | 50.11873 | 8.74090 | 56° | 51km/h | 17275m | 5.4m/s | 0°C | 0% | 0hPa | 0V | 00:00:00 | 00:00:00 | 00:00:00 | |
| DO3DL | 2026-08-31 07:52:09 | 50.11867 | 8.74075 | 56° | 47km/h | 17275m | 5.5m/s | -50.8°C | 0% | 0hPa | 0V | 00:00:00 | 00:00:00 | 00:00:00 | |
| DL1NUX | 2026-08-31 07:52:08 | 50.11859 | 8.74061 | 48° | 53km/h | 17264m | 5.2m/s | 0°C | 0% | 0hPa | 0V | 00:00:00 | 00:00:00 | 00:00:00 | |
| CB1BUN | 2026-08-31 07:52:07 | 50.11849 | 8.74045 | 49° | 51km/h | 17264m | 5.2m/s | -50.9°C | 0% | 0hPa | 4.1V | 00:00:00 | 00:00:00 | 00:00:00 | |
| DO3MHA-11 | 2026-08-31 07:52:06 | 50.11842 | 8.74030 | 60° | 49km/h | 17254m | 5.5m/s | 0°C | 0% | 0hPa | 4.1V | 00:00:00 | 00:00:00 | 00:00:00 | |
| BIOWL1-15 | 2026-08-31 07:52:05 | 50.11835 | 8.74012 | 60° | 53km/h | 17254m | 5.5m/s | -50.7°C | 0% | 0hPa | 4.1V | 00:00:00 | 00:00:00 | 00:00:00 | |
| HSKMA3-T | 2026-08-31 07:52:04 | 50.11820 | 8.73978 | 52° | 51km/h | 17245m | 4.7m/s | -50.7°C | 0% | 0hPa | 4.1V | 00:00:00 | 00:00:00 | 00:00:00 | |
| DO3DL | 2026-08-31 07:52:03 | 50.11820 | 8.73978 | 53° | 51km/h | 17245m | 4.7m/s | -50.7°C | 0% | 0hPa | 4.1V | 00:00:00 | 00:00:00 | 00:00:00 | |
| DK7TD | 2026-08-31 07:52:02 | 50.11806 | 8.73950 | 49° | 46km/h | 17235m | 5.2m/s | -50.7°C | 0% | 0hPa | 4.1V | 00:00:00 | 00:00:00 | 00:00:00 | |
| DF8AY | 2026-08-31 07:52:01 | 50.11788 | 8.73919 | 52° | 55km/h | 17225m | 5.5m/s | -50.7°C | 0% | 0hPa | 4.1V | 00:00:00 | 00:00:00 | 00:00:00 | |
| DM0DOS-11 | 2026-08-31 07:51:59 | 50.11743 | 8.73845 | 46° | 46km/h | 17197m | 4.1m/s | 0°C | 0% | 0hPa | 0V | 00:00:00 | 00:00:00 | 00:00:00 | |
| DL1XH-15 | 2026-08-31 07:51:57 | 50.11727 | 8.73817 | 47° | 49km/h | 17179m | 4m/s | 0°C | 0% | 0hPa | 0V | 00:00:00 | 00:00:00 | 00:00:00 | |
| SO1NDE-10 | 2026-08-31 07:51:57 | 50.11773 | 8.73887 | 50° | 53km/h | 17211m | 5.5m/s | 0°C | 0% | 0hPa | 4.1V | 00:00:00 | 00:00:00 | 00:00:00 | |
| DO3MHA-11 | 2026-08-31 07:51:56 | 50.11763 | 8.73872 | 40° | 49km/h | 17207m | 3.5m/s | 0°C | 0% | 0hPa | 4.1V | 00:00:00 | 00:00:00 | 00:00:00 | |
| BIOWL1-15 | 2026-08-31 07:51:54 | 50.11743 | 8.73845 | 46° | 46km/h | 17202m | 5.2m/s | -50.6°C | 0% | 0hPa | 4.1V | 00:00:00 | 00:00:00 | 00:00:00 | |
| DN1GJH-1 | 2026-08-31 07:51:54 | 50.11743 | 8.73845 | 47° | 46km/h | 17202m | 5.2m/s | -50.6°C | 0% | 0hPa | 0V | 00:00:00 | 00:00:00 | 00:00:00 | |
| DL1NUX | 2026-08-31 07:51:53 | 50.11693 | 8.73760 | 43° | 44km/h | 17169m | 5.3m/s | 0°C | 0% | 0hPa | 0V | 00:00:00 | 00:00:00 | 00:00:00 | |
| DL1XH-west | 2026-08-31 07:51:53 | 50.11727 | 8.73817 | 47° | 51km/h | 17192m | 5.5m/s | -50.5°C | 0% | 0hPa | 4.1V | 00:00:00 | 00:00:00 | 00:00:00 | |
| DF2AP-13 | 2026-08-31 07:51:52 | 50.11727 | 8.73817 | 48° | 55km/h | 17170m | 5.3m/s | 0°C | 0% | 0hPa | 4.1V | 00:00:00 | 00:00:00 | 00:00:00 | |
| DK7TD | 2026-08-31 07:51:51 | 50.11708 | 8.73788 | 47° | 51km/h | 17183m | 5m/s | -50.5°C | 0% | 0hPa | 4.1V | 00:00:00 | 00:00:00 | 00:00:00 | |
| DO3DL | 2026-08-31 07:51:50 | 50.11708 | 8.73787 | 48° | 51km/h | 17183m | 5.0m/s | -50.5°C | 0% | 0hPa | 0V | 00:00:00 | 00:00:00 | 00:00:00 | |
| DM0DOS-11 | 2026-08-31 07:51:49 | 50.11653 | 8.73704 | 58° | 49km/h | 17153m | 4.4m/s | 0°C | 0% | 0hPa | 0V | 00:00:00 | 00:00:00 | 00:00:00 | |
| DF8AY | 2026-08-31 07:51:49 | 50.11693 | 8.73760 | 44° | 44km/h | 17175m | 4.7m/s | -50.5°C | 0% | 0hPa | 4.1V | 00:00:00 | 00:00:00 | 00:00:00 | |
| THATR2-17 | 2026-08-31 07:51:49 | 50.11520 | 8.73536 | 35° | 60km/h | 17099m | 0m/s | 0°C | 0% | 0hPa | 4.1V | 00:00:00 | 00:00:00 | 00:00:00 | |
| NBG1-10 | 2026-08-31 07:51:47 | 50.11684 | 8.73753 | 48° | 55km/h | 17157m | 3.7m/s | 0°C | 0% | 0hPa | 4.1V | 00:00:00 | 00:00:00 | 00:00:00 | |
| BIOWL1-15 | 2026-08-31 07:51:46 | 50.11653 | 8.73704 | 59° | 49km/h | 17157m | 3.8m/s | -50.4°C | 0% | 0hPa | 4.1V | 00:00:00 | 00:00:00 | 00:00:00 | |
| DO3MHA-11 | 2026-08-31 07:51:46 | 50.11672 | 8.73735 | 37° | 53km/h | 17161m | 5.6m/s | 0°C | 0% | 0hPa | 4.1V | 00:00:00 | 00:00:00 | 00:00:00 | |
| HEMX73-11 | 2026-08-31 07:51:44 | 50.11646 | 8.73689 | 51° | 47km/h | 17153m | 4.4m/s | -50.4°C | 0% | 0hPa | 4.1V | 00:00:00 | 00:00:00 | 00:00:00 | |
| DO3DL | 2026-08-31 07:51:43 | 50.11646 | 8.73689 | 51° | 47km/h | 17153m | 4.4m/s | -50.4°C | 0% | 0hPa | 4.1V | 00:00:00 | 00:00:00 | 00:00:00 | |
| DL1XH-west | 2026-08-31 07:51:42 | 50.11625 | 8.73664 | 31° | 57km/h | 17143m | 4.7m/s | -50.4°C | 0% | 0hPa | 4.1V | 00:00:00 | 00:00:00 | 00:00:00 | |
| DK7TD | 2026-08-31 07:51:40 | 50.11604 | 8.73638 | 50° | 49km/h | 17134m | 2.6m/s | -50.4°C | 0% | 0hPa | 4.1V | 00:00:00 | 00:00:00 | 00:00:00 | |
| DM0DOS-11 | 2026-08-31 07:51:39 | 50.11553 | 8.73572 | 38° | 46km/h | 17108m | 5.4m/s | 0°C | 0% | 0hPa | 0V | 00:00:00 | 00:00:00 | 00:00:00 | |
| DF8AY | 2026-08-31 07:51:39 | 50.11585 | 8.73610 | 33° | 55km/h | 17125m | 5.2m/s | -50.3°C | 0% | 0hPa | 4.1V | 00:00:00 | 00:00:00 | 00:00:00 | |
| DO3DL | 2026-08-31 07:51:37 | 50.11585 | 8.73610 | 34° | 55km/h | 17125m | 5.2m/s | -50.3°C | 0% | 0hPa | 4.1V | 00:00:00 | 00:00:00 | 00:00:00 | |
| DO3MHA-11 | 2026-08-31 07:51:36 | 50.11573 | 8.73599 | 40° | 55km/h | 17117m | 5.3m/s | 0°C | 0% | 0hPa | 4.1V | 00:00:00 | 00:00:00 | 00:00:00 | |
| BIOWL1-15 | 2026-08-31 07:51:35 | 50.11544 | 8.73560 | 38° | 47km/h | 17108m | 5.4m/s | -50.2°C | 0% | 0hPa | 4.1V | 00:00:00 | 00:00:00 | 00:00:00 | |
| DN1GJH-1 | 2026-08-31 07:51:34 | 50.11553 | 8.73573 | 47° | 46km/h | 17113m | 3.7m/s | -50.2°C | 0% | 0hPa | 4.1V | 00:00:00 | 00:00:00 | 00:00:00 | |
| DL1XH-west | 2026-08-31 07:51:31 | 50.11520 | 8.73536 | 35° | 62km/h | 17099m | 5.3m/s | -50.2°C | 0% | 0hPa | 4.1V | 00:00:00 | 00:00:00 | 00:00:00 | |
| DK7TD | 2026-08-31 07:51:30 | 50.11497 | 8.73505 | 40° | 55km/h | 17090m | 4m/s | -50.2°C | 0% | 0hPa | 4.1V | 00:00:00 | 00:00:00 | 00:00:00 | |
| DM0DOS-11 | 2026-08-31 07:51:29 | 50.11441 | 8.73445 | 35° | 64km/h | 17064m | 4.3m/s | 0°C | 0% | 0hPa | 0V | 00:00:00 | 00:00:00 | 00:00:00 | |
| DF8AY | 2026-08-31 07:51:27 | 50.11464 | 8.73475 | 37° | 53km/h | 17077m | 5.3m/s | -50.2°C | 0% | 0hPa | 4.1V | 00:00:00 | 00:00:00 | 00:00:00 | |
| SO1NDE-10 | 2026-08-31 07:51:27 | 50.11475 | 8.73490 | 38° | 55km/h | 17077m | 5.2m/s | 0°C | 0% | 0hPa | 4.1V | 00:00:00 | 00:00:00 | 00:00:00 | |
| DO3MHA-11 | 2026-08-31 07:51:26 | 50.11464 | 8.73475 | 38° | 58km/h | 17073m | 3.2m/s | 0°C | 0% | 0hPa | 4.1V | 00:00:00 | 00:00:00 | 00:00:00 | |
| BIOWL1-15 | 2026-08-31 07:51:25 | 50.11415 | 8.73424 | 26° | 49km/h | 17059m | 4.1m/s | -50.1°C | 0% | 0hPa | 4.1V | 00:00:00 | 00:00:00 | 00:00:00 | |
| DO3DL | 2026-08-31 07:51:24 | 50.11441 | 8.73445 | 37° | 64km/h | 17068m | 5.1m/s | -50.1°C | 0% | 0hPa | 0V | 00:00:00 | 00:00:00 | 00:00:00 | |
| DL1NUX | 2026-08-31 07:51:23 | 50.11369 | 8.73375 | 27° | 68km/h | 17037m | 4.4m/s | 0°C | 0% | 0hPa | 0V | 00:00:00 | 00:00:00 | 00:00:00 | |
| DL1XH-west | 2026-08-31 07:51:20 | 50.11395 | 8.73401 | 41° | 53km/h | 17050m | 4.2m/s | -50.1°C | 0% | 0hPa | 4.1V | 00:00:00 | 00:00:00 | 00:00:00 | |
| DF2AP-13 | 2026-08-31 07:51:20 | 50.11395 | 8.73401 | 41° | 55km/h | 17045m | 5.6m/s | 0°C | 0% | 0hPa | 0V | 00:00:00 | 00:00:00 | 00:00:00 | |
| DM0DOS-11 | 2026-08-31 07:51:19 | 50.11324 | 8.73334 | 27° | 51km/h | 17018m | 4.7m/s | 0°C | 0% | 0hPa | 0V | 00:00:00 | 00:00:00 | 00:00:00 | |
| DK7TD | 2026-08-31 07:51:19 | 50.11369 | 8.73375 | 28° | 68km/h | 17040m | 2.7m/s | -50.1°C | 0% | 0hPa | 4.1V | 00:00:00 | 00:00:00 | 00:00:00 | |
| DB0UT-7 | 2026-08-31 07:51:19 | 50.11384 | 8.73387 | 28° | 53km/h | 17041m | 2.7m/s | 0°C | 0% | 0hPa | 4.1V | 00:00:00 | 00:00:00 | 00:00:00 | |
| DO3DL | 2026-08-31 07:51:17 | 50.11355 | 8.73362 | 32° | 62km/h | 17037m | 4.4m/s | -50.0°C | 0% | 0hPa | 4.1V | 00:00:00 | 00:00:00 | 00:00:00 | |
| DF8AY | 2026-08-31 07:51:16 | 50.11344 | 8.73350 | 38° | 49km/h | 17032m | 5m/s | -50°C | 0% | 0hPa | 4.1V | 00:00:00 | 00:00:00 | 00:00:00 | |
| DO3MHA-11 | 2026-08-31 07:51:16 | 50.11343 | 8.73350 | 38° | 51km/h | 17028m | 4.0m/s | 0°C | 0% | 0hPa | 4V | 00:00:00 | 00:00:00 | 00:00:00 | |
| DF1GD-15 | 2026-08-31 07:51:15 | 50.11334 | 8.73340 | 35° | 44km/h | 17028m | 4.1m/s | -50.0°C | 0% | 0hPa | 4V | 00:00:00 | 00:00:00 | 00:00:00 | |
| DO8TBO-1 | 2026-08-31 07:51:14 | 50.11323 | 8.73334 | 28° | 53km/h | 17019m | 4.6m/s | 0°C | 0% | 0hPa | 4V | 00:00:00 | 00:00:00 | 00:00:00 | |
| DN1GJH-1 | 2026-08-31 07:51:13 | 50.11311 | 8.73322 | 28° | 58km/h | 17019m | 4.7m/s | -49.9°C | 0% | 0hPa | 4V | 00:00:00 | 00:00:00 | 00:00:00 | |
| BIOWL1-15 | 2026-08-31 07:51:12 | 50.11286 | 8.73295 | 38° | 58km/h | 17008m | 4m/s | -49.8°C | 0% | 0hPa | 4V | 00:00:00 | 00:00:00 | 00:00:00 | |
| DL8DAS-15 | 2026-08-31 07:51:11 | 50.11286 | 8.73295 | 39° | 58km/h | 17009m | 4.1m/s | -49.8°C | 0% | 0hPa | 4V | 00:00:00 | 00:00:00 | 00:00:00 | |
| DB0NH | 2026-08-31 07:51:10 | 50.11275 | 8.73283 | 30° | 53km/h | 17000m | 4.0m/s | 0°C | 0% | 0hPa | 4V | 00:00:00 | 00:00:00 | 00:00:00 | |
| DL1XH-west | 2026-08-31 07:51:09 | 50.11264 | 8.73273 | 29° | 47km/h | 16999m | 4m/s | -49.7°C | 0% | 0hPa | 4V | 00:00:00 | 00:00:00 | 00:00:00 | |
| DK7TD | 2026-08-31 07:51:08 | 50.11245 | 8.73252 | 38° | 51km/h | 16990m | 3.5m/s | -49.7°C | 0% | 0hPa | 4V | 00:00:00 | 00:00:00 | 00:00:00 | |
| DF8AY | 2026-08-31 07:51:06 | 50.11219 | 8.73228 | 27° | 62km/h | 16981m | 3m/s | -49.7°C | 0% | 0hPa | 4V | 00:00:00 | 00:00:00 | 00:00:00 | |
| DO3MHA-11 | 2026-08-31 07:51:06 | 50.11233 | 8.73239 | 27° | 53km/h | 16981m | 3.0m/s | 0°C | 0% | 0hPa | 4V | 00:00:00 | 00:00:00 | 00:00:00 | |
| DO3DL | 2026-08-31 07:51:04 | 50.11207 | 8.73217 | 33° | 51km/h | 16977m | 5.8m/s | -49.6°C | 0% | 0hPa | 4V | 00:00:00 | 00:00:00 | 00:00:00 | |
| BIOWL1-15 | 2026-08-31 07:51:03 | 50.11179 | 8.73185 | 30° | 53km/h | 16963m | 4.7m/s | -49.4°C | 0% | 0hPa | 4V | 00:00:00 | 00:00:00 | 00:00:00 | |
| DL1NUX | 2026-08-31 07:51:03 | 50.11145 | 8.73149 | 36° | 53km/h | 16946m | 5.5m/s | 0°C | 0% | 0hPa | 0V | 00:00:00 | 00:00:00 | 00:00:00 | |
| SONDE2-11 | 2026-08-31 07:51:02 | 50.11179 | 8.73185 | 29° | 51km/h | 16963m | 4.7m/s | -50.0°C | -1.0% | -1.0hPa | 0V | 00:00:00 | 00:00:00 | 00:00:00 | |
| DM0DOS-11 | 2026-08-31 07:50:59 | 50.11100 | 8.73107 | 40° | 49km/h | 16929m | 5.3m/s | 0°C | 0% | 0hPa | 0V | 00:00:00 | 00:00:00 | 00:00:00 | |
| DL1XH-west | 2026-08-31 07:50:59 | 50.11145 | 8.73149 | 37° | 53km/h | 16950m | 3.7m/s | -49.3°C | 0% | 0hPa | 4V | 00:00:00 | 00:00:00 | 00:00:00 | |
| DO3DL | 2026-08-31 07:50:58 | 50.11145 | 8.73149 | 37° | 53km/h | 16951m | 3.7m/s | -49.3°C | 0% | 0hPa | 4V | 00:00:00 | 00:00:00 | 00:00:00 | |
| DK7TD | 2026-08-31 07:50:57 | 50.11121 | 8.73128 | 25° | 55km/h | 16941m | 3.6m/s | -49.2°C | 0% | 0hPa | 4V | 00:00:00 | 00:00:00 | 00:00:00 | |
| SO1NDE-10 | 2026-08-31 07:50:57 | 50.11134 | 8.73138 | 26° | 55km/h | 16941m | 3.5m/s | 0°C | 0% | 0hPa | 4.1V | 00:00:00 | 00:00:00 | 00:00:00 | |
| DO3MHA-11 | 2026-08-31 07:50:56 | 50.11121 | 8.73128 | 26° | 53km/h | 16937m | 4.8m/s | 0°C | 0% | 0hPa | 4.1V | 00:00:00 | 00:00:00 | 00:00:00 | |
| DF8AY | 2026-08-31 07:50:55 | 50.11100 | 8.73107 | 41° | 49km/h | 16933m | 3.3m/s | -49.1°C | 0% | 0hPa | 4.1V | 00:00:00 | 00:00:00 | 00:00:00 | |
| DL1NUX | 2026-08-31 07:50:53 | 50.11034 | 8.73038 | 29° | 49km/h | 16903m | 3.8m/s | 0°C | 0% | 0hPa | 0V | 00:00:00 | 00:00:00 | 00:00:00 | |
| DO3DL | 2026-08-31 07:50:52 | 50.11076 | 8.73082 | 29° | 64km/h | 16924m | 3.3m/s | -49.0°C | 0% | 0hPa | 4.1V | 00:00:00 | 00:00:00 | 00:00:00 | |
| BIOWL1-15 | 2026-08-31 07:50:51 | 50.11053 | 8.73058 | 39° | 46km/h | 16916m | 4.8m/s | -49°C | 0% | 0hPa | 4.1V | 00:00:00 | 00:00:00 | 00:00:00 | |
| DF2AP-13 | 2026-08-31 07:50:50 | 50.11053 | 8.73058 | 39° | 57km/h | 16908m | 5.6m/s | 0°C | 0% | 0hPa | 4.1V | 00:00:00 | 00:00:00 | 00:00:00 | |
| DL1XH-west | 2026-08-31 07:50:49 | 50.11034 | 8.73038 | 29° | 49km/h | 16908m | 5.6m/s | -48.9°C | 0% | 0hPa | 4.1V | 00:00:00 | 00:00:00 | 00:00:00 | |
| DK7TD | 2026-08-31 07:50:46 | 50.10997 | 8.73000 | 47° | 55km/h | 16895m | 4.3m/s | -48.9°C | 0% | 0hPa | 4.1V | 00:00:00 | 00:00:00 | 00:00:00 | |
| DO3DL | 2026-08-31 07:50:46 | 50.10997 | 8.72999 | 48° | 55km/h | 16895m | 4.3m/s | -48.9°C | 0% | 0hPa | 4.1V | 00:00:00 | 00:00:00 | 00:00:00 | |
| CB1BUN | 2026-08-31 07:50:45 | 50.10997 | 8.72999 | 48° | 55km/h | 16895m | 4.3m/s | -48.9°C | 0% | 0hPa | 4.1V | 00:00:00 | 00:00:00 | 00:00:00 | |
| DF8AY | 2026-08-31 07:50:44 | 50.10978 | 8.72975 | 28° | 53km/h | 16887m | 5.1m/s | -49°C | 0% | 0hPa | 4.1V | 00:00:00 | 00:00:00 | 00:00:00 | |
| DO8TBO-1 | 2026-08-31 07:50:44 | 50.10988 | 8.72984 | 28° | 58km/h | 16887m | 5.1m/s | 0°C | 0% | 0hPa | 4.1V | 00:00:00 | 00:00:00 | 00:00:00 | |
| BIOWL1-15 | 2026-08-31 07:50:42 | 50.10934 | 8.72923 | 54° | 53km/h | 16869m | 4m/s | -48.9°C | 0% | 0hPa | 4.1V | 00:00:00 | 00:00:00 | 00:00:00 | |
| NBG1-10 | 2026-08-31 07:50:41 | 50.10952 | 8.72954 | 34° | 58km/h | 16874m | 5.2m/s | 0°C | 0% | 0hPa | 4.1V | 00:00:00 | 00:00:00 | 00:00:00 | |
| DO3DL | 2026-08-31 07:50:39 | 50.10934 | 8.72923 | 55° | 53km/h | 16869m | 4.0m/s | -48.9°C | 0% | 0hPa | 4.1V | 00:00:00 | 00:00:00 | 00:00:00 | |
| DL1XH-west | 2026-08-31 07:50:38 | 50.10913 | 8.72894 | 32° | 62km/h | 16861m | 3.4m/s | -48.9°C | 0% | 0hPa | 4.1V | 00:00:00 | 00:00:00 | 00:00:00 | |
| DK7TD | 2026-08-31 07:50:36 | 50.10890 | 8.72864 | 50° | 58km/h | 16852m | 3.2m/s | -48.9°C | 0% | 0hPa | 22.9V | 00:00:00 | 00:00:00 | 00:00:00 | |
| DL8DAS-15 | 2026-08-31 07:50:35 | 50.10890 | 8.72864 | 51° | 58km/h | 16853m | 3.2m/s | -48.9°C | 0% | 0hPa | 4.1V | 00:00:00 | 00:00:00 | 00:00:00 | |
| DF8AY | 2026-08-31 07:50:34 | 50.10869 | 8.72828 | 43° | 62km/h | 16844m | 3.7m/s | -48.9°C | 0% | 0hPa | 4.1V | 00:00:00 | 00:00:00 | 00:00:00 | |
| DL1NUX | 2026-08-31 07:50:33 | 50.10819 | 8.72757 | 39° | 69km/h | 16821m | 4.5m/s | 0°C | 0% | 0hPa | 0V | 00:00:00 | 00:00:00 | 00:00:00 | |
| DN1GJH-1 | 2026-08-31 07:50:32 | 50.10858 | 8.72812 | 43° | 57km/h | 16841m | 2.9m/s | -48.9°C | 0% | 0hPa | 0V | 00:00:00 | 00:00:00 | 00:00:00 | |
| DM0DOS-11 | 2026-08-31 07:50:29 | 50.10777 | 8.72692 | 34° | 51km/h | 16805m | 3m/s | 0°C | 0% | 0hPa | 0V | 00:00:00 | 00:00:00 | 00:00:00 | |
| BIOWL1-15 | 2026-08-31 07:50:29 | 50.10819 | 8.72757 | 39° | 69km/h | 16825m | 3.4m/s | -48.9°C | 0% | 0hPa | 4.1V | 00:00:00 | 00:00:00 | 00:00:00 | |
| DO3DL | 2026-08-31 07:50:27 | 50.10795 | 8.72720 | 53° | 57km/h | 16817m | 3.4m/s | -49.0°C | 0% | 0hPa | 0V | 00:00:00 | 00:00:00 | 00:00:00 | |
| DL1XH-west | 2026-08-31 07:50:27 | 50.10795 | 8.72720 | 52° | 57km/h | 16817m | 3.4m/s | -49°C | 0% | 0hPa | 4.1V | 00:00:00 | 00:00:00 | 00:00:00 | |
| DO3MHA-11 | 2026-08-31 07:50:26 | 50.10795 | 8.72720 | 52° | 58km/h | 16813m | 4.9m/s | 0°C | 0% | 0hPa | 0V | 00:00:00 | 00:00:00 | 00:00:00 | |
| CB1BUN | 2026-08-31 07:50:25 | 50.10786 | 8.72704 | 46° | 51km/h | 16813m | 4.9m/s | -48.9°C | 0% | 0hPa | 0V | 00:00:00 | 00:00:00 | 00:00:00 | |
| DL1NUX | 2026-08-31 07:50:23 | 50.10713 | 8.72592 | 55° | 55km/h | 16781m | 4.6m/s | 0°C | 0% | 0hPa | 0V | 00:00:00 | 00:00:00 | 00:00:00 | |
| DK7TD | 2026-08-31 07:50:23 | 50.10756 | 8.72663 | 52° | 58km/h | 16801m | 5.2m/s | -48.8°C | 0% | 0hPa | 4.1V | 00:00:00 | 00:00:00 | 00:00:00 | |
| BIOWL1-15 | 2026-08-31 07:50:22 | 50.10704 | 8.72572 | 55° | 57km/h | 16781m | 4.6m/s | -48.7°C | 0% | 0hPa | 4.1V | 00:00:00 | 00:00:00 | 00:00:00 | |
| DB0UT-7 | 2026-08-31 07:50:19 | 50.10725 | 8.72603 | 39° | 68km/h | 16785m | 4.2m/s | 0°C | 0% | 0hPa | 0V | 00:00:00 | 00:00:00 | 00:00:00 | |
| DF2AP-13 | 2026-08-31 07:50:18 | 50.10713 | 8.72588 | 42° | 66km/h | 16785m | 4.2m/s | 0°C | 0% | 0hPa | 0V | 00:00:00 | 00:00:00 | 00:00:00 | |
| DO3MHA-11 | 2026-08-31 07:50:16 | 50.10695 | 8.72551 | 50° | 64km/h | 16772m | 5.5m/s | 0°C | 0% | 0hPa | 0V | 00:00:00 | 00:00:00 | 00:00:00 | |
| DL1XH-west | 2026-08-31 07:50:16 | 50.10686 | 8.72531 | 50° | 71km/h | 16772m | 5.5m/s | -48.7°C | 0% | 0hPa | 4.1V | 00:00:00 | 00:00:00 | 00:00:00 | |
| DO8TBO-1 | 2026-08-31 07:50:14 | 50.10667 | 8.72511 | 45° | 68km/h | 16768m | 2.2m/s | 0°C | 0% | 0hPa | 0V | 00:00:00 | 00:00:00 | 00:00:00 | |
| DL1NUX | 2026-08-31 07:50:13 | 50.10617 | 8.72397 | 54° | 69km/h | 16740m | 3.1m/s | 0°C | 0% | 0hPa | 0V | 00:00:00 | 00:00:00 | 00:00:00 | |
| DK7TD | 2026-08-31 07:50:12 | 50.10647 | 8.72455 | 60° | 53km/h | 16756m | 3.2m/s | -48.8°C | 0% | 0hPa | 4.1V | 00:00:00 | 00:00:00 | 00:00:00 | |
| DN1GJH-1 | 2026-08-31 07:50:11 | 50.10647 | 8.72455 | 61° | 53km/h | 16756m | 3.2m/s | -48.8°C | 0% | 0hPa | 4.1V | 00:00:00 | 00:00:00 | 00:00:00 | |
| DB0NH | 2026-08-31 07:50:10 | 50.10639 | 8.72439 | 48° | 69km/h | 16748m | 3.1m/s | 0°C | 0% | 0hPa | 4.1V | 00:00:00 | 00:00:00 | 00:00:00 | |
| NBG1-10 | 2026-08-31 07:50:08 | 50.10617 | 8.72397 | 55° | 71km/h | 16741m | 3.0m/s | 0°C | 0% | 0hPa | 4.1V | 00:00:00 | 00:00:00 | 00:00:00 | |
| BIOWL1-15 | 2026-08-31 07:50:07 | 50.10608 | 8.72374 | 61° | 66km/h | 16741m | 3.1m/s | -48.8°C | 0% | 0hPa | 4.1V | 00:00:00 | 00:00:00 | 00:00:00 | |
| DO3DL | 2026-08-31 07:50:07 | 50.10599 | 8.72352 | 58° | 64km/h | 16737m | 3.5m/s | -48.8°C | 0% | 0hPa | 0V | 00:00:00 | 00:00:00 | 00:00:00 | |
| DO3MHA-11 | 2026-08-31 07:50:06 | 50.10600 | 8.72352 | 58° | 68km/h | 16733m | 4.6m/s | 0°C | 0% | 0hPa | 0V | 00:00:00 | 00:00:00 | 00:00:00 | |
| DL1XH-west | 2026-08-31 07:50:06 | 50.10590 | 8.72332 | 47° | 66km/h | 16733m | 4.6m/s | -48.8°C | 0% | 0hPa | 4.1V | 00:00:00 | 00:00:00 | 00:00:00 | |
| CB1BUN | 2026-08-31 07:50:04 | 50.10578 | 8.72313 | 47° | 66km/h | 16730m | 2.3m/s | -48.8°C | 0% | 0hPa | 0V | 00:00:00 | 00:00:00 | 00:00:00 | |
| DL1NUX | 2026-08-31 07:50:03 | 50.10518 | 8.72184 | 56° | 66km/h | 16701m | 3.3m/s | 0°C | 0% | 0hPa | 0V | 00:00:00 | 00:00:00 | 00:00:00 | |
| DO1YAY-16 | 2026-08-31 07:50:02 | 50.10550 | 8.72248 | 58° | 69km/h | 16717m | 4.4m/s | -48.9°C | -1.0% | -1.0hPa | 4.1V | 00:00:00 | 00:00:00 | 00:00:00 | |
| DK7TD | 2026-08-31 07:50:01 | 50.10540 | 8.72225 | 49° | 71km/h | 16713m | 3.9m/s | -49.1°C | 0% | 0hPa | 4.1V | 00:00:00 | 00:00:00 | 00:00:00 | |
| DL8DAS-15 | 2026-08-31 07:50:00 | 50.10540 | 8.72225 | 50° | 71km/h | 16713m | 3.9m/s | -49.1°C | 0% | 0hPa | 0V | 00:00:00 | 00:00:00 | 00:00:00 | |
| DM0DOS-11 | 2026-08-31 07:49:59 | 50.10476 | 8.72094 | 55° | 78km/h | 16685m | 2.5m/s | 0°C | 0% | 0hPa | 0V | 00:00:00 | 00:00:00 | 00:00:00 | |
| BIOWL1-15 | 2026-08-31 07:49:57 | 50.10499 | 8.72140 | 51° | 69km/h | 16697m | 4.4m/s | -49.4°C | 0% | 0hPa | 4.1V | 00:00:00 | 00:00:00 | 00:00:00 | |
| DO3MHA-11 | 2026-08-31 07:49:56 | 50.10499 | 8.72140 | 51° | 73km/h | 16694m | 3.6m/s | 0°C | 0% | 0hPa | 4.1V | 00:00:00 | 00:00:00 | 00:00:00 | |
| DL1XH-west | 2026-08-31 07:49:55 | 50.10476 | 8.72094 | 56° | 78km/h | 16689m | 4.8m/s | -49.4°C | 0% | 0hPa | 4.1V | 00:00:00 | 00:00:00 | 00:00:00 | |
| DO3DL | 2026-08-31 07:49:54 | 50.10464 | 8.72068 | 60° | 80km/h | 16686m | 2.5m/s | -49.5°C | 0% | 0hPa | 4.1V | 00:00:00 | 00:00:00 | 00:00:00 | |
| DF1GD-15 | 2026-08-31 07:49:53 | 50.10464 | 8.72068 | 60° | 80km/h | 16686m | 2.5m/s | -49.5°C | 0% | 0hPa | 4.1V | 00:00:00 | 00:00:00 | 00:00:00 | |
| DN1GJH-1 | 2026-08-31 07:49:51 | 50.10442 | 8.72021 | 47° | 69km/h | 16674m | 4.0m/s | -49.6°C | 0% | 0hPa | 4.1V | 00:00:00 | 00:00:00 | 00:00:00 | |
| DK7TD | 2026-08-31 07:49:50 | 50.10421 | 8.71978 | 61° | 71km/h | 16670m | 4.6m/s | -49.8°C | 0% | 0hPa | 4.1V | 00:00:00 | 00:00:00 | 00:00:00 | |
| DB0UT-7 | 2026-08-31 07:49:49 | 50.10421 | 8.71978 | 62° | 69km/h | 16666m | 3.2m/s | 0°C | 0% | 0hPa | 4.1V | 00:00:00 | 00:00:00 | 00:00:00 | |
| DF2AP-13 | 2026-08-31 07:49:48 | 50.10412 | 8.71950 | 55° | 69km/h | 16662m | 4.4m/s | 0°C | 0% | 0hPa | 4.1V | 00:00:00 | 00:00:00 | 00:00:00 | |
| DO3DL | 2026-08-31 07:49:47 | 50.10401 | 8.71927 | 55° | 77km/h | 16662m | 4.4m/s | -49.9°C | 0% | 0hPa | 4.1V | 00:00:00 | 00:00:00 | 00:00:00 | |
| BIOWL1-15 | 2026-08-31 07:49:46 | 50.10379 | 8.71882 | 54° | 71km/h | 16655m | 4.2m/s | -50°C | 0% | 0hPa | 4.1V | 00:00:00 | 00:00:00 | 00:00:00 | |
| DO3MHA-11 | 2026-08-31 07:49:45 | 50.10379 | 8.71882 | 55° | 73km/h | 16651m | 2.9m/s | 0°C | 0% | 0hPa | 4.1V | 00:00:00 | 00:00:00 | 00:00:00 | |
| DL1XH-west | 2026-08-31 07:49:44 | 50.10359 | 8.71834 | 56° | 71km/h | 16648m | 3.4m/s | -50.1°C | 0% | 0hPa | 4.1V | 00:00:00 | 00:00:00 | 00:00:00 | |
| DO8TBO-1 | 2026-08-31 07:49:43 | 50.10359 | 8.71834 | 56° | 68km/h | 16644m | 4.0m/s | 0°C | 0% | 0hPa | 4.1V | 00:00:00 | 00:00:00 | 00:00:00 | |
| DO3DL | 2026-08-31 07:49:41 | 50.10326 | 8.71769 | 60° | 69km/h | 16637m | 4.9m/s | -50.2°C | 0% | 0hPa | 4.1V | 00:00:00 | 00:00:00 | 00:00:00 | |
| DK7TD | 2026-08-31 07:49:40 | 50.10317 | 8.71744 | 62° | 73km/h | 16633m | 3.4m/s | -50.2°C | 0% | 0hPa | 4.1V | 00:00:00 | 00:00:00 | 00:00:00 | |
| DM0DOS-11 | 2026-08-31 07:49:39 | 50.10264 | 8.71627 | 54° | 68km/h | 16610m | 3.7m/s | 0°C | 0% | 0hPa | 0V | 00:00:00 | 00:00:00 | 00:00:00 | |
| BIOWL1-15 | 2026-08-31 07:49:35 | 50.10264 | 8.71627 | 55° | 68km/h | 16614m | 3.9m/s | -50.5°C | 0% | 0hPa | 4.1V | 00:00:00 | 00:00:00 | 00:00:00 | |
| DO3DL | 2026-08-31 07:49:34 | 50.10264 | 8.71627 | 56° | 68km/h | 16614m | 3.9m/s | -50.5°C | 0% | 0hPa | 0V | 00:00:00 | 00:00:00 | 00:00:00 | |
| DL1NUX | 2026-08-31 07:49:33 | 50.10204 | 8.71487 | 47° | 77km/h | 16588m | 4.2m/s | 0°C | 0% | 0hPa | 0V | 00:00:00 | 00:00:00 | 00:00:00 | |
| DL1XH-west | 2026-08-31 07:49:33 | 50.10244 | 8.71585 | 54° | 68km/h | 16607m | 3.1m/s | -50.7°C | 0% | 0hPa | 4.1V | 00:00:00 | 00:00:00 | 00:00:00 | |
| DO2KSM | 2026-08-31 07:49:31 | 50.10234 | 8.71562 | 64° | 69km/h | 16603m | 4.9m/s | -50.8°C | 0% | 0hPa | 0V | 00:00:00 | 00:00:00 | 00:00:00 | |
| DM0DOS-11 | 2026-08-31 07:49:29 | 50.10169 | 8.71404 | 57° | 68km/h | 16571m | 3.7m/s | 0°C | 0% | 0hPa | 0V | 00:00:00 | 00:00:00 | 00:00:00 | |
| DF8AY | 2026-08-31 07:49:29 | 50.10204 | 8.71487 | 48° | 77km/h | 16592m | 2.3m/s | -51°C | 0% | 0hPa | 4.1V | 00:00:00 | 00:00:00 | 00:00:00 | |
| DO3DL | 2026-08-31 07:49:28 | 50.10204 | 8.71487 | 49° | 77km/h | 16592m | 2.3m/s | -51.0°C | 0% | 0hPa | 4.1V | 00:00:00 | 00:00:00 | 00:00:00 | |
| SO1NDE-10 | 2026-08-31 07:49:27 | 50.10192 | 8.71466 | 62° | 64km/h | 16584m | 4.5m/s | 0°C | 0% | 0hPa | 4.1V | 00:00:00 | 00:00:00 | 00:00:00 | |
| BIOWL1-15 | 2026-08-31 07:49:26 | 50.10169 | 8.71404 | 58° | 68km/h | 16575m | 4m/s | -51.3°C | 0% | 0hPa | 4.1V | 00:00:00 | 00:00:00 | 00:00:00 | |
| DO3MHA-11 | 2026-08-31 07:49:25 | 50.10177 | 8.71426 | 64° | 64km/h | 16575m | 4.0m/s | 0°C | 0% | 0hPa | 0V | 00:00:00 | 00:00:00 | 00:00:00 | |
| CB1BUN | 2026-08-31 07:49:24 | 50.10160 | 8.71381 | 58° | 69km/h | 16571m | 3.7m/s | -51.4°C | 0% | 0hPa | 0V | 00:00:00 | 00:00:00 | 00:00:00 | |
| DL1NUX | 2026-08-31 07:49:23 | 50.10119 | 8.71280 | 73° | 58km/h | 16546m | 2.6m/s | 0°C | 0% | 0hPa | 0V | 00:00:00 | 00:00:00 | 00:00:00 | |
| DL1XH-west | 2026-08-31 07:49:22 | 50.10143 | 8.71339 | 57° | 60km/h | 16563m | 4.7m/s | -51.4°C | 0% | 0hPa | 4.1V | 00:00:00 | 00:00:00 | 00:00:00 | |
| DO3DL | 2026-08-31 07:49:21 | 50.10143 | 8.71338 | 58° | 58km/h | 16563m | 4.7m/s | -51.4°C | 0% | 0hPa | 0V | 00:00:00 | 00:00:00 | 00:00:00 | |
| DM0DOS-11 | 2026-08-31 07:49:19 | 50.10090 | 8.71186 | 67° | 66km/h | 16528m | 3.8m/s | 0°C | 0% | 0hPa | 0V | 00:00:00 | 00:00:00 | 00:00:00 | |
| DB0UT-7 | 2026-08-31 07:49:19 | 50.10126 | 8.71300 | 59° | 62km/h | 16551m | 6.0m/s | 0°C | 0% | 0hPa | 4.1V | 00:00:00 | 00:00:00 | 00:00:00 | |
| DF2AP-13 | 2026-08-31 07:49:18 | 50.10119 | 8.71280 | 74° | 64km/h | 16538m | 4.0m/s | 0°C | 0% | 0hPa | 4.1V | 00:00:00 | 00:00:00 | 00:00:00 | |
| DK7TD | 2026-08-31 07:49:18 | 50.10114 | 8.71256 | 73° | 64km/h | 16546m | 2.6m/s | -51.4°C | 0% | 0hPa | 4.1V | 00:00:00 | 00:00:00 | 00:00:00 | |
| DO3MHA-11 | 2026-08-31 07:49:15 | 50.10099 | 8.71208 | 56° | 64km/h | 16534m | 5.1m/s | 0°C | 0% | 0hPa | 4.1V | 00:00:00 | 00:00:00 | 00:00:00 | |
| BIOWL1-15 | 2026-08-31 07:49:14 | 50.10082 | 8.71163 | 67° | 62km/h | 16528m | 3.8m/s | -51.4°C | 0% | 0hPa | 4.1V | 00:00:00 | 00:00:00 | 00:00:00 | |
| DL1NUX | 2026-08-31 07:49:13 | 50.10054 | 8.71049 | 74° | 60km/h | 16503m | 5.7m/s | 0°C | 0% | 0hPa | 0V | 00:00:00 | 00:00:00 | 00:00:00 | |
| DO8TBO-1 | 2026-08-31 07:49:13 | 50.10082 | 8.71163 | 68° | 64km/h | 16524m | 5.0m/s | 0°C | 0% | 0hPa | 4.1V | 00:00:00 | 00:00:00 | 00:00:00 | |
| DF1GD-15 | 2026-08-31 07:49:12 | 50.10076 | 8.71141 | 67° | 62km/h | 16524m | 5.0m/s | -51.4°C | 0% | 0hPa | 4.1V | 00:00:00 | 00:00:00 | 00:00:00 | |
| DL1XH-west | 2026-08-31 07:49:11 | 50.10069 | 8.71118 | 63° | 64km/h | 16520m | 3.9m/s | -51.4°C | 0% | 0hPa | 4.1V | 00:00:00 | 00:00:00 | 00:00:00 | |
| DB0NH | 2026-08-31 07:49:10 | 50.10063 | 8.71096 | 69° | 64km/h | 16512m | 5.7m/s | 0°C | 0% | 0hPa | 0V | 00:00:00 | 00:00:00 | 00:00:00 | |
| DM0DOS-11 | 2026-08-31 07:49:09 | 50.10029 | 8.70959 | 78° | 66km/h | 16484m | 5.2m/s | 0°C | 0% | 0hPa | 0V | 00:00:00 | 00:00:00 | 00:00:00 | |
| DO3DL | 2026-08-31 07:49:08 | 50.10054 | 8.71049 | 76° | 60km/h | 16508m | 3.2m/s | -51.7°C | 0% | 0hPa | 4.1V | 00:00:00 | 00:00:00 | 00:00:00 | |
| DF8AY | 2026-08-31 07:49:07 | 50.10041 | 8.71006 | 59° | 64km/h | 16498m | 3.6m/s | -52°C | 0% | 0hPa | 4.1V | 00:00:00 | 00:00:00 | 00:00:00 | |
| DO3MHA-11 | 2026-08-31 07:49:05 | 50.10034 | 8.70984 | 79° | 64km/h | 16489m | 4.5m/s | 0°C | 0% | 0hPa | 0V | 00:00:00 | 00:00:00 | 00:00:00 | |
| DL1NUX | 2026-08-31 07:49:03 | 50.10006 | 8.70811 | 61° | 58km/h | 16458m | 2.2m/s | 0°C | 0% | 0hPa | 0V | 00:00:00 | 00:00:00 | 00:00:00 | |
| BIOWL1-15 | 2026-08-31 07:49:03 | 50.10021 | 8.70909 | 75° | 66km/h | 16480m | 3.5m/s | -52.5°C | 0% | 0hPa | 4.1V | 00:00:00 | 00:00:00 | 00:00:00 | |
| NBG1-10 | 2026-08-31 07:49:02 | 50.10021 | 8.70909 | 75° | 62km/h | 16476m | 4.2m/s | 0°C | 0% | 0hPa | 4.1V | 00:00:00 | 00:00:00 | 00:00:00 | |
| DL1XH-west | 2026-08-31 07:49:01 | 50.10014 | 8.70858 | 82° | 68km/h | 16472m | 3.6m/s | -52.6°C | 0% | 0hPa | 4.1V | 00:00:00 | 00:00:00 | 00:00:00 | |
| DM0DOS-11 | 2026-08-31 07:48:59 | 50.09985 | 8.70716 | 71° | 68km/h | 16441m | 4.2m/s | 0°C | 0% | 0hPa | 0V | 00:00:00 | 00:00:00 | 00:00:00 | |
| SO1NDE-10 | 2026-08-31 07:48:57 | 50.09998 | 8.70791 | 59° | 62km/h | 16455m | 5.8m/s | 0°C | 0% | 0hPa | 4.1V | 00:00:00 | 00:00:00 | 00:00:00 | |
| DF8AY | 2026-08-31 07:48:57 | 50.09991 | 8.70769 | 70° | 64km/h | 16455m | 5.9m/s | -52.5°C | 0% | 0hPa | 4.1V | 00:00:00 | 00:00:00 | 00:00:00 | |
| DO3MHA-11 | 2026-08-31 07:48:55 | 50.09988 | 8.70744 | 84° | 64km/h | 16445m | 4.7m/s | 0°C | 0% | 0hPa | 4.1V | 00:00:00 | 00:00:00 | 00:00:00 | |
| BIOWL1-15 | 2026-08-31 07:48:52 | 50.09970 | 8.70647 | 68° | 64km/h | 16431m | 4.7m/s | -52.4°C | 0% | 0hPa | 4.1V | 00:00:00 | 00:00:00 | 00:00:00 | |
| DF1GD-15 | 2026-08-31 07:48:51 | 50.09970 | 8.70647 | 69° | 64km/h | 16432m | 4.7m/s | -52.4°C | 0% | 0hPa | 4.1V | 00:00:00 | 00:00:00 | 00:00:00 | |
| DL1XH-west | 2026-08-31 07:48:50 | 50.09956 | 8.70600 | 63° | 66km/h | 16423m | 3.6m/s | -52.4°C | 0% | 0hPa | 4.1V | 00:00:00 | 00:00:00 | 00:00:00 | |
| DO3DL | 2026-08-31 07:48:49 | 50.09956 | 8.70600 | 64° | 66km/h | 16423m | 3.6m/s | -52.4°C | 0% | 0hPa | 4.1V | 00:00:00 | 00:00:00 | 00:00:00 | |
| DF2AP-13 | 2026-08-31 07:48:48 | 50.09950 | 8.70579 | 82° | 60km/h | 16409m | 3.0m/s | 0°C | 0% | 0hPa | 4.1V | 00:00:00 | 00:00:00 | 00:00:00 | |
| DK7TD | 2026-08-31 07:48:46 | 50.09941 | 8.70510 | 68° | 64km/h | 16405m | 5.7m/s | -52.6°C | 0% | 0hPa | 4.1V | 00:00:00 | 00:00:00 | 00:00:00 | |
| DO3MHA-11 | 2026-08-31 07:48:45 | 50.09941 | 8.70510 | 69° | 64km/h | 16400m | 4.5m/s | 0°C | 0% | 0hPa | 4.1V | 00:00:00 | 00:00:00 | 00:00:00 | |
| BIOWL1-15 | 2026-08-31 07:48:44 | 50.09910 | 8.70414 | 68° | 60km/h | 16385m | 5.6m/s | -53.1°C | 0% | 0hPa | 4.1V | 00:00:00 | 00:00:00 | 00:00:00 | |
| DL1NUX | 2026-08-31 07:48:43 | 50.09895 | 8.70354 | 72° | 55km/h | 16366m | 6.2m/s | 0°C | 0% | 0hPa | 0V | 00:00:00 | 00:00:00 | 00:00:00 | |
| CB1BUN | 2026-08-31 07:48:43 | 50.09916 | 8.70437 | 69° | 66km/h | 16391m | 4.6m/s | -53.1°C | 0% | 0hPa | 0V | 00:00:00 | 00:00:00 | 00:00:00 | |
| THATR2-17 | 2026-08-31 07:48:42 | 50.09766 | 8.69782 | 66° | 62km/h | 16250m | 0m/s | 0°C | 0% | 0hPa | 0V | 00:00:00 | 00:00:00 | 00:00:00 | |
| DB0NH | 2026-08-31 07:48:40 | 50.09905 | 8.70393 | 65° | 62km/h | 16376m | 4.9m/s | 0°C | 0% | 0hPa | 0V | 00:00:00 | 00:00:00 | 00:00:00 | |
| DM0DOS-11 | 2026-08-31 07:48:39 | 50.09867 | 8.70263 | 76° | 58km/h | 16347m | 3.8m/s | 0°C | 0% | 0hPa | 0V | 00:00:00 | 00:00:00 | 00:00:00 | |
| DL1XH-west | 2026-08-31 07:48:39 | 50.09895 | 8.70354 | 72° | 55km/h | 16371m | 3.8m/s | -53.2°C | 0% | 0hPa | 4.1V | 00:00:00 | 00:00:00 | 00:00:00 | |
| HEMX73-11 | 2026-08-31 07:48:38 | 50.09895 | 8.70354 | 73° | 55km/h | 16371m | 3.8m/s | -53.2°C | 0% | 0hPa | 4.1V | 00:00:00 | 00:00:00 | 00:00:00 | |
| DO3DL | 2026-08-31 07:48:36 | 50.09881 | 8.70310 | 60° | 69km/h | 16361m | 3.9m/s | -53.1°C | 0% | 0hPa | 4.1V | 00:00:00 | 00:00:00 | 00:00:00 | |
| DF8AY | 2026-08-31 07:48:35 | 50.09868 | 8.70263 | 77° | 58km/h | 16351m | 5.3m/s | -53.1°C | 0% | 0hPa | 4.1V | 00:00:00 | 00:00:00 | 00:00:00 | |
| DO3MHA-11 | 2026-08-31 07:48:35 | 50.09873 | 8.70284 | 77° | 60km/h | 16352m | 5.3m/s | 0°C | 0% | 0hPa | 0V | 00:00:00 | 00:00:00 | 00:00:00 | |
| DL1NUX | 2026-08-31 07:48:33 | 50.09836 | 8.70129 | 73° | 68km/h | 16318m | 3.8m/s | 0°C | 0% | 0hPa | 0V | 00:00:00 | 00:00:00 | 00:00:00 | |
| BIOWL1-15 | 2026-08-31 07:48:32 | 50.09846 | 8.70178 | 66° | 66km/h | 16333m | 5.2m/s | -52.9°C | 0% | 0hPa | 4.1V | 00:00:00 | 00:00:00 | 00:00:00 | |
| DF1GD-15 | 2026-08-31 07:48:31 | 50.09854 | 8.70201 | 62° | 64km/h | 16338m | 4.2m/s | -53.0°C | 0% | 0hPa | 0V | 00:00:00 | 00:00:00 | 00:00:00 | |
| DO3DL | 2026-08-31 07:48:30 | 50.09841 | 8.70154 | 75° | 66km/h | 16328m | 4.6m/s | -52.9°C | 0% | 0hPa | 0V | 00:00:00 | 00:00:00 | 00:00:00 | |
| DM0DOS-11 | 2026-08-31 07:48:29 | 50.09819 | 8.70051 | 61° | 57km/h | 16299m | 6.4m/s | 0°C | 0% | 0hPa | 0V | 00:00:00 | 00:00:00 | 00:00:00 | |
| NBG1-10 | 2026-08-31 07:48:29 | 50.09841 | 8.70154 | 74° | 64km/h | 16323m | 5.5m/s | 0°C | 0% | 0hPa | 4.1V | 00:00:00 | 00:00:00 | 00:00:00 | |
| DL1XH-west | 2026-08-31 07:48:28 | 50.09836 | 8.70129 | 74° | 68km/h | 16323m | 5.5m/s | -52.9°C | 0% | 0hPa | 4.1V | 00:00:00 | 00:00:00 | 00:00:00 | |
| DO3MHA-11 | 2026-08-31 07:48:25 | 50.09823 | 8.70064 | 73° | 64km/h | 16305m | 4.7m/s | 0°C | 0% | 0hPa | 4.1V | 00:00:00 | 00:00:00 | 00:00:00 | |
| DF8AY | 2026-08-31 07:48:24 | 50.09811 | 8.70023 | 62° | 75km/h | 16299m | 6.4m/s | -52.8°C | 0% | 0hPa | 4.1V | 00:00:00 | 00:00:00 | 00:00:00 | |
| DN1GJH-1 | 2026-08-31 07:48:23 | 50.09803 | 8.69994 | 73° | 82km/h | 16294m | 3.2m/s | -52.7°C | 0% | 0hPa | 4.1V | 00:00:00 | 00:00:00 | 00:00:00 | |
| CB1BUN | 2026-08-31 07:48:22 | 50.09803 | 8.69994 | 73° | 82km/h | 16294m | 3.2m/s | -52.7°C | 0% | 0hPa | 4.1V | 00:00:00 | 00:00:00 | 00:00:00 | |
| DJTTGO | 2026-08-31 07:48:21 | 50.09799 | 8.69966 | 82° | 69km/h | 16290m | 5.4m/s | -52.7°C | 0% | 0hPa | 4.1V | 00:00:00 | 00:00:00 | 00:00:00 | |
| BIOWL1-15 | 2026-08-31 07:48:20 | 50.09794 | 8.69923 | 70° | 47km/h | 16279m | 5.5m/s | -52.6°C | 0% | 0hPa | 4.1V | 00:00:00 | 00:00:00 | 00:00:00 | |
| DM0DOS-11 | 2026-08-31 07:48:19 | 50.09771 | 8.69804 | 76° | 58km/h | 16250m | 4.2m/s | 0°C | 0% | 0hPa | 0V | 00:00:00 | 00:00:00 | 00:00:00 | |
| DL1XH-west | 2026-08-31 07:48:18 | 50.09781 | 8.69879 | 68° | 73km/h | 16270m | 3.9m/s | -52.6°C | 0% | 0hPa | 4.1V | 00:00:00 | 00:00:00 | 00:00:00 | |
| DF2AP-13 | 2026-08-31 07:48:17 | 50.09781 | 8.69879 | 68° | 66km/h | 16265m | 5.9m/s | 0°C | 0% | 0hPa | 4.1V | 00:00:00 | 00:00:00 | 00:00:00 | |
| DO3DL | 2026-08-31 07:48:16 | 50.09775 | 8.69852 | 79° | 69km/h | 16265m | 6.0m/s | -52.6°C | 0% | 0hPa | 4.1V | 00:00:00 | 00:00:00 | 00:00:00 | |
| DO3MHA-11 | 2026-08-31 07:48:15 | 50.09773 | 8.69827 | 85° | 64km/h | 16255m | 5.2m/s | 0°C | 0% | 0hPa | 4.1V | 00:00:00 | 00:00:00 | 00:00:00 | |
| DF8AY | 2026-08-31 07:48:14 | 50.09766 | 8.69782 | 66° | 62km/h | 16250m | 4.2m/s | -52.6°C | 0% | 0hPa | 4.1V | 00:00:00 | 00:00:00 | 00:00:00 | |
| DL1NUX | 2026-08-31 07:48:13 | 50.09745 | 8.69662 | 78° | 62km/h | 16219m | 5.4m/s | 0°C | 0% | 0hPa | 0V | 00:00:00 | 00:00:00 | 00:00:00 | |
| DO8TBO-1 | 2026-08-31 07:48:13 | 50.09766 | 8.69782 | 67° | 66km/h | 16246m | 5.1m/s | 0°C | 0% | 0hPa | 0V | 00:00:00 | 00:00:00 | 00:00:00 | |
| DL8DAS-14 | 2026-08-31 07:48:12 | 50.09755 | 8.69734 | 78° | 66km/h | 16240m | 5.5m/s | -52.7°C | -1.0% | -1.0hPa | 0V | 00:00:00 | 00:00:00 | 00:00:00 | |
| THATR2-17 | 2026-08-31 07:48:11 | 50.09752 | 8.69709 | 79° | 62km/h | 16234m | 0m/s | 0°C | 0% | 0hPa | 0V | 00:00:00 | 00:00:00 | 00:00:00 | |
| DB0NH | 2026-08-31 07:48:10 | 50.09752 | 8.69709 | 80° | 66km/h | 16229m | 4.6m/s | 0°C | 0% | 0hPa | 0V | 00:00:00 | 00:00:00 | 00:00:00 | |
| DM0DOS-11 | 2026-08-31 07:48:09 | 50.09729 | 8.69556 | 72° | 64km/h | 16199m | 6.2m/s | 0°C | 0% | 0hPa | 0V | 00:00:00 | 00:00:00 | 00:00:00 | |
| DO2KSM | 2026-08-31 07:48:09 | 50.09749 | 8.69685 | 77° | 60km/h | 16229m | 4.6m/s | -52.8°C | 0% | 0hPa | 4.1V | 00:00:00 | 00:00:00 | 00:00:00 | |
| BIOWL1-15 | 2026-08-31 07:48:09 | 50.09745 | 8.69662 | 79° | 62km/h | 16225m | 4.8m/s | -52.8°C | 0% | 0hPa | 4.1V | 00:00:00 | 00:00:00 | 00:00:00 | |
| DO3DL | 2026-08-31 07:48:08 | 50.09745 | 8.69662 | 80° | 62km/h | 16225m | 4.8m/s | -52.8°C | 0% | 0hPa | 4.1V | 00:00:00 | 00:00:00 | 00:00:00 | |
| DL1XH-west | 2026-08-31 07:48:07 | 50.09740 | 8.69609 | 79° | 73km/h | 16214m | 4.6m/s | -52.9°C | 0% | 0hPa | 4.1V | 00:00:00 | 00:00:00 | 00:00:00 | |
| DO3MHA-11 | 2026-08-31 07:48:05 | 50.09735 | 8.69580 | 73° | 68km/h | 16205m | 3.9m/s | 0°C | 0% | 0hPa | 0V | 00:00:00 | 00:00:00 | 00:00:00 | |
| WPPR-10 | 2026-08-31 07:48:04 | 50.09726 | 8.69532 | 83° | 58km/h | 16199m | 6.2m/s | -52.9°C | -1.0% | -1.0hPa | 0V | 00:00:00 | 00:00:00 | 00:00:00 | |
| DL1NUX | 2026-08-31 07:48:03 | 50.09712 | 8.69400 | 78° | 68km/h | 16169m | 4.6m/s | 0°C | 0% | 0hPa | 0V | 00:00:00 | 00:00:00 | 00:00:00 | |
| DF8AY | 2026-08-31 07:48:03 | 50.09725 | 8.69508 | 91° | 62km/h | 16194m | 3.9m/s | -53°C | 0% | 0hPa | 4.1V | 00:00:00 | 00:00:00 | 00:00:00 | |
| BIOWL1-15 | 2026-08-31 07:47:58 | 50.09709 | 8.69376 | 78° | 64km/h | 16169m | 4.6m/s | -53.1°C | 0% | 0hPa | 4.1V | 00:00:00 | 00:00:00 | 00:00:00 | |
| SO1NDE-10 | 2026-08-31 07:47:57 | 50.09709 | 8.69376 | 79° | 66km/h | 16164m | 5.2m/s | 0°C | 0% | 0hPa | 0V | 00:00:00 | 00:00:00 | 00:00:00 | |
| DO3DL | 2026-08-31 07:47:56 | 50.09700 | 8.69327 | 78° | 66km/h | 16160m | 4.1m/s | -53.2°C | 0% | 0hPa | 0V | 00:00:00 | 00:00:00 | 00:00:00 | |
| DL1XH-west | 2026-08-31 07:47:56 | 50.09700 | 8.69327 | 77° | 66km/h | 16159m | 4.1m/s | -53.2°C | 0% | 0hPa | 4.1V | 00:00:00 | 00:00:00 | 00:00:00 | |
| DO3MHA-11 | 2026-08-31 07:47:55 | 50.09700 | 8.69327 | 77° | 68km/h | 16155m | 5.8m/s | 0°C | 0% | 0hPa | 0V | 00:00:00 | 00:00:00 | 00:00:00 | |
| DJTTGO | 2026-08-31 07:47:54 | 50.09698 | 8.69300 | 85° | 69km/h | 16155m | 5.8m/s | -53.2°C | 0% | 0hPa | 0V | 00:00:00 | 00:00:00 | 00:00:00 | |
| DL1NUX | 2026-08-31 07:47:53 | 50.09675 | 8.69147 | 75° | 68km/h | 16119m | 4.3m/s | 0°C | 0% | 0hPa | 0V | 00:00:00 | 00:00:00 | 00:00:00 | |
| DK7TD | 2026-08-31 07:47:52 | 50.09687 | 8.69222 | 70° | 66km/h | 16139m | 4.1m/s | -53.1°C | 0% | 0hPa | 4.1V | 00:00:00 | 00:00:00 | 00:00:00 | |
| BIOWL1-15 | 2026-08-31 07:47:50 | 50.09670 | 8.69121 | 69° | 69km/h | 16119m | 4.3m/s | -53.1°C | 0% | 0hPa | 4.2V | 00:00:00 | 00:00:00 | 00:00:00 | |
| DO3DL | 2026-08-31 07:47:49 | 50.09675 | 8.69147 | 77° | 68km/h | 16125m | 6.0m/s | -53.1°C | 0% | 0hPa | 4.2V | 00:00:00 | 00:00:00 | 00:00:00 | |
| DF2AP-13 | 2026-08-31 07:47:47 | 50.09670 | 8.69121 | 69° | 66km/h | 16115m | 4.6m/s | 0°C | 0% | 0hPa | 4.2V | 00:00:00 | 00:00:00 | 00:00:00 | |
| DL1XH-west | 2026-08-31 07:47:45 | 50.09658 | 8.69048 | 80° | 62km/h | 16105m | 5.2m/s | -53.1°C | 0% | 0hPa | 4.2V | 00:00:00 | 00:00:00 | 00:00:00 | |
| DO3MHA-11 | 2026-08-31 07:47:45 | 50.09660 | 8.69072 | 81° | 64km/h | 16105m | 5.1m/s | 0°C | 0% | 0hPa | 0V | 00:00:00 | 00:00:00 | 00:00:00 | |
| DL1NUX | 2026-08-31 07:47:43 | 50.09629 | 8.68903 | 68° | 64km/h | 16071m | 6.1m/s | 0°C | 0% | 0hPa | 0V | 00:00:00 | 00:00:00 | 00:00:00 | |
| DO3DL | 2026-08-31 07:47:42 | 50.09649 | 8.68999 | 72° | 68km/h | 16095m | 4.6m/s | -53.1°C | 0% | 0hPa | 4.2V | 00:00:00 | 00:00:00 | 00:00:00 | |
| DK7TD | 2026-08-31 07:47:41 | 50.09640 | 8.68950 | 75° | 64km/h | 16086m | 4m/s | -53.2°C | 0% | 0hPa | 4.2V | 00:00:00 | 00:00:00 | 00:00:00 | |
| DB0NH | 2026-08-31 07:47:40 | 50.09640 | 8.68950 | 75° | 66km/h | 16081m | 5.8m/s | 0°C | 0% | 0hPa | 4.2V | 00:00:00 | 00:00:00 | 00:00:00 | |
| BIOWL1-15 | 2026-08-31 07:47:39 | 50.09621 | 8.68854 | 82° | 68km/h | 16066m | 3.6m/s | -53.5°C | 0% | 0hPa | 4.2V | 00:00:00 | 00:00:00 | 00:00:00 | |
| HEMX73-11 | 2026-08-31 07:47:37 | 50.09624 | 8.68879 | 78° | 64km/h | 16071m | 6.1m/s | -53.4°C | 0% | 0hPa | 4.1V | 00:00:00 | 00:00:00 | 00:00:00 | |
| DO3DL | 2026-08-31 07:47:36 | 50.09621 | 8.68854 | 83° | 68km/h | 16066m | 3.6m/s | -53.5°C | 0% | 0hPa | 4.1V | 00:00:00 | 00:00:00 | 00:00:00 | |
| DO3MHA-11 | 2026-08-31 07:47:35 | 50.09617 | 8.68826 | 63° | 64km/h | 16056m | 4.6m/s | 0°C | 0% | 0hPa | 4.1V | 00:00:00 | 00:00:00 | 00:00:00 | |
| DL1XH-west | 2026-08-31 07:47:35 | 50.09611 | 8.68802 | 62° | 73km/h | 16056m | 4.7m/s | -53.7°C | 0% | 0hPa | 4.2V | 00:00:00 | 00:00:00 | 00:00:00 | |
| DN1GJH-1 | 2026-08-31 07:47:34 | 50.09603 | 8.68778 | 65° | 66km/h | 16052m | 4.9m/s | -53.7°C | 0% | 0hPa | 4.1V | 00:00:00 | 00:00:00 | 00:00:00 | |
| DF8AY | 2026-08-31 07:47:30 | 50.09583 | 8.68690 | 69° | 64km/h | 16033m | 4m/s | -54°C | 0% | 0hPa | 4.1V | 00:00:00 | 00:00:00 | 00:00:00 | |
| DF1GD-15 | 2026-08-31 07:47:29 | 50.09583 | 8.68690 | 70° | 64km/h | 16033m | 4.0m/s | -54.0°C | 0% | 0hPa | 4.1V | 00:00:00 | 00:00:00 | 00:00:00 | |
| SO1NDE-10 | 2026-08-31 07:47:27 | 50.09573 | 8.68641 | 73° | 73km/h | 16019m | 6.0m/s | 0°C | 0% | 0hPa | 4.1V | 00:00:00 | 00:00:00 | 00:00:00 | |
| BIOWL1-15 | 2026-08-31 07:47:26 | 50.09559 | 8.68595 | 61° | 62km/h | 16014m | 3.2m/s | -54.1°C | 0% | 0hPa | 4.1V | 00:00:00 | 00:00:00 | 00:00:00 | |
| DO3MHA-11 | 2026-08-31 07:47:25 | 50.09559 | 8.68595 | 61° | 68km/h | 16009m | 5.9m/s | 0°C | 0% | 0hPa | 4.1V | 00:00:00 | 00:00:00 | 00:00:00 | |
| DL1XH-west | 2026-08-31 07:47:23 | 50.09549 | 8.68548 | 82° | 66km/h | 16004m | 4.2m/s | -54°C | 0% | 0hPa | 4.1V | 00:00:00 | 00:00:00 | 00:00:00 | |
| NBG1-10 | 2026-08-31 07:47:23 | 50.09549 | 8.68548 | 83° | 75km/h | 16000m | 3.1m/s | 0°C | 0% | 0hPa | 4.1V | 00:00:00 | 00:00:00 | 00:00:00 | |
| CB1BUN | 2026-08-31 07:47:21 | 50.09533 | 8.68472 | 60° | 66km/h | 15990m | 4.2m/s | -54.1°C | 0% | 0hPa | 4.1V | 00:00:00 | 00:00:00 | 00:00:00 | |
| DK7TD | 2026-08-31 07:47:20 | 50.09525 | 8.68449 | 67° | 66km/h | 15986m | 4.7m/s | -54.1°C | 0% | 0hPa | 4.1V | 00:00:00 | 00:00:00 | 00:00:00 | |
| HEMX73-11 | 2026-08-31 07:47:17 | 50.09510 | 8.68370 | 72° | 71km/h | 15972m | 4.3m/s | -54.1°C | 0% | 0hPa | 4.1V | 00:00:00 | 00:00:00 | 00:00:00 | |
| BIOWL1-15 | 2026-08-31 07:47:15 | 50.09501 | 8.68318 | 78° | 66km/h | 15963m | 4.6m/s | -54.2°C | 0% | 0hPa | 4.1V | 00:00:00 | 00:00:00 | 00:00:00 | |
| DO3MHA-11 | 2026-08-31 07:47:15 | 50.09505 | 8.68344 | 79° | 73km/h | 15963m | 4.6m/s | 0°C | 0% | 0hPa | 0V | 00:00:00 | 00:00:00 | 00:00:00 | |
| DL1NUX | 2026-08-31 07:47:13 | 50.09473 | 8.68153 | 74° | 73km/h | 15931m | 4.2m/s | 0°C | 0% | 0hPa | 0V | 00:00:00 | 00:00:00 | 00:00:00 | |
| DL1XH-west | 2026-08-31 07:47:13 | 50.09491 | 8.68267 | 68° | 73km/h | 15954m | 4.4m/s | -54.2°C | 0% | 0hPa | 4.1V | 00:00:00 | 00:00:00 | 00:00:00 | |
| DO8TBO-1 | 2026-08-31 07:47:12 | 50.09491 | 8.68267 | 68° | 82km/h | 15950m | 3.4m/s | 0°C | 0% | 0hPa | 4.2V | 00:00:00 | 00:00:00 | 00:00:00 | |
| DB0NH | 2026-08-31 07:47:10 | 50.09479 | 8.68211 | 79° | 82km/h | 15941m | 3.1m/s | 0°C | 0% | 0hPa | 4.2V | 00:00:00 | 00:00:00 | 00:00:00 | |
| DK7TD | 2026-08-31 07:47:09 | 50.09473 | 8.68153 | 75° | 73km/h | 15936m | 5.7m/s | -54°C | 0% | 0hPa | 4.2V | 00:00:00 | 00:00:00 | 00:00:00 | |
| DO2KSM | 2026-08-31 07:47:07 | 50.09466 | 8.68126 | 64° | 75km/h | 15931m | 4.2m/s | -54.0°C | 0% | 0hPa | 0V | 00:00:00 | 00:00:00 | 00:00:00 | |
| DB0UT-7 | 2026-08-31 07:47:06 | 50.09453 | 8.68072 | 78° | 86km/h | 15913m | 3.8m/s | 0°C | 0% | 0hPa | 0V | 00:00:00 | 00:00:00 | 00:00:00 | |
| DO3MHA-11 | 2026-08-31 07:47:05 | 50.09453 | 8.68072 | 78° | 80km/h | 15918m | 4.5m/s | 0°C | 0% | 0hPa | 0V | 00:00:00 | 00:00:00 | 00:00:00 | |
| BIOWL1-15 | 2026-08-31 07:47:05 | 50.09450 | 8.68042 | 86° | 80km/h | 15917m | 4.6m/s | -54°C | 0% | 0hPa | 4.2V | 00:00:00 | 00:00:00 | 00:00:00 | |
| DO3DL | 2026-08-31 07:47:04 | 50.09447 | 8.68010 | 81° | 82km/h | 15913m | 3.8m/s | -54.1°C | 0% | 0hPa | 0V | 00:00:00 | 00:00:00 | 00:00:00 | |
| DL1NUX | 2026-08-31 07:47:03 | 50.09418 | 8.67860 | 78° | 95km/h | 15888m | 4.2m/s | 0°C | 0% | 0hPa | 0V | 00:00:00 | 00:00:00 | 00:00:00 | |
| DL1XH-west | 2026-08-31 07:47:02 | 50.09437 | 8.67952 | 70° | 73km/h | 15904m | 5m/s | -54.1°C | 0% | 0hPa | 4.2V | 00:00:00 | 00:00:00 | 00:00:00 | |
| DJTTGO | 2026-08-31 07:47:00 | 50.09431 | 8.67924 | 73° | 73km/h | 15901m | 3.2m/s | -54.1°C | 0% | 0hPa | 4.2V | 00:00:00 | 00:00:00 | 00:00:00 | |
| CB1BUN | 2026-08-31 07:46:59 | 50.09424 | 8.67895 | 73° | 84km/h | 15897m | 5.4m/s | -54.0°C | 0% | 0hPa | 4.2V | 00:00:00 | 00:00:00 | 00:00:00 | |
| DK7TD | 2026-08-31 07:46:58 | 50.09412 | 8.67827 | 79° | 91km/h | 15888m | 4.2m/s | -54°C | 0% | 0hPa | 4.2V | 00:00:00 | 00:00:00 | 00:00:00 | |
| SO1NDE-10 | 2026-08-31 07:46:57 | 50.09412 | 8.67827 | 79° | 89km/h | 15884m | 4.1m/s | 0°C | 0% | 0hPa | 4.2V | 00:00:00 | 00:00:00 | 00:00:00 | |
| BIOWL1-15 | 2026-08-31 07:46:56 | 50.09390 | 8.67708 | 67° | 86km/h | 15871m | 3.8m/s | -54°C | 0% | 0hPa | 4.2V | 00:00:00 | 00:00:00 | 00:00:00 | |
| DO3MHA-11 | 2026-08-31 07:46:55 | 50.09405 | 8.67765 | 76° | 84km/h | 15876m | 4.3m/s | 0°C | 0% | 0hPa | 0V | 00:00:00 | 00:00:00 | 00:00:00 | |
| DL1NUX | 2026-08-31 07:46:53 | 50.09362 | 8.67541 | 72° | 82km/h | 15847m | 3.8m/s | 0°C | 0% | 0hPa | 0V | 00:00:00 | 00:00:00 | 00:00:00 | |
| DL1XH-west | 2026-08-31 07:46:52 | 50.09378 | 8.67641 | 82° | 89km/h | 15863m | 3m/s | -54°C | 0% | 0hPa | 4.2V | 00:00:00 | 00:00:00 | 00:00:00 | |
| DM0DOS-11 | 2026-08-31 07:46:51 | 50.09351 | 8.67478 | 75° | 88km/h | 15834m | 4.4m/s | 0°C | 0% | 0hPa | 0V | 00:00:00 | 00:00:00 | 00:00:00 | |
| NBG1-10 | 2026-08-31 07:46:50 | 50.09374 | 8.67606 | 78° | 93km/h | 15855m | 3.4m/s | 0°C | 0% | 0hPa | 4.2V | 00:00:00 | 00:00:00 | 00:00:00 | |
| DF1GD-15 | 2026-08-31 07:46:48 | 50.09362 | 8.67540 | 73° | 82km/h | 15851m | 4.9m/s | -54.0°C | 0% | 0hPa | 4.2V | 00:00:00 | 00:00:00 | 00:00:00 | |
| DK7TD | 2026-08-31 07:46:47 | 50.09351 | 8.67478 | 75° | 88km/h | 15843m | 4m/s | -54°C | 0% | 0hPa | 4.2V | 00:00:00 | 00:00:00 | 00:00:00 | |
| DO2KSM | 2026-08-31 07:46:46 | 50.09351 | 8.67478 | 76° | 88km/h | 15843m | 4.0m/s | -54.0°C | 0% | 0hPa | 0V | 00:00:00 | 00:00:00 | 00:00:00 | |
| DO3MHA-11 | 2026-08-31 07:46:45 | 50.09345 | 8.67442 | 73° | 89km/h | 15834m | 4.4m/s | 0°C | 0% | 0hPa | 0V | 00:00:00 | 00:00:00 | 00:00:00 | |
| DO3DL | 2026-08-31 07:46:44 | 50.09337 | 8.67408 | 74° | 95km/h | 15834m | 4.4m/s | -54.0°C | 0% | 0hPa | 0V | 00:00:00 | 00:00:00 | 00:00:00 | |
| DL1NUX | 2026-08-31 07:46:43 | 50.09302 | 8.67206 | 73° | 95km/h | 15805m | 3.2m/s | 0°C | 0% | 0hPa | 0V | 00:00:00 | 00:00:00 | 00:00:00 | |
| BIOWL1-15 | 2026-08-31 07:46:43 | 50.09326 | 8.67341 | 76° | 84km/h | 15826m | 4.7m/s | -53.9°C | 0% | 0hPa | 4.2V | 00:00:00 | 00:00:00 | 00:00:00 | |
| DO8TBO-1 | 2026-08-31 07:46:42 | 50.09326 | 8.67341 | 76° | 97km/h | 15821m | 3.7m/s | 0°C | 0% | 0hPa | 0V | 00:00:00 | 00:00:00 | 00:00:00 | |
| DM0DOS-11 | 2026-08-31 07:46:41 | 50.09287 | 8.67138 | 71° | 84km/h | 15797m | 2.7m/s | 0°C | 0% | 0hPa | 0V | 00:00:00 | 00:00:00 | 00:00:00 | |
| DL1XH-west | 2026-08-31 07:46:41 | 50.09314 | 8.67275 | 75° | 89km/h | 15817m | 5m/s | -53.9°C | 0% | 0hPa | 4.2V | 00:00:00 | 00:00:00 | 00:00:00 | |
| DB0NH | 2026-08-31 07:46:40 | 50.09314 | 8.67275 | 75° | 97km/h | 15813m | 2.2m/s | 0°C | 0% | 0hPa | 4.2V | 00:00:00 | 00:00:00 | 00:00:00 | |
| CB1BUN | 2026-08-31 07:46:39 | 50.09308 | 8.67241 | 77° | 91km/h | 15813m | 2.2m/s | -53.9°C | 0% | 0hPa | 4.2V | 00:00:00 | 00:00:00 | 00:00:00 | |
| DO3DL | 2026-08-31 07:46:38 | 50.09295 | 8.67171 | 71° | 93km/h | 15805m | 3.2m/s | -53.9°C | 0% | 0hPa | 4.2V | 00:00:00 | 00:00:00 | 00:00:00 | |
| DK7TD | 2026-08-31 07:46:37 | 50.09287 | 8.67138 | 72° | 84km/h | 15801m | 5.4m/s | -53.9°C | 0% | 0hPa | 4.2V | 00:00:00 | 00:00:00 | 00:00:00 | |
| DO3MHA-11 | 2026-08-31 07:46:35 | 50.09281 | 8.67106 | 75° | 95km/h | 15793m | 5.0m/s | 0°C | 0% | 0hPa | 4.2V | 00:00:00 | 00:00:00 | 00:00:00 | |
| BIOWL1-15 | 2026-08-31 07:46:34 | 50.09256 | 8.66959 | 77° | 89km/h | 15781m | 3m/s | -54°C | 0% | 0hPa | 4.2V | 00:00:00 | 00:00:00 | 00:00:00 | |
| DJTTGO | 2026-08-31 07:46:33 | 50.09268 | 8.67035 | 75° | 106km/h | 15789m | 3.6m/s | -53.9°C | 0% | 0hPa | 0V | 00:00:00 | 00:00:00 | 00:00:00 | |
| DM0DOS-11 | 2026-08-31 07:46:31 | 50.09219 | 8.66782 | 76° | 95km/h | 15759m | 3.8m/s | 0°C | 0% | 0hPa | 0V | 00:00:00 | 00:00:00 | 00:00:00 | |
| DL1XH-west | 2026-08-31 07:46:30 | 50.09242 | 8.66892 | 68° | 95km/h | 15773m | 4m/s | -54°C | 0% | 0hPa | 4.2V | 00:00:00 | 00:00:00 | 00:00:00 | |
| DF1GD-15 | 2026-08-31 07:46:28 | 50.09233 | 8.66856 | 70° | 102km/h | 15770m | 2.5m/s | -54.0°C | 0% | 0hPa | 4.2V | 00:00:00 | 00:00:00 | 00:00:00 | |
| SO1NDE-10 | 2026-08-31 07:46:27 | 50.09224 | 8.66819 | 75° | 99km/h | 15762m | 2.7m/s | 0°C | 0% | 0hPa | 4.2V | 00:00:00 | 00:00:00 | 00:00:00 | |
| DF8AY | 2026-08-31 07:46:26 | 50.09214 | 8.66745 | 77° | 97km/h | 15759m | 3.8m/s | -54.1°C | 0% | 0hPa | 4.2V | 00:00:00 | 00:00:00 | 00:00:00 | |
| DO3MHA-11 | 2026-08-31 07:46:25 | 50.09214 | 8.66745 | 77° | 100km/h | 15755m | 4.2m/s | 0°C | 0% | 0hPa | 0V | 00:00:00 | 00:00:00 | 00:00:00 | |
| DO3DL | 2026-08-31 07:46:24 | 50.09206 | 8.66708 | 69° | 102km/h | 15755m | 4.2m/s | -54.2°C | 0% | 0hPa | 0V | 00:00:00 | 00:00:00 | 00:00:00 | |
| DL1NUX | 2026-08-31 07:46:23 | 50.09153 | 8.66484 | 67° | 108km/h | 15732m | 3.9m/s | 0°C | 0% | 0hPa | 0V | 00:00:00 | 00:00:00 | 00:00:00 | |
| BEGRI65-1 | 2026-08-31 07:46:22 | 50.09173 | 8.66564 | 75° | 104km/h | 15743m | 4.4m/s | -54.3°C | 0% | 0hPa | 0V | 00:00:00 | 00:00:00 | 00:00:00 | |
| DM0DOS-11 | 2026-08-31 07:46:21 | 50.09135 | 8.66411 | 69° | 93km/h | 15721m | 3.3m/s | 0°C | 0% | 0hPa | 0V | 00:00:00 | 00:00:00 | 00:00:00 | |
| BIOWL1-15 | 2026-08-31 07:46:21 | 50.09173 | 8.66564 | 74° | 104km/h | 15743m | 4.4m/s | -54.3°C | 0% | 0hPa | 4.2V | 00:00:00 | 00:00:00 | 00:00:00 | |
| DL1XH-west | 2026-08-31 07:46:19 | 50.09153 | 8.66484 | 68° | 108km/h | 15736m | 3m/s | -54.3°C | 0% | 0hPa | 4.2V | 00:00:00 | 00:00:00 | 00:00:00 | |
| CB1BUN | 2026-08-31 07:46:18 | 50.09153 | 8.66483 | 69° | 108km/h | 15736m | 3.0m/s | -54.3°C | 0% | 0hPa | 4.2V | 00:00:00 | 00:00:00 | 00:00:00 | |
| NBG1-10 | 2026-08-31 07:46:17 | 50.09144 | 8.66446 | 70° | 95km/h | 15728m | 3.2m/s | 0°C | 0% | 0hPa | 4.2V | 00:00:00 | 00:00:00 | 00:00:00 | |
| DK7TD | 2026-08-31 07:46:15 | 50.09117 | 8.66339 | 69° | 102km/h | 15721m | 3.3m/s | -54.3°C | 0% | 0hPa | 4.2V | 00:00:00 | 00:00:00 | 00:00:00 | |
| DL1NUX | 2026-08-31 07:46:13 | 50.09063 | 8.66118 | 75° | 95km/h | 15697m | 4.7m/s | 0°C | 0% | 0hPa | 0V | 00:00:00 | 00:00:00 | 00:00:00 | |
| BIOWL1-15 | 2026-08-31 07:46:13 | 50.09079 | 8.66188 | 65° | 99km/h | 15707m | 2.1m/s | -54.3°C | 0% | 0hPa | 4.2V | 00:00:00 | 00:00:00 | 00:00:00 | |
| DO8TBO-1 | 2026-08-31 07:46:12 | 50.09100 | 8.66262 | 71° | 93km/h | 15711m | 3.8m/s | 0°C | 0% | 0hPa | 0V | 00:00:00 | 00:00:00 | 00:00:00 | |
| DM0DOS-11 | 2026-08-31 07:46:10 | 50.09033 | 8.66007 | 60° | 102km/h | 15686m | 2.8m/s | 0°C | 0% | 0hPa | 0V | 00:00:00 | 00:00:00 | 00:00:00 | |
| DL1XH-west | 2026-08-31 07:46:09 | 50.09063 | 8.66118 | 75° | 95km/h | 15701m | 1.9m/s | -54.5°C | 0% | 0hPa | 4.2V | 00:00:00 | 00:00:00 | 00:00:00 | |
| KANTATE | 2026-08-31 07:46:08 | 50.09056 | 8.66081 | 72° | 100km/h | 15698m | 4.7m/s | -54.5°C | 0% | 0hPa | 4.2V | 00:00:00 | 00:00:00 | 00:00:00 | |
| DF1GD-15 | 2026-08-31 07:46:07 | 50.09056 | 8.66081 | 72° | 100km/h | 15698m | 4.7m/s | -54.5°C | 0% | 0hPa | 4.2V | 00:00:00 | 00:00:00 | 00:00:00 | |
| DO3MHA-11 | 2026-08-31 07:46:05 | 50.09033 | 8.66007 | 61° | 88km/h | 15686m | 2.7m/s | 0°C | 0% | 0hPa | 4.2V | 00:00:00 | 00:00:00 | 00:00:00 | |
| DK7TD | 2026-08-31 07:46:04 | 50.09012 | 8.65940 | 67° | 93km/h | 15683m | 4.1m/s | -54.6°C | 0% | 0hPa | 4.2V | 00:00:00 | 00:00:00 | 00:00:00 | |
| HTAHTA | 2026-08-31 07:46:02 | 50.08994 | 8.65871 | 68° | 93km/h | 15675m | 3.0m/s | -54.6°C | -1.0% | -1.0hPa | 0V | 00:00:00 | 00:00:00 | 00:00:00 | |
| DM0DOS-11 | 2026-08-31 07:46:00 | 50.08937 | 8.65672 | 67° | 80km/h | 15648m | 4.1m/s | 0°C | 0% | 0hPa | 0V | 00:00:00 | 00:00:00 | 00:00:00 | |
| BIOWL1-15 | 2026-08-31 07:46:00 | 50.08977 | 8.65805 | 66° | 93km/h | 15667m | 3.3m/s | -54.6°C | 0% | 0hPa | 4.2V | 00:00:00 | 00:00:00 | 00:00:00 | |
| DO3DL | 2026-08-31 07:45:59 | 50.08977 | 8.65805 | 67° | 93km/h | 15668m | 3.3m/s | -54.6°C | 0% | 0hPa | 4.2V | 00:00:00 | 00:00:00 | 00:00:00 | |
| DL1XH-west | 2026-08-31 07:45:58 | 50.08955 | 8.65736 | 64° | 99km/h | 15660m | 2.4m/s | -54.7°C | 0% | 0hPa | 4.2V | 00:00:00 | 00:00:00 | 00:00:00 | |
| DN1GJH-1 | 2026-08-31 07:45:57 | 50.08955 | 8.65736 | 65° | 99km/h | 15660m | 2.4m/s | -54.7°C | 0% | 0hPa | 4.2V | 00:00:00 | 00:00:00 | 00:00:00 | |
| SO1NDE-10 | 2026-08-31 07:45:56 | 50.08945 | 8.65703 | 65° | 86km/h | 15652m | 3.7m/s | 0°C | 0% | 0hPa | 4.2V | 00:00:00 | 00:00:00 | 00:00:00 | |
| HEMX73-11 | 2026-08-31 07:45:55 | 50.08929 | 8.65642 | 68° | 89km/h | 15648m | 4.1m/s | -54.6°C | 0% | 0hPa | 4.2V | 00:00:00 | 00:00:00 | 00:00:00 | |
| DF8AY | 2026-08-31 07:45:54 | 50.08919 | 8.65609 | 65° | 97km/h | 15645m | 2.9m/s | -54.7°C | 0% | 0hPa | 4.2V | 00:00:00 | 00:00:00 | 00:00:00 | |
| DL1NUX | 2026-08-31 07:45:53 | 50.08870 | 8.65447 | 66° | 88km/h | 15622m | 3m/s | 0°C | 0% | 0hPa | 0V | 00:00:00 | 00:00:00 | 00:00:00 | |
| DO3DL | 2026-08-31 07:45:52 | 50.08908 | 8.65576 | 63° | 93km/h | 15641m | 4.6m/s | -54.6°C | 0% | 0hPa | 4.2V | 00:00:00 | 00:00:00 | 00:00:00 | |
| BIOWL1-15 | 2026-08-31 07:45:49 | 50.08869 | 8.65447 | 67° | 88km/h | 15626m | 4.7m/s | -54.6°C | 0% | 0hPa | 4.2V | 00:00:00 | 00:00:00 | 00:00:00 | |
| DF2AP-13 | 2026-08-31 07:45:47 | 50.08860 | 8.65419 | 62° | 82km/h | 15618m | 4.9m/s | 0°C | 0% | 0hPa | 4.2V | 00:00:00 | 00:00:00 | 00:00:00 | |
| DL1XH-west | 2026-08-31 07:45:46 | 50.08850 | 8.65387 | 61° | 89km/h | 15618m | 4.9m/s | -54.6°C | 0% | 0hPa | 4.2V | 00:00:00 | 00:00:00 | 00:00:00 | |
| DO3DL | 2026-08-31 07:45:46 | 50.08850 | 8.65387 | 62° | 89km/h | 15618m | 4.9m/s | -54.6°C | 0% | 0hPa | 0V | 00:00:00 | 00:00:00 | 00:00:00 | |
| DO2KSM | 2026-08-31 07:45:45 | 50.08838 | 8.65355 | 64° | 97km/h | 15614m | 2.7m/s | -54.6°C | 0% | 0hPa | 0V | 00:00:00 | 00:00:00 | 00:00:00 | |
| NBG1-10 | 2026-08-31 07:45:44 | 50.08828 | 8.65322 | 65° | 80km/h | 15606m | 4.1m/s | 0°C | 0% | 0hPa | 0V | 00:00:00 | 00:00:00 | 00:00:00 | |
| DL1NUX | 2026-08-31 07:45:43 | 50.08772 | 8.65144 | 63° | 86km/h | 15583m | 4.3m/s | 0°C | 0% | 0hPa | 0V | 00:00:00 | 00:00:00 | 00:00:00 | |
| DK7TD | 2026-08-31 07:45:43 | 50.08811 | 8.65264 | 66° | 80km/h | 15602m | 4.4m/s | -54.5°C | 0% | 0hPa | 4.2V | 00:00:00 | 00:00:00 | 00:00:00 | |
| DO8TBO-1 | 2026-08-31 07:45:42 | 50.08811 | 8.65264 | 67° | 82km/h | 15598m | 2.6m/s | 0°C | 0% | 0hPa | 0V | 00:00:00 | 00:00:00 | 00:00:00 | |
| DM0DOS-11 | 2026-08-31 07:45:40 | 50.08743 | 8.65049 | 64° | 77km/h | 15571m | 3.2m/s | 0°C | 0% | 0hPa | 0V | 00:00:00 | 00:00:00 | 00:00:00 | |
| BIOWL1-15 | 2026-08-31 07:45:40 | 50.08762 | 8.65111 | 64° | 95km/h | 15583m | 4.3m/s | -54.5°C | 0% | 0hPa | 4.2V | 00:00:00 | 00:00:00 | 00:00:00 | |
| DO3DL | 2026-08-31 07:45:39 | 50.08782 | 8.65172 | 62° | 82km/h | 15590m | 3.9m/s | -54.5°C | 0% | 0hPa | 4.2V | 00:00:00 | 00:00:00 | 00:00:00 | |
| CB1BUN | 2026-08-31 07:45:37 | 50.08762 | 8.65111 | 65° | 93km/h | 15584m | 4.3m/s | -54.5°C | 0% | 0hPa | 4.2V | 00:00:00 | 00:00:00 | 00:00:00 | |
| DL1XH-west | 2026-08-31 07:45:36 | 50.08743 | 8.65049 | 65° | 77km/h | 15575m | 4.5m/s | -54.4°C | 0% | 0hPa | 4.2V | 00:00:00 | 00:00:00 | 00:00:00 | |
| HEMX73-11 | 2026-08-31 07:45:34 | 50.08734 | 8.65023 | 64° | 75km/h | 15571m | 3.2m/s | -54.4°C | 0% | 0hPa | 0V | 00:00:00 | 00:00:00 | 00:00:00 | |
| DL1NUX | 2026-08-31 07:45:33 | 50.08680 | 8.64847 | 65° | 84km/h | 15544m | 5.1m/s | 0°C | 0% | 0hPa | 0V | 00:00:00 | 00:00:00 | 00:00:00 | |
| DF8AY | 2026-08-31 07:45:32 | 50.08706 | 8.64934 | 64° | 84km/h | 15559m | 4.7m/s | -54.4°C | 0% | 0hPa | 4.2V | 00:00:00 | 00:00:00 | 00:00:00 | |
| DM0DOS-11 | 2026-08-31 07:45:30 | 50.08652 | 8.64768 | 61° | 77km/h | 15531m | 4.7m/s | 0°C | 0% | 0hPa | 0V | 00:00:00 | 00:00:00 | 00:00:00 | |
| BIOWL1-15 | 2026-08-31 07:45:27 | 50.08671 | 8.64819 | 63° | 78km/h | 15544m | 5.1m/s | -54.4°C | 0% | 0hPa | 4.2V | 00:00:00 | 00:00:00 | 00:00:00 | |
| SO1NDE-10 | 2026-08-31 07:45:26 | 50.08662 | 8.64793 | 59° | 78km/h | 15536m | 3.7m/s | 0°C | 0% | 0hPa | 4.2V | 00:00:00 | 00:00:00 | 00:00:00 | |
| DL1XH-west | 2026-08-31 07:45:25 | 50.08652 | 8.64768 | 62° | 77km/h | 15536m | 3.8m/s | -54.6°C | 0% | 0hPa | 4.2V | 00:00:00 | 00:00:00 | 00:00:00 | |
| DO2KSM | 2026-08-31 07:45:24 | 50.08643 | 8.64739 | 66° | 88km/h | 15532m | 4.7m/s | -54.5°C | 0% | 0hPa | 0V | 00:00:00 | 00:00:00 | 00:00:00 | |
| DL1NUX | 2026-08-31 07:45:23 | 50.08588 | 8.64575 | 63° | 86km/h | 15504m | 4.5m/s | 0°C | 0% | 0hPa | 0V | 00:00:00 | 00:00:00 | 00:00:00 | |
| DK7TD | 2026-08-31 07:45:21 | 50.08605 | 8.64631 | 62° | 69km/h | 15516m | 4.1m/s | -54.5°C | 0% | 0hPa | 4.2V | 00:00:00 | 00:00:00 | 00:00:00 | |
| DO3DL | 2026-08-31 07:45:20 | 50.08605 | 8.64631 | 63° | 69km/h | 15516m | 4.1m/s | -54.5°C | 0% | 0hPa | 4.2V | 00:00:00 | 00:00:00 | 00:00:00 | |
| DF2AP-13 | 2026-08-31 07:45:17 | 50.08577 | 8.64545 | 55° | 78km/h | 15500m | 3.3m/s | 0°C | 0% | 0hPa | 4.2V | 00:00:00 | 00:00:00 | 00:00:00 | |
| BIOWL1-15 | 2026-08-31 07:45:16 | 50.08566 | 8.64522 | 55° | 71km/h | 15500m | 3.3m/s | -54.6°C | 0% | 0hPa | 4.2V | 00:00:00 | 00:00:00 | 00:00:00 | |
| DO3MHA-11 | 2026-08-31 07:45:15 | 50.08556 | 8.64469 | 62° | 77km/h | 15492m | 3.4m/s | 0°C | 0% | 0hPa | 4.2V | 00:00:00 | 00:00:00 | 00:00:00 | |
| DL1XH-west | 2026-08-31 07:45:15 | 50.08548 | 8.64471 | 66° | 80km/h | 15492m | 3.4m/s | -54.7°C | 0% | 0hPa | 4.2V | 00:00:00 | 00:00:00 | 00:00:00 | |
| DO3DL | 2026-08-31 07:45:14 | 50.08539 | 8.64442 | 63° | 80km/h | 15489m | 4.2m/s | -54.7°C | 0% | 0hPa | 4.2V | 00:00:00 | 00:00:00 | 00:00:00 | |
| DN1GJH-1 | 2026-08-31 07:45:13 | 50.08539 | 8.64442 | 63° | 80km/h | 15489m | 4.2m/s | -54.7°C | 0% | 0hPa | 4.2V | 00:00:00 | 00:00:00 | 00:00:00 | |
| DO8TBO-1 | 2026-08-31 07:45:12 | 50.08529 | 8.64417 | 55° | 78km/h | 15480m | 4.2m/s | 0°C | 0% | 0hPa | 4.2V | 00:00:00 | 00:00:00 | 00:00:00 | |
| NBG1-10 | 2026-08-31 07:45:11 | 50.08518 | 8.64392 | 56° | 77km/h | 15476m | 3.9m/s | 0°C | 0% | 0hPa | 4.2V | 00:00:00 | 00:00:00 | 00:00:00 | |
| DB0NH | 2026-08-31 07:45:10 | 50.08508 | 8.64367 | 62° | 78km/h | 15472m | 4.0m/s | 0°C | 0% | 0hPa | 4.2V | 00:00:00 | 00:00:00 | 00:00:00 | |
| DF8AY | 2026-08-31 07:45:10 | 50.08499 | 8.64340 | 61° | 77km/h | 15472m | 4.1m/s | -54.7°C | 0% | 0hPa | 4.2V | 00:00:00 | 00:00:00 | 00:00:00 | |
| BIOWL1-15 | 2026-08-31 07:45:08 | 50.08461 | 8.64231 | 64° | 80km/h | 15455m | 4.2m/s | -54.8°C | 0% | 0hPa | 4.2V | 00:00:00 | 00:00:00 | 00:00:00 | |
| DL3AQ-11 | 2026-08-31 07:45:07 | 50.08470 | 8.64260 | 66° | 82km/h | 15460m | 4.8m/s | -54.8°C | -1.0% | -1.0hPa | 4.2V | 00:00:00 | 00:00:00 | 00:00:00 | |
| DL8DAS-14 | 2026-08-31 07:45:06 | 50.08461 | 8.64231 | 63° | 78km/h | 15455m | 4.2m/s | -54.8°C | -1.0% | -1.0hPa | 4.2V | 00:00:00 | 00:00:00 | 00:00:00 | |
| THATR2-17 | 2026-08-31 07:45:05 | 50.08339 | 8.63903 | 64° | 78km/h | 15402m | 0m/s | 0°C | 0% | 0hPa | 4.2V | 00:00:00 | 00:00:00 | 00:00:00 | |
| DO3MHA-11 | 2026-08-31 07:45:04 | 50.08452 | 8.64206 | 58° | 80km/h | 15446m | 5.1m/s | 0°C | 0% | 0hPa | 4.2V | 00:00:00 | 00:00:00 | 00:00:00 | |
| DL1XH-west | 2026-08-31 07:45:03 | 50.08441 | 8.64180 | 57° | 75km/h | 15446m | 5.1m/s | -54.8°C | 0% | 0hPa | 4.2V | 00:00:00 | 00:00:00 | 00:00:00 | |
| DO3DL | 2026-08-31 07:45:01 | 50.08411 | 8.64096 | 60° | 82km/h | 15433m | 4.8m/s | -54.9°C | 0% | 0hPa | 4.2V | 00:00:00 | 00:00:00 | 00:00:00 | |
| DF8AY | 2026-08-31 07:45:00 | 50.08401 | 8.64068 | 61° | 80km/h | 15428m | 3.5m/s | -55°C | 0% | 0hPa | 4.2V | 00:00:00 | 00:00:00 | 00:00:00 | |
| DM0DOS-11 | 2026-08-31 07:45:00 | 50.08348 | 8.63931 | 59° | 80km/h | 15402m | 3.3m/s | 0°C | 0% | 0hPa | 0V | 00:00:00 | 00:00:00 | 00:00:00 | |
| BIOWL1-15 | 2026-08-31 07:44:59 | 50.08349 | 8.63931 | 59° | 80km/h | 15406m | 5.2m/s | -54.9°C | 0% | 0hPa | 4.2V | 00:00:00 | 00:00:00 | 00:00:00 | |
| SO1NDE-10 | 2026-08-31 07:44:56 | 50.08372 | 8.63983 | 56° | 73km/h | 15411m | 3.9m/s | 0°C | 0% | 0hPa | 0V | 00:00:00 | 00:00:00 | 00:00:00 | |
| DO3MHA-11 | 2026-08-31 07:44:54 | 50.08349 | 8.63931 | 60° | 77km/h | 15402m | 3.3m/s | 0°C | 0% | 0hPa | 0V | 00:00:00 | 00:00:00 | 00:00:00 | |
| DL1NUX | 2026-08-31 07:44:53 | 50.08289 | 8.63772 | 57° | 78km/h | 15376m | 4.5m/s | 0°C | 0% | 0hPa | 0V | 00:00:00 | 00:00:00 | 00:00:00 | |
| DL1XH-west | 2026-08-31 07:44:52 | 50.08330 | 8.63876 | 61° | 78km/h | 15398m | 4.9m/s | -54.9°C | 0% | 0hPa | 4.2V | 00:00:00 | 00:00:00 | 00:00:00 | |
| DN1GJH-1 | 2026-08-31 07:44:52 | 50.08330 | 8.63875 | 62° | 78km/h | 15394m | 3.9m/s | -54.9°C | 0% | 0hPa | 0V | 00:00:00 | 00:00:00 | 00:00:00 | |
| DM0DOS-11 | 2026-08-31 07:44:49 | 50.08251 | 8.63676 | 64° | 73km/h | 15359m | 4.5m/s | 0°C | 0% | 0hPa | 0V | 00:00:00 | 00:00:00 | 00:00:00 | |
| DF8AY | 2026-08-31 07:44:49 | 50.08289 | 8.63772 | 57° | 78km/h | 15381m | 4.4m/s | -54.8°C | 0% | 0hPa | 4.2V | 00:00:00 | 00:00:00 | 00:00:00 | |
| DO3DL | 2026-08-31 07:44:48 | 50.08289 | 8.63771 | 58° | 78km/h | 15381m | 4.4m/s | -54.8°C | 0% | 0hPa | 4.2V | 00:00:00 | 00:00:00 | 00:00:00 | |
| DF2AP-13 | 2026-08-31 07:44:47 | 50.08278 | 8.63749 | 57° | 69km/h | 15372m | 4.5m/s | 0°C | 0% | 0hPa | 4.2V | 00:00:00 | 00:00:00 | 00:00:00 | |
| DJTTGO | 2026-08-31 07:44:46 | 50.08267 | 8.63725 | 57° | 69km/h | 15372m | 4.6m/s | -54.8°C | 0% | 0hPa | 4.2V | 00:00:00 | 00:00:00 | 00:00:00 | |
| DF1GD-15 | 2026-08-31 07:44:45 | 50.08258 | 8.63701 | 66° | 71km/h | 15367m | 4.4m/s | -54.8°C | 0% | 0hPa | 4.2V | 00:00:00 | 00:00:00 | 00:00:00 | |
| BIOWL1-15 | 2026-08-31 07:44:44 | 50.08251 | 8.63676 | 65° | 73km/h | 15363m | 4.1m/s | -54.8°C | 0% | 0hPa | 4.2V | 00:00:00 | 00:00:00 | 00:00:00 | |
| DO3MHA-11 | 2026-08-31 07:44:44 | 50.08251 | 8.63676 | 65° | 71km/h | 15359m | 4.5m/s | 0°C | 0% | 0hPa | 0V | 00:00:00 | 00:00:00 | 00:00:00 | |
| DL1NUX | 2026-08-31 07:44:43 | 50.08198 | 8.63531 | 62° | 62km/h | 15333m | 4.9m/s | 0°C | 0% | 0hPa | 0V | 00:00:00 | 00:00:00 | 00:00:00 | |
| DL1XH-west | 2026-08-31 07:44:42 | 50.08222 | 8.63601 | 61° | 77km/h | 15350m | 5.1m/s | -54.7°C | 0% | 0hPa | 4.2V | 00:00:00 | 00:00:00 | 00:00:00 | |
| DO3DL | 2026-08-31 07:44:42 | 50.08222 | 8.63601 | 62° | 77km/h | 15350m | 5.1m/s | -54.7°C | 0% | 0hPa | 0V | 00:00:00 | 00:00:00 | 00:00:00 | |
| DM0DOS-11 | 2026-08-31 07:44:39 | 50.08164 | 8.63429 | 64° | 77km/h | 15315m | 5.1m/s | 0°C | 0% | 0hPa | 0V | 00:00:00 | 00:00:00 | 00:00:00 | |
| DK7TD | 2026-08-31 07:44:38 | 50.08190 | 8.63507 | 62° | 64km/h | 15333m | 4.9m/s | -54.7°C | 0% | 0hPa | 4.2V | 00:00:00 | 00:00:00 | 00:00:00 | |
| DB0UT-7 | 2026-08-31 07:44:37 | 50.08190 | 8.63507 | 63° | 69km/h | 15329m | 4.2m/s | 0°C | 0% | 0hPa | 4.2V | 00:00:00 | 00:00:00 | 00:00:00 | |
| BIOWL1-15 | 2026-08-31 07:44:36 | 50.08155 | 8.63404 | 64° | 73km/h | 15315m | 5.1m/s | -54.7°C | 0% | 0hPa | 4.2V | 00:00:00 | 00:00:00 | 00:00:00 | |
| DO3DL | 2026-08-31 07:44:35 | 50.08174 | 8.63456 | 63° | 77km/h | 15324m | 5.2m/s | -54.8°C | 0% | 0hPa | 0V | 00:00:00 | 00:00:00 | 00:00:00 | |
| DO3MHA-11 | 2026-08-31 07:44:34 | 50.08164 | 8.63429 | 65° | 69km/h | 15315m | 5.0m/s | 0°C | 0% | 0hPa | 0V | 00:00:00 | 00:00:00 | 00:00:00 | |
| DL1NUX | 2026-08-31 07:44:33 | 50.08117 | 8.63285 | 65° | 78km/h | 15288m | 4.2m/s | 0°C | 0% | 0hPa | 0V | 00:00:00 | 00:00:00 | 00:00:00 | |
| HEMX73-11 | 2026-08-31 07:44:33 | 50.08149 | 8.63379 | 72° | 66km/h | 15310m | 4.2m/s | -54.7°C | 0% | 0hPa | 4.2V | 00:00:00 | 00:00:00 | 00:00:00 | |
| DL1XH-west | 2026-08-31 07:44:31 | 50.08143 | 8.63356 | 67° | 60km/h | 15306m | 5m/s | -54.7°C | 0% | 0hPa | 4.2V | 00:00:00 | 00:00:00 | 00:00:00 | |
| DN1GJH-1 | 2026-08-31 07:44:30 | 50.08126 | 8.63311 | 60° | 73km/h | 15297m | 5.0m/s | -54.6°C | 0% | 0hPa | 0V | 00:00:00 | 00:00:00 | 00:00:00 | |
| DM0DOS-11 | 2026-08-31 07:44:29 | 50.08086 | 8.63189 | 66° | 66km/h | 15269m | 3.9m/s | 0°C | 0% | 0hPa | 0V | 00:00:00 | 00:00:00 | 00:00:00 | |
| DO3DL | 2026-08-31 07:44:28 | 50.08117 | 8.63285 | 66° | 78km/h | 15292m | 4.3m/s | -54.6°C | 0% | 0hPa | 4.2V | 00:00:00 | 00:00:00 | 00:00:00 | |
| DK7TD | 2026-08-31 07:44:27 | 50.08101 | 8.63232 | 60° | 66km/h | 15283m | 4.9m/s | -54.6°C | 0% | 0hPa | 4.2V | 00:00:00 | 00:00:00 | 00:00:00 | |
| SO1NDE-10 | 2026-08-31 07:44:26 | 50.08101 | 8.63232 | 61° | 68km/h | 15279m | 4.4m/s | 0°C | 0% | 0hPa | 0V | 00:00:00 | 00:00:00 | 00:00:00 | |
| DF1GD-15 | 2026-08-31 07:44:25 | 50.08092 | 8.63211 | 62° | 60km/h | 15279m | 4.5m/s | -54.6°C | 0% | 0hPa | 0V | 00:00:00 | 00:00:00 | 00:00:00 | |
| BIOWL1-15 | 2026-08-31 07:44:25 | 50.08071 | 8.63139 | 60° | 73km/h | 15264m | 5.8m/s | -54.7°C | 0% | 0hPa | 4.2V | 00:00:00 | 00:00:00 | 00:00:00 | |
| DO3MHA-11 | 2026-08-31 07:44:24 | 50.08086 | 8.63189 | 67° | 69km/h | 15269m | 3.8m/s | 0°C | 0% | 0hPa | 0V | 00:00:00 | 00:00:00 | 00:00:00 | |
| DL1NUX | 2026-08-31 07:44:23 | 50.08041 | 8.63039 | 71° | 66km/h | 15242m | 4.7m/s | 0°C | 0% | 0hPa | 0V | 00:00:00 | 00:00:00 | 00:00:00 | |
| DO3DL | 2026-08-31 07:44:22 | 50.08071 | 8.63139 | 61° | 73km/h | 15264m | 5.8m/s | -54.7°C | 0% | 0hPa | 4.2V | 00:00:00 | 00:00:00 | 00:00:00 | |
| DL1XH-west | 2026-08-31 07:44:21 | 50.08052 | 8.63090 | 64° | 71km/h | 15256m | 5.1m/s | -54.7°C | 0% | 0hPa | 4.2V | 00:00:00 | 00:00:00 | 00:00:00 | |
| DM0DOS-11 | 2026-08-31 07:44:19 | 50.08012 | 8.62943 | 65° | 69km/h | 15224m | 4.6m/s | 0°C | 0% | 0hPa | 0V | 00:00:00 | 00:00:00 | 00:00:00 | |
| DK7TD | 2026-08-31 07:44:17 | 50.08026 | 8.62994 | 59° | 66km/h | 15237m | 4.4m/s | -54.6°C | 0% | 0hPa | 4.2V | 00:00:00 | 00:00:00 | 00:00:00 | |
| DO3DL | 2026-08-31 07:44:15 | 50.08018 | 8.62970 | 68° | 69km/h | 15232m | 5.0m/s | -54.6°C | 0% | 0hPa | 4.2V | 00:00:00 | 00:00:00 | 00:00:00 | |
| BIOWL1-15 | 2026-08-31 07:44:14 | 50.07992 | 8.62874 | 70° | 64km/h | 15214m | 5.6m/s | -54.7°C | 0% | 0hPa | 4.2V | 00:00:00 | 00:00:00 | 00:00:00 | |
| DO8TBO-1 | 2026-08-31 07:44:12 | 50.07998 | 8.62899 | 70° | 68km/h | 15215m | 5.5m/s | 0°C | 0% | 0hPa | 4.2V | 00:00:00 | 00:00:00 | 00:00:00 | |
| HEMX73-11 | 2026-08-31 07:44:11 | 50.07992 | 8.62874 | 71° | 64km/h | 15215m | 5.6m/s | -54.7°C | 0% | 0hPa | 4.2V | 00:00:00 | 00:00:00 | 00:00:00 | |
| DB0NH | 2026-08-31 07:44:10 | 50.07986 | 8.62849 | 64° | 68km/h | 15206m | 5.5m/s | 0°C | 0% | 0hPa | 4.2V | 00:00:00 | 00:00:00 | 00:00:00 | |
| DL1XH-west | 2026-08-31 07:44:09 | 50.07980 | 8.62825 | 64° | 69km/h | 15206m | 5.5m/s | -54.7°C | 0% | 0hPa | 4.2V | 00:00:00 | 00:00:00 | 00:00:00 | |
| DO3DL | 2026-08-31 07:44:09 | 50.07980 | 8.62825 | 65° | 69km/h | 15206m | 5.6m/s | -54.7°C | 0% | 0hPa | 4.2V | 00:00:00 | 00:00:00 | 00:00:00 | |
| DB0UT-7 | 2026-08-31 07:44:07 | 50.07963 | 8.62779 | 64° | 68km/h | 15192m | 4.2m/s | 0°C | 0% | 0hPa | 4.2V | 00:00:00 | 00:00:00 | 00:00:00 | |
| DK7TD | 2026-08-31 07:44:06 | 50.07952 | 8.62733 | 71° | 62km/h | 15187m | 5.3m/s | -54.7°C | 0% | 0hPa | 4.2V | 00:00:00 | 00:00:00 | 00:00:00 | |
| NBG1-10 | 2026-08-31 07:44:05 | 50.07952 | 8.62733 | 72° | 68km/h | 15182m | 4.5m/s | 0°C | 0% | 0hPa | 0V | 00:00:00 | 00:00:00 | 00:00:00 | |
| DO3MHA-11 | 2026-08-31 07:44:04 | 50.07946 | 8.62710 | 62° | 68km/h | 15178m | 3.5m/s | 0°C | 0% | 0hPa | 0V | 00:00:00 | 00:00:00 | 00:00:00 | |
| DL1NUX | 2026-08-31 07:44:03 | 50.07902 | 8.62570 | 68° | 68km/h | 15150m | 4.5m/s | 0°C | 0% | 0hPa | 0V | 00:00:00 | 00:00:00 | 00:00:00 | |
| DO3DL | 2026-08-31 07:44:03 | 50.07930 | 8.62664 | 67° | 68km/h | 15174m | 4.9m/s | -54.6°C | 0% | 0hPa | 4.2V | 00:00:00 | 00:00:00 | 00:00:00 | |
| DO2KSM | 2026-08-31 07:44:02 | 50.07930 | 8.62664 | 67° | 68km/h | 15174m | 4.9m/s | -54.6°C | 0% | 0hPa | 4.2V | 00:00:00 | 00:00:00 | 00:00:00 | |
| BIOWL1-15 | 2026-08-31 07:44:01 | 50.07917 | 8.62617 | 62° | 64km/h | 15164m | 5.3m/s | -54.7°C | 0% | 0hPa | 4.2V | 00:00:00 | 00:00:00 | 00:00:00 | |
| DM0DOS-11 | 2026-08-31 07:43:59 | 50.07874 | 8.62470 | 69° | 69km/h | 15132m | 3.9m/s | 0°C | 0% | 0hPa | 0V | 00:00:00 | 00:00:00 | 00:00:00 | |
| DL1XH-west | 2026-08-31 07:43:59 | 50.07902 | 8.62570 | 68° | 68km/h | 15155m | 5.9m/s | -54.7°C | 0% | 0hPa | 4.2V | 00:00:00 | 00:00:00 | 00:00:00 | |
| SO1NDE-10 | 2026-08-31 07:43:56 | 50.07888 | 8.62520 | 65° | 68km/h | 15141m | 4.9m/s | 0°C | 0% | 0hPa | 4.2V | 00:00:00 | 00:00:00 | 00:00:00 | |
| DK7TD | 2026-08-31 07:43:55 | 50.07874 | 8.62470 | 69° | 69km/h | 15136m | 4.8m/s | -54.7°C | 0% | 0hPa | 4.2V | 00:00:00 | 00:00:00 | 00:00:00 | |
| DO3MHA-11 | 2026-08-31 07:43:54 | 50.07874 | 8.62470 | 70° | 68km/h | 15132m | 3.9m/s | 0°C | 0% | 0hPa | 0V | 00:00:00 | 00:00:00 | 00:00:00 | |
| DL1NUX | 2026-08-31 07:43:53 | 50.07829 | 8.62324 | 62° | 64km/h | 15103m | 3.8m/s | 0°C | 0% | 0hPa | 0V | 00:00:00 | 00:00:00 | 00:00:00 | |
| HEMX73-11 | 2026-08-31 07:43:51 | 50.07850 | 8.62399 | 61° | 69km/h | 15121m | 4.8m/s | -54.7°C | 0% | 0hPa | 4.2V | 00:00:00 | 00:00:00 | 00:00:00 | |
| BIOWL1-15 | 2026-08-31 07:43:50 | 50.07843 | 8.62374 | 68° | 73km/h | 15117m | 4.7m/s | -54.8°C | 0% | 0hPa | 4.2V | 00:00:00 | 00:00:00 | 00:00:00 | |
| DM0DOS-11 | 2026-08-31 07:43:49 | 50.07800 | 8.62231 | 58° | 73km/h | 15084m | 4.6m/s | 0°C | 0% | 0hPa | 0V | 00:00:00 | 00:00:00 | 00:00:00 | |
| DL1XH-west | 2026-08-31 07:43:48 | 50.07829 | 8.62324 | 62° | 64km/h | 15108m | 5.3m/s | -54.8°C | 0% | 0hPa | 4.2V | 00:00:00 | 00:00:00 | 00:00:00 | |
| DF2AP-13 | 2026-08-31 07:43:47 | 50.07821 | 8.62303 | 57° | 68km/h | 15099m | 5.5m/s | 0°C | 0% | 0hPa | 4.2V | 00:00:00 | 00:00:00 | 00:00:00 | |
| DK7TD | 2026-08-31 07:43:44 | 50.07792 | 8.62209 | 58° | 68km/h | 15084m | 4.6m/s | -54.8°C | 0% | 0hPa | 4.2V | 00:00:00 | 00:00:00 | 00:00:00 | |
| BIOWL7-15 | 2026-08-31 07:43:44 | 50.07792 | 8.62208 | 59° | 68km/h | 15084m | 4.6m/s | -54.8°C | 0% | 0hPa | 4.2V | 00:00:00 | 00:00:00 | 00:00:00 | |
| DF1GD-15 | 2026-08-31 07:43:43 | 50.07792 | 8.62208 | 59° | 68km/h | 15084m | 4.6m/s | -54.8°C | 0% | 0hPa | 4.2V | 00:00:00 | 00:00:00 | 00:00:00 | |
| DO8TBO-1 | 2026-08-31 07:43:42 | 50.07783 | 8.62188 | 67° | 68km/h | 15075m | 4.3m/s | 0°C | 0% | 0hPa | 4.2V | 00:00:00 | 00:00:00 | 00:00:00 | |
| BIOWL1-15 | 2026-08-31 07:43:40 | 50.07761 | 8.62116 | 58° | 71km/h | 15066m | 5m/s | -54.8°C | 0% | 0hPa | 4.2V | 00:00:00 | 00:00:00 | 00:00:00 | |
| DM0DOS-11 | 2026-08-31 07:43:39 | 50.07719 | 8.62001 | 59° | 64km/h | 15038m | 4.7m/s | 0°C | 0% | 0hPa | 0V | 00:00:00 | 00:00:00 | 00:00:00 | |
| DL1XH-west | 2026-08-31 07:43:37 | 50.07742 | 8.62068 | 64° | 68km/h | 15057m | 5m/s | -54.8°C | 0% | 0hPa | 4.2V | 00:00:00 | 00:00:00 | 00:00:00 | |
| DO3DL | 2026-08-31 07:43:37 | 50.07735 | 8.62045 | 66° | 66km/h | 15052m | 4.7m/s | -54.7°C | 0% | 0hPa | 4.2V | 00:00:00 | 00:00:00 | 00:00:00 | |
| DN1GJH-1 | 2026-08-31 07:43:36 | 50.07735 | 8.62045 | 66° | 66km/h | 15052m | 4.7m/s | -54.7°C | 0% | 0hPa | 4.2V | 00:00:00 | 00:00:00 | 00:00:00 | |
| DK7TD | 2026-08-31 07:43:34 | 50.07712 | 8.61978 | 66° | 66km/h | 15038m | 4.7m/s | -54.6°C | 0% | 0hPa | 4.2V | 00:00:00 | 00:00:00 | 00:00:00 | |
| DL1NUX | 2026-08-31 07:43:33 | 50.07668 | 8.61858 | 71° | 64km/h | 15011m | 4.6m/s | 0°C | 0% | 0hPa | 0V | 00:00:00 | 00:00:00 | 00:00:00 | |
| NBG1-10 | 2026-08-31 07:43:32 | 50.07704 | 8.61954 | 63° | 71km/h | 15029m | 5.4m/s | 0°C | 0% | 0hPa | 4.2V | 00:00:00 | 00:00:00 | 00:00:00 | |
| BIOWL1-15 | 2026-08-31 07:43:31 | 50.07668 | 8.61858 | 71° | 64km/h | 15015m | 3.5m/s | -54.5°C | 0% | 0hPa | 4.2V | 00:00:00 | 00:00:00 | 00:00:00 | |
| DM0DOS-11 | 2026-08-31 07:43:29 | 50.07630 | 8.61768 | 55° | 68km/h | 14992m | 4.8m/s | 0°C | 0% | 0hPa | 0V | 00:00:00 | 00:00:00 | 00:00:00 | |
| DL1XH-west | 2026-08-31 07:43:27 | 50.07653 | 8.61811 | 53° | 71km/h | 15006m | 5.3m/s | -54.4°C | 0% | 0hPa | 4.2V | 00:00:00 | 00:00:00 | 00:00:00 | |
| SO1NDE-10 | 2026-08-31 07:43:26 | 50.07653 | 8.61811 | 53° | 71km/h | 15002m | 4.0m/s | 0°C | 0% | 0hPa | 0V | 00:00:00 | 00:00:00 | 00:00:00 | |
| KANTATE | 2026-08-31 07:43:25 | 50.07641 | 8.61790 | 50° | 73km/h | 15002m | 4.1m/s | -54.4°C | 0% | 0hPa | 0V | 00:00:00 | 00:00:00 | 00:00:00 | |
| DO3MHA-11 | 2026-08-31 07:43:24 | 50.07630 | 8.61768 | 56° | 69km/h | 14993m | 4.7m/s | 0°C | 0% | 0hPa | 0V | 00:00:00 | 00:00:00 | 00:00:00 | |
| DL1NUX | 2026-08-31 07:43:23 | 50.07578 | 8.61633 | 57° | 68km/h | 14965m | 4.1m/s | 0°C | 0% | 0hPa | 0V | 00:00:00 | 00:00:00 | 00:00:00 | |
| DK7TD | 2026-08-31 07:43:23 | 50.07614 | 8.61719 | 66° | 75km/h | 14987m | 5.2m/s | -54.3°C | 0% | 0hPa | 4.2V | 00:00:00 | 00:00:00 | 00:00:00 | |
| DO2KSM | 2026-08-31 07:43:21 | 50.07606 | 8.61692 | 64° | 75km/h | 14983m | 3.0m/s | -54.2°C | 0% | 0hPa | 0V | 00:00:00 | 00:00:00 | 00:00:00 | |
| DM0DOS-11 | 2026-08-31 07:43:19 | 50.07544 | 8.61529 | 56° | 62km/h | 14946m | 4.9m/s | 0°C | 0% | 0hPa | 0V | 00:00:00 | 00:00:00 | 00:00:00 | |
| BIOWL1-15 | 2026-08-31 07:43:18 | 50.07568 | 8.61605 | 58° | 80km/h | 14965m | 4.1m/s | -54.2°C | 0% | 0hPa | 4.2V | 00:00:00 | 00:00:00 | 00:00:00 | |
| DF2AP-13 | 2026-08-31 07:43:17 | 50.07568 | 8.61605 | 58° | 73km/h | 14960m | 4.9m/s | 0°C | 0% | 0hPa | 4.2V | 00:00:00 | 00:00:00 | 00:00:00 | |
| DL1XH-west | 2026-08-31 07:43:16 | 50.07558 | 8.61578 | 64° | 80km/h | 14960m | 5m/s | -54.2°C | 0% | 0hPa | 4.2V | 00:00:00 | 00:00:00 | 00:00:00 | |
| DN1GJH-1 | 2026-08-31 07:43:15 | 50.07550 | 8.61551 | 69° | 68km/h | 14956m | 4.6m/s | -54.1°C | 0% | 0hPa | 0V | 00:00:00 | 00:00:00 | 00:00:00 | |
| CB1BUN | 2026-08-31 07:43:14 | 50.07543 | 8.61528 | 64° | 62km/h | 14951m | 3.8m/s | -54.1°C | 0% | 0hPa | 0V | 00:00:00 | 00:00:00 | 00:00:00 | |
| DL1NUX | 2026-08-31 07:43:13 | 50.07485 | 8.61394 | 57° | 80km/h | 14920m | 4.6m/s | 0°C | 0% | 0hPa | 0V | 00:00:00 | 00:00:00 | 00:00:00 | |
| DO3MHA-11 | 2026-08-31 07:43:13 | 50.07535 | 8.61506 | 57° | 73km/h | 14943m | 3.3m/s | 0°C | 0% | 0hPa | 4.2V | 00:00:00 | 00:00:00 | 00:00:00 | |
| DK7TD | 2026-08-31 07:43:12 | 50.07514 | 8.61461 | 53° | 69km/h | 14938m | 4.9m/s | -54.1°C | 0% | 0hPa | 4.2V | 00:00:00 | 00:00:00 | 00:00:00 | |
| DO3DL | 2026-08-31 07:43:11 | 50.07513 | 8.61461 | 54° | 69km/h | 14938m | 4.9m/s | -54.1°C | 0% | 0hPa | 4.2V | 00:00:00 | 00:00:00 | 00:00:00 | |
| DB0NH | 2026-08-31 07:43:10 | 50.07504 | 8.61443 | 59° | 73km/h | 14930m | 3.6m/s | 0°C | 0% | 0hPa | 4.2V | 00:00:00 | 00:00:00 | 00:00:00 | |
| BIOWL1-15 | 2026-08-31 07:43:07 | 50.07475 | 8.61366 | 59° | 84km/h | 14920m | 4.6m/s | -54°C | 0% | 0hPa | 4.2V | 00:00:00 | 00:00:00 | 00:00:00 | |
| DB0UT-7 | 2026-08-31 07:43:07 | 50.07475 | 8.61366 | 60° | 73km/h | 14915m | 4.3m/s | 0°C | 0% | 0hPa | 4.2V | 00:00:00 | 00:00:00 | 00:00:00 | |
| DL1XH-west | 2026-08-31 07:43:05 | 50.07456 | 8.61314 | 60° | 71km/h | 14911m | 4.2m/s | -54°C | 0% | 0hPa | 4.2V | 00:00:00 | 00:00:00 | 00:00:00 | |
| DO3DL | 2026-08-31 07:43:04 | 50.07446 | 8.61290 | 56° | 73km/h | 14907m | 4.8m/s | -54.0°C | 0% | 0hPa | 0V | 00:00:00 | 00:00:00 | 00:00:00 | |
| DL1NUX | 2026-08-31 07:43:03 | 50.07386 | 8.61141 | 58° | 78km/h | 14874m | 3.7m/s | 0°C | 0% | 0hPa | 0V | 00:00:00 | 00:00:00 | 00:00:00 | |
| DL8DAS-14 | 2026-08-31 07:43:02 | 50.07417 | 8.61220 | 63° | 68km/h | 14893m | 3.4m/s | -53.9°C | -1.0% | -1.0hPa | 6.8V | 00:00:00 | 00:00:00 | 00:00:00 | |
| DK7TD | 2026-08-31 07:43:01 | 50.07408 | 8.61194 | 60° | 77km/h | 14889m | 5.7m/s | -53.9°C | 0% | 0hPa | 6.8V | 00:00:00 | 00:00:00 | 00:00:00 | |
| BIOWL1-15 | 2026-08-31 07:43:00 | 50.07369 | 8.61092 | 62° | 69km/h | 14870m | 4.8m/s | -53.8°C | 0% | 0hPa | 4.2V | 00:00:00 | 00:00:00 | 00:00:00 | |
| DM0DOS-11 | 2026-08-31 07:42:59 | 50.07349 | 8.61041 | 56° | 78km/h | 14857m | 5.3m/s | 0°C | 0% | 0hPa | 0V | 00:00:00 | 00:00:00 | 00:00:00 | |
| NBG1-10 | 2026-08-31 07:42:59 | 50.07397 | 8.61166 | 59° | 71km/h | 14879m | 5.4m/s | 0°C | 0% | 0hPa | 4.2V | 00:00:00 | 00:00:00 | 00:00:00 | |
| DO3DL | 2026-08-31 07:42:58 | 50.07386 | 8.61140 | 60° | 78km/h | 14879m | 5.5m/s | -53.8°C | 0% | 0hPa | 4.2V | 00:00:00 | 00:00:00 | 00:00:00 | |
| SO1NDE-10 | 2026-08-31 07:42:56 | 50.07369 | 8.61092 | 62° | 71km/h | 14866m | 4.5m/s | 0°C | 0% | 0hPa | 4.2V | 00:00:00 | 00:00:00 | 00:00:00 | |
| DN1GJH-1 | 2026-08-31 07:42:55 | 50.07360 | 8.61067 | 58° | 78km/h | 14866m | 4.5m/s | -53.8°C | 0% | 0hPa | 4.2V | 00:00:00 | 00:00:00 | 00:00:00 | |
| DL1XH-west | 2026-08-31 07:42:54 | 50.07349 | 8.61041 | 56° | 78km/h | 14861m | 3.4m/s | -53.8°C | 0% | 0hPa | 4.2V | 00:00:00 | 00:00:00 | 00:00:00 | |
| CB1BUN | 2026-08-31 07:42:54 | 50.07339 | 8.61016 | 62° | 69km/h | 14857m | 5.3m/s | -53.8°C | 0% | 0hPa | 4.2V | 00:00:00 | 00:00:00 | 00:00:00 | |
| DO3MHA-11 | 2026-08-31 07:42:53 | 50.07339 | 8.61016 | 61° | 73km/h | 14853m | 3.2m/s | 0°C | 0% | 0hPa | 4.2V | 00:00:00 | 00:00:00 | 00:00:00 | |
| DO3DL | 2026-08-31 07:42:51 | 50.07323 | 8.60967 | 64° | 73km/h | 14849m | 4.7m/s | -53.7°C | 0% | 0hPa | 4.2V | 00:00:00 | 00:00:00 | 00:00:00 | |
| DK7TD | 2026-08-31 07:42:50 | 50.07303 | 8.60917 | 55° | 73km/h | 14840m | 4.8m/s | -53.6°C | 0% | 0hPa | 4.2V | 00:00:00 | 00:00:00 | 00:00:00 | |
| KANTATE | 2026-08-31 07:42:49 | 50.07303 | 8.60917 | 56° | 73km/h | 14840m | 4.8m/s | -53.6°C | 0% | 0hPa | 4.2V | 00:00:00 | 00:00:00 | 00:00:00 | |
| DF2AP-13 | 2026-08-31 07:42:47 | 50.07285 | 8.60872 | 60° | 69km/h | 14827m | 5.0m/s | 0°C | 0% | 0hPa | 4.2V | 00:00:00 | 00:00:00 | 00:00:00 | |
| BIOWL1-15 | 2026-08-31 07:42:46 | 50.07265 | 8.60822 | 58° | 78km/h | 14823m | 3.4m/s | -53.5°C | 0% | 0hPa | 4.2V | 00:00:00 | 00:00:00 | 00:00:00 | |
| DO3DL | 2026-08-31 07:42:45 | 50.07265 | 8.60822 | 59° | 78km/h | 14823m | 3.4m/s | -53.5°C | 0% | 0hPa | 4.2V | 00:00:00 | 00:00:00 | 00:00:00 | |
| DL1XH-west | 2026-08-31 07:42:43 | 50.07245 | 8.60774 | 54° | 69km/h | 14814m | 4.4m/s | -53.5°C | 0% | 0hPa | 4.2V | 00:00:00 | 00:00:00 | 00:00:00 | |
| DL1NUX | 2026-08-31 07:42:43 | 50.07193 | 8.60661 | 49° | 77km/h | 14787m | 3.9m/s | 0°C | 0% | 0hPa | 0V | 00:00:00 | 00:00:00 | 00:00:00 | |
| DO3MHA-11 | 2026-08-31 07:42:43 | 50.07245 | 8.60774 | 55° | 69km/h | 14810m | 4.2m/s | 0°C | 0% | 0hPa | 0V | 00:00:00 | 00:00:00 | 00:00:00 | |
| DF1GD-15 | 2026-08-31 07:42:42 | 50.07234 | 8.60752 | 53° | 73km/h | 14810m | 4.2m/s | -53.5°C | 0% | 0hPa | 0V | 00:00:00 | 00:00:00 | 00:00:00 | |
| DO2KSM | 2026-08-31 07:42:41 | 50.07214 | 8.60707 | 60° | 66km/h | 14801m | 3.7m/s | -53.4°C | 0% | 0hPa | 0V | 00:00:00 | 00:00:00 | 00:00:00 | |
| DB0NH | 2026-08-31 07:42:40 | 50.07214 | 8.60707 | 60° | 68km/h | 14797m | 4.7m/s | 0°C | 0% | 0hPa | 0V | 00:00:00 | 00:00:00 | 00:00:00 | |
| DM0DOS-11 | 2026-08-31 07:42:39 | 50.07153 | 8.60574 | 57° | 73km/h | 14769m | 4.2m/s | 0°C | 0% | 0hPa | 0V | 00:00:00 | 00:00:00 | 00:00:00 | |
| DK7TD | 2026-08-31 07:42:38 | 50.07181 | 8.60639 | 48° | 71km/h | 14787m | 3.9m/s | -53.3°C | 0% | 0hPa | 4.2V | 00:00:00 | 00:00:00 | 00:00:00 | |
| BIOWL1-15 | 2026-08-31 07:42:37 | 50.07153 | 8.60574 | 58° | 73km/h | 14774m | 5.1m/s | -53.3°C | 0% | 0hPa | 4.2V | 00:00:00 | 00:00:00 | 00:00:00 | |
| DN1GJH-1 | 2026-08-31 07:42:34 | 50.07153 | 8.60574 | 59° | 73km/h | 14774m | 5.1m/s | -53.3°C | 0% | 0hPa | 0V | 00:00:00 | 00:00:00 | 00:00:00 | |
| DL1NUX | 2026-08-31 07:42:33 | 50.07085 | 8.60446 | 58° | 71km/h | 14743m | 4.2m/s | 0°C | 0% | 0hPa | 0V | 00:00:00 | 00:00:00 | 00:00:00 | |
| DO3MHA-11 | 2026-08-31 07:42:33 | 50.07141 | 8.60548 | 45° | 69km/h | 14765m | 5.2m/s | 0°C | 0% | 0hPa | 0V | 00:00:00 | 00:00:00 | 00:00:00 | |
| DL1XH-west | 2026-08-31 07:42:33 | 50.07129 | 8.60530 | 44° | 68km/h | 14764m | 5.3m/s | -53.2°C | 0% | 0hPa | 4.2V | 00:00:00 | 00:00:00 | 00:00:00 | |
| DO3DL | 2026-08-31 07:42:32 | 50.07129 | 8.60530 | 45° | 68km/h | 14765m | 5.3m/s | -53.2°C | 0% | 0hPa | 0V | 00:00:00 | 00:00:00 | 00:00:00 | |
| DM0DOS-11 | 2026-08-31 07:42:29 | 50.07044 | 8.60363 | 51° | 73km/h | 14725m | 5m/s | 0°C | 0% | 0hPa | 0V | 00:00:00 | 00:00:00 | 00:00:00 | |
| DK7TD | 2026-08-31 07:42:27 | 50.07076 | 8.60424 | 56° | 60km/h | 14743m | 4.2m/s | -53°C | 0% | 0hPa | 4.2V | 00:00:00 | 00:00:00 | 00:00:00 | |
| BIOWL1-15 | 2026-08-31 07:42:26 | 50.07044 | 8.60363 | 51° | 73km/h | 14730m | 4.5m/s | -52.9°C | 0% | 0hPa | 4.2V | 00:00:00 | 00:00:00 | 00:00:00 | |
| SO1NDE-10 | 2026-08-31 07:42:26 | 50.07067 | 8.60405 | 51° | 66km/h | 14734m | 4.3m/s | 0°C | 0% | 0hPa | 0V | 00:00:00 | 00:00:00 | 00:00:00 | |
| DO3DL | 2026-08-31 07:42:25 | 50.07056 | 8.60385 | 49° | 73km/h | 14734m | 4.4m/s | -53.0°C | 0% | 0hPa | 0V | 00:00:00 | 00:00:00 | 00:00:00 | |
| DL1NUX | 2026-08-31 07:42:23 | 50.06983 | 8.60240 | 51° | 68km/h | 14698m | 4.4m/s | 0°C | 0% | 0hPa | 0V | 00:00:00 | 00:00:00 | 00:00:00 | |
| DL1XH-west | 2026-08-31 07:42:22 | 50.07015 | 8.60301 | 51° | 68km/h | 14716m | 4.8m/s | -52.9°C | 0% | 0hPa | 4.2V | 00:00:00 | 00:00:00 | 00:00:00 | |
| DF1GD-15 | 2026-08-31 07:42:21 | 50.07015 | 8.60301 | 52° | 68km/h | 14716m | 4.8m/s | -52.9°C | 0% | 0hPa | 0V | 00:00:00 | 00:00:00 | 00:00:00 | |
| DM0DOS-11 | 2026-08-31 07:42:19 | 50.06942 | 8.60163 | 55° | 57km/h | 14680m | 5m/s | 0°C | 0% | 0hPa | 0V | 00:00:00 | 00:00:00 | 00:00:00 | |
| DK7TD | 2026-08-31 07:42:17 | 50.06961 | 8.60197 | 50° | 68km/h | 14694m | 4.5m/s | -52.6°C | 0% | 0hPa | 4.2V | 00:00:00 | 00:00:00 | 00:00:00 | |
| BIOWL1-15 | 2026-08-31 07:42:14 | 50.06933 | 8.60140 | 55° | 68km/h | 14680m | 5m/s | -52.5°C | 0% | 0hPa | 4.2V | 00:00:00 | 00:00:00 | 00:00:00 | |
| DL1NUX | 2026-08-31 07:42:13 | 50.06881 | 8.60040 | 51° | 66km/h | 14653m | 5m/s | 0°C | 0% | 0hPa | 0V | 00:00:00 | 00:00:00 | 00:00:00 | |
| CB1BUN | 2026-08-31 07:42:13 | 50.06923 | 8.60118 | 54° | 71km/h | 14676m | 3.2m/s | -52.5°C | 0% | 0hPa | 4.2V | 00:00:00 | 00:00:00 | 00:00:00 | |
| DL1XH-west | 2026-08-31 07:42:11 | 50.06912 | 8.60097 | 51° | 66km/h | 14672m | 4.7m/s | -52.5°C | 0% | 0hPa | 4.2V | 00:00:00 | 00:00:00 | 00:00:00 | |
| DB0NH | 2026-08-31 07:42:10 | 50.06902 | 8.60078 | 49° | 62km/h | 14663m | 5.1m/s | 0°C | 0% | 0hPa | 0V | 00:00:00 | 00:00:00 | 00:00:00 | |
| DM0DOS-11 | 2026-08-31 07:42:09 | 50.06838 | 8.59962 | 45° | 73km/h | 14637m | 5.1m/s | 0°C | 0% | 0hPa | 0V | 00:00:00 | 00:00:00 | 00:00:00 | |
| HEMX73-11 | 2026-08-31 07:42:08 | 50.06880 | 8.60040 | 52° | 66km/h | 14658m | 4.1m/s | -52.4°C | 0% | 0hPa | 4.2V | 00:00:00 | 00:00:00 | 00:00:00 | |
| DB0UT-7 | 2026-08-31 07:42:07 | 50.06871 | 8.60021 | 52° | 64km/h | 14649m | 3.5m/s | 0°C | 0% | 0hPa | 4.2V | 00:00:00 | 00:00:00 | 00:00:00 | |
| DO3DL | 2026-08-31 07:42:06 | 50.06861 | 8.60001 | 53° | 60km/h | 14649m | 3.6m/s | -52.3°C | 0% | 0hPa | 4.2V | 00:00:00 | 00:00:00 | 00:00:00 | |
| DK7TD | 2026-08-31 07:42:05 | 50.06838 | 8.59962 | 45° | 73km/h | 14641m | 2.7m/s | -52.2°C | 0% | 0hPa | 4.2V | 00:00:00 | 00:00:00 | 00:00:00 | |
| BIOWL1-15 | 2026-08-31 07:42:03 | 50.06818 | 8.59926 | 55° | 49km/h | 14632m | 4.5m/s | -52.2°C | 0% | 0hPa | 4.2V | 00:00:00 | 00:00:00 | 00:00:00 | |
| DL1NUX | 2026-08-31 07:42:03 | 50.06779 | 8.59845 | 52° | 68km/h | 14610m | 4.1m/s | 0°C | 0% | 0hPa | 0V | 00:00:00 | 00:00:00 | 00:00:00 | |
| DO3MHA-11 | 2026-08-31 07:42:03 | 50.06827 | 8.59943 | 56° | 62km/h | 14632m | 4.4m/s | 0°C | 0% | 0hPa | 4.2V | 00:00:00 | 00:00:00 | 00:00:00 | |
| DF1GD-15 | 2026-08-31 07:42:01 | 50.06810 | 8.59909 | 58° | 53km/h | 14628m | 4.3m/s | -52.1°C | 0% | 0hPa | 4.2V | 00:00:00 | 00:00:00 | 00:00:00 | |
| DL1XH-west | 2026-08-31 07:42:00 | 50.06802 | 8.59890 | 54° | 68km/h | 14623m | 5.1m/s | -52.1°C | 0% | 0hPa | 4.2V | 00:00:00 | 00:00:00 | 00:00:00 | |
| DO3DL | 2026-08-31 07:42:00 | 50.06802 | 8.59890 | 55° | 68km/h | 14623m | 5.1m/s | -52.1°C | 0% | 0hPa | 0V | 00:00:00 | 00:00:00 | 00:00:00 | |
| DM0DOS-11 | 2026-08-31 07:41:59 | 50.06741 | 8.59769 | 56° | 66km/h | 14592m | 4.4m/s | 0°C | 0% | 0hPa | 0V | 00:00:00 | 00:00:00 | 00:00:00 | |
| SO1NDE-10 | 2026-08-31 07:41:56 | 50.06761 | 8.59808 | 52° | 60km/h | 14601m | 4.0m/s | 0°C | 0% | 0hPa | 4.2V | 00:00:00 | 00:00:00 | 00:00:00 | |
| DK7TD | 2026-08-31 07:41:54 | 50.06732 | 8.59750 | 56° | 60km/h | 14592m | 4.4m/s | -51.9°C | 0% | 0hPa | 4.2V | 00:00:00 | 00:00:00 | 00:00:00 | |
| NBG1-10 | 2026-08-31 07:41:53 | 50.06732 | 8.59750 | 57° | 62km/h | 14588m | 3.7m/s | 0°C | 0% | 0hPa | 4.2V | 00:00:00 | 00:00:00 | 00:00:00 | |
| BIOWL1-15 | 2026-08-31 07:41:52 | 50.06713 | 8.59712 | 46° | 66km/h | 14583m | 4.6m/s | -51.8°C | 0% | 0hPa | 4.2V | 00:00:00 | 00:00:00 | 00:00:00 | |
| DL1XH-west | 2026-08-31 07:41:50 | 50.06693 | 8.59675 | 57° | 55km/h | 14574m | 5.2m/s | -51.7°C | 0% | 0hPa | 4.2V | 00:00:00 | 00:00:00 | 00:00:00 | |
| DM0DOS-11 | 2026-08-31 07:41:49 | 50.06647 | 8.59575 | 59° | 58km/h | 14547m | 5.2m/s | 0°C | 0% | 0hPa | 0V | 00:00:00 | 00:00:00 | 00:00:00 | |
| HEMX73-11 | 2026-08-31 07:41:48 | 50.06685 | 8.59656 | 62° | 57km/h | 14570m | 3.9m/s | -51.7°C | 0% | 0hPa | 4.2V | 00:00:00 | 00:00:00 | 00:00:00 | |
| DO3DL | 2026-08-31 07:41:47 | 50.06677 | 8.59636 | 56° | 66km/h | 14565m | 5.3m/s | -51.7°C | 0% | 0hPa | 4.2V | 00:00:00 | 00:00:00 | 00:00:00 | |
| DK7TD | 2026-08-31 07:41:44 | 50.06640 | 8.59555 | 58° | 58km/h | 14547m | 5.2m/s | -51.5°C | 0% | 0hPa | 4.2V | 00:00:00 | 00:00:00 | 00:00:00 | |
| DL1NUX | 2026-08-31 07:41:43 | 50.06592 | 8.59456 | 48° | 66km/h | 14520m | 5.6m/s | 0°C | 0% | 0hPa | 0V | 00:00:00 | 00:00:00 | 00:00:00 | |
| DO3MHA-11 | 2026-08-31 07:41:42 | 50.06631 | 8.59535 | 54° | 62km/h | 14538m | 5.4m/s | 0°C | 0% | 0hPa | 4.2V | 00:00:00 | 00:00:00 | 00:00:00 | |
| BIOWL1-15 | 2026-08-31 07:41:41 | 50.06622 | 8.59515 | 55° | 60km/h | 14537m | 5.4m/s | -51.5°C | 0% | 0hPa | 4.2V | 00:00:00 | 00:00:00 | 00:00:00 | |
| DO3DL | 2026-08-31 07:41:41 | 50.06613 | 8.59496 | 56° | 62km/h | 14533m | 3.7m/s | -51.5°C | 0% | 0hPa | 0V | 00:00:00 | 00:00:00 | 00:00:00 | |
| DB0NH | 2026-08-31 07:41:40 | 50.06613 | 8.59496 | 55° | 60km/h | 14529m | 5.2m/s | 0°C | 0% | 0hPa | 0V | 00:00:00 | 00:00:00 | 00:00:00 | |
| DM0DOS-11 | 2026-08-31 07:41:39 | 50.06562 | 8.59378 | 55° | 68km/h | 14502m | 3.8m/s | 0°C | 0% | 0hPa | 0V | 00:00:00 | 00:00:00 | 00:00:00 | |
| DL1XH-west | 2026-08-31 07:41:39 | 50.06592 | 8.59456 | 48° | 66km/h | 14525m | 2.7m/s | -51.4°C | 0% | 0hPa | 4.2V | 00:00:00 | 00:00:00 | 00:00:00 | |
| DO2KSM | 2026-08-31 07:41:38 | 50.06592 | 8.59456 | 49° | 66km/h | 14525m | 2.7m/s | -51.4°C | 0% | 0hPa | 0V | 00:00:00 | 00:00:00 | 00:00:00 | |
| DB0UT-7 | 2026-08-31 07:41:37 | 50.06582 | 8.59438 | 68° | 60km/h | 14516m | 4.4m/s | 0°C | 0% | 0hPa | 0V | 00:00:00 | 00:00:00 | 00:00:00 | |
| DO3DL | 2026-08-31 07:41:34 | 50.06562 | 8.59378 | 57° | 68km/h | 14507m | 4.4m/s | -51.3°C | 0% | 0hPa | 0V | 00:00:00 | 00:00:00 | 00:00:00 | |
| DL1NUX | 2026-08-31 07:41:33 | 50.06512 | 8.59259 | 62° | 53km/h | 14477m | 2.8m/s | 0°C | 0% | 0hPa | 0V | 00:00:00 | 00:00:00 | 00:00:00 | |
| DK7TD | 2026-08-31 07:41:33 | 50.06543 | 8.59334 | 59° | 66km/h | 14498m | 4.7m/s | -51.2°C | 0% | 0hPa | 4.2V | 00:00:00 | 00:00:00 | 00:00:00 | |
| BIOWL1-15 | 2026-08-31 07:41:33 | 50.06527 | 8.59294 | 54° | 57km/h | 14489m | 4.8m/s | -51.2°C | 0% | 0hPa | 4.2V | 00:00:00 | 00:00:00 | 00:00:00 | |
| DO3MHA-11 | 2026-08-31 07:41:32 | 50.06543 | 8.59334 | 59° | 58km/h | 14494m | 4.2m/s | 0°C | 0% | 0hPa | 0V | 00:00:00 | 00:00:00 | 00:00:00 | |
| CB1BUN | 2026-08-31 07:41:31 | 50.06535 | 8.59313 | 61° | 58km/h | 14494m | 4.2m/s | -51.2°C | 0% | 0hPa | 0V | 00:00:00 | 00:00:00 | 00:00:00 | |
| DM0DOS-11 | 2026-08-31 07:41:29 | 50.06477 | 8.59171 | 63° | 62km/h | 14458m | 4.2m/s | 0°C | 0% | 0hPa | 0V | 00:00:00 | 00:00:00 | 00:00:00 | |
| DL1XH-west | 2026-08-31 07:41:28 | 50.06512 | 8.59259 | 62° | 53km/h | 14481m | 4.9m/s | -51.2°C | 0% | 0hPa | 4.2V | 00:00:00 | 00:00:00 | 00:00:00 | |
| DO3DL | 2026-08-31 07:41:28 | 50.06506 | 8.59239 | 68° | 62km/h | 14477m | 2.8m/s | -51.1°C | 0% | 0hPa | 4.3V | 00:00:00 | 00:00:00 | 00:00:00 | |
| HEMX73-11 | 2026-08-31 07:41:27 | 50.06506 | 8.59239 | 68° | 62km/h | 14477m | 2.8m/s | -51.1°C | 0% | 0hPa | 4.3V | 00:00:00 | 00:00:00 | 00:00:00 | |
| SO1NDE-10 | 2026-08-31 07:41:26 | 50.06498 | 8.59213 | 51° | 64km/h | 14468m | 3.9m/s | 0°C | 0% | 0hPa | 4.3V | 00:00:00 | 00:00:00 | 00:00:00 | |
| DK7TD | 2026-08-31 07:41:22 | 50.06459 | 8.59117 | 63° | 60km/h | 14450m | 5.1m/s | -50.9°C | 0% | 0hPa | 4.3V | 00:00:00 | 00:00:00 | 00:00:00 | |
| BIOWL1-15 | 2026-08-31 07:41:22 | 50.06443 | 8.59068 | 66° | 71km/h | 14441m | 5.2m/s | -50.8°C | 0% | 0hPa | 4.3V | 00:00:00 | 00:00:00 | 00:00:00 | |
| DO3MHA-11 | 2026-08-31 07:41:21 | 50.06458 | 8.59117 | 63° | 62km/h | 14446m | 4.3m/s | 0°C | 0% | 0hPa | 0V | 00:00:00 | 00:00:00 | 00:00:00 | |
| NBG1-10 | 2026-08-31 07:41:20 | 50.06449 | 8.59093 | 63° | 66km/h | 14446m | 4.3m/s | 0°C | 0% | 0hPa | 0V | 00:00:00 | 00:00:00 | 00:00:00 | |
| DM0DOS-11 | 2026-08-31 07:41:19 | 50.06406 | 8.58972 | 68° | 60km/h | 14413m | 5.7m/s | 0°C | 0% | 0hPa | 0V | 00:00:00 | 00:00:00 | 00:00:00 | |
| DO2KSM | 2026-08-31 07:41:18 | 50.06436 | 8.59044 | 66° | 60km/h | 14437m | 3.7m/s | -50.8°C | 0% | 0hPa | 4.3V | 00:00:00 | 00:00:00 | 00:00:00 | |
| DL1XH-west | 2026-08-31 07:41:17 | 50.06429 | 8.59025 | 56° | 55km/h | 14431m | 6.5m/s | -50.8°C | 0% | 0hPa | 4.3V | 00:00:00 | 00:00:00 | 00:00:00 | |
| DO3DL | 2026-08-31 07:41:14 | 50.06406 | 8.58972 | 70° | 60km/h | 14418m | 3.8m/s | -50.7°C | 0% | 0hPa | 0V | 00:00:00 | 00:00:00 | 00:00:00 | |
| DL1NUX | 2026-08-31 07:41:13 | 50.06362 | 8.58846 | 57° | 62km/h | 14384m | 6.5m/s | 0°C | 0% | 0hPa | 0V | 00:00:00 | 00:00:00 | 00:00:00 | |
| DK7TD | 2026-08-31 07:41:11 | 50.06377 | 8.58882 | 62° | 51km/h | 14399m | 3.8m/s | -50.6°C | 0% | 0hPa | 4.2V | 00:00:00 | 00:00:00 | 00:00:00 | |
| DO3MHA-11 | 2026-08-31 07:41:11 | 50.06384 | 8.58899 | 62° | 64km/h | 14399m | 3.8m/s | 0°C | 0% | 0hPa | 4.2V | 00:00:00 | 00:00:00 | 00:00:00 | |
| DB0NH | 2026-08-31 07:41:10 | 50.06377 | 8.58882 | 62° | 68km/h | 14395m | 5.2m/s | 0°C | 0% | 0hPa | 4.2V | 00:00:00 | 00:00:00 | 00:00:00 | |
| DM0DOS-11 | 2026-08-31 07:41:09 | 50.06331 | 8.58754 | 54° | 69km/h | 14365m | 4.8m/s | 0°C | 0% | 0hPa | 0V | 00:00:00 | 00:00:00 | 00:00:00 | |
| BIOWL1-15 | 2026-08-31 07:41:09 | 50.06362 | 8.58846 | 58° | 62km/h | 14390m | 4.1m/s | -50.6°C | 0% | 0hPa | 4.2V | 00:00:00 | 00:00:00 | 00:00:00 | |
| DO3DL | 2026-08-31 07:41:09 | 50.06362 | 8.58845 | 59° | 62km/h | 14390m | 4.1m/s | -50.6°C | 0% | 0hPa | 4.2V | 00:00:00 | 00:00:00 | 00:00:00 | |
| DL1XH-west | 2026-08-31 07:41:07 | 50.06348 | 8.58800 | 68° | 68km/h | 14379m | 4m/s | -50.7°C | 0% | 0hPa | 4.2V | 00:00:00 | 00:00:00 | 00:00:00 | |
| DL3AQ-11 | 2026-08-31 07:41:07 | 50.06348 | 8.58800 | 67° | 66km/h | 14379m | 4.0m/s | -50.7°C | -1.0% | -1.0hPa | 0V | 00:00:00 | 00:00:00 | 00:00:00 | |
| BUE01 | 2026-08-31 07:41:06 | 50.06341 | 8.58776 | 58° | 66km/h | 14374m | 6.4m/s | -50.7°C | -1.0% | -1.0hPa | 0V | 00:00:00 | 00:00:00 | 00:00:00 | |
| DJ2DS-15 | 2026-08-31 07:41:04 | 50.06315 | 8.58704 | 72° | 71km/h | 14361m | 3.4m/s | -50.6°C | -1.0% | -1.0hPa | 0V | 00:00:00 | 00:00:00 | 00:00:00 | |
| DL1NUX | 2026-08-31 07:41:03 | 50.06285 | 8.58602 | 63° | 73km/h | 14340m | 4.5m/s | 0°C | 0% | 0hPa | 0V | 00:00:00 | 00:00:00 | 00:00:00 | |
| DF3TZ-5 | 2026-08-31 07:41:03 | 50.06315 | 8.58704 | 72° | 71km/h | 14361m | 3.4m/s | -50.6°C | -1.0% | -1.0hPa | 4.2V | 00:00:00 | 00:00:00 | 00:00:00 | |
| DK7TD | 2026-08-31 07:41:01 | 50.06302 | 8.58653 | 62° | 69km/h | 14353m | 4m/s | -50.6°C | 0% | 0hPa | 4.2V | 00:00:00 | 00:00:00 | 00:00:00 | |
| DF1GD-15 | 2026-08-31 07:40:59 | 50.06293 | 8.58629 | 63° | 71km/h | 14348m | 4.7m/s | -50.6°C | 0% | 0hPa | 4.2V | 00:00:00 | 00:00:00 | 00:00:00 | |
| BIOWL1-15 | 2026-08-31 07:40:58 | 50.06277 | 8.58577 | 63° | 73km/h | 14340m | 4.5m/s | -50.6°C | 0% | 0hPa | 4.2V | 00:00:00 | 00:00:00 | 00:00:00 | |
| DO2KSM | 2026-08-31 07:40:57 | 50.06277 | 8.58577 | 64° | 73km/h | 14340m | 4.5m/s | -50.6°C | 0% | 0hPa | 4.3V | 00:00:00 | 00:00:00 | 00:00:00 | |
| SO1NDE-10 | 2026-08-31 07:40:56 | 50.06268 | 8.58553 | 63° | 71km/h | 14331m | 5.0m/s | 0°C | 0% | 0hPa | 4.3V | 00:00:00 | 00:00:00 | 00:00:00 | |
| DL1XH-west | 2026-08-31 07:40:55 | 50.06260 | 8.58528 | 63° | 68km/h | 14331m | 5.1m/s | -50.6°C | 0% | 0hPa | 4.3V | 00:00:00 | 00:00:00 | 00:00:00 | |
| DO3DL | 2026-08-31 07:40:55 | 50.06260 | 8.58528 | 64° | 68km/h | 14331m | 5.1m/s | -50.6°C | 0% | 0hPa | 4.3V | 00:00:00 | 00:00:00 | 00:00:00 | |
| DJTTGO | 2026-08-31 07:40:53 | 50.06246 | 8.58479 | 66° | 68km/h | 14323m | 4.1m/s | -50.6°C | 0% | 0hPa | 4.3V | 00:00:00 | 00:00:00 | 00:00:00 | |
| BIOWL1-15 | 2026-08-31 07:40:52 | 50.06192 | 8.58335 | 63° | 62km/h | 14296m | 4.7m/s | -50.5°C | 0% | 0hPa | 4.3V | 00:00:00 | 00:00:00 | 00:00:00 | |
| DO3MHA-11 | 2026-08-31 07:40:51 | 50.06227 | 8.58432 | 56° | 69km/h | 14309m | 4.3m/s | 0°C | 0% | 0hPa | 4.3V | 00:00:00 | 00:00:00 | 00:00:00 | |
| DK7TD | 2026-08-31 07:40:50 | 50.06208 | 8.58381 | 62° | 73km/h | 14305m | 4.6m/s | -50.5°C | 0% | 0hPa | 4.3V | 00:00:00 | 00:00:00 | 00:00:00 | |
| DO3DL | 2026-08-31 07:40:48 | 50.06199 | 8.58356 | 61° | 66km/h | 14300m | 4.5m/s | -50.5°C | 0% | 0hPa | 4.3V | 00:00:00 | 00:00:00 | 00:00:00 | |
| HEMX73-11 | 2026-08-31 07:40:47 | 50.06185 | 8.58312 | 67° | 66km/h | 14291m | 3.6m/s | -50.5°C | 0% | 0hPa | 4.3V | 00:00:00 | 00:00:00 | 00:00:00 | |
| DL1XH-west | 2026-08-31 07:40:45 | 50.06177 | 8.58288 | 59° | 69km/h | 14287m | 5.1m/s | -50.5°C | 0% | 0hPa | 4.3V | 00:00:00 | 00:00:00 | 00:00:00 | |
| DL1NUX | 2026-08-31 07:40:43 | 50.06112 | 8.58128 | 62° | 73km/h | 14251m | 4.3m/s | 0°C | 0% | 0hPa | 0V | 00:00:00 | 00:00:00 | 00:00:00 | |
| DO3DL | 2026-08-31 07:40:42 | 50.06146 | 8.58219 | 63° | 66km/h | 14273m | 4.5m/s | -50.4°C | 0% | 0hPa | 0V | 00:00:00 | 00:00:00 | 00:00:00 | |
| DO3MHA-11 | 2026-08-31 07:40:41 | 50.06138 | 8.58198 | 57° | 69km/h | 14264m | 3.6m/s | 0°C | 0% | 0hPa | 0V | 00:00:00 | 00:00:00 | 00:00:00 | |
| DB0NH | 2026-08-31 07:40:40 | 50.06130 | 8.58175 | 57° | 73km/h | 14260m | 4.8m/s | 0°C | 0% | 0hPa | 0V | 00:00:00 | 00:00:00 | 00:00:00 | |
| DM0DOS-11 | 2026-08-31 07:40:39 | 50.06074 | 8.58035 | 62° | 73km/h | 14232m | 4.8m/s | 0°C | 0% | 0hPa | 0V | 00:00:00 | 00:00:00 | 00:00:00 | |
| DK7TD | 2026-08-31 07:40:39 | 50.06112 | 8.58128 | 63° | 73km/h | 14255m | 4.4m/s | -50.4°C | 0% | 0hPa | 4.3V | 00:00:00 | 00:00:00 | 00:00:00 | |
| BIOWL1-15 | 2026-08-31 07:40:39 | 50.06094 | 8.58081 | 52° | 68km/h | 14246m | 4.6m/s | -50.3°C | 0% | 0hPa | 4.3V | 00:00:00 | 00:00:00 | 00:00:00 | |
| DB0UT-7 | 2026-08-31 07:40:37 | 50.06103 | 8.58102 | 52° | 75km/h | 14247m | 4.6m/s | 0°C | 0% | 0hPa | 4.3V | 00:00:00 | 00:00:00 | 00:00:00 | |
| DO3DL | 2026-08-31 07:40:36 | 50.06083 | 8.58059 | 55° | 68km/h | 14242m | 4.8m/s | -50.3°C | 0% | 0hPa | 4.3V | 00:00:00 | 00:00:00 | 00:00:00 | |
| DL1XH-west | 2026-08-31 07:40:34 | 50.06074 | 8.58036 | 62° | 73km/h | 14237m | 4.8m/s | -50.3°C | 0% | 0hPa | 4.3V | 00:00:00 | 00:00:00 | 00:00:00 | |
| DL1NUX | 2026-08-31 07:40:33 | 50.06017 | 8.57889 | 58° | 69km/h | 14202m | 5.5m/s | 0°C | 0% | 0hPa | 0V | 00:00:00 | 00:00:00 | 00:00:00 | |
| DO3MHA-11 | 2026-08-31 07:40:31 | 50.06046 | 8.57959 | 59° | 75km/h | 14217m | 4.2m/s | 0°C | 0% | 0hPa | 4.3V | 00:00:00 | 00:00:00 | 00:00:00 | |
| DO3DL | 2026-08-31 07:40:29 | 50.06027 | 8.57909 | 58° | 73km/h | 14212m | 5.2m/s | -50.3°C | 0% | 0hPa | 4.3V | 00:00:00 | 00:00:00 | 00:00:00 | |
| DK7TD | 2026-08-31 07:40:28 | 50.06007 | 8.57863 | 59° | 71km/h | 14202m | 5.5m/s | -50.2°C | 0% | 0hPa | 4.3V | 00:00:00 | 00:00:00 | 00:00:00 | |
| SO1NDE-10 | 2026-08-31 07:40:26 | 50.05997 | 8.57836 | 61° | 77km/h | 14193m | 5.3m/s | 0°C | 0% | 0hPa | 4.3V | 00:00:00 | 00:00:00 | 00:00:00 | |
| BIOWL1-15 | 2026-08-31 07:40:25 | 50.05988 | 8.57810 | 61° | 78km/h | 14193m | 5.3m/s | -50.2°C | 0% | 0hPa | 4.3V | 00:00:00 | 00:00:00 | 00:00:00 | |
| THATR2-17 | 2026-08-31 07:40:25 | 50.05947 | 8.57710 | 58° | 75km/h | 14174m | 0m/s | 0°C | 0% | 0hPa | 4.3V | 00:00:00 | 00:00:00 | 00:00:00 | |
| DL1XH-west | 2026-08-31 07:40:23 | 50.05967 | 8.57761 | 55° | 75km/h | 14183m | 4.5m/s | -50°C | 0% | 0hPa | 4.3V | 00:00:00 | 00:00:00 | 00:00:00 | |
| DL1NUX | 2026-08-31 07:40:23 | 50.05914 | 8.57637 | 58° | 78km/h | 14157m | 3.6m/s | 0°C | 0% | 0hPa | 0V | 00:00:00 | 00:00:00 | 00:00:00 | |
| DO3MHA-11 | 2026-08-31 07:40:21 | 50.05947 | 8.57710 | 59° | 75km/h | 14170m | 4.8m/s | 0°C | 0% | 0hPa | 0V | 00:00:00 | 00:00:00 | 00:00:00 | |
| DM0DOS-11 | 2026-08-31 07:40:19 | 50.05872 | 8.57542 | 59° | 75km/h | 14138m | 4.2m/s | 0°C | 0% | 0hPa | 0V | 00:00:00 | 00:00:00 | 00:00:00 | |
| DK7TD | 2026-08-31 07:40:18 | 50.05904 | 8.57611 | 57° | 77km/h | 14157m | 3.6m/s | -49.9°C | 0% | 0hPa | 4.3V | 00:00:00 | 00:00:00 | 00:00:00 | |
| DO2KSM | 2026-08-31 07:40:16 | 50.05893 | 8.57588 | 53° | 73km/h | 14152m | 5.1m/s | -49.8°C | 0% | 0hPa | 4.3V | 00:00:00 | 00:00:00 | 00:00:00 | |
| BIOWL1-15 | 2026-08-31 07:40:15 | 50.05872 | 8.57542 | 59° | 75km/h | 14143m | 5.9m/s | -49.7°C | 0% | 0hPa | 4.3V | 00:00:00 | 00:00:00 | 00:00:00 | |
| DL1NUX | 2026-08-31 07:40:13 | 50.05810 | 8.57390 | 59° | 75km/h | 14109m | 4.1m/s | 0°C | 0% | 0hPa | 0V | 00:00:00 | 00:00:00 | 00:00:00 | |
| NBG1-10 | 2026-08-31 07:40:13 | 50.05862 | 8.57513 | 60° | 78km/h | 14133m | 5.5m/s | 0°C | 0% | 0hPa | 4.3V | 00:00:00 | 00:00:00 | 00:00:00 | |
| DL1XH-west | 2026-08-31 07:40:12 | 50.05853 | 8.57488 | 60° | 78km/h | 14133m | 5.5m/s | -49.7°C | 0% | 0hPa | 4.3V | 00:00:00 | 00:00:00 | 00:00:00 | |
| DO3MHA-11 | 2026-08-31 07:40:11 | 50.05842 | 8.57464 | 54° | 77km/h | 14124m | 5.1m/s | 0°C | 0% | 0hPa | 0V | 00:00:00 | 00:00:00 | 00:00:00 | |
| DB0NH | 2026-08-31 07:40:10 | 50.05830 | 8.57440 | 54° | 78km/h | 14118m | 5.0m/s | 0°C | 0% | 0hPa | 0V | 00:00:00 | 00:00:00 | 00:00:00 | |
| DM0DOS-11 | 2026-08-31 07:40:09 | 50.05769 | 8.57285 | 55° | 80km/h | 14089m | 3.5m/s | 0°C | 0% | 0hPa | 0V | 00:00:00 | 00:00:00 | 00:00:00 | |
| DH7VM-15 | 2026-08-31 07:40:08 | 50.05810 | 8.57390 | 61° | 75km/h | 14113m | 5.0m/s | -49.6°C | 0% | 0hPa | 4.3V | 00:00:00 | 00:00:00 | 00:00:00 | |
| DK7TD | 2026-08-31 07:40:07 | 50.05790 | 8.57339 | 59° | 78km/h | 14104m | 5.5m/s | -49.7°C | 0% | 0hPa | 4.3V | 00:00:00 | 00:00:00 | 00:00:00 | |
| BIOWL1-15 | 2026-08-31 07:40:06 | 50.05769 | 8.57285 | 55° | 80km/h | 14095m | 5.5m/s | -49.7°C | 0% | 0hPa | 4.3V | 00:00:00 | 00:00:00 | 00:00:00 | |
| DN1GJH-1 | 2026-08-31 07:40:05 | 50.05780 | 8.57312 | 61° | 82km/h | 14099m | 3.9m/s | -49.7°C | 0% | 0hPa | 0V | 00:00:00 | 00:00:00 | 00:00:00 | |
| BUE01 | 2026-08-31 07:40:04 | 50.05744 | 8.57236 | 54° | 75km/h | 14085m | 5.2m/s | -49.7°C | -1.0% | -1.0hPa | 0V | 00:00:00 | 00:00:00 | 00:00:00 | |
| DL1NUX | 2026-08-31 07:40:03 | 50.05700 | 8.57132 | 52° | 82km/h | 14063m | 4.8m/s | 0°C | 0% | 0hPa | 0V | 00:00:00 | 00:00:00 | 00:00:00 | |
| DL1XH-west | 2026-08-31 07:40:02 | 50.05734 | 8.57210 | 63° | 80km/h | 14080m | 5m/s | -49.7°C | 0% | 0hPa | 4.2V | 00:00:00 | 00:00:00 | 00:00:00 | |
| DO3MHA-11 | 2026-08-31 07:40:01 | 50.05734 | 8.57210 | 63° | 80km/h | 14076m | 2.9m/s | 0°C | 0% | 0hPa | 4.2V | 00:00:00 | 00:00:00 | 00:00:00 | |
| BIOWL1-15 | 2026-08-31 07:39:58 | 50.05649 | 8.57003 | 55° | 78km/h | 14045m | 4.2m/s | -49.5°C | 0% | 0hPa | 4.2V | 00:00:00 | 00:00:00 | 00:00:00 | |
| DO3DL | 2026-08-31 07:39:57 | 50.05687 | 8.57106 | 53° | 80km/h | 14063m | 4.8m/s | -49.5°C | 0% | 0hPa | 4.2V | 00:00:00 | 00:00:00 | 00:00:00 | |
| DK7TD | 2026-08-31 07:39:56 | 50.05668 | 8.57053 | 66° | 73km/h | 14054m | 4.8m/s | -49.5°C | 0% | 0hPa | 4.2V | 00:00:00 | 00:00:00 | 00:00:00 | |
| DL1NUX | 2026-08-31 07:39:53 | 50.05595 | 8.56871 | 63° | 73km/h | 14017m | 4.5m/s | 0°C | 0% | 0hPa | 0V | 00:00:00 | 00:00:00 | 00:00:00 | |
| DL1XH-west | 2026-08-31 07:39:51 | 50.05625 | 8.56947 | 58° | 86km/h | 14036m | 3.6m/s | -49.5°C | 0% | 0hPa | 4.2V | 00:00:00 | 00:00:00 | 00:00:00 | |
| BIOWL7-15 | 2026-08-31 07:39:51 | 50.05614 | 8.56920 | 57° | 78km/h | 14031m | 5.3m/s | -49.5°C | 0% | 0hPa | 0V | 00:00:00 | 00:00:00 | 00:00:00 | |
| DO3DL | 2026-08-31 07:39:50 | 50.05614 | 8.56920 | 57° | 78km/h | 14031m | 5.3m/s | -49.5°C | 0% | 0hPa | 0V | 00:00:00 | 00:00:00 | 00:00:00 | |
| DM0DOS-11 | 2026-08-31 07:39:45 | 50.05550 | 8.56757 | 51° | 73km/h | 13999m | 5.2m/s | 0°C | 0% | 0hPa | 0V | 00:00:00 | 00:00:00 | 00:00:00 | |
| DK7TD | 2026-08-31 07:39:45 | 50.05550 | 8.56757 | 52° | 73km/h | 14004m | 3.9m/s | -49.4°C | 0% | 0hPa | 4.2V | 00:00:00 | 00:00:00 | 00:00:00 | |
| DO3DL | 2026-08-31 07:39:44 | 50.05550 | 8.56757 | 53° | 73km/h | 14004m | 3.9m/s | -49.4°C | 0% | 0hPa | 0V | 00:00:00 | 00:00:00 | 00:00:00 | |
| DL1NUX | 2026-08-31 07:39:43 | 50.05490 | 8.56595 | 58° | 82km/h | 13972m | 4.4m/s | 0°C | 0% | 0hPa | 0V | 00:00:00 | 00:00:00 | 00:00:00 | |
| BIOWL1-15 | 2026-08-31 07:39:43 | 50.05533 | 8.56706 | 69° | 80km/h | 13995m | 4.1m/s | -49.3°C | 0% | 0hPa | 4.3V | 00:00:00 | 00:00:00 | 00:00:00 | |
| DO3MHA-11 | 2026-08-31 07:39:41 | 50.05524 | 8.56675 | 55° | 80km/h | 13986m | 4.4m/s | 0°C | 0% | 0hPa | 0V | 00:00:00 | 00:00:00 | 00:00:00 | |
| DL1XH-west | 2026-08-31 07:39:41 | 50.05514 | 8.56648 | 55° | 84km/h | 13986m | 4.4m/s | -49.2°C | 0% | 0hPa | 4.3V | 00:00:00 | 00:00:00 | 00:00:00 | |
| NBG1-10 | 2026-08-31 07:39:40 | 50.05514 | 8.56648 | 55° | 80km/h | 13981m | 4.7m/s | 0°C | 0% | 0hPa | 0V | 00:00:00 | 00:00:00 | 00:00:00 | |
| DM0DOS-11 | 2026-08-31 07:39:39 | 50.05452 | 8.56485 | 64° | 84km/h | 13952m | 4.4m/s | 0°C | 0% | 0hPa | 0V | 00:00:00 | 00:00:00 | 00:00:00 | |
| DB0UT-7 | 2026-08-31 07:39:37 | 50.05479 | 8.56567 | 62° | 80km/h | 13962m | 4.0m/s | 0°C | 0% | 0hPa | 4.3V | 00:00:00 | 00:00:00 | 00:00:00 | |
| DO2KSM | 2026-08-31 07:39:36 | 50.05461 | 8.56515 | 63° | 77km/h | 13962m | 4.0m/s | -49.1°C | 0% | 0hPa | 4.3V | 00:00:00 | 00:00:00 | 00:00:00 | |
| DK7TD | 2026-08-31 07:39:34 | 50.05443 | 8.56457 | 64° | 84km/h | 13953m | 4.4m/s | -49°C | 0% | 0hPa | 4.3V | 00:00:00 | 00:00:00 | 00:00:00 | |
| BIOWL1-15 | 2026-08-31 07:39:31 | 50.05423 | 8.56403 | 57° | 77km/h | 13943m | 3.9m/s | -48.9°C | 0% | 0hPa | 4.3V | 00:00:00 | 00:00:00 | 00:00:00 | |
| DO3MHA-11 | 2026-08-31 07:39:31 | 50.05422 | 8.56403 | 58° | 80km/h | 13938m | 5.9m/s | 0°C | 0% | 0hPa | 4.3V | 00:00:00 | 00:00:00 | 00:00:00 | |
| DL1XH-west | 2026-08-31 07:39:30 | 50.05403 | 8.56346 | 66° | 86km/h | 13933m | 4.3m/s | -48.9°C | 0% | 0hPa | 4.3V | 00:00:00 | 00:00:00 | 00:00:00 | |
| DM0DOS-11 | 2026-08-31 07:39:29 | 50.05357 | 8.56203 | 65° | 82km/h | 13904m | 3.7m/s | 0°C | 0% | 0hPa | 0V | 00:00:00 | 00:00:00 | 00:00:00 | |
| CB1BUN | 2026-08-31 07:39:28 | 50.05394 | 8.56316 | 65° | 82km/h | 13928m | 5.3m/s | -48.9°C | 0% | 0hPa | 4.3V | 00:00:00 | 00:00:00 | 00:00:00 | |
| SO1NDE-10 | 2026-08-31 07:39:26 | 50.05375 | 8.56262 | 66° | 80km/h | 13914m | 4.6m/s | 0°C | 0% | 0hPa | 4.3V | 00:00:00 | 00:00:00 | 00:00:00 | |
| DO3DL | 2026-08-31 07:39:25 | 50.05357 | 8.56203 | 66° | 82km/h | 13909m | 5.3m/s | -48.9°C | 0% | 0hPa | 4.3V | 00:00:00 | 00:00:00 | 00:00:00 | |
| DK7TD | 2026-08-31 07:39:24 | 50.05348 | 8.56175 | 62° | 75km/h | 13904m | 3.7m/s | -48.9°C | 0% | 0hPa | 4.3V | 00:00:00 | 00:00:00 | 00:00:00 | |
| BIOWL1-15 | 2026-08-31 07:39:23 | 50.05330 | 8.56119 | 67° | 86km/h | 13895m | 4.7m/s | -48.8°C | 0% | 0hPa | 4.3V | 00:00:00 | 00:00:00 | 00:00:00 | |
| DL1NUX | 2026-08-31 07:39:23 | 50.05304 | 8.56035 | 59° | 75km/h | 13876m | 4.6m/s | 0°C | 0% | 0hPa | 0V | 00:00:00 | 00:00:00 | 00:00:00 | |
| DO3MHA-11 | 2026-08-31 07:39:21 | 50.05330 | 8.56119 | 67° | 78km/h | 13890m | 3.8m/s | 0°C | 0% | 0hPa | 0V | 00:00:00 | 00:00:00 | 00:00:00 | |
| DM0DOS-11 | 2026-08-31 07:39:19 | 50.05270 | 8.55923 | 67° | 71km/h | 13857m | 5.2m/s | 0°C | 0% | 0hPa | 0V | 00:00:00 | 00:00:00 | 00:00:00 | |
| DL1XH-west | 2026-08-31 07:39:19 | 50.05304 | 8.56035 | 60° | 75km/h | 13881m | 4.8m/s | -48.8°C | 0% | 0hPa | 4.3V | 00:00:00 | 00:00:00 | 00:00:00 | |
| DO3DL | 2026-08-31 07:39:18 | 50.05304 | 8.56035 | 61° | 75km/h | 13881m | 4.8m/s | -48.8°C | 0% | 0hPa | 0V | 00:00:00 | 00:00:00 | 00:00:00 | |
| DF1GD-15 | 2026-08-31 07:39:17 | 50.05295 | 8.56008 | 64° | 82km/h | 13877m | 4.6m/s | -48.8°C | 0% | 0hPa | 0V | 00:00:00 | 00:00:00 | 00:00:00 | |
| DO2KSM | 2026-08-31 07:39:15 | 50.05277 | 8.55950 | 69° | 75km/h | 13867m | 5.7m/s | -48.8°C | 0% | 0hPa | 0V | 00:00:00 | 00:00:00 | 00:00:00 | |
| DL1NUX | 2026-08-31 07:39:13 | 50.05215 | 8.55756 | 70° | 82km/h | 13814m | 4.5m/s | 0°C | 0% | 0hPa | 0V | 00:00:00 | 00:00:00 | 00:00:00 | |
| DK7TD | 2026-08-31 07:39:13 | 50.05253 | 8.55868 | 61° | 84km/h | 13852m | 4.7m/s | -48.8°C | 0% | 0hPa | 4.3V | 00:00:00 | 00:00:00 | 00:00:00 | |
| DO3DL | 2026-08-31 07:39:12 | 50.05253 | 8.55868 | 61° | 84km/h | 13853m | 4.7m/s | -48.8°C | 0% | 0hPa | 4.3V | 00:00:00 | 00:00:00 | 00:00:00 | |
| DO3MHA-11 | 2026-08-31 07:39:11 | 50.05242 | 8.55842 | 61° | 80km/h | 13843m | 3.2m/s | 0°C | 0% | 0hPa | 4.3V | 00:00:00 | 00:00:00 | 00:00:00 | |
| BIOWL1-15 | 2026-08-31 07:39:10 | 50.05232 | 8.55814 | 60° | 77km/h | 13843m | 3.2m/s | -48.8°C | 0% | 0hPa | 4.3V | 00:00:00 | 00:00:00 | 00:00:00 | |
| DM0DOS-11 | 2026-08-31 07:39:09 | 50.05179 | 8.55640 | 62° | 84km/h | 13810m | 4.8m/s | 0°C | 0% | 0hPa | 0V | 00:00:00 | 00:00:00 | 00:00:00 | |
| DB0NH | 2026-08-31 07:39:09 | 50.05223 | 8.55786 | 66° | 84km/h | 13833m | 4.6m/s | 0°C | 0% | 0hPa | 4.3V | 00:00:00 | 00:00:00 | 00:00:00 | |
| DL1XH-west | 2026-08-31 07:39:08 | 50.05215 | 8.55756 | 70° | 82km/h | 13833m | 4.6m/s | -48.7°C | 0% | 0hPa | 4.3V | 00:00:00 | 00:00:00 | 00:00:00 | |
| CB1BUN | 2026-08-31 07:39:08 | 50.05208 | 8.55727 | 70° | 77km/h | 13828m | 4.4m/s | -48.7°C | 0% | 0hPa | 0V | 00:00:00 | 00:00:00 | 00:00:00 | |
| NBG1-10 | 2026-08-31 07:39:07 | 50.05208 | 8.55727 | 69° | 84km/h | 13824m | 4.5m/s | 0°C | 0% | 0hPa | 0V | 00:00:00 | 00:00:00 | 00:00:00 | |
| DB0UT-7 | 2026-08-31 07:39:06 | 50.05200 | 8.55699 | 60° | 84km/h | 13819m | 4.6m/s | 0°C | 0% | 0hPa | 0V | 00:00:00 | 00:00:00 | 00:00:00 | |
| DO3DL | 2026-08-31 07:39:05 | 50.05190 | 8.55670 | 61° | 88km/h | 13819m | 4.6m/s | -48.7°C | 0% | 0hPa | 0V | 00:00:00 | 00:00:00 | 00:00:00 | |
| DN1GJH-1 | 2026-08-31 07:39:04 | 50.05179 | 8.55641 | 60° | 84km/h | 13814m | 4.5m/s | -48.7°C | 0% | 0hPa | 0V | 00:00:00 | 00:00:00 | 00:00:00 | |
| DL1NUX | 2026-08-31 07:39:03 | 50.05129 | 8.55467 | 63° | 75km/h | 13783m | 4.5m/s | 0°C | 0% | 0hPa | 0V | 00:00:00 | 00:00:00 | 00:00:00 | |
| DK7TD | 2026-08-31 07:39:02 | 50.05154 | 8.55558 | 69° | 86km/h | 13801m | 5.4m/s | -48.5°C | 0% | 0hPa | 4.3V | 00:00:00 | 00:00:00 | 00:00:00 | |
| DO3MHA-11 | 2026-08-31 07:39:01 | 50.05154 | 8.55558 | 69° | 86km/h | 13796m | 3.9m/s | 0°C | 0% | 0hPa | 4.3V | 00:00:00 | 00:00:00 | 00:00:00 | |
| BIOWL1-15 | 2026-08-31 07:39:00 | 50.05145 | 8.55526 | 67° | 91km/h | 13796m | 4m/s | -48.5°C | 0% | 0hPa | 4.3V | 00:00:00 | 00:00:00 | 00:00:00 | |
| DM0DOS-11 | 2026-08-31 07:38:59 | 50.05094 | 8.55344 | 69° | 84km/h | 13764m | 5m/s | 0°C | 0% | 0hPa | 0V | 00:00:00 | 00:00:00 | 00:00:00 | |
| DL1XH-west | 2026-08-31 07:38:57 | 50.05121 | 8.55437 | 64° | 78km/h | 13783m | 4.5m/s | -48.4°C | 0% | 0hPa | 4.3V | 00:00:00 | 00:00:00 | 00:00:00 | |
| DH7VM-15 | 2026-08-31 07:38:57 | 50.05120 | 8.55437 | 65° | 78km/h | 13783m | 4.5m/s | -48.4°C | 0% | 0hPa | 0V | 00:00:00 | 00:00:00 | 00:00:00 | |
| SO1NDE-10 | 2026-08-31 07:38:56 | 50.05111 | 8.55408 | 65° | 86km/h | 13774m | 4.5m/s | 0°C | 0% | 0hPa | 0V | 00:00:00 | 00:00:00 | 00:00:00 | |
| DO2KSM | 2026-08-31 07:38:54 | 50.05094 | 8.55344 | 71° | 84km/h | 13769m | 4.4m/s | -48.3°C | 0% | 0hPa | 0V | 00:00:00 | 00:00:00 | 00:00:00 | |
| DL1NUX | 2026-08-31 07:38:53 | 50.05038 | 8.55166 | 64° | 93km/h | 13736m | 3.9m/s | 0°C | 0% | 0hPa | 0V | 00:00:00 | 00:00:00 | 00:00:00 | |
| DO3DL | 2026-08-31 07:38:52 | 50.05077 | 8.55283 | 63° | 86km/h | 13759m | 4.8m/s | -48.3°C | 0% | 0hPa | 4.3V | 00:00:00 | 00:00:00 | 00:00:00 | |
| DK7TD | 2026-08-31 07:38:51 | 50.05057 | 8.55226 | 63° | 78km/h | 13750m | 3.5m/s | -48.2°C | 0% | 0hPa | 4.3V | 00:00:00 | 00:00:00 | 00:00:00 | |
| BIOWL1-15 | 2026-08-31 07:38:51 | 50.05038 | 8.55166 | 65° | 93km/h | 13740m | 4.6m/s | -48.1°C | 0% | 0hPa | 4.3V | 00:00:00 | 00:00:00 | 00:00:00 | |
| DM0DOS-11 | 2026-08-31 07:38:49 | 50.05003 | 8.55046 | 60° | 84km/h | 13718m | 4.1m/s | 0°C | 0% | 0hPa | 0V | 00:00:00 | 00:00:00 | 00:00:00 | |
| DL1XH-west | 2026-08-31 07:38:47 | 50.05020 | 8.55102 | 69° | 80km/h | 13732m | 4.9m/s | -48°C | 0% | 0hPa | 4.3V | 00:00:00 | 00:00:00 | 00:00:00 | |
| DO3DL | 2026-08-31 07:38:46 | 50.05020 | 8.55102 | 70° | 80km/h | 13732m | 4.9m/s | -48.0°C | 0% | 0hPa | 0V | 00:00:00 | 00:00:00 | 00:00:00 | |
| DL1NUX | 2026-08-31 07:38:43 | 50.04944 | 8.54862 | 67° | 80km/h | 13690m | 4.2m/s | 0°C | 0% | 0hPa | 0V | 00:00:00 | 00:00:00 | 00:00:00 | |
| DO3MHA-11 | 2026-08-31 07:38:41 | 50.04974 | 8.54954 | 68° | 88km/h | 13705m | 5.4m/s | 0°C | 0% | 0hPa | 0V | 00:00:00 | 00:00:00 | 00:00:00 | |
| DK7TD | 2026-08-31 07:38:41 | 50.04965 | 8.54922 | 64° | 91km/h | 13704m | 5.4m/s | -47.8°C | 0% | 0hPa | 4.3V | 00:00:00 | 00:00:00 | 00:00:00 | |
| DB0NH | 2026-08-31 07:38:39 | 50.04954 | 8.54890 | 62° | 91km/h | 13690m | 4.2m/s | 0°C | 0% | 0hPa | 0V | 00:00:00 | 00:00:00 | 00:00:00 | |
| DM0DOS-11 | 2026-08-31 07:38:38 | 50.04898 | 8.54709 | 62° | 91km/h | 13667m | 4.5m/s | 0°C | 0% | 0hPa | 0V | 00:00:00 | 00:00:00 | 00:00:00 | |
| BIOWL1-15 | 2026-08-31 07:38:38 | 50.04936 | 8.54835 | 68° | 71km/h | 13690m | 4.2m/s | -47.8°C | 0% | 0hPa | 4.3V | 00:00:00 | 00:00:00 | 00:00:00 | |
| DL1XH-west | 2026-08-31 07:38:36 | 50.04919 | 8.54776 | 64° | 95km/h | 13681m | 5m/s | -47.7°C | 0% | 0hPa | 4.3V | 00:00:00 | 00:00:00 | 00:00:00 | |
| DB0UT-7 | 2026-08-31 07:38:36 | 50.04928 | 8.54810 | 65° | 93km/h | 13681m | 4.9m/s | 0°C | 0% | 0hPa | 4.3V | 00:00:00 | 00:00:00 | 00:00:00 | |
| DF1GD-15 | 2026-08-31 07:38:35 | 50.04919 | 8.54776 | 65° | 95km/h | 13681m | 5.0m/s | -47.7°C | 0% | 0hPa | 4.3V | 00:00:00 | 00:00:00 | 00:00:00 | |
| NBG1-10 | 2026-08-31 07:38:34 | 50.04908 | 8.54740 | 63° | 93km/h | 13671m | 4.3m/s | 0°C | 0% | 0hPa | 4.3V | 00:00:00 | 00:00:00 | 00:00:00 | |
| DO3DL | 2026-08-31 07:38:33 | 50.04898 | 8.54709 | 64° | 91km/h | 13671m | 4.3m/s | -47.7°C | 0% | 0hPa | 4.3V | 00:00:00 | 00:00:00 | 00:00:00 | |
| DO3MHA-11 | 2026-08-31 07:38:31 | 50.04877 | 8.54649 | 62° | 91km/h | 13658m | 4.1m/s | 0°C | 0% | 0hPa | 4.3V | 00:00:00 | 00:00:00 | 00:00:00 | |
| DK7TD | 2026-08-31 07:38:30 | 50.04859 | 8.54588 | 71° | 82km/h | 13654m | 4.1m/s | -47.7°C | 0% | 0hPa | 4.3V | 00:00:00 | 00:00:00 | 00:00:00 | |
| BIOWL1-15 | 2026-08-31 07:38:27 | 50.04842 | 8.54521 | 63° | 104km/h | 13643m | 5.2m/s | -47.6°C | 0% | 0hPa | 4.3V | 00:00:00 | 00:00:00 | 00:00:00 | |
| CB1BUN | 2026-08-31 07:38:27 | 50.04829 | 8.54486 | 60° | 100km/h | 13639m | 5.3m/s | -47.6°C | 0% | 0hPa | 4.3V | 00:00:00 | 00:00:00 | 00:00:00 | |
| SO1NDE-10 | 2026-08-31 07:38:26 | 50.04829 | 8.54486 | 59° | 97km/h | 13633m | 5.0m/s | 0°C | 0% | 0hPa | 4.3V | 00:00:00 | 00:00:00 | 00:00:00 | |
| DL1XH-west | 2026-08-31 07:38:25 | 50.04807 | 8.54426 | 64° | 82km/h | 13629m | 4.7m/s | -47.6°C | 0% | 0hPa | 4.3V | 00:00:00 | 00:00:00 | 00:00:00 | |
| DL1NUX | 2026-08-31 07:38:23 | 50.04745 | 8.54230 | 61° | 100km/h | 13594m | 5.4m/s | 0°C | 0% | 0hPa | 0V | 00:00:00 | 00:00:00 | 00:00:00 | |
| DN1GJH-1 | 2026-08-31 07:38:22 | 50.04789 | 8.54362 | 68° | 97km/h | 13619m | 4.2m/s | -47.4°C | 0% | 0hPa | 4.3V | 00:00:00 | 00:00:00 | 00:00:00 | |
| DO3MHA-11 | 2026-08-31 07:38:20 | 50.04769 | 8.54295 | 63° | 95km/h | 13604m | 5.8m/s | 0°C | 0% | 0hPa | 4.3V | 00:00:00 | 00:00:00 | 00:00:00 | |
| DK7TD | 2026-08-31 07:38:19 | 50.04746 | 8.54230 | 61° | 100km/h | 13600m | 3.5m/s | -47.5°C | 0% | 0hPa | 4.3V | 00:00:00 | 00:00:00 | 00:00:00 | |
| BIOWL1-15 | 2026-08-31 07:38:16 | 50.04724 | 8.54164 | 64° | 86km/h | 13589m | 4.7m/s | -47.5°C | 0% | 0hPa | 4.3V | 00:00:00 | 00:00:00 | 00:00:00 | |
| DF1GD-15 | 2026-08-31 07:38:15 | 50.04714 | 8.54134 | 64° | 89km/h | 13585m | 3.5m/s | -47.6°C | 0% | 0hPa | 4.3V | 00:00:00 | 00:00:00 | 00:00:00 | |
| DL1XH-west | 2026-08-31 07:38:14 | 50.04703 | 8.54101 | 61° | 100km/h | 13580m | 5.9m/s | -47.7°C | 0% | 0hPa | 4.3V | 00:00:00 | 00:00:00 | 00:00:00 | |
| DL1NUX | 2026-08-31 07:38:13 | 50.04633 | 8.53894 | 62° | 102km/h | 13547m | 5.6m/s | 0°C | 0% | 0hPa | 0V | 00:00:00 | 00:00:00 | 00:00:00 | |
| DF2AP-13 | 2026-08-31 07:38:11 | 50.04665 | 8.53997 | 62° | 100km/h | 13562m | 5.1m/s | 0°C | 0% | 0hPa | 0V | 00:00:00 | 00:00:00 | 00:00:00 | |
| DO3MHA-11 | 2026-08-31 07:38:10 | 50.04655 | 8.53968 | 65° | 97km/h | 13558m | 4.7m/s | 0°C | 0% | 0hPa | 0V | 00:00:00 | 00:00:00 | 00:00:00 | |
| DB0NH | 2026-08-31 07:38:09 | 50.04644 | 8.53932 | 65° | 102km/h | 13553m | 4.3m/s | 0°C | 0% | 0hPa | 0V | 00:00:00 | 00:00:00 | 00:00:00 | |
| DM0DOS-11 | 2026-08-31 07:38:08 | 50.04581 | 8.53721 | 67° | 100km/h | 13524m | 4.2m/s | 0°C | 0% | 0hPa | 0V | 00:00:00 | 00:00:00 | 00:00:00 | |
| DK7TD | 2026-08-31 07:38:08 | 50.04622 | 8.53862 | 63° | 95km/h | 13547m | 5.6m/s | -47.5°C | 0% | 0hPa | 4.3V | 00:00:00 | 00:00:00 | 00:00:00 | |
| BIOWL1-15 | 2026-08-31 07:38:07 | 50.04601 | 8.53795 | 66° | 99km/h | 13539m | 5.3m/s | -47.6°C | 0% | 0hPa | 4.3V | 00:00:00 | 00:00:00 | 00:00:00 | |
| DO3DL | 2026-08-31 07:38:07 | 50.04622 | 8.53862 | 64° | 95km/h | 13548m | 5.6m/s | -47.5°C | 0% | 0hPa | 4.3V | 00:00:00 | 00:00:00 | 00:00:00 | |
| DB0UT-7 | 2026-08-31 07:38:06 | 50.04611 | 8.53829 | 64° | 102km/h | 13543m | 3.0m/s | 0°C | 0% | 0hPa | 4.3V | 00:00:00 | 00:00:00 | 00:00:00 | |
| DL1XH-west | 2026-08-31 07:38:04 | 50.04581 | 8.53721 | 68° | 100km/h | 13529m | 5.3m/s | -47.7°C | 0% | 0hPa | 4.3V | 00:00:00 | 00:00:00 | 00:00:00 | |
| HEMX73-11 | 2026-08-31 07:38:02 | 50.04571 | 8.53687 | 66° | 89km/h | 13524m | 4.2m/s | -47.6°C | 0% | 0hPa | 0V | 00:00:00 | 00:00:00 | 00:00:00 | |
| NBG1-10 | 2026-08-31 07:38:01 | 50.04561 | 8.53656 | 61° | 102km/h | 13515m | 5.3m/s | 0°C | 0% | 0hPa | 0V | 00:00:00 | 00:00:00 | 00:00:00 | |
| DL1NUX | 2026-08-31 07:38:00 | 50.04524 | 8.53550 | 65° | 99km/h | 13500m | 4.2m/s | 0°C | 0% | 0hPa | 0V | 00:00:00 | 00:00:00 | 00:00:00 | |
| DO3MHA-11 | 2026-08-31 07:38:00 | 50.04548 | 8.53623 | 60° | 102km/h | 13510m | 3.5m/s | 0°C | 0% | 0hPa | 4.3V | 00:00:00 | 00:00:00 | 00:00:00 | |
| DK7TD | 2026-08-31 07:37:57 | 50.04505 | 8.53481 | 65° | 99km/h | 13495m | 5.2m/s | -47.7°C | 0% | 0hPa | 4.3V | 00:00:00 | 00:00:00 | 00:00:00 | |
| BIOWL1-15 | 2026-08-31 07:37:57 | 50.04480 | 8.53412 | 59° | 97km/h | 13484m | 7.1m/s | -47.8°C | 0% | 0hPa | 4.3V | 00:00:00 | 00:00:00 | 00:00:00 | |
| SO1NDE-10 | 2026-08-31 07:37:56 | 50.04505 | 8.53481 | 65° | 104km/h | 13490m | 4.4m/s | 0°C | 0% | 0hPa | 0V | 00:00:00 | 00:00:00 | 00:00:00 | |
| DF1GD-15 | 2026-08-31 07:37:54 | 50.04480 | 8.53412 | 60° | 97km/h | 13485m | 7.1m/s | -47.8°C | 0% | 0hPa | 0V | 00:00:00 | 00:00:00 | 00:00:00 | |
| DL1NUX | 2026-08-31 07:37:53 | 50.04401 | 8.53201 | 60° | 108km/h | 13450m | 3.9m/s | 0°C | 0% | 0hPa | 0V | 00:00:00 | 00:00:00 | 00:00:00 | |
| DL1XH-west | 2026-08-31 07:37:53 | 50.04455 | 8.53343 | 62° | 108km/h | 13473m | 4.8m/s | -47.7°C | 0% | 0hPa | 4.3V | 00:00:00 | 00:00:00 | 00:00:00 | |
| DO3MHA-11 | 2026-08-31 07:37:50 | 50.04429 | 8.53271 | 58° | 104km/h | 13459m | 3.9m/s | 0°C | 0% | 0hPa | 4.3V | 00:00:00 | 00:00:00 | 00:00:00 | |
| DO3DL | 2026-08-31 07:37:48 | 50.04401 | 8.53201 | 62° | 108km/h | 13454m | 5.4m/s | -47.7°C | 0% | 0hPa | 4.3V | 00:00:00 | 00:00:00 | 00:00:00 | |
| DK7TD | 2026-08-31 07:37:47 | 50.04376 | 8.53127 | 62° | 100km/h | 13445m | 5.1m/s | -47.7°C | 0% | 0hPa | 4.3V | 00:00:00 | 00:00:00 | 00:00:00 | |
| CB1BUN | 2026-08-31 07:37:46 | 50.04364 | 8.53093 | 61° | 100km/h | 13440m | 4.6m/s | -47.6°C | 0% | 0hPa | 4.3V | 00:00:00 | 00:00:00 | 00:00:00 | |
| DL8DAS-15 | 2026-08-31 07:37:45 | 50.04364 | 8.53093 | 61° | 100km/h | 13440m | 4.6m/s | -47.6°C | 0% | 0hPa | 4.3V | 00:00:00 | 00:00:00 | 00:00:00 | |
| BIOWL1-15 | 2026-08-31 07:37:44 | 50.04351 | 8.53058 | 60° | 108km/h | 13435m | 5.2m/s | -47.6°C | 0% | 0hPa | 4.3V | 00:00:00 | 00:00:00 | 00:00:00 | |
| DL1NUX | 2026-08-31 07:37:43 | 50.04272 | 8.52847 | 61° | 99km/h | 13403m | 3.5m/s | 0°C | 0% | 0hPa | 0V | 00:00:00 | 00:00:00 | 00:00:00 | |
| DL1XH-west | 2026-08-31 07:37:42 | 50.04312 | 8.52952 | 61° | 99km/h | 13421m | 4.5m/s | -47.6°C | 0% | 0hPa | 4.3V | 00:00:00 | 00:00:00 | 00:00:00 | |
| DO3DL | 2026-08-31 07:37:42 | 50.04312 | 8.52952 | 62° | 99km/h | 13421m | 4.4m/s | -47.6°C | 0% | 0hPa | 0V | 00:00:00 | 00:00:00 | 00:00:00 | |
| DF2AP-13 | 2026-08-31 07:37:41 | 50.04312 | 8.52952 | 61° | 104km/h | 13417m | 4.7m/s | 0°C | 0% | 0hPa | 0V | 00:00:00 | 00:00:00 | 00:00:00 | |
| DO3MHA-11 | 2026-08-31 07:37:40 | 50.04299 | 8.52915 | 60° | 102km/h | 13412m | 3.9m/s | 0°C | 0% | 0hPa | 0V | 00:00:00 | 00:00:00 | 00:00:00 | |
| DB0NH | 2026-08-31 07:37:39 | 50.04286 | 8.52880 | 60° | 102km/h | 13408m | 5.0m/s | 0°C | 0% | 0hPa | 0V | 00:00:00 | 00:00:00 | 00:00:00 | |
| DM0DOS-11 | 2026-08-31 07:37:38 | 50.04210 | 8.52669 | 59° | 97km/h | 13380m | 5.2m/s | 0°C | 0% | 0hPa | 0V | 00:00:00 | 00:00:00 | 00:00:00 | |
| DK7TD | 2026-08-31 07:37:36 | 50.04236 | 8.52740 | 63° | 110km/h | 13394m | 4m/s | -47.6°C | 0% | 0hPa | 4.3V | 00:00:00 | 00:00:00 | 00:00:00 | |
| BIOWL1-15 | 2026-08-31 07:37:36 | 50.04210 | 8.52669 | 60° | 97km/h | 13385m | 4m/s | -47.6°C | 0% | 0hPa | 4.3V | 00:00:00 | 00:00:00 | 00:00:00 | |
| DB0UT-7 | 2026-08-31 07:37:36 | 50.04248 | 8.52777 | 63° | 104km/h | 13394m | 3.9m/s | 0°C | 0% | 0hPa | 0V | 00:00:00 | 00:00:00 | 00:00:00 | |
| DO3DL | 2026-08-31 07:37:35 | 50.04236 | 8.52740 | 64° | 110km/h | 13394m | 4.0m/s | -47.6°C | 0% | 0hPa | 0V | 00:00:00 | 00:00:00 | 00:00:00 | |
| DF1GD-15 | 2026-08-31 07:37:34 | 50.04223 | 8.52703 | 61° | 104km/h | 13390m | 5.3m/s | -47.6°C | 0% | 0hPa | 0V | 00:00:00 | 00:00:00 | 00:00:00 | |
| DL1NUX | 2026-08-31 07:37:33 | 50.04145 | 8.52495 | 61° | 106km/h | 13356m | 4.1m/s | 0°C | 0% | 0hPa | 0V | 00:00:00 | 00:00:00 | 00:00:00 | |
| DO2KSM | 2026-08-31 07:37:32 | 50.04198 | 8.52635 | 62° | 100km/h | 13380m | 5.2m/s | -47.6°C | 0% | 0hPa | 4.3V | 00:00:00 | 00:00:00 | 00:00:00 | |
| DL1XH-west | 2026-08-31 07:37:31 | 50.04185 | 8.52600 | 62° | 106km/h | 13376m | 4.3m/s | -47.6°C | 0% | 0hPa | 4.3V | 00:00:00 | 00:00:00 | 00:00:00 | |
| DO3MHA-11 | 2026-08-31 07:37:30 | 50.04172 | 8.52564 | 60° | 104km/h | 13366m | 3.7m/s | 0°C | 0% | 0hPa | 4.3V | 00:00:00 | 00:00:00 | 00:00:00 | |
| NBG1-10 | 2026-08-31 07:37:28 | 50.04145 | 8.52495 | 62° | 104km/h | 13356m | 4.0m/s | 0°C | 0% | 0hPa | 4.3V | 00:00:00 | 00:00:00 | 00:00:00 | |
| DJTTGO | 2026-08-31 07:37:27 | 50.04133 | 8.52458 | 64° | 108km/h | 13356m | 4.1m/s | -47.7°C | 0% | 0hPa | 4.3V | 00:00:00 | 00:00:00 | 00:00:00 | |
| DK7TD | 2026-08-31 07:37:25 | 50.04093 | 8.52353 | 60° | 104km/h | 13341m | 5.2m/s | -47.6°C | 0% | 0hPa | 4.3V | 00:00:00 | 00:00:00 | 00:00:00 | |
| DL1NUX | 2026-08-31 07:37:23 | 50.04016 | 8.52137 | 60° | 106km/h | 13307m | 4.4m/s | 0°C | 0% | 0hPa | 0V | 00:00:00 | 00:00:00 | 00:00:00 | |
| BIOWL1-15 | 2026-08-31 07:37:23 | 50.04067 | 8.52281 | 60° | 102km/h | 13332m | 5.9m/s | -47.6°C | 0% | 0hPa | 4.3V | 00:00:00 | 00:00:00 | 00:00:00 | |
| DO3DL | 2026-08-31 07:37:22 | 50.04067 | 8.52281 | 61° | 102km/h | 13332m | 5.9m/s | -47.6°C | 0% | 0hPa | 4.3V | 00:00:00 | 00:00:00 | 00:00:00 | |
| HEMX73-11 | 2026-08-31 07:37:21 | 50.04054 | 8.52246 | 60° | 100km/h | 13327m | 3.9m/s | -47.6°C | 0% | 0hPa | 4.3V | 00:00:00 | 00:00:00 | 00:00:00 | |
| DL1XH-west | 2026-08-31 07:37:20 | 50.04041 | 8.52211 | 62° | 104km/h | 13322m | 5.7m/s | -47.6°C | 0% | 0hPa | 4.3V | 00:00:00 | 00:00:00 | 00:00:00 | |
| DL3AQ-11 | 2026-08-31 07:37:20 | 50.04029 | 8.52174 | 63° | 108km/h | 13317m | 4.1m/s | -47.5°C | -1.0% | -1.0hPa | 0V | 00:00:00 | 00:00:00 | 00:00:00 | |
| THATR2-17 | 2026-08-31 07:37:19 | 50.03722 | 8.51366 | 58° | 106km/h | 13210m | 0m/s | 0°C | 0% | 0hPa | 0V | 00:00:00 | 00:00:00 | 00:00:00 | |
| DM0DOS-11 | 2026-08-31 07:37:18 | 50.03951 | 8.51965 | 58° | 104km/h | 13284m | 4.9m/s | 0°C | 0% | 0hPa | 0V | 00:00:00 | 00:00:00 | 00:00:00 | |
| DO3DL | 2026-08-31 07:37:15 | 50.03977 | 8.52034 | 62° | 102km/h | 13298m | 4.0m/s | -47.4°C | 0% | 0hPa | 4.3V | 00:00:00 | 00:00:00 | 00:00:00 | |
| DK7TD | 2026-08-31 07:37:14 | 50.03951 | 8.51965 | 59° | 104km/h | 13289m | 4.8m/s | -47.3°C | 0% | 0hPa | 4.3V | 00:00:00 | 00:00:00 | 00:00:00 | |
| DF1GD-15 | 2026-08-31 07:37:13 | 50.03951 | 8.51964 | 60° | 104km/h | 13289m | 4.8m/s | -47.3°C | 0% | 0hPa | 4.3V | 00:00:00 | 00:00:00 | 00:00:00 | |
| BIOWL1-15 | 2026-08-31 07:37:12 | 50.03925 | 8.51891 | 61° | 106km/h | 13279m | 5.2m/s | -47.3°C | 0% | 0hPa | 4.3V | 00:00:00 | 00:00:00 | 00:00:00 | |
| DF2AP-13 | 2026-08-31 07:37:11 | 50.03925 | 8.51891 | 62° | 104km/h | 13274m | 4.6m/s | 0°C | 0% | 0hPa | 4.3V | 00:00:00 | 00:00:00 | 00:00:00 | |
| DO3MHA-11 | 2026-08-31 07:37:10 | 50.03912 | 8.51856 | 59° | 102km/h | 13269m | 5.3m/s | 0°C | 0% | 0hPa | 4.3V | 00:00:00 | 00:00:00 | 00:00:00 | |
| DL1XH-west | 2026-08-31 07:37:09 | 50.03899 | 8.51823 | 59° | 100km/h | 13269m | 5.4m/s | -47.2°C | 0% | 0hPa | 4.3V | 00:00:00 | 00:00:00 | 00:00:00 | |
| DB0NH | 2026-08-31 07:37:09 | 50.03899 | 8.51823 | 59° | 104km/h | 13264m | 3.6m/s | 0°C | 0% | 0hPa | 0V | 00:00:00 | 00:00:00 | 00:00:00 | |
| DM0DOS-11 | 2026-08-31 07:37:08 | 50.03819 | 8.51610 | 56° | 108km/h | 13236m | 3.5m/s | 0°C | 0% | 0hPa | 0V | 00:00:00 | 00:00:00 | 00:00:00 | |
| DB0UT-7 | 2026-08-31 07:37:06 | 50.03859 | 8.51724 | 63° | 104km/h | 13250m | 6.0m/s | 0°C | 0% | 0hPa | 4.3V | 00:00:00 | 00:00:00 | 00:00:00 | |
| CB1BUN | 2026-08-31 07:37:05 | 50.03833 | 8.51647 | 63° | 113km/h | 13245m | 3.8m/s | -47.1°C | 0% | 0hPa | 4.3V | 00:00:00 | 00:00:00 | 00:00:00 | |
| DK7TD | 2026-08-31 07:37:04 | 50.03819 | 8.51610 | 57° | 108km/h | 13241m | 5.4m/s | -47.1°C | 0% | 0hPa | 4.3V | 00:00:00 | 00:00:00 | 00:00:00 | |
| DL1NUX | 2026-08-31 07:37:03 | 50.03750 | 8.51438 | 59° | 106km/h | 13214m | 4.6m/s | 0°C | 0% | 0hPa | 0V | 00:00:00 | 00:00:00 | 00:00:00 | |
| DO3DL | 2026-08-31 07:37:02 | 50.03804 | 8.51577 | 53° | 99km/h | 13237m | 3.5m/s | -47.0°C | 0% | 0hPa | 4.3V | 00:00:00 | 00:00:00 | 00:00:00 | |
| BIOWL1-15 | 2026-08-31 07:37:01 | 50.03776 | 8.51512 | 62° | 106km/h | 13228m | 4.4m/s | -47°C | 0% | 0hPa | 4.3V | 00:00:00 | 00:00:00 | 00:00:00 | |
| DO3MHA-11 | 2026-08-31 07:37:00 | 50.03775 | 8.51512 | 63° | 106km/h | 13223m | 4.3m/s | 0°C | 0% | 0hPa | 0V | 00:00:00 | 00:00:00 | 00:00:00 | |
| DM0DOS-11 | 2026-08-31 07:36:58 | 50.03680 | 8.51266 | 65° | 100km/h | 13192m | 5m/s | 0°C | 0% | 0hPa | 0V | 00:00:00 | 00:00:00 | 00:00:00 | |
| SO1NDE-10 | 2026-08-31 07:36:56 | 50.03721 | 8.51366 | 59° | 104km/h | 13205m | 4.8m/s | 0°C | 0% | 0hPa | 4.3V | 00:00:00 | 00:00:00 | 00:00:00 | |
| NBG1-10 | 2026-08-31 07:36:55 | 50.03707 | 8.51331 | 56° | 104km/h | 13201m | 3.6m/s | 0°C | 0% | 0hPa | 4.3V | 00:00:00 | 00:00:00 | 00:00:00 | |
| DK7TD | 2026-08-31 07:36:53 | 50.03680 | 8.51264 | 61° | 100km/h | 13197m | 4.4m/s | -46.9°C | 0% | 0hPa | 4.3V | 00:00:00 | 00:00:00 | 00:00:00 | |
| DL1NUX | 2026-08-31 07:36:53 | 50.03615 | 8.51087 | 58° | 99km/h | 13170m | 3.8m/s | 0°C | 0% | 0hPa | 0V | 00:00:00 | 00:00:00 | 00:00:00 | |
| DL1XH-west | 2026-08-31 07:36:51 | 50.03643 | 8.51152 | 57° | 104km/h | 13184m | 5m/s | -46.9°C | 0% | 0hPa | 4.3V | 00:00:00 | 00:00:00 | 00:00:00 | |
| DO3MHA-11 | 2026-08-31 07:36:50 | 50.03643 | 8.51152 | 58° | 102km/h | 13179m | 4.1m/s | 0°C | 0% | 0hPa | 0V | 00:00:00 | 00:00:00 | 00:00:00 | |
| DO3DL | 2026-08-31 07:36:49 | 50.03629 | 8.51119 | 56° | 99km/h | 13179m | 4.1m/s | -46.9°C | 0% | 0hPa | 0V | 00:00:00 | 00:00:00 | 00:00:00 | |
| DM0DOS-11 | 2026-08-31 07:36:48 | 50.03553 | 8.50909 | 62° | 102km/h | 13147m | 5.3m/s | 0°C | 0% | 0hPa | 0V | 00:00:00 | 00:00:00 | 00:00:00 | |
| CB1BUN | 2026-08-31 07:36:43 | 50.03553 | 8.50909 | 63° | 102km/h | 13152m | 4.0m/s | -46.8°C | 0% | 0hPa | 4.3V | 00:00:00 | 00:00:00 | 00:00:00 | |
| DK7TD | 2026-08-31 07:36:42 | 50.03528 | 8.50841 | 59° | 99km/h | 13142m | 3.4m/s | -46.7°C | 0% | 0hPa | 4.3V | 00:00:00 | 00:00:00 | 00:00:00 | |
| DF2AP-13 | 2026-08-31 07:36:41 | 50.03528 | 8.50841 | 59° | 104km/h | 13137m | 5.4m/s | 0°C | 0% | 0hPa | 0V | 00:00:00 | 00:00:00 | 00:00:00 | |
| DO3MHA-11 | 2026-08-31 07:36:40 | 50.03515 | 8.50808 | 69° | 104km/h | 13133m | 4.0m/s | 0°C | 0% | 0hPa | 0V | 00:00:00 | 00:00:00 | 00:00:00 | |
| BIOWL1-15 | 2026-08-31 07:36:40 | 50.03504 | 8.50769 | 68° | 106km/h | 13132m | 4m/s | -46.7°C | 0% | 0hPa | 4.3V | 00:00:00 | 00:00:00 | 00:00:00 | |
| DB0NH | 2026-08-31 07:36:39 | 50.03504 | 8.50769 | 69° | 106km/h | 13128m | 4.6m/s | 0°C | 0% | 0hPa | 0V | 00:00:00 | 00:00:00 | 00:00:00 | |
| DM0DOS-11 | 2026-08-31 07:36:38 | 50.03433 | 8.50548 | 62° | 106km/h | 13103m | 3.5m/s | 0°C | 0% | 0hPa | 0V | 00:00:00 | 00:00:00 | 00:00:00 | |
| DB0UT-7 | 2026-08-31 07:36:36 | 50.03468 | 8.50659 | 61° | 106km/h | 13116m | 4.5m/s | 0°C | 0% | 0hPa | 0V | 00:00:00 | 00:00:00 | 00:00:00 | |
| DL1NUX | 2026-08-31 07:36:33 | 50.03377 | 8.50366 | 61° | 110km/h | 13082m | 5.2m/s | 0°C | 0% | 0hPa | 0V | 00:00:00 | 00:00:00 | 00:00:00 | |
| DK7TD | 2026-08-31 07:36:32 | 50.03410 | 8.50475 | 66° | 100km/h | 13098m | 4.8m/s | -46.5°C | 0% | 0hPa | 4.3V | 00:00:00 | 00:00:00 | 00:00:00 | |
| DO3MHA-11 | 2026-08-31 07:36:30 | 50.03400 | 8.50439 | 68° | 106km/h | 13091m | 4.9m/s | 0°C | 0% | 0hPa | 4.3V | 00:00:00 | 00:00:00 | 00:00:00 | |
| BIOWL1-15 | 2026-08-31 07:36:29 | 50.03377 | 8.50366 | 62° | 110km/h | 13087m | 3.2m/s | -46.4°C | 0% | 0hPa | 4.3V | 00:00:00 | 00:00:00 | 00:00:00 | |
| DM0DOS-11 | 2026-08-31 07:36:28 | 50.03324 | 8.50178 | 66° | 102km/h | 13059m | 3.1m/s | 0°C | 0% | 0hPa | 0V | 00:00:00 | 00:00:00 | 00:00:00 | |
| DO3DL | 2026-08-31 07:36:24 | 50.03335 | 8.50213 | 64° | 102km/h | 13068m | 3.8m/s | -46.3°C | 0% | 0hPa | 0V | 00:00:00 | 00:00:00 | 00:00:00 | |
| DL1NUX | 2026-08-31 07:36:23 | 50.03269 | 8.49985 | 65° | 106km/h | 13038m | 4.3m/s | 0°C | 0% | 0hPa | 0V | 00:00:00 | 00:00:00 | 00:00:00 | |
| NBG1-10 | 2026-08-31 07:36:22 | 50.03313 | 8.50140 | 67° | 110km/h | 13055m | 5.4m/s | 0°C | 0% | 0hPa | 4.3V | 00:00:00 | 00:00:00 | 00:00:00 | |
| DK7TD | 2026-08-31 07:36:21 | 50.03290 | 8.50063 | 64° | 108km/h | 13051m | 3.9m/s | -46.1°C | 0% | 0hPa | 4.3V | 00:00:00 | 00:00:00 | 00:00:00 | |
| DO3MHA-11 | 2026-08-31 07:36:20 | 50.03290 | 8.50063 | 65° | 106km/h | 13046m | 4.9m/s | 0°C | 0% | 0hPa | 0V | 00:00:00 | 00:00:00 | 00:00:00 | |
| HEMX73-11 | 2026-08-31 07:36:19 | 50.03279 | 8.50025 | 70° | 106km/h | 13046m | 4.9m/s | -46.1°C | 0% | 0hPa | 0V | 00:00:00 | 00:00:00 | 00:00:00 | |
| DM0DOS-11 | 2026-08-31 07:36:18 | 50.03217 | 8.49794 | 65° | 102km/h | 13016m | 5.2m/s | 0°C | 0% | 0hPa | 0V | 00:00:00 | 00:00:00 | 00:00:00 | |
| BIOWL1-15 | 2026-08-31 07:36:18 | 50.03259 | 8.49947 | 66° | 106km/h | 13038m | 4.3m/s | -46°C | 0% | 0hPa | 4.3V | 00:00:00 | 00:00:00 | 00:00:00 | |
| THATR2-17 | 2026-08-31 07:36:17 | 50.02965 | 8.48777 | 65° | 115km/h | 12920m | 0m/s | 0°C | 0% | 0hPa | 4.3V | 00:00:00 | 00:00:00 | 00:00:00 | |
| KANTATE | 2026-08-31 07:36:15 | 50.03238 | 8.49871 | 70° | 108km/h | 13029m | 4.3m/s | -46.0°C | 0% | 0hPa | 4.3V | 00:00:00 | 00:00:00 | 00:00:00 | |
| DF1GD-15 | 2026-08-31 07:36:12 | 50.03206 | 8.49757 | 70° | 104km/h | 13016m | 5.2m/s | -46.0°C | 0% | 0hPa | 4.3V | 00:00:00 | 00:00:00 | 00:00:00 | |
| DF2AP-13 | 2026-08-31 07:36:11 | 50.03198 | 8.49718 | 73° | 113km/h | 13008m | 4.8m/s | 0°C | 0% | 0hPa | 4.3V | 00:00:00 | 00:00:00 | 00:00:00 | |
| DK7TD | 2026-08-31 07:36:10 | 50.03179 | 8.49640 | 65° | 106km/h | 13003m | 3.8m/s | -46°C | 0% | 0hPa | 4.3V | 00:00:00 | 00:00:00 | 00:00:00 | |
| DB0NH | 2026-08-31 07:36:09 | 50.03179 | 8.49640 | 65° | 113km/h | 12999m | 4.5m/s | 0°C | 0% | 0hPa | 4.3V | 00:00:00 | 00:00:00 | 00:00:00 | |
| BIOWL1-15 | 2026-08-31 07:36:07 | 50.03158 | 8.49564 | 71° | 108km/h | 12995m | 3.8m/s | -46°C | 0% | 0hPa | 4.3V | 00:00:00 | 00:00:00 | 00:00:00 | |
| DB0UT-7 | 2026-08-31 07:36:06 | 50.03149 | 8.49524 | 70° | 115km/h | 12987m | 3.4m/s | 0°C | 0% | 0hPa | 4.3V | 00:00:00 | 00:00:00 | 00:00:00 | |
| DL1XH-west | 2026-08-31 07:36:05 | 50.03129 | 8.49444 | 70° | 110km/h | 12983m | 4.8m/s | -46°C | 0% | 0hPa | 4.3V | 00:00:00 | 00:00:00 | 00:00:00 | |
| DO3DL | 2026-08-31 07:36:04 | 50.03129 | 8.49443 | 71° | 110km/h | 12983m | 4.8m/s | -46.0°C | 0% | 0hPa | 4.4V | 00:00:00 | 00:00:00 | 00:00:00 | |
| CB1BUN | 2026-08-31 07:36:02 | 50.03112 | 8.49363 | 72° | 106km/h | 12974m | 3.9m/s | -46.1°C | 0% | 0hPa | 4.4V | 00:00:00 | 00:00:00 | 00:00:00 | |
| DO3MHA-11 | 2026-08-31 07:36:00 | 50.03090 | 8.49286 | 66° | 115km/h | 12962m | 4.4m/s | 0°C | 0% | 0hPa | 4.4V | 00:00:00 | 00:00:00 | 00:00:00 | |
| DK7TD | 2026-08-31 07:35:59 | 50.03080 | 8.49244 | 72° | 113km/h | 12962m | 4.5m/s | -46.2°C | 0% | 0hPa | 4.4V | 00:00:00 | 00:00:00 | 00:00:00 | |
| BIOWL1-15 | 2026-08-31 07:35:59 | 50.03053 | 8.49115 | 67° | 113km/h | 12950m | 3.3m/s | -46.3°C | 0% | 0hPa | 4.4V | 00:00:00 | 00:00:00 | 00:00:00 | |
| DO3DL | 2026-08-31 07:35:58 | 50.03072 | 8.49201 | 76° | 117km/h | 12958m | 3.5m/s | -46.2°C | 0% | 0hPa | 0V | 00:00:00 | 00:00:00 | 00:00:00 | |
| DM0DOS-11 | 2026-08-31 07:35:57 | 50.03009 | 8.48952 | 66° | 119km/h | 12930m | 4.6m/s | 0°C | 0% | 0hPa | 0V | 00:00:00 | 00:00:00 | 00:00:00 | |
| SO1NDE-10 | 2026-08-31 07:35:56 | 50.03053 | 8.49115 | 68° | 117km/h | 12946m | 4.3m/s | 0°C | 0% | 0hPa | 0V | 00:00:00 | 00:00:00 | 00:00:00 | |
| DL1NUX | 2026-08-31 07:35:53 | 50.02964 | 8.48779 | 68° | 115km/h | 12916m | 4.2m/s | 0°C | 0% | 0hPa | 0V | 00:00:00 | 00:00:00 | 00:00:00 | |
| DO3DL | 2026-08-31 07:35:51 | 50.02997 | 8.48908 | 72° | 122km/h | 12930m | 4.6m/s | -46.4°C | 0% | 0hPa | 4.4V | 00:00:00 | 00:00:00 | 00:00:00 | |
| DO3MHA-11 | 2026-08-31 07:35:50 | 50.02988 | 8.48861 | 67° | 119km/h | 12923m | 4.0m/s | 0°C | 0% | 0hPa | 4.4V | 00:00:00 | 00:00:00 | 00:00:00 | |
| NBG1-10 | 2026-08-31 07:35:49 | 50.02977 | 8.48819 | 67° | 117km/h | 12920m | 2.5m/s | 0°C | 0% | 0hPa | 4.4V | 00:00:00 | 00:00:00 | 00:00:00 | |
| DD1CC8 | 2026-08-31 07:35:48 | 50.02953 | 8.48735 | 68° | 117km/h | 12916m | 4.2m/s | -46.4°C | -1.0% | -1.0hPa | 4.4V | 00:00:00 | 00:00:00 | 00:00:00 | |
| DL3AQ-11 | 2026-08-31 07:35:47 | 50.02942 | 8.48692 | 70° | 119km/h | 12912m | 3.7m/s | -46.3°C | -1.0% | -1.0hPa | 4.4V | 00:00:00 | 00:00:00 | 00:00:00 | |
| THATR2-17 | 2026-08-31 07:35:46 | 50.02932 | 8.48648 | 68° | 119km/h | 12909m | 0m/s | 0°C | 0% | 0hPa | 4.4V | 00:00:00 | 00:00:00 | 00:00:00 | |
| BIOWL1-15 | 2026-08-31 07:35:45 | 50.02932 | 8.48648 | 69° | 119km/h | 12909m | 4.2m/s | -46.3°C | 0% | 0hPa | 4.4V | 00:00:00 | 00:00:00 | 00:00:00 | |
| DO3DL | 2026-08-31 07:35:45 | 50.02932 | 8.48647 | 70° | 119km/h | 12909m | 4.2m/s | -46.3°C | 0% | 0hPa | 0V | 00:00:00 | 00:00:00 | 00:00:00 | |
| DL1NUX | 2026-08-31 07:35:43 | 50.02853 | 8.48348 | 72° | 117km/h | 12878m | 4.4m/s | 0°C | 0% | 0hPa | 0V | 00:00:00 | 00:00:00 | 00:00:00 | |
| DM0DOS-11 | 2026-08-31 07:35:42 | 50.02900 | 8.48518 | 63° | 117km/h | 12894m | 4.7m/s | 0°C | 0% | 0hPa | 0V | 00:00:00 | 00:00:00 | 00:00:00 | |
| DF2AP-13 | 2026-08-31 07:35:41 | 50.02888 | 8.48476 | 64° | 117km/h | 12890m | 3.3m/s | 0°C | 0% | 0hPa | 0V | 00:00:00 | 00:00:00 | 00:00:00 | |
| DO3MHA-11 | 2026-08-31 07:35:40 | 50.02875 | 8.48434 | 64° | 117km/h | 12886m | 4.2m/s | 0°C | 0% | 0hPa | 0V | 00:00:00 | 00:00:00 | 00:00:00 | |
| DO3DL | 2026-08-31 07:35:39 | 50.02853 | 8.48347 | 74° | 117km/h | 12882m | 2.9m/s | -46.3°C | 0% | 0hPa | 0V | 00:00:00 | 00:00:00 | 00:00:00 | |
| HEMX73-11 | 2026-08-31 07:35:38 | 50.02853 | 8.48347 | 74° | 117km/h | 12882m | 2.9m/s | -46.3°C | 0% | 0hPa | 0V | 00:00:00 | 00:00:00 | 00:00:00 | |
| DM0DOS-11 | 2026-08-31 07:35:37 | 50.02787 | 8.48094 | 68° | 119km/h | 12855m | 4.4m/s | 0°C | 0% | 0hPa | 0V | 00:00:00 | 00:00:00 | 00:00:00 | |
| DB0UT-7 | 2026-08-31 07:35:36 | 50.02833 | 8.48265 | 68° | 119km/h | 12871m | 4.0m/s | 0°C | 0% | 0hPa | 4.4V | 00:00:00 | 00:00:00 | 00:00:00 | |
| BIOWL1-15 | 2026-08-31 07:35:35 | 50.02811 | 8.48181 | 68° | 120km/h | 12867m | 3.7m/s | -46.3°C | 0% | 0hPa | 4.4V | 00:00:00 | 00:00:00 | 00:00:00 | |
| DL1NUX | 2026-08-31 07:35:33 | 50.02747 | 8.47924 | 64° | 119km/h | 12840m | 4m/s | 0°C | 0% | 0hPa | 0V | 00:00:00 | 00:00:00 | 00:00:00 | |
| DO3DL | 2026-08-31 07:35:32 | 50.02787 | 8.48094 | 69° | 119km/h | 12859m | 3.5m/s | -46.3°C | 0% | 0hPa | 4.4V | 00:00:00 | 00:00:00 | 00:00:00 | |
| DL1XH-west | 2026-08-31 07:35:31 | 50.02769 | 8.48007 | 72° | 115km/h | 12851m | 3.8m/s | -46.2°C | 0% | 0hPa | 4.4V | 00:00:00 | 00:00:00 | 00:00:00 | |
| DO3MHA-11 | 2026-08-31 07:35:30 | 50.02769 | 8.48007 | 73° | 119km/h | 12847m | 4.1m/s | 0°C | 0% | 0hPa | 4.4V | 00:00:00 | 00:00:00 | 00:00:00 | |
| DO2KSM | 2026-08-31 07:35:29 | 50.02759 | 8.47966 | 68° | 113km/h | 12847m | 4.1m/s | -46.2°C | 0% | 0hPa | 4.4V | 00:00:00 | 00:00:00 | 00:00:00 | |
| SO1NDE-10 | 2026-08-31 07:35:26 | 50.02724 | 8.47834 | 73° | 119km/h | 12833m | 4.6m/s | 0°C | 0% | 0hPa | 4.4V | 00:00:00 | 00:00:00 | 00:00:00 | |
| BIOWL1-15 | 2026-08-31 07:35:25 | 50.02706 | 8.47749 | 70° | 108km/h | 12828m | 3.4m/s | -46.2°C | 0% | 0hPa | 4.4V | 00:00:00 | 00:00:00 | 00:00:00 | |
| DM0DOS-11 | 2026-08-31 07:35:22 | 50.02685 | 8.47663 | 65° | 124km/h | 12817m | 4.7m/s | 0°C | 0% | 0hPa | 0V | 00:00:00 | 00:00:00 | 00:00:00 | |
| DL1NUX | 2026-08-31 07:35:22 | 50.02631 | 8.47446 | 69° | 111km/h | 12799m | 4.1m/s | 0°C | 0% | 0hPa | 0V | 00:00:00 | 00:00:00 | 00:00:00 | |
| CB1BUN | 2026-08-31 07:35:22 | 50.02673 | 8.47619 | 67° | 124km/h | 12818m | 4.7m/s | -46.2°C | 0% | 0hPa | 4.4V | 00:00:00 | 00:00:00 | 00:00:00 | |
| DL1XH-west | 2026-08-31 07:35:20 | 50.02649 | 8.47531 | 71° | 119km/h | 12810m | 4.5m/s | -46.2°C | 0% | 0hPa | 4.4V | 00:00:00 | 00:00:00 | 00:00:00 | |
| DO3DL | 2026-08-31 07:35:19 | 50.02649 | 8.47531 | 72° | 119km/h | 12810m | 4.5m/s | -46.2°C | 0% | 0hPa | 4.4V | 00:00:00 | 00:00:00 | 00:00:00 | |
| HEMX73-11 | 2026-08-31 07:35:18 | 50.02640 | 8.47488 | 74° | 115km/h | 12806m | 3.5m/s | -46.2°C | 0% | 0hPa | 4.4V | 00:00:00 | 00:00:00 | 00:00:00 | |
| NBG1-10 | 2026-08-31 07:35:16 | 50.02621 | 8.47406 | 69° | 122km/h | 12795m | 3.6m/s | 0°C | 0% | 0hPa | 4.4V | 00:00:00 | 00:00:00 | 00:00:00 | |
| BIOWL1-15 | 2026-08-31 07:35:13 | 50.02585 | 8.47274 | 65° | 120km/h | 12787m | 2.5m/s | -46.3°C | 0% | 0hPa | 4.4V | 00:00:00 | 00:00:00 | 00:00:00 | |
| DO3DL | 2026-08-31 07:35:13 | 50.02573 | 8.47232 | 70° | 117km/h | 12784m | 4.9m/s | -46.3°C | 0% | 0hPa | 0V | 00:00:00 | 00:00:00 | 00:00:00 | |
| DL8DAS-15 | 2026-08-31 07:35:12 | 50.02573 | 8.47232 | 70° | 117km/h | 12784m | 4.9m/s | -46.3°C | 0% | 0hPa | 0V | 00:00:00 | 00:00:00 | 00:00:00 | |
| DO3MHA-11 | 2026-08-31 07:35:10 | 50.02555 | 8.47145 | 71° | 119km/h | 12772m | 3.6m/s | 0°C | 0% | 0hPa | 0V | 00:00:00 | 00:00:00 | 00:00:00 | |
| DB0NH | 2026-08-31 07:35:09 | 50.02544 | 8.47106 | 65° | 124km/h | 12767m | 4.9m/s | 0°C | 0% | 0hPa | 0V | 00:00:00 | 00:00:00 | 00:00:00 | |
| DL1XH-west | 2026-08-31 07:35:09 | 50.02531 | 8.47061 | 65° | 124km/h | 12767m | 4.9m/s | -46.4°C | 0% | 0hPa | 4.4V | 00:00:00 | 00:00:00 | 00:00:00 | |
| DO2KSM | 2026-08-31 07:35:08 | 50.02531 | 8.47061 | 66° | 124km/h | 12767m | 4.9m/s | -46.4°C | 0% | 0hPa | 0V | 00:00:00 | 00:00:00 | 00:00:00 | |
| DM0DOS-11 | 2026-08-31 07:35:07 | 50.02460 | 8.46803 | 65° | 122km/h | 12740m | 4.2m/s | 0°C | 0% | 0hPa | 0V | 00:00:00 | 00:00:00 | 00:00:00 | |
| BIOWL1-15 | 2026-08-31 07:35:03 | 50.02460 | 8.46803 | 65° | 122km/h | 12744m | 4.6m/s | -46.7°C | 0% | 0hPa | 4.4V | 00:00:00 | 00:00:00 | 00:00:00 | |
| CB1BUN | 2026-08-31 07:35:01 | 50.02445 | 8.46760 | 60° | 126km/h | 12740m | 4.2m/s | -46.7°C | 0% | 0hPa | 4.4V | 00:00:00 | 00:00:00 | 00:00:00 | |
| DO3MHA-11 | 2026-08-31 07:35:00 | 50.02429 | 8.46718 | 61° | 124km/h | 12732m | 4.1m/s | 0°C | 0% | 0hPa | 4.4V | 00:00:00 | 00:00:00 | 00:00:00 | |
| DL1XH-west | 2026-08-31 07:34:59 | 50.02405 | 8.46632 | 71° | 113km/h | 12728m | 3.4m/s | -46.8°C | 0% | 0hPa | 4.4V | 00:00:00 | 00:00:00 | 00:00:00 | |
| DM0DOS-11 | 2026-08-31 07:34:57 | 50.02326 | 8.46367 | 60° | 133km/h | 12701m | 2.8m/s | 0°C | 0% | 0hPa | 0V | 00:00:00 | 00:00:00 | 00:00:00 | |
| DK7TD | 2026-08-31 07:34:57 | 50.02382 | 8.46550 | 62° | 119km/h | 12721m | 3.9m/s | 0°C | 0% | 0hPa | 0V | 00:00:00 | 00:00:00 | 00:00:00 | |
| SO1NDE-10 | 2026-08-31 07:34:56 | 50.02382 | 8.46550 | 63° | 128km/h | 12717m | 5.0m/s | 0°C | 0% | 0hPa | 4.4V | 00:00:00 | 00:00:00 | 00:00:00 | |
| DN1GJH-1 | 2026-08-31 07:34:55 | 50.02368 | 8.46507 | 64° | 126km/h | 12717m | 5.0m/s | -47.0°C | 0% | 0hPa | 4.4V | 00:00:00 | 00:00:00 | 00:00:00 | |
| BIOWL1-15 | 2026-08-31 07:34:54 | 50.02310 | 8.46323 | 61° | 128km/h | 12701m | 2.8m/s | -47°C | 0% | 0hPa | 4.4V | 00:00:00 | 00:00:00 | 00:00:00 | |
| DO3DL | 2026-08-31 07:34:53 | 50.02341 | 8.46414 | 67° | 131km/h | 12709m | 3.0m/s | -47.1°C | 0% | 0hPa | 0V | 00:00:00 | 00:00:00 | 00:00:00 | |
| DL1NUX | 2026-08-31 07:34:52 | 50.02255 | 8.46142 | 61° | 133km/h | 12684m | 3.8m/s | 0°C | 0% | 0hPa | 0V | 00:00:00 | 00:00:00 | 00:00:00 | |
| BEGRI65-1 | 2026-08-31 07:34:51 | 50.02310 | 8.46323 | 62° | 128km/h | 12701m | 2.8m/s | -47.0°C | 0% | 0hPa | 4.4V | 00:00:00 | 00:00:00 | 00:00:00 | |
| DF1GD-15 | 2026-08-31 07:34:50 | 50.02296 | 8.46279 | 66° | 124km/h | 12698m | 3.8m/s | -47.0°C | 0% | 0hPa | 4.4V | 00:00:00 | 00:00:00 | 00:00:00 | |
| DO3MHA-11 | 2026-08-31 07:34:49 | 50.02283 | 8.46235 | 68° | 128km/h | 12692m | 4.1m/s | 0°C | 0% | 0hPa | 4.4V | 00:00:00 | 00:00:00 | 00:00:00 | |
| DL1XH-west | 2026-08-31 07:34:48 | 50.02255 | 8.46142 | 62° | 133km/h | 12688m | 3m/s | -47°C | 0% | 0hPa | 4.4V | 00:00:00 | 00:00:00 | 00:00:00 | |
| DM0DOS-11 | 2026-08-31 07:34:47 | 50.02180 | 8.45922 | 68° | 126km/h | 12666m | 4m/s | 0°C | 0% | 0hPa | 0V | 00:00:00 | 00:00:00 | 00:00:00 | |
| NBG1-10 | 2026-08-31 07:34:43 | 50.02193 | 8.45966 | 64° | 128km/h | 12670m | 2.9m/s | 0°C | 0% | 0hPa | 0V | 00:00:00 | 00:00:00 | 00:00:00 | |
| DL1NUX | 2026-08-31 07:34:42 | 50.02103 | 8.45700 | 61° | 120km/h | 12649m | 3.7m/s | 0°C | 0% | 0hPa | 0V | 00:00:00 | 00:00:00 | 00:00:00 | |
| BIOWL1-15 | 2026-08-31 07:34:41 | 50.02152 | 8.45830 | 59° | 135km/h | 12662m | 3.5m/s | -47°C | 0% | 0hPa | 4.4V | 00:00:00 | 00:00:00 | 00:00:00 | |
| DO3DL | 2026-08-31 07:34:41 | 50.02152 | 8.45830 | 60° | 135km/h | 12663m | 3.5m/s | -47.0°C | 0% | 0hPa | 0V | 00:00:00 | 00:00:00 | 00:00:00 | |
| DO3MHA-11 | 2026-08-31 07:34:39 | 50.02134 | 8.45784 | 62° | 126km/h | 12655m | 3.1m/s | 0°C | 0% | 0hPa | 0V | 00:00:00 | 00:00:00 | 00:00:00 | |
| DL1XH-west | 2026-08-31 07:34:38 | 50.02103 | 8.45699 | 63° | 120km/h | 12652m | 3m/s | -47°C | 0% | 0hPa | 0V | 00:00:00 | 00:00:00 | 00:00:00 | |
| DM0DOS-11 | 2026-08-31 07:34:37 | 50.02029 | 8.45476 | 59° | 128km/h | 12632m | 3m/s | 0°C | 0% | 0hPa | 0V | 00:00:00 | 00:00:00 | 00:00:00 | |
| DB0UT-7 | 2026-08-31 07:34:36 | 50.02089 | 8.45656 | 62° | 128km/h | 12646m | 3.1m/s | 0°C | 0% | 0hPa | 4.4V | 00:00:00 | 00:00:00 | 00:00:00 | |
| DO3DL | 2026-08-31 07:34:35 | 50.02059 | 8.45567 | 66° | 131km/h | 12642m | 4.1m/s | -47.0°C | 0% | 0hPa | 4.4V | 00:00:00 | 00:00:00 | 00:00:00 | |
| BIOWL1-15 | 2026-08-31 07:34:33 | 50.01996 | 8.45394 | 59° | 119km/h | 12628m | 4.3m/s | -47.3°C | 0% | 0hPa | 4.4V | 00:00:00 | 00:00:00 | 00:00:00 | |
| DL1NUX | 2026-08-31 07:34:32 | 50.01953 | 8.45265 | 61° | 128km/h | 12614m | 4.7m/s | 0°C | 0% | 0hPa | 0V | 00:00:00 | 00:00:00 | 00:00:00 | |
| BEGRI65-1 | 2026-08-31 07:34:31 | 50.02012 | 8.45434 | 57° | 122km/h | 12632m | 3.0m/s | -47.3°C | 0% | 0hPa | 0V | 00:00:00 | 00:00:00 | 00:00:00 | |
| DF1GD-15 | 2026-08-31 07:34:30 | 50.01981 | 8.45353 | 65° | 122km/h | 12625m | 2.7m/s | -47.3°C | 0% | 0hPa | 0V | 00:00:00 | 00:00:00 | 00:00:00 | |
| DO3MHA-11 | 2026-08-31 07:34:29 | 50.01981 | 8.45353 | 65° | 128km/h | 12621m | 4.0m/s | 0°C | 0% | 0hPa | 0V | 00:00:00 | 00:00:00 | 00:00:00 | |
| DM0DOS-11 | 2026-08-31 07:34:27 | 50.01874 | 8.45047 | 67° | 128km/h | 12596m | 3.4m/s | 0°C | 0% | 0hPa | 0V | 00:00:00 | 00:00:00 | 00:00:00 | |
| SO1NDE-10 | 2026-08-31 07:34:26 | 50.01937 | 8.45219 | 63° | 131km/h | 12611m | 2.9m/s | 0°C | 0% | 0hPa | 0V | 00:00:00 | 00:00:00 | 00:00:00 | |
| DL1NUX | 2026-08-31 07:34:22 | 50.01800 | 8.44822 | 62° | 130km/h | 12574m | 2.6m/s | 0°C | 0% | 0hPa | 0V | 00:00:00 | 00:00:00 | 00:00:00 | |
| BIOWL1-15 | 2026-08-31 07:34:22 | 50.01832 | 8.44910 | 60° | 128km/h | 12588m | 3m/s | -47.4°C | 0% | 0hPa | 4.4V | 00:00:00 | 00:00:00 | 00:00:00 | |
| DH7VM-15 | 2026-08-31 07:34:20 | 50.01832 | 8.44910 | 61° | 128km/h | 12589m | 3.0m/s | -47.4°C | 0% | 0hPa | 0V | 00:00:00 | 00:00:00 | 00:00:00 | |
| DO3MHA-11 | 2026-08-31 07:34:19 | 50.01832 | 8.44910 | 61° | 130km/h | 12585m | 4.4m/s | 0°C | 0% | 0hPa | 0V | 00:00:00 | 00:00:00 | 00:00:00 | |
| DM0DOS-11 | 2026-08-31 07:34:17 | 50.01727 | 8.44594 | 63° | 131km/h | 12558m | 2.9m/s | 0°C | 0% | 0hPa | 0V | 00:00:00 | 00:00:00 | 00:00:00 | |
| HEMX73-11 | 2026-08-31 07:34:17 | 50.01785 | 8.44777 | 63° | 128km/h | 12577m | 4.1m/s | -47.4°C | 0% | 0hPa | 4.4V | 00:00:00 | 00:00:00 | 00:00:00 | |
| DO3DL | 2026-08-31 07:34:15 | 50.01755 | 8.44688 | 65° | 130km/h | 12570m | 5.0m/s | -47.4°C | 0% | 0hPa | 4.4V | 00:00:00 | 00:00:00 | 00:00:00 | |
| DN1GJH-1 | 2026-08-31 07:34:14 | 50.01755 | 8.44688 | 65° | 130km/h | 12570m | 5.0m/s | -47.4°C | 0% | 0hPa | 4.4V | 00:00:00 | 00:00:00 | 00:00:00 | |
| DF2AP-13 | 2026-08-31 07:34:11 | 50.01711 | 8.44551 | 62° | 133km/h | 12555m | 4.6m/s | 0°C | 0% | 0hPa | 4.4V | 00:00:00 | 00:00:00 | 00:00:00 | |
| NBG1-10 | 2026-08-31 07:34:10 | 50.01696 | 8.44506 | 62° | 133km/h | 12551m | 3.0m/s | 0°C | 0% | 0hPa | 4.4V | 00:00:00 | 00:00:00 | 00:00:00 | |
| BIOWL1-15 | 2026-08-31 07:34:09 | 50.01665 | 8.44415 | 61° | 133km/h | 12547m | 4.2m/s | -47.8°C | 0% | 0hPa | 4.4V | 00:00:00 | 00:00:00 | 00:00:00 | |
| DO3DL | 2026-08-31 07:34:09 | 50.01665 | 8.44414 | 62° | 133km/h | 12547m | 4.2m/s | -47.8°C | 0% | 0hPa | 4.4V | 00:00:00 | 00:00:00 | 00:00:00 | |
| DO2KSM | 2026-08-31 07:34:07 | 50.01647 | 8.44370 | 59° | 131km/h | 12543m | 3.6m/s | -47.9°C | 0% | 0hPa | 4.4V | 00:00:00 | 00:00:00 | 00:00:00 | |
| DM0DOS-11 | 2026-08-31 07:34:07 | 50.01567 | 8.44145 | 61° | 137km/h | 12520m | 2.6m/s | 0°C | 0% | 0hPa | 0V | 00:00:00 | 00:00:00 | 00:00:00 | |
| DB0UT-7 | 2026-08-31 07:34:06 | 50.01630 | 8.44326 | 60° | 137km/h | 12536m | 3.4m/s | 0°C | 0% | 0hPa | 4.4V | 00:00:00 | 00:00:00 | 00:00:00 | |
| DL1ZP-14 | 2026-08-31 07:34:04 | 50.01584 | 8.44191 | 60° | 131km/h | 12528m | 3.5m/s | -47.9°C | -1.0% | -1.0hPa | 4.4V | 00:00:00 | 00:00:00 | 00:00:00 | |
| DL1NUX | 2026-08-31 07:34:02 | 50.01488 | 8.43915 | 63° | 135km/h | 12500m | 4.3m/s | 0°C | 0% | 0hPa | 0V | 00:00:00 | 00:00:00 | 00:00:00 | |
| CB1BUN | 2026-08-31 07:34:00 | 50.01519 | 8.44006 | 60° | 130km/h | 12512m | 3.6m/s | -48.0°C | 0% | 0hPa | 0V | 00:00:00 | 00:00:00 | 00:00:00 | |
| BIOWL1-15 | 2026-08-31 07:34:00 | 50.01488 | 8.43915 | 64° | 135km/h | 12504m | 3m/s | -48.1°C | 0% | 0hPa | 4.4V | 00:00:00 | 00:00:00 | 00:00:00 | |
| DO3MHA-11 | 2026-08-31 07:33:59 | 50.01519 | 8.44006 | 60° | 133km/h | 12508m | 4.4m/s | 0°C | 0% | 0hPa | 0V | 00:00:00 | 00:00:00 | 00:00:00 | |
| DM0DOS-11 | 2026-08-31 07:33:57 | 50.01408 | 8.43684 | 58° | 131km/h | 12481m | 2.8m/s | 0°C | 0% | 0hPa | 0V | 00:00:00 | 00:00:00 | 00:00:00 | |
| HEMX73-11 | 2026-08-31 07:33:56 | 50.01455 | 8.43822 | 61° | 133km/h | 12496m | 3.6m/s | -48.2°C | 0% | 0hPa | 0V | 00:00:00 | 00:00:00 | 00:00:00 | |
| DO3DL | 2026-08-31 07:33:55 | 50.01455 | 8.43822 | 61° | 133km/h | 12496m | 3.6m/s | -48.2°C | 0% | 0hPa | 0V | 00:00:00 | 00:00:00 | 00:00:00 | |
| DN1GJH-1 | 2026-08-31 07:33:54 | 50.01438 | 8.43729 | 65° | 133km/h | 12489m | 3.0m/s | -48.3°C | 0% | 0hPa | 0V | 00:00:00 | 00:00:00 | 00:00:00 | |
| DL1NUX | 2026-08-31 07:33:52 | 50.01327 | 8.43452 | 58° | 137km/h | 12461m | 3m/s | 0°C | 0% | 0hPa | 0V | 00:00:00 | 00:00:00 | 00:00:00 | |
| DO3MHA-11 | 2026-08-31 07:33:49 | 50.01359 | 8.43547 | 65° | 135km/h | 12470m | 3.6m/s | 0°C | 0% | 0hPa | 4.4V | 00:00:00 | 00:00:00 | 00:00:00 | |
| BIOWL1-15 | 2026-08-31 07:33:48 | 50.01327 | 8.43452 | 59° | 137km/h | 12465m | 4.4m/s | -48.4°C | 0% | 0hPa | 4.4V | 00:00:00 | 00:00:00 | 00:00:00 | |
| DM0DOS-11 | 2026-08-31 07:33:47 | 50.01244 | 8.43222 | 60° | 139km/h | 12443m | 3.1m/s | 0°C | 0% | 0hPa | 0V | 00:00:00 | 00:00:00 | 00:00:00 | |
| DO2KSM | 2026-08-31 07:33:46 | 50.01309 | 8.43407 | 59° | 137km/h | 12462m | 3.0m/s | -48.4°C | 0% | 0hPa | 0V | 00:00:00 | 00:00:00 | 00:00:00 | |
| DL1NUX | 2026-08-31 07:33:42 | 50.01156 | 8.42997 | 62° | 133km/h | 12424m | 3.5m/s | 0°C | 0% | 0hPa | 0V | 00:00:00 | 00:00:00 | 00:00:00 | |
| DF2AP-13 | 2026-08-31 07:33:41 | 50.01227 | 8.43169 | 58° | 133km/h | 12439m | 4.2m/s | 0°C | 0% | 0hPa | 0V | 00:00:00 | 00:00:00 | 00:00:00 | |
| DO3MHA-11 | 2026-08-31 07:33:39 | 50.01190 | 8.43086 | 59° | 130km/h | 12432m | 4.2m/s | 0°C | 0% | 0hPa | 0V | 00:00:00 | 00:00:00 | 00:00:00 | |
| DM0DOS-11 | 2026-08-31 07:33:37 | 50.01070 | 8.42775 | 59° | 130km/h | 12405m | 4.6m/s | 0°C | 0% | 0hPa | 0V | 00:00:00 | 00:00:00 | 00:00:00 | |
| NBG1-10 | 2026-08-31 07:33:37 | 50.01156 | 8.42997 | 63° | 135km/h | 12424m | 3.5m/s | 0°C | 0% | 0hPa | 0V | 00:00:00 | 00:00:00 | 00:00:00 | |
| BIOWL1-15 | 2026-08-31 07:33:36 | 50.01105 | 8.42861 | 56° | 130km/h | 12416m | 3.3m/s | -48.7°C | 0% | 0hPa | 4.4V | 00:00:00 | 00:00:00 | 00:00:00 | |
| DO3DL | 2026-08-31 07:33:36 | 50.01140 | 8.42951 | 64° | 137km/h | 12424m | 3.5m/s | -48.6°C | 0% | 0hPa | 0V | 00:00:00 | 00:00:00 | 00:00:00 | |
| BIOWL7-15 | 2026-08-31 07:33:35 | 50.01105 | 8.42861 | 57° | 130km/h | 12417m | 3.3m/s | -48.7°C | 0% | 0hPa | 0V | 00:00:00 | 00:00:00 | 00:00:00 | |
| DH7VM-15 | 2026-08-31 07:33:34 | 50.01105 | 8.42861 | 57° | 130km/h | 12417m | 3.3m/s | -48.7°C | 0% | 0hPa | 0V | 00:00:00 | 00:00:00 | 00:00:00 | |
| DN1GJH-1 | 2026-08-31 07:33:32 | 50.01070 | 8.42775 | 61° | 130km/h | 12409m | 3.2m/s | -48.8°C | 0% | 0hPa | 0V | 00:00:00 | 00:00:00 | 00:00:00 | |
| DO3DL | 2026-08-31 07:33:30 | 50.01019 | 8.42646 | 60° | 126km/h | 12398m | 4.3m/s | -49.0°C | 0% | 0hPa | 0V | 00:00:00 | 00:00:00 | 00:00:00 | |
| DO3MHA-11 | 2026-08-31 07:33:29 | 50.01019 | 8.42646 | 60° | 131km/h | 12395m | 3.1m/s | 0°C | 0% | 0hPa | 0V | 00:00:00 | 00:00:00 | 00:00:00 | |
| DL1NUX | 2026-08-31 07:33:28 | 50.00988 | 8.42559 | 59° | 130km/h | 12387m | 4.2m/s | 0°C | 0% | 0hPa | 0V | 00:00:00 | 00:00:00 | 00:00:00 | |
| DM0DOS-11 | 2026-08-31 07:33:27 | 50.00898 | 8.42343 | 56° | 128km/h | 12367m | 4.4m/s | 0°C | 0% | 0hPa | 0V | 00:00:00 | 00:00:00 | 00:00:00 | |
| BIOWL1-15 | 2026-08-31 07:33:26 | 50.00950 | 8.42471 | 55° | 137km/h | 12383m | 3.7m/s | -49.1°C | 0% | 0hPa | 4.4V | 00:00:00 | 00:00:00 | 00:00:00 | |
| SO1NDE-10 | 2026-08-31 07:33:26 | 50.00969 | 8.42515 | 56° | 139km/h | 12383m | 3.7m/s | 0°C | 0% | 0hPa | 0V | 00:00:00 | 00:00:00 | 00:00:00 | |
| DL8DAS-15 | 2026-08-31 07:33:25 | 50.00950 | 8.42471 | 56° | 137km/h | 12383m | 3.7m/s | -49.1°C | 0% | 0hPa | 0V | 00:00:00 | 00:00:00 | 00:00:00 | |
| DO3DL | 2026-08-31 07:33:23 | 50.00915 | 8.42382 | 61° | 128km/h | 12375m | 3.5m/s | -49.2°C | 0% | 0hPa | 0V | 00:00:00 | 00:00:00 | 00:00:00 | |
| DL1NUX | 2026-08-31 07:33:22 | 50.00808 | 8.42107 | 58° | 137km/h | 12345m | 5.6m/s | 0°C | 0% | 0hPa | 0V | 00:00:00 | 00:00:00 | 00:00:00 | |
| CB1BUN | 2026-08-31 07:33:19 | 50.00827 | 8.42154 | 60° | 144km/h | 12354m | 4.8m/s | -49.1°C | 0% | 0hPa | 0V | 00:00:00 | 00:00:00 | 00:00:00 | |
| DM0DOS-11 | 2026-08-31 07:33:17 | 50.00721 | 8.41878 | 61° | 141km/h | 12322m | 3.9m/s | 0°C | 0% | 0hPa | 0V | 00:00:00 | 00:00:00 | 00:00:00 | |
| BIOWL1-15 | 2026-08-31 07:33:17 | 50.00757 | 8.41970 | 58° | 135km/h | 12336m | 4.5m/s | -49°C | 0% | 0hPa | 4.4V | 00:00:00 | 00:00:00 | 00:00:00 | |
| DO3DL | 2026-08-31 07:33:16 | 50.00791 | 8.42061 | 62° | 133km/h | 12345m | 5.6m/s | -49.0°C | 0% | 0hPa | 0V | 00:00:00 | 00:00:00 | 00:00:00 | |
| HEMX73-11 | 2026-08-31 07:33:15 | 50.00757 | 8.41970 | 58° | 135km/h | 12336m | 4.5m/s | -49.0°C | 0% | 0hPa | 0V | 00:00:00 | 00:00:00 | 00:00:00 | |
| DL1NUX | 2026-08-31 07:33:12 | 50.00632 | 8.41638 | 58° | 141km/h | 12301m | 4.1m/s | 0°C | 0% | 0hPa | 0V | 00:00:00 | 00:00:00 | 00:00:00 | |
| DF2AP-13 | 2026-08-31 07:33:11 | 50.00704 | 8.41829 | 58° | 142km/h | 12318m | 4.2m/s | 0°C | 0% | 0hPa | 0V | 00:00:00 | 00:00:00 | 00:00:00 | |
| DN1GJH-1 | 2026-08-31 07:33:10 | 50.00686 | 8.41782 | 59° | 142km/h | 12318m | 4.2m/s | -48.9°C | 0% | 0hPa | 0V | 00:00:00 | 00:00:00 | 00:00:00 | |
| DO3MHA-11 | 2026-08-31 07:33:09 | 50.00667 | 8.41735 | 62° | 142km/h | 12310m | 4.6m/s | 0°C | 0% | 0hPa | 0V | 00:00:00 | 00:00:00 | 00:00:00 | |
| DM0DOS-11 | 2026-08-31 07:33:07 | 50.00542 | 8.41393 | 58° | 139km/h | 12282m | 4.2m/s | 0°C | 0% | 0hPa | 0V | 00:00:00 | 00:00:00 | 00:00:00 | |
| DB0UT-7 | 2026-08-31 07:33:06 | 50.00614 | 8.41589 | 59° | 142km/h | 12298m | 3.4m/s | 0°C | 0% | 0hPa | 4.4V | 00:00:00 | 00:00:00 | 00:00:00 | |
| DO2KSM | 2026-08-31 07:33:05 | 50.00595 | 8.41540 | 60° | 148km/h | 12298m | 3.4m/s | -48.8°C | 0% | 0hPa | 4.4V | 00:00:00 | 00:00:00 | 00:00:00 | |
| BIOWL1-15 | 2026-08-31 07:33:04 | 50.00577 | 8.41490 | 61° | 148km/h | 12293m | 4.3m/s | -48.7°C | 0% | 0hPa | 4.4V | 00:00:00 | 00:00:00 | 00:00:00 | |
| NBG1-10 | 2026-08-31 07:33:04 | 50.00577 | 8.41490 | 62° | 142km/h | 12290m | 3.4m/s | 0°C | 0% | 0hPa | 0V | 00:00:00 | 00:00:00 | 00:00:00 | |
| DO3DL | 2026-08-31 07:33:03 | 50.00559 | 8.41440 | 63° | 142km/h | 12290m | 3.5m/s | -48.7°C | 0% | 0hPa | 0V | 00:00:00 | 00:00:00 | 00:00:00 | |
| DL1NUX | 2026-08-31 07:33:02 | 50.00450 | 8.41150 | 60° | 144km/h | 12261m | 3.5m/s | 0°C | 0% | 0hPa | 0V | 00:00:00 | 00:00:00 | 00:00:00 | |
| DO3MHA-11 | 2026-08-31 07:32:59 | 50.00487 | 8.41249 | 61° | 144km/h | 12270m | 2.8m/s | 0°C | 0% | 0hPa | 0V | 00:00:00 | 00:00:00 | 00:00:00 | |
| CB1BUN | 2026-08-31 07:32:58 | 50.00468 | 8.41199 | 60° | 148km/h | 12270m | 2.8m/s | -48.6°C | 0% | 0hPa | 0V | 00:00:00 | 00:00:00 | 00:00:00 | |
| DM0DOS-11 | 2026-08-31 07:32:57 | 50.00363 | 8.40906 | 63° | 146km/h | 12241m | 4.7m/s | 0°C | 0% | 0hPa | 0V | 00:00:00 | 00:00:00 | 00:00:00 | |
| SO1NDE-10 | 2026-08-31 07:32:56 | 50.00432 | 8.41100 | 60° | 141km/h | 12258m | 4.5m/s | 0°C | 0% | 0hPa | 4.4V | 00:00:00 | 00:00:00 | 00:00:00 | |
| HEMX73-11 | 2026-08-31 07:32:54 | 50.00398 | 8.41005 | 61° | 141km/h | 12254m | 3.7m/s | -48.6°C | 0% | 0hPa | 4.4V | 00:00:00 | 00:00:00 | 00:00:00 | |
| BIOWL1-15 | 2026-08-31 07:32:53 | 50.00346 | 8.40855 | 61° | 146km/h | 12241m | 4.7m/s | -48.5°C | 0% | 0hPa | 4.4V | 00:00:00 | 00:00:00 | 00:00:00 | |
| DL1NUX | 2026-08-31 07:32:52 | 50.00278 | 8.40660 | 60° | 144km/h | 12221m | 3.9m/s | 0°C | 0% | 0hPa | 0V | 00:00:00 | 00:00:00 | 00:00:00 | |
| DO3DL | 2026-08-31 07:32:50 | 50.00328 | 8.40806 | 60° | 142km/h | 12237m | 2.4m/s | -48.6°C | 0% | 0hPa | 0V | 00:00:00 | 00:00:00 | 00:00:00 | |
| DO3MHA-11 | 2026-08-31 07:32:49 | 50.00310 | 8.40759 | 65° | 144km/h | 12230m | 3.7m/s | 0°C | 0% | 0hPa | 0V | 00:00:00 | 00:00:00 | 00:00:00 | |
| DN1GJH-1 | 2026-08-31 07:32:48 | 50.00294 | 8.40709 | 66° | 141km/h | 12230m | 3.7m/s | -48.6°C | 0% | 0hPa | 0V | 00:00:00 | 00:00:00 | 00:00:00 | |
| DM0DOS-11 | 2026-08-31 07:32:47 | 50.00189 | 8.40410 | 60° | 139km/h | 12199m | 5.3m/s | 0°C | 0% | 0hPa | 0V | 00:00:00 | 00:00:00 | 00:00:00 | |
| DF1GD-15 | 2026-08-31 07:32:46 | 50.00260 | 8.40609 | 61° | 148km/h | 12221m | 3.9m/s | -48.6°C | 0% | 0hPa | 4.5V | 00:00:00 | 00:00:00 | 00:00:00 | |
| DO2KSM | 2026-08-31 07:32:45 | 50.00242 | 8.40558 | 62° | 148km/h | 12217m | 4.7m/s | -48.6°C | 0% | 0hPa | 4.5V | 00:00:00 | 00:00:00 | 00:00:00 | |
| DO3DL | 2026-08-31 07:32:44 | 50.00224 | 8.40508 | 63° | 146km/h | 12213m | 2.6m/s | -48.6°C | 0% | 0hPa | 4.5V | 00:00:00 | 00:00:00 | 00:00:00 | |
| BIOWL1-15 | 2026-08-31 07:32:43 | 50.00189 | 8.40410 | 60° | 139km/h | 12204m | 4m/s | -48.6°C | 0% | 0hPa | 4.5V | 00:00:00 | 00:00:00 | 00:00:00 | |
| DL1NUX | 2026-08-31 07:32:42 | 50.00106 | 8.40167 | 62° | 137km/h | 12178m | 4m/s | 0°C | 0% | 0hPa | 0V | 00:00:00 | 00:00:00 | 00:00:00 | |
| DF2AP-13 | 2026-08-31 07:32:41 | 50.00171 | 8.40361 | 63° | 139km/h | 12195m | 3.1m/s | 0°C | 0% | 0hPa | 0V | 00:00:00 | 00:00:00 | 00:00:00 | |
| DO3MHA-11 | 2026-08-31 07:32:39 | 50.00137 | 8.40260 | 63° | 137km/h | 12187m | 3.3m/s | 0°C | 0% | 0hPa | 0V | 00:00:00 | 00:00:00 | 00:00:00 | |
| CB1BUN | 2026-08-31 07:32:38 | 50.00106 | 8.40167 | 63° | 137km/h | 12182m | 4.9m/s | -48.5°C | 0% | 0hPa | 0V | 00:00:00 | 00:00:00 | 00:00:00 | |
| DM0DOS-11 | 2026-08-31 07:32:37 | 50.00025 | 8.39920 | 66° | 142km/h | 12157m | 4.9m/s | 0°C | 0% | 0hPa | 0V | 00:00:00 | 00:00:00 | 00:00:00 | |
| DB0UT-7 | 2026-08-31 07:32:36 | 50.00088 | 8.40118 | 61° | 139km/h | 12173m | 4.9m/s | 0°C | 0% | 0hPa | 4.4V | 00:00:00 | 00:00:00 | 00:00:00 | |
| BIOWL1-15 | 2026-08-31 07:32:34 | 50.00011 | 8.39874 | 66° | 137km/h | 12157m | 4.9m/s | -48.4°C | 0% | 0hPa | 4.4V | 00:00:00 | 00:00:00 | 00:00:00 | |
| HEMX73-11 | 2026-08-31 07:32:33 | 50.00038 | 8.39975 | 67° | 137km/h | 12165m | 5.1m/s | -48.5°C | 0% | 0hPa | 0V | 00:00:00 | 00:00:00 | 00:00:00 | |
| DL1NUX | 2026-08-31 07:32:32 | 49.99949 | 8.39685 | 66° | 139km/h | 12136m | 3.8m/s | 0°C | 0% | 0hPa | 0V | 00:00:00 | 00:00:00 | 00:00:00 | |
| NBG1-10 | 2026-08-31 07:32:31 | 50.00011 | 8.39874 | 67° | 141km/h | 12153m | 3.2m/s | 0°C | 0% | 0hPa | 0V | 00:00:00 | 00:00:00 | 00:00:00 | |
| DO3MHA-11 | 2026-08-31 07:32:29 | 49.99980 | 8.39782 | 61° | 137km/h | 12145m | 4.0m/s | 0°C | 0% | 0hPa | 0V | 00:00:00 | 00:00:00 | 00:00:00 | |
| DN1GJH-1 | 2026-08-31 07:32:28 | 49.99964 | 8.39734 | 65° | 141km/h | 12145m | 4.0m/s | -48.5°C | 0% | 0hPa | 0V | 00:00:00 | 00:00:00 | 00:00:00 | |
| DM0DOS-11 | 2026-08-31 07:32:27 | 49.99877 | 8.39443 | 64° | 133km/h | 12116m | 5.2m/s | 0°C | 0% | 0hPa | 0V | 00:00:00 | 00:00:00 | 00:00:00 | |
| SO1NDE-10 | 2026-08-31 07:32:26 | 49.99936 | 8.39637 | 66° | 142km/h | 12132m | 4.9m/s | 0°C | 0% | 0hPa | 4.4V | 00:00:00 | 00:00:00 | 00:00:00 | |
| DO3DL | 2026-08-31 07:32:25 | 49.99907 | 8.39540 | 65° | 141km/h | 12128m | 3.9m/s | -48.7°C | 0% | 0hPa | 4.4V | 00:00:00 | 00:00:00 | 00:00:00 | |
| DO2KSM | 2026-08-31 07:32:24 | 49.99907 | 8.39540 | 65° | 141km/h | 12128m | 3.9m/s | -48.7°C | 0% | 0hPa | 4.4V | 00:00:00 | 00:00:00 | 00:00:00 | |
| BIOWL1-15 | 2026-08-31 07:32:23 | 49.99849 | 8.39344 | 68° | 144km/h | 12112m | 3m/s | -48.9°C | 0% | 0hPa | 4.4V | 00:00:00 | 00:00:00 | 00:00:00 | |
| DH7VM-15 | 2026-08-31 07:32:23 | 49.99876 | 8.39443 | 65° | 133km/h | 12120m | 3.3m/s | -48.9°C | 0% | 0hPa | 0V | 00:00:00 | 00:00:00 | 00:00:00 | |
| DL1NUX | 2026-08-31 07:32:22 | 49.99805 | 8.39197 | 63° | 137km/h | 12101m | 4m/s | 0°C | 0% | 0hPa | 0V | 00:00:00 | 00:00:00 | 00:00:00 | |
| DO3MHA-11 | 2026-08-31 07:32:19 | 49.99834 | 8.39291 | 64° | 139km/h | 12105m | 3.3m/s | 0°C | 0% | 0hPa | 0V | 00:00:00 | 00:00:00 | 00:00:00 | |
| DO3DL | 2026-08-31 07:32:18 | 49.99820 | 8.39244 | 64° | 131km/h | 12105m | 3.3m/s | -48.9°C | 0% | 0hPa | 0V | 00:00:00 | 00:00:00 | 00:00:00 | |
| DM0DOS-11 | 2026-08-31 07:32:17 | 49.99731 | 8.38948 | 69° | 137km/h | 12078m | 2.5m/s | 0°C | 0% | 0hPa | 0V | 00:00:00 | 00:00:00 | 00:00:00 | |
| CB1BUN | 2026-08-31 07:32:16 | 49.99788 | 8.39147 | 65° | 146km/h | 12097m | 4.0m/s | -49.0°C | 0% | 0hPa | 0V | 00:00:00 | 00:00:00 | 00:00:00 | |
| HEMX73-11 | 2026-08-31 07:32:13 | 49.99743 | 8.38997 | 69° | 131km/h | 12085m | 3.3m/s | -49.1°C | 0% | 0hPa | 0V | 00:00:00 | 00:00:00 | 00:00:00 | |
| DO3DL | 2026-08-31 07:32:12 | 49.99731 | 8.38948 | 70° | 137km/h | 12081m | 3.7m/s | -49.1°C | 0% | 0hPa | 0V | 00:00:00 | 00:00:00 | 00:00:00 | |
| DL1NUX | 2026-08-31 07:32:11 | 49.99639 | 8.38643 | 66° | 139km/h | 12055m | 3m/s | 0°C | 0% | 0hPa | 0V | 00:00:00 | 00:00:00 | 00:00:00 | |
| BIOWL1-15 | 2026-08-31 07:32:11 | 49.99704 | 8.38847 | 65° | 139km/h | 12075m | 4.1m/s | -49.1°C | 0% | 0hPa | 4.5V | 00:00:00 | 00:00:00 | 00:00:00 | |
| DF2AP-13 | 2026-08-31 07:32:11 | 49.99718 | 8.38897 | 65° | 148km/h | 12075m | 4.1m/s | 0°C | 0% | 0hPa | 0V | 00:00:00 | 00:00:00 | 00:00:00 | |
| DO3MHA-11 | 2026-08-31 07:32:09 | 49.99688 | 8.38798 | 63° | 146km/h | 12067m | 4.3m/s | 0°C | 0% | 0hPa | 0V | 00:00:00 | 00:00:00 | 00:00:00 | |
| DM0DOS-11 | 2026-08-31 07:32:07 | 49.99578 | 8.38435 | 64° | 146km/h | 12039m | 2.8m/s | 0°C | 0% | 0hPa | 0V | 00:00:00 | 00:00:00 | 00:00:00 | |
| DO3DL | 2026-08-31 07:32:06 | 49.99625 | 8.38592 | 68° | 137km/h | 12055m | 3.0m/s | -49.0°C | 0% | 0hPa | 4.5V | 00:00:00 | 00:00:00 | 00:00:00 | |
| DF1GD-15 | 2026-08-31 07:32:05 | 49.99625 | 8.38592 | 68° | 137km/h | 12055m | 3.0m/s | -49.0°C | 0% | 0hPa | 4.5V | 00:00:00 | 00:00:00 | 00:00:00 | |
| DO2KSM | 2026-08-31 07:32:03 | 49.99595 | 8.38487 | 65° | 151km/h | 12046m | 3.5m/s | -49.0°C | 0% | 0hPa | 4.5V | 00:00:00 | 00:00:00 | 00:00:00 | |
| BIOWL1-15 | 2026-08-31 07:31:59 | 49.99532 | 8.38277 | 68° | 153km/h | 12031m | 3m/s | -49.1°C | 0% | 0hPa | 4.5V | 00:00:00 | 00:00:00 | 00:00:00 | |
| DO3MHA-11 | 2026-08-31 07:31:59 | 49.99532 | 8.38277 | 68° | 151km/h | 12027m | 4.9m/s | 0°C | 0% | 0hPa | 0V | 00:00:00 | 00:00:00 | 00:00:00 | |
| NBG1-10 | 2026-08-31 07:31:58 | 49.99517 | 8.38222 | 62° | 151km/h | 12023m | 3.2m/s | 0°C | 0% | 0hPa | 0V | 00:00:00 | 00:00:00 | 00:00:00 | |
| DM0DOS-11 | 2026-08-31 07:31:57 | 49.99416 | 8.37907 | 63° | 157km/h | 12000m | 3.2m/s | 0°C | 0% | 0hPa | 0V | 00:00:00 | 00:00:00 | 00:00:00 | |
| DL1NUX | 2026-08-31 07:31:57 | 49.99483 | 8.38122 | 61° | 148km/h | 12014m | 2.9m/s | 0°C | 0% | 0hPa | 0V | 00:00:00 | 00:00:00 | 00:00:00 | |
| DK7TD | 2026-08-31 07:31:56 | 49.99466 | 8.38069 | 64° | 153km/h | 12014m | 2.9m/s | -49.4°C | 0% | 0hPa | 4.5V | 00:00:00 | 00:00:00 | 00:00:00 | |
| CB1BUN | 2026-08-31 07:31:55 | 49.99466 | 8.38069 | 65° | 153km/h | 12014m | 2.9m/s | -49.4°C | 0% | 0hPa | 4.5V | 00:00:00 | 00:00:00 | 00:00:00 | |
| DO3DL | 2026-08-31 07:31:52 | 49.99416 | 8.37907 | 65° | 157km/h | 12004m | 4.4m/s | -49.8°C | 0% | 0hPa | 4.5V | 00:00:00 | 00:00:00 | 00:00:00 | |
| BIOWL1-15 | 2026-08-31 07:31:49 | 49.99350 | 8.37691 | 67° | 159km/h | 11989m | 3.1m/s | -50.1°C | 0% | 0hPa | 4.5V | 00:00:00 | 00:00:00 | 00:00:00 | |
| DO3MHA-11 | 2026-08-31 07:31:48 | 49.99350 | 8.37691 | 68° | 151km/h | 11986m | 4.2m/s | 0°C | 0% | 0hPa | 0V | 00:00:00 | 00:00:00 | 00:00:00 | |
| DL1NUX | 2026-08-31 07:31:47 | 49.99318 | 8.37581 | 63° | 146km/h | 11979m | 3.3m/s | 0°C | 0% | 0hPa | 0V | 00:00:00 | 00:00:00 | 00:00:00 | |
| DN1GJH-1 | 2026-08-31 07:31:46 | 49.99318 | 8.37581 | 65° | 146km/h | 11982m | 3.0m/s | 0°C | 0% | 0hPa | 4.5V | 00:00:00 | 00:00:00 | 00:00:00 | |
| DF1GD-15 | 2026-08-31 07:31:45 | 49.99301 | 8.37529 | 63° | 150km/h | 11979m | 3.3m/s | -50.2°C | 0% | 0hPa | 4.5V | 00:00:00 | 00:00:00 | 00:00:00 | |
| DK7TD | 2026-08-31 07:31:43 | 49.99265 | 8.37421 | 64° | 157km/h | 11972m | 2.7m/s | -50.3°C | 0% | 0hPa | 4.5V | 00:00:00 | 00:00:00 | 00:00:00 | |
| DO2KSM | 2026-08-31 07:31:43 | 49.99264 | 8.37421 | 65° | 157km/h | 11972m | 2.7m/s | -50.3°C | 0% | 0hPa | 0V | 00:00:00 | 00:00:00 | 00:00:00 | |
| DF2AP-13 | 2026-08-31 07:31:41 | 49.99232 | 8.37316 | 65° | 153km/h | 11954m | 2.6m/s | 0°C | 0% | 0hPa | 0V | 00:00:00 | 00:00:00 | 00:00:00 | |
| DB0NH | 2026-08-31 07:31:39 | 49.99198 | 8.37213 | 62° | 153km/h | 11954m | 2.6m/s | 0°C | 0% | 0hPa | 0V | 00:00:00 | 00:00:00 | 00:00:00 | |
| DM0DOS-11 | 2026-08-31 07:31:37 | 49.99082 | 8.36839 | 62° | 153km/h | 11928m | 3.9m/s | 0°C | 0% | 0hPa | 0V | 00:00:00 | 00:00:00 | 00:00:00 | |
| DO3MHA-11 | 2026-08-31 07:31:37 | 49.99162 | 8.37107 | 64° | 153km/h | 11947m | 2.4m/s | 0°C | 0% | 0hPa | 4.5V | 00:00:00 | 00:00:00 | 00:00:00 | |
| DB0UT-7 | 2026-08-31 07:31:36 | 49.99145 | 8.37051 | 67° | 153km/h | 11947m | 2.4m/s | 0°C | 0% | 0hPa | 4.5V | 00:00:00 | 00:00:00 | 00:00:00 | |
| DL1NUX | 2026-08-31 07:31:36 | 49.99145 | 8.37048 | 67° | 159km/h | 11943m | 4.3m/s | 0°C | 0% | 0hPa | 0V | 00:00:00 | 00:00:00 | 00:00:00 | |
| CB1BUN | 2026-08-31 07:31:35 | 49.99116 | 8.36943 | 68° | 144km/h | 11940m | 3.5m/s | -50.6°C | 0% | 0hPa | 4.5V | 00:00:00 | 00:00:00 | 00:00:00 | |
| DK7TD | 2026-08-31 07:31:33 | 49.99082 | 8.36839 | 61° | 153km/h | 11932m | 3.3m/s | -50.7°C | 0% | 0hPa | 4.5V | 00:00:00 | 00:00:00 | 00:00:00 | |
| HEMX73-11 | 2026-08-31 07:31:32 | 49.99082 | 8.36838 | 62° | 153km/h | 11932m | 3.3m/s | -50.7°C | 0% | 0hPa | 4.5V | 00:00:00 | 00:00:00 | 00:00:00 | |
| BIOWL7-15 | 2026-08-31 07:31:29 | 49.99014 | 8.36619 | 66° | 155km/h | 11917m | 3.3m/s | -51.1°C | 0% | 0hPa | 4.5V | 00:00:00 | 00:00:00 | 00:00:00 | |
| BIOWL1-15 | 2026-08-31 07:31:28 | 49.98997 | 8.36566 | 64° | 144km/h | 11914m | 3.8m/s | -51.1°C | 0% | 0hPa | 4.5V | 00:00:00 | 00:00:00 | 00:00:00 | |
| DM0DOS-11 | 2026-08-31 07:31:27 | 49.98911 | 8.36295 | 66° | 153km/h | 11892m | 4m/s | 0°C | 0% | 0hPa | 0V | 00:00:00 | 00:00:00 | 00:00:00 | |
| DO3MHA-11 | 2026-08-31 07:31:27 | 49.98997 | 8.36566 | 64° | 153km/h | 11910m | 3.9m/s | 0°C | 0% | 0hPa | 0V | 00:00:00 | 00:00:00 | 00:00:00 | |
| SO1NDE-10 | 2026-08-31 07:31:26 | 49.98980 | 8.36515 | 63° | 153km/h | 11906m | 3.7m/s | 0°C | 0% | 0hPa | 0V | 00:00:00 | 00:00:00 | 00:00:00 | |
| NBG1-10 | 2026-08-31 07:31:25 | 49.98962 | 8.36464 | 64° | 153km/h | 11903m | 3.0m/s | 0°C | 0% | 0hPa | 0V | 00:00:00 | 00:00:00 | 00:00:00 | |
| DF1GD-15 | 2026-08-31 07:31:24 | 49.98944 | 8.36407 | 65° | 161km/h | 11903m | 3.1m/s | -51.1°C | 0% | 0hPa | 0V | 00:00:00 | 00:00:00 | 00:00:00 | |
| DO2KSM | 2026-08-31 07:31:22 | 49.98910 | 8.36295 | 67° | 153km/h | 11896m | 3.4m/s | -51.1°C | 0% | 0hPa | 0V | 00:00:00 | 00:00:00 | 00:00:00 | |
| DO3DL | 2026-08-31 07:31:20 | 49.98878 | 8.36184 | 66° | 157km/h | 11889m | 2.2m/s | -51.0°C | 0% | 0hPa | 0V | 00:00:00 | 00:00:00 | 00:00:00 | |
| DM0DOS-11 | 2026-08-31 07:31:17 | 49.98748 | 8.35743 | 65° | 155km/h | 11856m | 4m/s | 0°C | 0% | 0hPa | 0V | 00:00:00 | 00:00:00 | 00:00:00 | |
| DO3MHA-11 | 2026-08-31 07:31:17 | 49.98831 | 8.36018 | 65° | 155km/h | 11875m | 3.4m/s | 0°C | 0% | 0hPa | 0V | 00:00:00 | 00:00:00 | 00:00:00 | |
| BIOWL1-15 | 2026-08-31 07:31:17 | 49.98815 | 8.35962 | 65° | 161km/h | 11875m | 3.5m/s | -51°C | 0% | 0hPa | 4.5V | 00:00:00 | 00:00:00 | 00:00:00 | |
| DL1NUX | 2026-08-31 07:31:16 | 49.98814 | 8.35962 | 64° | 161km/h | 11871m | 4.3m/s | 0°C | 0% | 0hPa | 0V | 00:00:00 | 00:00:00 | 00:00:00 | |
| CB1BUN | 2026-08-31 07:31:14 | 49.98764 | 8.35797 | 65° | 155km/h | 11864m | 3.6m/s | -51.1°C | 0% | 0hPa | 4.5V | 00:00:00 | 00:00:00 | 00:00:00 | |
| DO3DL | 2026-08-31 07:31:13 | 49.98764 | 8.35797 | 65° | 155km/h | 11864m | 3.6m/s | -51.1°C | 0% | 0hPa | 4.5V | 00:00:00 | 00:00:00 | 00:00:00 | |
| BIOWL1-15 | 2026-08-31 07:31:12 | 49.98631 | 8.35360 | 63° | 153km/h | 11834m | 2.3m/s | -51.4°C | 0% | 0hPa | 4.5V | 00:00:00 | 00:00:00 | 00:00:00 | |
| DH7VM-15 | 2026-08-31 07:31:12 | 49.98732 | 8.35688 | 68° | 151km/h | 11856m | 4.1m/s | -51.2°C | 0% | 0hPa | 0V | 00:00:00 | 00:00:00 | 00:00:00 | |
| HEMX73-11 | 2026-08-31 07:31:11 | 49.98732 | 8.35688 | 68° | 151km/h | 11856m | 4.1m/s | -51.2°C | 0% | 0hPa | 0V | 00:00:00 | 00:00:00 | 00:00:00 | |
| DK7TD | 2026-08-31 07:31:10 | 49.98701 | 8.35576 | 66° | 161km/h | 11849m | 3.5m/s | 0°C | 0% | 0hPa | 0V | 00:00:00 | 00:00:00 | 00:00:00 | |
| DF2AP-13 | 2026-08-31 07:31:10 | 49.98717 | 8.35632 | 66° | 151km/h | 11850m | 3.5m/s | 0°C | 0% | 0hPa | 0V | 00:00:00 | 00:00:00 | 00:00:00 | |
| DB0NH | 2026-08-31 07:31:09 | 49.98701 | 8.35576 | 66° | 151km/h | 11822m | 4.1m/s | 0°C | 0% | 0hPa | 0V | 00:00:00 | 00:00:00 | 00:00:00 | |
| DM0DOS-11 | 2026-08-31 07:31:07 | 49.98582 | 8.35200 | 60° | 155km/h | 11818m | 4m/s | 0°C | 0% | 0hPa | 0V | 00:00:00 | 00:00:00 | 00:00:00 | |
| DO3MHA-11 | 2026-08-31 07:31:07 | 49.98666 | 8.35466 | 63° | 150km/h | 11838m | 4.0m/s | 0°C | 0% | 0hPa | 0V | 00:00:00 | 00:00:00 | 00:00:00 | |
| DL1NUX | 2026-08-31 07:31:06 | 49.98649 | 8.35413 | 63° | 153km/h | 11834m | 2.3m/s | 0°C | 0% | 0hPa | 0V | 00:00:00 | 00:00:00 | 00:00:00 | |
| DB0UT-7 | 2026-08-31 07:31:06 | 49.98649 | 8.35413 | 64° | 151km/h | 11834m | 2.2m/s | 0°C | 0% | 0hPa | 0V | 00:00:00 | 00:00:00 | 00:00:00 | |
| BEGRI65-1 | 2026-08-31 07:31:05 | 49.98631 | 8.35360 | 64° | 153km/h | 11834m | 2.3m/s | -51.4°C | 0% | 0hPa | 0V | 00:00:00 | 00:00:00 | 00:00:00 | |
| DF1GD-15 | 2026-08-31 07:31:04 | 49.98614 | 8.35307 | 66° | 148km/h | 11831m | 4.9m/s | -51.4°C | 0% | 0hPa | 0V | 00:00:00 | 00:00:00 | 00:00:00 | |
| DO2KSM | 2026-08-31 07:31:02 | 49.98582 | 8.35201 | 64° | 155km/h | 11822m | 4.1m/s | -51.4°C | 0% | 0hPa | 0V | 00:00:00 | 00:00:00 | 00:00:00 | |
| DO3DL | 2026-08-31 07:31:00 | 49.98545 | 8.35095 | 62° | 150km/h | 11814m | 4.0m/s | -51.4°C | 0% | 0hPa | 0V | 00:00:00 | 00:00:00 | 00:00:00 | |
| DK7TD | 2026-08-31 07:30:58 | 49.98493 | 8.34938 | 65° | 155km/h | 11803m | 2.8m/s | 0°C | 0% | 0hPa | 0V | 00:00:00 | 00:00:00 | 00:00:00 | |
| DM0DOS-11 | 2026-08-31 07:30:57 | 49.98409 | 8.34675 | 63° | 148km/h | 11781m | 3.6m/s | 0°C | 0% | 0hPa | 0V | 00:00:00 | 00:00:00 | 00:00:00 | |
| DO3MHA-11 | 2026-08-31 07:30:57 | 49.98493 | 8.34938 | 65° | 150km/h | 11799m | 4.5m/s | 0°C | 0% | 0hPa | 4.5V | 00:00:00 | 00:00:00 | 00:00:00 | |
| SO1NDE-10 | 2026-08-31 07:30:56 | 49.98477 | 8.34883 | 66° | 150km/h | 11796m | 3.0m/s | 0°C | 0% | 0hPa | 4.5V | 00:00:00 | 00:00:00 | 00:00:00 | |
| BIOWL1-15 | 2026-08-31 07:30:55 | 49.98444 | 8.34778 | 62° | 150km/h | 11792m | 4m/s | -51.4°C | 0% | 0hPa | 4.5V | 00:00:00 | 00:00:00 | 00:00:00 | |
| DO3DL | 2026-08-31 07:30:54 | 49.98444 | 8.34778 | 63° | 150km/h | 11792m | 4.0m/s | -51.4°C | 0% | 0hPa | 0V | 00:00:00 | 00:00:00 | 00:00:00 | |
| CB1BUN | 2026-08-31 07:30:53 | 49.98426 | 8.34727 | 63° | 150km/h | 11788m | 4.3m/s | -51.3°C | 0% | 0hPa | 0V | 00:00:00 | 00:00:00 | 00:00:00 | |
| NBG1-10 | 2026-08-31 07:30:52 | 49.98409 | 8.34675 | 64° | 151km/h | 11781m | 3.5m/s | 0°C | 0% | 0hPa | 0V | 00:00:00 | 00:00:00 | 00:00:00 | |
| HEMX73-11 | 2026-08-31 07:30:51 | 49.98392 | 8.34622 | 66° | 153km/h | 11781m | 3.6m/s | -51.3°C | 0% | 0hPa | 0V | 00:00:00 | 00:00:00 | 00:00:00 | |
| DO3DL | 2026-08-31 07:30:48 | 49.98341 | 8.34464 | 62° | 144km/h | 11770m | 2.9m/s | -51.3°C | 0% | 0hPa | 0V | 00:00:00 | 00:00:00 | 00:00:00 | |
| DM0DOS-11 | 2026-08-31 07:30:47 | 49.98241 | 8.34144 | 63° | 148km/h | 11745m | 2.4m/s | 0°C | 0% | 0hPa | 0V | 00:00:00 | 00:00:00 | 00:00:00 | |
| DO3MHA-11 | 2026-08-31 07:30:47 | 49.98323 | 8.34415 | 65° | 151km/h | 11763m | 3.0m/s | 0°C | 0% | 0hPa | 0V | 00:00:00 | 00:00:00 | 00:00:00 | |
| DL1NUX | 2026-08-31 07:30:46 | 49.98306 | 8.34359 | 64° | 157km/h | 11759m | 4.4m/s | 0°C | 0% | 0hPa | 0V | 00:00:00 | 00:00:00 | 00:00:00 | |
| BIOWL1-15 | 2026-08-31 07:30:45 | 49.98274 | 8.34249 | 67° | 150km/h | 11756m | 3.2m/s | -51.5°C | 0% | 0hPa | 4.5V | 00:00:00 | 00:00:00 | 00:00:00 | |
| BEGRI65-1 | 2026-08-31 07:30:44 | 49.98274 | 8.34249 | 68° | 150km/h | 11756m | 3.2m/s | -51.5°C | 0% | 0hPa | 0V | 00:00:00 | 00:00:00 | 00:00:00 | |
| DF1GD-15 | 2026-08-31 07:30:43 | 49.98258 | 8.34195 | 66° | 151km/h | 11752m | 3.9m/s | -51.5°C | 0% | 0hPa | 0V | 00:00:00 | 00:00:00 | 00:00:00 | |
| DO2KSM | 2026-08-31 07:30:41 | 49.98225 | 8.34092 | 64° | 144km/h | 11745m | 2.4m/s | -51.5°C | 0% | 0hPa | 0V | 00:00:00 | 00:00:00 | 00:00:00 | |
| DF2AP-13 | 2026-08-31 07:30:40 | 49.98208 | 8.34041 | 68° | 151km/h | 11738m | 3.7m/s | 0°C | 0% | 0hPa | 0V | 00:00:00 | 00:00:00 | 00:00:00 | |
| DO3MHA-11 | 2026-08-31 07:30:37 | 49.98165 | 8.33869 | 70° | 150km/h | 11727m | 4.1m/s | 0°C | 0% | 0hPa | 0V | 00:00:00 | 00:00:00 | 00:00:00 | |
| DL1NUX | 2026-08-31 07:30:36 | 49.98151 | 8.33815 | 63° | 148km/h | 11723m | 2.9m/s | 0°C | 0% | 0hPa | 0V | 00:00:00 | 00:00:00 | 00:00:00 | |
| DB0UT-7 | 2026-08-31 07:30:36 | 49.98151 | 8.33815 | 64° | 150km/h | 11723m | 2.9m/s | 0°C | 0% | 0hPa | 4.5V | 00:00:00 | 00:00:00 | 00:00:00 | |
| BIOWL1-15 | 2026-08-31 07:30:35 | 49.98102 | 8.33658 | 65° | 144km/h | 11716m | 3.2m/s | -51.9°C | 0% | 0hPa | 4.5V | 00:00:00 | 00:00:00 | 00:00:00 | |
| DB0NH | 2026-08-31 07:30:35 | 49.98135 | 8.33762 | 64° | 150km/h | 11720m | 3.5m/s | 0°C | 0% | 0hPa | 0V | 00:00:00 | 00:00:00 | 00:00:00 | |
| CB1BUN | 2026-08-31 07:30:33 | 49.98086 | 8.33606 | 67° | 148km/h | 11713m | 4.2m/s | -51.9°C | 0% | 0hPa | 0V | 00:00:00 | 00:00:00 | 00:00:00 | |
| DL1NUX | 2026-08-31 07:30:31 | 49.97993 | 8.33278 | 64° | 155km/h | 11678m | 4.1m/s | 0°C | 0% | 0hPa | 0V | 00:00:00 | 00:00:00 | 00:00:00 | |
| HEMX73-11 | 2026-08-31 07:30:30 | 49.98057 | 8.33493 | 69° | 157km/h | 11706m | 3.3m/s | -51.9°C | 0% | 0hPa | 0V | 00:00:00 | 00:00:00 | 00:00:00 | |
| DO3DL | 2026-08-31 07:30:29 | 49.98042 | 8.33438 | 69° | 146km/h | 11702m | 3.6m/s | -51.9°C | 0% | 0hPa | 0V | 00:00:00 | 00:00:00 | 00:00:00 | |
| DM0DOS-11 | 2026-08-31 07:30:27 | 49.97931 | 8.33060 | 63° | 153km/h | 11671m | 4m/s | 0°C | 0% | 0hPa | 0V | 00:00:00 | 00:00:00 | 00:00:00 | |
| DO3MHA-11 | 2026-08-31 07:30:27 | 49.98011 | 8.33333 | 65° | 151km/h | 11690m | 3.3m/s | 0°C | 0% | 0hPa | 4.5V | 00:00:00 | 00:00:00 | 00:00:00 | |
| SO1NDE-10 | 2026-08-31 07:30:26 | 49.97993 | 8.33278 | 65° | 150km/h | 11678m | 4.0m/s | 0°C | 0% | 0hPa | 4.5V | 00:00:00 | 00:00:00 | 00:00:00 | |
| DF1GD-15 | 2026-08-31 07:30:23 | 49.97948 | 8.33115 | 66° | 153km/h | 11678m | 4.1m/s | -52.0°C | 0% | 0hPa | 4.5V | 00:00:00 | 00:00:00 | 00:00:00 | |
| BIOWL1-15 | 2026-08-31 07:30:22 | 49.97931 | 8.33060 | 63° | 153km/h | 11674m | 3.4m/s | -52°C | 0% | 0hPa | 4.5V | 00:00:00 | 00:00:00 | 00:00:00 | |
| DO2KSM | 2026-08-31 07:30:21 | 49.97913 | 8.33007 | 64° | 150km/h | 11671m | 4.0m/s | -52.0°C | 0% | 0hPa | 0V | 00:00:00 | 00:00:00 | 00:00:00 | |
| NBG1-10 | 2026-08-31 07:30:19 | 49.97880 | 8.32898 | 66° | 148km/h | 11658m | 4.7m/s | 0°C | 0% | 0hPa | 0V | 00:00:00 | 00:00:00 | 00:00:00 | |
| DM0DOS-11 | 2026-08-31 07:30:17 | 49.97760 | 8.32532 | 63° | 150km/h | 11631m | 3.3m/s | 0°C | 0% | 0hPa | 0V | 00:00:00 | 00:00:00 | 00:00:00 | |
| DO3MHA-11 | 2026-08-31 07:30:17 | 49.97847 | 8.32794 | 64° | 150km/h | 11650m | 4.5m/s | 0°C | 0% | 0hPa | 0V | 00:00:00 | 00:00:00 | 00:00:00 | |
| DL1NUX | 2026-08-31 07:30:16 | 49.97813 | 8.32689 | 62° | 155km/h | 11642m | 4.5m/s | 0°C | 0% | 0hPa | 0V | 00:00:00 | 00:00:00 | 00:00:00 | |
| BIOWL1-15 | 2026-08-31 07:30:12 | 49.97743 | 8.32479 | 64° | 155km/h | 11631m | 3.4m/s | -52°C | 0% | 0hPa | 4.5V | 00:00:00 | 00:00:00 | 00:00:00 | |
| CB1BUN | 2026-08-31 07:30:11 | 49.97743 | 8.32479 | 65° | 155km/h | 11631m | 3.3m/s | -52.0°C | 0% | 0hPa | 0V | 00:00:00 | 00:00:00 | 00:00:00 | |
| DF2AP-13 | 2026-08-31 07:30:10 | 49.97725 | 8.32425 | 61° | 146km/h | 11623m | 3.4m/s | 0°C | 0% | 0hPa | 0V | 00:00:00 | 00:00:00 | 00:00:00 | |
| DM0DOS-11 | 2026-08-31 07:30:07 | 49.97583 | 8.32019 | 64° | 150km/h | 11591m | 4m/s | 0°C | 0% | 0hPa | 0V | 00:00:00 | 00:00:00 | 00:00:00 | |
| DO3MHA-11 | 2026-08-31 07:30:07 | 49.97672 | 8.32275 | 62° | 148km/h | 11611m | 3.7m/s | 0°C | 0% | 0hPa | 0V | 00:00:00 | 00:00:00 | 00:00:00 | |
| DL1NUX | 2026-08-31 07:30:06 | 49.97635 | 8.32173 | 59° | 144km/h | 11603m | 3m/s | 0°C | 0% | 0hPa | 0V | 00:00:00 | 00:00:00 | 00:00:00 | |
| DB0UT-7 | 2026-08-31 07:30:06 | 49.97653 | 8.32223 | 60° | 144km/h | 11607m | 3.9m/s | 0°C | 0% | 0hPa | 4.5V | 00:00:00 | 00:00:00 | 00:00:00 | |
| DB0NH | 2026-08-31 07:30:05 | 49.97634 | 8.32173 | 60° | 144km/h | 11603m | 2.9m/s | 0°C | 0% | 0hPa | 4.5V | 00:00:00 | 00:00:00 | 00:00:00 | |
| BIOWL1-15 | 2026-08-31 07:30:03 | 49.97550 | 8.31918 | 61° | 142km/h | 11588m | 3.2m/s | -51.7°C | 0% | 0hPa | 4.5V | 00:00:00 | 00:00:00 | 00:00:00 | |
| DO3DL | 2026-08-31 07:30:03 | 49.97582 | 8.32019 | 66° | 150km/h | 11595m | 3.7m/s | -51.8°C | 0% | 0hPa | 0V | 00:00:00 | 00:00:00 | 00:00:00 | |
| DF1GD-15 | 2026-08-31 07:30:02 | 49.97582 | 8.32019 | 66° | 150km/h | 11595m | 3.7m/s | -51.8°C | 0% | 0hPa | 0V | 00:00:00 | 00:00:00 | 00:00:00 | |
| DO2KSM | 2026-08-31 07:30:00 | 49.97550 | 8.31918 | 62° | 142km/h | 11588m | 3.2m/s | -51.7°C | 0% | 0hPa | 0V | 00:00:00 | 00:00:00 | 00:00:00 | |
| DM0DOS-11 | 2026-08-31 07:29:57 | 49.97412 | 8.31510 | 60° | 139km/h | 11551m | 4.8m/s | 0°C | 0% | 0hPa | 0V | 00:00:00 | 00:00:00 | 00:00:00 | |
| DL1NUX | 2026-08-31 07:29:56 | 49.97462 | 8.31665 | 64° | 146km/h | 11564m | 3.7m/s | 0°C | 0% | 0hPa | 0V | 00:00:00 | 00:00:00 | 00:00:00 | |
| DO3MHA-11 | 2026-08-31 07:29:56 | 49.97479 | 8.31715 | 62° | 144km/h | 11568m | 4.9m/s | 0°C | 0% | 0hPa | 4.5V | 00:00:00 | 00:00:00 | 00:00:00 | |
| BIOWL1-15 | 2026-08-31 07:29:53 | 49.97377 | 8.31413 | 60° | 144km/h | 11547m | 3.3m/s | -51.5°C | 0% | 0hPa | 4.5V | 00:00:00 | 00:00:00 | 00:00:00 | |
| CB1BUN | 2026-08-31 07:29:51 | 49.97395 | 8.31462 | 62° | 141km/h | 11551m | 4.8m/s | -51.5°C | 0% | 0hPa | 0V | 00:00:00 | 00:00:00 | 00:00:00 | |
| HEMX73-11 | 2026-08-31 07:29:49 | 49.97359 | 8.31364 | 61° | 142km/h | 11544m | 4.1m/s | -51.5°C | 0% | 0hPa | 0V | 00:00:00 | 00:00:00 | 00:00:00 | |
| DM0DOS-11 | 2026-08-31 07:29:47 | 49.97239 | 8.31016 | 61° | 146km/h | 11511m | 4.5m/s | 0°C | 0% | 0hPa | 0V | 00:00:00 | 00:00:00 | 00:00:00 | |
| DL1NUX | 2026-08-31 07:29:46 | 49.97287 | 8.31167 | 62° | 142km/h | 11524m | 3m/s | 0°C | 0% | 0hPa | 0V | 00:00:00 | 00:00:00 | 00:00:00 | |
| DO3MHA-11 | 2026-08-31 07:29:46 | 49.97305 | 8.31215 | 63° | 144km/h | 11528m | 4.1m/s | 0°C | 0% | 0hPa | 4.5V | 00:00:00 | 00:00:00 | 00:00:00 | |
| DF1GD-15 | 2026-08-31 07:29:42 | 49.97238 | 8.31017 | 64° | 146km/h | 11515m | 4.4m/s | -51.5°C | 0% | 0hPa | 4.5V | 00:00:00 | 00:00:00 | 00:00:00 | |
| BIOWL1-15 | 2026-08-31 07:29:40 | 49.97186 | 8.30869 | 62° | 148km/h | 11503m | 3.3m/s | -51.6°C | 0% | 0hPa | 4.5V | 00:00:00 | 00:00:00 | 00:00:00 | |
| DM0DOS-11 | 2026-08-31 07:29:37 | 49.97065 | 8.30515 | 60° | 146km/h | 11467m | 3.9m/s | 0°C | 0% | 0hPa | 0V | 00:00:00 | 00:00:00 | 00:00:00 | |
| DL1NUX | 2026-08-31 07:29:36 | 49.97120 | 8.30669 | 61° | 151km/h | 11481m | 4.9m/s | 0°C | 0% | 0hPa | 0V | 00:00:00 | 00:00:00 | 00:00:00 | |
| DO3MHA-11 | 2026-08-31 07:29:36 | 49.97138 | 8.30720 | 63° | 146km/h | 11485m | 4.2m/s | 0°C | 0% | 0hPa | 4.5V | 00:00:00 | 00:00:00 | 00:00:00 | |
| DB0NH | 2026-08-31 07:29:35 | 49.97120 | 8.30669 | 62° | 148km/h | 11472m | 4.9m/s | 0°C | 0% | 0hPa | 4.5V | 00:00:00 | 00:00:00 | 00:00:00 | |
| DO3DL | 2026-08-31 07:29:32 | 49.97065 | 8.30515 | 62° | 146km/h | 11463m | 5.7m/s | -51.6°C | 0% | 0hPa | 4.5V | 00:00:00 | 00:00:00 | 00:00:00 | |
| BIOWL1-15 | 2026-08-31 07:29:31 | 49.96994 | 8.30318 | 60° | 150km/h | 11453m | 5.4m/s | -51.7°C | 0% | 0hPa | 4.5V | 00:00:00 | 00:00:00 | 00:00:00 | |
| CB1BUN | 2026-08-31 07:29:30 | 49.97029 | 8.30416 | 63° | 141km/h | 11463m | 5.7m/s | -51.6°C | 0% | 0hPa | 0V | 00:00:00 | 00:00:00 | 00:00:00 | |
| HEMX73-11 | 2026-08-31 07:29:29 | 49.97012 | 8.30368 | 62° | 141km/h | 11458m | 2.9m/s | -51.7°C | 0% | 0hPa | 0V | 00:00:00 | 00:00:00 | 00:00:00 | |
| DM0DOS-11 | 2026-08-31 07:29:27 | 49.96879 | 8.30022 | 61° | 142km/h | 11423m | 5.1m/s | 0°C | 0% | 0hPa | 0V | 00:00:00 | 00:00:00 | 00:00:00 | |
| DL1NUX | 2026-08-31 07:29:26 | 49.96935 | 8.30170 | 58° | 144km/h | 11436m | 4m/s | 0°C | 0% | 0hPa | 0V | 00:00:00 | 00:00:00 | 00:00:00 | |
| DO3MHA-11 | 2026-08-31 07:29:26 | 49.96954 | 8.30217 | 58° | 148km/h | 11440m | 3.8m/s | 0°C | 0% | 0hPa | 0V | 00:00:00 | 00:00:00 | 00:00:00 | |
| DO3DL | 2026-08-31 07:29:24 | 49.96915 | 8.30121 | 60° | 146km/h | 11436m | 4.0m/s | -51.8°C | 0% | 0hPa | 0V | 00:00:00 | 00:00:00 | 00:00:00 | |
| DF1GD-15 | 2026-08-31 07:29:21 | 49.96861 | 8.29973 | 60° | 148km/h | 11423m | 5.1m/s | -51.8°C | 0% | 0hPa | 0V | 00:00:00 | 00:00:00 | 00:00:00 | |
| DO3DL | 2026-08-31 07:29:18 | 49.96782 | 8.29772 | 62° | 146km/h | 11406m | 4.2m/s | -51.7°C | 0% | 0hPa | 0V | 00:00:00 | 00:00:00 | 00:00:00 | |
| BIOWL1-15 | 2026-08-31 07:29:18 | 49.96782 | 8.29772 | 61° | 146km/h | 11405m | 4.2m/s | -51.7°C | 0% | 0hPa | 4.5V | 00:00:00 | 00:00:00 | 00:00:00 | |
| DM0DOS-11 | 2026-08-31 07:29:17 | 49.96685 | 8.29522 | 59° | 153km/h | 11380m | 4.8m/s | 0°C | 0% | 0hPa | 0V | 00:00:00 | 00:00:00 | 00:00:00 | |
| DL1NUX | 2026-08-31 07:29:16 | 49.96743 | 8.29671 | 58° | 150km/h | 11393m | 3.9m/s | 0°C | 0% | 0hPa | 0V | 00:00:00 | 00:00:00 | 00:00:00 | |
| DO3MHA-11 | 2026-08-31 07:29:16 | 49.96763 | 8.29720 | 59° | 150km/h | 11397m | 4.1m/s | 0°C | 0% | 0hPa | 4.5V | 00:00:00 | 00:00:00 | 00:00:00 | |
| NBG1-10 | 2026-08-31 07:29:13 | 49.96705 | 8.29572 | 59° | 151km/h | 11385m | 4.0m/s | 0°C | 0% | 0hPa | 4.5V | 00:00:00 | 00:00:00 | 00:00:00 | |
| BIOWL1-15 | 2026-08-31 07:29:11 | 49.96591 | 8.29266 | 60° | 146km/h | 11362m | 4.5m/s | -51.5°C | 0% | 0hPa | 4.5V | 00:00:00 | 00:00:00 | 00:00:00 | |
| DO3DL | 2026-08-31 07:29:11 | 49.96666 | 8.29471 | 61° | 151km/h | 11381m | 4.8m/s | -51.5°C | 0% | 0hPa | 0V | 00:00:00 | 00:00:00 | 00:00:00 | |
| DL1NUX | 2026-08-31 07:29:10 | 49.96553 | 8.29166 | 59° | 155km/h | 11350m | 5.1m/s | 0°C | 0% | 0hPa | 0V | 00:00:00 | 00:00:00 | 00:00:00 | |
| DF2AP-13 | 2026-08-31 07:29:10 | 49.96647 | 8.29420 | 61° | 153km/h | 11372m | 4.9m/s | 0°C | 0% | 0hPa | 0V | 00:00:00 | 00:00:00 | 00:00:00 | |
| HEMX73-11 | 2026-08-31 07:29:09 | 49.96610 | 8.29317 | 61° | 151km/h | 11367m | 4.3m/s | -51.5°C | 0% | 0hPa | 0V | 00:00:00 | 00:00:00 | 00:00:00 | |
| DM0DOS-11 | 2026-08-31 07:29:07 | 49.96496 | 8.29010 | 60° | 150km/h | 11337m | 3.8m/s | 0°C | 0% | 0hPa | 0V | 00:00:00 | 00:00:00 | 00:00:00 | |
| DO3MHA-11 | 2026-08-31 07:29:06 | 49.96572 | 8.29217 | 60° | 151km/h | 11355m | 4.5m/s | 0°C | 0% | 0hPa | 0V | 00:00:00 | 00:00:00 | 00:00:00 | |
| DB0NH | 2026-08-31 07:29:05 | 49.96553 | 8.29166 | 60° | 153km/h | 11350m | 5.0m/s | 0°C | 0% | 0hPa | 0V | 00:00:00 | 00:00:00 | 00:00:00 | |
| DO3DL | 2026-08-31 07:29:04 | 49.96534 | 8.29113 | 61° | 155km/h | 11350m | 5.1m/s | -51.4°C | 0% | 0hPa | 0V | 00:00:00 | 00:00:00 | 00:00:00 | |
| DF1GD-15 | 2026-08-31 07:29:01 | 49.96477 | 8.28959 | 60° | 153km/h | 11338m | 3.8m/s | -51.5°C | 0% | 0hPa | 0V | 00:00:00 | 00:00:00 | 00:00:00 | |
| DO2KSM | 2026-08-31 07:28:59 | 49.96439 | 8.28857 | 63° | 144km/h | 11329m | 3.9m/s | -51.5°C | 0% | 0hPa | 0V | 00:00:00 | 00:00:00 | 00:00:00 | |
| DO3DL | 2026-08-31 07:28:58 | 49.96421 | 8.28807 | 62° | 150km/h | 11325m | 4.8m/s | -51.5°C | 0% | 0hPa | 0V | 00:00:00 | 00:00:00 | 00:00:00 | |
| DM0DOS-11 | 2026-08-31 07:28:57 | 49.96307 | 8.28487 | 63° | 151km/h | 11292m | 3.5m/s | 0°C | 0% | 0hPa | 0V | 00:00:00 | 00:00:00 | 00:00:00 | |
| BIOWL1-15 | 2026-08-31 07:28:56 | 49.96381 | 8.28702 | 59° | 159km/h | 11315m | 5.2m/s | -51.6°C | 0% | 0hPa | 4.5V | 00:00:00 | 00:00:00 | 00:00:00 | |
| DO3MHA-11 | 2026-08-31 07:28:56 | 49.96381 | 8.28701 | 60° | 155km/h | 11311m | 3.6m/s | 0°C | 0% | 0hPa | 0V | 00:00:00 | 00:00:00 | 00:00:00 | |
| DO3DL | 2026-08-31 07:28:51 | 49.96290 | 8.28434 | 64° | 150km/h | 11292m | 3.5m/s | -51.8°C | 0% | 0hPa | 0V | 00:00:00 | 00:00:00 | 00:00:00 | |
| CB1BUN | 2026-08-31 07:28:49 | 49.96253 | 8.28326 | 63° | 161km/h | 11283m | 4.6m/s | -51.9°C | 0% | 0hPa | 0V | 00:00:00 | 00:00:00 | 00:00:00 | |
| DL1NUX | 2026-08-31 07:28:48 | 49.96180 | 8.28111 | 62° | 153km/h | 11261m | 3.7m/s | 0°C | 0% | 0hPa | 0V | 00:00:00 | 00:00:00 | 00:00:00 | |
| BIOWL1-15 | 2026-08-31 07:28:48 | 49.96179 | 8.28111 | 63° | 153km/h | 11265m | 4.6m/s | -51.9°C | 0% | 0hPa | 4.5V | 00:00:00 | 00:00:00 | 00:00:00 | |
| DM0DOS-11 | 2026-08-31 07:28:47 | 49.96127 | 8.27949 | 63° | 159km/h | 11247m | 4.6m/s | 0°C | 0% | 0hPa | 0V | 00:00:00 | 00:00:00 | 00:00:00 | |
| DO3MHA-11 | 2026-08-31 07:28:46 | 49.96198 | 8.28164 | 63° | 155km/h | 11265m | 4.5m/s | 0°C | 0% | 0hPa | 0V | 00:00:00 | 00:00:00 | 00:00:00 | |
| DO3DL | 2026-08-31 07:28:45 | 49.96180 | 8.28111 | 64° | 153km/h | 11265m | 4.6m/s | -51.9°C | 0% | 0hPa | 0V | 00:00:00 | 00:00:00 | 00:00:00 | |
| BEGRI65-1 | 2026-08-31 07:28:44 | 49.96162 | 8.28058 | 64° | 148km/h | 11261m | 3.7m/s | -51.9°C | 0% | 0hPa | 0V | 00:00:00 | 00:00:00 | 00:00:00 | |
| NBG1-10 | 2026-08-31 07:28:40 | 49.96092 | 8.27843 | 64° | 157km/h | 11239m | 4.7m/s | 0°C | 0% | 0hPa | 0V | 00:00:00 | 00:00:00 | 00:00:00 | |
| DL1NUX | 2026-08-31 07:28:38 | 49.96002 | 8.27576 | 65° | 150km/h | 11211m | 4.3m/s | 0°C | 0% | 0hPa | 0V | 00:00:00 | 00:00:00 | 00:00:00 | |
| DM0DOS-11 | 2026-08-31 07:28:37 | 49.95951 | 8.27410 | 62° | 155km/h | 11202m | 5.3m/s | 0°C | 0% | 0hPa | 0V | 00:00:00 | 00:00:00 | 00:00:00 | |
| DO3MHA-11 | 2026-08-31 07:28:36 | 49.96020 | 8.27628 | 61° | 153km/h | 11221m | 4.1m/s | 0°C | 0% | 0hPa | 4.5V | 00:00:00 | 00:00:00 | 00:00:00 | |
| BIOWL1-15 | 2026-08-31 07:28:35 | 49.95985 | 8.27521 | 66° | 157km/h | 11216m | 5.1m/s | -52.2°C | 0% | 0hPa | 4.5V | 00:00:00 | 00:00:00 | 00:00:00 | |
| DB0NH | 2026-08-31 07:28:35 | 49.96002 | 8.27578 | 66° | 157km/h | 11217m | 5.1m/s | 0°C | 0% | 0hPa | 0V | 00:00:00 | 00:00:00 | 00:00:00 | |
| DO3DL | 2026-08-31 07:28:32 | 49.95951 | 8.27410 | 64° | 155km/h | 11207m | 4.1m/s | -52.4°C | 0% | 0hPa | 0V | 00:00:00 | 00:00:00 | 00:00:00 | |
| CB1BUN | 2026-08-31 07:28:29 | 49.95896 | 8.27250 | 62° | 148km/h | 11193m | 5.2m/s | -52.8°C | 0% | 0hPa | 0V | 00:00:00 | 00:00:00 | 00:00:00 | |
| DL1NUX | 2026-08-31 07:28:28 | 49.95825 | 8.27037 | 60° | 155km/h | 11169m | 5.3m/s | 0°C | 0% | 0hPa | 0V | 00:00:00 | 00:00:00 | 00:00:00 | |
| HEMX73-11 | 2026-08-31 07:28:28 | 49.95861 | 8.27145 | 66° | 155km/h | 11184m | 4.4m/s | -52.8°C | 0% | 0hPa | 0V | 00:00:00 | 00:00:00 | 00:00:00 | |
| DM0DOS-11 | 2026-08-31 07:28:27 | 49.95768 | 8.26875 | 63° | 157km/h | 11155m | 4.5m/s | 0°C | 0% | 0hPa | 0V | 00:00:00 | 00:00:00 | 00:00:00 | |
| DO3MHA-11 | 2026-08-31 07:28:26 | 49.95843 | 8.27090 | 63° | 157km/h | 11174m | 3.8m/s | 0°C | 0% | 0hPa | 4.5V | 00:00:00 | 00:00:00 | 00:00:00 | |
| BIOWL1-15 | 2026-08-31 07:28:25 | 49.95806 | 8.26983 | 62° | 159km/h | 11169m | 5.3m/s | -52.9°C | 0% | 0hPa | 4.5V | 00:00:00 | 00:00:00 | 00:00:00 | |
| BEGRI65-1 | 2026-08-31 07:28:23 | 49.95787 | 8.26928 | 64° | 159km/h | 11164m | 4.0m/s | -52.9°C | 0% | 0hPa | 0V | 00:00:00 | 00:00:00 | 00:00:00 | |
| DB0UT-7 | 2026-08-31 07:28:21 | 49.95750 | 8.26819 | 64° | 159km/h | 11150m | 4.3m/s | 0°C | 0% | 0hPa | 0V | 00:00:00 | 00:00:00 | 00:00:00 | |
| DF1GD-15 | 2026-08-31 07:28:19 | 49.95715 | 8.26708 | 65° | 157km/h | 11146m | 5.3m/s | -53.1°C | 0% | 0hPa | 0V | 00:00:00 | 00:00:00 | 00:00:00 | |
| DL1NUX | 2026-08-31 07:28:18 | 49.95644 | 8.26490 | 61° | 155km/h | 11122m | 5.2m/s | 0°C | 0% | 0hPa | 0V | 00:00:00 | 00:00:00 | 00:00:00 | |
| DO3MHA-11 | 2026-08-31 07:28:16 | 49.95662 | 8.26545 | 62° | 159km/h | 11127m | 4.5m/s | 0°C | 0% | 0hPa | 4.6V | 00:00:00 | 00:00:00 | 00:00:00 | |
| BIOWL1-15 | 2026-08-31 07:28:15 | 49.95608 | 8.26379 | 66° | 162km/h | 11118m | 4.4m/s | -53.1°C | 0% | 0hPa | 4.6V | 00:00:00 | 00:00:00 | 00:00:00 | |
| DF2AP-13 | 2026-08-31 07:28:10 | 49.95554 | 8.26210 | 62° | 161km/h | 11098m | 4.7m/s | 0°C | 0% | 0hPa | 0V | 00:00:00 | 00:00:00 | 00:00:00 | |
| DL1NUX | 2026-08-31 07:28:08 | 49.95466 | 8.25928 | 62° | 159km/h | 11075m | 5.7m/s | 0°C | 0% | 0hPa | 0V | 00:00:00 | 00:00:00 | 00:00:00 | |
| DM0DOS-11 | 2026-08-31 07:28:07 | 49.95412 | 8.25764 | 65° | 159km/h | 11061m | 3.6m/s | 0°C | 0% | 0hPa | 0V | 00:00:00 | 00:00:00 | 00:00:00 | |
| NBG1-10 | 2026-08-31 07:28:07 | 49.95500 | 8.26041 | 65° | 161km/h | 11084m | 5.4m/s | 0°C | 0% | 0hPa | 4.6V | 00:00:00 | 00:00:00 | 00:00:00 | |
| DO3MHA-11 | 2026-08-31 07:28:06 | 49.95483 | 8.25985 | 65° | 162km/h | 11080m | 4.0m/s | 0°C | 0% | 0hPa | 4.6V | 00:00:00 | 00:00:00 | 00:00:00 | |
| DB0NH | 2026-08-31 07:28:05 | 49.95466 | 8.25928 | 63° | 161km/h | 11075m | 5.6m/s | 0°C | 0% | 0hPa | 4.6V | 00:00:00 | 00:00:00 | 00:00:00 | |
| BIOWL1-15 | 2026-08-31 07:28:03 | 49.95412 | 8.25764 | 66° | 159km/h | 11065m | 6m/s | -53.3°C | 0% | 0hPa | 4.6V | 00:00:00 | 00:00:00 | 00:00:00 | |
| DD1CC8 | 2026-08-31 07:28:03 | 49.95412 | 8.25764 | 65° | 157km/h | 11065m | 6.0m/s | -53.3°C | -1.0% | -1.0hPa | 0V | 00:00:00 | 00:00:00 | 00:00:00 | |
| DL8DAS-14 | 2026-08-31 07:28:02 | 49.95396 | 8.25705 | 68° | 161km/h | 11061m | 3.6m/s | -53.2°C | -1.0% | -1.0hPa | 0V | 00:00:00 | 00:00:00 | 00:00:00 | |
| DO3DL | 2026-08-31 07:28:00 | 49.95381 | 8.25647 | 67° | 162km/h | 11057m | 4.9m/s | -53.2°C | 0% | 0hPa | 0V | 00:00:00 | 00:00:00 | 00:00:00 | |
| DF1GD-15 | 2026-08-31 07:27:59 | 49.95363 | 8.25590 | 63° | 162km/h | 11053m | 3.5m/s | -53.2°C | 0% | 0hPa | 0V | 00:00:00 | 00:00:00 | 00:00:00 | |
| DL1NUX | 2026-08-31 07:27:58 | 49.95291 | 8.25361 | 64° | 153km/h | 11031m | 5.3m/s | 0°C | 0% | 0hPa | 0V | 00:00:00 | 00:00:00 | 00:00:00 | |
| DM0DOS-11 | 2026-08-31 07:27:57 | 49.95243 | 8.25194 | 62° | 162km/h | 11018m | 3.4m/s | 0°C | 0% | 0hPa | 0V | 00:00:00 | 00:00:00 | 00:00:00 | |
| SO1NDE-10 | 2026-08-31 07:27:56 | 49.95308 | 8.25417 | 66° | 161km/h | 11036m | 4.5m/s | 0°C | 0% | 0hPa | 4.6V | 00:00:00 | 00:00:00 | 00:00:00 | |
| DO3DL | 2026-08-31 07:27:53 | 49.95259 | 8.25250 | 68° | 159km/h | 11027m | 3.6m/s | -52.9°C | 0% | 0hPa | 4.6V | 00:00:00 | 00:00:00 | 00:00:00 | |
| BIOWL1-15 | 2026-08-31 07:27:52 | 49.95224 | 8.25135 | 62° | 164km/h | 11018m | 3.4m/s | -52.9°C | 0% | 0hPa | 4.6V | 00:00:00 | 00:00:00 | 00:00:00 | |
| DB0UT-7 | 2026-08-31 07:27:51 | 49.95224 | 8.25135 | 63° | 162km/h | 11014m | 5.0m/s | 0°C | 0% | 0hPa | 0V | 00:00:00 | 00:00:00 | 00:00:00 | |
| DL1NUX | 2026-08-31 07:27:48 | 49.95121 | 8.24789 | 65° | 170km/h | 10988m | 4.9m/s | 0°C | 0% | 0hPa | 0V | 00:00:00 | 00:00:00 | 00:00:00 | |
| DM0DOS-11 | 2026-08-31 07:27:47 | 49.95067 | 8.24613 | 67° | 155km/h | 10976m | 2.3m/s | 0°C | 0% | 0hPa | 0V | 00:00:00 | 00:00:00 | 00:00:00 | |
| HEMX73-11 | 2026-08-31 07:27:46 | 49.95138 | 8.24847 | 66° | 161km/h | 10997m | 5.1m/s | -52.7°C | 0% | 0hPa | 4.6V | 00:00:00 | 00:00:00 | 00:00:00 | |
| BIOWL7-15 | 2026-08-31 07:27:44 | 49.95102 | 8.24729 | 64° | 172km/h | 10988m | 4.9m/s | -52.7°C | 0% | 0hPa | 4.6V | 00:00:00 | 00:00:00 | 00:00:00 | |
| BIOWL1-15 | 2026-08-31 07:27:41 | 49.95053 | 8.24558 | 68° | 148km/h | 10976m | 2.3m/s | -52.6°C | 0% | 0hPa | 4.6V | 00:00:00 | 00:00:00 | 00:00:00 | |
| DF2AP-13 | 2026-08-31 07:27:40 | 49.95038 | 8.24504 | 65° | 162km/h | 10969m | 3.9m/s | 0°C | 0% | 0hPa | 0V | 00:00:00 | 00:00:00 | 00:00:00 | |
| BEGRI65-1 | 2026-08-31 07:27:39 | 49.95020 | 8.24450 | 62° | 162km/h | 10969m | 3.9m/s | -52.6°C | 0% | 0hPa | 0V | 00:00:00 | 00:00:00 | 00:00:00 | |
| DL1NUX | 2026-08-31 07:27:38 | 49.94948 | 8.24214 | 63° | 153km/h | 10949m | 4.5m/s | 0°C | 0% | 0hPa | 0V | 00:00:00 | 00:00:00 | 00:00:00 | |
| DM0DOS-11 | 2026-08-31 07:27:37 | 49.94895 | 8.24048 | 61° | 170km/h | 10937m | 2.8m/s | 0°C | 0% | 0hPa | 0V | 00:00:00 | 00:00:00 | 00:00:00 | |
| DO2KSM | 2026-08-31 07:27:36 | 49.94965 | 8.24270 | 68° | 166km/h | 10957m | 4.6m/s | -52.6°C | 0% | 0hPa | 4.6V | 00:00:00 | 00:00:00 | 00:00:00 | |
| DB0NH | 2026-08-31 07:27:35 | 49.94948 | 8.24214 | 64° | 162km/h | 10949m | 4.5m/s | 0°C | 0% | 0hPa | 4.6V | 00:00:00 | 00:00:00 | 00:00:00 | |
| NBG1-10 | 2026-08-31 07:27:34 | 49.94932 | 8.24160 | 64° | 162km/h | 10941m | 6.0m/s | 0°C | 0% | 0hPa | 4.6V | 00:00:00 | 00:00:00 | 00:00:00 | |
| DN1GJH-1 | 2026-08-31 07:27:32 | 49.94895 | 8.24049 | 63° | 170km/h | 10937m | 2.8m/s | -52.6°C | 0% | 0hPa | 4.6V | 00:00:00 | 00:00:00 | 00:00:00 | |
| BIOWL1-15 | 2026-08-31 07:27:31 | 49.94856 | 8.23924 | 67° | 175km/h | 10933m | 4.5m/s | -52.6°C | 0% | 0hPa | 4.6V | 00:00:00 | 00:00:00 | 00:00:00 | |
| DL1NUX | 2026-08-31 07:27:28 | 49.94763 | 8.23639 | 65° | 183km/h | 10908m | 3.2m/s | 0°C | 0% | 0hPa | 0V | 00:00:00 | 00:00:00 | 00:00:00 | |
| CB1BUN | 2026-08-31 07:27:27 | 49.94805 | 8.23759 | 58° | 159km/h | 10922m | 2.6m/s | -52.5°C | 0% | 0hPa | 0V | 00:00:00 | 00:00:00 | 00:00:00 | |
| DM0DOS-11 | 2026-08-31 07:27:26 | 49.94693 | 8.23414 | 58° | 150km/h | 10893m | 6.3m/s | 0°C | 0% | 0hPa | 0V | 00:00:00 | 00:00:00 | 00:00:00 | |
| SO1NDE-10 | 2026-08-31 07:27:26 | 49.94783 | 8.23704 | 66° | 162km/h | 10912m | 5.5m/s | 0°C | 0% | 0hPa | 4.6V | 00:00:00 | 00:00:00 | 00:00:00 | |
| HEMX73-11 | 2026-08-31 07:27:25 | 49.94762 | 8.23639 | 67° | 183km/h | 10912m | 5.5m/s | -52.4°C | 0% | 0hPa | 4.6V | 00:00:00 | 00:00:00 | 00:00:00 | |
| DB0UT-7 | 2026-08-31 07:27:21 | 49.94693 | 8.23414 | 59° | 162km/h | 10893m | 6.3m/s | 0°C | 0% | 0hPa | 4.6V | 00:00:00 | 00:00:00 | 00:00:00 | |
| BIOWL1-15 | 2026-08-31 07:27:20 | 49.94649 | 8.23301 | 61° | 188km/h | 10886m | 8.6m/s | -52.2°C | 0% | 0hPa | 4.6V | 00:00:00 | 00:00:00 | 00:00:00 | |
| DL1NUX | 2026-08-31 07:27:18 | 49.94584 | 8.23073 | 55° | 153km/h | 10840m | 5.7m/s | 0°C | 0% | 0hPa | 0V | 00:00:00 | 00:00:00 | 00:00:00 | |
| DO3DL | 2026-08-31 07:27:13 | 49.94545 | 8.22886 | 75° | 193km/h | 10841m | 5.7m/s | -51.9°C | 0% | 0hPa | 4.6V | 00:00:00 | 00:00:00 | 00:00:00 | |
| DF2AP-13 | 2026-08-31 07:27:10 | 49.94501 | 8.22780 | 55° | 159km/h | 10820m | 4.0m/s | 0°C | 0% | 0hPa | 4.6V | 00:00:00 | 00:00:00 | 00:00:00 | |
| BIOWL1-15 | 2026-08-31 07:27:09 | 49.94459 | 8.22671 | 64° | 179km/h | 10814m | 9.3m/s | -51.6°C | 0% | 0hPa | 4.6V | 00:00:00 | 00:00:00 | 00:00:00 | |
| DL1NUX | 2026-08-31 07:27:08 | 49.94369 | 8.22373 | 68° | 153km/h | 10777m | 4.5m/s | 0°C | 0% | 0hPa | 0V | 00:00:00 | 00:00:00 | 00:00:00 | |
| CB1BUN | 2026-08-31 07:27:07 | 49.94441 | 8.22605 | 70° | 192km/h | 10806m | 6.6m/s | -51.5°C | 0% | 0hPa | 0V | 00:00:00 | 00:00:00 | 00:00:00 | |
| DB0NH | 2026-08-31 07:27:05 | 49.94405 | 8.22475 | 62° | 159km/h | 10787m | 5.1m/s | 0°C | 0% | 0hPa | 0V | 00:00:00 | 00:00:00 | 00:00:00 | |
| DF3TZ-5 | 2026-08-31 07:27:04 | 49.94369 | 8.22370 | 64° | 151km/h | 10782m | 5.5m/s | -51.3°C | -1.0% | -1.0hPa | 0V | 00:00:00 | 00:00:00 | 00:00:00 | |
| DM0DOS-11 | 2026-08-31 07:27:03 | 49.94287 | 8.22080 | 65° | 157km/h | 10752m | 5.5m/s | 0°C | 0% | 0hPa | 0V | 00:00:00 | 00:00:00 | 00:00:00 | |
| DO3MHA-11 | 2026-08-31 07:27:01 | 49.94337 | 8.22252 | 68° | 159km/h | 10766m | 3.9m/s | 0°C | 0% | 0hPa | 0V | 00:00:00 | 00:00:00 | 00:00:00 | |
| DO3DL | 2026-08-31 07:26:59 | 49.94303 | 8.22136 | 67° | 159km/h | 10761m | 5.8m/s | -51.1°C | 0% | 0hPa | 0V | 00:00:00 | 00:00:00 | 00:00:00 | |
| DL1NUX | 2026-08-31 07:26:58 | 49.94207 | 8.21796 | 65° | 157km/h | 10731m | 3.2m/s | 0°C | 0% | 0hPa | 0V | 00:00:00 | 00:00:00 | 00:00:00 | |
| BIOWL1-15 | 2026-08-31 07:26:58 | 49.94271 | 8.22025 | 65° | 153km/h | 10752m | 5.6m/s | -51.1°C | 0% | 0hPa | 4.6V | 00:00:00 | 00:00:00 | 00:00:00 | |
| DF1GD-15 | 2026-08-31 07:26:57 | 49.94271 | 8.22025 | 66° | 153km/h | 10752m | 5.6m/s | -51.1°C | 0% | 0hPa | 0V | 00:00:00 | 00:00:00 | 00:00:00 | |
| SO1NDE-10 | 2026-08-31 07:26:56 | 49.94255 | 8.21971 | 68° | 159km/h | 10743m | 3.7m/s | 0°C | 0% | 0hPa | 0V | 00:00:00 | 00:00:00 | 00:00:00 | |
| DO3DL | 2026-08-31 07:26:53 | 49.94207 | 8.21796 | 66° | 157km/h | 10735m | 3.6m/s | -51.1°C | 0% | 0hPa | 0V | 00:00:00 | 00:00:00 | 00:00:00 | |
| DM0DOS-11 | 2026-08-31 07:26:51 | 49.94129 | 8.21510 | 67° | 159km/h | 10712m | 3.5m/s | 0°C | 0% | 0hPa | 0V | 00:00:00 | 00:00:00 | 00:00:00 | |
| DO3MHA-11 | 2026-08-31 07:26:51 | 49.94174 | 8.21683 | 68° | 159km/h | 10723m | 3.7m/s | 0°C | 0% | 0hPa | 0V | 00:00:00 | 00:00:00 | 00:00:00 | |
| DL1NUX | 2026-08-31 07:26:48 | 49.94051 | 8.21222 | 68° | 164km/h | 10693m | 4.3m/s | 0°C | 0% | 0hPa | 0V | 00:00:00 | 00:00:00 | 00:00:00 | |
| BIOWL1-15 | 2026-08-31 07:26:48 | 49.94113 | 8.21452 | 67° | 164km/h | 10712m | 3.6m/s | -51°C | 0% | 0hPa | 4.6V | 00:00:00 | 00:00:00 | 00:00:00 | |
| CB1BUN | 2026-08-31 07:26:47 | 49.94097 | 8.21393 | 68° | 161km/h | 10709m | 4.3m/s | -50.9°C | 0% | 0hPa | 0V | 00:00:00 | 00:00:00 | 00:00:00 | |
| BEGRI65-1 | 2026-08-31 07:26:44 | 49.94020 | 8.21106 | 68° | 155km/h | 10690m | 3.0m/s | -51.0°C | 0% | 0hPa | 0V | 00:00:00 | 00:00:00 | 00:00:00 | |
| DM0DOS-11 | 2026-08-31 07:26:43 | 49.93972 | 8.20933 | 67° | 161km/h | 10670m | 4.4m/s | 0°C | 0% | 0hPa | 0V | 00:00:00 | 00:00:00 | 00:00:00 | |
| DL8DAS-15 | 2026-08-31 07:26:42 | 49.94035 | 8.21164 | 69° | 162km/h | 10693m | 4.3m/s | -51.0°C | 0% | 0hPa | 0V | 00:00:00 | 00:00:00 | 00:00:00 | |
| DO3MHA-11 | 2026-08-31 07:26:41 | 49.94020 | 8.21108 | 67° | 159km/h | 10686m | 4.3m/s | 0°C | 0% | 0hPa | 0V | 00:00:00 | 00:00:00 | 00:00:00 | |
| DO3DL | 2026-08-31 07:26:40 | 49.94004 | 8.21050 | 67° | 159km/h | 10686m | 4.3m/s | -51.0°C | 0% | 0hPa | 0V | 00:00:00 | 00:00:00 | 00:00:00 | |
| DL1NUX | 2026-08-31 07:26:38 | 49.93896 | 8.20651 | 66° | 155km/h | 10654m | 4.4m/s | 0°C | 0% | 0hPa | 0V | 00:00:00 | 00:00:00 | 00:00:00 | |
| DF2AP-13 | 2026-08-31 07:26:37 | 49.93956 | 8.20876 | 68° | 159km/h | 10670m | 4.3m/s | 0°C | 0% | 0hPa | 4.6V | 00:00:00 | 00:00:00 | 00:00:00 | |
| BIOWL1-15 | 2026-08-31 07:26:36 | 49.93942 | 8.20820 | 68° | 155km/h | 10670m | 4.4m/s | -51°C | 0% | 0hPa | 4.6V | 00:00:00 | 00:00:00 | 00:00:00 | |
| DO2KSM | 2026-08-31 07:26:36 | 49.93942 | 8.20819 | 69° | 155km/h | 10670m | 4.4m/s | -51.0°C | 0% | 0hPa | 0V | 00:00:00 | 00:00:00 | 00:00:00 | |
| DB0NH | 2026-08-31 07:26:35 | 49.93927 | 8.20762 | 67° | 159km/h | 10662m | 4.9m/s | 0°C | 0% | 0hPa | 0V | 00:00:00 | 00:00:00 | 00:00:00 | |
| DO3DL | 2026-08-31 07:26:33 | 49.93896 | 8.20651 | 68° | 155km/h | 10658m | 3.3m/s | -51.0°C | 0% | 0hPa | 0V | 00:00:00 | 00:00:00 | 00:00:00 | |
| DM0DOS-11 | 2026-08-31 07:26:31 | 49.93816 | 8.20366 | 68° | 159km/h | 10636m | 3.2m/s | 0°C | 0% | 0hPa | 0V | 00:00:00 | 00:00:00 | 00:00:00 | |
| DO3MHA-11 | 2026-08-31 07:26:31 | 49.93863 | 8.20535 | 67° | 159km/h | 10646m | 3.9m/s | 0°C | 0% | 0hPa | 0V | 00:00:00 | 00:00:00 | 00:00:00 | |
| DL1NUX | 2026-08-31 07:26:28 | 49.93736 | 8.20080 | 66° | 159km/h | 10618m | 3.9m/s | 0°C | 0% | 0hPa | 0V | 00:00:00 | 00:00:00 | 00:00:00 | |
| NBG1-10 | 2026-08-31 07:26:28 | 49.93816 | 8.20366 | 68° | 159km/h | 10640m | 3.8m/s | 0°C | 0% | 0hPa | 4.6V | 00:00:00 | 00:00:00 | 00:00:00 | |
| DO3DL | 2026-08-31 07:26:27 | 49.93801 | 8.20308 | 69° | 162km/h | 10636m | 3.2m/s | -50.8°C | 0% | 0hPa | 4.6V | 00:00:00 | 00:00:00 | 00:00:00 | |
| BIOWL1-15 | 2026-08-31 07:26:26 | 49.93770 | 8.20193 | 65° | 157km/h | 10629m | 4m/s | -50.8°C | 0% | 0hPa | 4.6V | 00:00:00 | 00:00:00 | 00:00:00 | |
| DH7VM-15 | 2026-08-31 07:26:24 | 49.93753 | 8.20137 | 65° | 161km/h | 10626m | 2.7m/s | -50.8°C | 0% | 0hPa | 0V | 00:00:00 | 00:00:00 | 00:00:00 | |
| DM0DOS-11 | 2026-08-31 07:26:23 | 49.93662 | 8.19794 | 65° | 150km/h | 10599m | 4.1m/s | 0°C | 0% | 0hPa | 0V | 00:00:00 | 00:00:00 | 00:00:00 | |
| DO3DL | 2026-08-31 07:26:21 | 49.93693 | 8.19904 | 68° | 159km/h | 10610m | 2.6m/s | -50.7°C | 0% | 0hPa | 4.6V | 00:00:00 | 00:00:00 | 00:00:00 | |
| BEGRI65-1 | 2026-08-31 07:26:18 | 49.93662 | 8.19793 | 66° | 150km/h | 10602m | 3.2m/s | -50.6°C | 0% | 0hPa | 4.6V | 00:00:00 | 00:00:00 | 00:00:00 | |
| DF1GD-15 | 2026-08-31 07:26:16 | 49.93629 | 8.19680 | 69° | 164km/h | 10595m | 3.1m/s | -50.6°C | 0% | 0hPa | 4.6V | 00:00:00 | 00:00:00 | 00:00:00 | |
| BIOWL1-15 | 2026-08-31 07:26:15 | 49.93602 | 8.19563 | 71° | 153km/h | 10588m | 2.7m/s | -50.5°C | 0% | 0hPa | 4.6V | 00:00:00 | 00:00:00 | 00:00:00 | |
| DO3DL | 2026-08-31 07:26:14 | 49.93602 | 8.19563 | 72° | 153km/h | 10588m | 2.7m/s | -50.5°C | 0% | 0hPa | 0V | 00:00:00 | 00:00:00 | 00:00:00 | |
| DM0DOS-11 | 2026-08-31 07:26:11 | 49.93510 | 8.19218 | 69° | 155km/h | 10562m | 3.3m/s | 0°C | 0% | 0hPa | 0V | 00:00:00 | 00:00:00 | 00:00:00 | |
| DO3MHA-11 | 2026-08-31 07:26:11 | 49.93555 | 8.19394 | 69° | 159km/h | 10574m | 3.2m/s | 0°C | 0% | 0hPa | 4.6V | 00:00:00 | 00:00:00 | 00:00:00 | |
| DO2KSM | 2026-08-31 07:26:10 | 49.93540 | 8.19335 | 69° | 161km/h | 10574m | 3.2m/s | -50.3°C | 0% | 0hPa | 4.6V | 00:00:00 | 00:00:00 | 00:00:00 | |
| DO3DL | 2026-08-31 07:26:08 | 49.93510 | 8.19218 | 70° | 157km/h | 10567m | 5.0m/s | -50.3°C | 0% | 0hPa | 4.6V | 00:00:00 | 00:00:00 | 00:00:00 | |
| DF2AP-13 | 2026-08-31 07:26:07 | 49.93496 | 8.19164 | 66° | 159km/h | 10559m | 4.2m/s | 0°C | 0% | 0hPa | 4.6V | 00:00:00 | 00:00:00 | 00:00:00 | |
| BIOWL1-15 | 2026-08-31 07:26:06 | 49.93447 | 8.18993 | 68° | 161km/h | 10552m | 4.5m/s | -50.2°C | 0% | 0hPa | 4.6V | 00:00:00 | 00:00:00 | 00:00:00 | |
| CB1BUN | 2026-08-31 07:26:06 | 49.93463 | 8.19051 | 66° | 162km/h | 10556m | 2.9m/s | -50.2°C | 0% | 0hPa | 0V | 00:00:00 | 00:00:00 | 00:00:00 | |
| DB0NH | 2026-08-31 07:26:05 | 49.93463 | 8.19051 | 66° | 159km/h | 10552m | 4.4m/s | 0°C | 0% | 0hPa | 0V | 00:00:00 | 00:00:00 | 00:00:00 | |
| HEMX73-11 | 2026-08-31 07:26:03 | 49.93432 | 8.18935 | 71° | 155km/h | 10548m | 3.1m/s | -50.2°C | 0% | 0hPa | 0V | 00:00:00 | 00:00:00 | 00:00:00 | |
| DJ2DS-15 | 2026-08-31 07:26:02 | 49.93404 | 8.18819 | 67° | 161km/h | 10541m | 2.9m/s | -50.0°C | -1.0% | -1.0hPa | 0V | 00:00:00 | 00:00:00 | 00:00:00 | |
| DM0DOS-11 | 2026-08-31 07:26:01 | 49.93356 | 8.18649 | 67° | 162km/h | 10524m | 4.3m/s | 0°C | 0% | 0hPa | 0V | 00:00:00 | 00:00:00 | 00:00:00 | |
| DO3MHA-11 | 2026-08-31 07:26:01 | 49.93404 | 8.18819 | 68° | 159km/h | 10537m | 5.1m/s | 0°C | 0% | 0hPa | 0V | 00:00:00 | 00:00:00 | 00:00:00 | |
| DL1NUX | 2026-08-31 07:25:58 | 49.93277 | 8.18360 | 65° | 157km/h | 10506m | 2.9m/s | 0°C | 0% | 0hPa | 0V | 00:00:00 | 00:00:00 | 00:00:00 | |
| DH7VM-15 | 2026-08-31 07:25:57 | 49.93340 | 8.18591 | 68° | 162km/h | 10524m | 4.3m/s | -50.0°C | 0% | 0hPa | 4.6V | 00:00:00 | 00:00:00 | 00:00:00 | |
| SO1NDE-10 | 2026-08-31 07:25:56 | 49.93325 | 8.18533 | 69° | 159km/h | 10517m | 4.3m/s | 0°C | 0% | 0hPa | 4.6V | 00:00:00 | 00:00:00 | 00:00:00 | |
| NBG1-10 | 2026-08-31 07:25:55 | 49.93310 | 8.18475 | 69° | 159km/h | 10510m | 4.5m/s | 0°C | 0% | 0hPa | 4.6V | 00:00:00 | 00:00:00 | 00:00:00 | |
| BIOWL1-15 | 2026-08-31 07:25:53 | 49.93277 | 8.18360 | 65° | 157km/h | 10510m | 4.6m/s | -49.9°C | 0% | 0hPa | 4.6V | 00:00:00 | 00:00:00 | 00:00:00 | |
| DM0DOS-11 | 2026-08-31 07:25:51 | 49.93197 | 8.18075 | 66° | 159km/h | 10487m | 3.3m/s | 0°C | 0% | 0hPa | 0V | 00:00:00 | 00:00:00 | 00:00:00 | |
| DO3MHA-11 | 2026-08-31 07:25:51 | 49.93245 | 8.18248 | 67° | 161km/h | 10498m | 3.2m/s | 0°C | 0% | 0hPa | 0V | 00:00:00 | 00:00:00 | 00:00:00 | |
| DO2KSM | 2026-08-31 07:25:49 | 49.93213 | 8.18132 | 69° | 159km/h | 10495m | 4.0m/s | -49.9°C | 0% | 0hPa | 0V | 00:00:00 | 00:00:00 | 00:00:00 | |
| DL1NUX | 2026-08-31 07:25:48 | 49.93117 | 8.17788 | 66° | 170km/h | 10470m | 3.1m/s | 0°C | 0% | 0hPa | 0V | 00:00:00 | 00:00:00 | 00:00:00 | |
| CB1BUN | 2026-08-31 07:25:45 | 49.93148 | 8.17906 | 69° | 153km/h | 10481m | 3.3m/s | -49.9°C | 0% | 0hPa | 4.6V | 00:00:00 | 00:00:00 | 00:00:00 | |
| BIOWL1-15 | 2026-08-31 07:25:44 | 49.93100 | 8.17729 | 67° | 170km/h | 10470m | 3.1m/s | -49.8°C | 0% | 0hPa | 4.6V | 00:00:00 | 00:00:00 | 00:00:00 | |
| HEMX73-11 | 2026-08-31 07:25:43 | 49.93118 | 8.17790 | 68° | 170km/h | 10473m | 4.1m/s | -49.8°C | 0% | 0hPa | 0V | 00:00:00 | 00:00:00 | 00:00:00 | |
| DO3DL | 2026-08-31 07:25:42 | 49.93100 | 8.17729 | 67° | 170km/h | 10470m | 3.1m/s | -49.8°C | 0% | 0hPa | 0V | 00:00:00 | 00:00:00 | 00:00:00 | |
| DM0DOS-11 | 2026-08-31 07:25:41 | 49.93037 | 8.17503 | 67° | 157km/h | 10451m | 3m/s | 0°C | 0% | 0hPa | 0V | 00:00:00 | 00:00:00 | 00:00:00 | |
| DO3MHA-11 | 2026-08-31 07:25:41 | 49.93084 | 8.17669 | 67° | 157km/h | 10463m | 4.3m/s | 0°C | 0% | 0hPa | 0V | 00:00:00 | 00:00:00 | 00:00:00 | |
| DL1NUX | 2026-08-31 07:25:38 | 49.92955 | 8.17218 | 66° | 153km/h | 10433m | 3.7m/s | 0°C | 0% | 0hPa | 0V | 00:00:00 | 00:00:00 | 00:00:00 | |
| DF2AP-13 | 2026-08-31 07:25:37 | 49.93022 | 8.17446 | 69° | 159km/h | 10448m | 4.5m/s | 0°C | 0% | 0hPa | 4.7V | 00:00:00 | 00:00:00 | 00:00:00 | |
| DB0NH | 2026-08-31 07:25:35 | 49.92988 | 8.17330 | 64° | 159km/h | 10441m | 4.0m/s | 0°C | 0% | 0hPa | 4.7V | 00:00:00 | 00:00:00 | 00:00:00 | |
| BIOWL1-15 | 2026-08-31 07:25:34 | 49.92922 | 8.17106 | 66° | 159km/h | 10429m | 3m/s | -49.7°C | 0% | 0hPa | 4.7V | 00:00:00 | 00:00:00 | 00:00:00 | |
| DM0DOS-11 | 2026-08-31 07:25:31 | 49.92875 | 8.16932 | 65° | 166km/h | 10415m | 3.8m/s | 0°C | 0% | 0hPa | 0V | 00:00:00 | 00:00:00 | 00:00:00 | |
| DO3MHA-11 | 2026-08-31 07:25:31 | 49.92922 | 8.17106 | 66° | 159km/h | 10426m | 3.9m/s | 0°C | 0% | 0hPa | 0V | 00:00:00 | 00:00:00 | 00:00:00 | |
| DO3DL | 2026-08-31 07:25:29 | 49.92891 | 8.16992 | 68° | 161km/h | 10422m | 3.5m/s | -49.7°C | 0% | 0hPa | 0V | 00:00:00 | 00:00:00 | 00:00:00 | |
| DL1NUX | 2026-08-31 07:25:28 | 49.92792 | 8.16652 | 64° | 159km/h | 10396m | 3.1m/s | 0°C | 0% | 0hPa | 0V | 00:00:00 | 00:00:00 | 00:00:00 | |
| SO1NDE-10 | 2026-08-31 07:25:26 | 49.92841 | 8.16816 | 67° | 155km/h | 10408m | 3.6m/s | 0°C | 0% | 0hPa | 4.7V | 00:00:00 | 00:00:00 | 00:00:00 | |
| CB1BUN | 2026-08-31 07:25:25 | 49.92810 | 8.16707 | 65° | 155km/h | 10404m | 3.7m/s | -49.6°C | 0% | 0hPa | 4.7V | 00:00:00 | 00:00:00 | 00:00:00 | |
| NBG1-10 | 2026-08-31 07:25:22 | 49.92775 | 8.16594 | 67° | 159km/h | 10393m | 3.2m/s | 0°C | 0% | 0hPa | 4.7V | 00:00:00 | 00:00:00 | 00:00:00 | |
| BIOWL1-15 | 2026-08-31 07:25:21 | 49.92759 | 8.16536 | 66° | 162km/h | 10393m | 3.2m/s | -49.6°C | 0% | 0hPa | 4.7V | 00:00:00 | 00:00:00 | 00:00:00 | |
| DM0DOS-11 | 2026-08-31 07:25:21 | 49.92709 | 8.16364 | 67° | 155km/h | 10364m | 4.4m/s | 0°C | 0% | 0hPa | 0V | 00:00:00 | 00:00:00 | 00:00:00 | |
| DO3MHA-11 | 2026-08-31 07:25:21 | 49.92759 | 8.16536 | 67° | 159km/h | 10389m | 3.7m/s | 0°C | 0% | 0hPa | 4.7V | 00:00:00 | 00:00:00 | 00:00:00 | |
| DO2KSM | 2026-08-31 07:25:20 | 49.92742 | 8.16478 | 66° | 162km/h | 10389m | 3.7m/s | -49.6°C | 0% | 0hPa | 4.7V | 00:00:00 | 00:00:00 | 00:00:00 | |
| DO3DL | 2026-08-31 07:25:16 | 49.92678 | 8.16252 | 66° | 159km/h | 10374m | 3.2m/s | -49.6°C | 0% | 0hPa | 4.7V | 00:00:00 | 00:00:00 | 00:00:00 | |
| DF1GD-15 | 2026-08-31 07:25:15 | 49.92661 | 8.16195 | 67° | 161km/h | 10371m | 4.3m/s | -49.6°C | 0% | 0hPa | 4.7V | 00:00:00 | 00:00:00 | 00:00:00 | |
| BIOWL1-15 | 2026-08-31 07:25:12 | 49.92580 | 8.15912 | 69° | 159km/h | 10352m | 3.4m/s | -49.5°C | 0% | 0hPa | 4.7V | 00:00:00 | 00:00:00 | 00:00:00 | |
| DH7VM-15 | 2026-08-31 07:25:12 | 49.92612 | 8.16024 | 65° | 155km/h | 10360m | 2.8m/s | -49.5°C | 0% | 0hPa | 0V | 00:00:00 | 00:00:00 | 00:00:00 | |
| DM0DOS-11 | 2026-08-31 07:25:11 | 49.92548 | 8.15797 | 64° | 161km/h | 10329m | 3.3m/s | 0°C | 0% | 0hPa | 0V | 00:00:00 | 00:00:00 | 00:00:00 | |
| DO3MHA-11 | 2026-08-31 07:25:11 | 49.92595 | 8.15969 | 69° | 159km/h | 10352m | 3.4m/s | 0°C | 0% | 0hPa | 4.6V | 00:00:00 | 00:00:00 | 00:00:00 | |
| DO3DL | 2026-08-31 07:25:09 | 49.92565 | 8.15854 | 67° | 159km/h | 10348m | 4.3m/s | -49.5°C | 0% | 0hPa | 4.6V | 00:00:00 | 00:00:00 | 00:00:00 | |
| DF2AP-13 | 2026-08-31 07:25:07 | 49.92530 | 8.15740 | 66° | 159km/h | 10337m | 3.3m/s | 0°C | 0% | 0hPa | 4.6V | 00:00:00 | 00:00:00 | 00:00:00 | |
| DB0NH | 2026-08-31 07:25:05 | 49.92498 | 8.15625 | 66° | 159km/h | 10326m | 3.4m/s | 0°C | 0% | 0hPa | 4.6V | 00:00:00 | 00:00:00 | 00:00:00 | |
| CB1BUN | 2026-08-31 07:25:03 | 49.92467 | 8.15512 | 70° | 157km/h | 10326m | 3.5m/s | -49.5°C | 0% | 0hPa | 4.6V | 00:00:00 | 00:00:00 | 00:00:00 | |
| DO3MHA-11 | 2026-08-31 07:25:01 | 49.92435 | 8.15397 | 66° | 161km/h | 10314m | 4.0m/s | 0°C | 0% | 0hPa | 4.6V | 00:00:00 | 00:00:00 | 00:00:00 | |
| DO2KSM | 2026-08-31 07:25:00 | 49.92419 | 8.15339 | 68° | 161km/h | 10314m | 4.0m/s | -49.4°C | 0% | 0hPa | 4.6V | 00:00:00 | 00:00:00 | 00:00:00 | |
| BIOWL1-15 | 2026-08-31 07:24:59 | 49.92404 | 8.15281 | 71° | 161km/h | 10310m | 4.3m/s | -49.4°C | 0% | 0hPa | 4.6V | 00:00:00 | 00:00:00 | 00:00:00 | |
| DO3DL | 2026-08-31 07:24:57 | 49.92360 | 8.15108 | 67° | 161km/h | 10297m | 4.9m/s | -49.3°C | 0% | 0hPa | 0V | 00:00:00 | 00:00:00 | 00:00:00 | |
| DF1GD-15 | 2026-08-31 07:24:54 | 49.92327 | 8.14992 | 67° | 161km/h | 10289m | 4.7m/s | -49.2°C | 0% | 0hPa | 0V | 00:00:00 | 00:00:00 | 00:00:00 | |
| DM0DOS-11 | 2026-08-31 07:24:51 | 49.92241 | 8.14646 | 66° | 153km/h | 10262m | 3.7m/s | 0°C | 0% | 0hPa | 0V | 00:00:00 | 00:00:00 | 00:00:00 | |
| DO3MHA-11 | 2026-08-31 07:24:51 | 49.92282 | 8.14815 | 72° | 159km/h | 10274m | 3.8m/s | 0°C | 0% | 0hPa | 4.6V | 00:00:00 | 00:00:00 | 00:00:00 | |
| DO3DL | 2026-08-31 07:24:50 | 49.92269 | 8.14758 | 73° | 159km/h | 10274m | 3.8m/s | -49.1°C | 0% | 0hPa | 4.6V | 00:00:00 | 00:00:00 | 00:00:00 | |
| NBG1-10 | 2026-08-31 07:24:49 | 49.92255 | 8.14704 | 67° | 159km/h | 10266m | 4.4m/s | 0°C | 0% | 0hPa | 4.6V | 00:00:00 | 00:00:00 | 00:00:00 | |
| BIOWL1-15 | 2026-08-31 07:24:48 | 49.92241 | 8.14646 | 66° | 153km/h | 10266m | 4.5m/s | -49.1°C | 0% | 0hPa | 4.6V | 00:00:00 | 00:00:00 | 00:00:00 | |
| DJ3KS | 2026-08-31 07:24:46 | 49.92208 | 8.14532 | 68° | 162km/h | 10258m | 4.6m/s | 0°C | 0% | 0hPa | 0V | 00:00:00 | 00:00:00 | 00:00:00 | |
| DO3DL | 2026-08-31 07:24:44 | 49.92178 | 8.14415 | 71° | 162km/h | 10250m | 5.1m/s | -49.1°C | 0% | 0hPa | 0V | 00:00:00 | 00:00:00 | 00:00:00 | |
| CB1BUN | 2026-08-31 07:24:43 | 49.92164 | 8.14356 | 72° | 157km/h | 10246m | 4.4m/s | -49.1°C | 0% | 0hPa | 0V | 00:00:00 | 00:00:00 | 00:00:00 | |
| HEMX73-11 | 2026-08-31 07:24:42 | 49.92136 | 8.14244 | 68° | 155km/h | 10238m | 5.4m/s | -49.1°C | 0% | 0hPa | 0V | 00:00:00 | 00:00:00 | 00:00:00 | |
| DM0DOS-11 | 2026-08-31 07:24:41 | 49.92087 | 8.14072 | 69° | 155km/h | 10221m | 4.3m/s | 0°C | 0% | 0hPa | 0V | 00:00:00 | 00:00:00 | 00:00:00 | |
| DO3MHA-11 | 2026-08-31 07:24:41 | 49.92136 | 8.14244 | 67° | 159km/h | 10233m | 3.1m/s | 0°C | 0% | 0hPa | 4.7V | 00:00:00 | 00:00:00 | 00:00:00 | |
| BIOWL1-15 | 2026-08-31 07:24:38 | 49.92044 | 8.13897 | 68° | 159km/h | 10213m | 5m/s | -49.1°C | 0% | 0hPa | 4.7V | 00:00:00 | 00:00:00 | 00:00:00 | |
| DO3DL | 2026-08-31 07:24:38 | 49.92073 | 8.14013 | 71° | 157km/h | 10221m | 4.3m/s | -49.0°C | 0% | 0hPa | 0V | 00:00:00 | 00:00:00 | 00:00:00 | |
| DF2AP-13 | 2026-08-31 07:24:37 | 49.92073 | 8.14014 | 70° | 161km/h | 10217m | 3.5m/s | 0°C | 0% | 0hPa | 0V | 00:00:00 | 00:00:00 | 00:00:00 | |
| DB0NH | 2026-08-31 07:24:35 | 49.92044 | 8.13897 | 68° | 161km/h | 10209m | 3.0m/s | 0°C | 0% | 0hPa | 0V | 00:00:00 | 00:00:00 | 00:00:00 | |
| DF1GD-15 | 2026-08-31 07:24:34 | 49.92028 | 8.13840 | 67° | 155km/h | 10209m | 3.1m/s | -49.0°C | 0% | 0hPa | 0V | 00:00:00 | 00:00:00 | 00:00:00 | |
| DM0DOS-11 | 2026-08-31 07:24:31 | 49.91932 | 8.13493 | 66° | 157km/h | 10181m | 3.2m/s | 0°C | 0% | 0hPa | 0V | 00:00:00 | 00:00:00 | 00:00:00 | |
| DO3MHA-11 | 2026-08-31 07:24:31 | 49.91979 | 8.13668 | 67° | 161km/h | 10193m | 4.8m/s | 0°C | 0% | 0hPa | 4.7V | 00:00:00 | 00:00:00 | 00:00:00 | |
| BIOWL1-15 | 2026-08-31 07:24:28 | 49.91882 | 8.13326 | 66° | 162km/h | 10172m | 4.3m/s | -49°C | 0% | 0hPa | 4.7V | 00:00:00 | 00:00:00 | 00:00:00 | |
| DO2KSM | 2026-08-31 07:24:26 | 49.91899 | 8.13382 | 66° | 159km/h | 10176m | 4.8m/s | -49.0°C | 0% | 0hPa | 0V | 00:00:00 | 00:00:00 | 00:00:00 | |
| DO3DL | 2026-08-31 07:24:25 | 49.91882 | 8.13325 | 66° | 162km/h | 10172m | 4.3m/s | -49.0°C | 0% | 0hPa | 0V | 00:00:00 | 00:00:00 | 00:00:00 | |
| CB1BUN | 2026-08-31 07:24:22 | 49.91833 | 8.13150 | 68° | 166km/h | 10160m | 4.3m/s | -48.9°C | 0% | 0hPa | 0V | 00:00:00 | 00:00:00 | 00:00:00 | |
| DB0UT-7 | 2026-08-31 07:24:21 | 49.91816 | 8.13091 | 65° | 162km/h | 10152m | 4.0m/s | 0°C | 0% | 0hPa | 0V | 00:00:00 | 00:00:00 | 00:00:00 | |
| DO3MHA-11 | 2026-08-31 07:24:20 | 49.91799 | 8.13036 | 65° | 159km/h | 10148m | 4.0m/s | 0°C | 0% | 0hPa | 0V | 00:00:00 | 00:00:00 | 00:00:00 | |
| DM0DOS-11 | 2026-08-31 07:24:16 | 49.91655 | 8.12515 | 67° | 162km/h | 10110m | 4m/s | 0°C | 0% | 0hPa | 0V | 00:00:00 | 00:00:00 | 00:00:00 | |
| NBG1-10 | 2026-08-31 07:24:16 | 49.91735 | 8.12803 | 70° | 162km/h | 10132m | 3.8m/s | 0°C | 0% | 0hPa | 4.7V | 00:00:00 | 00:00:00 | 00:00:00 | |
| BIOWL1-15 | 2026-08-31 07:24:15 | 49.91704 | 8.12688 | 66° | 161km/h | 10128m | 4.3m/s | -48.7°C | 0% | 0hPa | 4.7V | 00:00:00 | 00:00:00 | 00:00:00 | |
| DO3DL | 2026-08-31 07:24:14 | 49.91704 | 8.12688 | 67° | 161km/h | 10128m | 4.3m/s | -48.7°C | 0% | 0hPa | 4.7V | 00:00:00 | 00:00:00 | 00:00:00 | |
| DF1GD-15 | 2026-08-31 07:24:13 | 49.91688 | 8.12630 | 67° | 161km/h | 10124m | 3.7m/s | -48.7°C | 0% | 0hPa | 4.7V | 00:00:00 | 00:00:00 | 00:00:00 | |
| DL8DAS-15 | 2026-08-31 07:24:10 | 49.91624 | 8.12395 | 69° | 161km/h | 10106m | 4.5m/s | -48.6°C | 0% | 0hPa | 4.7V | 00:00:00 | 00:00:00 | 00:00:00 | |
| BIOWL1-15 | 2026-08-31 07:24:08 | 49.91528 | 8.12044 | 68° | 164km/h | 10081m | 4.2m/s | -48.4°C | 0% | 0hPa | 4.7V | 00:00:00 | 00:00:00 | 00:00:00 | |
| DF2AP-13 | 2026-08-31 07:24:07 | 49.91592 | 8.12279 | 67° | 162km/h | 10093m | 3.4m/s | 0°C | 0% | 0hPa | 0V | 00:00:00 | 00:00:00 | 00:00:00 | |
| DO2KSM | 2026-08-31 07:24:06 | 49.91575 | 8.12219 | 67° | 166km/h | 10093m | 3.5m/s | -48.5°C | 0% | 0hPa | 0V | 00:00:00 | 00:00:00 | 00:00:00 | |
| DB0NH | 2026-08-31 07:24:05 | 49.91559 | 8.12161 | 68° | 162km/h | 10085m | 3.5m/s | 0°C | 0% | 0hPa | 0V | 00:00:00 | 00:00:00 | 00:00:00 | |
| CB1BUN | 2026-08-31 07:24:02 | 49.91513 | 8.11985 | 68° | 164km/h | 10077m | 4.3m/s | -48.3°C | 0% | 0hPa | 0V | 00:00:00 | 00:00:00 | 00:00:00 | |
| DM0DOS-11 | 2026-08-31 07:24:01 | 49.91497 | 8.11926 | 67° | 161km/h | 10068m | 5.1m/s | 0°C | 0% | 0hPa | 0V | 00:00:00 | 00:00:00 | 00:00:00 | |
| BIOWL7-15 | 2026-08-31 07:24:01 | 49.91481 | 8.11868 | 68° | 164km/h | 10068m | 5.1m/s | -48.3°C | 0% | 0hPa | 4.7V | 00:00:00 | 00:00:00 | 00:00:00 | |
| DO3MHA-11 | 2026-08-31 07:24:00 | 49.91481 | 8.11868 | 68° | 162km/h | 10063m | 4.0m/s | 0°C | 0% | 0hPa | 4.7V | 00:00:00 | 00:00:00 | 00:00:00 | |
| DO3DL | 2026-08-31 07:23:54 | 49.91384 | 8.11533 | 69° | 157km/h | 10043m | 4.0m/s | -48.2°C | 0% | 0hPa | 4.7V | 00:00:00 | 00:00:00 | 00:00:00 | |
| BIOWL1-15 | 2026-08-31 07:23:53 | 49.91353 | 8.11399 | 67° | 168km/h | 10033m | 3.5m/s | -48.1°C | 0% | 0hPa | 4.7V | 00:00:00 | 00:00:00 | 00:00:00 | |
| DF1GD-15 | 2026-08-31 07:23:53 | 49.91369 | 8.11459 | 69° | 162km/h | 10038m | 5.1m/s | -48.1°C | 0% | 0hPa | 0V | 00:00:00 | 00:00:00 | 00:00:00 | |
| DJ3KS | 2026-08-31 07:23:52 | 49.91353 | 8.11399 | 67° | 168km/h | 10034m | 3.5m/s | 0°C | 0% | 0hPa | 0V | 00:00:00 | 00:00:00 | 00:00:00 | |
| DB0UT-7 | 2026-08-31 07:23:51 | 49.91336 | 8.11340 | 66° | 161km/h | 10025m | 3.5m/s | 0°C | 0% | 0hPa | 0V | 00:00:00 | 00:00:00 | 00:00:00 | |
| DO3MHA-11 | 2026-08-31 07:23:50 | 49.91319 | 8.11282 | 66° | 162km/h | 10021m | 5.1m/s | 0°C | 0% | 0hPa | 0V | 00:00:00 | 00:00:00 | 00:00:00 | |
| DM0DOS-11 | 2026-08-31 07:23:49 | 49.91223 | 8.10931 | 67° | 164km/h | 9994m | 4.1m/s | 0°C | 0% | 0hPa | 0V | 00:00:00 | 00:00:00 | 00:00:00 | |
| DO3DL | 2026-08-31 07:23:48 | 49.91286 | 8.11165 | 68° | 166km/h | 10017m | 3.0m/s | -48.0°C | 0% | 0hPa | 4.7V | 00:00:00 | 00:00:00 | 00:00:00 | |
| DO2KSM | 2026-08-31 07:23:45 | 49.91239 | 8.10990 | 68° | 164km/h | 10003m | 4.8m/s | -47.9°C | 0% | 0hPa | 4.7V | 00:00:00 | 00:00:00 | 00:00:00 | |
| BIOWL1-15 | 2026-08-31 07:23:44 | 49.91174 | 8.10754 | 66° | 166km/h | 9985m | 3.7m/s | -47.8°C | 0% | 0hPa | 4.7V | 00:00:00 | 00:00:00 | 00:00:00 | |
| NBG1-10 | 2026-08-31 07:23:43 | 49.91207 | 8.10872 | 68° | 161km/h | 9990m | 5.3m/s | 0°C | 0% | 0hPa | 0V | 00:00:00 | 00:00:00 | 00:00:00 | |
| CB1BUN | 2026-08-31 07:23:42 | 49.91174 | 8.10754 | 67° | 166km/h | 9985m | 3.7m/s | -47.8°C | 0% | 0hPa | 0V | 00:00:00 | 00:00:00 | 00:00:00 | |
| DO3DL | 2026-08-31 07:23:41 | 49.91174 | 8.10754 | 67° | 166km/h | 9985m | 3.7m/s | -47.8°C | 0% | 0hPa | 0V | 00:00:00 | 00:00:00 | 00:00:00 | |
| DO3MHA-11 | 2026-08-31 07:23:40 | 49.91158 | 8.10697 | 67° | 161km/h | 9976m | 4.0m/s | 0°C | 0% | 0hPa | 0V | 00:00:00 | 00:00:00 | 00:00:00 | |
| HEMX73-11 | 2026-08-31 07:23:39 | 49.91142 | 8.10640 | 67° | 155km/h | 9976m | 4.0m/s | -47.7°C | 0% | 0hPa | 0V | 00:00:00 | 00:00:00 | 00:00:00 | |
| DF2AP-13 | 2026-08-31 07:23:37 | 49.91109 | 8.10525 | 66° | 161km/h | 9964m | 4.5m/s | 0°C | 0% | 0hPa | 0V | 00:00:00 | 00:00:00 | 00:00:00 | |
| DM0DOS-11 | 2026-08-31 07:23:35 | 49.91043 | 8.10293 | 66° | 161km/h | 9946m | 3.5m/s | 0°C | 0% | 0hPa | 0V | 00:00:00 | 00:00:00 | 00:00:00 | |
| DB0NH | 2026-08-31 07:23:35 | 49.91076 | 8.10409 | 67° | 159km/h | 9955m | 4.0m/s | 0°C | 0% | 0hPa | 4.7V | 00:00:00 | 00:00:00 | 00:00:00 | |
| BEGRI65-1 | 2026-08-31 07:23:34 | 49.91026 | 8.10351 | 67° | 157km/h | 9955m | 4.0m/s | -47.6°C | 0% | 0hPa | 4.7V | 00:00:00 | 00:00:00 | 00:00:00 | |
| BIOWL1-15 | 2026-08-31 07:23:32 | 49.91010 | 8.10179 | 66° | 162km/h | 9941m | 5.1m/s | -47.5°C | 0% | 0hPa | 4.7V | 00:00:00 | 00:00:00 | 00:00:00 | |
| DO3MHA-11 | 2026-08-31 07:23:30 | 49.90993 | 8.10120 | 67° | 161km/h | 9933m | 4.1m/s | 0°C | 0% | 0hPa | 0V | 00:00:00 | 00:00:00 | 00:00:00 | |
| DM0DOS-11 | 2026-08-31 07:23:28 | 49.90881 | 8.09715 | 67° | 164km/h | 9901m | 4.5m/s | 0°C | 0% | 0hPa | 0V | 00:00:00 | 00:00:00 | 00:00:00 | |
| BIOWL1-15 | 2026-08-31 07:23:23 | 49.90834 | 8.09544 | 67° | 162km/h | 9892m | 4.8m/s | -47.2°C | 0% | 0hPa | 4.7V | 00:00:00 | 00:00:00 | 00:00:00 | |
| DO3DL | 2026-08-31 07:23:22 | 49.90865 | 8.09658 | 68° | 159km/h | 9901m | 4.5m/s | -47.2°C | 0% | 0hPa | 0V | 00:00:00 | 00:00:00 | 00:00:00 | |
| DB0UT-7 | 2026-08-31 07:23:21 | 49.90849 | 8.09603 | 68° | 159km/h | 9892m | 4.8m/s | 0°C | 0% | 0hPa | 0V | 00:00:00 | 00:00:00 | 00:00:00 | |
| DO3MHA-11 | 2026-08-31 07:23:20 | 49.90834 | 8.09544 | 68° | 159km/h | 9888m | 3.7m/s | 0°C | 0% | 0hPa | 0V | 00:00:00 | 00:00:00 | 00:00:00 | |
| HEMX73-11 | 2026-08-31 07:23:19 | 49.90818 | 8.09486 | 68° | 164km/h | 9888m | 3.7m/s | -47.2°C | 0% | 0hPa | 0V | 00:00:00 | 00:00:00 | 00:00:00 | |
| DM0DOS-11 | 2026-08-31 07:23:15 | 49.90725 | 8.09143 | 67° | 166km/h | 9855m | 4.6m/s | 0°C | 0% | 0hPa | 0V | 00:00:00 | 00:00:00 | 00:00:00 | |
| BIOWL1-15 | 2026-08-31 07:23:12 | 49.90662 | 8.08914 | 67° | 159km/h | 9842m | 4.1m/s | -46.8°C | 0% | 0hPa | 4.7V | 00:00:00 | 00:00:00 | 00:00:00 | |
| DF1GD-15 | 2026-08-31 07:23:11 | 49.90693 | 8.09025 | 68° | 155km/h | 9851m | 4.5m/s | -46.8°C | 0% | 0hPa | 0V | 00:00:00 | 00:00:00 | 00:00:00 | |
| NBG1-10 | 2026-08-31 07:23:10 | 49.90678 | 8.08971 | 67° | 159km/h | 9842m | 4.1m/s | 0°C | 0% | 0hPa | 0V | 00:00:00 | 00:00:00 | 00:00:00 | |
| DO3DL | 2026-08-31 07:23:09 | 49.90662 | 8.08914 | 68° | 159km/h | 9842m | 4.1m/s | -46.8°C | 0% | 0hPa | 0V | 00:00:00 | 00:00:00 | 00:00:00 | |
| DM0DOS-11 | 2026-08-31 07:23:08 | 49.90566 | 8.08573 | 66° | 153km/h | 9810m | 4.8m/s | 0°C | 0% | 0hPa | 0V | 00:00:00 | 00:00:00 | 00:00:00 | |
| DF2AP-13 | 2026-08-31 07:23:07 | 49.90632 | 8.08800 | 69° | 157km/h | 9828m | 5.3m/s | 0°C | 0% | 0hPa | 4.7V | 00:00:00 | 00:00:00 | 00:00:00 | |
| DB0NH | 2026-08-31 07:23:05 | 49.90599 | 8.08685 | 65° | 159km/h | 9819m | 5.0m/s | 0°C | 0% | 0hPa | 4.7V | 00:00:00 | 00:00:00 | 00:00:00 | |
| DB0ND-19 | 2026-08-31 07:23:04 | 49.90566 | 8.08573 | 66° | 151km/h | 9814m | 3.9m/s | -46.9°C | -1.0% | -1.0hPa | 4.7V | 00:00:00 | 00:00:00 | 00:00:00 | |
| DF7PN | 2026-08-31 07:23:02 | 49.90536 | 8.08459 | 68° | 161km/h | 9805m | 3.9m/s | -46.4°C | -1.0% | -1.0hPa | 4.7V | 00:00:00 | 00:00:00 | 00:00:00 | |
| BIOWL1-15 | 2026-08-31 07:23:01 | 49.90490 | 8.08287 | 65° | 161km/h | 9792m | 4.2m/s | -46.4°C | 0% | 0hPa | 4.7V | 00:00:00 | 00:00:00 | 00:00:00 | |
| DH3RM | 2026-08-31 07:23:01 | 49.90521 | 8.08401 | 69° | 157km/h | 9801m | 4.5m/s | -46.4°C | 0% | 0hPa | 4.7V | 00:00:00 | 00:00:00 | 00:00:00 | |
| DO3MHA-11 | 2026-08-31 07:23:00 | 49.90521 | 8.08401 | 69° | 157km/h | 9797m | 5.1m/s | 0°C | 0% | 0hPa | 4.7V | 00:00:00 | 00:00:00 | 00:00:00 | |
| HEMX73-11 | 2026-08-31 07:22:59 | 49.90490 | 8.08287 | 66° | 161km/h | 9792m | 4.2m/s | -46.4°C | 0% | 0hPa | 4.7V | 00:00:00 | 00:00:00 | 00:00:00 | |
| DB0UT-7 | 2026-08-31 07:22:51 | 49.90381 | 8.07890 | 69° | 157km/h | 9745m | 5.3m/s | 0°C | 0% | 0hPa | 4.7V | 00:00:00 | 00:00:00 | 00:00:00 | |
| DH3RM | 2026-08-31 07:22:50 | 49.90366 | 8.07832 | 69° | 157km/h | 9750m | 3.7m/s | -46.0°C | 0% | 0hPa | 4.7V | 00:00:00 | 00:00:00 | 00:00:00 | |
| BIOWL1-15 | 2026-08-31 07:22:48 | 49.90336 | 8.07717 | 68° | 161km/h | 9745m | 5.3m/s | -46°C | 0% | 0hPa | 4.7V | 00:00:00 | 00:00:00 | 00:00:00 | |
| DH3RM | 2026-08-31 07:22:41 | 49.90230 | 8.07317 | 67° | 155km/h | 9714m | 4.1m/s | -45.7°C | 0% | 0hPa | 4.7V | 00:00:00 | 00:00:00 | 00:00:00 | |
| DO3MHA-11 | 2026-08-31 07:22:40 | 49.90213 | 8.07259 | 67° | 159km/h | 9705m | 4.0m/s | 0°C | 0% | 0hPa | 4.7V | 00:00:00 | 00:00:00 | 00:00:00 | |
| HEMX73-11 | 2026-08-31 07:22:38 | 49.90181 | 8.07144 | 68° | 155km/h | 9701m | 4.9m/s | -45.6°C | 0% | 0hPa | 4.7V | 00:00:00 | 00:00:00 | 00:00:00 | |
| BIOWL1-15 | 2026-08-31 07:22:37 | 49.90166 | 8.07088 | 68° | 153km/h | 9696m | 4.6m/s | -45.6°C | 0% | 0hPa | 4.7V | 00:00:00 | 00:00:00 | 00:00:00 | |
| NBG1-10 | 2026-08-31 07:22:37 | 49.90166 | 8.07088 | 69° | 157km/h | 9692m | 4.0m/s | 0°C | 0% | 0hPa | 4.7V | 00:00:00 | 00:00:00 | 00:00:00 | |
| DO2KSM | 2026-08-31 07:22:36 | 49.90151 | 8.07032 | 70° | 157km/h | 9692m | 4.1m/s | -45.5°C | 0% | 0hPa | 4.7V | 00:00:00 | 00:00:00 | 00:00:00 | |
| DB0NH | 2026-08-31 07:22:35 | 49.90137 | 8.06975 | 68° | 159km/h | 9682m | 3.9m/s | 0°C | 0% | 0hPa | 4.7V | 00:00:00 | 00:00:00 | 00:00:00 | |
| DF1GD-15 | 2026-08-31 07:22:31 | 49.90059 | 8.06689 | 70° | 151km/h | 9664m | 4.8m/s | -45.2°C | 0% | 0hPa | 4.7V | 00:00:00 | 00:00:00 | 00:00:00 | |
| DO3MHA-11 | 2026-08-31 07:22:30 | 49.90059 | 8.06689 | 69° | 157km/h | 9659m | 4.1m/s | 0°C | 0% | 0hPa | 4.7V | 00:00:00 | 00:00:00 | 00:00:00 | |
| DH3RM | 2026-08-31 07:22:29 | 49.90045 | 8.06632 | 69° | 159km/h | 9659m | 4.2m/s | -45.2°C | 0% | 0hPa | 4.7V | 00:00:00 | 00:00:00 | 00:00:00 | |
| BIOWL1-15 | 2026-08-31 07:22:26 | 49.89937 | 8.06233 | 66° | 159km/h | 9627m | 5m/s | -45°C | 0% | 0hPa | 4.7V | 00:00:00 | 00:00:00 | 00:00:00 | |
| DJ3KS | 2026-08-31 07:22:25 | 49.89981 | 8.06402 | 70° | 162km/h | 9641m | 4.0m/s | 0°C | 0% | 0hPa | 4.7V | 00:00:00 | 00:00:00 | 00:00:00 | |
| DB0UT-7 | 2026-08-31 07:22:21 | 49.89919 | 8.06175 | 66° | 159km/h | 9619m | 4.7m/s | 0°C | 0% | 0hPa | 4.7V | 00:00:00 | 00:00:00 | 00:00:00 | |
| DO3MHA-11 | 2026-08-31 07:22:20 | 49.89902 | 8.06117 | 65° | 159km/h | 9615m | 3.6m/s | 0°C | 0% | 0hPa | 4.7V | 00:00:00 | 00:00:00 | 00:00:00 | |
| CB1BUN | 2026-08-31 07:22:19 | 49.89886 | 8.06061 | 67° | 153km/h | 9615m | 3.7m/s | -44.9°C | 0% | 0hPa | 4.7V | 00:00:00 | 00:00:00 | 00:00:00 | |
| HEMX73-11 | 2026-08-31 07:22:18 | 49.89855 | 8.05947 | 69° | 164km/h | 9606m | 3.8m/s | -44.8°C | 0% | 0hPa | 4.7V | 00:00:00 | 00:00:00 | 00:00:00 | |
| DO2KSM | 2026-08-31 07:22:15 | 49.89823 | 8.05833 | 67° | 153km/h | 9596m | 3.8m/s | -44.8°C | 0% | 0hPa | 4.7V | 00:00:00 | 00:00:00 | 00:00:00 | |
| BIOWL1-15 | 2026-08-31 07:22:13 | 49.89791 | 8.05720 | 67° | 162km/h | 9587m | 3.8m/s | -44.7°C | 0% | 0hPa | 4.7V | 00:00:00 | 00:00:00 | 00:00:00 | |
| DL8DAS-15 | 2026-08-31 07:22:13 | 49.89791 | 8.05720 | 68° | 162km/h | 9587m | 3.8m/s | -44.7°C | 0% | 0hPa | 4.7V | 00:00:00 | 00:00:00 | 00:00:00 | |
| DO3DL | 2026-08-31 07:22:11 | 49.89758 | 8.05605 | 66° | 155km/h | 9577m | 4.0m/s | -44.7°C | 0% | 0hPa | 4.7V | 00:00:00 | 00:00:00 | 00:00:00 | |
| DO3MHA-11 | 2026-08-31 07:22:10 | 49.89742 | 8.05549 | 68° | 159km/h | 9569m | 3.5m/s | 0°C | 0% | 0hPa | 4.7V | 00:00:00 | 00:00:00 | 00:00:00 | |
| DF2AP-13 | 2026-08-31 07:22:07 | 49.89694 | 8.05380 | 66° | 157km/h | 9546m | 3.9m/s | 0°C | 0% | 0hPa | 4.7V | 00:00:00 | 00:00:00 | 00:00:00 | |
| BIOWL1-15 | 2026-08-31 07:22:05 | 49.89613 | 8.05096 | 67° | 161km/h | 9537m | 4.9m/s | -44.3°C | 0% | 0hPa | 4.7V | 00:00:00 | 00:00:00 | 00:00:00 | |
| NBG1-10 | 2026-08-31 07:22:04 | 49.89645 | 8.05209 | 66° | 157km/h | 9542m | 4.4m/s | 0°C | 0% | 0hPa | 0V | 00:00:00 | 00:00:00 | 00:00:00 | |
| DB0ND-19 | 2026-08-31 07:22:02 | 49.89597 | 8.05039 | 65° | 159km/h | 9532m | 4.7m/s | -44.5°C | -1.0% | -1.0hPa | 0V | 00:00:00 | 00:00:00 | 00:00:00 | |
| DO3MHA-11 | 2026-08-31 07:22:00 | 49.89580 | 8.04982 | 65° | 157km/h | 9523m | 5.1m/s | 0°C | 0% | 0hPa | 0V | 00:00:00 | 00:00:00 | 00:00:00 | |
| CB1BUN | 2026-08-31 07:21:59 | 49.89563 | 8.04928 | 66° | 155km/h | 9523m | 5.2m/s | -44.1°C | 0% | 0hPa | 0V | 00:00:00 | 00:00:00 | 00:00:00 | |
| HEMX73-11 | 2026-08-31 07:21:57 | 49.89530 | 8.04816 | 66° | 155km/h | 9514m | 5.6m/s | -44.1°C | 0% | 0hPa | 0V | 00:00:00 | 00:00:00 | 00:00:00 | |
| DM0DOS-11 | 2026-08-31 07:21:56 | 49.89483 | 8.04647 | 67° | 161km/h | 9496m | 4.8m/s | 0°C | 0% | 0hPa | 0V | 00:00:00 | 00:00:00 | 00:00:00 | |
| BIOWL1-15 | 2026-08-31 07:21:52 | 49.89416 | 8.04423 | 66° | 157km/h | 9483m | 4.7m/s | -43.8°C | 0% | 0hPa | 4.7V | 00:00:00 | 00:00:00 | 00:00:00 | |
| DB0UT-7 | 2026-08-31 07:21:51 | 49.89433 | 8.04479 | 66° | 155km/h | 9483m | 4.7m/s | 0°C | 0% | 0hPa | 0V | 00:00:00 | 00:00:00 | 00:00:00 | |
| DO3MHA-11 | 2026-08-31 07:21:50 | 49.89416 | 8.04423 | 65° | 155km/h | 9478m | 3.9m/s | 0°C | 0% | 0hPa | 0V | 00:00:00 | 00:00:00 | 00:00:00 | |
| DF1GD-15 | 2026-08-31 07:21:49 | 49.89400 | 8.04368 | 66° | 155km/h | 9478m | 3.9m/s | -43.9°C | 0% | 0hPa | 0V | 00:00:00 | 00:00:00 | 00:00:00 | |
| DM0DOS-11 | 2026-08-31 07:21:46 | 49.89319 | 8.04089 | 65° | 153km/h | 9450m | 3.1m/s | 0°C | 0% | 0hPa | 0V | 00:00:00 | 00:00:00 | 00:00:00 | |
| BIOWL1-15 | 2026-08-31 07:21:41 | 49.89237 | 8.03813 | 65° | 153km/h | 9432m | 5m/s | -43.6°C | 0% | 0hPa | 4.7V | 00:00:00 | 00:00:00 | 00:00:00 | |
| DO3MHA-11 | 2026-08-31 07:21:40 | 49.89253 | 8.03868 | 67° | 155km/h | 9433m | 5.0m/s | 0°C | 0% | 0hPa | 0V | 00:00:00 | 00:00:00 | 00:00:00 | |
| CB1BUN | 2026-08-31 07:21:39 | 49.89219 | 8.03758 | 64° | 155km/h | 9428m | 3.7m/s | -43.6°C | 0% | 0hPa | 0V | 00:00:00 | 00:00:00 | 00:00:00 | |
| DM0DOS-11 | 2026-08-31 07:21:36 | 49.89152 | 8.03538 | 63° | 151km/h | 9406m | 5.3m/s | 0°C | 0% | 0hPa | 0V | 00:00:00 | 00:00:00 | 00:00:00 | |
| DF2AP-13 | 2026-08-31 07:21:36 | 49.89185 | 8.03647 | 66° | 153km/h | 9415m | 5.1m/s | 0°C | 0% | 0hPa | 4.7V | 00:00:00 | 00:00:00 | 00:00:00 | |
| DB0NH | 2026-08-31 07:21:32 | 49.89119 | 8.03429 | 66° | 153km/h | 9397m | 4.6m/s | 0°C | 0% | 0hPa | 4.7V | 00:00:00 | 00:00:00 | 00:00:00 | |
| NBG1-10 | 2026-08-31 07:21:31 | 49.89102 | 8.03374 | 65° | 151km/h | 9392m | 4.6m/s | 0°C | 0% | 0hPa | 4.7V | 00:00:00 | 00:00:00 | 00:00:00 | |
| DO3MHA-11 | 2026-08-31 07:21:30 | 49.89085 | 8.03320 | 65° | 153km/h | 9388m | 4.6m/s | 0°C | 0% | 0hPa | 4.7V | 00:00:00 | 00:00:00 | 00:00:00 | |
| BIOWL1-15 | 2026-08-31 07:21:29 | 49.89036 | 8.03156 | 63° | 151km/h | 9378m | 3.9m/s | -43.3°C | 0% | 0hPa | 4.7V | 00:00:00 | 00:00:00 | 00:00:00 | |
| DF1GD-15 | 2026-08-31 07:21:29 | 49.89069 | 8.03265 | 67° | 153km/h | 9388m | 4.7m/s | -43.3°C | 0% | 0hPa | 0V | 00:00:00 | 00:00:00 | 00:00:00 | |
| BEGRI65-1 | 2026-08-31 07:21:28 | 49.89053 | 8.03210 | 66° | 153km/h | 9383m | 4.5m/s | -43.3°C | 0% | 0hPa | 0V | 00:00:00 | 00:00:00 | 00:00:00 | |
| DM0DOS-11 | 2026-08-31 07:21:25 | 49.88988 | 8.02994 | 66° | 151km/h | 9361m | 4m/s | 0°C | 0% | 0hPa | 0V | 00:00:00 | 00:00:00 | 00:00:00 | |
| BIOWL1-15 | 2026-08-31 07:21:21 | 49.88775 | 8.02289 | 64° | 148km/h | 9307m | 4m/s | -42.8°C | 0% | 0hPa | 4.7V | 00:00:00 | 00:00:00 | 00:00:00 | |
| DO3MHA-11 | 2026-08-31 07:21:20 | 49.88922 | 8.02774 | 64° | 151km/h | 9343m | 3.6m/s | 0°C | 0% | 0hPa | 0V | 00:00:00 | 00:00:00 | 00:00:00 | |
| CB1BUN | 2026-08-31 07:21:18 | 49.88888 | 8.02669 | 64° | 151km/h | 9339m | 5.0m/s | -43.0°C | 0% | 0hPa | 0V | 00:00:00 | 00:00:00 | 00:00:00 | |
| DM0DOS-11 | 2026-08-31 07:21:17 | 49.88823 | 8.02450 | 66° | 151km/h | 9317m | 3.9m/s | 0°C | 0% | 0hPa | 0V | 00:00:00 | 00:00:00 | 00:00:00 | |
| HEMX73-11 | 2026-08-31 07:21:16 | 49.88856 | 8.02559 | 67° | 155km/h | 9330m | 5.2m/s | -42.9°C | 0% | 0hPa | 0V | 00:00:00 | 00:00:00 | 00:00:00 | |
| DO3MHA-11 | 2026-08-31 07:21:10 | 49.88759 | 8.02236 | 66° | 151km/h | 9299m | 3.7m/s | 0°C | 0% | 0hPa | 0V | 00:00:00 | 00:00:00 | 00:00:00 | |
| DF1GD-15 | 2026-08-31 07:21:08 | 49.88728 | 8.02128 | 67° | 146km/h | 9295m | 4.3m/s | -42.7°C | 0% | 0hPa | 0V | 00:00:00 | 00:00:00 | 00:00:00 | |
| DO3DL | 2026-08-31 07:21:07 | 49.88713 | 8.02075 | 67° | 150km/h | 9291m | 4.8m/s | -42.7°C | 0% | 0hPa | 0V | 00:00:00 | 00:00:00 | 00:00:00 | |
| DF2AP-13 | 2026-08-31 07:21:06 | 49.88697 | 8.02020 | 67° | 151km/h | 9278m | 4.1m/s | 0°C | 0% | 0hPa | 0V | 00:00:00 | 00:00:00 | 00:00:00 | |
| DM0DOS-11 | 2026-08-31 07:21:05 | 49.88665 | 8.01911 | 64° | 148km/h | 9273m | 4.5m/s | 0°C | 0% | 0hPa | 0V | 00:00:00 | 00:00:00 | 00:00:00 | |
| BIOWL1-15 | 2026-08-31 07:21:04 | 49.88665 | 8.01911 | 64° | 148km/h | 9278m | 4.2m/s | -42.6°C | 0% | 0hPa | 4.7V | 00:00:00 | 00:00:00 | 00:00:00 | |
| DB0NH | 2026-08-31 07:21:02 | 49.88632 | 8.01804 | 66° | 151km/h | 9264m | 4.6m/s | 0°C | 0% | 0hPa | 4.7V | 00:00:00 | 00:00:00 | 00:00:00 | |
| DO3MHA-11 | 2026-08-31 07:21:00 | 49.88600 | 8.01695 | 67° | 151km/h | 9256m | 5.2m/s | 0°C | 0% | 0hPa | 4.7V | 00:00:00 | 00:00:00 | 00:00:00 | |
| NBG1-10 | 2026-08-31 07:20:58 | 49.88569 | 8.01587 | 66° | 151km/h | 9247m | 5.1m/s | 0°C | 0% | 0hPa | 4.7V | 00:00:00 | 00:00:00 | 00:00:00 | |
| CB1BUN | 2026-08-31 07:20:57 | 49.88552 | 8.01532 | 65° | 151km/h | 9247m | 5.2m/s | -42.3°C | 0% | 0hPa | 4.7V | 00:00:00 | 00:00:00 | 00:00:00 | |
| BIOWL1-15 | 2026-08-31 07:20:56 | 49.88489 | 8.01315 | 67° | 151km/h | 9229m | 4.9m/s | -42.1°C | 0% | 0hPa | 4.7V | 00:00:00 | 00:00:00 | 00:00:00 | |
| DM0DOS-11 | 2026-08-31 07:20:55 | 49.88505 | 8.01368 | 67° | 157km/h | 9229m | 4.9m/s | 0°C | 0% | 0hPa | 0V | 00:00:00 | 00:00:00 | 00:00:00 | |
| DO3DL | 2026-08-31 07:20:53 | 49.88489 | 8.01314 | 68° | 151km/h | 9229m | 4.9m/s | -42.1°C | 0% | 0hPa | 4.8V | 00:00:00 | 00:00:00 | 00:00:00 | |
| DB0UT-7 | 2026-08-31 07:20:51 | 49.88459 | 8.01209 | 66° | 150km/h | 9215m | 4.0m/s | 0°C | 0% | 0hPa | 4.8V | 00:00:00 | 00:00:00 | 00:00:00 | |
| DO3MHA-11 | 2026-08-31 07:20:50 | 49.88443 | 8.01154 | 65° | 151km/h | 9211m | 4.9m/s | 0°C | 0% | 0hPa | 4.8V | 00:00:00 | 00:00:00 | 00:00:00 | |
| DF1GD-15 | 2026-08-31 07:20:48 | 49.88410 | 8.01047 | 65° | 153km/h | 9206m | 4.1m/s | -42.0°C | 0% | 0hPa | 4.8V | 00:00:00 | 00:00:00 | 00:00:00 | |
| DO3DL | 2026-08-31 07:20:47 | 49.88394 | 8.00992 | 67° | 155km/h | 9202m | 4.4m/s | -42.0°C | 0% | 0hPa | 4.8V | 00:00:00 | 00:00:00 | 00:00:00 | |
| BIOWL1-15 | 2026-08-31 07:20:45 | 49.88332 | 8.00775 | 67° | 153km/h | 9185m | 4m/s | -41.9°C | 0% | 0hPa | 4.8V | 00:00:00 | 00:00:00 | 00:00:00 | |
| DM0DOS-11 | 2026-08-31 07:20:45 | 49.88347 | 8.00829 | 65° | 150km/h | 9185m | 4m/s | 0°C | 0% | 0hPa | 0V | 00:00:00 | 00:00:00 | 00:00:00 | |
| DO3MHA-11 | 2026-08-31 07:20:40 | 49.88285 | 8.00614 | 67° | 150km/h | 9167m | 3.4m/s | 0°C | 0% | 0hPa | 0V | 00:00:00 | 00:00:00 | 00:00:00 | |
| DM0DOS-11 | 2026-08-31 07:20:39 | 49.88190 | 8.00296 | 65° | 148km/h | 9141m | 4.4m/s | 0°C | 0% | 0hPa | 0V | 00:00:00 | 00:00:00 | 00:00:00 | |
| CB1BUN | 2026-08-31 07:20:37 | 49.88236 | 8.00454 | 65° | 148km/h | 9158m | 4.5m/s | -41.8°C | 0% | 0hPa | 4.7V | 00:00:00 | 00:00:00 | 00:00:00 | |
| HEMX73-11 | 2026-08-31 07:20:35 | 49.88205 | 8.00348 | 67° | 148km/h | 9149m | 4.8m/s | -41.7°C | 0% | 0hPa | 4.7V | 00:00:00 | 00:00:00 | 00:00:00 | |
| DO3DL | 2026-08-31 07:20:34 | 49.88190 | 8.00295 | 66° | 148km/h | 9146m | 3.0m/s | -41.6°C | 0% | 0hPa | 4.7V | 00:00:00 | 00:00:00 | 00:00:00 | |
| BIOWL1-15 | 2026-08-31 07:20:33 | 49.88158 | 8.00188 | 65° | 151km/h | 9137m | 5.2m/s | -41.6°C | 0% | 0hPa | 4.7V | 00:00:00 | 00:00:00 | 00:00:00 | |
| DB0NH | 2026-08-31 07:20:31 | 49.88142 | 8.00136 | 64° | 150km/h | 9128m | 4.3m/s | 0°C | 0% | 0hPa | 0V | 00:00:00 | 00:00:00 | 00:00:00 | |
| DO3MHA-11 | 2026-08-31 07:20:30 | 49.88126 | 8.00084 | 66° | 148km/h | 9123m | 4.9m/s | 0°C | 0% | 0hPa | 0V | 00:00:00 | 00:00:00 | 00:00:00 | |
| DF1GD-15 | 2026-08-31 07:20:27 | 49.88077 | 7.99927 | 65° | 155km/h | 9114m | 5.4m/s | -41.4°C | 0% | 0hPa | 0V | 00:00:00 | 00:00:00 | 00:00:00 | |
| DM0DOS-11 | 2026-08-31 07:20:24 | 49.88027 | 7.99768 | 65° | 144km/h | 9096m | 4.5m/s | 0°C | 0% | 0hPa | 0V | 00:00:00 | 00:00:00 | 00:00:00 | |
| BIOWL1-15 | 2026-08-31 07:20:22 | 49.87980 | 7.99611 | 64° | 148km/h | 9089m | 3.7m/s | -41.1°C | 0% | 0hPa | 4.8V | 00:00:00 | 00:00:00 | 00:00:00 | |
| CB1BUN | 2026-08-31 07:20:17 | 49.87901 | 7.99348 | 67° | 148km/h | 9067m | 5.0m/s | -40.9°C | 0% | 0hPa | 0V | 00:00:00 | 00:00:00 | 00:00:00 | |
| DM0DOS-11 | 2026-08-31 07:20:16 | 49.87869 | 7.99240 | 63° | 151km/h | 9053m | 5.4m/s | 0°C | 0% | 0hPa | 0V | 00:00:00 | 00:00:00 | 00:00:00 | |
| HEMX73-11 | 2026-08-31 07:20:14 | 49.87869 | 7.99240 | 64° | 151km/h | 9057m | 4.2m/s | -40.9°C | 0% | 0hPa | 4.8V | 00:00:00 | 00:00:00 | 00:00:00 | |
| BIOWL1-15 | 2026-08-31 07:20:11 | 49.87803 | 7.99031 | 64° | 146km/h | 9040m | 4.6m/s | -40.8°C | 0% | 0hPa | 4.8V | 00:00:00 | 00:00:00 | 00:00:00 | |
| DO3MHA-11 | 2026-08-31 07:20:10 | 49.87803 | 7.99030 | 64° | 151km/h | 9035m | 4.1m/s | 0°C | 0% | 0hPa | 0V | 00:00:00 | 00:00:00 | 00:00:00 | |
| DL8DAS-15 | 2026-08-31 07:20:08 | 49.87770 | 7.98923 | 65° | 155km/h | 9032m | 3.9m/s | 0°C | 0% | 0hPa | 0V | 00:00:00 | 00:00:00 | 00:00:00 | |
| DM0DOS-11 | 2026-08-31 07:20:07 | 49.87701 | 7.98710 | 64° | 150km/h | 9012m | 4m/s | 0°C | 0% | 0hPa | 0V | 00:00:00 | 00:00:00 | 00:00:00 | |
| DF1GD-15 | 2026-08-31 07:20:07 | 49.87753 | 7.98869 | 63° | 151km/h | 9028m | 3.8m/s | -40.6°C | 0% | 0hPa | 4.8V | 00:00:00 | 00:00:00 | 00:00:00 | |
| DL1ZP-14 | 2026-08-31 07:20:05 | 49.87718 | 7.98764 | 64° | 151km/h | 9020m | 4.0m/s | -40.5°C | -1.0% | -1.0hPa | 4.8V | 00:00:00 | 00:00:00 | 00:00:00 | |
| BIOWL9-15 | 2026-08-31 07:20:03 | 49.87669 | 7.98608 | 63° | 144km/h | 9007m | 4.7m/s | -40.5°C | -1.0% | -1.0hPa | 4.8V | 00:00:00 | 00:00:00 | 00:00:00 | |
| BIOWL1-15 | 2026-08-31 07:20:02 | 49.87634 | 7.98501 | 63° | 155km/h | 8999m | 4.4m/s | -40.4°C | 0% | 0hPa | 4.8V | 00:00:00 | 00:00:00 | 00:00:00 | |
| DB0NH | 2026-08-31 07:20:01 | 49.87651 | 7.98555 | 65° | 148km/h | 8999m | 4.4m/s | 0°C | 0% | 0hPa | 0V | 00:00:00 | 00:00:00 | 00:00:00 | |
| DO3MHA-11 | 2026-08-31 07:20:00 | 49.87634 | 7.98501 | 64° | 148km/h | 8995m | 4.0m/s | 0°C | 0% | 0hPa | 0V | 00:00:00 | 00:00:00 | 00:00:00 | |
| DM0DOS-11 | 2026-08-31 07:19:56 | 49.87519 | 7.98135 | 64° | 153km/h | 8964m | 4.7m/s | 0°C | 0% | 0hPa | 0V | 00:00:00 | 00:00:00 | 00:00:00 | |
| CB1BUN | 2026-08-31 07:19:55 | 49.87554 | 7.98242 | 63° | 150km/h | 8978m | 3.8m/s | -40.3°C | 0% | 0hPa | 4.8V | 00:00:00 | 00:00:00 | 00:00:00 | |
| HEMX73-11 | 2026-08-31 07:19:54 | 49.87536 | 7.98189 | 64° | 155km/h | 8973m | 4.9m/s | -40.2°C | 0% | 0hPa | 4.8V | 00:00:00 | 00:00:00 | 00:00:00 | |
| NBG1-10 | 2026-08-31 07:19:52 | 49.87503 | 7.98084 | 67° | 146km/h | 8960m | 4.4m/s | 0°C | 0% | 0hPa | 4.8V | 00:00:00 | 00:00:00 | 00:00:00 | |
| BIOWL1-15 | 2026-08-31 07:19:50 | 49.87457 | 7.97928 | 63° | 150km/h | 8952m | 4.7m/s | -40.1°C | 0% | 0hPa | 4.8V | 00:00:00 | 00:00:00 | 00:00:00 | |
| DF1GD-15 | 2026-08-31 07:19:47 | 49.87405 | 7.97769 | 66° | 157km/h | 8939m | 3.8m/s | -40.0°C | 0% | 0hPa | 0V | 00:00:00 | 00:00:00 | 00:00:00 | |
| DM0DOS-11 | 2026-08-31 07:19:45 | 49.87357 | 7.97614 | 64° | 144km/h | 8923m | 4m/s | 0°C | 0% | 0hPa | 0V | 00:00:00 | 00:00:00 | 00:00:00 | |
| DO3MHA-11 | 2026-08-31 07:19:40 | 49.87308 | 7.97458 | 65° | 146km/h | 8911m | 3.8m/s | 0°C | 0% | 0hPa | 4.8V | 00:00:00 | 00:00:00 | 00:00:00 | |
| BIOWL1-15 | 2026-08-31 07:19:39 | 49.87277 | 7.97351 | 66° | 148km/h | 8906m | 4.8m/s | -39.7°C | 0% | 0hPa | 4.8V | 00:00:00 | 00:00:00 | 00:00:00 | |
| DM0DOS-11 | 2026-08-31 07:19:38 | 49.87199 | 7.97097 | 65° | 141km/h | 8882m | 5m/s | 0°C | 0% | 0hPa | 0V | 00:00:00 | 00:00:00 | 00:00:00 | |
| CB1BUN | 2026-08-31 07:19:35 | 49.87228 | 7.97198 | 67° | 146km/h | 8894m | 3.9m/s | -39.6°C | 0% | 0hPa | 4.8V | 00:00:00 | 00:00:00 | 00:00:00 | |
| HEMX73-11 | 2026-08-31 07:19:34 | 49.87199 | 7.97097 | 66° | 141km/h | 8886m | 2.9m/s | -39.5°C | 0% | 0hPa | 4.8V | 00:00:00 | 00:00:00 | 00:00:00 | |
| DB0NH | 2026-08-31 07:19:31 | 49.87168 | 7.96991 | 65° | 146km/h | 8874m | 3.9m/s | 0°C | 0% | 0hPa | 4.8V | 00:00:00 | 00:00:00 | 00:00:00 | |
| BIOWL1-15 | 2026-08-31 07:19:30 | 49.87103 | 7.96786 | 66° | 141km/h | 8861m | 5.1m/s | -39.3°C | 0% | 0hPa | 4.8V | 00:00:00 | 00:00:00 | 00:00:00 | |
| DM0DOS-11 | 2026-08-31 07:19:26 | 49.87038 | 7.96579 | 62° | 146km/h | 8841m | 4.2m/s | 0°C | 0% | 0hPa | 0V | 00:00:00 | 00:00:00 | 00:00:00 | |
| DF1GD-15 | 2026-08-31 07:19:24 | 49.87055 | 7.96631 | 64° | 151km/h | 8849m | 3.9m/s | -39.1°C | 0% | 0hPa | 4.8V | 00:00:00 | 00:00:00 | 00:00:00 | |
| DL8DAS-15 | 2026-08-31 07:19:23 | 49.87038 | 7.96579 | 63° | 146km/h | 8845m | 3.6m/s | -39.1°C | 0% | 0hPa | 4.8V | 00:00:00 | 00:00:00 | 00:00:00 | |
| DO3MHA-11 | 2026-08-31 07:19:20 | 49.86993 | 7.96424 | 67° | 144km/h | 8829m | 3.7m/s | 0°C | 0% | 0hPa | 4.8V | 00:00:00 | 00:00:00 | 00:00:00 | |
| BIOWL1-15 | 2026-08-31 07:19:19 | 49.86929 | 7.96221 | 65° | 142km/h | 8816m | 4.1m/s | -38.9°C | 0% | 0hPa | 4.8V | 00:00:00 | 00:00:00 | 00:00:00 | |
| DM0DOS-11 | 2026-08-31 07:19:16 | 49.86886 | 7.96064 | 64° | 146km/h | 8800m | 3.9m/s | 0°C | 0% | 0hPa | 0V | 00:00:00 | 00:00:00 | 00:00:00 | |
| CB1BUN | 2026-08-31 07:19:15 | 49.86900 | 7.96118 | 69° | 148km/h | 8809m | 3.8m/s | -38.8°C | 0% | 0hPa | 4.8V | 00:00:00 | 00:00:00 | 00:00:00 | |
| HEMX73-11 | 2026-08-31 07:19:13 | 49.86886 | 7.96065 | 68° | 146km/h | 8804m | 4.5m/s | -38.8°C | 0% | 0hPa | 4.8V | 00:00:00 | 00:00:00 | 00:00:00 | |
| DO3MHA-11 | 2026-08-31 07:19:10 | 49.86838 | 7.95912 | 65° | 144km/h | 8788m | 4.6m/s | 0°C | 0% | 0hPa | 4.8V | 00:00:00 | 00:00:00 | 00:00:00 | |
| BIOWL1-15 | 2026-08-31 07:19:07 | 49.86778 | 7.95705 | 65° | 148km/h | 8775m | 3.4m/s | -38.5°C | 0% | 0hPa | 4.8V | 00:00:00 | 00:00:00 | 00:00:00 | |
| DM0DOS-11 | 2026-08-31 07:19:06 | 49.86731 | 7.95553 | 65° | 146km/h | 8759m | 4.9m/s | 0°C | 0% | 0hPa | 0V | 00:00:00 | 00:00:00 | 00:00:00 | |
| DO3DL | 2026-08-31 07:19:05 | 49.86762 | 7.95654 | 65° | 142km/h | 8771m | 4.1m/s | -38.5°C | 0% | 0hPa | 0V | 00:00:00 | 00:00:00 | 00:00:00 | |
| DB0NH | 2026-08-31 07:19:01 | 49.86700 | 7.95450 | 66° | 144km/h | 8752m | 4.1m/s | 0°C | 0% | 0hPa | 0V | 00:00:00 | 00:00:00 | 00:00:00 | |
| DO3MHA-11 | 2026-08-31 07:19:00 | 49.86685 | 7.95398 | 64° | 144km/h | 8748m | 4.5m/s | 0°C | 0% | 0hPa | 0V | 00:00:00 | 00:00:00 | 00:00:00 | |
| DO3DL | 2026-08-31 07:18:59 | 49.86668 | 7.95347 | 65° | 144km/h | 8748m | 4.6m/s | -38.3°C | 0% | 0hPa | 0V | 00:00:00 | 00:00:00 | 00:00:00 | |
| DM0DOS-11 | 2026-08-31 07:18:58 | 49.86578 | 7.95041 | 63° | 142km/h | 8720m | 3.5m/s | 0°C | 0% | 0hPa | 0V | 00:00:00 | 00:00:00 | 00:00:00 | |
| BIOWL1-15 | 2026-08-31 07:18:58 | 49.86607 | 7.95141 | 67° | 142km/h | 8732m | 5.1m/s | -38.2°C | 0% | 0hPa | 4.8V | 00:00:00 | 00:00:00 | 00:00:00 | |
| CB1BUN | 2026-08-31 07:18:54 | 49.86593 | 7.95090 | 66° | 137km/h | 8728m | 3.8m/s | -38.2°C | 0% | 0hPa | 0V | 00:00:00 | 00:00:00 | 00:00:00 | |
| DO3DL | 2026-08-31 07:18:52 | 49.86562 | 7.94990 | 64° | 146km/h | 8720m | 3.5m/s | -38.1°C | 0% | 0hPa | 0V | 00:00:00 | 00:00:00 | 00:00:00 | |
| DO3MHA-11 | 2026-08-31 07:18:50 | 49.86529 | 7.94889 | 65° | 144km/h | 8708m | 2.9m/s | 0°C | 0% | 0hPa | 0V | 00:00:00 | 00:00:00 | 00:00:00 | |
| DM0DOS-11 | 2026-08-31 07:18:46 | 49.86419 | 7.94531 | 63° | 142km/h | 8680m | 4.8m/s | 0°C | 0% | 0hPa | 0V | 00:00:00 | 00:00:00 | 00:00:00 | |
| NBG1-10 | 2026-08-31 07:18:46 | 49.86468 | 7.94687 | 64° | 142km/h | 8693m | 3.6m/s | 0°C | 0% | 0hPa | 0V | 00:00:00 | 00:00:00 | 00:00:00 | |
| DO3DL | 2026-08-31 07:18:41 | 49.86370 | 7.94383 | 63° | 137km/h | 8672m | 4.2m/s | -37.8°C | 0% | 0hPa | 0V | 00:00:00 | 00:00:00 | 00:00:00 | |
| DO3MHA-11 | 2026-08-31 07:18:40 | 49.86371 | 7.94383 | 63° | 142km/h | 8669m | 2.8m/s | 0°C | 0% | 0hPa | 0V | 00:00:00 | 00:00:00 | 00:00:00 | |
| DB0UT-7 | 2026-08-31 07:18:39 | 49.86354 | 7.94338 | 66° | 142km/h | 8665m | 4.2m/s | 0°C | 0% | 0hPa | 0V | 00:00:00 | 00:00:00 | 00:00:00 | |
| DM0DOS-11 | 2026-08-31 07:18:38 | 49.86259 | 7.94033 | 61° | 142km/h | 8642m | 3.7m/s | 0°C | 0% | 0hPa | 0V | 00:00:00 | 00:00:00 | 00:00:00 | |
| BIOWL1-15 | 2026-08-31 07:18:36 | 49.86259 | 7.94033 | 62° | 142km/h | 8645m | 3.7m/s | -37.7°C | 0% | 0hPa | 4.8V | 00:00:00 | 00:00:00 | 00:00:00 | |
| CB1BUN | 2026-08-31 07:18:34 | 49.86259 | 7.94033 | 63° | 142km/h | 8645m | 3.7m/s | -37.7°C | 0% | 0hPa | 4.8V | 00:00:00 | 00:00:00 | 00:00:00 | |
| DO3DL | 2026-08-31 07:18:33 | 49.86259 | 7.94033 | 63° | 142km/h | 8645m | 3.7m/s | -37.7°C | 0% | 0hPa | 4.8V | 00:00:00 | 00:00:00 | 00:00:00 | |
| DB0NH | 2026-08-31 07:18:31 | 49.86226 | 7.93934 | 65° | 139km/h | 8633m | 3.2m/s | 0°C | 0% | 0hPa | 4.8V | 00:00:00 | 00:00:00 | 00:00:00 | |
| DO3MHA-11 | 2026-08-31 07:18:30 | 49.86211 | 7.93879 | 65° | 141km/h | 8629m | 4.4m/s | 0°C | 0% | 0hPa | 4.8V | 00:00:00 | 00:00:00 | 00:00:00 | |
| DO3DL | 2026-08-31 07:18:28 | 49.86164 | 7.93736 | 64° | 142km/h | 8622m | 3.6m/s | -37.5°C | 0% | 0hPa | 4.8V | 00:00:00 | 00:00:00 | 00:00:00 | |
| BIOWL1-15 | 2026-08-31 07:18:26 | 49.86098 | 7.93536 | 63° | 148km/h | 8607m | 3.1m/s | -37.4°C | 0% | 0hPa | 4.8V | 00:00:00 | 00:00:00 | 00:00:00 | |
| DM0DOS-11 | 2026-08-31 07:18:24 | 49.86098 | 7.93536 | 62° | 148km/h | 8603m | 4.7m/s | 0°C | 0% | 0hPa | 0V | 00:00:00 | 00:00:00 | 00:00:00 | |
| DO3MHA-11 | 2026-08-31 07:18:20 | 49.86050 | 7.93390 | 65° | 141km/h | 8591m | 2.9m/s | 0°C | 0% | 0hPa | 0V | 00:00:00 | 00:00:00 | 00:00:00 | |
| DM0DOS-11 | 2026-08-31 07:18:17 | 49.85935 | 7.93048 | 64° | 135km/h | 8566m | 4.8m/s | 0°C | 0% | 0hPa | 0V | 00:00:00 | 00:00:00 | 00:00:00 | |
| DO3DL | 2026-08-31 07:18:14 | 49.85951 | 7.93092 | 64° | 137km/h | 8573m | 4.3m/s | -37.3°C | 0% | 0hPa | 4.8V | 00:00:00 | 00:00:00 | 00:00:00 | |
| NBG1-10 | 2026-08-31 07:18:13 | 49.85935 | 7.93045 | 65° | 135km/h | 8566m | 4.8m/s | 0°C | 0% | 0hPa | 4.8V | 00:00:00 | 00:00:00 | 00:00:00 | |
| BIOWL1-15 | 2026-08-31 07:18:12 | 49.85920 | 7.92997 | 65° | 142km/h | 8566m | 4.8m/s | -37.3°C | 0% | 0hPa | 4.8V | 00:00:00 | 00:00:00 | 00:00:00 | |
| HEMX73-11 | 2026-08-31 07:18:11 | 49.85904 | 7.92946 | 65° | 144km/h | 8562m | 3.5m/s | -37.3°C | 0% | 0hPa | 0V | 00:00:00 | 00:00:00 | 00:00:00 | |
| DO3MHA-11 | 2026-08-31 07:18:10 | 49.85888 | 7.92897 | 62° | 137km/h | 8554m | 3.3m/s | 0°C | 0% | 0hPa | 0V | 00:00:00 | 00:00:00 | 00:00:00 | |
| DB0UT-7 | 2026-08-31 07:18:09 | 49.85871 | 7.92850 | 62° | 135km/h | 8551m | 4.0m/s | 0°C | 0% | 0hPa | 0V | 00:00:00 | 00:00:00 | 00:00:00 | |
| DO3DL | 2026-08-31 07:18:07 | 49.85840 | 7.92755 | 65° | 137km/h | 8547m | 3.4m/s | -37.2°C | 0% | 0hPa | 0V | 00:00:00 | 00:00:00 | 00:00:00 | |
| DM0DOS-11 | 2026-08-31 07:18:04 | 49.85778 | 7.92561 | 63° | 139km/h | 8528m | 3.3m/s | 0°C | 0% | 0hPa | 0V | 00:00:00 | 00:00:00 | 00:00:00 | |
| BIOWL1-15 | 2026-08-31 07:18:02 | 49.85748 | 7.92469 | 64° | 130km/h | 8525m | 4.1m/s | -37°C | 0% | 0hPa | 4.8V | 00:00:00 | 00:00:00 | 00:00:00 | |
| DB0NH | 2026-08-31 07:18:01 | 49.85747 | 7.92468 | 65° | 133km/h | 8521m | 3.0m/s | 0°C | 0% | 0hPa | 0V | 00:00:00 | 00:00:00 | 00:00:00 | |
| DO3MHA-11 | 2026-08-31 07:18:00 | 49.85733 | 7.92421 | 63° | 135km/h | 8517m | 5.0m/s | 0°C | 0% | 0hPa | 0V | 00:00:00 | 00:00:00 | 00:00:00 | |
| DM0DOS-11 | 2026-08-31 07:17:57 | 49.85626 | 7.92089 | 65° | 137km/h | 8491m | 5m/s | 0°C | 0% | 0hPa | 0V | 00:00:00 | 00:00:00 | 00:00:00 | |
| DO3DL | 2026-08-31 07:17:54 | 49.85640 | 7.92137 | 64° | 131km/h | 8499m | 4.2m/s | -36.9°C | 0% | 0hPa | 4.8V | 00:00:00 | 00:00:00 | 00:00:00 | |
| CB1BUN | 2026-08-31 07:17:52 | 49.85611 | 7.92041 | 65° | 137km/h | 8491m | 5.1m/s | -36.9°C | 0% | 0hPa | 4.8V | 00:00:00 | 00:00:00 | 00:00:00 | |
| BIOWL1-15 | 2026-08-31 07:17:51 | 49.85581 | 7.91944 | 66° | 137km/h | 8483m | 4m/s | -36.9°C | 0% | 0hPa | 4.8V | 00:00:00 | 00:00:00 | 00:00:00 | |
| DO3MHA-11 | 2026-08-31 07:17:50 | 49.85581 | 7.91944 | 66° | 133km/h | 8480m | 2.7m/s | 0°C | 0% | 0hPa | 0V | 00:00:00 | 00:00:00 | 00:00:00 | |
| DO3DL | 2026-08-31 07:17:48 | 49.85553 | 7.91850 | 64° | 130km/h | 8476m | 4.7m/s | -36.8°C | 0% | 0hPa | 0V | 00:00:00 | 00:00:00 | 00:00:00 | |
| DM0DOS-11 | 2026-08-31 07:17:46 | 49.85480 | 7.91611 | 65° | 135km/h | 8453m | 3.2m/s | 0°C | 0% | 0hPa | 0V | 00:00:00 | 00:00:00 | 00:00:00 | |
| DF1GD-15 | 2026-08-31 07:17:44 | 49.85495 | 7.91661 | 65° | 139km/h | 8461m | 3.6m/s | -36.7°C | 0% | 0hPa | 4.8V | 00:00:00 | 00:00:00 | 00:00:00 | |
| DO3DL | 2026-08-31 07:17:41 | 49.85451 | 7.91519 | 65° | 130km/h | 8449m | 4.8m/s | -36.6°C | 0% | 0hPa | 4.8V | 00:00:00 | 00:00:00 | 00:00:00 | |
| BIOWL1-15 | 2026-08-31 07:17:40 | 49.85437 | 7.91473 | 64° | 130km/h | 8445m | 2.5m/s | -36.6°C | 0% | 0hPa | 4.8V | 00:00:00 | 00:00:00 | 00:00:00 | |
| DO3MHA-11 | 2026-08-31 07:17:40 | 49.85437 | 7.91473 | 64° | 131km/h | 8442m | 4.8m/s | 0°C | 0% | 0hPa | 0V | 00:00:00 | 00:00:00 | 00:00:00 | |
| DB0UT-7 | 2026-08-31 07:17:39 | 49.85423 | 7.91427 | 67° | 130km/h | 8438m | 2.9m/s | 0°C | 0% | 0hPa | 0V | 00:00:00 | 00:00:00 | 00:00:00 | |
| DM0DOS-11 | 2026-08-31 07:17:36 | 49.85339 | 7.91144 | 64° | 130km/h | 8416m | 4.4m/s | 0°C | 0% | 0hPa | 0V | 00:00:00 | 00:00:00 | 00:00:00 | |
| DO3DL | 2026-08-31 07:17:36 | 49.85367 | 7.91237 | 66° | 131km/h | 8427m | 4.0m/s | -36.5°C | 0% | 0hPa | 4.8V | 00:00:00 | 00:00:00 | 00:00:00 | |
| DN1GJH-1 | 2026-08-31 07:17:34 | 49.85353 | 7.91190 | 67° | 130km/h | 8423m | 3.4m/s | -36.4°C | 0% | 0hPa | 4.8V | 00:00:00 | 00:00:00 | 00:00:00 | |
| CB1BUN | 2026-08-31 07:17:32 | 49.85325 | 7.91098 | 66° | 131km/h | 8416m | 4.4m/s | -36.4°C | 0% | 0hPa | 4.8V | 00:00:00 | 00:00:00 | 00:00:00 | |
| BIOWL1-15 | 2026-08-31 07:17:31 | 49.85282 | 7.90955 | 63° | 128km/h | 8405m | 3m/s | -36.3°C | 0% | 0hPa | 4.8V | 00:00:00 | 00:00:00 | 00:00:00 | |
| DB0NH | 2026-08-31 07:17:31 | 49.85311 | 7.91050 | 67° | 130km/h | 8408m | 4.6m/s | 0°C | 0% | 0hPa | 0V | 00:00:00 | 00:00:00 | 00:00:00 | |
| DO3MHA-11 | 2026-08-31 07:17:30 | 49.85297 | 7.91000 | 64° | 130km/h | 8405m | 2.9m/s | 0°C | 0% | 0hPa | 0V | 00:00:00 | 00:00:00 | 00:00:00 | |
| DO3DL | 2026-08-31 07:17:29 | 49.85282 | 7.90955 | 64° | 128km/h | 8405m | 3.0m/s | -36.3°C | 0% | 0hPa | 0V | 00:00:00 | 00:00:00 | 00:00:00 | |
| DM0DOS-11 | 2026-08-31 07:17:25 | 49.85199 | 7.90681 | 65° | 128km/h | 8379m | 3.5m/s | 0°C | 0% | 0hPa | 0V | 00:00:00 | 00:00:00 | 00:00:00 | |
| DF1GD-15 | 2026-08-31 07:17:22 | 49.85171 | 7.90588 | 67° | 133km/h | 8376m | 3.5m/s | -36.1°C | 0% | 0hPa | 4.8V | 00:00:00 | 00:00:00 | 00:00:00 | |
| DO3MHA-11 | 2026-08-31 07:17:20 | 49.85158 | 7.90540 | 68° | 131km/h | 8369m | 4.5m/s | 0°C | 0% | 0hPa | 4.8V | 00:00:00 | 00:00:00 | 00:00:00 | |
| BIOWL1-15 | 2026-08-31 07:17:18 | 49.85130 | 7.90445 | 62° | 128km/h | 8365m | 2.8m/s | -36°C | 0% | 0hPa | 4.8V | 00:00:00 | 00:00:00 | 00:00:00 | |
| DO3DL | 2026-08-31 07:17:16 | 49.85103 | 7.90356 | 69° | 126km/h | 8359m | 2.3m/s | -36.0°C | 0% | 0hPa | 0V | 00:00:00 | 00:00:00 | 00:00:00 | |
| DM0DOS-11 | 2026-08-31 07:17:14 | 49.85061 | 7.90217 | 63° | 135km/h | 8345m | 4.3m/s | 0°C | 0% | 0hPa | 0V | 00:00:00 | 00:00:00 | 00:00:00 | |
| DN1GJH-1 | 2026-08-31 07:17:12 | 49.85046 | 7.90169 | 67° | 135km/h | 8345m | 4.3m/s | -35.8°C | 0% | 0hPa | 4.8V | 00:00:00 | 00:00:00 | 00:00:00 | |
| BIOWL1-15 | 2026-08-31 07:17:10 | 49.84979 | 7.89941 | 66° | 133km/h | 8326m | 3.8m/s | -35.6°C | 0% | 0hPa | 4.8V | 00:00:00 | 00:00:00 | 00:00:00 | |
| DB0UT-7 | 2026-08-31 07:17:09 | 49.85006 | 7.90033 | 65° | 128km/h | 8330m | 3.0m/s | 0°C | 0% | 0hPa | 0V | 00:00:00 | 00:00:00 | 00:00:00 | |
| DM0DOS-11 | 2026-08-31 07:17:08 | 49.84923 | 7.89754 | 64° | 128km/h | 8308m | 4.3m/s | 0°C | 0% | 0hPa | 0V | 00:00:00 | 00:00:00 | 00:00:00 | |
| NBG1-10 | 2026-08-31 07:17:06 | 49.84965 | 7.89895 | 65° | 128km/h | 8319m | 4.5m/s | 0°C | 0% | 0hPa | 4.8V | 00:00:00 | 00:00:00 | 00:00:00 | |
| DO3MHA-11 | 2026-08-31 07:17:00 | 49.84882 | 7.89616 | 65° | 130km/h | 8297m | 2.4m/s | 0°C | 0% | 0hPa | 4.8V | 00:00:00 | 00:00:00 | 00:00:00 | |
| DF1GD-15 | 2026-08-31 07:16:58 | 49.84853 | 7.89524 | 66° | 131km/h | 8294m | 4.6m/s | -35.5°C | 0% | 0hPa | 4.8V | 00:00:00 | 00:00:00 | 00:00:00 | |
| BIOWL1-15 | 2026-08-31 07:16:57 | 49.84827 | 7.89429 | 68° | 130km/h | 8286m | 4.4m/s | -35.5°C | 0% | 0hPa | 4.8V | 00:00:00 | 00:00:00 | 00:00:00 | |
| DO3DL | 2026-08-31 07:16:55 | 49.84814 | 7.89384 | 67° | 122km/h | 8283m | 2.8m/s | -35.5°C | 0% | 0hPa | 0V | 00:00:00 | 00:00:00 | 00:00:00 | |
| DM0DOS-11 | 2026-08-31 07:16:54 | 49.84787 | 7.89294 | 63° | 130km/h | 8272m | 4.3m/s | 0°C | 0% | 0hPa | 0V | 00:00:00 | 00:00:00 | 00:00:00 | |
| CB1BUN | 2026-08-31 07:16:51 | 49.84758 | 7.89204 | 66° | 128km/h | 8268m | 4.2m/s | -35.4°C | 0% | 0hPa | 0V | 00:00:00 | 00:00:00 | 00:00:00 | |
| DO3MHA-11 | 2026-08-31 07:16:50 | 49.84744 | 7.89157 | 67° | 128km/h | 8260m | 3.3m/s | 0°C | 0% | 0hPa | 0V | 00:00:00 | 00:00:00 | 00:00:00 | |
| HEMX73-11 | 2026-08-31 07:16:49 | 49.84730 | 7.89110 | 67° | 130km/h | 8260m | 3.4m/s | -35.3°C | 0% | 0hPa | 0V | 00:00:00 | 00:00:00 | 00:00:00 | |
| DM0DOS-11 | 2026-08-31 07:16:48 | 49.84649 | 7.88843 | 67° | 131km/h | 8234m | 3.2m/s | 0°C | 0% | 0hPa | 0V | 00:00:00 | 00:00:00 | 00:00:00 | |
| BIOWL1-15 | 2026-08-31 07:16:47 | 49.84690 | 7.88980 | 65° | 128km/h | 8249m | 3.4m/s | -35.3°C | 0% | 0hPa | 4.8V | 00:00:00 | 00:00:00 | 00:00:00 | |
| DO3DL | 2026-08-31 07:16:41 | 49.84622 | 7.88751 | 63° | 124km/h | 8231m | 3.4m/s | -35.1°C | 0% | 0hPa | 4.8V | 00:00:00 | 00:00:00 | 00:00:00 | |
| DO3MHA-11 | 2026-08-31 07:16:40 | 49.84608 | 7.88709 | 65° | 126km/h | 8223m | 3.1m/s | 0°C | 0% | 0hPa | 4.8V | 00:00:00 | 00:00:00 | 00:00:00 | |
| DB0UT-7 | 2026-08-31 07:16:39 | 49.84594 | 7.88665 | 65° | 126km/h | 8219m | 4.4m/s | 0°C | 0% | 0hPa | 4.8V | 00:00:00 | 00:00:00 | 00:00:00 | |
| BIOWL1-15 | 2026-08-31 07:16:38 | 49.84539 | 7.88483 | 65° | 133km/h | 8207m | 2.6m/s | -34.9°C | 0% | 0hPa | 4.8V | 00:00:00 | 00:00:00 | 00:00:00 | |
| DO3DL | 2026-08-31 07:16:35 | 49.84538 | 7.88483 | 66° | 133km/h | 8207m | 2.6m/s | -34.9°C | 0% | 0hPa | 0V | 00:00:00 | 00:00:00 | 00:00:00 | |
| DM0DOS-11 | 2026-08-31 07:16:33 | 49.84510 | 7.88397 | 61° | 117km/h | 8197m | 3.1m/s | 0°C | 0% | 0hPa | 0V | 00:00:00 | 00:00:00 | 00:00:00 | |
| NBG1-10 | 2026-08-31 07:16:33 | 49.84510 | 7.88397 | 62° | 124km/h | 8197m | 3.0m/s | 0°C | 0% | 0hPa | 4.8V | 00:00:00 | 00:00:00 | 00:00:00 | |
| DO3MHA-11 | 2026-08-31 07:16:30 | 49.84469 | 7.88265 | 69° | 128km/h | 8187m | 3.1m/s | 0°C | 0% | 0hPa | 4.8V | 00:00:00 | 00:00:00 | 00:00:00 | |
| BIOWL1-15 | 2026-08-31 07:16:25 | 49.84388 | 7.87997 | 65° | 122km/h | 8169m | 2.9m/s | -34.7°C | 0% | 0hPa | 4.8V | 00:00:00 | 00:00:00 | 00:00:00 | |
| DO3DL | 2026-08-31 07:16:22 | 49.84362 | 7.87905 | 67° | 133km/h | 8162m | 2.5m/s | -34.6°C | 0% | 0hPa | 4.8V | 00:00:00 | 00:00:00 | 00:00:00 | |
| DO3MHA-11 | 2026-08-31 07:16:20 | 49.84333 | 7.87815 | 61° | 124km/h | 8152m | 3.8m/s | 0°C | 0% | 0hPa | 4.8V | 00:00:00 | 00:00:00 | 00:00:00 | |
| DF1GD-15 | 2026-08-31 07:16:17 | 49.84294 | 7.87689 | 65° | 122km/h | 8145m | 3.9m/s | -34.5°C | 0% | 0hPa | 4.8V | 00:00:00 | 00:00:00 | 00:00:00 | |
| BIOWL1-15 | 2026-08-31 07:16:16 | 49.84237 | 7.87512 | 62° | 122km/h | 8130m | 2.5m/s | -34.4°C | 0% | 0hPa | 4.8V | 00:00:00 | 00:00:00 | 00:00:00 | |
| DJ3KS | 2026-08-31 07:16:15 | 49.84266 | 7.87600 | 66° | 128km/h | 8137m | 3.0m/s | 0°C | 0% | 0hPa | 0V | 00:00:00 | 00:00:00 | 00:00:00 | |
| DM0DOS-11 | 2026-08-31 07:16:14 | 49.84237 | 7.87512 | 61° | 122km/h | 8126m | 4.4m/s | 0°C | 0% | 0hPa | 0V | 00:00:00 | 00:00:00 | 00:00:00 | |
| DO3MHA-11 | 2026-08-31 07:16:10 | 49.84197 | 7.87382 | 64° | 122km/h | 8115m | 3.3m/s | 0°C | 0% | 0hPa | 0V | 00:00:00 | 00:00:00 | 00:00:00 | |
| DB0UT-7 | 2026-08-31 07:16:09 | 49.84184 | 7.87338 | 64° | 120km/h | 8112m | 2.9m/s | 0°C | 0% | 0hPa | 0V | 00:00:00 | 00:00:00 | 00:00:00 | |
| DM0DOS-11 | 2026-08-31 07:16:08 | 49.84103 | 7.87078 | 65° | 126km/h | 8091m | 3m/s | 0°C | 0% | 0hPa | 0V | 00:00:00 | 00:00:00 | 00:00:00 | |
| BIOWL1-15 | 2026-08-31 07:16:03 | 49.84103 | 7.87078 | 66° | 126km/h | 8094m | 3.8m/s | -34.1°C | 0% | 0hPa | 4.8V | 00:00:00 | 00:00:00 | 00:00:00 | |
| DO3DL | 2026-08-31 07:16:02 | 49.84090 | 7.87035 | 65° | 117km/h | 8091m | 3.0m/s | -34.1°C | 0% | 0hPa | 0V | 00:00:00 | 00:00:00 | 00:00:00 | |
| DO3MHA-11 | 2026-08-31 07:16:00 | 49.84065 | 7.86950 | 66° | 122km/h | 8080m | 4.2m/s | 0°C | 0% | 0hPa | 0V | 00:00:00 | 00:00:00 | 00:00:00 | |
| DF1GD-15 | 2026-08-31 07:15:57 | 49.84024 | 7.86817 | 67° | 128km/h | 8073m | 3.7m/s | -33.9°C | 0% | 0hPa | 0V | 00:00:00 | 00:00:00 | 00:00:00 | |
| DO3DL | 2026-08-31 07:15:56 | 49.84011 | 7.86773 | 66° | 124km/h | 8069m | 4.1m/s | -33.9°C | 0% | 0hPa | 0V | 00:00:00 | 00:00:00 | 00:00:00 | |
| DM0DOS-11 | 2026-08-31 07:15:54 | 49.83973 | 7.86645 | 65° | 124km/h | 8054m | 4.1m/s | 0°C | 0% | 0hPa | 0V | 00:00:00 | 00:00:00 | 00:00:00 | |
| BIOWL1-15 | 2026-08-31 07:15:53 | 49.83960 | 7.86601 | 65° | 126km/h | 8054m | 4.1m/s | -33.8°C | 0% | 0hPa | 4.8V | 00:00:00 | 00:00:00 | 00:00:00 | |
| DO3MHA-11 | 2026-08-31 07:15:50 | 49.83931 | 7.86515 | 63° | 120km/h | 8041m | 4.5m/s | 0°C | 0% | 0hPa | 0V | 00:00:00 | 00:00:00 | 00:00:00 | |
| DO3DL | 2026-08-31 07:15:49 | 49.83918 | 7.86472 | 66° | 124km/h | 8044m | 2.5m/s | -33.7°C | 0% | 0hPa | 0V | 00:00:00 | 00:00:00 | 00:00:00 | |
| DM0DOS-11 | 2026-08-31 07:15:48 | 49.83839 | 7.86212 | 63° | 117km/h | 8018m | 4.4m/s | 0°C | 0% | 0hPa | 0V | 00:00:00 | 00:00:00 | 00:00:00 | |
| HEMX73-11 | 2026-08-31 07:15:47 | 49.83892 | 7.86386 | 65° | 117km/h | 8037m | 2.4m/s | -33.7°C | 0% | 0hPa | 4.8V | 00:00:00 | 00:00:00 | 00:00:00 | |
| DO3DL | 2026-08-31 07:15:43 | 49.83840 | 7.86212 | 64° | 117km/h | 8022m | 3.2m/s | -33.6°C | 0% | 0hPa | 4.8V | 00:00:00 | 00:00:00 | 00:00:00 | |
| BIOWL1-15 | 2026-08-31 07:15:42 | 49.83815 | 7.86129 | 67° | 119km/h | 8014m | 3.4m/s | -33.4°C | 0% | 0hPa | 4.8V | 00:00:00 | 00:00:00 | 00:00:00 | |
| DB0UT-7 | 2026-08-31 07:15:39 | 49.83790 | 7.86043 | 66° | 122km/h | 8004m | 3.1m/s | 0°C | 0% | 0hPa | 0V | 00:00:00 | 00:00:00 | 00:00:00 | |
| DO3DL | 2026-08-31 07:15:37 | 49.83751 | 7.85912 | 64° | 117km/h | 7996m | 4.0m/s | -33.3°C | 0% | 0hPa | 0V | 00:00:00 | 00:00:00 | 00:00:00 | |
| DF1GD-15 | 2026-08-31 07:15:36 | 49.83751 | 7.85912 | 64° | 117km/h | 7996m | 4.0m/s | -33.3°C | 0% | 0hPa | 0V | 00:00:00 | 00:00:00 | 00:00:00 | |
| DM0DOS-11 | 2026-08-31 07:15:34 | 49.83714 | 7.85785 | 63° | 120km/h | 7980m | 4.6m/s | 0°C | 0% | 0hPa | 0V | 00:00:00 | 00:00:00 | 00:00:00 | |
| BIOWL1-15 | 2026-08-31 07:15:33 | 49.83673 | 7.85655 | 65° | 120km/h | 7973m | 3.4m/s | -33.1°C | 0% | 0hPa | 4.8V | 00:00:00 | 00:00:00 | 00:00:00 | |
| DM0DOS-11 | 2026-08-31 07:15:29 | 49.83583 | 7.85354 | 67° | 124km/h | 7943m | 5m/s | 0°C | 0% | 0hPa | 0V | 00:00:00 | 00:00:00 | 00:00:00 | |
| NBG1-10 | 2026-08-31 07:15:27 | 49.83635 | 7.85529 | 66° | 122km/h | 7959m | 4.1m/s | 0°C | 0% | 0hPa | 4.8V | 00:00:00 | 00:00:00 | 00:00:00 | |
| DO3DL | 2026-08-31 07:15:23 | 49.83583 | 7.85354 | 69° | 124km/h | 7947m | 3.0m/s | -32.9°C | 0% | 0hPa | 4.8V | 00:00:00 | 00:00:00 | 00:00:00 | |
| BIOWL1-15 | 2026-08-31 07:15:22 | 49.83543 | 7.85224 | 65° | 120km/h | 7935m | 5.1m/s | -32.8°C | 0% | 0hPa | 4.8V | 00:00:00 | 00:00:00 | 00:00:00 | |
| DJ3KS | 2026-08-31 07:15:21 | 49.83556 | 7.85266 | 64° | 122km/h | 7940m | 2.6m/s | 0°C | 0% | 0hPa | 0V | 00:00:00 | 00:00:00 | 00:00:00 | |
| DO3MHA-11 | 2026-08-31 07:15:20 | 49.83543 | 7.85223 | 65° | 122km/h | 7931m | 2.9m/s | 0°C | 0% | 0hPa | 0V | 00:00:00 | 00:00:00 | 00:00:00 | |
| DO3DL | 2026-08-31 07:15:17 | 49.83505 | 7.85093 | 65° | 124km/h | 7922m | 3.4m/s | -32.8°C | 0% | 0hPa | 0V | 00:00:00 | 00:00:00 | 00:00:00 | |
| DF1GD-15 | 2026-08-31 07:15:16 | 49.83492 | 7.85049 | 67° | 126km/h | 7919m | 4.4m/s | -32.7°C | 0% | 0hPa | 0V | 00:00:00 | 00:00:00 | 00:00:00 | |
| DM0DOS-11 | 2026-08-31 07:15:14 | 49.83452 | 7.84918 | 63° | 119km/h | 7903m | 3.9m/s | 0°C | 0% | 0hPa | 0V | 00:00:00 | 00:00:00 | 00:00:00 | |
| DO3DL | 2026-08-31 07:15:11 | 49.83427 | 7.84830 | 68° | 126km/h | 7900m | 3.4m/s | -32.5°C | 0% | 0hPa | 4.8V | 00:00:00 | 00:00:00 | 00:00:00 | |
| DO3MHA-11 | 2026-08-31 07:15:10 | 49.83414 | 7.84786 | 64° | 122km/h | 7892m | 3.4m/s | 0°C | 0% | 0hPa | 4.8V | 00:00:00 | 00:00:00 | 00:00:00 | |
| BIOWL1-15 | 2026-08-31 07:15:09 | 49.83374 | 7.84655 | 66° | 120km/h | 7884m | 4.2m/s | -32.4°C | 0% | 0hPa | 4.8V | 00:00:00 | 00:00:00 | 00:00:00 | |
| DB0UT-7 | 2026-08-31 07:15:09 | 49.83400 | 7.84742 | 64° | 120km/h | 7889m | 3.9m/s | 0°C | 0% | 0hPa | 0V | 00:00:00 | 00:00:00 | 00:00:00 | |
| CB1BUN | 2026-08-31 07:15:08 | 49.83386 | 7.84699 | 67° | 124km/h | 7889m | 4.0m/s | -32.5°C | 0% | 0hPa | 0V | 00:00:00 | 00:00:00 | 00:00:00 | |
| HEMX73-11 | 2026-08-31 07:15:06 | 49.83361 | 7.84613 | 66° | 117km/h | 7881m | 3.5m/s | -32.4°C | 0% | 0hPa | 0V | 00:00:00 | 00:00:00 | 00:00:00 | |
| DO3DL | 2026-08-31 07:15:05 | 49.83349 | 7.84571 | 68° | 119km/h | 7877m | 4.2m/s | -32.4°C | 0% | 0hPa | 0V | 00:00:00 | 00:00:00 | 00:00:00 | |
| DM0DOS-11 | 2026-08-31 07:15:03 | 49.83324 | 7.84483 | 63° | 124km/h | 7864m | 4.7m/s | 0°C | 0% | 0hPa | 0V | 00:00:00 | 00:00:00 | 00:00:00 | |
| BIOWL1-15 | 2026-08-31 07:15:01 | 49.83259 | 7.84267 | 63° | 120km/h | 7849m | 3.9m/s | -32.2°C | 0% | 0hPa | 4.8V | 00:00:00 | 00:00:00 | 00:00:00 | |
| DO3MHA-11 | 2026-08-31 07:15:00 | 49.83285 | 7.84350 | 67° | 120km/h | 7853m | 4.0m/s | 0°C | 0% | 0hPa | 0V | 00:00:00 | 00:00:00 | 00:00:00 | |
| DO3DL | 2026-08-31 07:14:59 | 49.83272 | 7.84308 | 64° | 117km/h | 7853m | 4.0m/s | -32.2°C | 0% | 0hPa | 0V | 00:00:00 | 00:00:00 | 00:00:00 | |
| DM0DOS-11 | 2026-08-31 07:14:58 | 49.83194 | 7.84047 | 66° | 120km/h | 7825m | 3.6m/s | 0°C | 0% | 0hPa | 0V | 00:00:00 | 00:00:00 | 00:00:00 | |
| DF1GD-15 | 2026-08-31 07:14:55 | 49.83219 | 7.84135 | 65° | 126km/h | 7837m | 3.1m/s | -32.2°C | 0% | 0hPa | 4.8V | 00:00:00 | 00:00:00 | 00:00:00 | |
| NBG1-10 | 2026-08-31 07:14:54 | 49.83206 | 7.84090 | 67° | 119km/h | 7828m | 3.3m/s | 0°C | 0% | 0hPa | 4.8V | 00:00:00 | 00:00:00 | 00:00:00 | |
| DO3MHA-11 | 2026-08-31 07:14:50 | 49.83154 | 7.83921 | 66° | 120km/h | 7812m | 3.8m/s | 0°C | 0% | 0hPa | 4.8V | 00:00:00 | 00:00:00 | 00:00:00 | |
| BIOWL1-15 | 2026-08-31 07:14:48 | 49.83115 | 7.83793 | 65° | 122km/h | 7804m | 4.8m/s | -32°C | 0% | 0hPa | 4.8V | 00:00:00 | 00:00:00 | 00:00:00 | |
| DO3DL | 2026-08-31 07:14:47 | 49.83115 | 7.83793 | 66° | 122km/h | 7804m | 4.8m/s | -32.0°C | 0% | 0hPa | 0V | 00:00:00 | 00:00:00 | 00:00:00 | |
| HEMX73-11 | 2026-08-31 07:14:46 | 49.83102 | 7.83750 | 66° | 120km/h | 7800m | 3.7m/s | -32.0°C | 0% | 0hPa | 0V | 00:00:00 | 00:00:00 | 00:00:00 | |
| DM0DOS-11 | 2026-08-31 07:14:44 | 49.83064 | 7.83624 | 67° | 120km/h | 7783m | 4.9m/s | 0°C | 0% | 0hPa | 0V | 00:00:00 | 00:00:00 | 00:00:00 | |
| DO3DL | 2026-08-31 07:14:41 | 49.83023 | 7.83499 | 64° | 117km/h | 7775m | 3.8m/s | -31.9°C | 0% | 0hPa | 4.8V | 00:00:00 | 00:00:00 | 00:00:00 | |
| DO3MHA-11 | 2026-08-31 07:14:40 | 49.83023 | 7.83499 | 63° | 119km/h | 7771m | 4.7m/s | 0°C | 0% | 0hPa | 4.8V | 00:00:00 | 00:00:00 | 00:00:00 | |
| BIOWL1-15 | 2026-08-31 07:14:39 | 49.82984 | 7.83374 | 68° | 120km/h | 7763m | 3m/s | -31.8°C | 0% | 0hPa | 4.8V | 00:00:00 | 00:00:00 | 00:00:00 | |
| DB0UT-7 | 2026-08-31 07:14:39 | 49.83009 | 7.83458 | 62° | 119km/h | 7767m | 4.3m/s | 0°C | 0% | 0hPa | 0V | 00:00:00 | 00:00:00 | 00:00:00 | |
| DJ3KS | 2026-08-31 07:14:36 | 49.82971 | 7.83331 | 66° | 119km/h | 7759m | 4.8m/s | 0°C | 0% | 0hPa | 0V | 00:00:00 | 00:00:00 | 00:00:00 | |
| DF1GD-15 | 2026-08-31 07:14:34 | 49.82943 | 7.83251 | 61° | 115km/h | 7751m | 4.9m/s | -31.8°C | 0% | 0hPa | 0V | 00:00:00 | 00:00:00 | 00:00:00 | |
| DM0DOS-11 | 2026-08-31 07:14:33 | 49.82929 | 7.83212 | 64° | 117km/h | 7742m | 5.3m/s | 0°C | 0% | 0hPa | 0V | 00:00:00 | 00:00:00 | 00:00:00 | |
| DO3MHA-11 | 2026-08-31 07:14:30 | 49.82890 | 7.83082 | 66° | 119km/h | 7730m | 3.3m/s | 0°C | 0% | 0hPa | 0V | 00:00:00 | 00:00:00 | 00:00:00 | |
| CB1BUN | 2026-08-31 07:14:28 | 49.82852 | 7.82956 | 63° | 124km/h | 7723m | 2.9m/s | -31.6°C | 0% | 0hPa | 0V | 00:00:00 | 00:00:00 | 00:00:00 | |
| DM0DOS-11 | 2026-08-31 07:14:27 | 49.82784 | 7.82751 | 64° | 117km/h | 7699m | 3.4m/s | 0°C | 0% | 0hPa | 0V | 00:00:00 | 00:00:00 | 00:00:00 | |
| BIOWL1-15 | 2026-08-31 07:14:26 | 49.82837 | 7.82914 | 61° | 120km/h | 7719m | 4.8m/s | -31.5°C | 0% | 0hPa | 4.9V | 00:00:00 | 00:00:00 | 00:00:00 | |
| HEMX73-11 | 2026-08-31 07:14:26 | 49.82823 | 7.82874 | 65° | 115km/h | 7715m | 3.0m/s | -31.5°C | 0% | 0hPa | 4.9V | 00:00:00 | 00:00:00 | 00:00:00 | |
| DO3DL | 2026-08-31 07:14:23 | 49.82797 | 7.82791 | 64° | 120km/h | 7708m | 3.2m/s | -31.4°C | 0% | 0hPa | 4.9V | 00:00:00 | 00:00:00 | 00:00:00 | |
| NBG1-10 | 2026-08-31 07:14:21 | 49.82771 | 7.82709 | 65° | 119km/h | 7695m | 4.3m/s | 0°C | 0% | 0hPa | 4.9V | 00:00:00 | 00:00:00 | 00:00:00 | |
| DO3MHA-11 | 2026-08-31 07:14:20 | 49.82759 | 7.82667 | 67° | 119km/h | 7691m | 4.6m/s | 0°C | 0% | 0hPa | 4.9V | 00:00:00 | 00:00:00 | 00:00:00 | |
| BIOWL1-15 | 2026-08-31 07:14:17 | 49.82696 | 7.82454 | 66° | 113km/h | 7675m | 5.1m/s | -31.3°C | 0% | 0hPa | 4.9V | 00:00:00 | 00:00:00 | 00:00:00 | |
| DO3DL | 2026-08-31 07:14:17 | 49.82721 | 7.82539 | 66° | 124km/h | 7683m | 4.6m/s | -31.3°C | 0% | 0hPa | 0V | 00:00:00 | 00:00:00 | 00:00:00 | |
| DM0DOS-11 | 2026-08-31 07:14:14 | 49.82659 | 7.82331 | 62° | 122km/h | 7658m | 4.3m/s | 0°C | 0% | 0hPa | 0V | 00:00:00 | 00:00:00 | 00:00:00 | |
| DO3MHA-11 | 2026-08-31 07:14:10 | 49.82632 | 7.82247 | 64° | 117km/h | 7649m | 3.8m/s | 0°C | 0% | 0hPa | 4.9V | 00:00:00 | 00:00:00 | 00:00:00 | |
| DB0UT-7 | 2026-08-31 07:14:08 | 49.82608 | 7.82162 | 68° | 115km/h | 7640m | 4.2m/s | 0°C | 0% | 0hPa | 4.9V | 00:00:00 | 00:00:00 | 00:00:00 | |
| CB1BUN | 2026-08-31 07:14:06 | 49.82584 | 7.82080 | 65° | 119km/h | 7636m | 3.7m/s | -31.0°C | 0% | 0hPa | 4.9V | 00:00:00 | 00:00:00 | 00:00:00 | |
| BIOWL1-15 | 2026-08-31 07:14:05 | 49.82558 | 7.81998 | 64° | 111km/h | 7628m | 3.3m/s | -30.9°C | 0% | 0hPa | 4.9V | 00:00:00 | 00:00:00 | 00:00:00 | |
| DM0DOS-11 | 2026-08-31 07:14:04 | 49.82534 | 7.81915 | 66° | 120km/h | 7616m | 5.1m/s | 0°C | 0% | 0hPa | 0V | 00:00:00 | 00:00:00 | 00:00:00 | |
| DO3DL | 2026-08-31 07:14:01 | 49.82522 | 7.81872 | 68° | 117km/h | 7616m | 5.1m/s | -30.9°C | 0% | 0hPa | 4.8V | 00:00:00 | 00:00:00 | 00:00:00 | |
| DO3MHA-11 | 2026-08-31 07:14:00 | 49.82510 | 7.81831 | 67° | 117km/h | 7607m | 4.4m/s | 0°C | 0% | 0hPa | 4.8V | 00:00:00 | 00:00:00 | 00:00:00 | |
| BIOWL1-15 | 2026-08-31 07:13:54 | 49.82428 | 7.81539 | 67° | 110km/h | 7583m | 3.1m/s | -30.6°C | 0% | 0hPa | 4.8V | 00:00:00 | 00:00:00 | 00:00:00 | |
| DF1GD-15 | 2026-08-31 07:13:53 | 49.82427 | 7.81539 | 68° | 110km/h | 7583m | 3.1m/s | -30.6°C | 0% | 0hPa | 4.8V | 00:00:00 | 00:00:00 | 00:00:00 | |
| DO3DL | 2026-08-31 07:13:51 | 49.82388 | 7.81414 | 65° | 124km/h | 7571m | 4.9m/s | -30.6°C | 0% | 0hPa | 4.8V | 00:00:00 | 00:00:00 | 00:00:00 | |
| DO3MHA-11 | 2026-08-31 07:13:50 | 49.82388 | 7.81413 | 69° | 117km/h | 7566m | 3.5m/s | 0°C | 0% | 0hPa | 4.8V | 00:00:00 | 00:00:00 | 00:00:00 | |
| NBG1-10 | 2026-08-31 07:13:48 | 49.82365 | 7.81328 | 66° | 115km/h | 7559m | 3.2m/s | 0°C | 0% | 0hPa | 4.8V | 00:00:00 | 00:00:00 | 00:00:00 | |
| CB1BUN | 2026-08-31 07:13:46 | 49.82342 | 7.81247 | 66° | 111km/h | 7555m | 4.9m/s | -30.4°C | 0% | 0hPa | 4.8V | 00:00:00 | 00:00:00 | 00:00:00 | |
| HEMX73-11 | 2026-08-31 07:13:45 | 49.82318 | 7.81167 | 65° | 120km/h | 7547m | 5.4m/s | -30.4°C | 0% | 0hPa | 4.8V | 00:00:00 | 00:00:00 | 00:00:00 | |
| BIOWL1-15 | 2026-08-31 07:13:43 | 49.82304 | 7.81124 | 63° | 126km/h | 7542m | 3.9m/s | -30.4°C | 0% | 0hPa | 4.8V | 00:00:00 | 00:00:00 | 00:00:00 | |
| DO3MHA-11 | 2026-08-31 07:13:40 | 49.82267 | 7.81000 | 65° | 115km/h | 7526m | 3.9m/s | 0°C | 0% | 0hPa | 0V | 00:00:00 | 00:00:00 | 00:00:00 | |
| DO3DL | 2026-08-31 07:13:39 | 49.82243 | 7.80919 | 69° | 113km/h | 7522m | 5.5m/s | -30.2°C | 0% | 0hPa | 0V | 00:00:00 | 00:00:00 | 00:00:00 | |
| DB0UT-7 | 2026-08-31 07:13:38 | 49.82243 | 7.80919 | 69° | 117km/h | 7517m | 4.3m/s | 0°C | 0% | 0hPa | 0V | 00:00:00 | 00:00:00 | 00:00:00 | |
| DM0DOS-11 | 2026-08-31 07:13:37 | 49.82170 | 7.80672 | 68° | 111km/h | 7489m | 4m/s | 0°C | 0% | 0hPa | 0V | 00:00:00 | 00:00:00 | 00:00:00 | |
| BIOWL1-15 | 2026-08-31 07:13:34 | 49.82170 | 7.80672 | 68° | 111km/h | 7493m | 5.5m/s | -29.9°C | 0% | 0hPa | 4.9V | 00:00:00 | 00:00:00 | 00:00:00 | |
| DJ3KS | 2026-08-31 07:13:33 | 49.82170 | 7.80672 | 69° | 111km/h | 7494m | 5.5m/s | 0°C | 0% | 0hPa | 0V | 00:00:00 | 00:00:00 | 00:00:00 | |
| DO3DL | 2026-08-31 07:13:32 | 49.82170 | 7.80672 | 69° | 111km/h | 7494m | 5.5m/s | -29.9°C | 0% | 0hPa | 0V | 00:00:00 | 00:00:00 | 00:00:00 | |
| DO3MHA-11 | 2026-08-31 07:13:30 | 49.82145 | 7.80589 | 65° | 115km/h | 7479m | 5.2m/s | 0°C | 0% | 0hPa | 0V | 00:00:00 | 00:00:00 | 00:00:00 | |
| DB0NH | 2026-08-31 07:13:29 | 49.82132 | 7.80546 | 63° | 115km/h | 7475m | 3.2m/s | 0°C | 0% | 0hPa | 0V | 00:00:00 | 00:00:00 | 00:00:00 | |
| DO3DL | 2026-08-31 07:13:25 | 49.82084 | 7.80382 | 69° | 113km/h | 7461m | 4.6m/s | 0°C | 0% | 0hPa | 0V | 00:00:00 | 00:00:00 | 00:00:00 | |
| DM0DOS-11 | 2026-08-31 07:13:24 | 49.82048 | 7.80258 | 62° | 122km/h | 7443m | 5.3m/s | 0°C | 0% | 0hPa | 0V | 00:00:00 | 00:00:00 | 00:00:00 | |
| BIOWL1-15 | 2026-08-31 07:13:22 | 49.82034 | 7.80218 | 63° | 119km/h | 7443m | 5.3m/s | -29.6°C | 0% | 0hPa | 4.9V | 00:00:00 | 00:00:00 | 00:00:00 | |
| DO3MHA-11 | 2026-08-31 07:13:20 | 49.82021 | 7.80180 | 67° | 111km/h | 7434m | 5.0m/s | 0°C | 0% | 0hPa | 0V | 00:00:00 | 00:00:00 | 00:00:00 | |
| DM0DOS-11 | 2026-08-31 07:13:17 | 49.81927 | 7.79856 | 64° | 104km/h | 7399m | 4.8m/s | 0°C | 0% | 0hPa | 0V | 00:00:00 | 00:00:00 | 00:00:00 | |
| NBG1-10 | 2026-08-31 07:13:15 | 49.81964 | 7.79978 | 66° | 115km/h | 7413m | 2.3m/s | 0°C | 0% | 0hPa | 4.9V | 00:00:00 | 00:00:00 | 00:00:00 | |
| BIOWL1-15 | 2026-08-31 07:13:13 | 49.81905 | 7.79777 | 68° | 119km/h | 7395m | 2.5m/s | -29.1°C | 0% | 0hPa | 4.9V | 00:00:00 | 00:00:00 | 00:00:00 | |
| DO3DL | 2026-08-31 07:13:12 | 49.81916 | 7.79818 | 68° | 110km/h | 7399m | 4.8m/s | 0°C | 0% | 0hPa | 0V | 00:00:00 | 00:00:00 | 00:00:00 | |
| CB1BUN | 2026-08-31 07:13:05 | 49.81844 | 7.79575 | 70° | 113km/h | 7374m | 2.1m/s | -28.9°C | 0% | 0hPa | 0V | 00:00:00 | 00:00:00 | 00:00:00 | |
| DM0DOS-11 | 2026-08-31 07:13:03 | 49.81806 | 7.79453 | 62° | 119km/h | 7357m | 3.4m/s | 0°C | 0% | 0hPa | 0V | 00:00:00 | 00:00:00 | 00:00:00 | |
| BIOWL1-15 | 2026-08-31 07:13:00 | 49.81733 | 7.79205 | 61° | 120km/h | 7334m | 4.4m/s | -28.6°C | 0% | 0hPa | 4.9V | 00:00:00 | 00:00:00 | 00:00:00 | |
| DB0NH | 2026-08-31 07:12:59 | 49.81772 | 7.79330 | 66° | 117km/h | 7343m | 6.1m/s | 0°C | 0% | 0hPa | 0V | 00:00:00 | 00:00:00 | 00:00:00 | |
| DM0DOS-11 | 2026-08-31 07:12:57 | 49.81685 | 7.79042 | 61° | 115km/h | 7308m | 5.2m/s | 0°C | 0% | 0hPa | 0V | 00:00:00 | 00:00:00 | 00:00:00 | |
| DF1GD-15 | 2026-08-31 07:12:52 | 49.81685 | 7.79043 | 69° | 115km/h | 7318m | 5.7m/s | -28.5°C | 0% | 0hPa | 4.9V | 00:00:00 | 00:00:00 | 00:00:00 | |
| BIOWL1-15 | 2026-08-31 07:12:47 | 49.81595 | 7.78756 | 63° | 115km/h | 7287m | 6m/s | -28.2°C | 0% | 0hPa | 4.9V | 00:00:00 | 00:00:00 | 00:00:00 | |
| CB1BUN | 2026-08-31 07:12:45 | 49.81582 | 7.78718 | 61° | 108km/h | 7282m | 3.8m/s | -28.2°C | 0% | 0hPa | 0V | 00:00:00 | 00:00:00 | 00:00:00 | |
| DM0DOS-11 | 2026-08-31 07:12:43 | 49.81557 | 7.78640 | 68° | 115km/h | 7269m | 4.6m/s | 0°C | 0% | 0hPa | 0V | 00:00:00 | 00:00:00 | 00:00:00 | |
| NBG1-10 | 2026-08-31 07:12:42 | 49.81557 | 7.78640 | 69° | 117km/h | 7270m | 4.6m/s | 0°C | 0% | 0hPa | 0V | 00:00:00 | 00:00:00 | 00:00:00 | |
| DL8DAS-15 | 2026-08-31 07:12:40 | 49.81534 | 7.78556 | 66° | 119km/h | 7265m | 4.3m/s | -28.0°C | 0% | 0hPa | 0V | 00:00:00 | 00:00:00 | 00:00:00 | |
| DM0DOS-11 | 2026-08-31 07:12:37 | 49.81432 | 7.78229 | 61° | 120km/h | 7226m | 3.5m/s | 0°C | 0% | 0hPa | 0V | 00:00:00 | 00:00:00 | 00:00:00 | |
| DO3DL | 2026-08-31 07:12:35 | 49.81470 | 7.78349 | 69° | 113km/h | 7243m | 3.1m/s | -27.8°C | 0% | 0hPa | 4.9V | 00:00:00 | 00:00:00 | 00:00:00 | |
| BIOWL1-15 | 2026-08-31 07:12:34 | 49.81459 | 7.78309 | 66° | 113km/h | 7238m | 6m/s | -27.7°C | 0% | 0hPa | 4.9V | 00:00:00 | 00:00:00 | 00:00:00 | |
| DF1GD-15 | 2026-08-31 07:12:31 | 49.81417 | 7.78186 | 65° | 122km/h | 7226m | 3.5m/s | -27.6°C | 0% | 0hPa | 0V | 00:00:00 | 00:00:00 | 00:00:00 | |
| DB0NH | 2026-08-31 07:12:29 | 49.81391 | 7.78103 | 64° | 115km/h | 7213m | 4.3m/s | 0°C | 0% | 0hPa | 0V | 00:00:00 | 00:00:00 | 00:00:00 | |
| DO3DL | 2026-08-31 07:12:28 | 49.81379 | 7.78063 | 68° | 113km/h | 7213m | 4.3m/s | -27.6°C | 0% | 0hPa | 0V | 00:00:00 | 00:00:00 | 00:00:00 | |
| CB1BUN | 2026-08-31 07:12:24 | 49.81327 | 7.77895 | 67° | 124km/h | 7195m | 3.7m/s | -27.6°C | 0% | 0hPa | 0V | 00:00:00 | 00:00:00 | 00:00:00 | |
| DM0DOS-11 | 2026-08-31 07:12:23 | 49.81301 | 7.77814 | 66° | 111km/h | 7183m | 5.4m/s | 0°C | 0% | 0hPa | 0V | 00:00:00 | 00:00:00 | 00:00:00 | |
| HEMX73-11 | 2026-08-31 07:12:22 | 49.81301 | 7.77812 | 65° | 111km/h | 7187m | 3.0m/s | -27.6°C | 0% | 0hPa | 0V | 00:00:00 | 00:00:00 | 00:00:00 | |
| DO3DL | 2026-08-31 07:12:20 | 49.81278 | 7.77729 | 70° | 120km/h | 7178m | 3.5m/s | -27.6°C | 0% | 0hPa | 0V | 00:00:00 | 00:00:00 | 00:00:00 | |
| DM0DOS-11 | 2026-08-31 07:12:17 | 49.81182 | 7.77397 | 65° | 110km/h | 7139m | 4.7m/s | 0°C | 0% | 0hPa | 0V | 00:00:00 | 00:00:00 | 00:00:00 | |
| DB0UT-7 | 2026-08-31 07:12:15 | 49.81218 | 7.77518 | 66° | 115km/h | 7152m | 4.5m/s | 0°C | 0% | 0hPa | 4.9V | 00:00:00 | 00:00:00 | 00:00:00 | |
| DO3DL | 2026-08-31 07:12:14 | 49.81206 | 7.77477 | 66° | 120km/h | 7152m | 4.6m/s | -27.5°C | 0% | 0hPa | 4.9V | 00:00:00 | 00:00:00 | 00:00:00 | |
| BIOWL1-15 | 2026-08-31 07:12:13 | 49.81122 | 7.77193 | 65° | 117km/h | 7122m | 3.4m/s | -27.3°C | 0% | 0hPa | 4.9V | 00:00:00 | 00:00:00 | 00:00:00 | |
| DF1GD-15 | 2026-08-31 07:12:11 | 49.81157 | 7.77317 | 65° | 117km/h | 7135m | 4.8m/s | -27.4°C | 0% | 0hPa | 0V | 00:00:00 | 00:00:00 | 00:00:00 | |
| NBG1-10 | 2026-08-31 07:12:09 | 49.81145 | 7.77276 | 67° | 115km/h | 7127m | 5.0m/s | 0°C | 0% | 0hPa | 0V | 00:00:00 | 00:00:00 | 00:00:00 | |
| DO3DL | 2026-08-31 07:12:08 | 49.81134 | 7.77234 | 68° | 117km/h | 7127m | 5.0m/s | -27.3°C | 0% | 0hPa | 0V | 00:00:00 | 00:00:00 | 00:00:00 | |
| DM0DOS-11 | 2026-08-31 07:12:07 | 49.81062 | 7.76990 | 66° | 117km/h | 7095m | 4.7m/s | 0°C | 0% | 0hPa | 0V | 00:00:00 | 00:00:00 | 00:00:00 | |
| CB1BUN | 2026-08-31 07:12:03 | 49.81074 | 7.77033 | 65° | 117km/h | 7104m | 4.8m/s | -27.1°C | 0% | 0hPa | 4.9V | 00:00:00 | 00:00:00 | 00:00:00 | |
| HEMX73-11 | 2026-08-31 07:12:01 | 49.81051 | 7.76949 | 68° | 117km/h | 7095m | 4.7m/s | -27.1°C | 0% | 0hPa | 4.9V | 00:00:00 | 00:00:00 | 00:00:00 | |
| BIOWL1-15 | 2026-08-31 07:11:59 | 49.81003 | 7.76789 | 65° | 115km/h | 7078m | 4.8m/s | -26.9°C | 0% | 0hPa | 4.9V | 00:00:00 | 00:00:00 | 00:00:00 | |
| DB0NH | 2026-08-31 07:11:59 | 49.81026 | 7.76869 | 65° | 115km/h | 7083m | 3.4m/s | 0°C | 0% | 0hPa | 0V | 00:00:00 | 00:00:00 | 00:00:00 | |
| DM0DOS-11 | 2026-08-31 07:11:57 | 49.80946 | 7.76580 | 66° | 119km/h | 7052m | 4.8m/s | 0°C | 0% | 0hPa | 0V | 00:00:00 | 00:00:00 | 00:00:00 | |
| DO3DL | 2026-08-31 07:11:55 | 49.80978 | 7.76705 | 68° | 117km/h | 7070m | 5.4m/s | -26.9°C | 0% | 0hPa | 4.9V | 00:00:00 | 00:00:00 | 00:00:00 | |
| DF1GD-15 | 2026-08-31 07:11:50 | 49.80920 | 7.76501 | 62° | 113km/h | 7048m | 3.1m/s | -26.8°C | 0% | 0hPa | 4.9V | 00:00:00 | 00:00:00 | 00:00:00 | |
| DO3DL | 2026-08-31 07:11:48 | 49.80894 | 7.76419 | 68° | 120km/h | 7040m | 4.0m/s | -26.7°C | 0% | 0hPa | 4.9V | 00:00:00 | 00:00:00 | 00:00:00 | |
| BIOWL1-15 | 2026-08-31 07:11:47 | 49.80882 | 7.76376 | 67° | 120km/h | 7036m | 3.9m/s | -26.6°C | 0% | 0hPa | 4.9V | 00:00:00 | 00:00:00 | 00:00:00 | |
| DM0DOS-11 | 2026-08-31 07:11:47 | 49.80822 | 7.76170 | 66° | 115km/h | 7011m | 3m/s | 0°C | 0% | 0hPa | 0V | 00:00:00 | 00:00:00 | 00:00:00 | |
| DB0UT-7 | 2026-08-31 07:11:45 | 49.80858 | 7.76292 | 66° | 113km/h | 7024m | 5.4m/s | 0°C | 0% | 0hPa | 4.9V | 00:00:00 | 00:00:00 | 00:00:00 | |
| CB1BUN | 2026-08-31 07:11:43 | 49.80834 | 7.76211 | 66° | 115km/h | 7019m | 4.3m/s | -26.6°C | 0% | 0hPa | 4.9V | 00:00:00 | 00:00:00 | 00:00:00 | |
| DO3DL | 2026-08-31 07:11:42 | 49.80822 | 7.76170 | 68° | 115km/h | 7014m | 4.5m/s | -26.5°C | 0% | 0hPa | 4.9V | 00:00:00 | 00:00:00 | 00:00:00 | |
| HEMX73-11 | 2026-08-31 07:11:41 | 49.80810 | 7.76128 | 68° | 119km/h | 7011m | 3.0m/s | -26.5°C | 0% | 0hPa | 4.9V | 00:00:00 | 00:00:00 | 00:00:00 | |
| BIOWL1-15 | 2026-08-31 07:11:37 | 49.80750 | 7.75925 | 69° | 113km/h | 6989m | 3.7m/s | -26.4°C | 0% | 0hPa | 4.9V | 00:00:00 | 00:00:00 | 00:00:00 | |
| NBG1-10 | 2026-08-31 07:11:36 | 49.80750 | 7.75925 | 69° | 111km/h | 6985m | 4.9m/s | 0°C | 0% | 0hPa | 0V | 00:00:00 | 00:00:00 | 00:00:00 | |
| DO3DL | 2026-08-31 07:11:35 | 49.80739 | 7.75883 | 68° | 117km/h | 6985m | 5.0m/s | -26.4°C | 0% | 0hPa | 0V | 00:00:00 | 00:00:00 | 00:00:00 | |
| DM0DOS-11 | 2026-08-31 07:11:30 | 49.80666 | 7.75646 | 66° | 113km/h | 6952m | 4.6m/s | 0°C | 0% | 0hPa | 0V | 00:00:00 | 00:00:00 | 00:00:00 | |
| DB0NH | 2026-08-31 07:11:29 | 49.80666 | 7.75646 | 67° | 111km/h | 6952m | 4.5m/s | 0°C | 0% | 0hPa | 4.9V | 00:00:00 | 00:00:00 | 00:00:00 | |
| DF1GD-15 | 2026-08-31 07:11:28 | 49.80655 | 7.75604 | 68° | 120km/h | 6952m | 4.6m/s | -26.2°C | 0% | 0hPa | 4.9V | 00:00:00 | 00:00:00 | 00:00:00 | |
| BIOWL1-15 | 2026-08-31 07:11:27 | 49.80617 | 7.75481 | 64° | 111km/h | 6938m | 5.1m/s | -26.1°C | 0% | 0hPa | 4.9V | 00:00:00 | 00:00:00 | 00:00:00 | |
| DO3DL | 2026-08-31 07:11:22 | 49.80581 | 7.75363 | 68° | 117km/h | 6926m | 2.5m/s | -25.9°C | 0% | 0hPa | 0V | 00:00:00 | 00:00:00 | 00:00:00 | |
| DM0DOS-11 | 2026-08-31 07:11:20 | 49.80545 | 7.75239 | 63° | 111km/h | 6905m | 5.3m/s | 0°C | 0% | 0hPa | 0V | 00:00:00 | 00:00:00 | 00:00:00 | |
| DO3DL | 2026-08-31 07:11:16 | 49.80507 | 7.75126 | 63° | 104km/h | 6901m | 3.7m/s | -25.7°C | 0% | 0hPa | 4.9V | 00:00:00 | 00:00:00 | 00:00:00 | |
| DB0UT-7 | 2026-08-31 07:11:15 | 49.80495 | 7.75088 | 65° | 110km/h | 6893m | 2.8m/s | 0°C | 0% | 0hPa | 4.9V | 00:00:00 | 00:00:00 | 00:00:00 | |
| BIOWL1-15 | 2026-08-31 07:11:14 | 49.80484 | 7.75051 | 67° | 113km/h | 6893m | 2.8m/s | -25.6°C | 0% | 0hPa | 4.9V | 00:00:00 | 00:00:00 | 00:00:00 | |
| DM0DOS-11 | 2026-08-31 07:11:10 | 49.80409 | 7.74815 | 65° | 108km/h | 6862m | 5.2m/s | 0°C | 0% | 0hPa | 0V | 00:00:00 | 00:00:00 | 00:00:00 | |
| DO3DL | 2026-08-31 07:11:09 | 49.80420 | 7.74853 | 66° | 108km/h | 6870m | 5.3m/s | -25.5°C | 0% | 0hPa | 4.9V | 00:00:00 | 00:00:00 | 00:00:00 | |
| DF1GD-15 | 2026-08-31 07:11:07 | 49.80397 | 7.74777 | 66° | 106km/h | 6862m | 5.2m/s | -25.4°C | 0% | 0hPa | 4.9V | 00:00:00 | 00:00:00 | 00:00:00 | |
| BIOWL1-15 | 2026-08-31 07:11:06 | 49.80348 | 7.74625 | 67° | 113km/h | 6844m | 3.9m/s | -25.3°C | 0% | 0hPa | 4.9V | 00:00:00 | 00:00:00 | 00:00:00 | |
| NBG1-10 | 2026-08-31 07:11:03 | 49.80348 | 7.74625 | 67° | 108km/h | 6841m | 2.9m/s | 0°C | 0% | 0hPa | 0V | 00:00:00 | 00:00:00 | 00:00:00 | |
| DF3TZ-5 | 2026-08-31 07:11:02 | 49.80322 | 7.74546 | 61° | 110km/h | 6837m | 5.0m/s | -25.2°C | -1.0% | -1.0hPa | 0V | 00:00:00 | 00:00:00 | 00:00:00 | |
| DM0DOS-11 | 2026-08-31 07:11:00 | 49.80286 | 7.74432 | 64° | 111km/h | 6821m | 5.4m/s | 0°C | 0% | 0hPa | 0V | 00:00:00 | 00:00:00 | 00:00:00 | |
| DB0NH | 2026-08-31 07:10:59 | 49.80298 | 7.74471 | 66° | 108km/h | 6825m | 2.6m/s | 0°C | 0% | 0hPa | 4.9V | 00:00:00 | 00:00:00 | 00:00:00 | |
| DO3DL | 2026-08-31 07:10:56 | 49.80262 | 7.74356 | 67° | 106km/h | 6817m | 4.7m/s | -25.0°C | 0% | 0hPa | 4.9V | 00:00:00 | 00:00:00 | 00:00:00 | |
| BIOWL1-15 | 2026-08-31 07:10:53 | 49.80227 | 7.74241 | 62° | 110km/h | 6803m | 5m/s | -24.9°C | 0% | 0hPa | 4.9V | 00:00:00 | 00:00:00 | 00:00:00 | |
| DM0DOS-11 | 2026-08-31 07:10:50 | 49.80172 | 7.74048 | 69° | 106km/h | 6778m | 3.4m/s | 0°C | 0% | 0hPa | 0V | 00:00:00 | 00:00:00 | 00:00:00 | |
| DF1GD-15 | 2026-08-31 07:10:47 | 49.80133 | 7.74009 | 65° | 113km/h | 6778m | 3.4m/s | -24.8°C | 0% | 0hPa | 4.9V | 00:00:00 | 00:00:00 | 00:00:00 | |
| DB0UT-7 | 2026-08-31 07:10:45 | 49.80133 | 7.73935 | 71° | 106km/h | 6762m | 3.1m/s | 0°C | 0% | 0hPa | 4.9V | 00:00:00 | 00:00:00 | 00:00:00 | |
| BIOWL1-15 | 2026-08-31 07:10:44 | 49.80100 | 7.73818 | 71° | 102km/h | 6758m | 5.1m/s | -24.6°C | 0% | 0hPa | 4.9V | 00:00:00 | 00:00:00 | 00:00:00 | |
| DO3DL | 2026-08-31 07:10:44 | 49.80119 | 7.73896 | 63° | 110km/h | 6766m | 5.0m/s | -24.7°C | 0% | 0hPa | 0V | 00:00:00 | 00:00:00 | 00:00:00 | |
| CB1BUN | 2026-08-31 07:10:42 | 49.80090 | 7.73781 | 66° | 104km/h | 6755m | 1.1m/s | -24.5°C | 0% | 0hPa | 0V | 00:00:00 | 00:00:00 | 00:00:00 | |
| DM0DOS-11 | 2026-08-31 07:10:40 | 49.80055 | 7.73665 | 64° | 113km/h | 6738m | 4m/s | 0°C | 0% | 0hPa | 0V | 00:00:00 | 00:00:00 | 00:00:00 | |
| HEMX73-11 | 2026-08-31 07:10:40 | 49.80067 | 7.73706 | 66° | 113km/h | 6746m | 4.8m/s | -24.5°C | 0% | 0hPa | 4.9V | 00:00:00 | 00:00:00 | 00:00:00 | |
| DO3DL | 2026-08-31 07:10:37 | 49.80043 | 7.73628 | 66° | 104km/h | 6738m | 4.0m/s | -24.4°C | 0% | 0hPa | 4.9V | 00:00:00 | 00:00:00 | 00:00:00 | |
| BIOWL1-15 | 2026-08-31 07:10:32 | 49.79977 | 7.73402 | 67° | 106km/h | 6713m | 4.5m/s | -24.2°C | 0% | 0hPa | 4.9V | 00:00:00 | 00:00:00 | 00:00:00 | |
| DO3DL | 2026-08-31 07:10:31 | 49.79977 | 7.73402 | 68° | 106km/h | 6714m | 4.5m/s | -24.2°C | 0% | 0hPa | 0V | 00:00:00 | 00:00:00 | 00:00:00 | |
| DM0DOS-11 | 2026-08-31 07:10:30 | 49.79945 | 7.73287 | 65° | 99km/h | 6698m | 4.7m/s | 0°C | 0% | 0hPa | 0V | 00:00:00 | 00:00:00 | 00:00:00 | |
| NBG1-10 | 2026-08-31 07:10:30 | 49.79966 | 7.73360 | 68° | 106km/h | 6706m | 5.3m/s | 0°C | 0% | 0hPa | 4.9V | 00:00:00 | 00:00:00 | 00:00:00 | |
| DB0NH | 2026-08-31 07:10:29 | 49.79956 | 7.73323 | 68° | 104km/h | 6702m | 3.0m/s | 0°C | 0% | 0hPa | 4.9V | 00:00:00 | 00:00:00 | 00:00:00 | |
| DF1GD-15 | 2026-08-31 07:10:25 | 49.79911 | 7.73175 | 67° | 106km/h | 6691m | 5.1m/s | -24.0°C | 0% | 0hPa | 4.9V | 00:00:00 | 00:00:00 | 00:00:00 | |
| DO3DL | 2026-08-31 07:10:24 | 49.79901 | 7.73138 | 70° | 99km/h | 6686m | 3.9m/s | -24.0°C | 0% | 0hPa | 4.9V | 00:00:00 | 00:00:00 | 00:00:00 | |
| BIOWL1-15 | 2026-08-31 07:10:21 | 49.79859 | 7.72988 | 64° | 100km/h | 6670m | 3.5m/s | -23.8°C | 0% | 0hPa | 4.9V | 00:00:00 | 00:00:00 | 00:00:00 | |
| DM0DOS-11 | 2026-08-31 07:10:21 | 49.79837 | 7.72913 | 67° | 110km/h | 6658m | 3.1m/s | 0°C | 0% | 0hPa | 0V | 00:00:00 | 00:00:00 | 00:00:00 | |
| HEMX73-11 | 2026-08-31 07:10:19 | 49.79848 | 7.72952 | 66° | 108km/h | 6666m | 4.8m/s | -23.8°C | 0% | 0hPa | 0V | 00:00:00 | 00:00:00 | 00:00:00 | |
| DO3DL | 2026-08-31 07:10:18 | 49.79836 | 7.72912 | 69° | 110km/h | 6661m | 4.1m/s | -23.8°C | 0% | 0hPa | 0V | 00:00:00 | 00:00:00 | 00:00:00 | |
| DB0UT-7 | 2026-08-31 07:10:15 | 49.79806 | 7.72798 | 66° | 104km/h | 6646m | 3.8m/s | 0°C | 0% | 0hPa | 0V | 00:00:00 | 00:00:00 | 00:00:00 | |
| DO3DL | 2026-08-31 07:10:11 | 49.79769 | 7.72652 | 69° | 104km/h | 6634m | 4.2m/s | -23.6°C | 0% | 0hPa | 0V | 00:00:00 | 00:00:00 | 00:00:00 | |
| DM0DOS-11 | 2026-08-31 07:10:10 | 49.79738 | 7.72539 | 67° | 100km/h | 6615m | 4.5m/s | 0°C | 0% | 0hPa | 0V | 00:00:00 | 00:00:00 | 00:00:00 | |
| DO3DL | 2026-08-31 07:10:05 | 49.79707 | 7.72424 | 70° | 100km/h | 6607m | 3.2m/s | -23.4°C | 0% | 0hPa | 4.9V | 00:00:00 | 00:00:00 | 00:00:00 | |
| DB0ND-19 | 2026-08-31 07:10:03 | 49.79677 | 7.72314 | 66° | 102km/h | 6596m | 3.9m/s | -22.8°C | -1.0% | -1.0hPa | 4.9V | 00:00:00 | 00:00:00 | 00:00:00 | |
| BIOWL1-15 | 2026-08-31 07:10:00 | 49.79649 | 7.72202 | 70° | 113km/h | 6584m | 2.8m/s | -23.2°C | 0% | 0hPa | 4.9V | 00:00:00 | 00:00:00 | 00:00:00 | |
| HEMX73-11 | 2026-08-31 07:09:59 | 49.79640 | 7.72161 | 70° | 111km/h | 6581m | 4.3m/s | -23.2°C | 0% | 0hPa | 0V | 00:00:00 | 00:00:00 | 00:00:00 | |
| DO3DL | 2026-08-31 07:09:58 | 49.79640 | 7.72161 | 70° | 111km/h | 6581m | 4.3m/s | -23.2°C | 0% | 0hPa | 0V | 00:00:00 | 00:00:00 | 00:00:00 | |
| NBG1-10 | 2026-08-31 07:09:57 | 49.79629 | 7.72123 | 66° | 104km/h | 6573m | 4.8m/s | 0°C | 0% | 0hPa | 0V | 00:00:00 | 00:00:00 | 00:00:00 | |
| DM0DOS-11 | 2026-08-31 07:09:50 | 49.79539 | 7.71787 | 72° | 106km/h | 6537m | 3.9m/s | 0°C | 0% | 0hPa | 0V | 00:00:00 | 00:00:00 | 00:00:00 | |
| BIOWL1-15 | 2026-08-31 07:09:48 | 49.79539 | 7.71787 | 73° | 106km/h | 6541m | 3.2m/s | -22.8°C | 0% | 0hPa | 4.9V | 00:00:00 | 00:00:00 | 00:00:00 | |
| DB0UT-7 | 2026-08-31 07:09:45 | 49.79507 | 7.71678 | 64° | 102km/h | 6527m | 3.0m/s | 0°C | 0% | 0hPa | 0V | 00:00:00 | 00:00:00 | 00:00:00 | |
| DM0DOS-11 | 2026-08-31 07:09:40 | 49.79433 | 7.71420 | 69° | 102km/h | 6496m | 3.8m/s | 0°C | 0% | 0hPa | 0V | 00:00:00 | 00:00:00 | 00:00:00 | |
| BIOWL1-15 | 2026-08-31 07:09:38 | 49.79424 | 7.71383 | 70° | 99km/h | 6496m | 3.9m/s | -22.5°C | 0% | 0hPa | 4.9V | 00:00:00 | 00:00:00 | 00:00:00 | |
| DM0DOS-11 | 2026-08-31 07:09:30 | 49.79328 | 7.71053 | 62° | 102km/h | 6436m | 4.9m/s | 0°C | 0% | 0hPa | 0V | 00:00:00 | 00:00:00 | 00:00:00 | |
| BIOWL1-15 | 2026-08-31 07:09:29 | 49.79307 | 7.70977 | 72° | 110km/h | 6456m | 3.2m/s | -22.1°C | 0% | 0hPa | 4.9V | 00:00:00 | 00:00:00 | 00:00:00 | |
| DB0NH | 2026-08-31 07:09:28 | 49.79328 | 7.71053 | 63° | 104km/h | 6460m | 4.1m/s | 0°C | 0% | 0hPa | 0V | 00:00:00 | 00:00:00 | 00:00:00 | |
| NBG1-10 | 2026-08-31 07:09:24 | 49.79288 | 7.70899 | 64° | 104km/h | 6430m | 5.7m/s | 0°C | 0% | 0hPa | 0V | 00:00:00 | 00:00:00 | 00:00:00 | |
| DH7VM-15 | 2026-08-31 07:09:22 | 49.79264 | 7.70829 | 63° | 100km/h | 6440m | 3.1m/s | -21.9°C | 0% | 0hPa | 0V | 00:00:00 | 00:00:00 | 00:00:00 | |
| CB1BUN | 2026-08-31 07:09:19 | 49.79233 | 7.70718 | 70° | 102km/h | 6430m | 5.8m/s | -21.8°C | 0% | 0hPa | 0V | 00:00:00 | 00:00:00 | 00:00:00 | |
| DM0DOS-11 | 2026-08-31 07:09:18 | 49.79169 | 7.70496 | 68° | 93km/h | 6364m | 4.3m/s | 0°C | 0% | 0hPa | 0V | 00:00:00 | 00:00:00 | 00:00:00 | |
| HEMX73-11 | 2026-08-31 07:09:18 | 49.79214 | 7.70647 | 68° | 97km/h | 6422m | 3.6m/s | -21.8°C | 0% | 0hPa | 4.9V | 00:00:00 | 00:00:00 | 00:00:00 | |
| BIOWL1-15 | 2026-08-31 07:09:16 | 49.79161 | 7.70461 | 71° | 95km/h | 6400m | 3.5m/s | -21.6°C | 0% | 0hPa | 4.9V | 00:00:00 | 00:00:00 | 00:00:00 | |
| DB0UT-7 | 2026-08-31 07:09:15 | 49.79191 | 7.70570 | 65° | 102km/h | 6408m | 3.5m/s | 0°C | 0% | 0hPa | 0V | 00:00:00 | 00:00:00 | 00:00:00 | |
| DM0DOS-11 | 2026-08-31 07:09:08 | 49.79071 | 7.70131 | 68° | 111km/h | 6360m | 2.9m/s | 0°C | 0% | 0hPa | 0V | 00:00:00 | 00:00:00 | 00:00:00 | |
| DF7PN | 2026-08-31 07:09:04 | 49.79071 | 7.70131 | 68° | 110km/h | 6364m | 4.3m/s | -21.3°C | -1.0% | -1.0hPa | 0V | 00:00:00 | 00:00:00 | 00:00:00 | |
| BIOWL1-15 | 2026-08-31 07:09:04 | 49.79071 | 7.70131 | 68° | 111km/h | 6364m | 4.3m/s | -21.3°C | 0% | 0hPa | 5V | 00:00:00 | 00:00:00 | 00:00:00 | |
| DM0DOS-11 | 2026-08-31 07:08:58 | 49.78969 | 7.69755 | 65° | 102km/h | 6322m | 2.5m/s | 0°C | 0% | 0hPa | 0V | 00:00:00 | 00:00:00 | 00:00:00 | |
| DB0NH | 2026-08-31 07:08:58 | 49.79020 | 7.69943 | 62° | 100km/h | 6341m | 3.5m/s | 0°C | 0% | 0hPa | 5V | 00:00:00 | 00:00:00 | 00:00:00 | |
| BIOWL1-15 | 2026-08-31 07:08:57 | 49.78960 | 7.69720 | 69° | 97km/h | 6322m | 2.5m/s | -20.9°C | 0% | 0hPa | 5V | 00:00:00 | 00:00:00 | 00:00:00 | |
| NBG1-10 | 2026-08-31 07:08:50 | 49.78940 | 7.69651 | 65° | 100km/h | 6311m | 3.5m/s | 0°C | 0% | 0hPa | 0V | 00:00:00 | 00:00:00 | 00:00:00 | |
| DM0DOS-11 | 2026-08-31 07:08:48 | 49.78871 | 7.69396 | 67° | 102km/h | 6281m | 4.1m/s | 0°C | 0% | 0hPa | 0V | 00:00:00 | 00:00:00 | 00:00:00 | |
| DB0UT-7 | 2026-08-31 07:08:45 | 49.78890 | 7.69467 | 68° | 100km/h | 6290m | 4.4m/s | 0°C | 0% | 0hPa | 5V | 00:00:00 | 00:00:00 | 00:00:00 | |
| BIOWL1-15 | 2026-08-31 07:08:44 | 49.78851 | 7.69321 | 68° | 99km/h | 6276m | 4.3m/s | -20.6°C | 0% | 0hPa | 5V | 00:00:00 | 00:00:00 | 00:00:00 | |
| DM0DOS-11 | 2026-08-31 07:08:38 | 49.78777 | 7.69027 | 67° | 102km/h | 6242m | 1.6m/s | 0°C | 0% | 0hPa | 0V | 00:00:00 | 00:00:00 | 00:00:00 | |
| HEMX73-11 | 2026-08-31 07:08:37 | 49.78806 | 7.69137 | 68° | 97km/h | 6257m | 3.1m/s | -20.3°C | 0% | 0hPa | 5V | 00:00:00 | 00:00:00 | 00:00:00 | |
| BIOWL1-15 | 2026-08-31 07:08:33 | 49.78750 | 7.68920 | 67° | 108km/h | 6235m | 3m/s | -20.2°C | 0% | 0hPa | 5V | 00:00:00 | 00:00:00 | 00:00:00 | |
| DB0NH | 2026-08-31 07:08:28 | 49.78730 | 7.68844 | 72° | 99km/h | 6223m | 5.2m/s | 0°C | 0% | 0hPa | 0V | 00:00:00 | 00:00:00 | 00:00:00 | |
| DM0DOS-11 | 2026-08-31 07:08:23 | 49.78683 | 7.68659 | 64° | 111km/h | 6205m | 1.9m/s | 0°C | 0% | 0hPa | 0V | 00:00:00 | 00:00:00 | 00:00:00 | |
| BIOWL1-15 | 2026-08-31 07:08:21 | 49.78654 | 7.68561 | 70° | 95km/h | 6194m | 5.4m/s | -19.9°C | 0% | 0hPa | 5V | 00:00:00 | 00:00:00 | 00:00:00 | |
| DM0DOS-11 | 2026-08-31 07:08:18 | 49.78585 | 7.68309 | 66° | 99km/h | 6160m | 5.9m/s | 0°C | 0% | 0hPa | 0V | 00:00:00 | 00:00:00 | 00:00:00 | |
| CB1BUN | 2026-08-31 07:08:17 | 49.78624 | 7.68450 | 62° | 102km/h | 6181m | 3.0m/s | -19.7°C | 0% | 0hPa | 5V | 00:00:00 | 00:00:00 | 00:00:00 | |
| HEMX73-11 | 2026-08-31 07:08:16 | 49.78603 | 7.68379 | 72° | 95km/h | 6173m | 3.3m/s | -19.7°C | 0% | 0hPa | 5V | 00:00:00 | 00:00:00 | 00:00:00 | |
| DB0UT-7 | 2026-08-31 07:08:15 | 49.78603 | 7.68379 | 71° | 97km/h | 6168m | 4.6m/s | 0°C | 0% | 0hPa | 5V | 00:00:00 | 00:00:00 | 00:00:00 | |
| BIOWL1-15 | 2026-08-31 07:08:14 | 49.78547 | 7.68165 | 63° | 100km/h | 6149m | 1.8m/s | -19.4°C | 0% | 0hPa | 5V | 00:00:00 | 00:00:00 | 00:00:00 | |
| DH7VM-15 | 2026-08-31 07:08:11 | 49.78567 | 7.68236 | 71° | 99km/h | 6156m | 2.8m/s | -19.5°C | 0% | 0hPa | 0V | 00:00:00 | 00:00:00 | 00:00:00 | |
| DM0DOS-11 | 2026-08-31 07:08:03 | 49.78489 | 7.67959 | 71° | 99km/h | 6123m | 3.2m/s | 0°C | 0% | 0hPa | 0V | 00:00:00 | 00:00:00 | 00:00:00 | |
| BIOWL1-15 | 2026-08-31 07:08:01 | 49.78440 | 7.67780 | 60° | 93km/h | 6108m | 3.4m/s | -19.1°C | 0% | 0hPa | 5V | 00:00:00 | 00:00:00 | 00:00:00 | |
| DM0DOS-11 | 2026-08-31 07:07:58 | 49.78390 | 7.67604 | 64° | 97km/h | 6084m | 5.4m/s | 0°C | 0% | 0hPa | 0V | 00:00:00 | 00:00:00 | 00:00:00 | |
| DB0NH | 2026-08-31 07:07:58 | 49.78440 | 7.67780 | 60° | 97km/h | 6105m | 3.8m/s | 0°C | 0% | 0hPa | 5V | 00:00:00 | 00:00:00 | 00:00:00 | |
| CB1BUN | 2026-08-31 07:07:57 | 49.78429 | 7.67749 | 63° | 93km/h | 6105m | 3.9m/s | -19.0°C | 0% | 0hPa | 5V | 00:00:00 | 00:00:00 | 00:00:00 | |
| HEMX73-11 | 2026-08-31 07:07:55 | 49.78410 | 7.67678 | 72° | 104km/h | 6096m | 3.9m/s | -19.0°C | 0% | 0hPa | 5V | 00:00:00 | 00:00:00 | 00:00:00 | |
| BIOWL1-15 | 2026-08-31 07:07:50 | 49.78332 | 7.67394 | 69° | 108km/h | 6065m | 3.1m/s | -18.7°C | 0% | 0hPa | 5V | 00:00:00 | 00:00:00 | 00:00:00 | |
| DM0DOS-11 | 2026-08-31 07:07:48 | 49.78291 | 7.67254 | 68° | 95km/h | 6046m | 4.2m/s | 0°C | 0% | 0hPa | 0V | 00:00:00 | 00:00:00 | 00:00:00 | |
| NBG1-10 | 2026-08-31 07:07:43 | 49.78291 | 7.67254 | 69° | 97km/h | 6046m | 4.1m/s | 0°C | 0% | 0hPa | 5V | 00:00:00 | 00:00:00 | 00:00:00 | |
| BIOWL1-15 | 2026-08-31 07:07:38 | 49.78236 | 7.67042 | 68° | 95km/h | 6025m | 4.1m/s | -18.4°C | 0% | 0hPa | 5V | 00:00:00 | 00:00:00 | 00:00:00 | |
| CB1BUN | 2026-08-31 07:07:36 | 49.78226 | 7.67008 | 67° | 93km/h | 6021m | 3.5m/s | -18.3°C | 0% | 0hPa | 0V | 00:00:00 | 00:00:00 | 00:00:00 | |
| HEMX73-11 | 2026-08-31 07:07:34 | 49.78208 | 7.66939 | 70° | 95km/h | 6012m | 4.2m/s | -18.2°C | 0% | 0hPa | 0V | 00:00:00 | 00:00:00 | 00:00:00 | |
| DM0DOS-11 | 2026-08-31 07:07:33 | 49.78199 | 7.66908 | 67° | 95km/h | 6004m | 5.1m/s | 0°C | 0% | 0hPa | 0V | 00:00:00 | 00:00:00 | 00:00:00 | |
| DM0DOS-11 | 2026-08-31 07:07:28 | 49.78099 | 7.66560 | 67° | 102km/h | 5965m | 4.6m/s | 0°C | 0% | 0hPa | 0V | 00:00:00 | 00:00:00 | 00:00:00 | |
| DH7VM-15 | 2026-08-31 07:07:28 | 49.78130 | 7.66662 | 64° | 93km/h | 5982m | 4.7m/s | -18.0°C | 0% | 0hPa | 5V | 00:00:00 | 00:00:00 | 00:00:00 | |
| BIOWL1-15 | 2026-08-31 07:07:27 | 49.78129 | 7.66662 | 63° | 93km/h | 5982m | 4.7m/s | -18°C | 0% | 0hPa | 5V | 00:00:00 | 00:00:00 | 00:00:00 | |
| BIOWL1-15 | 2026-08-31 07:07:18 | 49.78020 | 7.66281 | 61° | 93km/h | 5930m | 1.6m/s | -17.6°C | 0% | 0hPa | 5V | 00:00:00 | 00:00:00 | 00:00:00 | |
| CB1BUN | 2026-08-31 07:07:16 | 49.78031 | 7.66314 | 68° | 99km/h | 5934m | 5.4m/s | -17.6°C | 0% | 0hPa | 0V | 00:00:00 | 00:00:00 | 00:00:00 | |
| HEMX73-11 | 2026-08-31 07:07:14 | 49.78008 | 7.66248 | 63° | 95km/h | 5927m | 5.0m/s | -17.5°C | 0% | 0hPa | 0V | 00:00:00 | 00:00:00 | 00:00:00 | |
| DM0DOS-11 | 2026-08-31 07:07:13 | 49.77999 | 7.66215 | 67° | 95km/h | 5919m | 4.4m/s | 0°C | 0% | 0hPa | 0V | 00:00:00 | 00:00:00 | 00:00:00 | |
| DB0UT-7 | 2026-08-31 07:07:12 | 49.77990 | 7.66180 | 70° | 93km/h | 5915m | 2.6m/s | 0°C | 0% | 0hPa | 0V | 00:00:00 | 00:00:00 | 00:00:00 | |
| NBG1-10 | 2026-08-31 07:07:10 | 49.77971 | 7.66112 | 65° | 93km/h | 5907m | 1.6m/s | 0°C | 0% | 0hPa | 0V | 00:00:00 | 00:00:00 | 00:00:00 | |
| DM0DOS-11 | 2026-08-31 07:07:07 | 49.77905 | 7.65875 | 63° | 93km/h | 5882m | 3.5m/s | 0°C | 0% | 0hPa | 0V | 00:00:00 | 00:00:00 | 00:00:00 | |
| BIOWL9-15 | 2026-08-31 07:07:07 | 49.77931 | 7.65978 | 69° | 100km/h | 5894m | 4.7m/s | -17.2°C | -1.0% | -1.0hPa | 5V | 00:00:00 | 00:00:00 | 00:00:00 | |
| DL9PN | 2026-08-31 07:07:06 | 49.77923 | 7.65942 | 71° | 93km/h | 5890m | 3.5m/s | -17.2°C | -1.0% | -1.0hPa | 5V | 00:00:00 | 00:00:00 | 00:00:00 | |
| BIOWL1-15 | 2026-08-31 07:07:05 | 49.77864 | 7.65746 | 64° | 95km/h | 5866m | 3.3m/s | -17°C | 0% | 0hPa | 5V | 00:00:00 | 00:00:00 | 00:00:00 | |
| DH7VM-15 | 2026-08-31 07:06:59 | 49.77864 | 7.65746 | 65° | 95km/h | 5866m | 3.3m/s | -17.0°C | 0% | 0hPa | 5V | 00:00:00 | 00:00:00 | 00:00:00 | |
| DB0NH | 2026-08-31 07:06:58 | 49.77854 | 7.65713 | 67° | 95km/h | 5859m | 2.6m/s | 0°C | 0% | 0hPa | 5V | 00:00:00 | 00:00:00 | 00:00:00 | |
| BIOWL1-15 | 2026-08-31 07:06:55 | 49.77817 | 7.65574 | 68° | 100km/h | 5845m | 5.1m/s | -16.8°C | 0% | 0hPa | 5V | 00:00:00 | 00:00:00 | 00:00:00 | |
| HEMX73-11 | 2026-08-31 07:06:53 | 49.77808 | 7.65538 | 70° | 91km/h | 5841m | 2.9m/s | -16.7°C | 0% | 0hPa | 5V | 00:00:00 | 00:00:00 | 00:00:00 | |
| BIOWL1-15 | 2026-08-31 07:06:44 | 49.77692 | 7.65137 | 71° | 93km/h | 5790m | 5.8m/s | -16.3°C | 0% | 0hPa | 5V | 00:00:00 | 00:00:00 | 00:00:00 | |
| DB0UT-7 | 2026-08-31 07:06:42 | 49.77700 | 7.65170 | 69° | 95km/h | 5790m | 5.8m/s | 0°C | 0% | 0hPa | 5V | 00:00:00 | 00:00:00 | 00:00:00 | |
| NBG1-10 | 2026-08-31 07:06:37 | 49.77652 | 7.64997 | 66° | 95km/h | 5770m | 5.1m/s | 0°C | 0% | 0hPa | 5V | 00:00:00 | 00:00:00 | 00:00:00 | |
| CB1BUN | 2026-08-31 07:06:35 | 49.77632 | 7.64928 | 69° | 100km/h | 5762m | 4.3m/s | -16.0°C | 0% | 0hPa | 5V | 00:00:00 | 00:00:00 | 00:00:00 | |
| BIOWL1-15 | 2026-08-31 07:06:34 | 49.77586 | 7.64759 | 66° | 95km/h | 5742m | 5.1m/s | -15.9°C | 0% | 0hPa | 5V | 00:00:00 | 00:00:00 | 00:00:00 | |
| HEMX73-11 | 2026-08-31 07:06:33 | 49.77613 | 7.64860 | 66° | 89km/h | 5754m | 3.2m/s | -16.0°C | 0% | 0hPa | 5V | 00:00:00 | 00:00:00 | 00:00:00 | |
| DB0NH | 2026-08-31 07:06:28 | 49.77566 | 7.64695 | 65° | 93km/h | 5729m | 3.1m/s | 0°C | 0% | 0hPa | 5V | 00:00:00 | 00:00:00 | 00:00:00 | |
| BIOWL1-15 | 2026-08-31 07:06:21 | 49.77496 | 7.64452 | 64° | 91km/h | 5702m | 4.4m/s | -15.6°C | 0% | 0hPa | 5V | 00:00:00 | 00:00:00 | 00:00:00 | |
| DH7VM-15 | 2026-08-31 07:06:15 | 49.77429 | 7.64218 | 63° | 91km/h | 5670m | 2.3m/s | -15.4°C | 0% | 0hPa | 5V | 00:00:00 | 00:00:00 | 00:00:00 | |
| CB1BUN | 2026-08-31 07:06:14 | 49.77429 | 7.64218 | 63° | 91km/h | 5670m | 2.3m/s | -15.4°C | 0% | 0hPa | 5V | 00:00:00 | 00:00:00 | 00:00:00 | |
| DB0UT-7 | 2026-08-31 07:06:12 | 49.77410 | 7.64150 | 73° | 93km/h | 5657m | 4.6m/s | 0°C | 0% | 0hPa | 5V | 00:00:00 | 00:00:00 | 00:00:00 | |
| BIOWL1-15 | 2026-08-31 07:06:11 | 49.77394 | 7.64083 | 68° | 89km/h | 5654m | 1.6m/s | -15.2°C | 0% | 0hPa | 5V | 00:00:00 | 00:00:00 | 00:00:00 | |
| DM3KS-11 | 2026-08-31 07:06:09 | 49.77376 | 7.64014 | 69° | 100km/h | 5646m | 2.4m/s | -15.2°C | -1.0% | -1.0hPa | 5.0V | 00:00:00 | 00:00:00 | 00:00:00 | |
| DL1ZP-14 | 2026-08-31 07:06:07 | 49.77358 | 7.63945 | 67° | 82km/h | 5638m | 2.6m/s | -15.1°C | -1.0% | -1.0hPa | 5.0V | 00:00:00 | 00:00:00 | 00:00:00 | |
| BIOWL9-15 | 2026-08-31 07:06:05 | 49.77341 | 7.63882 | 69° | 95km/h | 5631m | 2.7m/s | -15.0°C | -1.0% | -1.0hPa | 5V | 00:00:00 | 00:00:00 | 00:00:00 | |
| BIOWL1-15 | 2026-08-31 07:06:04 | 49.77305 | 7.63744 | 73° | 93km/h | 5614m | 3.1m/s | -14.9°C | 0% | 0hPa | 5V | 00:00:00 | 00:00:00 | 00:00:00 | |
| NBG1-10 | 2026-08-31 07:06:04 | 49.77341 | 7.63882 | 70° | 93km/h | 5619m | 5.1m/s | 0°C | 0% | 0hPa | 0V | 00:00:00 | 00:00:00 | 00:00:00 | |
| DM0DOS-11 | 2026-08-31 07:06:00 | 49.77263 | 7.63583 | 66° | 102km/h | 5590m | 4.6m/s | 0°C | 0% | 0hPa | 0V | 00:00:00 | 00:00:00 | 00:00:00 | |
| DB0NH | 2026-08-31 07:05:58 | 49.77291 | 7.63680 | 65° | 91km/h | 5602m | 4.0m/s | 0°C | 0% | 0hPa | 5.1V | 00:00:00 | 00:00:00 | 00:00:00 | |
| CB1BUN | 2026-08-31 07:05:54 | 49.77253 | 7.63547 | 66° | 97km/h | 5591m | 4.6m/s | -14.7°C | 0% | 0hPa | 5.1V | 00:00:00 | 00:00:00 | 00:00:00 | |
| HEMX73-11 | 2026-08-31 07:05:52 | 49.77236 | 7.63479 | 73° | 91km/h | 5582m | 6.7m/s | -14.6°C | 0% | 0hPa | 5.1V | 00:00:00 | 00:00:00 | 00:00:00 | |
| BIOWL1-15 | 2026-08-31 07:05:51 | 49.77209 | 7.63380 | 68° | 89km/h | 5567m | 4.1m/s | -14.5°C | 0% | 0hPa | 5.1V | 00:00:00 | 00:00:00 | 00:00:00 | |
| DM0DOS-11 | 2026-08-31 07:05:50 | 49.77172 | 7.63242 | 66° | 88km/h | 5544m | 3.3m/s | 0°C | 0% | 0hPa | 0V | 00:00:00 | 00:00:00 | 00:00:00 | |
| DB0UT-7 | 2026-08-31 07:05:42 | 49.77150 | 7.63146 | 71° | 93km/h | 5528m | 4.6m/s | 0°C | 0% | 0hPa | 5V | 00:00:00 | 00:00:00 | 00:00:00 | |
| BIOWL1-15 | 2026-08-31 07:05:39 | 49.77117 | 7.63002 | 71° | 89km/h | 5518m | 4.1m/s | -14.2°C | 0% | 0hPa | 5V | 00:00:00 | 00:00:00 | 00:00:00 | |
| DM0DOS-11 | 2026-08-31 07:05:37 | 49.77085 | 7.62910 | 63° | 91km/h | 5500m | 5.2m/s | 0°C | 0% | 0hPa | 0V | 00:00:00 | 00:00:00 | 00:00:00 | |
| CB1BUN | 2026-08-31 07:05:33 | 49.77069 | 7.62837 | 75° | 104km/h | 5495m | 5.3m/s | -14.0°C | 0% | 0hPa | 0V | 00:00:00 | 00:00:00 | 00:00:00 | |
| NBG1-10 | 2026-08-31 07:05:31 | 49.77053 | 7.62768 | 68° | 91km/h | 5480m | 5.1m/s | 0°C | 0% | 0hPa | 0V | 00:00:00 | 00:00:00 | 00:00:00 | |
| DM0DOS-11 | 2026-08-31 07:05:30 | 49.77003 | 7.62564 | 73° | 89km/h | 5456m | 4.6m/s | 0°C | 0% | 0hPa | 0V | 00:00:00 | 00:00:00 | 00:00:00 | |
| BIOWL1-15 | 2026-08-31 07:05:29 | 49.77021 | 7.62632 | 66° | 97km/h | 5467m | 2.5m/s | -13.8°C | 0% | 0hPa | 5.1V | 00:00:00 | 00:00:00 | 00:00:00 | |
| DB0NH | 2026-08-31 07:05:28 | 49.77030 | 7.62666 | 66° | 93km/h | 5467m | 2.5m/s | 0°C | 0% | 0hPa | 5.1V | 00:00:00 | 00:00:00 | 00:00:00 | |
| BIOWL1-15 | 2026-08-31 07:05:17 | 49.76942 | 7.62293 | 72° | 84km/h | 5424m | 4.5m/s | -13.5°C | 0% | 0hPa | 5.1V | 00:00:00 | 00:00:00 | 00:00:00 | |
| DM0DOS-11 | 2026-08-31 07:05:17 | 49.76928 | 7.62226 | 68° | 100km/h | 5412m | 3.3m/s | 0°C | 0% | 0hPa | 0V | 00:00:00 | 00:00:00 | 00:00:00 | |
| CB1BUN | 2026-08-31 07:05:13 | 49.76911 | 7.62152 | 72° | 99km/h | 5408m | 4.3m/s | -13.3°C | 0% | 0hPa | 5.1V | 00:00:00 | 00:00:00 | 00:00:00 | |
| DB0UT-7 | 2026-08-31 07:05:11 | 49.76898 | 7.62082 | 70° | 89km/h | 5394m | 3.4m/s | 0°C | 0% | 0hPa | 5.1V | 00:00:00 | 00:00:00 | 00:00:00 | |
| BIOWL1-15 | 2026-08-31 07:05:07 | 49.76856 | 7.61915 | 80° | 100km/h | 5377m | 4.4m/s | -13.1°C | 0% | 0hPa | 5.1V | 00:00:00 | 00:00:00 | 00:00:00 | |
| DH7VM-15 | 2026-08-31 07:05:03 | 49.76838 | 7.61819 | 64° | 88km/h | 5365m | 4.8m/s | -12.9°C | 0% | 0hPa | 5.1V | 00:00:00 | 00:00:00 | 00:00:00 | |
| BIOWL1-15 | 2026-08-31 07:05:02 | 49.76768 | 7.61553 | 71° | 99km/h | 5328m | 3m/s | -12.6°C | 0% | 0hPa | 5.1V | 00:00:00 | 00:00:00 | 00:00:00 | |
| DB0NH | 2026-08-31 07:04:58 | 49.76795 | 7.61654 | 66° | 89km/h | 5337m | 4.0m/s | 0°C | 0% | 0hPa | 0V | 00:00:00 | 00:00:00 | 00:00:00 | |
| DM0DOS-11 | 2026-08-31 07:04:57 | 49.76768 | 7.61553 | 71° | 99km/h | 5324m | 5.2m/s | 0°C | 0% | 0hPa | 0V | 00:00:00 | 00:00:00 | 00:00:00 | |
| CB1BUN | 2026-08-31 07:04:53 | 49.76743 | 7.61454 | 69° | 88km/h | 5314m | 7.2m/s | -12.5°C | 0% | 0hPa | 0V | 00:00:00 | 00:00:00 | 00:00:00 | |
| DM0DOS-11 | 2026-08-31 07:04:50 | 49.76685 | 7.61219 | 71° | 89km/h | 5280m | 6.3m/s | 0°C | 0% | 0hPa | 0V | 00:00:00 | 00:00:00 | 00:00:00 | |
| BIOWL1-15 | 2026-08-31 07:04:45 | 49.76678 | 7.61188 | 72° | 78km/h | 5275m | 4m/s | -12.1°C | 0% | 0hPa | 5.1V | 00:00:00 | 00:00:00 | 00:00:00 | |
| DB0UT-7 | 2026-08-31 07:04:41 | 49.76650 | 7.61094 | 71° | 89km/h | 5258m | 3.8m/s | 0°C | 0% | 0hPa | 0V | 00:00:00 | 00:00:00 | 00:00:00 | |
| DM0DOS-11 | 2026-08-31 07:04:39 | 49.76589 | 7.60867 | 67° | 97km/h | 5229m | 5.6m/s | 0°C | 0% | 0hPa | 0V | 00:00:00 | 00:00:00 | 00:00:00 | |
| BIOWL1-15 | 2026-08-31 07:04:37 | 49.76591 | 7.60867 | 67° | 91km/h | 5229m | 5.6m/s | -11.7°C | 0% | 0hPa | 5.1V | 00:00:00 | 00:00:00 | 00:00:00 | |
| DH7VM-15 | 2026-08-31 07:04:36 | 49.76608 | 7.60930 | 68° | 86km/h | 5238m | 6.7m/s | -11.8°C | 0% | 0hPa | 0V | 00:00:00 | 00:00:00 | 00:00:00 | |
| CB1BUN | 2026-08-31 07:04:32 | 49.76571 | 7.60798 | 66° | 97km/h | 5221m | 4.7m/s | -11.6°C | 0% | 0hPa | 0V | 00:00:00 | 00:00:00 | 00:00:00 | |
| HEMX73-11 | 2026-08-31 07:04:30 | 49.76554 | 7.60732 | 69° | 82km/h | 5212m | 5.3m/s | -11.5°C | 0% | 0hPa | 0V | 00:00:00 | 00:00:00 | 00:00:00 | |
| DM0DOS-11 | 2026-08-31 07:04:29 | 49.76499 | 7.60538 | 64° | 88km/h | 5179m | 4.9m/s | 0°C | 0% | 0hPa | 0V | 00:00:00 | 00:00:00 | 00:00:00 | |
| BIOWL7-15 | 2026-08-31 07:04:28 | 49.76529 | 7.60639 | 71° | 97km/h | 5200m | 3.2m/s | -11.4°C | 0% | 0hPa | 5.1V | 00:00:00 | 00:00:00 | 00:00:00 | |
| NBG1-10 | 2026-08-31 07:04:25 | 49.76509 | 7.60570 | 62° | 88km/h | 5187m | 4.6m/s | 0°C | 0% | 0hPa | 5.1V | 00:00:00 | 00:00:00 | 00:00:00 | |
| BIOWL1-15 | 2026-08-31 07:04:24 | 49.76491 | 7.60507 | 71° | 86km/h | 5183m | 3.7m/s | -11.3°C | 0% | 0hPa | 5.1V | 00:00:00 | 00:00:00 | 00:00:00 | |
| DM0DOS-11 | 2026-08-31 07:04:17 | 49.76402 | 7.60185 | 66° | 93km/h | 5133m | 4.6m/s | 0°C | 0% | 0hPa | 0V | 00:00:00 | 00:00:00 | 00:00:00 | |
| BIOWL1-15 | 2026-08-31 07:04:13 | 49.76394 | 7.60155 | 67° | 86km/h | 5133m | 4.6m/s | -10.8°C | 0% | 0hPa | 5.1V | 00:00:00 | 00:00:00 | 00:00:00 | |
| CB1BUN | 2026-08-31 07:04:12 | 49.76384 | 7.60125 | 62° | 86km/h | 5129m | 3.2m/s | -10.7°C | 0% | 0hPa | 0V | 00:00:00 | 00:00:00 | 00:00:00 | |
| DB0UT-7 | 2026-08-31 07:04:11 | 49.76384 | 7.60125 | 61° | 91km/h | 5124m | 4.4m/s | 0°C | 0% | 0hPa | 0V | 00:00:00 | 00:00:00 | 00:00:00 | |
| HEMX73-11 | 2026-08-31 07:04:09 | 49.76363 | 7.60062 | 68° | 99km/h | 5121m | 2.3m/s | -10.7°C | 0% | 0hPa | 0V | 00:00:00 | 00:00:00 | 00:00:00 | |
| DM0DOS-11 | 2026-08-31 07:04:04 | 49.76308 | 7.59868 | 63° | 86km/h | 5089m | 3.9m/s | 0°C | 0% | 0hPa | 0V | 00:00:00 | 00:00:00 | 00:00:00 | |
| BIOWL1-15 | 2026-08-31 07:04:02 | 49.76291 | 7.59802 | 71° | 97km/h | 5089m | 3.9m/s | -10.4°C | 0% | 0hPa | 5.1V | 00:00:00 | 00:00:00 | 00:00:00 | |
| DB0NH | 2026-08-31 07:03:58 | 49.76265 | 7.59706 | 69° | 91km/h | 5056m | 3.0m/s | 0°C | 0% | 0hPa | 0V | 00:00:00 | 00:00:00 | 00:00:00 | |
| DM0DOS-11 | 2026-08-31 07:03:54 | 49.76203 | 7.59477 | 63° | 84km/h | 5044m | 5.8m/s | 0°C | 0% | 0hPa | 0V | 00:00:00 | 00:00:00 | 00:00:00 | |
| BIOWL1-15 | 2026-08-31 07:03:51 | 49.76193 | 7.59444 | 63° | 86km/h | 5044m | 5.8m/s | -10°C | 0% | 0hPa | 5.1V | 00:00:00 | 00:00:00 | 00:00:00 | |
| CB1BUN | 2026-08-31 07:03:50 | 49.76193 | 7.59444 | 64° | 86km/h | 5045m | 5.8m/s | -10.0°C | 0% | 0hPa | 0V | 00:00:00 | 00:00:00 | 00:00:00 | |
| HEMX73-11 | 2026-08-31 07:03:49 | 49.76184 | 7.59412 | 69° | 97km/h | 5040m | 5.4m/s | -10.0°C | 0% | 0hPa | 0V | 00:00:00 | 00:00:00 | 00:00:00 | |
| DM0DOS-11 | 2026-08-31 07:03:45 | 49.76116 | 7.59148 | 70° | 89km/h | 4994m | 4.3m/s | 0°C | 0% | 0hPa | 0V | 00:00:00 | 00:00:00 | 00:00:00 | |
| DB0UT-7 | 2026-08-31 07:03:41 | 49.76116 | 7.59148 | 71° | 89km/h | 4998m | 5.0m/s | 0°C | 0% | 0hPa | 5.1V | 00:00:00 | 00:00:00 | 00:00:00 | |
| BIOWL1-15 | 2026-08-31 07:03:40 | 49.76100 | 7.59082 | 68° | 93km/h | 4994m | 4.3m/s | -9.6°C | 0% | 0hPa | 5.1V | 00:00:00 | 00:00:00 | 00:00:00 | |
| DM0DOS-11 | 2026-08-31 07:03:39 | 49.76065 | 7.58949 | 64° | 84km/h | 4972m | 4.1m/s | 0°C | 0% | 0hPa | 0V | 00:00:00 | 00:00:00 | 00:00:00 | |
| DM0DOS-11 | 2026-08-31 07:03:34 | 49.76030 | 7.58775 | 72° | 86km/h | 4952m | 5.9m/s | 0°C | 0% | 0hPa | 0V | 00:00:00 | 00:00:00 | 00:00:00 | |
| DH7VM-15 | 2026-08-31 07:03:33 | 49.76049 | 7.58882 | 74° | 99km/h | 4968m | 5.0m/s | -9.5°C | 0% | 0hPa | 5.1V | 00:00:00 | 00:00:00 | 00:00:00 | |
| BIOWL1-15 | 2026-08-31 07:03:32 | 49.76023 | 7.58743 | 72° | 84km/h | 4952m | 5.9m/s | -9.4°C | 0% | 0hPa | 5.1V | 00:00:00 | 00:00:00 | 00:00:00 | |
| CB1BUN | 2026-08-31 07:03:30 | 49.76030 | 7.58775 | 73° | 86km/h | 4956m | 2.8m/s | -9.4°C | 0% | 0hPa | 0V | 00:00:00 | 00:00:00 | 00:00:00 | |
| DB0NH | 2026-08-31 07:03:28 | 49.76016 | 7.58712 | 70° | 89km/h | 4944m | 3.4m/s | 0°C | 0% | 0hPa | 0V | 00:00:00 | 00:00:00 | 00:00:00 | |
| DM0DOS-11 | 2026-08-31 07:03:25 | 49.75991 | 7.58612 | 76° | 91km/h | 4929m | 5.8m/s | 0°C | 0% | 0hPa | 0V | 00:00:00 | 00:00:00 | 00:00:00 | |
| DM0DOS-11 | 2026-08-31 07:03:25 | 49.75956 | 7.58451 | 67° | 89km/h | 4901m | 1.8m/s | 0°C | 0% | 0hPa | 0V | 00:00:00 | 00:00:00 | 00:00:00 | |
| DM0DOS-11 | 2026-08-31 07:03:20 | 49.75928 | 7.58277 | 75° | 82km/h | 4889m | 3.6m/s | 0°C | 0% | 0hPa | 0V | 00:00:00 | 00:00:00 | 00:00:00 | |
| BIOWL1-15 | 2026-08-31 07:03:19 | 49.75944 | 7.58381 | 79° | 97km/h | 4905m | 4.4m/s | -9.2°C | 0% | 0hPa | 5.1V | 00:00:00 | 00:00:00 | 00:00:00 | |
| DM0DOS-11 | 2026-08-31 07:03:15 | 49.75896 | 7.58112 | 76° | 84km/h | 4866m | 4.6m/s | 0°C | 0% | 0hPa | 0V | 00:00:00 | 00:00:00 | 00:00:00 | |
| DB0UT-7 | 2026-08-31 07:03:11 | 49.75901 | 7.58144 | 76° | 86km/h | 4870m | 2.8m/s | 0°C | 0% | 0hPa | 5.1V | 00:00:00 | 00:00:00 | 00:00:00 | |
| BIOWL1-15 | 2026-08-31 07:03:10 | 49.75879 | 7.58014 | 74° | 91km/h | 4858m | 5.6m/s | -8.8°C | 0% | 0hPa | 5.1V | 00:00:00 | 00:00:00 | 00:00:00 | |
| DM0DOS-11 | 2026-08-31 07:03:09 | 49.75869 | 7.57945 | 79° | 86km/h | 4846m | 3.5m/s | 0°C | 0% | 0hPa | 0V | 00:00:00 | 00:00:00 | 00:00:00 | |
| HEMX73-11 | 2026-08-31 07:03:07 | 49.75879 | 7.58014 | 75° | 93km/h | 4858m | 5.6m/s | -8.8°C | 0% | 0hPa | 0V | 00:00:00 | 00:00:00 | 00:00:00 | |
| DM0DOS-11 | 2026-08-31 07:03:04 | 49.75844 | 7.57782 | 80° | 89km/h | 4824m | 4m/s | 0°C | 0% | 0hPa | 0V | 00:00:00 | 00:00:00 | 00:00:00 | |
| DM3KS-11 | 2026-08-31 07:03:03 | 49.75853 | 7.57849 | 73° | 88km/h | 4837m | 4.3m/s | -8.7°C | -1.0% | -1.0hPa | 0V | 00:00:00 | 00:00:00 | 00:00:00 | |
| DM0DOS-11 | 2026-08-31 07:02:59 | 49.75819 | 7.57612 | 76° | 88km/h | 4804m | 1m/s | 0°C | 0% | 0hPa | 0V | 00:00:00 | 00:00:00 | 00:00:00 | |
| DB0NH | 2026-08-31 07:02:58 | 49.75833 | 7.57714 | 72° | 84km/h | 4807m | 4.7m/s | 0°C | 0% | 0hPa | 5.1V | 00:00:00 | 00:00:00 | 00:00:00 | |
| BIOWL1-15 | 2026-08-31 07:02:57 | 49.75827 | 7.57682 | 74° | 86km/h | 4815m | 5m/s | -8.5°C | 0% | 0hPa | 5.1V | 00:00:00 | 00:00:00 | 00:00:00 | |
| DM0DOS-11 | 2026-08-31 07:02:54 | 49.75797 | 7.57452 | 73° | 86km/h | 4784m | 4.6m/s | 0°C | 0% | 0hPa | 0V | 00:00:00 | 00:00:00 | 00:00:00 | |
| CB1BUN | 2026-08-31 07:02:49 | 49.75791 | 7.57421 | 75° | 82km/h | 4784m | 4.6m/s | -8.3°C | 0% | 0hPa | 5.1V | 00:00:00 | 00:00:00 | 00:00:00 | |
| DH7VM-15 | 2026-08-31 07:02:48 | 49.75786 | 7.57390 | 79° | 82km/h | 4780m | 3.4m/s | -8.3°C | 0% | 0hPa | 5.1V | 00:00:00 | 00:00:00 | 00:00:00 | |
| BIOWL1-15 | 2026-08-31 07:02:47 | 49.75776 | 7.57325 | 77° | 86km/h | 4773m | 3.2m/s | -8.2°C | 0% | 0hPa | 5.1V | 00:00:00 | 00:00:00 | 00:00:00 | |
| DM0DOS-11 | 2026-08-31 07:02:44 | 49.75754 | 7.57135 | 74° | 84km/h | 4749m | 2.4m/s | 0°C | 0% | 0hPa | 0V | 00:00:00 | 00:00:00 | 00:00:00 | |
| DB0UT-7 | 2026-08-31 07:02:41 | 49.75756 | 7.57167 | 86° | 80km/h | 4753m | 4.8m/s | 0°C | 0% | 0hPa | 0V | 00:00:00 | 00:00:00 | 00:00:00 | |
| DM0DOS-11 | 2026-08-31 07:02:39 | 49.75732 | 7.56983 | 77° | 73km/h | 4732m | 3.5m/s | 0°C | 0% | 0hPa | 0V | 00:00:00 | 00:00:00 | 00:00:00 | |
| BIOWL1-15 | 2026-08-31 07:02:35 | 49.75732 | 7.56983 | 78° | 73km/h | 4735m | 2.7m/s | -8°C | 0% | 0hPa | 5.1V | 00:00:00 | 00:00:00 | 00:00:00 | |
| DM0DOS-11 | 2026-08-31 07:02:34 | 49.75714 | 7.56827 | 85° | 84km/h | 4714m | 4.7m/s | 0°C | 0% | 0hPa | 0V | 00:00:00 | 00:00:00 | 00:00:00 | |
| DB0NH | 2026-08-31 07:02:28 | 49.75708 | 7.56766 | 72° | 141km/h | 4707m | 3.6m/s | 0°C | 0% | 0hPa | 0V | 00:00:00 | 00:00:00 | 00:00:00 | |
| HEMX73-11 | 2026-08-31 07:02:26 | 49.75696 | 7.56710 | 77° | 80km/h | 4704m | 2.6m/s | -7.7°C | 0% | 0hPa | 0V | 00:00:00 | 00:00:00 | 00:00:00 | |
| DM0DOS-11 | 2026-08-31 07:02:25 | 49.75692 | 7.56680 | 85° | 80km/h | 4696m | 0.1m/s | 0°C | 0% | 0hPa | 0V | 00:00:00 | 00:00:00 | 00:00:00 | |
| DM0DOS-11 | 2026-08-31 07:02:25 | 49.75670 | 7.56521 | 76° | 78km/h | 4677m | 4.2m/s | 0°C | 0% | 0hPa | 0V | 00:00:00 | 00:00:00 | 00:00:00 | |
| BIOWL1-15 | 2026-08-31 07:02:25 | 49.75690 | 7.56648 | 86° | 78km/h | 4696m | 0.1m/s | -7.7°C | 0% | 0hPa | 5.1V | 00:00:00 | 00:00:00 | 00:00:00 | |
| DM0DOS-11 | 2026-08-31 07:02:19 | 49.75652 | 7.56374 | 72° | 75km/h | 4657m | 1.8m/s | 0°C | 0% | 0hPa | 0V | 00:00:00 | 00:00:00 | 00:00:00 | |
| BIOWL1-15 | 2026-08-31 07:02:14 | 49.75641 | 7.56314 | 77° | 80km/h | 4654m | 4.4m/s | -7.4°C | 0% | 0hPa | 5.1V | 00:00:00 | 00:00:00 | 00:00:00 | |
| DM0DOS-11 | 2026-08-31 07:02:13 | 49.75632 | 7.56231 | 68° | 77km/h | 4639m | 6.2m/s | 0°C | 0% | 0hPa | 0V | 00:00:00 | 00:00:00 | 00:00:00 | |
| DB0UT-7 | 2026-08-31 07:02:11 | 49.75636 | 7.56258 | 84° | 80km/h | 4644m | 4.5m/s | 0°C | 0% | 0hPa | 0V | 00:00:00 | 00:00:00 | 00:00:00 | |
| CB1BUN | 2026-08-31 07:02:08 | 49.75619 | 7.56169 | 74° | 84km/h | 4634m | 3.1m/s | -7.5°C | 0% | 0hPa | 0V | 00:00:00 | 00:00:00 | 00:00:00 | |
| HEMX73-11 | 2026-08-31 07:02:06 | 49.75610 | 7.56106 | 81° | 78km/h | 4628m | 5.2m/s | -7.4°C | 0% | 0hPa | 0V | 00:00:00 | 00:00:00 | 00:00:00 | |
| DM0DOS-11 | 2026-08-31 07:02:05 | 49.75605 | 7.56078 | 71° | 73km/h | 4618m | 4.4m/s | 0°C | 0% | 0hPa | 0V | 00:00:00 | 00:00:00 | 00:00:00 | |
| DM0DOS-11 | 2026-08-31 07:02:05 | 49.75578 | 7.55929 | 78° | 86km/h | 4601m | 2.8m/s | 0°C | 0% | 0hPa | 0V | 00:00:00 | 00:00:00 | 00:00:00 | |
| BIOWL1-15 | 2026-08-31 07:02:04 | 49.75593 | 7.56025 | 74° | 75km/h | 4615m | 2.9m/s | -7.5°C | 0% | 0hPa | 5.1V | 00:00:00 | 00:00:00 | 00:00:00 | |
| DM0DOS-11 | 2026-08-31 07:01:59 | 49.75552 | 7.55780 | 69° | 88km/h | 4584m | 3.6m/s | 0°C | 0% | 0hPa | 0V | 00:00:00 | 00:00:00 | 00:00:00 | |
| DB0NH | 2026-08-31 07:01:58 | 49.75569 | 7.55867 | 80° | 78km/h | 4593m | 0.9m/s | 0°C | 0% | 0hPa | 5.1V | 00:00:00 | 00:00:00 | 00:00:00 | |
| BIOWL1-15 | 2026-08-31 07:01:54 | 49.75535 | 7.55686 | 86° | 77km/h | 4575m | 4.2m/s | -7.2°C | 0% | 0hPa | 5.1V | 00:00:00 | 00:00:00 | 00:00:00 | |
| DM0DOS-11 | 2026-08-31 07:01:50 | 49.75529 | 7.55628 | 75° | 77km/h | 4565m | 1.9m/s | 0°C | 0% | 0hPa | 0V | 00:00:00 | 00:00:00 | 00:00:00 | |
| DM0DOS-11 | 2026-08-31 07:01:50 | 49.75502 | 7.55483 | 68° | 86km/h | 4548m | 3.7m/s | 0°C | 0% | 0hPa | 0V | 00:00:00 | 00:00:00 | 00:00:00 | |
| CB1BUN | 2026-08-31 07:01:47 | 49.75511 | 7.55542 | 81° | 73km/h | 4558m | 1.7m/s | -7.1°C | 0% | 0hPa | 5.1V | 00:00:00 | 00:00:00 | 00:00:00 | |
| HEMX73-11 | 2026-08-31 07:01:45 | 49.75501 | 7.55483 | 70° | 86km/h | 4551m | 3.5m/s | -7.2°C | 0% | 0hPa | 5.1V | 00:00:00 | 00:00:00 | 00:00:00 | |
| BIOWL1-15 | 2026-08-31 07:01:42 | 49.75474 | 7.55363 | 74° | 71km/h | 4538m | 3.1m/s | -7.2°C | 0% | 0hPa | 5.1V | 00:00:00 | 00:00:00 | 00:00:00 | |
| DB0UT-7 | 2026-08-31 07:01:41 | 49.75473 | 7.55363 | 75° | 75km/h | 4535m | 4.0m/s | 0°C | 0% | 0hPa | 0V | 00:00:00 | 00:00:00 | 00:00:00 | |
| DM0DOS-11 | 2026-08-31 07:01:39 | 49.75437 | 7.55191 | 78° | 68km/h | 4513m | 3.7m/s | 0°C | 0% | 0hPa | 0V | 00:00:00 | 00:00:00 | 00:00:00 | |
| DH7VM-15 | 2026-08-31 07:01:37 | 49.75441 | 7.55217 | 73° | 69km/h | 4520m | 3.6m/s | -7.2°C | 0% | 0hPa | 0V | 00:00:00 | 00:00:00 | 00:00:00 | |
| DM0DOS-11 | 2026-08-31 07:01:33 | 49.75407 | 7.55050 | 66° | 71km/h | 4496m | 3.1m/s | 0°C | 0% | 0hPa | 0V | 00:00:00 | 00:00:00 | 00:00:00 | |
| BIOWL1-15 | 2026-08-31 07:01:33 | 49.75407 | 7.55050 | 67° | 73km/h | 4500m | 4.1m/s | -7.3°C | 0% | 0hPa | 5.1V | 00:00:00 | 00:00:00 | 00:00:00 | |
| DB0NH | 2026-08-31 07:01:28 | 49.75396 | 7.54998 | 73° | 75km/h | 4489m | 2.6m/s | 0°C | 0% | 0hPa | 0V | 00:00:00 | 00:00:00 | 00:00:00 | |
| CB1BUN | 2026-08-31 07:01:27 | 49.75390 | 7.54970 | 73° | 80km/h | 4489m | 2.7m/s | -7.3°C | 0% | 0hPa | 0V | 00:00:00 | 00:00:00 | 00:00:00 | |
| DM0DOS-11 | 2026-08-31 07:01:26 | 49.75378 | 7.54909 | 73° | 75km/h | 4477m | 3.3m/s | 0°C | 0% | 0hPa | 0V | 00:00:00 | 00:00:00 | 00:00:00 | |
| HEMX73-11 | 2026-08-31 07:01:25 | 49.75378 | 7.54911 | 77° | 75km/h | 4481m | 4.9m/s | -7.2°C | 0% | 0hPa | 5.1V | 00:00:00 | 00:00:00 | 00:00:00 | |
| BIOWL1-15 | 2026-08-31 07:01:21 | 49.75346 | 7.54780 | 75° | 73km/h | 4462m | 4.4m/s | -7.1°C | 0% | 0hPa | 5.1V | 00:00:00 | 00:00:00 | 00:00:00 | |
| DM0DOS-11 | 2026-08-31 07:01:21 | 49.75346 | 7.54780 | 74° | 73km/h | 4458m | 4.4m/s | 0°C | 0% | 0hPa | 0V | 00:00:00 | 00:00:00 | 00:00:00 | |
| DM0DOS-11 | 2026-08-31 07:01:21 | 49.75315 | 7.54642 | 67° | 68km/h | 4439m | 3.1m/s | 0°C | 0% | 0hPa | 0V | 00:00:00 | 00:00:00 | 00:00:00 | |
| DM0DOS-11 | 2026-08-31 07:01:15 | 49.75285 | 7.54513 | 67° | 66km/h | 4419m | 4.8m/s | 0°C | 0% | 0hPa | 0V | 00:00:00 | 00:00:00 | 00:00:00 | |
| DB0UT-7 | 2026-08-31 07:01:11 | 49.75290 | 7.54538 | 73° | 73km/h | 4423m | 3.5m/s | 0°C | 0% | 0hPa | 5.1V | 00:00:00 | 00:00:00 | 00:00:00 | |
| DH7VM-15 | 2026-08-31 07:01:10 | 49.75285 | 7.54512 | 70° | 66km/h | 4423m | 3.5m/s | -6.9°C | 0% | 0hPa | 5.1V | 00:00:00 | 00:00:00 | 00:00:00 | |
| BIOWL1-15 | 2026-08-31 07:01:09 | 49.75279 | 7.54489 | 67° | 62km/h | 4419m | 4.8m/s | -6.9°C | 0% | 0hPa | 5.1V | 00:00:00 | 00:00:00 | 00:00:00 | |
| DM0DOS-11 | 2026-08-31 07:01:09 | 49.75257 | 7.54381 | 68° | 69km/h | 4399m | 4.3m/s | 0°C | 0% | 0hPa | 0V | 00:00:00 | 00:00:00 | 00:00:00 | |
| CB1BUN | 2026-08-31 07:01:06 | 49.75262 | 7.54407 | 75° | 75km/h | 4407m | 4.9m/s | -6.8°C | 0% | 0hPa | 0V | 00:00:00 | 00:00:00 | 00:00:00 | |
| HEMX73-11 | 2026-08-31 07:01:04 | 49.75251 | 7.54356 | 70° | 68km/h | 4399m | 4.3m/s | -6.8°C | 0% | 0hPa | 0V | 00:00:00 | 00:00:00 | 00:00:00 | |
| DM0DOS-11 | 2026-08-31 07:01:03 | 49.75226 | 7.54247 | 70° | 77km/h | 4378m | 5m/s | 0°C | 0% | 0hPa | 0V | 00:00:00 | 00:00:00 | 00:00:00 | |
| BIOWL1-15 | 2026-08-31 07:00:59 | 49.75213 | 7.54193 | 71° | 68km/h | 4374m | 3.3m/s | -6.6°C | 0% | 0hPa | 5.1V | 00:00:00 | 00:00:00 | 00:00:00 | |
| DB0NH | 2026-08-31 07:00:58 | 49.75213 | 7.54193 | 72° | 71km/h | 4370m | 3.5m/s | 0°C | 0% | 0hPa | 0V | 00:00:00 | 00:00:00 | 00:00:00 | |
| DM0DOS-11 | 2026-08-31 07:00:56 | 49.75193 | 7.54119 | 65° | 75km/h | 4359m | 3.3m/s | 0°C | 0% | 0hPa | 0V | 00:00:00 | 00:00:00 | 00:00:00 | |
| DM0DOS-11 | 2026-08-31 07:00:50 | 49.75158 | 7.53991 | 70° | 66km/h | 4335m | 3.8m/s | 0°C | 0% | 0hPa | 0V | 00:00:00 | 00:00:00 | 00:00:00 | |
| DM0DOS-11 | 2026-08-31 07:00:50 | 49.75123 | 7.53861 | 65° | 73km/h | 4319m | 1.3m/s | 0°C | 0% | 0hPa | 0V | 00:00:00 | 00:00:00 | 00:00:00 | |
| BIOWL1-15 | 2026-08-31 07:00:48 | 49.75139 | 7.53911 | 67° | 73km/h | 4329m | 5m/s | -6.3°C | 0% | 0hPa | 5.1V | 00:00:00 | 00:00:00 | 00:00:00 | |
| CB1BUN | 2026-08-31 07:00:47 | 49.75131 | 7.53886 | 62° | 71km/h | 4326m | 1.0m/s | -6.3°C | 0% | 0hPa | 0V | 00:00:00 | 00:00:00 | 00:00:00 | |
| DM0DOS-11 | 2026-08-31 07:00:45 | 49.75093 | 7.53731 | 70° | 73km/h | 4302m | 4.6m/s | 0°C | 0% | 0hPa | 0V | 00:00:00 | 00:00:00 | 00:00:00 | |
| HEMX73-11 | 2026-08-31 07:00:44 | 49.75117 | 7.53834 | 77° | 73km/h | 4319m | 1.3m/s | -6.2°C | 0% | 0hPa | 5.1V | 00:00:00 | 00:00:00 | 00:00:00 | |
| DB0UT-7 | 2026-08-31 07:00:41 | 49.75099 | 7.53757 | 66° | 73km/h | 4305m | 1.3m/s | 0°C | 0% | 0hPa | 5.1V | 00:00:00 | 00:00:00 | 00:00:00 | |
| BIOWL1-15 | 2026-08-31 07:00:39 | 49.75073 | 7.53652 | 67° | 71km/h | 4294m | 4.6m/s | -6.1°C | 0% | 0hPa | 5.1V | 00:00:00 | 00:00:00 | 00:00:00 | |
| DM0DOS-11 | 2026-08-31 07:00:39 | 49.75058 | 7.53598 | 78° | 73km/h | 4284m | 2.6m/s | 0°C | 0% | 0hPa | 0V | 00:00:00 | 00:00:00 | 00:00:00 | |
| DM0DOS-11 | 2026-08-31 07:00:34 | 49.75027 | 7.53469 | 62° | 78km/h | 4267m | 2.5m/s | 0°C | 0% | 0hPa | 0V | 00:00:00 | 00:00:00 | 00:00:00 | |
| DB0NH | 2026-08-31 07:00:28 | 49.75012 | 7.53418 | 70° | 73km/h | 4255m | 5.4m/s | 0°C | 0% | 0hPa | 5.1V | 00:00:00 | 00:00:00 | 00:00:00 | |
| BIOWL1-15 | 2026-08-31 07:00:26 | 49.75002 | 7.53363 | 76° | 73km/h | 4255m | 5.5m/s | -5.8°C | 0% | 0hPa | 5.1V | 00:00:00 | 00:00:00 | 00:00:00 | |
| CB1BUN | 2026-08-31 07:00:25 | 49.74996 | 7.53338 | 67° | 68km/h | 4252m | 1.2m/s | -5.7°C | 0% | 0hPa | 0V | 00:00:00 | 00:00:00 | 00:00:00 | |
| DM0DOS-11 | 2026-08-31 07:00:24 | 49.74961 | 7.53206 | 67° | 71km/h | 4232m | 2.6m/s | 0°C | 0% | 0hPa | 0V | 00:00:00 | 00:00:00 | 00:00:00 | |
| HEMX73-11 | 2026-08-31 07:00:23 | 49.74981 | 7.53287 | 70° | 78km/h | 4245m | 2.1m/s | -5.7°C | 0% | 0hPa | 0V | 00:00:00 | 00:00:00 | 00:00:00 | |
| DM0DOS-11 | 2026-08-31 07:00:19 | 49.74930 | 7.53073 | 68° | 69km/h | 4214m | 3.4m/s | 0°C | 0% | 0hPa | 0V | 00:00:00 | 00:00:00 | 00:00:00 | |
| BIOWL1-15 | 2026-08-31 07:00:15 | 49.74916 | 7.53021 | 69° | 77km/h | 4211m | 3m/s | -5.5°C | 0% | 0hPa | 5.1V | 00:00:00 | 00:00:00 | 00:00:00 | |
| DM0DOS-11 | 2026-08-31 07:00:14 | 49.74897 | 7.52938 | 73° | 73km/h | 4197m | 4.2m/s | 0°C | 0% | 0hPa | 0V | 00:00:00 | 00:00:00 | 00:00:00 | |
| DB0UT-7 | 2026-08-31 07:00:11 | 49.74902 | 7.52965 | 71° | 71km/h | 4201m | 3.9m/s | 0°C | 0% | 0hPa | 0V | 00:00:00 | 00:00:00 | 00:00:00 | |
| DM0DOS-11 | 2026-08-31 07:00:09 | 49.74864 | 7.52810 | 63° | 69km/h | 4182m | 3.6m/s | 0°C | 0% | 0hPa | 0V | 00:00:00 | 00:00:00 | 00:00:00 | |
| Es werden nur die letzten 3500 von 3644 Frames angezeigt. GPX/KML und Diagramme bleiben verfügbar. | |||||||||||||||